<?xml version="1.0" encoding="UTF-8" standalone="no" ?><gpx xmlns="http://www.topografix.com/GPX/1/1" xmlns:gpxx="http://www.garmin.com/xmlschemas/GpxExtensions/v3" xmlns:wptx1="http://www.garmin.com/xmlschemas/WaypointExtension/v1" xmlns:gpxtpx="http://www.garmin.com/xmlschemas/TrackPointExtension/v1" creator="GuideVTT.com" version="1.1" xmlns:xsi="http://www.w3.org/2001/XMLSchema-instance" xsi:schemaLocation="http://www.topografix.com/GPX/1/1 http://www.topografix.com/GPX/1/1/gpx.xsd http://www.garmin.com/xmlschemas/GpxExtensions/v3 http://www8.garmin.com/xmlschemas/GpxExtensionsv3.xsd http://www.garmin.com/xmlschemas/WaypointExtension/v1 http://www8.garmin.com/xmlschemas/WaypointExtensionv1.xsd http://www.garmin.com/xmlschemas/TrackPointExtension/v1 http://www.garmin.com/xmlschemas/TrackPointExtensionv1.xsd">
<metadata><link href="http://www.garmin.com"><text>Garmin International</text></link><time>2013-06-22T15:13:50Z</time></metadata>
<trk><name>activity_1258756751.gpx</name><extensions><gpxx:TrackExtension><gpxx:DisplayColor>Cyan</gpxx:DisplayColor></gpxx:TrackExtension></extensions><trkseg>
<trkpt lat="46.6457047127187252044677734375" lon="7.07616954110562801361083984375"><ele></ele><time>2016-7-29T0:11:38Z</time></trkpt>
<trkpt lat="46.64573849178850650787353515625" lon="7.0761275477707386016845703125"><ele></ele><time>2016-7-29T0:11:41Z</time></trkpt>
<trkpt lat="46.64574016816914081573486328125" lon="7.07609988749027252197265625"><ele></ele><time>2016-7-29T0:11:44Z</time></trkpt>
<trkpt lat="46.64574771188199520111083984375" lon="7.07608270458877086639404296875"><ele></ele><time>2016-7-29T0:11:47Z</time></trkpt>
<trkpt lat="46.64575584232807159423828125" lon="7.075998969376087188720703125"><ele></ele><time>2016-7-29T0:11:50Z</time></trkpt>
<trkpt lat="46.64575559087097644805908203125" lon="7.075962759554386138916015625"><ele></ele><time>2016-7-29T0:11:53Z</time></trkpt>
<trkpt lat="46.64575123228132724761962890625" lon="7.0757268927991390228271484375"><ele></ele><time>2016-7-29T0:11:56Z</time></trkpt>
<trkpt lat="46.64573580957949161529541015625" lon="7.0756906829774379730224609375"><ele></ele><time>2016-7-29T0:11:59Z</time></trkpt>
<trkpt lat="46.64567671716213226318359375" lon="7.07564793527126312255859375"><ele></ele><time>2016-7-29T0:12:2Z</time></trkpt>
<trkpt lat="46.64560027420520782470703125" lon="7.07561801187694072723388671875"><ele></ele><time>2016-7-29T0:12:5Z</time></trkpt>
<trkpt lat="46.64545132778584957122802734375" lon="7.0756206102669239044189453125"><ele></ele><time>2016-7-29T0:12:8Z</time></trkpt>
<trkpt lat="46.6452396847307682037353515625" lon="7.075730748474597930908203125"><ele></ele><time>2016-7-29T0:12:11Z</time></trkpt>
<trkpt lat="46.64510347880423069000244140625" lon="7.07571373321115970611572265625"><ele></ele><time>2016-7-29T0:12:14Z</time></trkpt>
<trkpt lat="46.64508302696049213409423828125" lon="7.0757599174976348876953125"><ele></ele><time>2016-7-29T0:12:17Z</time></trkpt>
<trkpt lat="46.64501630701124668121337890625" lon="7.075821273028850555419921875"><ele></ele><time>2016-7-29T0:12:20Z</time></trkpt>
<trkpt lat="46.64494137279689311981201171875" lon="7.07584641873836517333984375"><ele></ele><time>2016-7-29T0:12:23Z</time></trkpt>
<trkpt lat="46.64487515576183795928955078125" lon="7.07586921751499176025390625"><ele></ele><time>2016-7-29T0:12:26Z</time></trkpt>
<trkpt lat="46.64462931454181671142578125" lon="7.0759367756545543670654296875"><ele></ele><time>2016-7-29T0:12:29Z</time></trkpt>
<trkpt lat="46.64436939172446727752685546875" lon="7.07594876177608966827392578125"><ele></ele><time>2016-7-29T0:12:32Z</time></trkpt>
<trkpt lat="46.64406646974384784698486328125" lon="7.07594004459679126739501953125"><ele></ele><time>2016-7-29T0:12:35Z</time></trkpt>
<trkpt lat="46.6437762044370174407958984375" lon="7.07591305486857891082763671875"><ele></ele><time>2016-7-29T0:12:38Z</time></trkpt>
<trkpt lat="46.643710322678089141845703125" lon="7.0758967101573944091796875"><ele></ele><time>2016-7-29T0:12:41Z</time></trkpt>
<trkpt lat="46.64370738901197910308837890625" lon="7.0758941955864429473876953125"><ele></ele><time>2016-7-29T0:12:44Z</time></trkpt>
<trkpt lat="46.6436938941478729248046875" lon="7.0758985541760921478271484375"><ele></ele><time>2016-7-29T0:12:47Z</time></trkpt>
<trkpt lat="46.64370596408843994140625" lon="7.07587860524654388427734375"><ele></ele><time>2016-7-29T0:12:50Z</time></trkpt>
<trkpt lat="46.64370722137391567230224609375" lon="7.0758858136832714080810546875"><ele></ele><time>2016-7-29T0:12:53Z</time></trkpt>
<trkpt lat="46.64370319806039333343505859375" lon="7.07590618170797824859619140625"><ele></ele><time>2016-7-29T0:12:56Z</time></trkpt>
<trkpt lat="46.6436511464416980743408203125" lon="7.075913809239864349365234375"><ele></ele><time>2016-7-29T0:12:59Z</time></trkpt>
<trkpt lat="46.6435061395168304443359375" lon="7.07591003738343715667724609375"><ele></ele><time>2016-7-29T0:13:2Z</time></trkpt>
<trkpt lat="46.6432411037385463714599609375" lon="7.07586443983018398284912109375"><ele></ele><time>2016-7-29T0:13:5Z</time></trkpt>
<trkpt lat="46.64296760223805904388427734375" lon="7.0758194290101528167724609375"><ele></ele><time>2016-7-29T0:13:8Z</time></trkpt>
<trkpt lat="46.64276492781937122344970703125" lon="7.0757947862148284912109375"><ele></ele><time>2016-7-29T0:13:11Z</time></trkpt>
<trkpt lat="46.6425259597599506378173828125" lon="7.075762264430522918701171875"><ele></ele><time>2016-7-29T0:13:14Z</time></trkpt>
<trkpt lat="46.6422775201499462127685546875" lon="7.0757116377353668212890625"><ele></ele><time>2016-7-29T0:13:17Z</time></trkpt>
<trkpt lat="46.642003096640110015869140625" lon="7.0756702311336994171142578125"><ele></ele><time>2016-7-29T0:13:20Z</time></trkpt>
<trkpt lat="46.6416954807937145233154296875" lon="7.07570669241249561309814453125"><ele></ele><time>2016-7-29T0:13:23Z</time></trkpt>
<trkpt lat="46.64151468314230442047119140625" lon="7.0758905075490474700927734375"><ele></ele><time>2016-7-29T0:13:26Z</time></trkpt>
<trkpt lat="46.64125568233430385589599609375" lon="7.0762646757066249847412109375"><ele></ele><time>2016-7-29T0:13:29Z</time></trkpt>
<trkpt lat="46.64106599986553192138671875" lon="7.0765667594969272613525390625"><ele></ele><time>2016-7-29T0:13:32Z</time></trkpt>
<trkpt lat="46.640871204435825347900390625" lon="7.07697018049657344818115234375"><ele></ele><time>2016-7-29T0:13:35Z</time></trkpt>
<trkpt lat="46.64062670432031154632568359375" lon="7.07757686264812946319580078125"><ele></ele><time>2016-7-29T0:13:38Z</time></trkpt>
<trkpt lat="46.6406058333814144134521484375" lon="7.07762396894395351409912109375"><ele></ele><time>2016-7-29T0:13:41Z</time></trkpt>
<trkpt lat="46.64050432853400707244873046875" lon="7.07786075770854949951171875"><ele></ele><time>2016-7-29T0:13:44Z</time></trkpt>
<trkpt lat="46.64021867327392101287841796875" lon="7.0785375125706195831298828125"><ele></ele><time>2016-7-29T0:13:47Z</time></trkpt>
<trkpt lat="46.6401988081634044647216796875" lon="7.0785844512283802032470703125"><ele></ele><time>2016-7-29T0:13:50Z</time></trkpt>
<trkpt lat="46.640026979148387908935546875" lon="7.07898317836225032806396484375"><ele></ele><time>2016-7-29T0:13:53Z</time></trkpt>
<trkpt lat="46.639841236174106597900390625" lon="7.07942406646907329559326171875"><ele></ele><time>2016-7-29T0:13:56Z</time></trkpt>
<trkpt lat="46.639625318348407745361328125" lon="7.07982656545937061309814453125"><ele></ele><time>2016-7-29T0:13:59Z</time></trkpt>
<trkpt lat="46.6393579356372356414794921875" lon="7.0802752487361431121826171875"><ele></ele><time>2016-7-29T0:14:2Z</time></trkpt>
<trkpt lat="46.63914017379283905029296875" lon="7.080616392195224761962890625"><ele></ele><time>2016-7-29T0:14:5Z</time></trkpt>
<trkpt lat="46.63895401172339916229248046875" lon="7.08080045878887176513671875"><ele></ele><time>2016-7-29T0:14:8Z</time></trkpt>
<trkpt lat="46.63891294039785861968994140625" lon="7.08083071745932102203369140625"><ele></ele><time>2016-7-29T0:14:11Z</time></trkpt>
<trkpt lat="46.6386209987103939056396484375" lon="7.081062979996204376220703125"><ele></ele><time>2016-7-29T0:14:14Z</time></trkpt>
<trkpt lat="46.6385747306048870086669921875" lon="7.0810849405825138092041015625"><ele></ele><time>2016-7-29T0:14:17Z</time></trkpt>
<trkpt lat="46.63842829875648021697998046875" lon="7.08109122700989246368408203125"><ele></ele><time>2016-7-29T0:14:20Z</time></trkpt>
<trkpt lat="46.6383802704513072967529296875" lon="7.0810896344482898712158203125"><ele></ele><time>2016-7-29T0:14:23Z</time></trkpt>
<trkpt lat="46.63804189302027225494384765625" lon="7.08105384372174739837646484375"><ele></ele><time>2016-7-29T0:14:26Z</time></trkpt>
<trkpt lat="46.63766873069107532501220703125" lon="7.08098092116415500640869140625"><ele></ele><time>2016-7-29T0:14:29Z</time></trkpt>
<trkpt lat="46.63740746676921844482421875" lon="7.08103707991540431976318359375"><ele></ele><time>2016-7-29T0:14:32Z</time></trkpt>
<trkpt lat="46.63709976710379123687744140625" lon="7.08113565109670162200927734375"><ele></ele><time>2016-7-29T0:14:35Z</time></trkpt>
<trkpt lat="46.63681930862367153167724609375" lon="7.08118258975446224212646484375"><ele></ele><time>2016-7-29T0:14:38Z</time></trkpt>
<trkpt lat="46.6366458870470523834228515625" lon="7.08109692670404911041259765625"><ele></ele><time>2016-7-29T0:14:41Z</time></trkpt>
<trkpt lat="46.63651806302368640899658203125" lon="7.08087547682225704193115234375"><ele></ele><time>2016-7-29T0:14:44Z</time></trkpt>
<trkpt lat="46.6363230161368846893310546875" lon="7.08062351681292057037353515625"><ele></ele><time>2016-7-29T0:14:47Z</time></trkpt>
<trkpt lat="46.63613165728747844696044921875" lon="7.080417238175868988037109375"><ele></ele><time>2016-7-29T0:14:50Z</time></trkpt>
<trkpt lat="46.63591003976762294769287109375" lon="7.0801760070025920867919921875"><ele></ele><time>2016-7-29T0:14:53Z</time></trkpt>
<trkpt lat="46.6358361952006816864013671875" lon="7.079918682575225830078125"><ele></ele><time>2016-7-29T0:14:56Z</time></trkpt>
<trkpt lat="46.635783053934574127197265625" lon="7.07959991879761219024658203125"><ele></ele><time>2016-7-29T0:14:59Z</time></trkpt>
<trkpt lat="46.635722033679485321044921875" lon="7.07924611866474151611328125"><ele></ele><time>2016-7-29T0:15:2Z</time></trkpt>
<trkpt lat="46.63565388880670070648193359375" lon="7.07905576564371585845947265625"><ele></ele><time>2016-7-29T0:15:5Z</time></trkpt>
<trkpt lat="46.63556084968149662017822265625" lon="7.07891888916492462158203125"><ele></ele><time>2016-7-29T0:15:8Z</time></trkpt>
<trkpt lat="46.63546294905245304107666015625" lon="7.07880900241434574127197265625"><ele></ele><time>2016-7-29T0:15:11Z</time></trkpt>
<trkpt lat="46.6353785432875156402587890625" lon="7.07869031466543674468994140625"><ele></ele><time>2016-7-29T0:15:14Z</time></trkpt>
<trkpt lat="46.63522859103977680206298828125" lon="7.07855218090116977691650390625"><ele></ele><time>2016-7-29T0:15:17Z</time></trkpt>
<trkpt lat="46.63510822691023349761962890625" lon="7.07847238518297672271728515625"><ele></ele><time>2016-7-29T0:15:20Z</time></trkpt>
<trkpt lat="46.6349966637790203094482421875" lon="7.07840264774858951568603515625"><ele></ele><time>2016-7-29T0:15:23Z</time></trkpt>
<trkpt lat="46.63489163853228092193603515625" lon="7.07836593501269817352294921875"><ele></ele><time>2016-7-29T0:15:26Z</time></trkpt>
<trkpt lat="46.63475073873996734619140625" lon="7.07831379957497119903564453125"><ele></ele><time>2016-7-29T0:15:29Z</time></trkpt>
<trkpt lat="46.63465660996735095977783203125" lon="7.07823785953223705291748046875"><ele></ele><time>2016-7-29T0:15:32Z</time></trkpt>
<trkpt lat="46.6345611400902271270751953125" lon="7.07821623422205448150634765625"><ele></ele><time>2016-7-29T0:15:35Z</time></trkpt>
<trkpt lat="46.63451747037470340728759765625" lon="7.078196704387664794921875"><ele></ele><time>2016-7-29T0:15:38Z</time></trkpt>
<trkpt lat="46.63446617312729358673095703125" lon="7.07819527946412563323974609375"><ele></ele><time>2016-7-29T0:15:41Z</time></trkpt>
<trkpt lat="46.634456701576709747314453125" lon="7.07817885093390941619873046875"><ele></ele><time>2016-7-29T0:15:44Z</time></trkpt>
<trkpt lat="46.6344268620014190673828125" lon="7.07817365415394306182861328125"><ele></ele><time>2016-7-29T0:15:47Z</time></trkpt>
<trkpt lat="46.6343759000301361083984375" lon="7.078157477080821990966796875"><ele></ele><time>2016-7-29T0:15:50Z</time></trkpt>
<trkpt lat="46.634228713810443878173828125" lon="7.0781117118895053863525390625"><ele></ele><time>2016-7-29T0:15:53Z</time></trkpt>
<trkpt lat="46.6341125406324863433837890625" lon="7.07807935774326324462890625"><ele></ele><time>2016-7-29T0:15:56Z</time></trkpt>
<trkpt lat="46.6339780949056148529052734375" lon="7.078050188720226287841796875"><ele></ele><time>2016-7-29T0:15:59Z</time></trkpt>
<trkpt lat="46.633872650563716888427734375" lon="7.0780151523649692535400390625"><ele></ele><time>2016-7-29T0:16:2Z</time></trkpt>
<trkpt lat="46.63374298252165317535400390625" lon="7.07800601609051227569580078125"><ele></ele><time>2016-7-29T0:16:5Z</time></trkpt>
<trkpt lat="46.6336186788976192474365234375" lon="7.077973745763301849365234375"><ele></ele><time>2016-7-29T0:16:8Z</time></trkpt>
<trkpt lat="46.63351600058376789093017578125" lon="7.0779380388557910919189453125"><ele></ele><time>2016-7-29T0:16:11Z</time></trkpt>
<trkpt lat="46.63338574580848217010498046875" lon="7.07788162864744663238525390625"><ele></ele><time>2016-7-29T0:16:14Z</time></trkpt>
<trkpt lat="46.633261777460575103759765625" lon="7.0778572373092174530029296875"><ele></ele><time>2016-7-29T0:16:17Z</time></trkpt>
<trkpt lat="46.63307569921016693115234375" lon="7.07774215377867221832275390625"><ele></ele><time>2016-7-29T0:16:20Z</time></trkpt>
<trkpt lat="46.6329018585383892059326171875" lon="7.07761525176465511322021484375"><ele></ele><time>2016-7-29T0:16:23Z</time></trkpt>
<trkpt lat="46.6327506490051746368408203125" lon="7.077540569007396697998046875"><ele></ele><time>2016-7-29T0:16:26Z</time></trkpt>
<trkpt lat="46.63265517912805080413818359375" lon="7.07748181186616420745849609375"><ele></ele><time>2016-7-29T0:16:29Z</time></trkpt>
<trkpt lat="46.6325437836349010467529296875" lon="7.07740704528987407684326171875"><ele></ele><time>2016-7-29T0:16:32Z</time></trkpt>
<trkpt lat="46.63241830654442310333251953125" lon="7.07732942886650562286376953125"><ele></ele><time>2016-7-29T0:16:35Z</time></trkpt>
<trkpt lat="46.632314957678318023681640625" lon="7.07727377302944660186767578125"><ele></ele><time>2016-7-29T0:16:38Z</time></trkpt>
<trkpt lat="46.6321843676269054412841796875" lon="7.0771471224725246429443359375"><ele></ele><time>2016-7-29T0:16:41Z</time></trkpt>
<trkpt lat="46.63200658746063709259033203125" lon="7.07697822712361812591552734375"><ele></ele><time>2016-7-29T0:16:44Z</time></trkpt>
<trkpt lat="46.63190516643226146697998046875" lon="7.0768014527857303619384765625"><ele></ele><time>2016-7-29T0:16:47Z</time></trkpt>
<trkpt lat="46.6317679546773433685302734375" lon="7.07659919746220111846923828125"><ele></ele><time>2016-7-29T0:16:50Z</time></trkpt>
<trkpt lat="46.63161699660122394561767578125" lon="7.07641328684985637664794921875"><ele></ele><time>2016-7-29T0:16:53Z</time></trkpt>
<trkpt lat="46.6314561478793621063232421875" lon="7.0762073434889316558837890625"><ele></ele><time>2016-7-29T0:16:56Z</time></trkpt>
<trkpt lat="46.63141272962093353271484375" lon="7.0761392824351787567138671875"><ele></ele><time>2016-7-29T0:16:59Z</time></trkpt>
<trkpt lat="46.6313423216342926025390625" lon="7.07606099545955657958984375"><ele></ele><time>2016-7-29T0:17:2Z</time></trkpt>
<trkpt lat="46.63120293058454990386962890625" lon="7.07589997909963130950927734375"><ele></ele><time>2016-7-29T0:17:5Z</time></trkpt>
<trkpt lat="46.63108876906335353851318359375" lon="7.07579403184354305267333984375"><ele></ele><time>2016-7-29T0:17:8Z</time></trkpt>
<trkpt lat="46.6308553330600261688232421875" lon="7.0756258070468902587890625"><ele></ele><time>2016-7-29T0:17:11Z</time></trkpt>
<trkpt lat="46.63062910549342632293701171875" lon="7.07548029720783233642578125"><ele></ele><time>2016-7-29T0:17:14Z</time></trkpt>
<trkpt lat="46.63030656985938549041748046875" lon="7.0753027684986591339111328125"><ele></ele><time>2016-7-29T0:17:17Z</time></trkpt>
<trkpt lat="46.63022191263735294342041015625" lon="7.07524099387228488922119140625"><ele></ele><time>2016-7-29T0:17:20Z</time></trkpt>
<trkpt lat="46.63013658486306667327880859375" lon="7.075083665549755096435546875"><ele></ele><time>2016-7-29T0:17:23Z</time></trkpt>
<trkpt lat="46.6301153786480426788330078125" lon="7.075021304190158843994140625"><ele></ele><time>2016-7-29T0:17:26Z</time></trkpt>
<trkpt lat="46.63009903393685817718505859375" lon="7.074951231479644775390625"><ele></ele><time>2016-7-29T0:17:29Z</time></trkpt>
<trkpt lat="46.63008428178727626800537109375" lon="7.07468309439718723297119140625"><ele></ele><time>2016-7-29T0:17:32Z</time></trkpt>
<trkpt lat="46.63012049160897731781005859375" lon="7.0740245282649993896484375"><ele></ele><time>2016-7-29T0:17:35Z</time></trkpt>
<trkpt lat="46.63011680357158184051513671875" lon="7.07337954081594944000244140625"><ele></ele><time>2016-7-29T0:17:38Z</time></trkpt>
<trkpt lat="46.63010557182133197784423828125" lon="7.07329924218356609344482421875"><ele></ele><time>2016-7-29T0:17:41Z</time></trkpt>
<trkpt lat="46.63004723377525806427001953125" lon="7.07306588999927043914794921875"><ele></ele><time>2016-7-29T0:17:44Z</time></trkpt>
<trkpt lat="46.62986802868545055389404296875" lon="7.07261511124670505523681640625"><ele></ele><time>2016-7-29T0:17:47Z</time></trkpt>
<trkpt lat="46.6296701319515705108642578125" lon="7.07211722619831562042236328125"><ele></ele><time>2016-7-29T0:17:50Z</time></trkpt>
<trkpt lat="46.62953644059598445892333984375" lon="7.0717662759125232696533203125"><ele></ele><time>2016-7-29T0:17:53Z</time></trkpt>
<trkpt lat="46.62951397709548473358154296875" lon="7.0717122964560985565185546875"><ele></ele><time>2016-7-29T0:17:56Z</time></trkpt>
<trkpt lat="46.62938456051051616668701171875" lon="7.07135681994259357452392578125"><ele></ele><time>2016-7-29T0:17:59Z</time></trkpt>
<trkpt lat="46.6292609274387359619140625" lon="7.07100042141973972320556640625"><ele></ele><time>2016-7-29T0:18:2Z</time></trkpt>
<trkpt lat="46.62909856997430324554443359375" lon="7.07058467902243137359619140625"><ele></ele><time>2016-7-29T0:18:5Z</time></trkpt>
<trkpt lat="46.628930009901523590087890625" lon="7.070094086229801177978515625"><ele></ele><time>2016-7-29T0:18:8Z</time></trkpt>
<trkpt lat="46.62871317006647586822509765625" lon="7.0693827979266643524169921875"><ele></ele><time>2016-7-29T0:18:11Z</time></trkpt>
<trkpt lat="46.62860353477299213409423828125" lon="7.06882565282285213470458984375"><ele></ele><time>2016-7-29T0:18:14Z</time></trkpt>
<trkpt lat="46.6284752078354358673095703125" lon="7.068260796368122100830078125"><ele></ele><time>2016-7-29T0:18:17Z</time></trkpt>
<trkpt lat="46.6283427737653255462646484375" lon="7.06797681748867034912109375"><ele></ele><time>2016-7-29T0:18:20Z</time></trkpt>
<trkpt lat="46.6282542608678340911865234375" lon="7.067871876060962677001953125"><ele></ele><time>2016-7-29T0:18:23Z</time></trkpt>
<trkpt lat="46.627985201776027679443359375" lon="7.0675979554653167724609375"><ele></ele><time>2016-7-29T0:18:26Z</time></trkpt>
<trkpt lat="46.6277536936104297637939453125" lon="7.0672735758125782012939453125"><ele></ele><time>2016-7-29T0:18:29Z</time></trkpt>
<trkpt lat="46.627692170441150665283203125" lon="7.06715547479689121246337890625"><ele></ele><time>2016-7-29T0:18:32Z</time></trkpt>
<trkpt lat="46.62765587680041790008544921875" lon="7.06711557693779468536376953125"><ele></ele><time>2016-7-29T0:18:35Z</time></trkpt>
<trkpt lat="46.6275417990982532501220703125" lon="7.06714223138988018035888671875"><ele></ele><time>2016-7-29T0:18:38Z</time></trkpt>
<trkpt lat="46.62751656956970691680908203125" lon="7.06716402433812618255615234375"><ele></ele><time>2016-7-29T0:18:41Z</time></trkpt>
<trkpt lat="46.6273164935410022735595703125" lon="7.06733065657317638397216796875"><ele></ele><time>2016-7-29T0:18:44Z</time></trkpt>
<trkpt lat="46.62704072892665863037109375" lon="7.06757121719419956207275390625"><ele></ele><time>2016-7-29T0:18:47Z</time></trkpt>
<trkpt lat="46.6267062909901142120361328125" lon="7.0678096823394298553466796875"><ele></ele><time>2016-7-29T0:18:50Z</time></trkpt>
<trkpt lat="46.62653647363185882568359375" lon="7.06790632568299770355224609375"><ele></ele><time>2016-7-29T0:18:53Z</time></trkpt>
<trkpt lat="46.62628292106091976165771484375" lon="7.06800741143524646759033203125"><ele></ele><time>2016-7-29T0:18:56Z</time></trkpt>
<trkpt lat="46.62586860358715057373046875" lon="7.0681209862232208251953125"><ele></ele><time>2016-7-29T0:18:59Z</time></trkpt>
<trkpt lat="46.62547809071838855743408203125" lon="7.06816080026328563690185546875"><ele></ele><time>2016-7-29T0:19:2Z</time></trkpt>
<trkpt lat="46.625039465725421905517578125" lon="7.068228609859943389892578125"><ele></ele><time>2016-7-29T0:19:5Z</time></trkpt>
<trkpt lat="46.62495589815080165863037109375" lon="7.06825601868331432342529296875"><ele></ele><time>2016-7-29T0:19:8Z</time></trkpt>
<trkpt lat="46.62485011853277683258056640625" lon="7.0682066492736339569091796875"><ele></ele><time>2016-7-29T0:19:11Z</time></trkpt>
<trkpt lat="46.62470192648470401763916015625" lon="7.068203799426555633544921875"><ele></ele><time>2016-7-29T0:19:14Z</time></trkpt>
<trkpt lat="46.6246651299297809600830078125" lon="7.06820857711136341094970703125"><ele></ele><time>2016-7-29T0:19:17Z</time></trkpt>
<trkpt lat="46.62430621683597564697265625" lon="7.0682435296475887298583984375"><ele></ele><time>2016-7-29T0:19:20Z</time></trkpt>
<trkpt lat="46.6239768080413341522216796875" lon="7.06826121546328067779541015625"><ele></ele><time>2016-7-29T0:19:23Z</time></trkpt>
<trkpt lat="46.62361613474786281585693359375" lon="7.0682881213724613189697265625"><ele></ele><time>2016-7-29T0:19:26Z</time></trkpt>
<trkpt lat="46.62318379618227481842041015625" lon="7.0683172903954982757568359375"><ele></ele><time>2016-7-29T0:19:29Z</time></trkpt>
<trkpt lat="46.62275531329214572906494140625" lon="7.0683578588068485260009765625"><ele></ele><time>2016-7-29T0:19:32Z</time></trkpt>
<trkpt lat="46.62258918397128582000732421875" lon="7.0683568529784679412841796875"><ele></ele><time>2016-7-29T0:19:35Z</time></trkpt>
<trkpt lat="46.6224883496761322021484375" lon="7.0684262551367282867431640625"><ele></ele><time>2016-7-29T0:19:38Z</time></trkpt>
<trkpt lat="46.6224898584187030792236328125" lon="7.06859179772436618804931640625"><ele></ele><time>2016-7-29T0:19:41Z</time></trkpt>
<trkpt lat="46.62248759530484676361083984375" lon="7.0687440969049930572509765625"><ele></ele><time>2016-7-29T0:19:44Z</time></trkpt>
<trkpt lat="46.622479967772960662841796875" lon="7.06880620680749416351318359375"><ele></ele><time>2016-7-29T0:19:47Z</time></trkpt>
<trkpt lat="46.62243830971419811248779296875" lon="7.068767733871936798095703125"><ele></ele><time>2016-7-29T0:19:50Z</time></trkpt>
<trkpt lat="46.62241903133690357208251953125" lon="7.06875105388462543487548828125"><ele></ele><time>2016-7-29T0:19:53Z</time></trkpt>
<trkpt lat="46.62227871827781200408935546875" lon="7.06870478577911853790283203125"><ele></ele><time>2016-7-29T0:19:56Z</time></trkpt>
<trkpt lat="46.6220281831920146942138671875" lon="7.06870931200683116912841796875"><ele></ele><time>2016-7-29T0:19:59Z</time></trkpt>
<trkpt lat="46.62175635807216167449951171875" lon="7.0687169395387172698974609375"><ele></ele><time>2016-7-29T0:20:2Z</time></trkpt>
<trkpt lat="46.62165812216699123382568359375" lon="7.06857687793672084808349609375"><ele></ele><time>2016-7-29T0:20:5Z</time></trkpt>
<trkpt lat="46.6215779073536396026611328125" lon="7.0684081502258777618408203125"><ele></ele><time>2016-7-29T0:20:8Z</time></trkpt>
<trkpt lat="46.62144505418837070465087890625" lon="7.0684172026813030242919921875"><ele></ele><time>2016-7-29T0:20:11Z</time></trkpt>
<trkpt lat="46.62116778083145618438720703125" lon="7.068516276776790618896484375"><ele></ele><time>2016-7-29T0:20:14Z</time></trkpt>
<trkpt lat="46.6209227778017520904541015625" lon="7.068659104406833648681640625"><ele></ele><time>2016-7-29T0:20:17Z</time></trkpt>
<trkpt lat="46.62059747613966464996337890625" lon="7.06883923150599002838134765625"><ele></ele><time>2016-7-29T0:20:20Z</time></trkpt>
<trkpt lat="46.62036160938441753387451171875" lon="7.06898306496441364288330078125"><ele></ele><time>2016-7-29T0:20:23Z</time></trkpt>
<trkpt lat="46.62033612839877605438232421875" lon="7.06902916543185710906982421875"><ele></ele><time>2016-7-29T0:20:26Z</time></trkpt>
<trkpt lat="46.62032137624919414520263671875" lon="7.06909839995205402374267578125"><ele></ele><time>2016-7-29T0:20:29Z</time></trkpt>
<trkpt lat="46.62033998407423496246337890625" lon="7.06926352344453334808349609375"><ele></ele><time>2016-7-29T0:20:32Z</time></trkpt>
<trkpt lat="46.620390526950359344482421875" lon="7.06944591365754604339599609375"><ele></ele><time>2016-7-29T0:20:35Z</time></trkpt>
<trkpt lat="46.6204030998051166534423828125" lon="7.06967926584184169769287109375"><ele></ele><time>2016-7-29T0:20:38Z</time></trkpt>
<trkpt lat="46.62031182087957859039306640625" lon="7.069796025753021240234375"><ele></ele><time>2016-7-29T0:20:41Z</time></trkpt>
<trkpt lat="46.6201248206198215484619140625" lon="7.06988009624183177947998046875"><ele></ele><time>2016-7-29T0:20:44Z</time></trkpt>
<trkpt lat="46.6197841800749301910400390625" lon="7.07000180147588253021240234375"><ele></ele><time>2016-7-29T0:20:47Z</time></trkpt>
<trkpt lat="46.619283445179462432861328125" lon="7.07018620334565639495849609375"><ele></ele><time>2016-7-29T0:20:50Z</time></trkpt>
<trkpt lat="46.61901145242154598236083984375" lon="7.07036758773028850555419921875"><ele></ele><time>2016-7-29T0:20:53Z</time></trkpt>
<trkpt lat="46.61877550184726715087890625" lon="7.0705676637589931488037109375"><ele></ele><time>2016-7-29T0:20:56Z</time></trkpt>
<trkpt lat="46.61874331533908843994140625" lon="7.07059490494430065155029296875"><ele></ele><time>2016-7-29T0:20:59Z</time></trkpt>
<trkpt lat="46.618506610393524169921875" lon="7.07083471119403839111328125"><ele></ele><time>2016-7-29T0:21:2Z</time></trkpt>
<trkpt lat="46.61835062317550182342529296875" lon="7.071000672876834869384765625"><ele></ele><time>2016-7-29T0:21:5Z</time></trkpt>
<trkpt lat="46.6182006709277629852294921875" lon="7.07112933509051799774169921875"><ele></ele><time>2016-7-29T0:21:8Z</time></trkpt>
<trkpt lat="46.61807871423661708831787109375" lon="7.07119949162006378173828125"><ele></ele><time>2016-7-29T0:21:11Z</time></trkpt>
<trkpt lat="46.61800662986934185028076171875" lon="7.07127165980637073516845703125"><ele></ele><time>2016-7-29T0:21:14Z</time></trkpt>
<trkpt lat="46.6179850883781909942626953125" lon="7.0713186822831630706787109375"><ele></ele><time>2016-7-29T0:21:17Z</time></trkpt>
<trkpt lat="46.61796991713345050811767578125" lon="7.07135765813291072845458984375"><ele></ele><time>2016-7-29T0:21:20Z</time></trkpt>
<trkpt lat="46.61789766512811183929443359375" lon="7.07142253406345844268798828125"><ele></ele><time>2016-7-29T0:21:23Z</time></trkpt>
<trkpt lat="46.617749221622943878173828125" lon="7.07141214050352573394775390625"><ele></ele><time>2016-7-29T0:21:26Z</time></trkpt>
<trkpt lat="46.6175723634660243988037109375" lon="7.07130116410553455352783203125"><ele></ele><time>2016-7-29T0:21:29Z</time></trkpt>
<trkpt lat="46.617417633533477783203125" lon="7.07106144167482852935791015625"><ele></ele><time>2016-7-29T0:21:32Z</time></trkpt>
<trkpt lat="46.61723549477756023406982421875" lon="7.07064586691558361053466796875"><ele></ele><time>2016-7-29T0:21:35Z</time></trkpt>
<trkpt lat="46.61714203655719757080078125" lon="7.0703312940895557403564453125"><ele></ele><time>2016-7-29T0:21:38Z</time></trkpt>
<trkpt lat="46.617117226123809814453125" lon="7.070141024887561798095703125"><ele></ele><time>2016-7-29T0:21:41Z</time></trkpt>
<trkpt lat="46.6170888952910900115966796875" lon="7.06998386420309543609619140625"><ele></ele><time>2016-7-29T0:21:44Z</time></trkpt>
<trkpt lat="46.6170677728950977325439453125" lon="7.06970860250294208526611328125"><ele></ele><time>2016-7-29T0:21:47Z</time></trkpt>
<trkpt lat="46.61697062663733959197998046875" lon="7.06942831166088581085205078125"><ele></ele><time>2016-7-29T0:21:50Z</time></trkpt>
<trkpt lat="46.6168840415775775909423828125" lon="7.06920753233134746551513671875"><ele></ele><time>2016-7-29T0:21:53Z</time></trkpt>
<trkpt lat="46.61670089699327945709228515625" lon="7.06906151957809925079345703125"><ele></ele><time>2016-7-29T0:21:56Z</time></trkpt>
<trkpt lat="46.61647408269345760345458984375" lon="7.0690260641276836395263671875"><ele></ele><time>2016-7-29T0:21:59Z</time></trkpt>
<trkpt lat="46.6162656247615814208984375" lon="7.06889354623854160308837890625"><ele></ele><time>2016-7-29T0:22:2Z</time></trkpt>
<trkpt lat="46.61606856621801853179931640625" lon="7.0685808174312114715576171875"><ele></ele><time>2016-7-29T0:22:5Z</time></trkpt>
<trkpt lat="46.61590998061001300811767578125" lon="7.06833983771502971649169921875"><ele></ele><time>2016-7-29T0:22:8Z</time></trkpt>
<trkpt lat="46.6157561726868152618408203125" lon="7.06822383217513561248779296875"><ele></ele><time>2016-7-29T0:22:11Z</time></trkpt>
<trkpt lat="46.61552206613123416900634765625" lon="7.068152837455272674560546875"><ele></ele><time>2016-7-29T0:22:14Z</time></trkpt>
<trkpt lat="46.61529106087982654571533203125" lon="7.0681308768689632415771484375"><ele></ele><time>2016-7-29T0:22:17Z</time></trkpt>
<trkpt lat="46.61524529568850994110107421875" lon="7.06811520271003246307373046875"><ele></ele><time>2016-7-29T0:22:20Z</time></trkpt>
<trkpt lat="46.61509844474494457244873046875" lon="7.068083100020885467529296875"><ele></ele><time>2016-7-29T0:22:23Z</time></trkpt>
<trkpt lat="46.6150333173573017120361328125" lon="7.0680673420429229736328125"><ele></ele><time>2016-7-29T0:22:26Z</time></trkpt>
<trkpt lat="46.614929549396038055419921875" lon="7.0680128596723079681396484375"><ele></ele><time>2016-7-29T0:22:29Z</time></trkpt>
<trkpt lat="46.61478177644312381744384765625" lon="7.067922838032245635986328125"><ele></ele><time>2016-7-29T0:22:32Z</time></trkpt>
<trkpt lat="46.6146521084010601043701171875" lon="7.0678420364856719970703125"><ele></ele><time>2016-7-29T0:22:35Z</time></trkpt>
<trkpt lat="46.614598296582698822021484375" lon="7.06785335205495357513427734375"><ele></ele><time>2016-7-29T0:22:38Z</time></trkpt>
<trkpt lat="46.61457373760640621185302734375" lon="7.06788654439151287078857421875"><ele></ele><time>2016-7-29T0:22:41Z</time></trkpt>
<trkpt lat="46.61455915309488773345947265625" lon="7.06799349747598171234130859375"><ele></ele><time>2016-7-29T0:22:44Z</time></trkpt>
<trkpt lat="46.6145411320030689239501953125" lon="7.068085782229900360107421875"><ele></ele><time>2016-7-29T0:22:47Z</time></trkpt>
<trkpt lat="46.61453568376600742340087890625" lon="7.0681141130626201629638671875"><ele></ele><time>2016-7-29T0:22:50Z</time></trkpt>
<trkpt lat="46.6145173273980617523193359375" lon="7.06826708279550075531005859375"><ele></ele><time>2016-7-29T0:22:53Z</time></trkpt>
<trkpt lat="46.6145220212638378143310546875" lon="7.0684282667934894561767578125"><ele></ele><time>2016-7-29T0:22:56Z</time></trkpt>
<trkpt lat="46.6145122982561588287353515625" lon="7.0684497244656085968017578125"><ele></ele><time>2016-7-29T0:22:59Z</time></trkpt>
<trkpt lat="46.614504754543304443359375" lon="7.06854536198079586029052734375"><ele></ele><time>2016-7-29T0:23:2Z</time></trkpt>
<trkpt lat="46.61452327854931354522705078125" lon="7.06874082796275615692138671875"><ele></ele><time>2016-7-29T0:23:5Z</time></trkpt>
<trkpt lat="46.61460743285715579986572265625" lon="7.068911902606487274169921875"><ele></ele><time>2016-7-29T0:23:8Z</time></trkpt>
<trkpt lat="46.614616401493549346923828125" lon="7.06897082738578319549560546875"><ele></ele><time>2016-7-29T0:23:11Z</time></trkpt>
<trkpt lat="46.61464800126850605010986328125" lon="7.0690582506358623504638671875"><ele></ele><time>2016-7-29T0:23:14Z</time></trkpt>
<trkpt lat="46.61472243256866931915283203125" lon="7.06927609629929065704345703125"><ele></ele><time>2016-7-29T0:23:17Z</time></trkpt>
<trkpt lat="46.61482016555964946746826171875" lon="7.0694528706371784210205078125"><ele></ele><time>2016-7-29T0:23:20Z</time></trkpt>
<trkpt lat="46.6149003803730010986328125" lon="7.06963132135570049285888671875"><ele></ele><time>2016-7-29T0:23:23Z</time></trkpt>
<trkpt lat="46.6149836964905261993408203125" lon="7.069919742643833160400390625"><ele></ele><time>2016-7-29T0:23:26Z</time></trkpt>
<trkpt lat="46.6150715388357639312744140625" lon="7.0702528394758701324462890625"><ele></ele><time>2016-7-29T0:23:29Z</time></trkpt>
<trkpt lat="46.61518695764243602752685546875" lon="7.07054260186851024627685546875"><ele></ele><time>2016-7-29T0:23:32Z</time></trkpt>
<trkpt lat="46.61521445028483867645263671875" lon="7.07062273286283016204833984375"><ele></ele><time>2016-7-29T0:23:35Z</time></trkpt>
<trkpt lat="46.615369431674480438232421875" lon="7.0710524730384349822998046875"><ele></ele><time>2016-7-29T0:23:38Z</time></trkpt>
<trkpt lat="46.61540874280035495758056640625" lon="7.0714469254016876220703125"><ele></ele><time>2016-7-29T0:23:41Z</time></trkpt>
<trkpt lat="46.61544998176395893096923828125" lon="7.07192226313054561614990234375"><ele></ele><time>2016-7-29T0:23:44Z</time></trkpt>
<trkpt lat="46.61544151604175567626953125" lon="7.0719848759472370147705078125"><ele></ele><time>2016-7-29T0:23:47Z</time></trkpt>
<trkpt lat="46.6154758818447589874267578125" lon="7.0720760710537433624267578125"><ele></ele><time>2016-7-29T0:23:50Z</time></trkpt>
<trkpt lat="46.61550396122038364410400390625" lon="7.07216198556125164031982421875"><ele></ele><time>2016-7-29T0:23:53Z</time></trkpt>
<trkpt lat="46.61552608944475650787353515625" lon="7.0722836069762706756591796875"><ele></ele><time>2016-7-29T0:23:56Z</time></trkpt>
<trkpt lat="46.61554813385009765625" lon="7.072365246713161468505859375"><ele></ele><time>2016-7-29T0:23:59Z</time></trkpt>
<trkpt lat="46.6156029514968395233154296875" lon="7.0724767260253429412841796875"><ele></ele><time>2016-7-29T0:24:2Z</time></trkpt>
<trkpt lat="46.6156093217432498931884765625" lon="7.0726584456861019134521484375"><ele></ele><time>2016-7-29T0:24:5Z</time></trkpt>
<trkpt lat="46.615536399185657501220703125" lon="7.07276732660830020904541015625"><ele></ele><time>2016-7-29T0:24:8Z</time></trkpt>
<trkpt lat="46.61542676389217376708984375" lon="7.07283404655754566192626953125"><ele></ele><time>2016-7-29T0:24:11Z</time></trkpt>
<trkpt lat="46.6151771508157253265380859375" lon="7.07280739210546016693115234375"><ele></ele><time>2016-7-29T0:24:14Z</time></trkpt>
<trkpt lat="46.61501848138868808746337890625" lon="7.0728505589067935943603515625"><ele></ele><time>2016-7-29T0:24:17Z</time></trkpt>
<trkpt lat="46.61477775312960147857666015625" lon="7.07285298965871334075927734375"><ele></ele><time>2016-7-29T0:24:20Z</time></trkpt>
<trkpt lat="46.61459553055465221405029296875" lon="7.07276053726673126220703125"><ele></ele><time>2016-7-29T0:24:23Z</time></trkpt>
<trkpt lat="46.61435388028621673583984375" lon="7.0726054720580577850341796875"><ele></ele><time>2016-7-29T0:24:26Z</time></trkpt>
<trkpt lat="46.61419739015400409698486328125" lon="7.07266070879995822906494140625"><ele></ele><time>2016-7-29T0:24:29Z</time></trkpt>
<trkpt lat="46.61408624611794948577880859375" lon="7.07280672155320644378662109375"><ele></ele><time>2016-7-29T0:24:32Z</time></trkpt>
<trkpt lat="46.6139946319162845611572265625" lon="7.07295742817223072052001953125"><ele></ele><time>2016-7-29T0:24:35Z</time></trkpt>
<trkpt lat="46.61390100605785846710205078125" lon="7.07320989109575748443603515625"><ele></ele><time>2016-7-29T0:24:38Z</time></trkpt>
<trkpt lat="46.613759435713291168212890625" lon="7.073515914380550384521484375"><ele></ele><time>2016-7-29T0:24:41Z</time></trkpt>
<trkpt lat="46.613667570054531097412109375" lon="7.07376712001860141754150390625"><ele></ele><time>2016-7-29T0:24:44Z</time></trkpt>
<trkpt lat="46.61356740631163120269775390625" lon="7.0739690400660037994384765625"><ele></ele><time>2016-7-29T0:24:47Z</time></trkpt>
<trkpt lat="46.61335132084786891937255859375" lon="7.07444974221289157867431640625"><ele></ele><time>2016-7-29T0:24:50Z</time></trkpt>
<trkpt lat="46.61311947740614414215087890625" lon="7.074899263679981231689453125"><ele></ele><time>2016-7-29T0:24:53Z</time></trkpt>
<trkpt lat="46.612890399992465972900390625" lon="7.07544006407260894775390625"><ele></ele><time>2016-7-29T0:24:56Z</time></trkpt>
<trkpt lat="46.61280155181884765625" lon="7.0756782777607440948486328125"><ele></ele><time>2016-7-29T0:24:59Z</time></trkpt>
<trkpt lat="46.612716726958751678466796875" lon="7.07588086836040019989013671875"><ele></ele><time>2016-7-29T0:25:2Z</time></trkpt>
<trkpt lat="46.61263634450733661651611328125" lon="7.0762190781533718109130859375"><ele></ele><time>2016-7-29T0:25:5Z</time></trkpt>
<trkpt lat="46.61265998147428035736083984375" lon="7.07632980309426784515380859375"><ele></ele><time>2016-7-29T0:25:8Z</time></trkpt>
<trkpt lat="46.612797193229198455810546875" lon="7.0766437053680419921875"><ele></ele><time>2016-7-29T0:25:11Z</time></trkpt>
<trkpt lat="46.61284203641116619110107421875" lon="7.07674252800643444061279296875"><ele></ele><time>2016-7-29T0:25:14Z</time></trkpt>
<trkpt lat="46.61298670805990695953369140625" lon="7.077102363109588623046875"><ele></ele><time>2016-7-29T0:25:17Z</time></trkpt>
<trkpt lat="46.612981259822845458984375" lon="7.07718752324581146240234375"><ele></ele><time>2016-7-29T0:25:20Z</time></trkpt>
<trkpt lat="46.61283533088862895965576171875" lon="7.07744979299604892730712890625"><ele></ele><time>2016-7-29T0:25:23Z</time></trkpt>
<trkpt lat="46.6127893142402172088623046875" lon="7.0775256492197513580322265625"><ele></ele><time>2016-7-29T0:25:26Z</time></trkpt>
<trkpt lat="46.61275687627494335174560546875" lon="7.0776347815990447998046875"><ele></ele><time>2016-7-29T0:25:29Z</time></trkpt>
<trkpt lat="46.6127470694482326507568359375" lon="7.07785044796764850616455078125"><ele></ele><time>2016-7-29T0:25:32Z</time></trkpt>
<trkpt lat="46.61277674138545989990234375" lon="7.07809838466346263885498046875"><ele></ele><time>2016-7-29T0:25:35Z</time></trkpt>
<trkpt lat="46.6127883084118366241455078125" lon="7.078222520649433135986328125"><ele></ele><time>2016-7-29T0:25:38Z</time></trkpt>
<trkpt lat="46.612772382795810699462890625" lon="7.0784365944564342498779296875"><ele></ele><time>2016-7-29T0:25:41Z</time></trkpt>
<trkpt lat="46.61271027289330959320068359375" lon="7.07852368243038654327392578125"><ele></ele><time>2016-7-29T0:25:44Z</time></trkpt>
<trkpt lat="46.6125284694135189056396484375" lon="7.078640945255756378173828125"><ele></ele><time>2016-7-29T0:25:47Z</time></trkpt>
<trkpt lat="46.61219562403857707977294921875" lon="7.07881160080432891845703125"><ele></ele><time>2016-7-29T0:25:50Z</time></trkpt>
<trkpt lat="46.6119541414082050323486328125" lon="7.0789961703121662139892578125"><ele></ele><time>2016-7-29T0:25:53Z</time></trkpt>
<trkpt lat="46.6118264012038707733154296875" lon="7.07924871705472469329833984375"><ele></ele><time>2016-7-29T0:25:56Z</time></trkpt>
<trkpt lat="46.6118264012038707733154296875" lon="7.0793688297271728515625"><ele></ele><time>2016-7-29T0:25:59Z</time></trkpt>
<trkpt lat="46.611839644610881805419921875" lon="7.07941954024136066436767578125"><ele></ele><time>2016-7-29T0:26:2Z</time></trkpt>
<trkpt lat="46.611856408417224884033203125" lon="7.0794846676290035247802734375"><ele></ele><time>2016-7-29T0:26:5Z</time></trkpt>
<trkpt lat="46.61187627352774143218994140625" lon="7.0795306004583835601806640625"><ele></ele><time>2016-7-29T0:26:8Z</time></trkpt>
<trkpt lat="46.61193042062222957611083984375" lon="7.07962003536522388458251953125"><ele></ele><time>2016-7-29T0:26:11Z</time></trkpt>
<trkpt lat="46.61195254884660243988037109375" lon="7.07973319105803966522216796875"><ele></ele><time>2016-7-29T0:26:14Z</time></trkpt>
<trkpt lat="46.61197249777615070343017578125" lon="7.0798843167722225189208984375"><ele></ele><time>2016-7-29T0:26:17Z</time></trkpt>
<trkpt lat="46.61198155023157596588134765625" lon="7.07993133924901485443115234375"><ele></ele><time>2016-7-29T0:26:20Z</time></trkpt>
<trkpt lat="46.6120580770075321197509765625" lon="7.08006226457655429840087890625"><ele></ele><time>2016-7-29T0:26:23Z</time></trkpt>
<trkpt lat="46.61209621466696262359619140625" lon="7.0802016556262969970703125"><ele></ele><time>2016-7-29T0:26:26Z</time></trkpt>
<trkpt lat="46.61213292740285396575927734375" lon="7.0803138054907321929931640625"><ele></ele><time>2016-7-29T0:26:29Z</time></trkpt>
<trkpt lat="46.61226569674909114837646484375" lon="7.08042017184197902679443359375"><ele></ele><time>2016-7-29T0:26:32Z</time></trkpt>
<trkpt lat="46.61237533204257488250732421875" lon="7.0805422961711883544921875"><ele></ele><time>2016-7-29T0:26:35Z</time></trkpt>
<trkpt lat="46.61245428957045078277587890625" lon="7.08064296282827854156494140625"><ele></ele><time>2016-7-29T0:26:38Z</time></trkpt>
<trkpt lat="46.6124748252332210540771484375" lon="7.080653272569179534912109375"><ele></ele><time>2016-7-29T0:26:41Z</time></trkpt>
<trkpt lat="46.61257834173738956451416015625" lon="7.08071194589138031005859375"><ele></ele><time>2016-7-29T0:26:44Z</time></trkpt>
<trkpt lat="46.61269719712436199188232421875" lon="7.08081261254847049713134765625"><ele></ele><time>2016-7-29T0:26:47Z</time></trkpt>
<trkpt lat="46.61275553517043590545654296875" lon="7.08084597252309322357177734375"><ele></ele><time>2016-7-29T0:26:50Z</time></trkpt>
<trkpt lat="46.61282141692936420440673828125" lon="7.08093934692442417144775390625"><ele></ele><time>2016-7-29T0:26:53Z</time></trkpt>
<trkpt lat="46.61287589929997920989990234375" lon="7.081053256988525390625"><ele></ele><time>2016-7-29T0:26:56Z</time></trkpt>
<trkpt lat="46.6128825210034847259521484375" lon="7.08111226558685302734375"><ele></ele><time>2016-7-29T0:26:59Z</time></trkpt>
<trkpt lat="46.61293691955506801605224609375" lon="7.081305719912052154541015625"><ele></ele><time>2016-7-29T0:27:2Z</time></trkpt>
<trkpt lat="46.612949408590793609619140625" lon="7.0814909599721431732177734375"><ele></ele><time>2016-7-29T0:27:5Z</time></trkpt>
<trkpt lat="46.6129918210208415985107421875" lon="7.08168022334575653076171875"><ele></ele><time>2016-7-29T0:27:8Z</time></trkpt>
<trkpt lat="46.61301973275840282440185546875" lon="7.081888429820537567138671875"><ele></ele><time>2016-7-29T0:27:11Z</time></trkpt>
<trkpt lat="46.61299475468695163726806640625" lon="7.08207995630800724029541015625"><ele></ele><time>2016-7-29T0:27:14Z</time></trkpt>
<trkpt lat="46.61293490789830684661865234375" lon="7.08218858577311038970947265625"><ele></ele><time>2016-7-29T0:27:17Z</time></trkpt>
<trkpt lat="46.61281236447393894195556640625" lon="7.08222043700516223907470703125"><ele></ele><time>2016-7-29T0:27:20Z</time></trkpt>
<trkpt lat="46.61266987212002277374267578125" lon="7.0822342671453952789306640625"><ele></ele><time>2016-7-29T0:27:23Z</time></trkpt>
<trkpt lat="46.6125492565333843231201171875" lon="7.0821999013423919677734375"><ele></ele><time>2016-7-29T0:27:26Z</time></trkpt>
<trkpt lat="46.61241891793906688690185546875" lon="7.08214650861918926239013671875"><ele></ele><time>2016-7-29T0:27:29Z</time></trkpt>
<trkpt lat="46.61226385273039340972900390625" lon="7.08213753998279571533203125"><ele></ele><time>2016-7-29T0:27:32Z</time></trkpt>
<trkpt lat="46.6121600009500980377197265625" lon="7.08216528408229351043701171875"><ele></ele><time>2016-7-29T0:27:35Z</time></trkpt>
<trkpt lat="46.6120688058435916900634765625" lon="7.082250528037548065185546875"><ele></ele><time>2016-7-29T0:27:38Z</time></trkpt>
<trkpt lat="46.612032763659954071044921875" lon="7.082390673458576202392578125"><ele></ele><time>2016-7-29T0:27:41Z</time></trkpt>
<trkpt lat="46.6119883395731449127197265625" lon="7.08247692324221134185791015625"><ele></ele><time>2016-7-29T0:27:44Z</time></trkpt>
<trkpt lat="46.61198708228766918182373046875" lon="7.0824909210205078125"><ele></ele><time>2016-7-29T0:27:47Z</time></trkpt>
<trkpt lat="46.61197735927999019622802734375" lon="7.0826272107660770416259765625"><ele></ele><time>2016-7-29T0:27:50Z</time></trkpt>
<trkpt lat="46.611972413957118988037109375" lon="7.0827961899340152740478515625"><ele></ele><time>2016-7-29T0:27:53Z</time></trkpt>
<trkpt lat="46.61202907562255859375" lon="7.08299576304852962493896484375"><ele></ele><time>2016-7-29T0:27:56Z</time></trkpt>
<trkpt lat="46.61211398430168628692626953125" lon="7.0831894688308238983154296875"><ele></ele><time>2016-7-29T0:27:59Z</time></trkpt>
<trkpt lat="46.61224457435309886932373046875" lon="7.0834181271493434906005859375"><ele></ele><time>2016-7-29T0:28:2Z</time></trkpt>
<trkpt lat="46.61229972727596759796142578125" lon="7.08359003998339176177978515625"><ele></ele><time>2016-7-29T0:28:5Z</time></trkpt>
<trkpt lat="46.6121965460479259490966796875" lon="7.08379573188722133636474609375"><ele></ele><time>2016-7-29T0:28:8Z</time></trkpt>
<trkpt lat="46.61199328489601612091064453125" lon="7.08405188284814357757568359375"><ele></ele><time>2016-7-29T0:28:11Z</time></trkpt>
<trkpt lat="46.61187107674777507781982421875" lon="7.08417492918670177459716796875"><ele></ele><time>2016-7-29T0:28:14Z</time></trkpt>
<trkpt lat="46.61173260770738124847412109375" lon="7.08431658335030078887939453125"><ele></ele><time>2016-7-29T0:28:17Z</time></trkpt>
<trkpt lat="46.611604951322078704833984375" lon="7.08445496857166290283203125"><ele></ele><time>2016-7-29T0:28:20Z</time></trkpt>
<trkpt lat="46.61141845397651195526123046875" lon="7.08464247174561023712158203125"><ele></ele><time>2016-7-29T0:28:23Z</time></trkpt>
<trkpt lat="46.61110480315983295440673828125" lon="7.0849089324474334716796875"><ele></ele><time>2016-7-29T0:28:26Z</time></trkpt>
<trkpt lat="46.6107052378356456756591796875" lon="7.08515929989516735076904296875"><ele></ele><time>2016-7-29T0:28:29Z</time></trkpt>
<trkpt lat="46.6103236936032772064208984375" lon="7.08520305342972278594970703125"><ele></ele><time>2016-7-29T0:28:32Z</time></trkpt>
<trkpt lat="46.60980376414954662322998046875" lon="7.08520053885877132415771484375"><ele></ele><time>2016-7-29T0:28:35Z</time></trkpt>
<trkpt lat="46.6095029376447200775146484375" lon="7.08519618026912212371826171875"><ele></ele><time>2016-7-29T0:28:38Z</time></trkpt>
<trkpt lat="46.6092353872954845428466796875" lon="7.08516030572354793548583984375"><ele></ele><time>2016-7-29T0:28:41Z</time></trkpt>
<trkpt lat="46.60918953828513622283935546875" lon="7.08516315557062625885009765625"><ele></ele><time>2016-7-29T0:28:44Z</time></trkpt>
<trkpt lat="46.609039418399333953857421875" lon="7.085131220519542694091796875"><ele></ele><time>2016-7-29T0:28:47Z</time></trkpt>
<trkpt lat="46.6089886240661144256591796875" lon="7.08512929268181324005126953125"><ele></ele><time>2016-7-29T0:28:50Z</time></trkpt>
<trkpt lat="46.60895048640668392181396484375" lon="7.0851082541048526763916015625"><ele></ele><time>2016-7-29T0:28:53Z</time></trkpt>
<trkpt lat="46.60894629545509815216064453125" lon="7.085105739533901214599609375"><ele></ele><time>2016-7-29T0:28:56Z</time></trkpt>
<trkpt lat="46.60893154330551624298095703125" lon="7.08511269651353359222412109375"><ele></ele><time>2016-7-29T0:28:59Z</time></trkpt>
<trkpt lat="46.60888108424842357635498046875" lon="7.085129879415035247802734375"><ele></ele><time>2016-7-29T0:29:2Z</time></trkpt>
<trkpt lat="46.60882375203073024749755859375" lon="7.08513599820435047149658203125"><ele></ele><time>2016-7-29T0:29:5Z</time></trkpt>
<trkpt lat="46.608739681541919708251953125" lon="7.085178159177303314208984375"><ele></ele><time>2016-7-29T0:29:8Z</time></trkpt>
<trkpt lat="46.60860682837665081024169921875" lon="7.08539013750851154327392578125"><ele></ele><time>2016-7-29T0:29:11Z</time></trkpt>
<trkpt lat="46.6084018908441066741943359375" lon="7.08572105504572391510009765625"><ele></ele><time>2016-7-29T0:29:14Z</time></trkpt>
<trkpt lat="46.60834112204611301422119140625" lon="7.0858381502330303192138671875"><ele></ele><time>2016-7-29T0:29:17Z</time></trkpt>
<trkpt lat="46.60822235047817230224609375" lon="7.0859684050083160400390625"><ele></ele><time>2016-7-29T0:29:20Z</time></trkpt>
<trkpt lat="46.60810190252959728240966796875" lon="7.085926830768585205078125"><ele></ele><time>2016-7-29T0:29:23Z</time></trkpt>
<trkpt lat="46.60806351341307163238525390625" lon="7.085899673402309417724609375"><ele></ele><time>2016-7-29T0:29:26Z</time></trkpt>
<trkpt lat="46.6078426502645015716552734375" lon="7.08573999814689159393310546875"><ele></ele><time>2016-7-29T0:29:29Z</time></trkpt>
<trkpt lat="46.60756747238337993621826171875" lon="7.0855424366891384124755859375"><ele></ele><time>2016-7-29T0:29:32Z</time></trkpt>
<trkpt lat="46.60735574550926685333251953125" lon="7.08538393490016460418701171875"><ele></ele><time>2016-7-29T0:29:35Z</time></trkpt>
<trkpt lat="46.60711635835468769073486328125" lon="7.08523691631853580474853515625"><ele></ele><time>2016-7-29T0:29:38Z</time></trkpt>
<trkpt lat="46.6069985926151275634765625" lon="7.08516097627580165863037109375"><ele></ele><time>2016-7-29T0:29:41Z</time></trkpt>
<trkpt lat="46.60684076137840747833251953125" lon="7.08512208424508571624755859375"><ele></ele><time>2016-7-29T0:29:44Z</time></trkpt>
<trkpt lat="46.6067818365991115570068359375" lon="7.08526373840868473052978515625"><ele></ele><time>2016-7-29T0:29:47Z</time></trkpt>
<trkpt lat="46.6066970117390155792236328125" lon="7.0854683406651020050048828125"><ele></ele><time>2016-7-29T0:29:50Z</time></trkpt>
<trkpt lat="46.6066339798271656036376953125" lon="7.085587866604328155517578125"><ele></ele><time>2016-7-29T0:29:53Z</time></trkpt>
<trkpt lat="46.60636953078210353851318359375" lon="7.08599681966006755828857421875"><ele></ele><time>2016-7-29T0:29:56Z</time></trkpt>
<trkpt lat="46.60605437122285366058349609375" lon="7.08647140301764011383056640625"><ele></ele><time>2016-7-29T0:29:59Z</time></trkpt>
<trkpt lat="46.6058618389070034027099609375" lon="7.08688764832913875579833984375"><ele></ele><time>2016-7-29T0:30:2Z</time></trkpt>
<trkpt lat="46.60580693744122982025146484375" lon="7.0870981179177761077880859375"><ele></ele><time>2016-7-29T0:30:5Z</time></trkpt>
<trkpt lat="46.6057790257036685943603515625" lon="7.0873039774596691131591796875"><ele></ele><time>2016-7-29T0:30:8Z</time></trkpt>
<trkpt lat="46.605704091489315032958984375" lon="7.087802700698375701904296875"><ele></ele><time>2016-7-29T0:30:11Z</time></trkpt>
<trkpt lat="46.60565405152738094329833984375" lon="7.088073603808879852294921875"><ele></ele><time>2016-7-29T0:30:14Z</time></trkpt>
<trkpt lat="46.60562337376177310943603515625" lon="7.0881596021354198455810546875"><ele></ele><time>2016-7-29T0:30:17Z</time></trkpt>
<trkpt lat="46.60548591054975986480712890625" lon="7.0885012485086917877197265625"><ele></ele><time>2016-7-29T0:30:20Z</time></trkpt>
<trkpt lat="46.6053636185824871063232421875" lon="7.0886283181607723236083984375"><ele></ele><time>2016-7-29T0:30:23Z</time></trkpt>
<trkpt lat="46.6053264029324054718017578125" lon="7.08866578526794910430908203125"><ele></ele><time>2016-7-29T0:30:26Z</time></trkpt>
<trkpt lat="46.60515817813575267791748046875" lon="7.08883392624557018280029296875"><ele></ele><time>2016-7-29T0:30:29Z</time></trkpt>
<trkpt lat="46.60496455617249011993408203125" lon="7.088958732783794403076171875"><ele></ele><time>2016-7-29T0:30:32Z</time></trkpt>
<trkpt lat="46.60472265444695949554443359375" lon="7.089133746922016143798828125"><ele></ele><time>2016-7-29T0:30:35Z</time></trkpt>
<trkpt lat="46.6045532561838626861572265625" lon="7.08930708467960357666015625"><ele></ele><time>2016-7-29T0:30:38Z</time></trkpt>
<trkpt lat="46.60441084764897823333740234375" lon="7.08941898308694362640380859375"><ele></ele><time>2016-7-29T0:30:41Z</time></trkpt>
<trkpt lat="46.6043524257838726043701171875" lon="7.0894547738134860992431640625"><ele></ele><time>2016-7-29T0:30:44Z</time></trkpt>
<trkpt lat="46.6041764058172702789306640625" lon="7.089416719973087310791015625"><ele></ele><time>2016-7-29T0:30:47Z</time></trkpt>
<trkpt lat="46.6040171496570110321044921875" lon="7.089251093566417694091796875"><ele></ele><time>2016-7-29T0:30:50Z</time></trkpt>
<trkpt lat="46.603955291211605072021484375" lon="7.08920004777610301971435546875"><ele></ele><time>2016-7-29T0:30:53Z</time></trkpt>
<trkpt lat="46.603896282613277435302734375" lon="7.08915947936475276947021484375"><ele></ele><time>2016-7-29T0:30:56Z</time></trkpt>
<trkpt lat="46.60370886325836181640625" lon="7.0890876464545726776123046875"><ele></ele><time>2016-7-29T0:30:59Z</time></trkpt>
<trkpt lat="46.603506021201610565185546875" lon="7.089146487414836883544921875"><ele></ele><time>2016-7-29T0:31:2Z</time></trkpt>
<trkpt lat="46.60341323353350162506103515625" lon="7.08932376466691493988037109375"><ele></ele><time>2016-7-29T0:31:5Z</time></trkpt>
<trkpt lat="46.60338054411113262176513671875" lon="7.0894043147563934326171875"><ele></ele><time>2016-7-29T0:31:8Z</time></trkpt>
<trkpt lat="46.60332673229277133941650390625" lon="7.089519985020160675048828125"><ele></ele><time>2016-7-29T0:31:11Z</time></trkpt>
<trkpt lat="46.60328716970980167388916015625" lon="7.0896676741540431976318359375"><ele></ele><time>2016-7-29T0:31:14Z</time></trkpt>
<trkpt lat="46.60324417054653167724609375" lon="7.0899905450642108917236328125"><ele></ele><time>2016-7-29T0:31:17Z</time></trkpt>
<trkpt lat="46.603241823613643646240234375" lon="7.09007210098206996917724609375"><ele></ele><time>2016-7-29T0:31:20Z</time></trkpt>
<trkpt lat="46.60323034040629863739013671875" lon="7.09023186005651950836181640625"><ele></ele><time>2016-7-29T0:31:23Z</time></trkpt>
<trkpt lat="46.60317049361765384674072265625" lon="7.09039698354899883270263671875"><ele></ele><time>2016-7-29T0:31:26Z</time></trkpt>
<trkpt lat="46.60308818332850933074951171875" lon="7.09057736210525035858154296875"><ele></ele><time>2016-7-29T0:31:29Z</time></trkpt>
<trkpt lat="46.60306152887642383575439453125" lon="7.09066268987953662872314453125"><ele></ele><time>2016-7-29T0:31:32Z</time></trkpt>
<trkpt lat="46.6030582599341869354248046875" lon="7.090857066214084625244140625"><ele></ele><time>2016-7-29T0:31:35Z</time></trkpt>
<trkpt lat="46.6031722538173198699951171875" lon="7.09125780500471591949462890625"><ele></ele><time>2016-7-29T0:31:38Z</time></trkpt>
<trkpt lat="46.6032245568931102752685546875" lon="7.091547735035419464111328125"><ele></ele><time>2016-7-29T0:31:41Z</time></trkpt>
<trkpt lat="46.6032274067401885986328125" lon="7.09162644110620021820068359375"><ele></ele><time>2016-7-29T0:31:44Z</time></trkpt>
<trkpt lat="46.60313696600496768951416015625" lon="7.09185945801436901092529296875"><ele></ele><time>2016-7-29T0:31:47Z</time></trkpt>
<trkpt lat="46.60295583307743072509765625" lon="7.092100270092487335205078125"><ele></ele><time>2016-7-29T0:31:50Z</time></trkpt>
<trkpt lat="46.6027377359569072723388671875" lon="7.0922241546213626861572265625"><ele></ele><time>2016-7-29T0:31:53Z</time></trkpt>
<trkpt lat="46.60253606736660003662109375" lon="7.09237595088779926300048828125"><ele></ele><time>2016-7-29T0:31:56Z</time></trkpt>
<trkpt lat="46.6024939902126789093017578125" lon="7.09243361838161945343017578125"><ele></ele><time>2016-7-29T0:31:59Z</time></trkpt>
<trkpt lat="46.6024242527782917022705078125" lon="7.0925815589725971221923828125"><ele></ele><time>2016-7-29T0:32:2Z</time></trkpt>
<trkpt lat="46.60240556113421916961669921875" lon="7.09261617623269557952880859375"><ele></ele><time>2016-7-29T0:32:5Z</time></trkpt>
<trkpt lat="46.6024001128971576690673828125" lon="7.09264375269412994384765625"><ele></ele><time>2016-7-29T0:32:8Z</time></trkpt>
<trkpt lat="46.6023826785385608673095703125" lon="7.09269379265606403350830078125"><ele></ele><time>2016-7-29T0:32:11Z</time></trkpt>
<trkpt lat="46.602316796779632568359375" lon="7.09285640157759189605712890625"><ele></ele><time>2016-7-29T0:32:14Z</time></trkpt>
<trkpt lat="46.60236013121902942657470703125" lon="7.0930791087448596954345703125"><ele></ele><time>2016-7-29T0:32:17Z</time></trkpt>
<trkpt lat="46.60244126804172992706298828125" lon="7.09342301823198795318603515625"><ele></ele><time>2016-7-29T0:32:20Z</time></trkpt>
<trkpt lat="46.60248770378530025482177734375" lon="7.09353634156286716461181640625"><ele></ele><time>2016-7-29T0:32:23Z</time></trkpt>
<trkpt lat="46.60255350172519683837890625" lon="7.0936547778546810150146484375"><ele></ele><time>2016-7-29T0:32:26Z</time></trkpt>
<trkpt lat="46.60262902267277240753173828125" lon="7.0937714539468288421630859375"><ele></ele><time>2016-7-29T0:32:29Z</time></trkpt>
<trkpt lat="46.60274184308946132659912109375" lon="7.0938760600984096527099609375"><ele></ele><time>2016-7-29T0:32:32Z</time></trkpt>
<trkpt lat="46.60281711257994174957275390625" lon="7.0939776487648487091064453125"><ele></ele><time>2016-7-29T0:32:35Z</time></trkpt>
<trkpt lat="46.60297133959829807281494140625" lon="7.0941315405070781707763671875"><ele></ele><time>2016-7-29T0:32:38Z</time></trkpt>
<trkpt lat="46.60303906537592411041259765625" lon="7.0943571813404560089111328125"><ele></ele><time>2016-7-29T0:32:41Z</time></trkpt>
<trkpt lat="46.6030136682093143463134765625" lon="7.0945087261497974395751953125"><ele></ele><time>2016-7-29T0:32:44Z</time></trkpt>
<trkpt lat="46.60284074954688549041748046875" lon="7.09459698759019374847412109375"><ele></ele><time>2016-7-29T0:32:47Z</time></trkpt>
<trkpt lat="46.60256565548479557037353515625" lon="7.09475196897983551025390625"><ele></ele><time>2016-7-29T0:32:50Z</time></trkpt>
<trkpt lat="46.60252743400633335113525390625" lon="7.09479161538183689117431640625"><ele></ele><time>2016-7-29T0:32:53Z</time></trkpt>
<trkpt lat="46.602398939430713653564453125" lon="7.0949898473918437957763671875"><ele></ele><time>2016-7-29T0:32:56Z</time></trkpt>
<trkpt lat="46.60228285007178783416748046875" lon="7.0952748320996761322021484375"><ele></ele><time>2016-7-29T0:32:59Z</time></trkpt>
<trkpt lat="46.60226508043706417083740234375" lon="7.09536560811102390289306640625"><ele></ele><time>2016-7-29T0:33:2Z</time></trkpt>
<trkpt lat="46.6021895594894886016845703125" lon="7.0958783291280269622802734375"><ele></ele><time>2016-7-29T0:33:5Z</time></trkpt>
<trkpt lat="46.6021543554961681365966796875" lon="7.09600590169429779052734375"><ele></ele><time>2016-7-29T0:33:8Z</time></trkpt>
<trkpt lat="46.6021023876965045928955078125" lon="7.09610891528427600860595703125"><ele></ele><time>2016-7-29T0:33:11Z</time></trkpt>
<trkpt lat="46.60192343406379222869873046875" lon="7.096238248050212860107421875"><ele></ele><time>2016-7-29T0:33:14Z</time></trkpt>
<trkpt lat="46.601731739938259124755859375" lon="7.096269428730010986328125"><ele></ele><time>2016-7-29T0:33:17Z</time></trkpt>
<trkpt lat="46.6016105376183986663818359375" lon="7.09628216922283172607421875"><ele></ele><time>2016-7-29T0:33:20Z</time></trkpt>
<trkpt lat="46.60124449990689754486083984375" lon="7.09635366685688495635986328125"><ele></ele><time>2016-7-29T0:33:23Z</time></trkpt>
<trkpt lat="46.6009758599102497100830078125" lon="7.0964737795293331146240234375"><ele></ele><time>2016-7-29T0:33:26Z</time></trkpt>
<trkpt lat="46.600567661225795745849609375" lon="7.09669598378241062164306640625"><ele></ele><time>2016-7-29T0:33:29Z</time></trkpt>
<trkpt lat="46.60017916001379489898681640625" lon="7.09691575728356838226318359375"><ele></ele><time>2016-7-29T0:33:32Z</time></trkpt>
<trkpt lat="46.5997497551143169403076171875" lon="7.0971612632274627685546875"><ele></ele><time>2016-7-29T0:33:35Z</time></trkpt>
<trkpt lat="46.59922353923320770263671875" lon="7.097458653151988983154296875"><ele></ele><time>2016-7-29T0:33:38Z</time></trkpt>
<trkpt lat="46.598879210650920867919921875" lon="7.09765185602009296417236328125"><ele></ele><time>2016-7-29T0:33:41Z</time></trkpt>
<trkpt lat="46.59854670055210590362548828125" lon="7.09784463979303836822509765625"><ele></ele><time>2016-7-29T0:33:44Z</time></trkpt>
<trkpt lat="46.59807379357516765594482421875" lon="7.09810196422040462493896484375"><ele></ele><time>2016-7-29T0:33:47Z</time></trkpt>
<trkpt lat="46.59756249748170375823974609375" lon="7.0984200574457645416259765625"><ele></ele><time>2016-7-29T0:33:50Z</time></trkpt>
<trkpt lat="46.59708975814282894134521484375" lon="7.09870881401002407073974609375"><ele></ele><time>2016-7-29T0:33:53Z</time></trkpt>
<trkpt lat="46.59705287776887416839599609375" lon="7.09873831830918788909912109375"><ele></ele><time>2016-7-29T0:33:56Z</time></trkpt>
<trkpt lat="46.59686495549976825714111328125" lon="7.09885097108781337738037109375"><ele></ele><time>2016-7-29T0:33:59Z</time></trkpt>
<trkpt lat="46.5964546613395214080810546875" lon="7.099010311067104339599609375"><ele></ele><time>2016-7-29T0:34:2Z</time></trkpt>
<trkpt lat="46.5960752964019775390625" lon="7.09907745011150836944580078125"><ele></ele><time>2016-7-29T0:34:5Z</time></trkpt>
<trkpt lat="46.59578821621835231781005859375" lon="7.09912396967411041259765625"><ele></ele><time>2016-7-29T0:34:8Z</time></trkpt>
<trkpt lat="46.59562175162136554718017578125" lon="7.09914634935557842254638671875"><ele></ele><time>2016-7-29T0:34:11Z</time></trkpt>
<trkpt lat="46.59515990875661373138427734375" lon="7.099224887788295745849609375"><ele></ele><time>2016-7-29T0:34:14Z</time></trkpt>
<trkpt lat="46.5949770994484424591064453125" lon="7.0992719940841197967529296875"><ele></ele><time>2016-7-29T0:34:17Z</time></trkpt>
<trkpt lat="46.59495069645345211029052734375" lon="7.09925430826842784881591796875"><ele></ele><time>2016-7-29T0:34:20Z</time></trkpt>
<trkpt lat="46.59483653493225574493408203125" lon="7.09913469851016998291015625"><ele></ele><time>2016-7-29T0:34:23Z</time></trkpt>
<trkpt lat="46.5947782807052135467529296875" lon="7.09907694719731807708740234375"><ele></ele><time>2016-7-29T0:34:26Z</time></trkpt>
<trkpt lat="46.59452824853360652923583984375" lon="7.09879497997462749481201171875"><ele></ele><time>2016-7-29T0:34:29Z</time></trkpt>
<trkpt lat="46.5942884422838687896728515625" lon="7.0986192114651203155517578125"><ele></ele><time>2016-7-29T0:34:32Z</time></trkpt>
<trkpt lat="46.593966074287891387939453125" lon="7.098557688295841217041015625"><ele></ele><time>2016-7-29T0:34:35Z</time></trkpt>
<trkpt lat="46.593610011041164398193359375" lon="7.09859213791787624359130859375"><ele></ele><time>2016-7-29T0:34:38Z</time></trkpt>
<trkpt lat="46.593427956104278564453125" lon="7.09868140518665313720703125"><ele></ele><time>2016-7-29T0:34:41Z</time></trkpt>
<trkpt lat="46.5931257046759128570556640625" lon="7.09884409792721271514892578125"><ele></ele><time>2016-7-29T0:34:44Z</time></trkpt>
<trkpt lat="46.5928936935961246490478515625" lon="7.09896982647478580474853515625"><ele></ele><time>2016-7-29T0:34:47Z</time></trkpt>
<trkpt lat="46.592653803527355194091796875" lon="7.09912120364606380462646484375"><ele></ele><time>2016-7-29T0:34:50Z</time></trkpt>
<trkpt lat="46.5924206189811229705810546875" lon="7.09934768266975879669189453125"><ele></ele><time>2016-7-29T0:34:53Z</time></trkpt>
<trkpt lat="46.59221115522086620330810546875" lon="7.099613808095455169677734375"><ele></ele><time>2016-7-29T0:34:56Z</time></trkpt>
<trkpt lat="46.5919505618512630462646484375" lon="7.09992838092148303985595703125"><ele></ele><time>2016-7-29T0:34:59Z</time></trkpt>
<trkpt lat="46.59176423214375972747802734375" lon="7.10009233094751834869384765625"><ele></ele><time>2016-7-29T0:35:2Z</time></trkpt>
<trkpt lat="46.5914392657577991485595703125" lon="7.10037580691277980804443359375"><ele></ele><time>2016-7-29T0:35:5Z</time></trkpt>
<trkpt lat="46.5911224298179149627685546875" lon="7.100590132176876068115234375"><ele></ele><time>2016-7-29T0:35:8Z</time></trkpt>
<trkpt lat="46.5908498503267765045166015625" lon="7.10089045576751232147216796875"><ele></ele><time>2016-7-29T0:35:11Z</time></trkpt>
<trkpt lat="46.5906037576496601104736328125" lon="7.10114375688135623931884765625"><ele></ele><time>2016-7-29T0:35:14Z</time></trkpt>
<trkpt lat="46.59030443988740444183349609375" lon="7.10134827531874179840087890625"><ele></ele><time>2016-7-29T0:35:17Z</time></trkpt>
<trkpt lat="46.5899985842406749725341796875" lon="7.10152328945696353912353515625"><ele></ele><time>2016-7-29T0:35:20Z</time></trkpt>
<trkpt lat="46.5897846780717372894287109375" lon="7.1015260554850101470947265625"><ele></ele><time>2016-7-29T0:35:23Z</time></trkpt>
<trkpt lat="46.5895147807896137237548828125" lon="7.10151775740087032318115234375"><ele></ele><time>2016-7-29T0:35:26Z</time></trkpt>
<trkpt lat="46.5891295485198497772216796875" lon="7.10144550539553165435791015625"><ele></ele><time>2016-7-29T0:35:29Z</time></trkpt>
<trkpt lat="46.58887398429214954376220703125" lon="7.10134559310972690582275390625"><ele></ele><time>2016-7-29T0:35:32Z</time></trkpt>
<trkpt lat="46.58855237066745758056640625" lon="7.10117988288402557373046875"><ele></ele><time>2016-7-29T0:35:35Z</time></trkpt>
<trkpt lat="46.58832446672022342681884765625" lon="7.10099841468036174774169921875"><ele></ele><time>2016-7-29T0:35:38Z</time></trkpt>
<trkpt lat="46.58805272541940212249755859375" lon="7.100822813808917999267578125"><ele></ele><time>2016-7-29T0:35:41Z</time></trkpt>
<trkpt lat="46.58793420530855655670166015625" lon="7.10076288320124149322509765625"><ele></ele><time>2016-7-29T0:35:44Z</time></trkpt>
<trkpt lat="46.58780378289520740509033203125" lon="7.10066489875316619873046875"><ele></ele><time>2016-7-29T0:35:47Z</time></trkpt>
<trkpt lat="46.58767528831958770751953125" lon="7.100529111921787261962890625"><ele></ele><time>2016-7-29T0:35:50Z</time></trkpt>
<trkpt lat="46.5876456163823604583740234375" lon="7.10050036199390888214111328125"><ele></ele><time>2016-7-29T0:35:53Z</time></trkpt>
<trkpt lat="46.5874434448778629302978515625" lon="7.100301794707775115966796875"><ele></ele><time>2016-7-29T0:35:56Z</time></trkpt>
<trkpt lat="46.58725686371326446533203125" lon="7.10010859183967113494873046875"><ele></ele><time>2016-7-29T0:35:59Z</time></trkpt>
<trkpt lat="46.58706047572195529937744140625" lon="7.09984875284135341644287109375"><ele></ele><time>2016-7-29T0:36:2Z</time></trkpt>
<trkpt lat="46.5869222581386566162109375" lon="7.09965772926807403564453125"><ele></ele><time>2016-7-29T0:36:5Z</time></trkpt>
<trkpt lat="46.58674053847789764404296875" lon="7.09945857524871826171875"><ele></ele><time>2016-7-29T0:36:8Z</time></trkpt>
<trkpt lat="46.586624197661876678466796875" lon="7.099328152835369110107421875"><ele></ele><time>2016-7-29T0:36:11Z</time></trkpt>
<trkpt lat="46.58649855293333530426025390625" lon="7.0992555655539035797119140625"><ele></ele><time>2016-7-29T0:36:14Z</time></trkpt>
<trkpt lat="46.5863641910254955291748046875" lon="7.09922052919864654541015625"><ele></ele><time>2016-7-29T0:36:17Z</time></trkpt>
<trkpt lat="46.586249358952045440673828125" lon="7.099112905561923980712890625"><ele></ele><time>2016-7-29T0:36:20Z</time></trkpt>
<trkpt lat="46.586078703403472900390625" lon="7.0989273302257061004638671875"><ele></ele><time>2016-7-29T0:36:23Z</time></trkpt>
<trkpt lat="46.5860014222562313079833984375" lon="7.09879850037395954132080078125"><ele></ele><time>2016-7-29T0:36:26Z</time></trkpt>
<trkpt lat="46.5858981572091579437255859375" lon="7.09860303439199924468994140625"><ele></ele><time>2016-7-29T0:36:29Z</time></trkpt>
<trkpt lat="46.5857412479817867279052734375" lon="7.0983426086604595184326171875"><ele></ele><time>2016-7-29T0:36:32Z</time></trkpt>
<trkpt lat="46.58560420386493206024169921875" lon="7.09812945686280727386474609375"><ele></ele><time>2016-7-29T0:36:35Z</time></trkpt>
<trkpt lat="46.58546908758580684661865234375" lon="7.09788906387984752655029296875"><ele></ele><time>2016-7-29T0:36:38Z</time></trkpt>
<trkpt lat="46.58533933572471141815185546875" lon="7.097694687545299530029296875"><ele></ele><time>2016-7-29T0:36:41Z</time></trkpt>
<trkpt lat="46.585216037929058074951171875" lon="7.09750316105782985687255859375"><ele></ele><time>2016-7-29T0:36:44Z</time></trkpt>
<trkpt lat="46.58505854196846485137939453125" lon="7.097285650670528411865234375"><ele></ele><time>2016-7-29T0:36:47Z</time></trkpt>
<trkpt lat="46.5848822705447673797607421875" lon="7.09702304564416408538818359375"><ele></ele><time>2016-7-29T0:36:50Z</time></trkpt>
<trkpt lat="46.584717147052288055419921875" lon="7.09679237566888332366943359375"><ele></ele><time>2016-7-29T0:36:53Z</time></trkpt>
<trkpt lat="46.58451925031840801239013671875" lon="7.09659322164952754974365234375"><ele></ele><time>2016-7-29T0:36:56Z</time></trkpt>
<trkpt lat="46.58439435996115207672119140625" lon="7.0963896252214908599853515625"><ele></ele><time>2016-7-29T0:36:59Z</time></trkpt>
<trkpt lat="46.58427894115447998046875" lon="7.096120901405811309814453125"><ele></ele><time>2016-7-29T0:37:2Z</time></trkpt>
<trkpt lat="46.58425337634980678558349609375" lon="7.096051834523677825927734375"><ele></ele><time>2016-7-29T0:37:5Z</time></trkpt>
<trkpt lat="46.5841845609247684478759765625" lon="7.095877490937709808349609375"><ele></ele><time>2016-7-29T0:37:8Z</time></trkpt>
<trkpt lat="46.5841466747224330902099609375" lon="7.0957879722118377685546875"><ele></ele><time>2016-7-29T0:37:11Z</time></trkpt>
<trkpt lat="46.58404332585632801055908203125" lon="7.095641791820526123046875"><ele></ele><time>2016-7-29T0:37:14Z</time></trkpt>
<trkpt lat="46.58397694118320941925048828125" lon="7.095532156527042388916015625"><ele></ele><time>2016-7-29T0:37:17Z</time></trkpt>
<trkpt lat="46.5838965587317943572998046875" lon="7.0953868143260478973388671875"><ele></ele><time>2016-7-29T0:37:20Z</time></trkpt>
<trkpt lat="46.583777703344821929931640625" lon="7.09527759812772274017333984375"><ele></ele><time>2016-7-29T0:37:23Z</time></trkpt>
<trkpt lat="46.58372783102095127105712890625" lon="7.09521406330168247222900390625"><ele></ele><time>2016-7-29T0:37:26Z</time></trkpt>
<trkpt lat="46.58370235003530979156494140625" lon="7.09519025869667530059814453125"><ele></ele><time>2016-7-29T0:37:29Z</time></trkpt>
<trkpt lat="46.5836581774055957794189453125" lon="7.09513485431671142578125"><ele></ele><time>2016-7-29T0:37:32Z</time></trkpt>
<trkpt lat="46.5836145915091037750244140625" lon="7.0950337685644626617431640625"><ele></ele><time>2016-7-29T0:37:35Z</time></trkpt>
<trkpt lat="46.58351794816553592681884765625" lon="7.09488079883158206939697265625"><ele></ele><time>2016-7-29T0:37:38Z</time></trkpt>
<trkpt lat="46.58342398703098297119140625" lon="7.09476311691105365753173828125"><ele></ele><time>2016-7-29T0:37:41Z</time></trkpt>
<trkpt lat="46.583319716155529022216796875" lon="7.09466069005429744720458984375"><ele></ele><time>2016-7-29T0:37:44Z</time></trkpt>
<trkpt lat="46.5832193009555339813232421875" lon="7.09454367868602275848388671875"><ele></ele><time>2016-7-29T0:37:47Z</time></trkpt>
<trkpt lat="46.58314025960862636566162109375" lon="7.09443974308669567108154296875"><ele></ele><time>2016-7-29T0:37:50Z</time></trkpt>
<trkpt lat="46.58312165178358554840087890625" lon="7.09442918188869953155517578125"><ele></ele><time>2016-7-29T0:37:53Z</time></trkpt>
<trkpt lat="46.58304420299828052520751953125" lon="7.09435424767434597015380859375"><ele></ele><time>2016-7-29T0:37:56Z</time></trkpt>
<trkpt lat="46.58294923603534698486328125" lon="7.09431133233010768890380859375"><ele></ele><time>2016-7-29T0:37:59Z</time></trkpt>
<trkpt lat="46.58289550803601741790771484375" lon="7.0943058840930461883544921875"><ele></ele><time>2016-7-29T0:38:2Z</time></trkpt>
<trkpt lat="46.5828736312687397003173828125" lon="7.09427931345999240875244140625"><ele></ele><time>2016-7-29T0:38:5Z</time></trkpt>
<trkpt lat="46.58278101123869419097900390625" lon="7.0941866934299468994140625"><ele></ele><time>2016-7-29T0:38:8Z</time></trkpt>
<trkpt lat="46.582728959619998931884765625" lon="7.09405669011175632476806640625"><ele></ele><time>2016-7-29T0:38:11Z</time></trkpt>
<trkpt lat="46.58267254941165447235107421875" lon="7.093938253819942474365234375"><ele></ele><time>2016-7-29T0:38:14Z</time></trkpt>
<trkpt lat="46.582650505006313323974609375" lon="7.09394202567636966705322265625"><ele></ele><time>2016-7-29T0:38:17Z</time></trkpt>
<trkpt lat="46.5826322324573993682861328125" lon="7.09401830099523067474365234375"><ele></ele><time>2016-7-29T0:38:20Z</time></trkpt>
<trkpt lat="46.5825494192540645599365234375" lon="7.09421711973845958709716796875"><ele></ele><time>2016-7-29T0:38:23Z</time></trkpt>
<trkpt lat="46.582321934401988983154296875" lon="7.094377465546131134033203125"><ele></ele><time>2016-7-29T0:38:26Z</time></trkpt>
<trkpt lat="46.58217541873455047607421875" lon="7.09443521685898303985595703125"><ele></ele><time>2016-7-29T0:38:29Z</time></trkpt>
<trkpt lat="46.58193946816027164459228515625" lon="7.0945191197097301483154296875"><ele></ele><time>2016-7-29T0:38:32Z</time></trkpt>
<trkpt lat="46.58185749314725399017333984375" lon="7.09451031871140003204345703125"><ele></ele><time>2016-7-29T0:38:35Z</time></trkpt>
<trkpt lat="46.58170795999467372894287109375" lon="7.09445868618786334991455078125"><ele></ele><time>2016-7-29T0:38:38Z</time></trkpt>
<trkpt lat="46.581520624458789825439453125" lon="7.0943263359367847442626953125"><ele></ele><time>2016-7-29T0:38:41Z</time></trkpt>
<trkpt lat="46.58146941103041172027587890625" lon="7.09427277557551860809326171875"><ele></ele><time>2016-7-29T0:38:44Z</time></trkpt>
<trkpt lat="46.58140361309051513671875" lon="7.0941858552396297454833984375"><ele></ele><time>2016-7-29T0:38:47Z</time></trkpt>
<trkpt lat="46.5813310258090496063232421875" lon="7.09414738230407238006591796875"><ele></ele><time>2016-7-29T0:38:50Z</time></trkpt>
<trkpt lat="46.581261456012725830078125" lon="7.0941459573805332183837890625"><ele></ele><time>2016-7-29T0:38:53Z</time></trkpt>
<trkpt lat="46.58119683153927326202392578125" lon="7.09412190131843090057373046875"><ele></ele><time>2016-7-29T0:38:56Z</time></trkpt>
<trkpt lat="46.58116699196398258209228515625" lon="7.09410463459789752960205078125"><ele></ele><time>2016-7-29T0:38:59Z</time></trkpt>
<trkpt lat="46.5809464640915393829345703125" lon="7.09401897154748439788818359375"><ele></ele><time>2016-7-29T0:39:2Z</time></trkpt>
<trkpt lat="46.580807827413082122802734375" lon="7.0939882099628448486328125"><ele></ele><time>2016-7-29T0:39:5Z</time></trkpt>
<trkpt lat="46.58071923069655895233154296875" lon="7.0939186401665210723876953125"><ele></ele><time>2016-7-29T0:39:8Z</time></trkpt>
<trkpt lat="46.58065318129956722259521484375" lon="7.09380380809307098388671875"><ele></ele><time>2016-7-29T0:39:11Z</time></trkpt>
<trkpt lat="46.58055611886084079742431640625" lon="7.09367279894649982452392578125"><ele></ele><time>2016-7-29T0:39:14Z</time></trkpt>
<trkpt lat="46.58037674613296985626220703125" lon="7.09350314922630786895751953125"><ele></ele><time>2016-7-29T0:39:17Z</time></trkpt>
<trkpt lat="46.5802688710391521453857421875" lon="7.09339208900928497314453125"><ele></ele><time>2016-7-29T0:39:20Z</time></trkpt>
<trkpt lat="46.58014657907187938690185546875" lon="7.09321598522365093231201171875"><ele></ele><time>2016-7-29T0:39:23Z</time></trkpt>
<trkpt lat="46.58004113472998142242431640625" lon="7.09308187477290630340576171875"><ele></ele><time>2016-7-29T0:39:26Z</time></trkpt>
<trkpt lat="46.57989679835736751556396484375" lon="7.09300593473017215728759765625"><ele></ele><time>2016-7-29T0:39:29Z</time></trkpt>
<trkpt lat="46.57974273897707462310791015625" lon="7.0930304937064647674560546875"><ele></ele><time>2016-7-29T0:39:32Z</time></trkpt>
<trkpt lat="46.5795453451573848724365234375" lon="7.093103416264057159423828125"><ele></ele><time>2016-7-29T0:39:35Z</time></trkpt>
<trkpt lat="46.57933973707258701324462890625" lon="7.0931099541485309600830078125"><ele></ele><time>2016-7-29T0:39:38Z</time></trkpt>
<trkpt lat="46.57918618060648441314697265625" lon="7.0931133069097995758056640625"><ele></ele><time>2016-7-29T0:39:41Z</time></trkpt>
<trkpt lat="46.57907637767493724822998046875" lon="7.09300207905471324920654296875"><ele></ele><time>2016-7-29T0:39:44Z</time></trkpt>
<trkpt lat="46.57891209237277507781982421875" lon="7.0929198525846004486083984375"><ele></ele><time>2016-7-29T0:39:47Z</time></trkpt>
<trkpt lat="46.57868427224457263946533203125" lon="7.09288523532450199127197265625"><ele></ele><time>2016-7-29T0:39:50Z</time></trkpt>
<trkpt lat="46.5785183943808078765869140625" lon="7.092822454869747161865234375"><ele></ele><time>2016-7-29T0:39:53Z</time></trkpt>
<trkpt lat="46.5783645026385784149169921875" lon="7.09271508269011974334716796875"><ele></ele><time>2016-7-29T0:39:56Z</time></trkpt>
<trkpt lat="46.57822025008499622344970703125" lon="7.09260678850114345550537109375"><ele></ele><time>2016-7-29T0:39:59Z</time></trkpt>
<trkpt lat="46.57803601585328578948974609375" lon="7.09258751012384891510009765625"><ele></ele><time>2016-7-29T0:40:2Z</time></trkpt>
<trkpt lat="46.577888242900371551513671875" lon="7.0926305092871189117431640625"><ele></ele><time>2016-7-29T0:40:5Z</time></trkpt>
<trkpt lat="46.577783636748790740966796875" lon="7.09269546903669834136962890625"><ele></ele><time>2016-7-29T0:40:8Z</time></trkpt>
<trkpt lat="46.57756268978118896484375" lon="7.092704437673091888427734375"><ele></ele><time>2016-7-29T0:40:11Z</time></trkpt>
<trkpt lat="46.5774173475801944732666015625" lon="7.09259723313152790069580078125"><ele></ele><time>2016-7-29T0:40:14Z</time></trkpt>
<trkpt lat="46.57722464762628078460693359375" lon="7.0923760347068309783935546875"><ele></ele><time>2016-7-29T0:40:17Z</time></trkpt>
<trkpt lat="46.5770441852509975433349609375" lon="7.092275954782962799072265625"><ele></ele><time>2016-7-29T0:40:20Z</time></trkpt>
<trkpt lat="46.57692859880626201629638671875" lon="7.09227134473621845245361328125"><ele></ele><time>2016-7-29T0:40:23Z</time></trkpt>
<trkpt lat="46.5767186321318149566650390625" lon="7.0922573469579219818115234375"><ele></ele><time>2016-7-29T0:40:26Z</time></trkpt>
<trkpt lat="46.576551496982574462890625" lon="7.09225608967244625091552734375"><ele></ele><time>2016-7-29T0:40:29Z</time></trkpt>
<trkpt lat="46.57635812647640705108642578125" lon="7.09221937693655490875244140625"><ele></ele><time>2016-7-29T0:40:32Z</time></trkpt>
<trkpt lat="46.57616836018860340118408203125" lon="7.09212801419198513031005859375"><ele></ele><time>2016-7-29T0:40:35Z</time></trkpt>
<trkpt lat="46.5760296396911144256591796875" lon="7.09208476357161998748779296875"><ele></ele><time>2016-7-29T0:40:38Z</time></trkpt>
<trkpt lat="46.575920172035694122314453125" lon="7.09205375052988529205322265625"><ele></ele><time>2016-7-29T0:40:41Z</time></trkpt>
<trkpt lat="46.57573803327977657318115234375" lon="7.0919321291148662567138671875"><ele></ele><time>2016-7-29T0:40:44Z</time></trkpt>
<trkpt lat="46.575599648058414459228515625" lon="7.091785110533237457275390625"><ele></ele><time>2016-7-29T0:40:47Z</time></trkpt>
<trkpt lat="46.57544500194489955902099609375" lon="7.09167472086846828460693359375"><ele></ele><time>2016-7-29T0:40:50Z</time></trkpt>
<trkpt lat="46.5752521343529224395751953125" lon="7.09168612025678157806396484375"><ele></ele><time>2016-7-29T0:40:53Z</time></trkpt>
<trkpt lat="46.57506622374057769775390625" lon="7.0916984416544437408447265625"><ele></ele><time>2016-7-29T0:40:56Z</time></trkpt>
<trkpt lat="46.5748474560678005218505859375" lon="7.091751582920551300048828125"><ele></ele><time>2016-7-29T0:40:59Z</time></trkpt>
<trkpt lat="46.5746580250561237335205078125" lon="7.0917996950447559356689453125"><ele></ele><time>2016-7-29T0:41:2Z</time></trkpt>
<trkpt lat="46.5744481422007083892822265625" lon="7.09178955294191837310791015625"><ele></ele><time>2016-7-29T0:41:5Z</time></trkpt>
<trkpt lat="46.57427354715764522552490234375" lon="7.09175451658666133880615234375"><ele></ele><time>2016-7-29T0:41:8Z</time></trkpt>
<trkpt lat="46.5741353295743465423583984375" lon="7.0918060652911663055419921875"><ele></ele><time>2016-7-29T0:41:11Z</time></trkpt>
<trkpt lat="46.5739730559289455413818359375" lon="7.09190740250051021575927734375"><ele></ele><time>2016-7-29T0:41:14Z</time></trkpt>
<trkpt lat="46.5738265402615070343017578125" lon="7.0918680913746356964111328125"><ele></ele><time>2016-7-29T0:41:17Z</time></trkpt>
<trkpt lat="46.57361120916903018951416015625" lon="7.09181335754692554473876953125"><ele></ele><time>2016-7-29T0:41:20Z</time></trkpt>
<trkpt lat="46.5734111331403255462646484375" lon="7.09179885685443878173828125"><ele></ele><time>2016-7-29T0:41:23Z</time></trkpt>
<trkpt lat="46.573190353810787200927734375" lon="7.09179122932255268096923828125"><ele></ele><time>2016-7-29T0:41:26Z</time></trkpt>
<trkpt lat="46.5729585103690624237060546875" lon="7.0918161235749721527099609375"><ele></ele><time>2016-7-29T0:41:29Z</time></trkpt>
<trkpt lat="46.57262918539345264434814453125" lon="7.09183908998966217041015625"><ele></ele><time>2016-7-29T0:41:32Z</time></trkpt>
<trkpt lat="46.5724539197981357574462890625" lon="7.0918317139148712158203125"><ele></ele><time>2016-7-29T0:41:35Z</time></trkpt>
<trkpt lat="46.57238560728728771209716796875" lon="7.091843783855438232421875"><ele></ele><time>2016-7-29T0:41:38Z</time></trkpt>
<trkpt lat="46.57224697060883045196533203125" lon="7.09188980050384998321533203125"><ele></ele><time>2016-7-29T0:41:41Z</time></trkpt>
<trkpt lat="46.57207950018346309661865234375" lon="7.09195434115827083587646484375"><ele></ele><time>2016-7-29T0:41:44Z</time></trkpt>
<trkpt lat="46.57194413244724273681640625" lon="7.092069089412689208984375"><ele></ele><time>2016-7-29T0:41:47Z</time></trkpt>
<trkpt lat="46.5717753209173679351806640625" lon="7.09227402694523334503173828125"><ele></ele><time>2016-7-29T0:41:50Z</time></trkpt>
<trkpt lat="46.57159276306629180908203125" lon="7.092443592846393585205078125"><ele></ele><time>2016-7-29T0:41:53Z</time></trkpt>
<trkpt lat="46.5713096223771572113037109375" lon="7.0925560779869556427001953125"><ele></ele><time>2016-7-29T0:41:56Z</time></trkpt>
<trkpt lat="46.57096588052809238433837890625" lon="7.09264500997960567474365234375"><ele></ele><time>2016-7-29T0:41:59Z</time></trkpt>
<trkpt lat="46.57071165740489959716796875" lon="7.09267434664070606231689453125"><ele></ele><time>2016-7-29T0:42:2Z</time></trkpt>
<trkpt lat="46.570441424846649169921875" lon="7.092691361904144287109375"><ele></ele><time>2016-7-29T0:42:5Z</time></trkpt>
<trkpt lat="46.57017060555517673492431640625" lon="7.09269069135189056396484375"><ele></ele><time>2016-7-29T0:42:8Z</time></trkpt>
<trkpt lat="46.56985628418624401092529296875" lon="7.0927195250988006591796875"><ele></ele><time>2016-7-29T0:42:11Z</time></trkpt>
<trkpt lat="46.56951698474586009979248046875" lon="7.0927436649799346923828125"><ele></ele><time>2016-7-29T0:42:14Z</time></trkpt>
<trkpt lat="46.56911515630781650543212890625" lon="7.09277610294520854949951171875"><ele></ele><time>2016-7-29T0:42:17Z</time></trkpt>
<trkpt lat="46.5689569897949695587158203125" lon="7.09281943738460540771484375"><ele></ele><time>2016-7-29T0:42:20Z</time></trkpt>
<trkpt lat="46.56884676776826381683349609375" lon="7.09286637604236602783203125"><ele></ele><time>2016-7-29T0:42:23Z</time></trkpt>
<trkpt lat="46.56861760653555393218994140625" lon="7.09293032996356487274169921875"><ele></ele><time>2016-7-29T0:42:26Z</time></trkpt>
<trkpt lat="46.5684644691646099090576171875" lon="7.09304700605571269989013671875"><ele></ele><time>2016-7-29T0:42:29Z</time></trkpt>
<trkpt lat="46.568342261016368865966796875" lon="7.09326091222465038299560546875"><ele></ele><time>2016-7-29T0:42:32Z</time></trkpt>
<trkpt lat="46.5682968311011791229248046875" lon="7.09328857250511646270751953125"><ele></ele><time>2016-7-29T0:42:35Z</time></trkpt>
<trkpt lat="46.568144448101520538330078125" lon="7.09328572265803813934326171875"><ele></ele><time>2016-7-29T0:42:38Z</time></trkpt>
<trkpt lat="46.56803875230252742767333984375" lon="7.09324280731379985809326171875"><ele></ele><time>2016-7-29T0:42:41Z</time></trkpt>
<trkpt lat="46.56789056025445461273193359375" lon="7.09317080676555633544921875"><ele></ele><time>2016-7-29T0:42:44Z</time></trkpt>
<trkpt lat="46.5678463876247406005859375" lon="7.0931352674961090087890625"><ele></ele><time>2016-7-29T0:42:47Z</time></trkpt>
<trkpt lat="46.56775510869920253753662109375" lon="7.0929802022874355316162109375"><ele></ele><time>2016-7-29T0:42:50Z</time></trkpt>
<trkpt lat="46.5676125325262546539306640625" lon="7.09276822395622730255126953125"><ele></ele><time>2016-7-29T0:42:53Z</time></trkpt>
<trkpt lat="46.5674482472240924835205078125" lon="7.09265540353953838348388671875"><ele></ele><time>2016-7-29T0:42:56Z</time></trkpt>
<trkpt lat="46.56714876182377338409423828125" lon="7.09246312268078327178955078125"><ele></ele><time>2016-7-29T0:42:59Z</time></trkpt>
<trkpt lat="46.56695446930825710296630859375" lon="7.0923418365418910980224609375"><ele></ele><time>2016-7-29T0:43:2Z</time></trkpt>
<trkpt lat="46.566953547298908233642578125" lon="7.09234192036092281341552734375"><ele></ele><time>2016-7-29T0:43:5Z</time></trkpt>
<trkpt lat="46.566954553127288818359375" lon="7.0923280902206897735595703125"><ele></ele><time>2016-7-29T0:43:8Z</time></trkpt>
<trkpt lat="46.56696134246885776519775390625" lon="7.09233219735324382781982421875"><ele></ele><time>2016-7-29T0:43:11Z</time></trkpt>
<trkpt lat="46.56695924699306488037109375" lon="7.09234326146543025970458984375"><ele></ele><time>2016-7-29T0:43:14Z</time></trkpt>
<trkpt lat="46.56696335412561893463134765625" lon="7.0923250727355480194091796875"><ele></ele><time>2016-7-29T0:43:17Z</time></trkpt>
<trkpt lat="46.56692848540842533111572265625" lon="7.09236404858529567718505859375"><ele></ele><time>2016-7-29T0:43:20Z</time></trkpt>
<trkpt lat="46.56692228280007839202880859375" lon="7.09237553179264068603515625"><ele></ele><time>2016-7-29T0:43:23Z</time></trkpt>
<trkpt lat="46.56692462973296642303466796875" lon="7.0923512242734432220458984375"><ele></ele><time>2016-7-29T0:43:26Z</time></trkpt>
<trkpt lat="46.56686402857303619384765625" lon="7.092328257858753204345703125"><ele></ele><time>2016-7-29T0:43:29Z</time></trkpt>
<trkpt lat="46.5667277388274669647216796875" lon="7.09226329810917377471923828125"><ele></ele><time>2016-7-29T0:43:32Z</time></trkpt>
<trkpt lat="46.566572003066539764404296875" lon="7.092174030840396881103515625"><ele></ele><time>2016-7-29T0:43:35Z</time></trkpt>
<trkpt lat="46.566305793821811676025390625" lon="7.09204637445509433746337890625"><ele></ele><time>2016-7-29T0:43:38Z</time></trkpt>
<trkpt lat="46.566014774143695831298828125" lon="7.091901786625385284423828125"><ele></ele><time>2016-7-29T0:43:41Z</time></trkpt>
<trkpt lat="46.56579256989061832427978515625" lon="7.09177077747881412506103515625"><ele></ele><time>2016-7-29T0:43:44Z</time></trkpt>
<trkpt lat="46.56551747582852840423583984375" lon="7.0916468091309070587158203125"><ele></ele><time>2016-7-29T0:43:47Z</time></trkpt>
<trkpt lat="46.56527792103588581085205078125" lon="7.09151747636497020721435546875"><ele></ele><time>2016-7-29T0:43:50Z</time></trkpt>
<trkpt lat="46.565193347632884979248046875" lon="7.09148109890520572662353515625"><ele></ele><time>2016-7-29T0:43:53Z</time></trkpt>
<trkpt lat="46.564915068447589874267578125" lon="7.091359309852123260498046875"><ele></ele><time>2016-7-29T0:43:56Z</time></trkpt>
<trkpt lat="46.56487475149333477020263671875" lon="7.091335169970989227294921875"><ele></ele><time>2016-7-29T0:43:59Z</time></trkpt>
<trkpt lat="46.56467400491237640380859375" lon="7.09123467095196247100830078125"><ele></ele><time>2016-7-29T0:44:2Z</time></trkpt>
<trkpt lat="46.564304530620574951171875" lon="7.09105881862342357635498046875"><ele></ele><time>2016-7-29T0:44:5Z</time></trkpt>
<trkpt lat="46.564103700220584869384765625" lon="7.09093795157968997955322265625"><ele></ele><time>2016-7-29T0:44:8Z</time></trkpt>
<trkpt lat="46.56397822313010692596435546875" lon="7.09086184389889240264892578125"><ele></ele><time>2016-7-29T0:44:11Z</time></trkpt>
<trkpt lat="46.5639369003474712371826171875" lon="7.09083870984613895416259765625"><ele></ele><time>2016-7-29T0:44:14Z</time></trkpt>
<trkpt lat="46.5635950863361358642578125" lon="7.0906704850494861602783203125"><ele></ele><time>2016-7-29T0:44:17Z</time></trkpt>
<trkpt lat="46.563174985349178314208984375" lon="7.0904998295009136199951171875"><ele></ele><time>2016-7-29T0:44:20Z</time></trkpt>
<trkpt lat="46.5629736520349979400634765625" lon="7.0903714187443256378173828125"><ele></ele><time>2016-7-29T0:44:23Z</time></trkpt>
<trkpt lat="46.56290031038224697113037109375" lon="7.09033177234232425689697265625"><ele></ele><time>2016-7-29T0:44:26Z</time></trkpt>
<trkpt lat="46.5627972967922687530517578125" lon="7.090287096798419952392578125"><ele></ele><time>2016-7-29T0:44:29Z</time></trkpt>
<trkpt lat="46.56264415942132472991943359375" lon="7.09023605100810527801513671875"><ele></ele><time>2016-7-29T0:44:32Z</time></trkpt>
<trkpt lat="46.562310643494129180908203125" lon="7.0900800637900829315185546875"><ele></ele><time>2016-7-29T0:44:35Z</time></trkpt>
<trkpt lat="46.561998166143894195556640625" lon="7.089950479567050933837890625"><ele></ele><time>2016-7-29T0:44:38Z</time></trkpt>
<trkpt lat="46.56167529523372650146484375" lon="7.0898041315376758575439453125"><ele></ele><time>2016-7-29T0:44:41Z</time></trkpt>
<trkpt lat="46.56134446151554584503173828125" lon="7.0896535925567150115966796875"><ele></ele><time>2016-7-29T0:44:44Z</time></trkpt>
<trkpt lat="46.56126047484576702117919921875" lon="7.08961595781147480010986328125"><ele></ele><time>2016-7-29T0:44:47Z</time></trkpt>
<trkpt lat="46.56110524199903011322021484375" lon="7.08953364752233028411865234375"><ele></ele><time>2016-7-29T0:44:50Z</time></trkpt>
<trkpt lat="46.56081841327250003814697265625" lon="7.089372463524341583251953125"><ele></ele><time>2016-7-29T0:44:53Z</time></trkpt>
<trkpt lat="46.56062495894730091094970703125" lon="7.089285291731357574462890625"><ele></ele><time>2016-7-29T0:44:56Z</time></trkpt>
<trkpt lat="46.56029085628688335418701171875" lon="7.08912394009530544281005859375"><ele></ele><time>2016-7-29T0:44:59Z</time></trkpt>
<trkpt lat="46.56009539030492305755615234375" lon="7.08904422819614410400390625"><ele></ele><time>2016-7-29T0:45:2Z</time></trkpt>
<trkpt lat="46.56000964343547821044921875" lon="7.0890073478221893310546875"><ele></ele><time>2016-7-29T0:45:5Z</time></trkpt>
<trkpt lat="46.5597040392458438873291015625" lon="7.08888597786426544189453125"><ele></ele><time>2016-7-29T0:45:8Z</time></trkpt>
<trkpt lat="46.55925594270229339599609375" lon="7.08871976472437381744384765625"><ele></ele><time>2016-7-29T0:45:11Z</time></trkpt>
<trkpt lat="46.5589406155049800872802734375" lon="7.08861113525927066802978515625"><ele></ele><time>2016-7-29T0:45:14Z</time></trkpt>
<trkpt lat="46.558827124536037445068359375" lon="7.08854508586227893829345703125"><ele></ele><time>2016-7-29T0:45:17Z</time></trkpt>
<trkpt lat="46.55870248563587665557861328125" lon="7.0884667150676250457763671875"><ele></ele><time>2016-7-29T0:45:20Z</time></trkpt>
<trkpt lat="46.5586237795650959014892578125" lon="7.08839370869100093841552734375"><ele></ele><time>2016-7-29T0:45:23Z</time></trkpt>
<trkpt lat="46.55851121060550212860107421875" lon="7.0882839895784854888916015625"><ele></ele><time>2016-7-29T0:45:26Z</time></trkpt>
<trkpt lat="46.5582237951457500457763671875" lon="7.08801425993442535400390625"><ele></ele><time>2016-7-29T0:45:29Z</time></trkpt>
<trkpt lat="46.557942666113376617431640625" lon="7.08770941011607646942138671875"><ele></ele><time>2016-7-29T0:45:32Z</time></trkpt>
<trkpt lat="46.5576454438269138336181640625" lon="7.0873663388192653656005859375"><ele></ele><time>2016-7-29T0:45:35Z</time></trkpt>
<trkpt lat="46.557608060538768768310546875" lon="7.087313868105411529541015625"><ele></ele><time>2016-7-29T0:45:38Z</time></trkpt>
<trkpt lat="46.55740764923393726348876953125" lon="7.08709317259490489959716796875"><ele></ele><time>2016-7-29T0:45:41Z</time></trkpt>
<trkpt lat="46.55710925348103046417236328125" lon="7.0867427252233028411865234375"><ele></ele><time>2016-7-29T0:45:44Z</time></trkpt>
<trkpt lat="46.5568253584206104278564453125" lon="7.08640082739293575286865234375"><ele></ele><time>2016-7-29T0:45:47Z</time></trkpt>
<trkpt lat="46.55644725076854228973388671875" lon="7.08594091236591339111328125"><ele></ele><time>2016-7-29T0:45:50Z</time></trkpt>
<trkpt lat="46.5560961328446865081787109375" lon="7.08555065095424652099609375"><ele></ele><time>2016-7-29T0:45:53Z</time></trkpt>
<trkpt lat="46.55605631880462169647216796875" lon="7.08550513722002506256103515625"><ele></ele><time>2016-7-29T0:45:56Z</time></trkpt>
<trkpt lat="46.55569539405405521392822265625" lon="7.0850913226604461669921875"><ele></ele><time>2016-7-29T0:45:59Z</time></trkpt>
<trkpt lat="46.5553789772093296051025390625" lon="7.08471120335161685943603515625"><ele></ele><time>2016-7-29T0:46:2Z</time></trkpt>
<trkpt lat="46.55495996586978435516357421875" lon="7.0842848159372806549072265625"><ele></ele><time>2016-7-29T0:46:5Z</time></trkpt>
<trkpt lat="46.554461829364299774169921875" lon="7.0838660560548305511474609375"><ele></ele><time>2016-7-29T0:46:8Z</time></trkpt>
<trkpt lat="46.55405706726014614105224609375" lon="7.083577550947666168212890625"><ele></ele><time>2016-7-29T0:46:11Z</time></trkpt>
<trkpt lat="46.5536321885883808135986328125" lon="7.08325593732297420501708984375"><ele></ele><time>2016-7-29T0:46:14Z</time></trkpt>
<trkpt lat="46.5531607903540134429931640625" lon="7.08288629539310932159423828125"><ele></ele><time>2016-7-29T0:46:17Z</time></trkpt>
<trkpt lat="46.55265360139310359954833984375" lon="7.08249720744788646697998046875"><ele></ele><time>2016-7-29T0:46:20Z</time></trkpt>
<trkpt lat="46.5525881387293338775634765625" lon="7.08244021050631999969482421875"><ele></ele><time>2016-7-29T0:46:23Z</time></trkpt>
<trkpt lat="46.55239845626056194305419921875" lon="7.08229352720081806182861328125"><ele></ele><time>2016-7-29T0:46:26Z</time></trkpt>
<trkpt lat="46.55232385732233524322509765625" lon="7.08224482834339141845703125"><ele></ele><time>2016-7-29T0:46:29Z</time></trkpt>
<trkpt lat="46.55219511128962039947509765625" lon="7.082249186933040618896484375"><ele></ele><time>2016-7-29T0:46:32Z</time></trkpt>
<trkpt lat="46.552111543715000152587890625" lon="7.082375586032867431640625"><ele></ele><time>2016-7-29T0:46:35Z</time></trkpt>
<trkpt lat="46.55207558535039424896240234375" lon="7.08248061127960681915283203125"><ele></ele><time>2016-7-29T0:46:38Z</time></trkpt>
<trkpt lat="46.55198237858712673187255859375" lon="7.0826909132301807403564453125"><ele></ele><time>2016-7-29T0:46:41Z</time></trkpt>
<trkpt lat="46.55167811550199985504150390625" lon="7.0834107510745525360107421875"><ele></ele><time>2016-7-29T0:46:44Z</time></trkpt>
<trkpt lat="46.5514998324215412139892578125" lon="7.0837232284247875213623046875"><ele></ele><time>2016-7-29T0:46:47Z</time></trkpt>
<trkpt lat="46.55145918019115924835205078125" lon="7.08374309353530406951904296875"><ele></ele><time>2016-7-29T0:46:50Z</time></trkpt>
<trkpt lat="46.55130294151604175567626953125" lon="7.08371828310191631317138671875"><ele></ele><time>2016-7-29T0:46:53Z</time></trkpt>
<trkpt lat="46.55122968368232250213623046875" lon="7.083666063845157623291015625"><ele></ele><time>2016-7-29T0:46:56Z</time></trkpt>
<trkpt lat="46.55104612000286579132080078125" lon="7.08352583460509777069091796875"><ele></ele><time>2016-7-29T0:46:59Z</time></trkpt>
<trkpt lat="46.55075426213443279266357421875" lon="7.083295248448848724365234375"><ele></ele><time>2016-7-29T0:47:2Z</time></trkpt>
<trkpt lat="46.55043155886232852935791015625" lon="7.0829906500875949859619140625"><ele></ele><time>2016-7-29T0:47:5Z</time></trkpt>
<trkpt lat="46.54996468685567378997802734375" lon="7.082536518573760986328125"><ele></ele><time>2016-7-29T0:47:8Z</time></trkpt>
<trkpt lat="46.54968774877488613128662109375" lon="7.08224357105791568756103515625"><ele></ele><time>2016-7-29T0:47:11Z</time></trkpt>
<trkpt lat="46.5492729283869266510009765625" lon="7.0818252302706241607666015625"><ele></ele><time>2016-7-29T0:47:14Z</time></trkpt>
<trkpt lat="46.54881066642701625823974609375" lon="7.0813581906259059906005859375"><ele></ele><time>2016-7-29T0:47:17Z</time></trkpt>
<trkpt lat="46.54877386987209320068359375" lon="7.08132055588066577911376953125"><ele></ele><time>2016-7-29T0:47:20Z</time></trkpt>
<trkpt lat="46.5483762323856353759765625" lon="7.0809377543628215789794921875"><ele></ele><time>2016-7-29T0:47:23Z</time></trkpt>
<trkpt lat="46.5480102784931659698486328125" lon="7.0806071721017360687255859375"><ele></ele><time>2016-7-29T0:47:26Z</time></trkpt>
<trkpt lat="46.54753829352557659149169921875" lon="7.08017416298389434814453125"><ele></ele><time>2016-7-29T0:47:29Z</time></trkpt>
<trkpt lat="46.54721978120505809783935546875" lon="7.07997090183198451995849609375"><ele></ele><time>2016-7-29T0:47:32Z</time></trkpt>
<trkpt lat="46.54682666994631290435791015625" lon="7.07981332205235958099365234375"><ele></ele><time>2016-7-29T0:47:35Z</time></trkpt>
<trkpt lat="46.54647932387888431549072265625" lon="7.07972883246839046478271484375"><ele></ele><time>2016-7-29T0:47:38Z</time></trkpt>
<trkpt lat="46.54643054120242595672607421875" lon="7.07974232733249664306640625"><ele></ele><time>2016-7-29T0:47:41Z</time></trkpt>
<trkpt lat="46.54630296863615512847900390625" lon="7.07987534813582897186279296875"><ele></ele><time>2016-7-29T0:47:44Z</time></trkpt>
<trkpt lat="46.54626776464283466339111328125" lon="7.07993720658123493194580078125"><ele></ele><time>2016-7-29T0:47:47Z</time></trkpt>
<trkpt lat="46.5462229214608669281005859375" lon="7.08000794984400272369384765625"><ele></ele><time>2016-7-29T0:47:50Z</time></trkpt>
<trkpt lat="46.54612250626087188720703125" lon="7.08012110553681850433349609375"><ele></ele><time>2016-7-29T0:47:53Z</time></trkpt>
<trkpt lat="46.54600122012197971343994140625" lon="7.08028011023998260498046875"><ele></ele><time>2016-7-29T0:47:56Z</time></trkpt>
<trkpt lat="46.5458303131163120269775390625" lon="7.080497033894062042236328125"><ele></ele><time>2016-7-29T0:47:59Z</time></trkpt>
<trkpt lat="46.54579184018075466156005859375" lon="7.0805612392723560333251953125"><ele></ele><time>2016-7-29T0:48:2Z</time></trkpt>
<trkpt lat="46.54579334892332553863525390625" lon="7.0805583894252777099609375"><ele></ele><time>2016-7-29T0:48:5Z</time></trkpt>
<trkpt lat="46.54576778411865234375" lon="7.08063826896250247955322265625"><ele></ele><time>2016-7-29T0:48:8Z</time></trkpt>
<trkpt lat="46.54561967588961124420166015625" lon="7.0807865448296070098876953125"><ele></ele><time>2016-7-29T0:48:11Z</time></trkpt>
<trkpt lat="46.54545329511165618896484375" lon="7.0809877105057239532470703125"><ele></ele><time>2016-7-29T0:48:14Z</time></trkpt>
<trkpt lat="46.54526009224355220794677734375" lon="7.0812128484249114990234375"><ele></ele><time>2016-7-29T0:48:17Z</time></trkpt>
<trkpt lat="46.545094884932041168212890625" lon="7.0814024470746517181396484375"><ele></ele><time>2016-7-29T0:48:20Z</time></trkpt>
<trkpt lat="46.54494040645658969879150390625" lon="7.08160922862589359283447265625"><ele></ele><time>2016-7-29T0:48:23Z</time></trkpt>
<trkpt lat="46.5447176992893218994140625" lon="7.0819486118853092193603515625"><ele></ele><time>2016-7-29T0:48:26Z</time></trkpt>
<trkpt lat="46.544544696807861328125" lon="7.08224440924823284149169921875"><ele></ele><time>2016-7-29T0:48:29Z</time></trkpt>
<trkpt lat="46.5443611331284046173095703125" lon="7.08254029043018817901611328125"><ele></ele><time>2016-7-29T0:48:32Z</time></trkpt>
<trkpt lat="46.54417614452540874481201171875" lon="7.08281974308192729949951171875"><ele></ele><time>2016-7-29T0:48:35Z</time></trkpt>
<trkpt lat="46.5440020523965358734130859375" lon="7.08309148438274860382080078125"><ele></ele><time>2016-7-29T0:48:38Z</time></trkpt>
<trkpt lat="46.54384992085397243499755859375" lon="7.083326093852519989013671875"><ele></ele><time>2016-7-29T0:48:41Z</time></trkpt>
<trkpt lat="46.54366132803261280059814453125" lon="7.0835586078464984893798828125"><ele></ele><time>2016-7-29T0:48:44Z</time></trkpt>
<trkpt lat="46.54339629225432872772216796875" lon="7.08391341380774974822998046875"><ele></ele><time>2016-7-29T0:48:47Z</time></trkpt>
<trkpt lat="46.5431873314082622528076171875" lon="7.0842449180781841278076171875"><ele></ele><time>2016-7-29T0:48:50Z</time></trkpt>
<trkpt lat="46.5430149994790554046630859375" lon="7.084616236388683319091796875"><ele></ele><time>2016-7-29T0:48:53Z</time></trkpt>
<trkpt lat="46.54282204806804656982421875" lon="7.085051424801349639892578125"><ele></ele><time>2016-7-29T0:48:56Z</time></trkpt>
<trkpt lat="46.54262314550578594207763671875" lon="7.08549876697361469268798828125"><ele></ele><time>2016-7-29T0:48:59Z</time></trkpt>
<trkpt lat="46.54242818243801593780517578125" lon="7.08579540252685546875"><ele></ele><time>2016-7-29T0:49:2Z</time></trkpt>
<trkpt lat="46.54223556630313396453857421875" lon="7.08590738475322723388671875"><ele></ele><time>2016-7-29T0:49:5Z</time></trkpt>
<trkpt lat="46.54197304509580135345458984375" lon="7.08604551851749420166015625"><ele></ele><time>2016-7-29T0:49:8Z</time></trkpt>
<trkpt lat="46.54171370901167392730712890625" lon="7.08622078411281108856201171875"><ele></ele><time>2016-7-29T0:49:11Z</time></trkpt>
<trkpt lat="46.5414972044527530670166015625" lon="7.08640937693417072296142578125"><ele></ele><time>2016-7-29T0:49:14Z</time></trkpt>
<trkpt lat="46.5412853099405765533447265625" lon="7.0864838920533657073974609375"><ele></ele><time>2016-7-29T0:49:17Z</time></trkpt>
<trkpt lat="46.5411703102290630340576171875" lon="7.08635942079126834869384765625"><ele></ele><time>2016-7-29T0:49:20Z</time></trkpt>
<trkpt lat="46.5409518778324127197265625" lon="7.0861251465976238250732421875"><ele></ele><time>2016-7-29T0:49:23Z</time></trkpt>
<trkpt lat="46.5407535620033740997314453125" lon="7.0859900303184986114501953125"><ele></ele><time>2016-7-29T0:49:26Z</time></trkpt>
<trkpt lat="46.54050998389720916748046875" lon="7.08590026013553142547607421875"><ele></ele><time>2016-7-29T0:49:29Z</time></trkpt>
<trkpt lat="46.54036522842943668365478515625" lon="7.08590998314321041107177734375"><ele></ele><time>2016-7-29T0:49:32Z</time></trkpt>
<trkpt lat="46.54018736444413661956787109375" lon="7.08595926873385906219482421875"><ele></ele><time>2016-7-29T0:49:35Z</time></trkpt>
<trkpt lat="46.5401356481015682220458984375" lon="7.08592758513987064361572265625"><ele></ele><time>2016-7-29T0:49:38Z</time></trkpt>
<trkpt lat="46.5401001088321208953857421875" lon="7.08586153574287891387939453125"><ele></ele><time>2016-7-29T0:49:41Z</time></trkpt>
<trkpt lat="46.54007010161876678466796875" lon="7.08578995428979396820068359375"><ele></ele><time>2016-7-29T0:49:44Z</time></trkpt>
<trkpt lat="46.5399696864187717437744140625" lon="7.08572306670248508453369140625"><ele></ele><time>2016-7-29T0:49:47Z</time></trkpt>
<trkpt lat="46.53973742388188838958740234375" lon="7.08569976501166820526123046875"><ele></ele><time>2016-7-29T0:49:50Z</time></trkpt>
<trkpt lat="46.5395190753042697906494140625" lon="7.0856731943786144256591796875"><ele></ele><time>2016-7-29T0:49:53Z</time></trkpt>
<trkpt lat="46.53930701315402984619140625" lon="7.08568610250949859619140625"><ele></ele><time>2016-7-29T0:49:56Z</time></trkpt>
<trkpt lat="46.5390852279961109161376953125" lon="7.085637487471103668212890625"><ele></ele><time>2016-7-29T0:49:59Z</time></trkpt>
<trkpt lat="46.53906963765621185302734375" lon="7.08565793931484222412109375"><ele></ele><time>2016-7-29T0:50:2Z</time></trkpt>
<trkpt lat="46.53905496932566165924072265625" lon="7.08573170006275177001953125"><ele></ele><time>2016-7-29T0:50:5Z</time></trkpt>
<trkpt lat="46.53906024992465972900390625" lon="7.08583923988044261932373046875"><ele></ele><time>2016-7-29T0:50:8Z</time></trkpt>
<trkpt lat="46.5390748344361782073974609375" lon="7.08587561734020709991455078125"><ele></ele><time>2016-7-29T0:50:11Z</time></trkpt>
<trkpt lat="46.5390796959400177001953125" lon="7.085874192416667938232421875"><ele></ele><time>2016-7-29T0:50:14Z</time></trkpt>
<trkpt lat="46.53908078558743000030517578125" lon="7.08587243221700191497802734375"><ele></ele><time>2016-7-29T0:50:17Z</time></trkpt>
<trkpt lat="46.5390503592789173126220703125" lon="7.08592808805406093597412109375"><ele></ele><time>2016-7-29T0:50:20Z</time></trkpt>
<trkpt lat="46.53903837315738201141357421875" lon="7.0859149284660816192626953125"><ele></ele><time>2016-7-29T0:50:23Z</time></trkpt>
<trkpt lat="46.53902982361614704132080078125" lon="7.085848040878772735595703125"><ele></ele><time>2016-7-29T0:50:26Z</time></trkpt>
<trkpt lat="46.539046503603458404541015625" lon="7.08572306670248508453369140625"><ele></ele><time>2016-7-29T0:50:29Z</time></trkpt>
<trkpt lat="46.53903418220579624176025390625" lon="7.08563908003270626068115234375"><ele></ele><time>2016-7-29T0:50:32Z</time></trkpt>
<trkpt lat="46.53897802345454692840576171875" lon="7.085436321794986724853515625"><ele></ele><time>2016-7-29T0:50:35Z</time></trkpt>
<trkpt lat="46.53877166099846363067626953125" lon="7.0852254331111907958984375"><ele></ele><time>2016-7-29T0:50:38Z</time></trkpt>
<trkpt lat="46.53860083781182765960693359375" lon="7.0849362574517726898193359375"><ele></ele><time>2016-7-29T0:50:41Z</time></trkpt>
<trkpt lat="46.53847075067460536956787109375" lon="7.08458262495696544647216796875"><ele></ele><time>2016-7-29T0:50:44Z</time></trkpt>
<trkpt lat="46.53838056139647960662841796875" lon="7.08434491418302059173583984375"><ele></ele><time>2016-7-29T0:50:47Z</time></trkpt>
<trkpt lat="46.53818408958613872528076171875" lon="7.08409328944981098175048828125"><ele></ele><time>2016-7-29T0:50:50Z</time></trkpt>
<trkpt lat="46.53795375488698482513427734375" lon="7.08382942713797092437744140625"><ele></ele><time>2016-7-29T0:50:53Z</time></trkpt>
<trkpt lat="46.5377461351454257965087890625" lon="7.08362390287220478057861328125"><ele></ele><time>2016-7-29T0:50:56Z</time></trkpt>
<trkpt lat="46.5374678559601306915283203125" lon="7.08341427147388458251953125"><ele></ele><time>2016-7-29T0:50:59Z</time></trkpt>
<trkpt lat="46.53720826841890811920166015625" lon="7.0831378363072872161865234375"><ele></ele><time>2016-7-29T0:51:2Z</time></trkpt>
<trkpt lat="46.53695815242826938629150390625" lon="7.08287472836673259735107421875"><ele></ele><time>2016-7-29T0:51:5Z</time></trkpt>
<trkpt lat="46.53668456710875034332275390625" lon="7.08264539949595928192138671875"><ele></ele><time>2016-7-29T0:51:8Z</time></trkpt>
<trkpt lat="46.53642891906201839447021484375" lon="7.08247960545122623443603515625"><ele></ele><time>2016-7-29T0:51:11Z</time></trkpt>
<trkpt lat="46.5361713431775569915771484375" lon="7.08240307867527008056640625"><ele></ele><time>2016-7-29T0:51:14Z</time></trkpt>
<trkpt lat="46.53587806038558483123779296875" lon="7.08232822827994823455810546875"><ele></ele><time>2016-7-29T0:51:17Z</time></trkpt>
<trkpt lat="46.5355624817311763763427734375" lon="7.0821561478078365325927734375"><ele></ele><time>2016-7-29T0:51:20Z</time></trkpt>
<trkpt lat="46.53523718006908893585205078125" lon="7.0819539763033390045166015625"><ele></ele><time>2016-7-29T0:51:23Z</time></trkpt>
<trkpt lat="46.53489955700933933258056640625" lon="7.08184652030467987060546875"><ele></ele><time>2016-7-29T0:51:26Z</time></trkpt>
<trkpt lat="46.53462396003305912017822265625" lon="7.08185456693172454833984375"><ele></ele><time>2016-7-29T0:51:29Z</time></trkpt>
<trkpt lat="46.5342512167990207672119140625" lon="7.08181106485426425933837890625"><ele></ele><time>2016-7-29T0:51:32Z</time></trkpt>
<trkpt lat="46.53402482159435749053955078125" lon="7.08175121806561946868896484375"><ele></ele><time>2016-7-29T0:51:35Z</time></trkpt>
<trkpt lat="46.533753164112567901611328125" lon="7.08160512149333953857421875"><ele></ele><time>2016-7-29T0:51:38Z</time></trkpt>
<trkpt lat="46.5335390903055667877197265625" lon="7.081476710736751556396484375"><ele></ele><time>2016-7-29T0:51:41Z</time></trkpt>
<trkpt lat="46.53332761488854885101318359375" lon="7.08145801909267902374267578125"><ele></ele><time>2016-7-29T0:51:44Z</time></trkpt>
<trkpt lat="46.53315058909356594085693359375" lon="7.08150143735110759735107421875"><ele></ele><time>2016-7-29T0:51:47Z</time></trkpt>
<trkpt lat="46.5329919196665287017822265625" lon="7.08152323029935359954833984375"><ele></ele><time>2016-7-29T0:51:50Z</time></trkpt>
<trkpt lat="46.5328437276184558868408203125" lon="7.08151199854910373687744140625"><ele></ele><time>2016-7-29T0:51:53Z</time></trkpt>
<trkpt lat="46.532664857804775238037109375" lon="7.0814433507621288299560546875"><ele></ele><time>2016-7-29T0:51:56Z</time></trkpt>
<trkpt lat="46.53247986920177936553955078125" lon="7.08133145235478878021240234375"><ele></ele><time>2016-7-29T0:51:59Z</time></trkpt>
<trkpt lat="46.532289683818817138671875" lon="7.081173956394195556640625"><ele></ele><time>2016-7-29T0:52:2Z</time></trkpt>
<trkpt lat="46.53209798969328403472900390625" lon="7.0809937454760074615478515625"><ele></ele><time>2016-7-29T0:52:5Z</time></trkpt>
<trkpt lat="46.53189481236040592193603515625" lon="7.0808026380836963653564453125"><ele></ele><time>2016-7-29T0:52:8Z</time></trkpt>
<trkpt lat="46.531686522066593170166015625" lon="7.08060557954013347625732421875"><ele></ele><time>2016-7-29T0:52:11Z</time></trkpt>
<trkpt lat="46.53152584098279476165771484375" lon="7.08049057982861995697021484375"><ele></ele><time>2016-7-29T0:52:14Z</time></trkpt>
<trkpt lat="46.5313406847417354583740234375" lon="7.08036216907203197479248046875"><ele></ele><time>2016-7-29T0:52:17Z</time></trkpt>
<trkpt lat="46.53112920932471752166748046875" lon="7.08022017963230609893798828125"><ele></ele><time>2016-7-29T0:52:20Z</time></trkpt>
<trkpt lat="46.53092469088733196258544921875" lon="7.08006159402430057525634765625"><ele></ele><time>2016-7-29T0:52:23Z</time></trkpt>
<trkpt lat="46.53071313165128231048583984375" lon="7.0798906870186328887939453125"><ele></ele><time>2016-7-29T0:52:26Z</time></trkpt>
<trkpt lat="46.530460752546787261962890625" lon="7.0796908624470233917236328125"><ele></ele><time>2016-7-29T0:52:29Z</time></trkpt>
<trkpt lat="46.530169062316417694091796875" lon="7.0794863440096378326416015625"><ele></ele><time>2016-7-29T0:52:32Z</time></trkpt>
<trkpt lat="46.53006068430840969085693359375" lon="7.079399339854717254638671875"><ele></ele><time>2016-7-29T0:52:35Z</time></trkpt>
<trkpt lat="46.5298849157989025115966796875" lon="7.0792717672884464263916015625"><ele></ele><time>2016-7-29T0:52:38Z</time></trkpt>
<trkpt lat="46.52946623973548412322998046875" lon="7.078905813395977020263671875"><ele></ele><time>2016-7-29T0:52:41Z</time></trkpt>
<trkpt lat="46.52909584343433380126953125" lon="7.07861890085041522979736328125"><ele></ele><time>2016-7-29T0:52:44Z</time></trkpt>
<trkpt lat="46.52872972190380096435546875" lon="7.0784050785005092620849609375"><ele></ele><time>2016-7-29T0:52:47Z</time></trkpt>
<trkpt lat="46.52835957705974578857421875" lon="7.07811431027948856353759765625"><ele></ele><time>2016-7-29T0:52:50Z</time></trkpt>
<trkpt lat="46.52806797064840793609619140625" lon="7.07777970470488071441650390625"><ele></ele><time>2016-7-29T0:52:53Z</time></trkpt>
<trkpt lat="46.52774132788181304931640625" lon="7.07738307304680347442626953125"><ele></ele><time>2016-7-29T0:52:56Z</time></trkpt>
<trkpt lat="46.52735249139368534088134765625" lon="7.07709255628287792205810546875"><ele></ele><time>2016-7-29T0:52:59Z</time></trkpt>
<trkpt lat="46.52690623886883258819580078125" lon="7.07677572034299373626708984375"><ele></ele><time>2016-7-29T0:53:2Z</time></trkpt>
<trkpt lat="46.526558138430118560791015625" lon="7.0765570364892482757568359375"><ele></ele><time>2016-7-29T0:53:5Z</time></trkpt>
<trkpt lat="46.52650089003145694732666015625" lon="7.0765271969139575958251953125"><ele></ele><time>2016-7-29T0:53:8Z</time></trkpt>
<trkpt lat="46.52601758949458599090576171875" lon="7.0762574672698974609375"><ele></ele><time>2016-7-29T0:53:11Z</time></trkpt>
<trkpt lat="46.5257020108401775360107421875" lon="7.07598882727324962615966796875"><ele></ele><time>2016-7-29T0:53:14Z</time></trkpt>
<trkpt lat="46.525433957576751708984375" lon="7.075794450938701629638671875"><ele></ele><time>2016-7-29T0:53:17Z</time></trkpt>
<trkpt lat="46.52538500726222991943359375" lon="7.075783051550388336181640625"><ele></ele><time>2016-7-29T0:53:20Z</time></trkpt>
<trkpt lat="46.5252024494111537933349609375" lon="7.07577265799045562744140625"><ele></ele><time>2016-7-29T0:53:23Z</time></trkpt>
<trkpt lat="46.52513095177710056304931640625" lon="7.0757607556879520416259765625"><ele></ele><time>2016-7-29T0:53:26Z</time></trkpt>
<trkpt lat="46.5250512398779392242431640625" lon="7.07573435269296169281005859375"><ele></ele><time>2016-7-29T0:53:29Z</time></trkpt>
<trkpt lat="46.5248842723667621612548828125" lon="7.07562555558979511260986328125"><ele></ele><time>2016-7-29T0:53:32Z</time></trkpt>
<trkpt lat="46.524720489978790283203125" lon="7.07549194805324077606201171875"><ele></ele><time>2016-7-29T0:53:35Z</time></trkpt>
<trkpt lat="46.5243894048035144805908203125" lon="7.0752176083624362945556640625"><ele></ele><time>2016-7-29T0:53:38Z</time></trkpt>
<trkpt lat="46.52424909174442291259765625" lon="7.0750472880899906158447265625"><ele></ele><time>2016-7-29T0:53:41Z</time></trkpt>
<trkpt lat="46.52411623857915401458740234375" lon="7.07487369887530803680419921875"><ele></ele><time>2016-7-29T0:53:44Z</time></trkpt>
<trkpt lat="46.52381063438951969146728515625" lon="7.07460723817348480224609375"><ele></ele><time>2016-7-29T0:53:47Z</time></trkpt>
<trkpt lat="46.52338433079421520233154296875" lon="7.0743244327604770660400390625"><ele></ele><time>2016-7-29T0:53:50Z</time></trkpt>
<trkpt lat="46.52330487035214900970458984375" lon="7.07424337975680828094482421875"><ele></ele><time>2016-7-29T0:53:53Z</time></trkpt>
<trkpt lat="46.5230714343488216400146484375" lon="7.07396912388503551483154296875"><ele></ele><time>2016-7-29T0:53:56Z</time></trkpt>
<trkpt lat="46.5228877030313014984130859375" lon="7.07382445223629474639892578125"><ele></ele><time>2016-7-29T0:53:59Z</time></trkpt>
<trkpt lat="46.5226908959448337554931640625" lon="7.0737440697848796844482421875"><ele></ele><time>2016-7-29T0:54:2Z</time></trkpt>
<trkpt lat="46.5221547894179821014404296875" lon="7.0735536329448223114013671875"><ele></ele><time>2016-7-29T0:54:5Z</time></trkpt>
<trkpt lat="46.52208530344069004058837890625" lon="7.073499150574207305908203125"><ele></ele><time>2016-7-29T0:54:8Z</time></trkpt>
<trkpt lat="46.5219859778881072998046875" lon="7.07335070706903934478759765625"><ele></ele><time>2016-7-29T0:54:11Z</time></trkpt>
<trkpt lat="46.5219070203602313995361328125" lon="7.07313143648207187652587890625"><ele></ele><time>2016-7-29T0:54:14Z</time></trkpt>
<trkpt lat="46.5218208543956279754638671875" lon="7.07297150976955890655517578125"><ele></ele><time>2016-7-29T0:54:17Z</time></trkpt>
<trkpt lat="46.52175740338861942291259765625" lon="7.0728911273181438446044921875"><ele></ele><time>2016-7-29T0:54:20Z</time></trkpt>
<trkpt lat="46.5216641128063201904296875" lon="7.07279750145971775054931640625"><ele></ele><time>2016-7-29T0:54:23Z</time></trkpt>
<trkpt lat="46.521576605737209320068359375" lon="7.0727191306650638580322265625"><ele></ele><time>2016-7-29T0:54:26Z</time></trkpt>
<trkpt lat="46.52139388024806976318359375" lon="7.07252576015889644622802734375"><ele></ele><time>2016-7-29T0:54:29Z</time></trkpt>
<trkpt lat="46.52121140621602535247802734375" lon="7.07229425199329853057861328125"><ele></ele><time>2016-7-29T0:54:32Z</time></trkpt>
<trkpt lat="46.521069668233394622802734375" lon="7.0721491612493991851806640625"><ele></ele><time>2016-7-29T0:54:35Z</time></trkpt>
<trkpt lat="46.520949639379978179931640625" lon="7.0720361731946468353271484375"><ele></ele><time>2016-7-29T0:54:38Z</time></trkpt>
<trkpt lat="46.52088023722171783447265625" lon="7.07207649014890193939208984375"><ele></ele><time>2016-7-29T0:54:41Z</time></trkpt>
<trkpt lat="46.52084402740001678466796875" lon="7.072074227035045623779296875"><ele></ele><time>2016-7-29T0:54:44Z</time></trkpt>
<trkpt lat="46.52081293053925037384033203125" lon="7.07204564474523067474365234375"><ele></ele><time>2016-7-29T0:54:47Z</time></trkpt>
<trkpt lat="46.5207466296851634979248046875" lon="7.07199476659297943115234375"><ele></ele><time>2016-7-29T0:54:50Z</time></trkpt>
<trkpt lat="46.5206909738481044769287109375" lon="7.07196886651217937469482421875"><ele></ele><time>2016-7-29T0:54:53Z</time></trkpt>
<trkpt lat="46.5205833502113819122314453125" lon="7.0719040744006633758544921875"><ele></ele><time>2016-7-29T0:54:56Z</time></trkpt>
<trkpt lat="46.52047924697399139404296875" lon="7.07184246741235256195068359375"><ele></ele><time>2016-7-29T0:54:59Z</time></trkpt>
<trkpt lat="46.5204432047903537750244140625" lon="7.0718125440180301666259765625"><ele></ele><time>2016-7-29T0:55:2Z</time></trkpt>
<trkpt lat="46.52040892280638217926025390625" lon="7.0718105323612689971923828125"><ele></ele><time>2016-7-29T0:55:5Z</time></trkpt>
<trkpt lat="46.5203784964978694915771484375" lon="7.0717890746891498565673828125"><ele></ele><time>2016-7-29T0:55:8Z</time></trkpt>
<trkpt lat="46.5203292109072208404541015625" lon="7.07176770083606243133544921875"><ele></ele><time>2016-7-29T0:55:11Z</time></trkpt>
<trkpt lat="46.5202417038381099700927734375" lon="7.0717298984527587890625"><ele></ele><time>2016-7-29T0:55:14Z</time></trkpt>
<trkpt lat="46.52015662752091884613037109375" lon="7.07169813103973865509033203125"><ele></ele><time>2016-7-29T0:55:17Z</time></trkpt>
<trkpt lat="46.52012460865080356597900390625" lon="7.07167834974825382232666015625"><ele></ele><time>2016-7-29T0:55:20Z</time></trkpt>
<trkpt lat="46.5200831182301044464111328125" lon="7.0716774277389049530029296875"><ele></ele><time>2016-7-29T0:55:23Z</time></trkpt>
<trkpt lat="46.5200700424611568450927734375" lon="7.07167097367346286773681640625"><ele></ele><time>2016-7-29T0:55:26Z</time></trkpt>
<trkpt lat="46.52000851929187774658203125" lon="7.071624286472797393798828125"><ele></ele><time>2016-7-29T0:55:29Z</time></trkpt>
<trkpt lat="46.51992763392627239227294921875" lon="7.071585394442081451416015625"><ele></ele><time>2016-7-29T0:55:32Z</time></trkpt>
<trkpt lat="46.51983819901943206787109375" lon="7.07152538001537322998046875"><ele></ele><time>2016-7-29T0:55:35Z</time></trkpt>
<trkpt lat="46.51972428895533084869384765625" lon="7.07150953821837902069091796875"><ele></ele><time>2016-7-29T0:55:38Z</time></trkpt>
<trkpt lat="46.51965388096868991851806640625" lon="7.071482799947261810302734375"><ele></ele><time>2016-7-29T0:55:41Z</time></trkpt>
<trkpt lat="46.51964046992361545562744140625" lon="7.07148338668048381805419921875"><ele></ele><time>2016-7-29T0:55:44Z</time></trkpt>
<trkpt lat="46.51954877190291881561279296875" lon="7.07143611274659633636474609375"><ele></ele><time>2016-7-29T0:55:47Z</time></trkpt>
<trkpt lat="46.51953804306685924530029296875" lon="7.0714390464127063751220703125"><ele></ele><time>2016-7-29T0:55:50Z</time></trkpt>
<trkpt lat="46.51946528814733028411865234375" lon="7.0714625157415866851806640625"><ele></ele><time>2016-7-29T0:55:53Z</time></trkpt>
<trkpt lat="46.51945196092128753662109375" lon="7.071451954543590545654296875"><ele></ele><time>2016-7-29T0:55:56Z</time></trkpt>
<trkpt lat="46.5194460935890674591064453125" lon="7.0714004896581172943115234375"><ele></ele><time>2016-7-29T0:55:59Z</time></trkpt>
<trkpt lat="46.5193964727222919464111328125" lon="7.0713837258517742156982421875"><ele></ele><time>2016-7-29T0:56:2Z</time></trkpt>
<trkpt lat="46.519330926239490509033203125" lon="7.07132957875728607177734375"><ele></ele><time>2016-7-29T0:56:5Z</time></trkpt>
<trkpt lat="46.51931072585284709930419921875" lon="7.07130988128483295440673828125"><ele></ele><time>2016-7-29T0:56:8Z</time></trkpt>
<trkpt lat="46.51924182660877704620361328125" lon="7.0712838135659694671630859375"><ele></ele><time>2016-7-29T0:56:11Z</time></trkpt>
<trkpt lat="46.51917628012597560882568359375" lon="7.07122941501438617706298828125"><ele></ele><time>2016-7-29T0:56:14Z</time></trkpt>
<trkpt lat="46.51905155740678310394287109375" lon="7.07111793570220470428466796875"><ele></ele><time>2016-7-29T0:56:17Z</time></trkpt>
<trkpt lat="46.518966145813465118408203125" lon="7.07103327848017215728759765625"><ele></ele><time>2016-7-29T0:56:20Z</time></trkpt>
<trkpt lat="46.51883865706622600555419921875" lon="7.07089095376431941986083984375"><ele></ele><time>2016-7-29T0:56:23Z</time></trkpt>
<trkpt lat="46.518823318183422088623046875" lon="7.0708715915679931640625"><ele></ele><time>2016-7-29T0:56:26Z</time></trkpt>
<trkpt lat="46.5186665765941143035888671875" lon="7.0707252435386180877685546875"><ele></ele><time>2016-7-29T0:56:29Z</time></trkpt>
<trkpt lat="46.51852031238377094268798828125" lon="7.0705726929008960723876953125"><ele></ele><time>2016-7-29T0:56:32Z</time></trkpt>
<trkpt lat="46.5183971822261810302734375" lon="7.07036842592060565948486328125"><ele></ele><time>2016-7-29T0:56:35Z</time></trkpt>
<trkpt lat="46.518242619931697845458984375" lon="7.0701033063232898712158203125"><ele></ele><time>2016-7-29T0:56:38Z</time></trkpt>
<trkpt lat="46.51813239790499210357666015625" lon="7.06993139348924160003662109375"><ele></ele><time>2016-7-29T0:56:41Z</time></trkpt>
<trkpt lat="46.51803030632436275482177734375" lon="7.06982963718473911285400390625"><ele></ele><time>2016-7-29T0:56:44Z</time></trkpt>
<trkpt lat="46.5177529491484165191650390625" lon="7.069625370204448699951171875"><ele></ele><time>2016-7-29T0:56:47Z</time></trkpt>
<trkpt lat="46.5176637656986713409423828125" lon="7.06960089504718780517578125"><ele></ele><time>2016-7-29T0:56:50Z</time></trkpt>
<trkpt lat="46.5174619294703006744384765625" lon="7.06958740018308162689208984375"><ele></ele><time>2016-7-29T0:56:53Z</time></trkpt>
<trkpt lat="46.51724718511104583740234375" lon="7.0696040801703929901123046875"><ele></ele><time>2016-7-29T0:56:56Z</time></trkpt>
<trkpt lat="46.51695004664361476898193359375" lon="7.06958605907857418060302734375"><ele></ele><time>2016-7-29T0:56:59Z</time></trkpt>
<trkpt lat="46.5165436081588268280029296875" lon="7.06956124864518642425537109375"><ele></ele><time>2016-7-29T0:57:2Z</time></trkpt>
<trkpt lat="46.51647428981959819793701171875" lon="7.069543562829494476318359375"><ele></ele><time>2016-7-29T0:57:5Z</time></trkpt>
<trkpt lat="46.5162971802055835723876953125" lon="7.069452702999114990234375"><ele></ele><time>2016-7-29T0:57:8Z</time></trkpt>
<trkpt lat="46.51606374420225620269775390625" lon="7.0692193508148193359375"><ele></ele><time>2016-7-29T0:57:11Z</time></trkpt>
<trkpt lat="46.5158445574343204498291015625" lon="7.06894601695239543914794921875"><ele></ele><time>2016-7-29T0:57:14Z</time></trkpt>
<trkpt lat="46.5155770070850849151611328125" lon="7.06874116323888301849365234375"><ele></ele><time>2016-7-29T0:57:17Z</time></trkpt>
<trkpt lat="46.5153071098029613494873046875" lon="7.0685794763267040252685546875"><ele></ele><time>2016-7-29T0:57:20Z</time></trkpt>
<trkpt lat="46.51505406014621257781982421875" lon="7.06840538419783115386962890625"><ele></ele><time>2016-7-29T0:57:23Z</time></trkpt>
<trkpt lat="46.51472766883671283721923828125" lon="7.068110592663288116455078125"><ele></ele><time>2016-7-29T0:57:26Z</time></trkpt>
<trkpt lat="46.5144543349742889404296875" lon="7.06793381832540035247802734375"><ele></ele><time>2016-7-29T0:57:29Z</time></trkpt>
<trkpt lat="46.5141205675899982452392578125" lon="7.06764900125563144683837890625"><ele></ele><time>2016-7-29T0:57:32Z</time></trkpt>
<trkpt lat="46.5138426236808300018310546875" lon="7.06743509508669376373291015625"><ele></ele><time>2016-7-29T0:57:35Z</time></trkpt>
<trkpt lat="46.51375251822173595428466796875" lon="7.067384384572505950927734375"><ele></ele><time>2016-7-29T0:57:38Z</time></trkpt>
<trkpt lat="46.5137356705963611602783203125" lon="7.0673791877925395965576171875"><ele></ele><time>2016-7-29T0:57:41Z</time></trkpt>
<trkpt lat="46.51364455930888652801513671875" lon="7.06735446117818355560302734375"><ele></ele><time>2016-7-29T0:57:44Z</time></trkpt>
<trkpt lat="46.51351782493293285369873046875" lon="7.06734742037951946258544921875"><ele></ele><time>2016-7-29T0:57:47Z</time></trkpt>
<trkpt lat="46.5133705548942089080810546875" lon="7.0672946982085704803466796875"><ele></ele><time>2016-7-29T0:57:50Z</time></trkpt>
<trkpt lat="46.5132186748087406158447265625" lon="7.06722135655581951141357421875"><ele></ele><time>2016-7-29T0:57:53Z</time></trkpt>
<trkpt lat="46.51305799372494220733642578125" lon="7.06711758859455585479736328125"><ele></ele><time>2016-7-29T0:57:56Z</time></trkpt>
<trkpt lat="46.51285565458238124847412109375" lon="7.06699454225599765777587890625"><ele></ele><time>2016-7-29T0:57:59Z</time></trkpt>
<trkpt lat="46.51268851943314075469970703125" lon="7.06681751646101474761962890625"><ele></ele><time>2016-7-29T0:58:2Z</time></trkpt>
<trkpt lat="46.5124559216201305389404296875" lon="7.0666063763201236724853515625"><ele></ele><time>2016-7-29T0:58:5Z</time></trkpt>
<trkpt lat="46.51222567074000835418701171875" lon="7.06646346487104892730712890625"><ele></ele><time>2016-7-29T0:58:8Z</time></trkpt>
<trkpt lat="46.5119992755353450775146484375" lon="7.0664149336516857147216796875"><ele></ele><time>2016-7-29T0:58:11Z</time></trkpt>
<trkpt lat="46.51181210763752460479736328125" lon="7.06637864001095294952392578125"><ele></ele><time>2016-7-29T0:58:14Z</time></trkpt>
<trkpt lat="46.51164983399212360382080078125" lon="7.0662858523428440093994140625"><ele></ele><time>2016-7-29T0:58:17Z</time></trkpt>
<trkpt lat="46.51146576739847660064697265625" lon="7.06608728505671024322509765625"><ele></ele><time>2016-7-29T0:58:20Z</time></trkpt>
<trkpt lat="46.51129209436476230621337890625" lon="7.0659792423248291015625"><ele></ele><time>2016-7-29T0:58:23Z</time></trkpt>
<trkpt lat="46.5111242048442363739013671875" lon="7.06587153486907482147216796875"><ele></ele><time>2016-7-29T0:58:26Z</time></trkpt>
<trkpt lat="46.5109793655574321746826171875" lon="7.06578536890447139739990234375"><ele></ele><time>2016-7-29T0:58:29Z</time></trkpt>
<trkpt lat="46.510834358632564544677734375" lon="7.0657217502593994140625"><ele></ele><time>2016-7-29T0:58:32Z</time></trkpt>
<trkpt lat="46.5108164213597774505615234375" lon="7.0657108537852764129638671875"><ele></ele><time>2016-7-29T0:58:35Z</time></trkpt>
<trkpt lat="46.51067066006362438201904296875" lon="7.065623514354228973388671875"><ele></ele><time>2016-7-29T0:58:38Z</time></trkpt>
<trkpt lat="46.5103963203728199005126953125" lon="7.06549233756959438323974609375"><ele></ele><time>2016-7-29T0:58:41Z</time></trkpt>
<trkpt lat="46.510214097797870635986328125" lon="7.06541924737393856048583984375"><ele></ele><time>2016-7-29T0:58:44Z</time></trkpt>
<trkpt lat="46.5100355632603168487548828125" lon="7.065361998975276947021484375"><ele></ele><time>2016-7-29T0:58:47Z</time></trkpt>
<trkpt lat="46.50992517359554767608642578125" lon="7.06533526070415973663330078125"><ele></ele><time>2016-7-29T0:58:50Z</time></trkpt>
<trkpt lat="46.50979936122894287109375" lon="7.06529184244573116302490234375"><ele></ele><time>2016-7-29T0:58:53Z</time></trkpt>
<trkpt lat="46.50961521081626415252685546875" lon="7.06524725072085857391357421875"><ele></ele><time>2016-7-29T0:58:56Z</time></trkpt>
<trkpt lat="46.50940616615116596221923828125" lon="7.06519260071218013763427734375"><ele></ele><time>2016-7-29T0:58:59Z</time></trkpt>
<trkpt lat="46.50910659693181514739990234375" lon="7.06509956158697605133056640625"><ele></ele><time>2016-7-29T0:59:2Z</time></trkpt>
<trkpt lat="46.5088163316249847412109375" lon="7.06495187245309352874755859375"><ele></ele><time>2016-7-29T0:59:5Z</time></trkpt>
<trkpt lat="46.5087393857538700103759765625" lon="7.06489940173923969268798828125"><ele></ele><time>2016-7-29T0:59:8Z</time></trkpt>
<trkpt lat="46.50858976878225803375244140625" lon="7.06474886275827884674072265625"><ele></ele><time>2016-7-29T0:59:11Z</time></trkpt>
<trkpt lat="46.50828994810581207275390625" lon="7.0644227229058742523193359375"><ele></ele><time>2016-7-29T0:59:14Z</time></trkpt>
<trkpt lat="46.50794939137995243072509765625" lon="7.06415559165179729461669921875"><ele></ele><time>2016-7-29T0:59:17Z</time></trkpt>
<trkpt lat="46.5076252631843090057373046875" lon="7.06389357335865497589111328125"><ele></ele><time>2016-7-29T0:59:20Z</time></trkpt>
<trkpt lat="46.507347486913204193115234375" lon="7.06371654756367206573486328125"><ele></ele><time>2016-7-29T0:59:23Z</time></trkpt>
<trkpt lat="46.507022939622402191162109375" lon="7.06354019232094287872314453125"><ele></ele><time>2016-7-29T0:59:26Z</time></trkpt>
<trkpt lat="46.50660216808319091796875" lon="7.06334288232028484344482421875"><ele></ele><time>2016-7-29T0:59:29Z</time></trkpt>
<trkpt lat="46.50602339766919612884521484375" lon="7.06306007690727710723876953125"><ele></ele><time>2016-7-29T0:59:32Z</time></trkpt>
<trkpt lat="46.5056642331182956695556640625" lon="7.0627879165112972259521484375"><ele></ele><time>2016-7-29T0:59:35Z</time></trkpt>
<trkpt lat="46.505547054111957550048828125" lon="7.06263947300612926483154296875"><ele></ele><time>2016-7-29T0:59:38Z</time></trkpt>
<trkpt lat="46.5054499916732311248779296875" lon="7.06250083632767200469970703125"><ele></ele><time>2016-7-29T0:59:41Z</time></trkpt>
<trkpt lat="46.50531110353767871856689453125" lon="7.06235448829829692840576171875"><ele></ele><time>2016-7-29T0:59:44Z</time></trkpt>
<trkpt lat="46.5052474848926067352294921875" lon="7.062352560460567474365234375"><ele></ele><time>2016-7-29T0:59:47Z</time></trkpt>
<trkpt lat="46.50506568141281604766845703125" lon="7.0623175241053104400634765625"><ele></ele><time>2016-7-29T0:59:50Z</time></trkpt>
<trkpt lat="46.50499661453068256378173828125" lon="7.0622762851417064666748046875"><ele></ele><time>2016-7-29T0:59:53Z</time></trkpt>
<trkpt lat="46.50487004779279232025146484375" lon="7.06208190880715847015380859375"><ele></ele><time>2016-7-29T0:59:56Z</time></trkpt>
<trkpt lat="46.50479980744421482086181640625" lon="7.06179910339415073394775390625"><ele></ele><time>2016-7-29T0:59:59Z</time></trkpt>
<trkpt lat="46.504814140498638153076171875" lon="7.0616580359637737274169921875"><ele></ele><time>2016-7-29T1:0:2Z</time></trkpt>
<trkpt lat="46.50481112301349639892578125" lon="7.06145142205059528350830078125"><ele></ele><time>2016-7-29T1:0:5Z</time></trkpt>
<trkpt lat="46.50484330952167510986328125" lon="7.0610578916966915130615234375"><ele></ele><time>2016-7-29T1:0:8Z</time></trkpt>
<trkpt lat="46.50484188459813594818115234375" lon="7.06100198440253734588623046875"><ele></ele><time>2016-7-29T1:0:11Z</time></trkpt>
<trkpt lat="46.504812799394130706787109375" lon="7.06084876321256160736083984375"><ele></ele><time>2016-7-29T1:0:14Z</time></trkpt>
<trkpt lat="46.50479930453002452850341796875" lon="7.06077667884528636932373046875"><ele></ele><time>2016-7-29T1:0:17Z</time></trkpt>
<trkpt lat="46.504754461348056793212890625" lon="7.0605482719838619232177734375"><ele></ele><time>2016-7-29T1:0:20Z</time></trkpt>
<trkpt lat="46.5046884119510650634765625" lon="7.060246355831623077392578125"><ele></ele><time>2016-7-29T1:0:23Z</time></trkpt>
<trkpt lat="46.5045983903110027313232421875" lon="7.05995223484933376312255859375"><ele></ele><time>2016-7-29T1:0:26Z</time></trkpt>
<trkpt lat="46.504435278475284576416015625" lon="7.05960170365869998931884765625"><ele></ele><time>2016-7-29T1:0:29Z</time></trkpt>
<trkpt lat="46.50425858795642852783203125" lon="7.05925502814352512359619140625"><ele></ele><time>2016-7-29T1:0:32Z</time></trkpt>
<trkpt lat="46.50412506423890590667724609375" lon="7.0588695444166660308837890625"><ele></ele><time>2016-7-29T1:0:35Z</time></trkpt>
<trkpt lat="46.5041075460612773895263671875" lon="7.05882914364337921142578125"><ele></ele><time>2016-7-29T1:0:38Z</time></trkpt>
<trkpt lat="46.50396044366061687469482421875" lon="7.05850082449615001678466796875"><ele></ele><time>2016-7-29T1:0:41Z</time></trkpt>
<trkpt lat="46.50374921970069408416748046875" lon="7.05823260359466075897216796875"><ele></ele><time>2016-7-29T1:0:44Z</time></trkpt>
<trkpt lat="46.5036143548786640167236328125" lon="7.05812732689082622528076171875"><ele></ele><time>2016-7-29T1:0:47Z</time></trkpt>
<trkpt lat="46.50341059081256389617919921875" lon="7.05796639434993267059326171875"><ele></ele><time>2016-7-29T1:0:50Z</time></trkpt>
<trkpt lat="46.50321931578218936920166015625" lon="7.05775952897965908050537109375"><ele></ele><time>2016-7-29T1:0:53Z</time></trkpt>
<trkpt lat="46.5030004642903804779052734375" lon="7.05746398307383060455322265625"><ele></ele><time>2016-7-29T1:0:56Z</time></trkpt>
<trkpt lat="46.50281153619289398193359375" lon="7.05721017904579639434814453125"><ele></ele><time>2016-7-29T1:0:59Z</time></trkpt>
<trkpt lat="46.502555049955844879150390625" lon="7.05695318989455699920654296875"><ele></ele><time>2016-7-29T1:1:2Z</time></trkpt>
<trkpt lat="46.50230233557522296905517578125" lon="7.05675780773162841796875"><ele></ele><time>2016-7-29T1:1:5Z</time></trkpt>
<trkpt lat="46.502134613692760467529296875" lon="7.0566748268902301788330078125"><ele></ele><time>2016-7-29T1:1:8Z</time></trkpt>
<trkpt lat="46.50191660039126873016357421875" lon="7.05649335868656635284423828125"><ele></ele><time>2016-7-29T1:1:11Z</time></trkpt>
<trkpt lat="46.50171409361064434051513671875" lon="7.0562895946204662322998046875"><ele></ele><time>2016-7-29T1:1:14Z</time></trkpt>
<trkpt lat="46.5015282668173313140869140625" lon="7.05608834512531757354736328125"><ele></ele><time>2016-7-29T1:1:17Z</time></trkpt>
<trkpt lat="46.5013214014470577239990234375" lon="7.05585516057908535003662109375"><ele></ele><time>2016-7-29T1:1:20Z</time></trkpt>
<trkpt lat="46.5010379254817962646484375" lon="7.055613510310649871826171875"><ele></ele><time>2016-7-29T1:1:23Z</time></trkpt>
<trkpt lat="46.50053777731955051422119140625" lon="7.05527999438345432281494140625"><ele></ele><time>2016-7-29T1:1:26Z</time></trkpt>
<trkpt lat="46.500149779021739959716796875" lon="7.05502334050834178924560546875"><ele></ele><time>2016-7-29T1:1:29Z</time></trkpt>
<trkpt lat="46.500106193125247955322265625" lon="7.05500506795942783355712890625"><ele></ele><time>2016-7-29T1:1:32Z</time></trkpt>
<trkpt lat="46.49990578182041645050048828125" lon="7.05495276488363742828369140625"><ele></ele><time>2016-7-29T1:1:35Z</time></trkpt>
<trkpt lat="46.49943337775766849517822265625" lon="7.054878585040569305419921875"><ele></ele><time>2016-7-29T1:1:38Z</time></trkpt>
<trkpt lat="46.49896633811295032501220703125" lon="7.0548950135707855224609375"><ele></ele><time>2016-7-29T1:1:41Z</time></trkpt>
<trkpt lat="46.4988497458398342132568359375" lon="7.05494874157011508941650390625"><ele></ele><time>2016-7-29T1:1:44Z</time></trkpt>
<trkpt lat="46.49880674667656421661376953125" lon="7.05504865385591983795166015625"><ele></ele><time>2016-7-29T1:1:47Z</time></trkpt>
<trkpt lat="46.49879132397472858428955078125" lon="7.05530027858912944793701171875"><ele></ele><time>2016-7-29T1:1:50Z</time></trkpt>
<trkpt lat="46.49880154989659786224365234375" lon="7.0553729496896266937255859375"><ele></ele><time>2016-7-29T1:1:53Z</time></trkpt>
<trkpt lat="46.49880523793399333953857421875" lon="7.05563287250697612762451171875"><ele></ele><time>2016-7-29T1:1:56Z</time></trkpt>
<trkpt lat="46.49883926846086978912353515625" lon="7.0559114031493663787841796875"><ele></ele><time>2016-7-29T1:1:59Z</time></trkpt>
<trkpt lat="46.4988480694591999053955078125" lon="7.05610075034201145172119140625"><ele></ele><time>2016-7-29T1:2:2Z</time></trkpt>
<trkpt lat="46.49883792735636234283447265625" lon="7.0563033409416675567626953125"><ele></ele><time>2016-7-29T1:2:5Z</time></trkpt>
<trkpt lat="46.49879157543182373046875" lon="7.05645748414099216461181640625"><ele></ele><time>2016-7-29T1:2:8Z</time></trkpt>
<trkpt lat="46.4986227639019489288330078125" lon="7.0565189234912395477294921875"><ele></ele><time>2016-7-29T1:2:11Z</time></trkpt>
<trkpt lat="46.4985536970198154449462890625" lon="7.056324966251850128173828125"><ele></ele><time>2016-7-29T1:2:14Z</time></trkpt>
<trkpt lat="46.4984306506812572479248046875" lon="7.05621809698641300201416015625"><ele></ele><time>2016-7-29T1:2:17Z</time></trkpt>
<trkpt lat="46.49826259352266788482666015625" lon="7.056188173592090606689453125"><ele></ele><time>2016-7-29T1:2:20Z</time></trkpt>
<trkpt lat="46.4981087855994701385498046875" lon="7.05610561184585094451904296875"><ele></ele><time>2016-7-29T1:2:23Z</time></trkpt>
<trkpt lat="46.49800778366625308990478515625" lon="7.05597921274602413177490234375"><ele></ele><time>2016-7-29T1:2:26Z</time></trkpt>
<trkpt lat="46.49787719361484050750732421875" lon="7.05578592605888843536376953125"><ele></ele><time>2016-7-29T1:2:29Z</time></trkpt>
<trkpt lat="46.49764702655375003814697265625" lon="7.05557269044220447540283203125"><ele></ele><time>2016-7-29T1:2:32Z</time></trkpt>
<trkpt lat="46.49756454862654209136962890625" lon="7.0555184595286846160888671875"><ele></ele><time>2016-7-29T1:2:35Z</time></trkpt>
<trkpt lat="46.4973943121731281280517578125" lon="7.055341266095638275146484375"><ele></ele><time>2016-7-29T1:2:38Z</time></trkpt>
<trkpt lat="46.4973557554185390472412109375" lon="7.05529843457043170928955078125"><ele></ele><time>2016-7-29T1:2:41Z</time></trkpt>
<trkpt lat="46.4971807412803173065185546875" lon="7.05514336936175823211669921875"><ele></ele><time>2016-7-29T1:2:44Z</time></trkpt>
<trkpt lat="46.49679643101990222930908203125" lon="7.05478579737246036529541015625"><ele></ele><time>2016-7-29T1:2:47Z</time></trkpt>
<trkpt lat="46.49647909216582775115966796875" lon="7.0546165667474269866943359375"><ele></ele><time>2016-7-29T1:2:50Z</time></trkpt>
<trkpt lat="46.4962976239621639251708984375" lon="7.05460323952138423919677734375"><ele></ele><time>2016-7-29T1:2:53Z</time></trkpt>
<trkpt lat="46.49617617018520832061767578125" lon="7.05464263446629047393798828125"><ele></ele><time>2016-7-29T1:2:56Z</time></trkpt>
<trkpt lat="46.49576227180659770965576171875" lon="7.05469996668398380279541015625"><ele></ele><time>2016-7-29T1:2:59Z</time></trkpt>
<trkpt lat="46.49531736038625240325927734375" lon="7.054673396050930023193359375"><ele></ele><time>2016-7-29T1:3:2Z</time></trkpt>
<trkpt lat="46.49496649391949176788330078125" lon="7.05455303192138671875"><ele></ele><time>2016-7-29T1:3:5Z</time></trkpt>
<trkpt lat="46.49455946870148181915283203125" lon="7.05439670942723751068115234375"><ele></ele><time>2016-7-29T1:3:8Z</time></trkpt>
<trkpt lat="46.494501046836376190185546875" lon="7.05434574745595455169677734375"><ele></ele><time>2016-7-29T1:3:11Z</time></trkpt>
<trkpt lat="46.49434589780867099761962890625" lon="7.0541535504162311553955078125"><ele></ele><time>2016-7-29T1:3:14Z</time></trkpt>
<trkpt lat="46.494295857846736907958984375" lon="7.0541046001017093658447265625"><ele></ele><time>2016-7-29T1:3:17Z</time></trkpt>
<trkpt lat="46.49424715898931026458740234375" lon="7.0540683902800083160400390625"><ele></ele><time>2016-7-29T1:3:20Z</time></trkpt>
<trkpt lat="46.494128219783306121826171875" lon="7.054018266499042510986328125"><ele></ele><time>2016-7-29T1:3:23Z</time></trkpt>
<trkpt lat="46.49395379237830638885498046875" lon="7.05396504141390323638916015625"><ele></ele><time>2016-7-29T1:3:26Z</time></trkpt>
<trkpt lat="46.49376176297664642333984375" lon="7.0539133250713348388671875"><ele></ele><time>2016-7-29T1:3:29Z</time></trkpt>
<trkpt lat="46.49359739385545253753662109375" lon="7.0538462698459625244140625"><ele></ele><time>2016-7-29T1:3:32Z</time></trkpt>
<trkpt lat="46.49336169473826885223388671875" lon="7.05374208278954029083251953125"><ele></ele><time>2016-7-29T1:3:35Z</time></trkpt>
<trkpt lat="46.493213586509227752685546875" lon="7.05367201007902622222900390625"><ele></ele><time>2016-7-29T1:3:38Z</time></trkpt>
<trkpt lat="46.49308375082910060882568359375" lon="7.05358684994280338287353515625"><ele></ele><time>2016-7-29T1:3:41Z</time></trkpt>
<trkpt lat="46.492910496890544891357421875" lon="7.0534454472362995147705078125"><ele></ele><time>2016-7-29T1:3:44Z</time></trkpt>
<trkpt lat="46.49276398122310638427734375" lon="7.05329264514148235321044921875"><ele></ele><time>2016-7-29T1:3:47Z</time></trkpt>
<trkpt lat="46.49257220327854156494140625" lon="7.05325593240559101104736328125"><ele></ele><time>2016-7-29T1:3:50Z</time></trkpt>
<trkpt lat="46.49229216389358043670654296875" lon="7.05322760157287120819091796875"><ele></ele><time>2016-7-29T1:3:53Z</time></trkpt>
<trkpt lat="46.49203048087656497955322265625" lon="7.05317504703998565673828125"><ele></ele><time>2016-7-29T1:3:56Z</time></trkpt>
<trkpt lat="46.4917371980845928192138671875" lon="7.05308611504733562469482421875"><ele></ele><time>2016-7-29T1:3:59Z</time></trkpt>
<trkpt lat="46.49156729690730571746826171875" lon="7.052988968789577484130859375"><ele></ele><time>2016-7-29T1:4:2Z</time></trkpt>
<trkpt lat="46.49138725362718105316162109375" lon="7.052844129502773284912109375"><ele></ele><time>2016-7-29T1:4:5Z</time></trkpt>
<trkpt lat="46.49119757115840911865234375" lon="7.05268529243767261505126953125"><ele></ele><time>2016-7-29T1:4:8Z</time></trkpt>
<trkpt lat="46.491091288626194000244140625" lon="7.05253927968442440032958984375"><ele></ele><time>2016-7-29T1:4:11Z</time></trkpt>
<trkpt lat="46.49095206521451473236083984375" lon="7.052309028804302215576171875"><ele></ele><time>2016-7-29T1:4:14Z</time></trkpt>
<trkpt lat="46.4908213913440704345703125" lon="7.05206855200231075286865234375"><ele></ele><time>2016-7-29T1:4:17Z</time></trkpt>
<trkpt lat="46.49063204415142536163330078125" lon="7.05179865472018718719482421875"><ele></ele><time>2016-7-29T1:4:20Z</time></trkpt>
<trkpt lat="46.49056591093540191650390625" lon="7.05169656313955783843994140625"><ele></ele><time>2016-7-29T1:4:23Z</time></trkpt>
<trkpt lat="46.490464992821216583251953125" lon="7.05150344409048557281494140625"><ele></ele><time>2016-7-29T1:4:26Z</time></trkpt>
<trkpt lat="46.49033549241721630096435546875" lon="7.05132524482905864715576171875"><ele></ele><time>2016-7-29T1:4:29Z</time></trkpt>
<trkpt lat="46.4901664294302463531494140625" lon="7.05115928314626216888427734375"><ele></ele><time>2016-7-29T1:4:32Z</time></trkpt>
<trkpt lat="46.49001748301088809967041015625" lon="7.05099734477698802947998046875"><ele></ele><time>2016-7-29T1:4:35Z</time></trkpt>
<trkpt lat="46.4898589812219142913818359375" lon="7.050768435001373291015625"><ele></ele><time>2016-7-29T1:4:38Z</time></trkpt>
<trkpt lat="46.48975051939487457275390625" lon="7.05053835175931453704833984375"><ele></ele><time>2016-7-29T1:4:41Z</time></trkpt>
<trkpt lat="46.48961783386766910552978515625" lon="7.0503196679055690765380859375"><ele></ele><time>2016-7-29T1:4:44Z</time></trkpt>
<trkpt lat="46.48952747695147991180419921875" lon="7.050201483070850372314453125"><ele></ele><time>2016-7-29T1:4:47Z</time></trkpt>
<trkpt lat="46.4894241280853748321533203125" lon="7.05008111894130706787109375"><ele></ele><time>2016-7-29T1:4:50Z</time></trkpt>
<trkpt lat="46.48922841064631938934326171875" lon="7.0499404706060886383056640625"><ele></ele><time>2016-7-29T1:4:53Z</time></trkpt>
<trkpt lat="46.48909497074782848358154296875" lon="7.04985313117504119873046875"><ele></ele><time>2016-7-29T1:4:56Z</time></trkpt>
<trkpt lat="46.4889829047024250030517578125" lon="7.04980694688856601715087890625"><ele></ele><time>2016-7-29T1:4:59Z</time></trkpt>
<trkpt lat="46.48891308344900608062744140625" lon="7.0497292466461658477783203125"><ele></ele><time>2016-7-29T1:5:2Z</time></trkpt>
<trkpt lat="46.48888978175818920135498046875" lon="7.0496876724064350128173828125"><ele></ele><time>2016-7-29T1:5:5Z</time></trkpt>
<trkpt lat="46.48884032852947711944580078125" lon="7.0496068708598613739013671875"><ele></ele><time>2016-7-29T1:5:8Z</time></trkpt>
<trkpt lat="46.488711833953857421875" lon="7.04943068325519561767578125"><ele></ele><time>2016-7-29T1:5:11Z</time></trkpt>
<trkpt lat="46.48858216591179370880126953125" lon="7.04926908016204833984375"><ele></ele><time>2016-7-29T1:5:14Z</time></trkpt>
<trkpt lat="46.48843732662498950958251953125" lon="7.04907638020813465118408203125"><ele></ele><time>2016-7-29T1:5:17Z</time></trkpt>
<trkpt lat="46.48815401829779148101806640625" lon="7.04875820316374301910400390625"><ele></ele><time>2016-7-29T1:5:20Z</time></trkpt>
<trkpt lat="46.48805628530681133270263671875" lon="7.04861721955239772796630859375"><ele></ele><time>2016-7-29T1:5:23Z</time></trkpt>
<trkpt lat="46.48799945600330829620361328125" lon="7.04854245297610759735107421875"><ele></ele><time>2016-7-29T1:5:26Z</time></trkpt>
<trkpt lat="46.4878738112747669219970703125" lon="7.04838369973003864288330078125"><ele></ele><time>2016-7-29T1:5:29Z</time></trkpt>
<trkpt lat="46.487857215106487274169921875" lon="7.0483442209661006927490234375"><ele></ele><time>2016-7-29T1:5:32Z</time></trkpt>
<trkpt lat="46.487798206508159637451171875" lon="7.04811246134340763092041015625"><ele></ele><time>2016-7-29T1:5:35Z</time></trkpt>
<trkpt lat="46.48767583072185516357421875" lon="7.0477831363677978515625"><ele></ele><time>2016-7-29T1:5:38Z</time></trkpt>
<trkpt lat="46.48765194229781627655029296875" lon="7.047501504421234130859375"><ele></ele><time>2016-7-29T1:5:41Z</time></trkpt>
<trkpt lat="46.48762889206409454345703125" lon="7.0471992529928684234619140625"><ele></ele><time>2016-7-29T1:5:44Z</time></trkpt>
<trkpt lat="46.48764003999531269073486328125" lon="7.04679943621158599853515625"><ele></ele><time>2016-7-29T1:5:47Z</time></trkpt>
<trkpt lat="46.4877393655478954315185546875" lon="7.04658058471977710723876953125"><ele></ele><time>2016-7-29T1:5:50Z</time></trkpt>
<trkpt lat="46.4879621565341949462890625" lon="7.0463245175778865814208984375"><ele></ele><time>2016-7-29T1:5:53Z</time></trkpt>
<trkpt lat="46.4881467260420322418212890625" lon="7.0461310632526874542236328125"><ele></ele><time>2016-7-29T1:5:56Z</time></trkpt>
<trkpt lat="46.48823909461498260498046875" lon="7.045936770737171173095703125"><ele></ele><time>2016-7-29T1:5:59Z</time></trkpt>
<trkpt lat="46.48826750926673412322998046875" lon="7.04571573995053768157958984375"><ele></ele><time>2016-7-29T1:6:2Z</time></trkpt>
<trkpt lat="46.488287709653377532958984375" lon="7.045418433845043182373046875"><ele></ele><time>2016-7-29T1:6:5Z</time></trkpt>
<trkpt lat="46.4883053116500377655029296875" lon="7.0451403222978115081787109375"><ele></ele><time>2016-7-29T1:6:8Z</time></trkpt>
<trkpt lat="46.48828041739761829376220703125" lon="7.04491116106510162353515625"><ele></ele><time>2016-7-29T1:6:11Z</time></trkpt>
<trkpt lat="46.48823247291147708892822265625" lon="7.0448211394250392913818359375"><ele></ele><time>2016-7-29T1:6:14Z</time></trkpt>
<trkpt lat="46.48820967413485050201416015625" lon="7.04482222907245159149169921875"><ele></ele><time>2016-7-29T1:6:17Z</time></trkpt>
<trkpt lat="46.488144882023334503173828125" lon="7.0448573492467403411865234375"><ele></ele><time>2016-7-29T1:6:20Z</time></trkpt>
<trkpt lat="46.4880779944360256195068359375" lon="7.04488526098430156707763671875"><ele></ele><time>2016-7-29T1:6:23Z</time></trkpt>
<trkpt lat="46.48787305690348148345947265625" lon="7.044974863529205322265625"><ele></ele><time>2016-7-29T1:6:26Z</time></trkpt>
<trkpt lat="46.4877368509769439697265625" lon="7.04502088017761707305908203125"><ele></ele><time>2016-7-29T1:6:29Z</time></trkpt>
<trkpt lat="46.48763299919664859771728515625" lon="7.04496614634990692138671875"><ele></ele><time>2016-7-29T1:6:32Z</time></trkpt>
<trkpt lat="46.48750257678329944610595703125" lon="7.0448219776153564453125"><ele></ele><time>2016-7-29T1:6:35Z</time></trkpt>
<trkpt lat="46.4873470924794673919677734375" lon="7.044598348438739776611328125"><ele></ele><time>2016-7-29T1:6:38Z</time></trkpt>
<trkpt lat="46.48720082826912403106689453125" lon="7.04435527324676513671875"><ele></ele><time>2016-7-29T1:6:41Z</time></trkpt>
<trkpt lat="46.48699228651821613311767578125" lon="7.04404019750654697418212890625"><ele></ele><time>2016-7-29T1:6:44Z</time></trkpt>
<trkpt lat="46.48680671118199825286865234375" lon="7.043768204748630523681640625"><ele></ele><time>2016-7-29T1:6:47Z</time></trkpt>
<trkpt lat="46.48662130348384380340576171875" lon="7.04354499466717243194580078125"><ele></ele><time>2016-7-29T1:6:50Z</time></trkpt>
<trkpt lat="46.48659355938434600830078125" lon="7.043461762368679046630859375"><ele></ele><time>2016-7-29T1:6:53Z</time></trkpt>
<trkpt lat="46.48662080056965351104736328125" lon="7.043378613889217376708984375"><ele></ele><time>2016-7-29T1:6:56Z</time></trkpt>
<trkpt lat="46.48664225824177265167236328125" lon="7.04318675212562084197998046875"><ele></ele><time>2016-7-29T1:6:59Z</time></trkpt>
<trkpt lat="46.4866249077022075653076171875" lon="7.04314819537103176116943359375"><ele></ele><time>2016-7-29T1:7:2Z</time></trkpt>
<trkpt lat="46.48653865791857242584228515625" lon="7.04305800609290599822998046875"><ele></ele><time>2016-7-29T1:7:5Z</time></trkpt>
<trkpt lat="46.486202292144298553466796875" lon="7.0427484624087810516357421875"><ele></ele><time>2016-7-29T1:7:8Z</time></trkpt>
<trkpt lat="46.4859372563660144805908203125" lon="7.04250329174101352691650390625"><ele></ele><time>2016-7-29T1:7:11Z</time></trkpt>
<trkpt lat="46.48563089780509471893310546875" lon="7.0422197319567203521728515625"><ele></ele><time>2016-7-29T1:7:14Z</time></trkpt>
<trkpt lat="46.4853257127106189727783203125" lon="7.04188168980181217193603515625"><ele></ele><time>2016-7-29T1:7:17Z</time></trkpt>
<trkpt lat="46.48530769161880016326904296875" lon="7.0418331585824489593505859375"><ele></ele><time>2016-7-29T1:7:20Z</time></trkpt>
<trkpt lat="46.485293023288249969482421875" lon="7.041700221598148345947265625"><ele></ele><time>2016-7-29T1:7:23Z</time></trkpt>
<trkpt lat="46.4852895028889179229736328125" lon="7.04163241200149059295654296875"><ele></ele><time>2016-7-29T1:7:26Z</time></trkpt>
<trkpt lat="46.48527667857706546783447265625" lon="7.0415696315467357635498046875"><ele></ele><time>2016-7-29T1:7:29Z</time></trkpt>
<trkpt lat="46.48526276461780071258544921875" lon="7.04152395017445087432861328125"><ele></ele><time>2016-7-29T1:7:32Z</time></trkpt>
<trkpt lat="46.485219933092594146728515625" lon="7.04139411449432373046875"><ele></ele><time>2016-7-29T1:7:35Z</time></trkpt>
<trkpt lat="46.48516586981713771820068359375" lon="7.04124751500785350799560546875"><ele></ele><time>2016-7-29T1:7:38Z</time></trkpt>
<trkpt lat="46.48508607409894466400146484375" lon="7.0410918630659580230712890625"><ele></ele><time>2016-7-29T1:7:41Z</time></trkpt>
<trkpt lat="46.48499772883951663970947265625" lon="7.04094576649367809295654296875"><ele></ele><time>2016-7-29T1:7:44Z</time></trkpt>
<trkpt lat="46.48487702943384647369384765625" lon="7.0407490432262420654296875"><ele></ele><time>2016-7-29T1:7:47Z</time></trkpt>
<trkpt lat="46.48478080518543720245361328125" lon="7.04058417119085788726806640625"><ele></ele><time>2016-7-29T1:7:50Z</time></trkpt>
<trkpt lat="46.48468122817575931549072265625" lon="7.04041737131774425506591796875"><ele></ele><time>2016-7-29T1:7:53Z</time></trkpt>
<trkpt lat="46.48458366282284259796142578125" lon="7.0402447879314422607421875"><ele></ele><time>2016-7-29T1:7:56Z</time></trkpt>
<trkpt lat="46.484466232359409332275390625" lon="7.04005711711943149566650390625"><ele></ele><time>2016-7-29T1:7:59Z</time></trkpt>
<trkpt lat="46.4843859337270259857177734375" lon="7.03993222676217555999755859375"><ele></ele><time>2016-7-29T1:8:2Z</time></trkpt>
<trkpt lat="46.48427302949130535125732421875" lon="7.03976333141326904296875"><ele></ele><time>2016-7-29T1:8:5Z</time></trkpt>
<trkpt lat="46.48417965508997440338134765625" lon="7.0396072603762149810791015625"><ele></ele><time>2016-7-29T1:8:8Z</time></trkpt>
<trkpt lat="46.48406398482620716094970703125" lon="7.039441801607608795166015625"><ele></ele><time>2016-7-29T1:8:11Z</time></trkpt>
<trkpt lat="46.48397815413773059844970703125" lon="7.03930056653916835784912109375"><ele></ele><time>2016-7-29T1:8:14Z</time></trkpt>
<trkpt lat="46.48390372283756732940673828125" lon="7.03912965953350067138671875"><ele></ele><time>2016-7-29T1:8:17Z</time></trkpt>
<trkpt lat="46.4838669262826442718505859375" lon="7.03894458711147308349609375"><ele></ele><time>2016-7-29T1:8:20Z</time></trkpt>
<trkpt lat="46.48384655825793743133544921875" lon="7.03871517442166805267333984375"><ele></ele><time>2016-7-29T1:8:23Z</time></trkpt>
<trkpt lat="46.48382292129099369049072265625" lon="7.03858592547476291656494140625"><ele></ele><time>2016-7-29T1:8:26Z</time></trkpt>
<trkpt lat="46.48372803814709186553955078125" lon="7.03836548142135143280029296875"><ele></ele><time>2016-7-29T1:8:29Z</time></trkpt>
<trkpt lat="46.48365830071270465850830078125" lon="7.03816196881234645843505859375"><ele></ele><time>2016-7-29T1:8:32Z</time></trkpt>
<trkpt lat="46.48359560407698154449462890625" lon="7.0380264334380626678466796875"><ele></ele><time>2016-7-29T1:8:35Z</time></trkpt>
<trkpt lat="46.4835373498499393463134765625" lon="7.037833817303180694580078125"><ele></ele><time>2016-7-29T1:8:38Z</time></trkpt>
<trkpt lat="46.4834587275981903076171875" lon="7.0377015508711338043212890625"><ele></ele><time>2016-7-29T1:8:41Z</time></trkpt>
<trkpt lat="46.48333760909736156463623046875" lon="7.03752947039902210235595703125"><ele></ele><time>2016-7-29T1:8:44Z</time></trkpt>
<trkpt lat="46.48322864435613155364990234375" lon="7.0373595692217350006103515625"><ele></ele><time>2016-7-29T1:8:47Z</time></trkpt>
<trkpt lat="46.483157984912395477294921875" lon="7.0372552983462810516357421875"><ele></ele><time>2016-7-29T1:8:50Z</time></trkpt>
<trkpt lat="46.48306167684495449066162109375" lon="7.03716401942074298858642578125"><ele></ele><time>2016-7-29T1:8:53Z</time></trkpt>
<trkpt lat="46.482929997146129608154296875" lon="7.0370517857372760772705078125"><ele></ele><time>2016-7-29T1:8:56Z</time></trkpt>
<trkpt lat="46.48280401714146137237548828125" lon="7.0369270630180835723876953125"><ele></ele><time>2016-7-29T1:8:59Z</time></trkpt>
<trkpt lat="46.48267996497452259063720703125" lon="7.036810219287872314453125"><ele></ele><time>2016-7-29T1:9:2Z</time></trkpt>
<trkpt lat="46.48264559917151927947998046875" lon="7.03674173913896083831787109375"><ele></ele><time>2016-7-29T1:9:5Z</time></trkpt>
<trkpt lat="46.48265339434146881103515625" lon="7.036697566509246826171875"><ele></ele><time>2016-7-29T1:9:8Z</time></trkpt>
<trkpt lat="46.48272170685231685638427734375" lon="7.03662875108420848846435546875"><ele></ele><time>2016-7-29T1:9:11Z</time></trkpt>
<trkpt lat="46.48277007043361663818359375" lon="7.0366518013179302215576171875"><ele></ele><time>2016-7-29T1:9:14Z</time></trkpt>
<trkpt lat="46.48279731161892414093017578125" lon="7.0366746000945568084716796875"><ele></ele><time>2016-7-29T1:9:17Z</time></trkpt>
<trkpt lat="46.48291700519621372222900390625" lon="7.03682161867618560791015625"><ele></ele><time>2016-7-29T1:9:20Z</time></trkpt>
<trkpt lat="46.48301322944462299346923828125" lon="7.0369330979883670806884765625"><ele></ele><time>2016-7-29T1:9:23Z</time></trkpt>
<trkpt lat="46.4831591583788394927978515625" lon="7.03702001832425594329833984375"><ele></ele><time>2016-7-29T1:9:26Z</time></trkpt>
<trkpt lat="46.4832805283367633819580078125" lon="7.037089169025421142578125"><ele></ele><time>2016-7-29T1:9:29Z</time></trkpt>
<trkpt lat="46.48342779837548732757568359375" lon="7.03718296252191066741943359375"><ele></ele><time>2016-7-29T1:9:32Z</time></trkpt>
<trkpt lat="46.4835517667233943939208984375" lon="7.0372663624584674835205078125"><ele></ele><time>2016-7-29T1:9:35Z</time></trkpt>
<trkpt lat="46.48369350470602512359619140625" lon="7.0374034903943538665771484375"><ele></ele><time>2016-7-29T1:9:38Z</time></trkpt>
<trkpt lat="46.4838447980582714080810546875" lon="7.03747599385678768157958984375"><ele></ele><time>2016-7-29T1:9:41Z</time></trkpt>
<trkpt lat="46.4840110950171947479248046875" lon="7.037408016622066497802734375"><ele></ele><time>2016-7-29T1:9:44Z</time></trkpt>
<trkpt lat="46.48415618576109409332275390625" lon="7.03736233524978160858154296875"><ele></ele><time>2016-7-29T1:9:47Z</time></trkpt>
<trkpt lat="46.48431837558746337890625" lon="7.0373672805726528167724609375"><ele></ele><time>2016-7-29T1:9:50Z</time></trkpt>
<trkpt lat="46.4844672381877899169921875" lon="7.03739284537732601165771484375"><ele></ele><time>2016-7-29T1:9:53Z</time></trkpt>
<trkpt lat="46.48458659648895263671875" lon="7.03747867606580257415771484375"><ele></ele><time>2016-7-29T1:9:56Z</time></trkpt>
<trkpt lat="46.484745852649211883544921875" lon="7.03771403990685939788818359375"><ele></ele><time>2016-7-29T1:9:59Z</time></trkpt>
<trkpt lat="46.48485682904720306396484375" lon="7.03790397383272647857666015625"><ele></ele><time>2016-7-29T1:10:2Z</time></trkpt>
<trkpt lat="46.48496973328292369842529296875" lon="7.03809474594891071319580078125"><ele></ele><time>2016-7-29T1:10:5Z</time></trkpt>
<trkpt lat="46.48508590646088123321533203125" lon="7.0382021181285381317138671875"><ele></ele><time>2016-7-29T1:10:8Z</time></trkpt>
<trkpt lat="46.48527701385319232940673828125" lon="7.03827939927577972412109375"><ele></ele><time>2016-7-29T1:10:11Z</time></trkpt>
<trkpt lat="46.485453955829143524169921875" lon="7.0382143557071685791015625"><ele></ele><time>2016-7-29T1:10:14Z</time></trkpt>
<trkpt lat="46.485538445413112640380859375" lon="7.03807077370584011077880859375"><ele></ele><time>2016-7-29T1:10:17Z</time></trkpt>
<trkpt lat="46.4855905808508396148681640625" lon="7.03781344927847385406494140625"><ele></ele><time>2016-7-29T1:10:20Z</time></trkpt>
<trkpt lat="46.4856780879199504852294921875" lon="7.03753240406513214111328125"><ele></ele><time>2016-7-29T1:10:23Z</time></trkpt>
<trkpt lat="46.48578512482345104217529296875" lon="7.03747783787548542022705078125"><ele></ele><time>2016-7-29T1:10:26Z</time></trkpt>
<trkpt lat="46.48592392913997173309326171875" lon="7.03754690475761890411376953125"><ele></ele><time>2016-7-29T1:10:29Z</time></trkpt>
<trkpt lat="46.48609466850757598876953125" lon="7.0375945977866649627685546875"><ele></ele><time>2016-7-29T1:10:32Z</time></trkpt>
<trkpt lat="46.4861994422972202301025390625" lon="7.03763340599834918975830078125"><ele></ele><time>2016-7-29T1:10:35Z</time></trkpt>
<trkpt lat="46.4863918907940387725830078125" lon="7.03768067993223667144775390625"><ele></ele><time>2016-7-29T1:10:38Z</time></trkpt>
<trkpt lat="46.48643388412892818450927734375" lon="7.0376824401319026947021484375"><ele></ele><time>2016-7-29T1:10:41Z</time></trkpt>
<trkpt lat="46.4865752868354320526123046875" lon="7.0376552827656269073486328125"><ele></ele><time>2016-7-29T1:10:44Z</time></trkpt>
<trkpt lat="46.4867586828768253326416015625" lon="7.0375922508537769317626953125"><ele></ele><time>2016-7-29T1:10:47Z</time></trkpt>
<trkpt lat="46.48690645582973957061767578125" lon="7.03750952146947383880615234375"><ele></ele><time>2016-7-29T1:10:50Z</time></trkpt>
<trkpt lat="46.48709638975560665130615234375" lon="7.03745671547949314117431640625"><ele></ele><time>2016-7-29T1:10:53Z</time></trkpt>
<trkpt lat="46.48730560205876827239990234375" lon="7.03740139491856098175048828125"><ele></ele><time>2016-7-29T1:10:56Z</time></trkpt>
<trkpt lat="46.4874379523098468780517578125" lon="7.03726979903876781463623046875"><ele></ele><time>2016-7-29T1:10:59Z</time></trkpt>
<trkpt lat="46.487519256770610809326171875" lon="7.03698867000639438629150390625"><ele></ele><time>2016-7-29T1:11:2Z</time></trkpt>
<trkpt lat="46.48755638860166072845458984375" lon="7.0365669764578342437744140625"><ele></ele><time>2016-7-29T1:11:5Z</time></trkpt>
<trkpt lat="46.4875190891325473785400390625" lon="7.0362035371363162994384765625"><ele></ele><time>2016-7-29T1:11:8Z</time></trkpt>
<trkpt lat="46.48753191344439983367919921875" lon="7.03614193014800548553466796875"><ele></ele><time>2016-7-29T1:11:11Z</time></trkpt>
<trkpt lat="46.4876072667539119720458984375" lon="7.0359963364899158477783203125"><ele></ele><time>2016-7-29T1:11:14Z</time></trkpt>
<trkpt lat="46.4876689575612545013427734375" lon="7.035925425589084625244140625"><ele></ele><time>2016-7-29T1:11:17Z</time></trkpt>
<trkpt lat="46.48770022206008434295654296875" lon="7.03589634038507938385009765625"><ele></ele><time>2016-7-29T1:11:20Z</time></trkpt>
<trkpt lat="46.4877953566610813140869140625" lon="7.035818137228488922119140625"><ele></ele><time>2016-7-29T1:11:23Z</time></trkpt>
<trkpt lat="46.48804656229913234710693359375" lon="7.0356114394962787628173828125"><ele></ele><time>2016-7-29T1:11:26Z</time></trkpt>
<trkpt lat="46.4882851950824260711669921875" lon="7.03545176424086093902587890625"><ele></ele><time>2016-7-29T1:11:29Z</time></trkpt>
<trkpt lat="46.48848946206271648406982421875" lon="7.035213969647884368896484375"><ele></ele><time>2016-7-29T1:11:32Z</time></trkpt>
<trkpt lat="46.48859239183366298675537109375" lon="7.03496276400983333587646484375"><ele></ele><time>2016-7-29T1:11:35Z</time></trkpt>
<trkpt lat="46.48866313509643077850341796875" lon="7.03464576043188571929931640625"><ele></ele><time>2016-7-29T1:11:38Z</time></trkpt>
<trkpt lat="46.48865123279392719268798828125" lon="7.03437745571136474609375"><ele></ele><time>2016-7-29T1:11:41Z</time></trkpt>
<trkpt lat="46.4885953254997730255126953125" lon="7.03404729254543781280517578125"><ele></ele><time>2016-7-29T1:11:44Z</time></trkpt>
<trkpt lat="46.488536484539508819580078125" lon="7.0336591266095638275146484375"><ele></ele><time>2016-7-29T1:11:47Z</time></trkpt>
<trkpt lat="46.48848049342632293701171875" lon="7.03335897065699100494384765625"><ele></ele><time>2016-7-29T1:11:50Z</time></trkpt>
<trkpt lat="46.488421820104122161865234375" lon="7.03306174837052822113037109375"><ele></ele><time>2016-7-29T1:11:53Z</time></trkpt>
<trkpt lat="46.48844403214752674102783203125" lon="7.03280769288539886474609375"><ele></ele><time>2016-7-29T1:11:56Z</time></trkpt>
<trkpt lat="46.4885182119905948638916015625" lon="7.03255514614284038543701171875"><ele></ele><time>2016-7-29T1:11:59Z</time></trkpt>
<trkpt lat="46.48859540931880474090576171875" lon="7.032210566103458404541015625"><ele></ele><time>2016-7-29T1:12:2Z</time></trkpt>
<trkpt lat="46.488625667989253997802734375" lon="7.03188811428844928741455078125"><ele></ele><time>2016-7-29T1:12:5Z</time></trkpt>
<trkpt lat="46.4886493049561977386474609375" lon="7.03142903745174407958984375"><ele></ele><time>2016-7-29T1:12:8Z</time></trkpt>
<trkpt lat="46.48865927942097187042236328125" lon="7.03106048516929149627685546875"><ele></ele><time>2016-7-29T1:12:11Z</time></trkpt>
<trkpt lat="46.48864268325269222259521484375" lon="7.03076812438666820526123046875"><ele></ele><time>2016-7-29T1:12:14Z</time></trkpt>
<trkpt lat="46.4886801503598690032958984375" lon="7.0305088721215724945068359375"><ele></ele><time>2016-7-29T1:12:17Z</time></trkpt>
<trkpt lat="46.48868165910243988037109375" lon="7.03038741834461688995361328125"><ele></ele><time>2016-7-29T1:12:20Z</time></trkpt>
<trkpt lat="46.4886677451431751251220703125" lon="7.0303528010845184326171875"><ele></ele><time>2016-7-29T1:12:23Z</time></trkpt>
<trkpt lat="46.4885544218122959136962890625" lon="7.03019262291491031646728515625"><ele></ele><time>2016-7-29T1:12:26Z</time></trkpt>
<trkpt lat="46.48853279650211334228515625" lon="7.03009790740907192230224609375"><ele></ele><time>2016-7-29T1:12:29Z</time></trkpt>
<trkpt lat="46.48853321559727191925048828125" lon="7.02999615110456943511962890625"><ele></ele><time>2016-7-29T1:12:32Z</time></trkpt>
<trkpt lat="46.48859825916588306427001953125" lon="7.02981032431125640869140625"><ele></ele><time>2016-7-29T1:12:35Z</time></trkpt>
<trkpt lat="46.488680653274059295654296875" lon="7.029590718448162078857421875"><ele></ele><time>2016-7-29T1:12:38Z</time></trkpt>
<trkpt lat="46.48868794552981853485107421875" lon="7.0295576937496662139892578125"><ele></ele><time>2016-7-29T1:12:41Z</time></trkpt>
<trkpt lat="46.488688699901103973388671875" lon="7.02943691052496433258056640625"><ele></ele><time>2016-7-29T1:12:44Z</time></trkpt>
<trkpt lat="46.48863916285336017608642578125" lon="7.02914957888424396514892578125"><ele></ele><time>2016-7-29T1:12:47Z</time></trkpt>
<trkpt lat="46.488547213375568389892578125" lon="7.0288427174091339111328125"><ele></ele><time>2016-7-29T1:12:50Z</time></trkpt>
<trkpt lat="46.4884246699512004852294921875" lon="7.02857893891632556915283203125"><ele></ele><time>2016-7-29T1:12:53Z</time></trkpt>
<trkpt lat="46.48825116455554962158203125" lon="7.0283312536776065826416015625"><ele></ele><time>2016-7-29T1:12:56Z</time></trkpt>
<trkpt lat="46.48805075325071811676025390625" lon="7.02809144742786884307861328125"><ele></ele><time>2016-7-29T1:12:59Z</time></trkpt>
<trkpt lat="46.4879326522350311279296875" lon="7.027899920940399169921875"><ele></ele><time>2016-7-29T1:13:2Z</time></trkpt>
<trkpt lat="46.48778303526341915130615234375" lon="7.02758836559951305389404296875"><ele></ele><time>2016-7-29T1:13:5Z</time></trkpt>
<trkpt lat="46.4876900799572467803955078125" lon="7.027355097234249114990234375"><ele></ele><time>2016-7-29T1:13:8Z</time></trkpt>
<trkpt lat="46.4876464940607547760009765625" lon="7.02726214192807674407958984375"><ele></ele><time>2016-7-29T1:13:11Z</time></trkpt>
<trkpt lat="46.4874855615198612213134765625" lon="7.027067430317401885986328125"><ele></ele><time>2016-7-29T1:13:14Z</time></trkpt>
<trkpt lat="46.4872773550450801849365234375" lon="7.02676777727901935577392578125"><ele></ele><time>2016-7-29T1:13:17Z</time></trkpt>
<trkpt lat="46.48711952380836009979248046875" lon="7.02644423581659793853759765625"><ele></ele><time>2016-7-29T1:13:20Z</time></trkpt>
<trkpt lat="46.48690335452556610107421875" lon="7.02608398161828517913818359375"><ele></ele><time>2016-7-29T1:13:23Z</time></trkpt>
<trkpt lat="46.48666405119001865386962890625" lon="7.0257915370166301727294921875"><ele></ele><time>2016-7-29T1:13:26Z</time></trkpt>
<trkpt lat="46.48648937232792377471923828125" lon="7.0255967415869235992431640625"><ele></ele><time>2016-7-29T1:13:29Z</time></trkpt>
<trkpt lat="46.48634905926883220672607421875" lon="7.02540152706205844879150390625"><ele></ele><time>2016-7-29T1:13:32Z</time></trkpt>
<trkpt lat="46.48620036430656909942626953125" lon="7.0252748765051364898681640625"><ele></ele><time>2016-7-29T1:13:35Z</time></trkpt>
<trkpt lat="46.4860110171139240264892578125" lon="7.0250934921205043792724609375"><ele></ele><time>2016-7-29T1:13:38Z</time></trkpt>
<trkpt lat="46.485824100673198699951171875" lon="7.02488352544605731964111328125"><ele></ele><time>2016-7-29T1:13:41Z</time></trkpt>
<trkpt lat="46.48565034382045269012451171875" lon="7.02466987073421478271484375"><ele></ele><time>2016-7-29T1:13:44Z</time></trkpt>
<trkpt lat="46.485531069338321685791015625" lon="7.02440894208848476409912109375"><ele></ele><time>2016-7-29T1:13:47Z</time></trkpt>
<trkpt lat="46.4853362739086151123046875" lon="7.02411976642906665802001953125"><ele></ele><time>2016-7-29T1:13:50Z</time></trkpt>
<trkpt lat="46.4852355234324932098388671875" lon="7.02389471232891082763671875"><ele></ele><time>2016-7-29T1:13:53Z</time></trkpt>
<trkpt lat="46.48514659143984317779541015625" lon="7.02360930852591991424560546875"><ele></ele><time>2016-7-29T1:13:56Z</time></trkpt>
<trkpt lat="46.48502656258642673492431640625" lon="7.0232303626835346221923828125"><ele></ele><time>2016-7-29T1:13:59Z</time></trkpt>
<trkpt lat="46.484962441027164459228515625" lon="7.02289802022278308868408203125"><ele></ele><time>2016-7-29T1:14:2Z</time></trkpt>
<trkpt lat="46.48484769277274608612060546875" lon="7.02263080514967441558837890625"><ele></ele><time>2016-7-29T1:14:5Z</time></trkpt>
<trkpt lat="46.48475029505789279937744140625" lon="7.02237649820744991302490234375"><ele></ele><time>2016-7-29T1:14:8Z</time></trkpt>
<trkpt lat="46.48472397588193416595458984375" lon="7.02223400585353374481201171875"><ele></ele><time>2016-7-29T1:14:11Z</time></trkpt>
<trkpt lat="46.48471676744520664215087890625" lon="7.0221906714141368865966796875"><ele></ele><time>2016-7-29T1:14:14Z</time></trkpt>
<trkpt lat="46.48470268584787845611572265625" lon="7.02213224954903125762939453125"><ele></ele><time>2016-7-29T1:14:17Z</time></trkpt>
<trkpt lat="46.484680473804473876953125" lon="7.02208631671965122222900390625"><ele></ele><time>2016-7-29T1:14:20Z</time></trkpt>
<trkpt lat="46.4846504665911197662353515625" lon="7.02202093787491321563720703125"><ele></ele><time>2016-7-29T1:14:23Z</time></trkpt>
<trkpt lat="46.48455633781850337982177734375" lon="7.0218716561794281005859375"><ele></ele><time>2016-7-29T1:14:26Z</time></trkpt>
<trkpt lat="46.4844995923340320587158203125" lon="7.02174617908895015716552734375"><ele></ele><time>2016-7-29T1:14:29Z</time></trkpt>
<trkpt lat="46.4843832515180110931396484375" lon="7.021629922091960906982421875"><ele></ele><time>2016-7-29T1:14:32Z</time></trkpt>
<trkpt lat="46.48432751186192035675048828125" lon="7.021540068089962005615234375"><ele></ele><time>2016-7-29T1:14:35Z</time></trkpt>
<trkpt lat="46.4842461235821247100830078125" lon="7.02143303118646144866943359375"><ele></ele><time>2016-7-29T1:14:38Z</time></trkpt>
<trkpt lat="46.48416423238813877105712890625" lon="7.02129255048930644989013671875"><ele></ele><time>2016-7-29T1:14:41Z</time></trkpt>
<trkpt lat="46.48407362401485443115234375" lon="7.0211422629654407501220703125"><ele></ele><time>2016-7-29T1:14:44Z</time></trkpt>
<trkpt lat="46.4839775674045085906982421875" lon="7.02102533541619777679443359375"><ele></ele><time>2016-7-29T1:14:47Z</time></trkpt>
<trkpt lat="46.48391135036945343017578125" lon="7.02090228907763957977294921875"><ele></ele><time>2016-7-29T1:14:50Z</time></trkpt>
<trkpt lat="46.48384488187730312347412109375" lon="7.0207399316132068634033203125"><ele></ele><time>2016-7-29T1:14:53Z</time></trkpt>
<trkpt lat="46.483790986239910125732421875" lon="7.02057790942490100860595703125"><ele></ele><time>2016-7-29T1:14:56Z</time></trkpt>
<trkpt lat="46.48373725824058055877685546875" lon="7.0204371772706508636474609375"><ele></ele><time>2016-7-29T1:14:59Z</time></trkpt>
<trkpt lat="46.48365679197013378143310546875" lon="7.02024581842124462127685546875"><ele></ele><time>2016-7-29T1:15:2Z</time></trkpt>
<trkpt lat="46.4835651777684688568115234375" lon="7.02010517008602619171142578125"><ele></ele><time>2016-7-29T1:15:5Z</time></trkpt>
<trkpt lat="46.4834106154739856719970703125" lon="7.019967623054981231689453125"><ele></ele><time>2016-7-29T1:15:8Z</time></trkpt>
<trkpt lat="46.48324037902057170867919921875" lon="7.01987047679722309112548828125"><ele></ele><time>2016-7-29T1:15:11Z</time></trkpt>
<trkpt lat="46.4831135608255863189697265625" lon="7.0197848975658416748046875"><ele></ele><time>2016-7-29T1:15:14Z</time></trkpt>
<trkpt lat="46.48296243511140346527099609375" lon="7.01970350928604602813720703125"><ele></ele><time>2016-7-29T1:15:17Z</time></trkpt>
<trkpt lat="46.482810638844966888427734375" lon="7.019588090479373931884765625"><ele></ele><time>2016-7-29T1:15:20Z</time></trkpt>
<trkpt lat="46.48264777846634387969970703125" lon="7.01949664391577243804931640625"><ele></ele><time>2016-7-29T1:15:23Z</time></trkpt>
<trkpt lat="46.482481062412261962890625" lon="7.01945699751377105712890625"><ele></ele><time>2016-7-29T1:15:26Z</time></trkpt>
<trkpt lat="46.48231820203363895416259765625" lon="7.019418776035308837890625"><ele></ele><time>2016-7-29T1:15:29Z</time></trkpt>
<trkpt lat="46.48216523230075836181640625" lon="7.01942673884332180023193359375"><ele></ele><time>2016-7-29T1:15:32Z</time></trkpt>
<trkpt lat="46.4819863624870777130126953125" lon="7.01942405663430690765380859375"><ele></ele><time>2016-7-29T1:15:35Z</time></trkpt>
<trkpt lat="46.481812857091426849365234375" lon="7.01940067112445831298828125"><ele></ele><time>2016-7-29T1:15:38Z</time></trkpt>
<trkpt lat="46.4816118590533733367919921875" lon="7.0193894393742084503173828125"><ele></ele><time>2016-7-29T1:15:41Z</time></trkpt>
<trkpt lat="46.48138194344937801361083984375" lon="7.01937527395784854888916015625"><ele></ele><time>2016-7-29T1:15:44Z</time></trkpt>
<trkpt lat="46.48131321184337139129638671875" lon="7.0193760283291339874267578125"><ele></ele><time>2016-7-29T1:15:47Z</time></trkpt>
<trkpt lat="46.48123810999095439910888671875" lon="7.01938164420425891876220703125"><ele></ele><time>2016-7-29T1:15:50Z</time></trkpt>
<trkpt lat="46.4809570647776126861572265625" lon="7.0193850807845592498779296875"><ele></ele><time>2016-7-29T1:15:53Z</time></trkpt>
<trkpt lat="46.48079068399965763092041015625" lon="7.01937829144299030303955078125"><ele></ele><time>2016-7-29T1:15:56Z</time></trkpt>
<trkpt lat="46.48057996295392513275146484375" lon="7.01934359036386013031005859375"><ele></ele><time>2016-7-29T1:15:59Z</time></trkpt>
<trkpt lat="46.48039103485643863677978515625" lon="7.019313834607601165771484375"><ele></ele><time>2016-7-29T1:16:2Z</time></trkpt>
<trkpt lat="46.4801488816738128662109375" lon="7.01927955262362957000732421875"><ele></ele><time>2016-7-29T1:16:5Z</time></trkpt>
<trkpt lat="46.47992081008851528167724609375" lon="7.01926982961595058441162109375"><ele></ele><time>2016-7-29T1:16:8Z</time></trkpt>
<trkpt lat="46.4797105081379413604736328125" lon="7.0193019323050975799560546875"><ele></ele><time>2016-7-29T1:16:11Z</time></trkpt>
<trkpt lat="46.479561813175678253173828125" lon="7.0193435065448284149169921875"><ele></ele><time>2016-7-29T1:16:14Z</time></trkpt>
<trkpt lat="46.4793584682047367095947265625" lon="7.0193461887538433074951171875"><ele></ele><time>2016-7-29T1:16:17Z</time></trkpt>
<trkpt lat="46.47915772162377834320068359375" lon="7.019388265907764434814453125"><ele></ele><time>2016-7-29T1:16:20Z</time></trkpt>
<trkpt lat="46.4789853058755397796630859375" lon="7.0194001682102680206298828125"><ele></ele><time>2016-7-29T1:16:23Z</time></trkpt>
<trkpt lat="46.47886971943080425262451171875" lon="7.0194001682102680206298828125"><ele></ele><time>2016-7-29T1:16:26Z</time></trkpt>
<trkpt lat="46.4787769317626953125" lon="7.019422464072704315185546875"><ele></ele><time>2016-7-29T1:16:29Z</time></trkpt>
<trkpt lat="46.47876285016536712646484375" lon="7.0194296725094318389892578125"><ele></ele><time>2016-7-29T1:16:32Z</time></trkpt>
<trkpt lat="46.47868615575134754180908203125" lon="7.019458673894405364990234375"><ele></ele><time>2016-7-29T1:16:35Z</time></trkpt>
<trkpt lat="46.47861725650727748870849609375" lon="7.019455321133136749267578125"><ele></ele><time>2016-7-29T1:16:38Z</time></trkpt>
<trkpt lat="46.47854852490127086639404296875" lon="7.0194630324840545654296875"><ele></ele><time>2016-7-29T1:16:41Z</time></trkpt>
<trkpt lat="46.4784622751176357269287109375" lon="7.01942321844398975372314453125"><ele></ele><time>2016-7-29T1:16:44Z</time></trkpt>
<trkpt lat="46.4784579165279865264892578125" lon="7.01942858286201953887939453125"><ele></ele><time>2016-7-29T1:16:47Z</time></trkpt>
<trkpt lat="46.478504352271556854248046875" lon="7.0194648765027523040771484375"><ele></ele><time>2016-7-29T1:16:50Z</time></trkpt>
<trkpt lat="46.4785263128578662872314453125" lon="7.019480802118778228759765625"><ele></ele><time>2016-7-29T1:16:53Z</time></trkpt>
<trkpt lat="46.4786758460104465484619140625" lon="7.0195295847952365875244140625"><ele></ele><time>2016-7-29T1:16:56Z</time></trkpt>
<trkpt lat="46.47881221957504749298095703125" lon="7.0195547305047512054443359375"><ele></ele><time>2016-7-29T1:16:59Z</time></trkpt>
<trkpt lat="46.47895286791026592254638671875" lon="7.01960158534348011016845703125"><ele></ele><time>2016-7-29T1:17:2Z</time></trkpt>
<trkpt lat="46.4791016466915607452392578125" lon="7.019645087420940399169921875"><ele></ele><time>2016-7-29T1:17:5Z</time></trkpt>
<trkpt lat="46.47921287454664707183837890625" lon="7.0196615159511566162109375"><ele></ele><time>2016-7-29T1:17:8Z</time></trkpt>
<trkpt lat="46.47927783429622650146484375" lon="7.01966889202594757080078125"><ele></ele><time>2016-7-29T1:17:11Z</time></trkpt>
<trkpt lat="46.47935737855732440948486328125" lon="7.01968188397586345672607421875"><ele></ele><time>2016-7-29T1:17:14Z</time></trkpt>
<trkpt lat="46.4794461429119110107421875" lon="7.0197113044559955596923828125"><ele></ele><time>2016-7-29T1:17:17Z</time></trkpt>
<trkpt lat="46.4795173890888690948486328125" lon="7.01975245960056781768798828125"><ele></ele><time>2016-7-29T1:17:20Z</time></trkpt>
<trkpt lat="46.479598022997379302978515625" lon="7.0197607576847076416015625"><ele></ele><time>2016-7-29T1:17:23Z</time></trkpt>
<trkpt lat="46.4796173013746738433837890625" lon="7.01976478099822998046875"><ele></ele><time>2016-7-29T1:17:26Z</time></trkpt>
<trkpt lat="46.47968779318034648895263671875" lon="7.01978649012744426727294921875"><ele></ele><time>2016-7-29T1:17:29Z</time></trkpt>
<trkpt lat="46.4797385036945343017578125" lon="7.0198216103017330169677734375"><ele></ele><time>2016-7-29T1:17:32Z</time></trkpt>
<trkpt lat="46.47984445095062255859375" lon="7.01990316621959209442138671875"><ele></ele><time>2016-7-29T1:17:35Z</time></trkpt>
<trkpt lat="46.4799140207469463348388671875" lon="7.020034007728099822998046875"><ele></ele><time>2016-7-29T1:17:38Z</time></trkpt>
<trkpt lat="46.479889713227748870849609375" lon="7.020069546997547149658203125"><ele></ele><time>2016-7-29T1:17:41Z</time></trkpt>
<trkpt lat="46.47984537295997142791748046875" lon="7.02007549814879894256591796875"><ele></ele><time>2016-7-29T1:17:44Z</time></trkpt>
<trkpt lat="46.4797319658100605010986328125" lon="7.0200355164706707000732421875"><ele></ele><time>2016-7-29T1:17:47Z</time></trkpt>
<trkpt lat="46.47967387922108173370361328125" lon="7.02000492252409458160400390625"><ele></ele><time>2016-7-29T1:17:50Z</time></trkpt>
<trkpt lat="46.47965325973927974700927734375" lon="7.019999139010906219482421875"><ele></ele><time>2016-7-29T1:17:53Z</time></trkpt>
<trkpt lat="46.47956885397434234619140625" lon="7.01997608877718448638916015625"><ele></ele><time>2016-7-29T1:17:56Z</time></trkpt>
<trkpt lat="46.47944974713027477264404296875" lon="7.01997944153845310211181640625"><ele></ele><time>2016-7-29T1:17:59Z</time></trkpt>
<trkpt lat="46.4792813546955585479736328125" lon="7.019989080727100372314453125"><ele></ele><time>2016-7-29T1:18:2Z</time></trkpt>
<trkpt lat="46.47918102331459522247314453125" lon="7.02004582621157169342041015625"><ele></ele><time>2016-7-29T1:18:5Z</time></trkpt>
<trkpt lat="46.4790550433099269866943359375" lon="7.020111791789531707763671875"><ele></ele><time>2016-7-29T1:18:8Z</time></trkpt>
<trkpt lat="46.4789343439042568206787109375" lon="7.02017993666231632232666015625"><ele></ele><time>2016-7-29T1:18:11Z</time></trkpt>
<trkpt lat="46.47884599864482879638671875" lon="7.02023173682391643524169921875"><ele></ele><time>2016-7-29T1:18:14Z</time></trkpt>
<trkpt lat="46.47872689180076122283935546875" lon="7.0202970318496227264404296875"><ele></ele><time>2016-7-29T1:18:17Z</time></trkpt>
<trkpt lat="46.47856478579342365264892578125" lon="7.02031932771205902099609375"><ele></ele><time>2016-7-29T1:18:20Z</time></trkpt>
<trkpt lat="46.47843386046588420867919921875" lon="7.02033944427967071533203125"><ele></ele><time>2016-7-29T1:18:23Z</time></trkpt>
<trkpt lat="46.4782691560685634613037109375" lon="7.02038445509970188140869140625"><ele></ele><time>2016-7-29T1:18:26Z</time></trkpt>
<trkpt lat="46.47811836563050746917724609375" lon="7.020434327423572540283203125"><ele></ele><time>2016-7-29T1:18:29Z</time></trkpt>
<trkpt lat="46.4780284278094768524169921875" lon="7.0204876363277435302734375"><ele></ele><time>2016-7-29T1:18:32Z</time></trkpt>
<trkpt lat="46.4778877794742584228515625" lon="7.0205251872539520263671875"><ele></ele><time>2016-7-29T1:18:35Z</time></trkpt>
<trkpt lat="46.47775073535740375518798828125" lon="7.0205776579678058624267578125"><ele></ele><time>2016-7-29T1:18:38Z</time></trkpt>
<trkpt lat="46.47757370956242084503173828125" lon="7.0205944217741489410400390625"><ele></ele><time>2016-7-29T1:18:41Z</time></trkpt>
<trkpt lat="46.4774195663630962371826171875" lon="7.02058176510035991668701171875"><ele></ele><time>2016-7-29T1:18:44Z</time></trkpt>
<trkpt lat="46.4772680215537548065185546875" lon="7.02059215866029262542724609375"><ele></ele><time>2016-7-29T1:18:47Z</time></trkpt>
<trkpt lat="46.4770832844078540802001953125" lon="7.02060221694409847259521484375"><ele></ele><time>2016-7-29T1:18:50Z</time></trkpt>
<trkpt lat="46.476953029632568359375" lon="7.0205977745354175567626953125"><ele></ele><time>2016-7-29T1:18:53Z</time></trkpt>
<trkpt lat="46.476809196174144744873046875" lon="7.02060137875378131866455078125"><ele></ele><time>2016-7-29T1:18:56Z</time></trkpt>
<trkpt lat="46.47668573074042797088623046875" lon="7.02059182338416576385498046875"><ele></ele><time>2016-7-29T1:18:59Z</time></trkpt>
<trkpt lat="46.4765374548733234405517578125" lon="7.0206158794462680816650390625"><ele></ele><time>2016-7-29T1:19:2Z</time></trkpt>
<trkpt lat="46.47643192671239376068115234375" lon="7.02069106511771678924560546875"><ele></ele><time>2016-7-29T1:19:5Z</time></trkpt>
<trkpt lat="46.47633285261690616607666015625" lon="7.02074940316379070281982421875"><ele></ele><time>2016-7-29T1:19:8Z</time></trkpt>
<trkpt lat="46.4762301743030548095703125" lon="7.0207469724118709564208984375"><ele></ele><time>2016-7-29T1:19:11Z</time></trkpt>
<trkpt lat="46.47611911408603191375732421875" lon="7.0207325555384159088134765625"><ele></ele><time>2016-7-29T1:19:14Z</time></trkpt>
<trkpt lat="46.47596790455281734466552734375" lon="7.02071386389434337615966796875"><ele></ele><time>2016-7-29T1:19:17Z</time></trkpt>
<trkpt lat="46.4758226461708545684814453125" lon="7.020691819489002227783203125"><ele></ele><time>2016-7-29T1:19:20Z</time></trkpt>
<trkpt lat="46.4757629670202732086181640625" lon="7.02069240622222423553466796875"><ele></ele><time>2016-7-29T1:19:23Z</time></trkpt>
<trkpt lat="46.47571544162929058074951171875" lon="7.020694501698017120361328125"><ele></ele><time>2016-7-29T1:19:26Z</time></trkpt>
<trkpt lat="46.47560765035450458526611328125" lon="7.0206229202449321746826171875"><ele></ele><time>2016-7-29T1:19:29Z</time></trkpt>
<trkpt lat="46.475494913756847381591796875" lon="7.02060506679117679595947265625"><ele></ele><time>2016-7-29T1:19:32Z</time></trkpt>
<trkpt lat="46.4754789881408214569091796875" lon="7.0206054858863353729248046875"><ele></ele><time>2016-7-29T1:19:35Z</time></trkpt>
<trkpt lat="46.475327275693416595458984375" lon="7.02059668488800525665283203125"><ele></ele><time>2016-7-29T1:19:38Z</time></trkpt>
<trkpt lat="46.475205235183238983154296875" lon="7.02060691080987453460693359375"><ele></ele><time>2016-7-29T1:19:41Z</time></trkpt>
<trkpt lat="46.47511932067573070526123046875" lon="7.020582519471645355224609375"><ele></ele><time>2016-7-29T1:19:44Z</time></trkpt>
<trkpt lat="46.47505377419292926788330078125" lon="7.02049392275512218475341796875"><ele></ele><time>2016-7-29T1:19:47Z</time></trkpt>
<trkpt lat="46.4749829471111297607421875" lon="7.02040515840053558349609375"><ele></ele><time>2016-7-29T1:19:50Z</time></trkpt>
<trkpt lat="46.4748959429562091827392578125" lon="7.02034455724060535430908203125"><ele></ele><time>2016-7-29T1:19:53Z</time></trkpt>
<trkpt lat="46.4748139679431915283203125" lon="7.02029610984027385711669921875"><ele></ele><time>2016-7-29T1:19:56Z</time></trkpt>
<trkpt lat="46.47470466792583465576171875" lon="7.020243220031261444091796875"><ele></ele><time>2016-7-29T1:19:59Z</time></trkpt>
<trkpt lat="46.47467407397925853729248046875" lon="7.0202433876693248748779296875"><ele></ele><time>2016-7-29T1:20:2Z</time></trkpt>
<trkpt lat="46.47460433654487133026123046875" lon="7.020244561135768890380859375"><ele></ele><time>2016-7-29T1:20:5Z</time></trkpt>
<trkpt lat="46.47458304651081562042236328125" lon="7.0202500931918621063232421875"><ele></ele><time>2016-7-29T1:20:8Z</time></trkpt>
<trkpt lat="46.47449369542300701141357421875" lon="7.02026979066431522369384765625"><ele></ele><time>2016-7-29T1:20:11Z</time></trkpt>
<trkpt lat="46.47435857914388179779052734375" lon="7.02031396329402923583984375"><ele></ele><time>2016-7-29T1:20:14Z</time></trkpt>
<trkpt lat="46.47422580979764461517333984375" lon="7.020429633557796478271484375"><ele></ele><time>2016-7-29T1:20:17Z</time></trkpt>
<trkpt lat="46.4741489477455615997314453125" lon="7.0204110257327556610107421875"><ele></ele><time>2016-7-29T1:20:20Z</time></trkpt>
<trkpt lat="46.474090777337551116943359375" lon="7.02028471045196056365966796875"><ele></ele><time>2016-7-29T1:20:23Z</time></trkpt>
<trkpt lat="46.4740191958844661712646484375" lon="7.02012679539620876312255859375"><ele></ele><time>2016-7-29T1:20:26Z</time></trkpt>
<trkpt lat="46.47396882064640522003173828125" lon="7.0199858956038951873779296875"><ele></ele><time>2016-7-29T1:20:29Z</time></trkpt>
<trkpt lat="46.47395272739231586456298828125" lon="7.01986737549304962158203125"><ele></ele><time>2016-7-29T1:20:32Z</time></trkpt>
<trkpt lat="46.47394820116460323333740234375" lon="7.01984482817351818084716796875"><ele></ele><time>2016-7-29T1:20:35Z</time></trkpt>
<trkpt lat="46.473920457065105438232421875" lon="7.0197193510830402374267578125"><ele></ele><time>2016-7-29T1:20:38Z</time></trkpt>
<trkpt lat="46.47389422170817852020263671875" lon="7.019672580063343048095703125"><ele></ele><time>2016-7-29T1:20:41Z</time></trkpt>
<trkpt lat="46.47383772768080234527587890625" lon="7.01957258395850658416748046875"><ele></ele><time>2016-7-29T1:20:44Z</time></trkpt>
<trkpt lat="46.4737110771238803863525390625" lon="7.0194484479725360870361328125"><ele></ele><time>2016-7-29T1:20:47Z</time></trkpt>
<trkpt lat="46.4736222289502620697021484375" lon="7.01937058009207248687744140625"><ele></ele><time>2016-7-29T1:20:50Z</time></trkpt>
<trkpt lat="46.47352457977831363677978515625" lon="7.019290030002593994140625"><ele></ele><time>2016-7-29T1:20:53Z</time></trkpt>
<trkpt lat="46.4734348095953464508056640625" lon="7.0192154310643672943115234375"><ele></ele><time>2016-7-29T1:20:56Z</time></trkpt>
<trkpt lat="46.47334872744977474212646484375" lon="7.019142173230648040771484375"><ele></ele><time>2016-7-29T1:20:59Z</time></trkpt>
<trkpt lat="46.47326608188450336456298828125" lon="7.01909515075385570526123046875"><ele></ele><time>2016-7-29T1:21:2Z</time></trkpt>
<trkpt lat="46.47313691675662994384765625" lon="7.01904569752514362335205078125"><ele></ele><time>2016-7-29T1:21:5Z</time></trkpt>
<trkpt lat="46.47297036834061145782470703125" lon="7.01901216991245746612548828125"><ele></ele><time>2016-7-29T1:21:8Z</time></trkpt>
<trkpt lat="46.4728413708508014678955078125" lon="7.01898132450878620147705078125"><ele></ele><time>2016-7-29T1:21:11Z</time></trkpt>
<trkpt lat="46.47269904613494873046875" lon="7.01894477941095829010009765625"><ele></ele><time>2016-7-29T1:21:14Z</time></trkpt>
<trkpt lat="46.47257289849221706390380859375" lon="7.01892793178558349609375"><ele></ele><time>2016-7-29T1:21:17Z</time></trkpt>
<trkpt lat="46.4724631793797016143798828125" lon="7.01899372972548007965087890625"><ele></ele><time>2016-7-29T1:21:20Z</time></trkpt>
<trkpt lat="46.4723803661763668060302734375" lon="7.0190555043518543243408203125"><ele></ele><time>2016-7-29T1:21:23Z</time></trkpt>
<trkpt lat="46.47227852605283260345458984375" lon="7.0190487988293170928955078125"><ele></ele><time>2016-7-29T1:21:26Z</time></trkpt>
<trkpt lat="46.4721832238137722015380859375" lon="7.0189693383872509002685546875"><ele></ele><time>2016-7-29T1:21:29Z</time></trkpt>
<trkpt lat="46.4721527136862277984619140625" lon="7.01885484158992767333984375"><ele></ele><time>2016-7-29T1:21:32Z</time></trkpt>
<trkpt lat="46.47209764458239078521728515625" lon="7.0187336392700672149658203125"><ele></ele><time>2016-7-29T1:21:35Z</time></trkpt>
<trkpt lat="46.4720003306865692138671875" lon="7.01867236755788326263427734375"><ele></ele><time>2016-7-29T1:21:38Z</time></trkpt>
<trkpt lat="46.471880972385406494140625" lon="7.01865828596055507659912109375"><ele></ele><time>2016-7-29T1:21:41Z</time></trkpt>
<trkpt lat="46.471791453659534454345703125" lon="7.0185492374002933502197265625"><ele></ele><time>2016-7-29T1:21:44Z</time></trkpt>
<trkpt lat="46.47171190939843654632568359375" lon="7.0184560306370258331298828125"><ele></ele><time>2016-7-29T1:21:47Z</time></trkpt>
<trkpt lat="46.47162037901580333709716796875" lon="7.01836642809212207794189453125"><ele></ele><time>2016-7-29T1:21:50Z</time></trkpt>
<trkpt lat="46.47147553972899913787841796875" lon="7.01825176365673542022705078125"><ele></ele><time>2016-7-29T1:21:53Z</time></trkpt>
<trkpt lat="46.47137881256639957427978515625" lon="7.01818739064037799835205078125"><ele></ele><time>2016-7-29T1:21:56Z</time></trkpt>
<trkpt lat="46.4711981825530529022216796875" lon="7.0180801860988140106201171875"><ele></ele><time>2016-7-29T1:21:59Z</time></trkpt>
<trkpt lat="46.47110053338110446929931640625" lon="7.01803567819297313690185546875"><ele></ele><time>2016-7-29T1:22:2Z</time></trkpt>
<trkpt lat="46.47095703519880771636962890625" lon="7.0179742388427257537841796875"><ele></ele><time>2016-7-29T1:22:5Z</time></trkpt>
<trkpt lat="46.4708260260522365570068359375" lon="7.01784507371485233306884765625"><ele></ele><time>2016-7-29T1:22:8Z</time></trkpt>
<trkpt lat="46.47065185010433197021484375" lon="7.01772429049015045166015625"><ele></ele><time>2016-7-29T1:22:11Z</time></trkpt>
<trkpt lat="46.47052536718547344207763671875" lon="7.01765815727412700653076171875"><ele></ele><time>2016-7-29T1:22:14Z</time></trkpt>
<trkpt lat="46.47042386233806610107421875" lon="7.01760551892220973968505859375"><ele></ele><time>2016-7-29T1:22:17Z</time></trkpt>
<trkpt lat="46.47032554261386394500732421875" lon="7.017532847821712493896484375"><ele></ele><time>2016-7-29T1:22:20Z</time></trkpt>
<trkpt lat="46.47018506191670894622802734375" lon="7.0174515433609485626220703125"><ele></ele><time>2016-7-29T1:22:23Z</time></trkpt>
<trkpt lat="46.4700310863554477691650390625" lon="7.01738859526813030242919921875"><ele></ele><time>2016-7-29T1:22:26Z</time></trkpt>
<trkpt lat="46.46991080604493618011474609375" lon="7.0173422433435916900634765625"><ele></ele><time>2016-7-29T1:22:29Z</time></trkpt>
<trkpt lat="46.46980301477015018463134765625" lon="7.0172808878123760223388671875"><ele></ele><time>2016-7-29T1:22:32Z</time></trkpt>
<trkpt lat="46.469644345343112945556640625" lon="7.01715541072189807891845703125"><ele></ele><time>2016-7-29T1:22:35Z</time></trkpt>
<trkpt lat="46.46950696595013141632080078125" lon="7.01703940518200397491455078125"><ele></ele><time>2016-7-29T1:22:38Z</time></trkpt>
<trkpt lat="46.469401605427265167236328125" lon="7.016963548958301544189453125"><ele></ele><time>2016-7-29T1:22:41Z</time></trkpt>
<trkpt lat="46.4692445285618305206298828125" lon="7.0168798975646495819091796875"><ele></ele><time>2016-7-29T1:22:44Z</time></trkpt>
<trkpt lat="46.46912475116550922393798828125" lon="7.01680571772158145904541015625"><ele></ele><time>2016-7-29T1:22:47Z</time></trkpt>
<trkpt lat="46.46898929961025714874267578125" lon="7.01675894670188426971435546875"><ele></ele><time>2016-7-29T1:22:50Z</time></trkpt>
<trkpt lat="46.46887212060391902923583984375" lon="7.016727514564990997314453125"><ele></ele><time>2016-7-29T1:22:53Z</time></trkpt>
<trkpt lat="46.46878276951611042022705078125" lon="7.0166388340294361114501953125"><ele></ele><time>2016-7-29T1:22:56Z</time></trkpt>
<trkpt lat="46.46865226328372955322265625" lon="7.01645501889288425445556640625"><ele></ele><time>2016-7-29T1:22:59Z</time></trkpt>
<trkpt lat="46.4685241878032684326171875" lon="7.01633700169622898101806640625"><ele></ele><time>2016-7-29T1:23:2Z</time></trkpt>
<trkpt lat="46.4684328250586986541748046875" lon="7.0162720419466495513916015625"><ele></ele><time>2016-7-29T1:23:5Z</time></trkpt>
<trkpt lat="46.46836400963366031646728515625" lon="7.01630900613963603973388671875"><ele></ele><time>2016-7-29T1:23:8Z</time></trkpt>
<trkpt lat="46.4683443121612071990966796875" lon="7.0163139514625072479248046875"><ele></ele><time>2016-7-29T1:23:11Z</time></trkpt>
<trkpt lat="46.46823962219059467315673828125" lon="7.01627765782177448272705078125"><ele></ele><time>2016-7-29T1:23:14Z</time></trkpt>
<trkpt lat="46.46815412677824497222900390625" lon="7.0161302201449871063232421875"><ele></ele><time>2016-7-29T1:23:17Z</time></trkpt>
<trkpt lat="46.46804180927574634552001953125" lon="7.01599451713263988494873046875"><ele></ele><time>2016-7-29T1:23:20Z</time></trkpt>
<trkpt lat="46.4679622650146484375" lon="7.01593249104917049407958984375"><ele></ele><time>2016-7-29T1:23:23Z</time></trkpt>
<trkpt lat="46.46782555617392063140869140625" lon="7.0158371888101100921630859375"><ele></ele><time>2016-7-29T1:23:26Z</time></trkpt>
<trkpt lat="46.4677589200437068939208984375" lon="7.01578379608690738677978515625"><ele></ele><time>2016-7-29T1:23:29Z</time></trkpt>
<trkpt lat="46.4676740951836109161376953125" lon="7.0157117955386638641357421875"><ele></ele><time>2016-7-29T1:23:32Z</time></trkpt>
<trkpt lat="46.46751928143203258514404296875" lon="7.0155314169824123382568359375"><ele></ele><time>2016-7-29T1:23:35Z</time></trkpt>
<trkpt lat="46.46744317375123500823974609375" lon="7.01546050608158111572265625"><ele></ele><time>2016-7-29T1:23:38Z</time></trkpt>
<trkpt lat="46.4672600291669368743896484375" lon="7.01531072147190570831298828125"><ele></ele><time>2016-7-29T1:23:41Z</time></trkpt>
<trkpt lat="46.46712298505008220672607421875" lon="7.0151981525123119354248046875"><ele></ele><time>2016-7-29T1:23:44Z</time></trkpt>
<trkpt lat="46.4669616334140300750732421875" lon="7.015102095901966094970703125"><ele></ele><time>2016-7-29T1:23:47Z</time></trkpt>
<trkpt lat="46.4668523333966732025146484375" lon="7.01504216529428958892822265625"><ele></ele><time>2016-7-29T1:23:50Z</time></trkpt>
<trkpt lat="46.46673389710485935211181640625" lon="7.01497972011566162109375"><ele></ele><time>2016-7-29T1:23:53Z</time></trkpt>
<trkpt lat="46.46662174724042415618896484375" lon="7.014927752315998077392578125"><ele></ele><time>2016-7-29T1:23:56Z</time></trkpt>
<trkpt lat="46.46649769507348537445068359375" lon="7.0148259960114955902099609375"><ele></ele><time>2016-7-29T1:23:59Z</time></trkpt>
<trkpt lat="46.466417647898197174072265625" lon="7.01476271264255046844482421875"><ele></ele><time>2016-7-29T1:24:2Z</time></trkpt>
<trkpt lat="46.4662397839128971099853515625" lon="7.01470303349196910858154296875"><ele></ele><time>2016-7-29T1:24:5Z</time></trkpt>
<trkpt lat="46.46604909561574459075927734375" lon="7.01460697688162326812744140625"><ele></ele><time>2016-7-29T1:24:8Z</time></trkpt>
<trkpt lat="46.46591397933661937713623046875" lon="7.0145265944302082061767578125"><ele></ele><time>2016-7-29T1:24:11Z</time></trkpt>
<trkpt lat="46.46584709174931049346923828125" lon="7.01448359526693820953369140625"><ele></ele><time>2016-7-29T1:24:14Z</time></trkpt>
<trkpt lat="46.4658294059336185455322265625" lon="7.01445124112069606781005859375"><ele></ele><time>2016-7-29T1:24:17Z</time></trkpt>
<trkpt lat="46.46577668376266956329345703125" lon="7.01440237462520599365234375"><ele></ele><time>2016-7-29T1:24:20Z</time></trkpt>
<trkpt lat="46.46563167683780193328857421875" lon="7.01432199217379093170166015625"><ele></ele><time>2016-7-29T1:24:23Z</time></trkpt>
<trkpt lat="46.46544576622545719146728515625" lon="7.01423247344791889190673828125"><ele></ele><time>2016-7-29T1:24:26Z</time></trkpt>
<trkpt lat="46.46529422141611576080322265625" lon="7.014178745448589324951171875"><ele></ele><time>2016-7-29T1:24:29Z</time></trkpt>
<trkpt lat="46.4651313610374927520751953125" lon="7.01411630026996135711669921875"><ele></ele><time>2016-7-29T1:24:32Z</time></trkpt>
<trkpt lat="46.4650319516658782958984375" lon="7.01404119841754436492919921875"><ele></ele><time>2016-7-29T1:24:35Z</time></trkpt>
<trkpt lat="46.46501787006855010986328125" lon="7.01400683261454105377197265625"><ele></ele><time>2016-7-29T1:24:38Z</time></trkpt>
<trkpt lat="46.46499582566320896148681640625" lon="7.01398931443691253662109375"><ele></ele><time>2016-7-29T1:24:41Z</time></trkpt>
<trkpt lat="46.464996747672557830810546875" lon="7.01396693475544452667236328125"><ele></ele><time>2016-7-29T1:24:44Z</time></trkpt>
<trkpt lat="46.46498962305486202239990234375" lon="7.01395218260586261749267578125"><ele></ele><time>2016-7-29T1:24:47Z</time></trkpt>
<trkpt lat="46.464979983866214752197265625" lon="7.01395318843424320220947265625"><ele></ele><time>2016-7-29T1:24:50Z</time></trkpt>
<trkpt lat="46.46501560695469379425048828125" lon="7.01399861834943294525146484375"><ele></ele><time>2016-7-29T1:24:53Z</time></trkpt>
<trkpt lat="46.4650297723710536956787109375" lon="7.0140122808516025543212890625"><ele></ele><time>2016-7-29T1:24:56Z</time></trkpt>
<trkpt lat="46.46503530442714691162109375" lon="7.0139935053884983062744140625"><ele></ele><time>2016-7-29T1:24:59Z</time></trkpt>
<trkpt lat="46.46498166024684906005859375" lon="7.01396240852773189544677734375"><ele></ele><time>2016-7-29T1:25:2Z</time></trkpt>
<trkpt lat="46.46499783731997013092041015625" lon="7.0139616541564464569091796875"><ele></ele><time>2016-7-29T1:25:5Z</time></trkpt>
<trkpt lat="46.4650104939937591552734375" lon="7.01398151926696300506591796875"><ele></ele><time>2016-7-29T1:25:8Z</time></trkpt>
<trkpt lat="46.46503170020878314971923828125" lon="7.0140287093818187713623046875"><ele></ele><time>2016-7-29T1:25:11Z</time></trkpt>
<trkpt lat="46.4650373160839080810546875" lon="7.01403566636145114898681640625"><ele></ele><time>2016-7-29T1:25:14Z</time></trkpt>
<trkpt lat="46.46501292474567890167236328125" lon="7.0140102691948413848876953125"><ele></ele><time>2016-7-29T1:25:17Z</time></trkpt>
<trkpt lat="46.46498962305486202239990234375" lon="7.0139784179627895355224609375"><ele></ele><time>2016-7-29T1:25:20Z</time></trkpt>
<trkpt lat="46.46497495472431182861328125" lon="7.0139510929584503173828125"><ele></ele><time>2016-7-29T1:25:23Z</time></trkpt>
<trkpt lat="46.46500387229025363922119140625" lon="7.013930641114711761474609375"><ele></ele><time>2016-7-29T1:25:26Z</time></trkpt>
<trkpt lat="46.4649972505867481231689453125" lon="7.01391957700252532958984375"><ele></ele><time>2016-7-29T1:25:29Z</time></trkpt>
<trkpt lat="46.46499649621546268463134765625" lon="7.01391546986997127532958984375"><ele></ele><time>2016-7-29T1:25:32Z</time></trkpt>
<trkpt lat="46.465013511478900909423828125" lon="7.01393089257180690765380859375"><ele></ele><time>2016-7-29T1:25:35Z</time></trkpt>
<trkpt lat="46.46500990726053714752197265625" lon="7.013959474861621856689453125"><ele></ele><time>2016-7-29T1:25:38Z</time></trkpt>
<trkpt lat="46.4649781398475170135498046875" lon="7.01400683261454105377197265625"><ele></ele><time>2016-7-29T1:25:41Z</time></trkpt>
<trkpt lat="46.46496196277439594268798828125" lon="7.0140494965016841888427734375"><ele></ele><time>2016-7-29T1:25:44Z</time></trkpt>
<trkpt lat="46.46495643071830272674560546875" lon="7.01405175961554050445556640625"><ele></ele><time>2016-7-29T1:25:47Z</time></trkpt>
<trkpt lat="46.464965231716632843017578125" lon="7.01401387341320514678955078125"><ele></ele><time>2016-7-29T1:25:50Z</time></trkpt>
<trkpt lat="46.46496933884918689727783203125" lon="7.01400465331971645355224609375"><ele></ele><time>2016-7-29T1:25:53Z</time></trkpt>
<trkpt lat="46.46498459391295909881591796875" lon="7.0139626599848270416259765625"><ele></ele><time>2016-7-29T1:25:56Z</time></trkpt>
<trkpt lat="46.46498031914234161376953125" lon="7.01398403383791446685791015625"><ele></ele><time>2016-7-29T1:25:59Z</time></trkpt>
<trkpt lat="46.46497621200978755950927734375" lon="7.01399778015911579132080078125"><ele></ele><time>2016-7-29T1:26:2Z</time></trkpt>
<trkpt lat="46.46494704298675060272216796875" lon="7.01400364749133586883544921875"><ele></ele><time>2016-7-29T1:26:5Z</time></trkpt>
<trkpt lat="46.46495978347957134246826171875" lon="7.01398688368499279022216796875"><ele></ele><time>2016-7-29T1:26:8Z</time></trkpt>
<trkpt lat="46.4649687521159648895263671875" lon="7.01396442018449306488037109375"><ele></ele><time>2016-7-29T1:26:11Z</time></trkpt>
<trkpt lat="46.464987695217132568359375" lon="7.01396861113607883453369140625"><ele></ele><time>2016-7-29T1:26:14Z</time></trkpt>
<trkpt lat="46.4649898745119571685791015625" lon="7.01397053897380828857421875"><ele></ele><time>2016-7-29T1:26:17Z</time></trkpt>
<trkpt lat="46.4649595320224761962890625" lon="7.01397649012506008148193359375"><ele></ele><time>2016-7-29T1:26:20Z</time></trkpt>
<trkpt lat="46.46497302688658237457275390625" lon="7.0139834471046924591064453125"><ele></ele><time>2016-7-29T1:26:23Z</time></trkpt>
<trkpt lat="46.4649595320224761962890625" lon="7.0139857940375804901123046875"><ele></ele><time>2016-7-29T1:26:26Z</time></trkpt>
<trkpt lat="46.46494679152965545654296875" lon="7.0139966905117034912109375"><ele></ele><time>2016-7-29T1:26:29Z</time></trkpt>
<trkpt lat="46.46494218148291110992431640625" lon="7.01399493031203746795654296875"><ele></ele><time>2016-7-29T1:26:32Z</time></trkpt>
<trkpt lat="46.4649194665253162384033203125" lon="7.0140109397470951080322265625"><ele></ele><time>2016-7-29T1:26:35Z</time></trkpt>
<trkpt lat="46.46489490754902362823486328125" lon="7.0139886438846588134765625"><ele></ele><time>2016-7-29T1:26:38Z</time></trkpt>
<trkpt lat="46.46479801274836063385009765625" lon="7.01393407769501209259033203125"><ele></ele><time>2016-7-29T1:26:41Z</time></trkpt>
<trkpt lat="46.46465132944285869598388671875" lon="7.01386182568967342376708984375"><ele></ele><time>2016-7-29T1:26:44Z</time></trkpt>
<trkpt lat="46.46446055732667446136474609375" lon="7.01378202997148036956787109375"><ele></ele><time>2016-7-29T1:26:47Z</time></trkpt>
<trkpt lat="46.46432477049529552459716796875" lon="7.01377415098249912261962890625"><ele></ele><time>2016-7-29T1:26:50Z</time></trkpt>
<trkpt lat="46.46415897645056247711181640625" lon="7.013738863170146942138671875"><ele></ele><time>2016-7-29T1:26:53Z</time></trkpt>
<trkpt lat="46.4639729820191860198974609375" lon="7.01373316347599029541015625"><ele></ele><time>2016-7-29T1:26:56Z</time></trkpt>
<trkpt lat="46.4638137258589267730712890625" lon="7.01375017873942852020263671875"><ele></ele><time>2016-7-29T1:26:59Z</time></trkpt>
<trkpt lat="46.4636239595711231231689453125" lon="7.0137759111821651458740234375"><ele></ele><time>2016-7-29T1:27:2Z</time></trkpt>
<trkpt lat="46.463386751711368560791015625" lon="7.01375923119485378265380859375"><ele></ele><time>2016-7-29T1:27:5Z</time></trkpt>
<trkpt lat="46.46321869455277919769287109375" lon="7.01379393227398395538330078125"><ele></ele><time>2016-7-29T1:27:8Z</time></trkpt>
<trkpt lat="46.46304468624293804168701171875" lon="7.0138089358806610107421875"><ele></ele><time>2016-7-29T1:27:11Z</time></trkpt>
<trkpt lat="46.4628575183451175689697265625" lon="7.01375059783458709716796875"><ele></ele><time>2016-7-29T1:27:14Z</time></trkpt>
<trkpt lat="46.462657861411571502685546875" lon="7.01373274438083171844482421875"><ele></ele><time>2016-7-29T1:27:17Z</time></trkpt>
<trkpt lat="46.46248393692076206207275390625" lon="7.01380751095712184906005859375"><ele></ele><time>2016-7-29T1:27:20Z</time></trkpt>
<trkpt lat="46.46236541680991649627685546875" lon="7.01387171633541584014892578125"><ele></ele><time>2016-7-29T1:27:23Z</time></trkpt>
<trkpt lat="46.462181098759174346923828125" lon="7.01395369134843349456787109375"><ele></ele><time>2016-7-29T1:27:26Z</time></trkpt>
<trkpt lat="46.46191748790442943572998046875" lon="7.01405913569033145904541015625"><ele></ele><time>2016-7-29T1:27:29Z</time></trkpt>
<trkpt lat="46.46174884401261806488037109375" lon="7.0141209103167057037353515625"><ele></ele><time>2016-7-29T1:27:32Z</time></trkpt>
<trkpt lat="46.4615871571004390716552734375" lon="7.01417396776378154754638671875"><ele></ele><time>2016-7-29T1:27:35Z</time></trkpt>
<trkpt lat="46.461429409682750701904296875" lon="7.01417748816311359405517578125"><ele></ele><time>2016-7-29T1:27:38Z</time></trkpt>
<trkpt lat="46.46119932644069194793701171875" lon="7.0141222514212131500244140625"><ele></ele><time>2016-7-29T1:27:41Z</time></trkpt>
<trkpt lat="46.460987515747547149658203125" lon="7.01405494473874568939208984375"><ele></ele><time>2016-7-29T1:27:44Z</time></trkpt>
<trkpt lat="46.4607959054410457611083984375" lon="7.01404220424592494964599609375"><ele></ele><time>2016-7-29T1:27:47Z</time></trkpt>
<trkpt lat="46.46059867925941944122314453125" lon="7.013975568115711212158203125"><ele></ele><time>2016-7-29T1:27:50Z</time></trkpt>
<trkpt lat="46.4604576118290424346923828125" lon="7.013893760740756988525390625"><ele></ele><time>2016-7-29T1:27:53Z</time></trkpt>
<trkpt lat="46.46032400429248809814453125" lon="7.013799212872982025146484375"><ele></ele><time>2016-7-29T1:27:56Z</time></trkpt>
<trkpt lat="46.4602120220661163330078125" lon="7.01376744545996189117431640625"><ele></ele><time>2016-7-29T1:27:59Z</time></trkpt>
<trkpt lat="46.46013080142438411712646484375" lon="7.0137526094913482666015625"><ele></ele><time>2016-7-29T1:28:2Z</time></trkpt>
<trkpt lat="46.459959559142589569091796875" lon="7.01360517181456089019775390625"><ele></ele><time>2016-7-29T1:28:5Z</time></trkpt>
<trkpt lat="46.45978890359401702880859375" lon="7.01350810937583446502685546875"><ele></ele><time>2016-7-29T1:28:8Z</time></trkpt>
<trkpt lat="46.45955747924745082855224609375" lon="7.01341054402291774749755859375"><ele></ele><time>2016-7-29T1:28:11Z</time></trkpt>
<trkpt lat="46.45932680927217006683349609375" lon="7.01331364922225475311279296875"><ele></ele><time>2016-7-29T1:28:14Z</time></trkpt>
<trkpt lat="46.4591560699045658111572265625" lon="7.0132461749017238616943359375"><ele></ele><time>2016-7-29T1:28:17Z</time></trkpt>
<trkpt lat="46.45893822424113750457763671875" lon="7.01315808109939098358154296875"><ele></ele><time>2016-7-29T1:28:20Z</time></trkpt>
<trkpt lat="46.45879992283880710601806640625" lon="7.01311499811708927154541015625"><ele></ele><time>2016-7-29T1:28:23Z</time></trkpt>
<trkpt lat="46.45873286761343479156494140625" lon="7.013090439140796661376953125"><ele></ele><time>2016-7-29T1:28:26Z</time></trkpt>
<trkpt lat="46.45871878601610660552978515625" lon="7.01308264397084712982177734375"><ele></ele><time>2016-7-29T1:28:29Z</time></trkpt>
<trkpt lat="46.45868442021310329437255859375" lon="7.0131144113838672637939453125"><ele></ele><time>2016-7-29T1:28:32Z</time></trkpt>
<trkpt lat="46.4585814066231250762939453125" lon="7.0131499506533145904541015625"><ele></ele><time>2016-7-29T1:28:35Z</time></trkpt>
<trkpt lat="46.4584712684154510498046875" lon="7.0131821371614933013916015625"><ele></ele><time>2016-7-29T1:28:38Z</time></trkpt>
<trkpt lat="46.4583799056708812713623046875" lon="7.01322756707668304443359375"><ele></ele><time>2016-7-29T1:28:41Z</time></trkpt>
<trkpt lat="46.4582293666899204254150390625" lon="7.01324231922626495361328125"><ele></ele><time>2016-7-29T1:28:44Z</time></trkpt>
<trkpt lat="46.45811327733099460601806640625" lon="7.0132196880877017974853515625"><ele></ele><time>2016-7-29T1:28:47Z</time></trkpt>
<trkpt lat="46.45800515078008174896240234375" lon="7.01311030425131320953369140625"><ele></ele><time>2016-7-29T1:28:50Z</time></trkpt>
<trkpt lat="46.45793021656572818756103515625" lon="7.012909390032291412353515625"><ele></ele><time>2016-7-29T1:28:53Z</time></trkpt>
<trkpt lat="46.45784874446690082550048828125" lon="7.01278089545667171478271484375"><ele></ele><time>2016-7-29T1:28:56Z</time></trkpt>
<trkpt lat="46.4577197469770908355712890625" lon="7.01273462735116481781005859375"><ele></ele><time>2016-7-29T1:28:59Z</time></trkpt>
<trkpt lat="46.4575718902051448822021484375" lon="7.01266488991677761077880859375"><ele></ele><time>2016-7-29T1:29:2Z</time></trkpt>
<trkpt lat="46.4574708044528961181640625" lon="7.0125823281705379486083984375"><ele></ele><time>2016-7-29T1:29:5Z</time></trkpt>
<trkpt lat="46.4573563076555728912353515625" lon="7.01249758712947368621826171875"><ele></ele><time>2016-7-29T1:29:8Z</time></trkpt>
<trkpt lat="46.457322277128696441650390625" lon="7.01243472285568714141845703125"><ele></ele><time>2016-7-29T1:29:11Z</time></trkpt>
<trkpt lat="46.45726351998746395111083984375" lon="7.01231083832681179046630859375"><ele></ele><time>2016-7-29T1:29:14Z</time></trkpt>
<trkpt lat="46.4571333490312099456787109375" lon="7.0122007839381694793701171875"><ele></ele><time>2016-7-29T1:29:17Z</time></trkpt>
<trkpt lat="46.45699043758213520050048828125" lon="7.0121246762573719024658203125"><ele></ele><time>2016-7-29T1:29:20Z</time></trkpt>
<trkpt lat="46.45689924247562885284423828125" lon="7.012068517506122589111328125"><ele></ele><time>2016-7-29T1:29:23Z</time></trkpt>
<trkpt lat="46.45689303986728191375732421875" lon="7.01204580254852771759033203125"><ele></ele><time>2016-7-29T1:29:26Z</time></trkpt>
<trkpt lat="46.4568788744509220123291015625" lon="7.01205401681363582611083984375"><ele></ele><time>2016-7-29T1:29:29Z</time></trkpt>
<trkpt lat="46.45689614117145538330078125" lon="7.0120877958834171295166015625"><ele></ele><time>2016-7-29T1:29:32Z</time></trkpt>
<trkpt lat="46.4568205364048480987548828125" lon="7.011982016265392303466796875"><ele></ele><time>2016-7-29T1:29:35Z</time></trkpt>
<trkpt lat="46.45671349950134754180908203125" lon="7.01190498657524585723876953125"><ele></ele><time>2016-7-29T1:29:38Z</time></trkpt>
<trkpt lat="46.4566569216549396514892578125" lon="7.01187464408576488494873046875"><ele></ele><time>2016-7-29T1:29:41Z</time></trkpt>
<trkpt lat="46.4565275050699710845947265625" lon="7.01185922138392925262451171875"><ele></ele><time>2016-7-29T1:29:44Z</time></trkpt>
<trkpt lat="46.45643186755478382110595703125" lon="7.0116847939789295196533203125"><ele></ele><time>2016-7-29T1:29:47Z</time></trkpt>
<trkpt lat="46.45631351508200168609619140625" lon="7.01159217394888401031494140625"><ele></ele><time>2016-7-29T1:29:50Z</time></trkpt>
<trkpt lat="46.45621025003492832183837890625" lon="7.01153509318828582763671875"><ele></ele><time>2016-7-29T1:29:53Z</time></trkpt>
<trkpt lat="46.45604982040822505950927734375" lon="7.0114983804523944854736328125"><ele></ele><time>2016-7-29T1:29:56Z</time></trkpt>
<trkpt lat="46.45592224784195423126220703125" lon="7.01144230552017688751220703125"><ele></ele><time>2016-7-29T1:29:59Z</time></trkpt>
<trkpt lat="46.45581227727234363555908203125" lon="7.01143073849380016326904296875"><ele></ele><time>2016-7-29T1:30:2Z</time></trkpt>
<trkpt lat="46.45566140301525592803955078125" lon="7.011332921683788299560546875"><ele></ele><time>2016-7-29T1:30:5Z</time></trkpt>
<trkpt lat="46.45550399087369441986083984375" lon="7.01127332635223865509033203125"><ele></ele><time>2016-7-29T1:30:8Z</time></trkpt>
<trkpt lat="46.45536233671009540557861328125" lon="7.011180706322193145751953125"><ele></ele><time>2016-7-29T1:30:11Z</time></trkpt>
<trkpt lat="46.4552484266459941864013671875" lon="7.0111758448183536529541015625"><ele></ele><time>2016-7-29T1:30:14Z</time></trkpt>
<trkpt lat="46.45512781105935573577880859375" lon="7.011200822889804840087890625"><ele></ele><time>2016-7-29T1:30:17Z</time></trkpt>
<trkpt lat="46.455022953450679779052734375" lon="7.01123460195958614349365234375"><ele></ele><time>2016-7-29T1:30:20Z</time></trkpt>
<trkpt lat="46.4548863284289836883544921875" lon="7.0112284831702709197998046875"><ele></ele><time>2016-7-29T1:30:23Z</time></trkpt>
<trkpt lat="46.45473537035286426544189453125" lon="7.01131724752485752105712890625"><ele></ele><time>2016-7-29T1:30:26Z</time></trkpt>
<trkpt lat="46.4545899443328380584716796875" lon="7.01127315871417522430419921875"><ele></ele><time>2016-7-29T1:30:29Z</time></trkpt>
<trkpt lat="46.45444728434085845947265625" lon="7.0112408883869647979736328125"><ele></ele><time>2016-7-29T1:30:32Z</time></trkpt>
<trkpt lat="46.45435214973986148834228515625" lon="7.01109361834824085235595703125"><ele></ele><time>2016-7-29T1:30:35Z</time></trkpt>
<trkpt lat="46.4542630501091480255126953125" lon="7.01084685511887073516845703125"><ele></ele><time>2016-7-29T1:30:38Z</time></trkpt>
<trkpt lat="46.45415090024471282958984375" lon="7.01073939912021160125732421875"><ele></ele><time>2016-7-29T1:30:41Z</time></trkpt>
<trkpt lat="46.45402877591550350189208984375" lon="7.01067770831286907196044921875"><ele></ele><time>2016-7-29T1:30:44Z</time></trkpt>
<trkpt lat="46.45391277037560939788818359375" lon="7.01079673133790493011474609375"><ele></ele><time>2016-7-29T1:30:47Z</time></trkpt>
<trkpt lat="46.4538793265819549560546875" lon="7.01095364056527614593505859375"><ele></ele><time>2016-7-29T1:30:50Z</time></trkpt>
<trkpt lat="46.45387974567711353302001953125" lon="7.010984234511852264404296875"><ele></ele><time>2016-7-29T1:30:53Z</time></trkpt>
<trkpt lat="46.45388712175190448760986328125" lon="7.01121733523905277252197265625"><ele></ele><time>2016-7-29T1:30:56Z</time></trkpt>
<trkpt lat="46.45381922833621501922607421875" lon="7.0115070976316928863525390625"><ele></ele><time>2016-7-29T1:30:59Z</time></trkpt>
<trkpt lat="46.45373306237161159515380859375" lon="7.0118215866386890411376953125"><ele></ele><time>2016-7-29T1:31:2Z</time></trkpt>
<trkpt lat="46.45368075929582118988037109375" lon="7.0120810903608798980712890625"><ele></ele><time>2016-7-29T1:31:5Z</time></trkpt>
<trkpt lat="46.45363918505609035491943359375" lon="7.01239851303398609161376953125"><ele></ele><time>2016-7-29T1:31:8Z</time></trkpt>
<trkpt lat="46.45363046787679195404052734375" lon="7.01247059740126132965087890625"><ele></ele><time>2016-7-29T1:31:11Z</time></trkpt>
<trkpt lat="46.45364186726510524749755859375" lon="7.0127231441438198089599609375"><ele></ele><time>2016-7-29T1:31:14Z</time></trkpt>
<trkpt lat="46.45362912677228450775146484375" lon="7.012860774993896484375"><ele></ele><time>2016-7-29T1:31:17Z</time></trkpt>
<trkpt lat="46.453609429299831390380859375" lon="7.012989185750484466552734375"><ele></ele><time>2016-7-29T1:31:20Z</time></trkpt>
<trkpt lat="46.453497111797332763671875" lon="7.01299597509205341339111328125"><ele></ele><time>2016-7-29T1:31:23Z</time></trkpt>
<trkpt lat="46.453331150114536285400390625" lon="7.01294618658721446990966796875"><ele></ele><time>2016-7-29T1:31:26Z</time></trkpt>
<trkpt lat="46.45329871214926242828369140625" lon="7.01293596066534519195556640625"><ele></ele><time>2016-7-29T1:31:29Z</time></trkpt>
<trkpt lat="46.45314716733992099761962890625" lon="7.0128505490720272064208984375"><ele></ele><time>2016-7-29T1:31:32Z</time></trkpt>
<trkpt lat="46.45294667221605777740478515625" lon="7.01280243694782257080078125"><ele></ele><time>2016-7-29T1:31:35Z</time></trkpt>
<trkpt lat="46.45285941660404205322265625" lon="7.01290905475616455078125"><ele></ele><time>2016-7-29T1:31:38Z</time></trkpt>
<trkpt lat="46.45282731391489505767822265625" lon="7.01296144165098667144775390625"><ele></ele><time>2016-7-29T1:31:41Z</time></trkpt>
<trkpt lat="46.452772580087184906005859375" lon="7.01311315409839153289794921875"><ele></ele><time>2016-7-29T1:31:44Z</time></trkpt>
<trkpt lat="46.4526589214801788330078125" lon="7.01321960426867008209228515625"><ele></ele><time>2016-7-29T1:31:47Z</time></trkpt>
<trkpt lat="46.4524730108678340911865234375" lon="7.01322966255247592926025390625"><ele></ele><time>2016-7-29T1:31:50Z</time></trkpt>
<trkpt lat="46.45230277441442012786865234375" lon="7.01327006332576274871826171875"><ele></ele><time>2016-7-29T1:31:53Z</time></trkpt>
<trkpt lat="46.45212390460073947906494140625" lon="7.01331750489771366119384765625"><ele></ele><time>2016-7-29T1:31:56Z</time></trkpt>
<trkpt lat="46.45203874446451663970947265625" lon="7.01324692927300930023193359375"><ele></ele><time>2016-7-29T1:31:59Z</time></trkpt>
<trkpt lat="46.4518721960484981536865234375" lon="7.0132109709084033966064453125"><ele></ele><time>2016-7-29T1:32:2Z</time></trkpt>
<trkpt lat="46.45175191573798656463623046875" lon="7.01333242468535900115966796875"><ele></ele><time>2016-7-29T1:32:5Z</time></trkpt>
<trkpt lat="46.4516894705593585968017578125" lon="7.013525627553462982177734375"><ele></ele><time>2016-7-29T1:32:8Z</time></trkpt>
<trkpt lat="46.45165887661278247833251953125" lon="7.013732157647609710693359375"><ele></ele><time>2016-7-29T1:32:11Z</time></trkpt>
<trkpt lat="46.4515821821987628936767578125" lon="7.0136870630085468292236328125"><ele></ele><time>2016-7-29T1:32:14Z</time></trkpt>
<trkpt lat="46.4515805058181285858154296875" lon="7.01359561644494533538818359375"><ele></ele><time>2016-7-29T1:32:17Z</time></trkpt>
<trkpt lat="46.45158209837973117828369140625" lon="7.01356175355613231658935546875"><ele></ele><time>2016-7-29T1:32:20Z</time></trkpt>
<trkpt lat="46.45158343948423862457275390625" lon="7.013416327536106109619140625"><ele></ele><time>2016-7-29T1:32:23Z</time></trkpt>
<trkpt lat="46.45158578641712665557861328125" lon="7.01337517239153385162353515625"><ele></ele><time>2016-7-29T1:32:26Z</time></trkpt>
<trkpt lat="46.45162761211395263671875" lon="7.01315791346132755279541015625"><ele></ele><time>2016-7-29T1:32:29Z</time></trkpt>
<trkpt lat="46.45174655131995677947998046875" lon="7.0130882598459720611572265625"><ele></ele><time>2016-7-29T1:32:32Z</time></trkpt>
<trkpt lat="46.4518162049353122711181640625" lon="7.0129989087581634521484375"><ele></ele><time>2016-7-29T1:32:35Z</time></trkpt>
<trkpt lat="46.4518098346889019012451171875" lon="7.0129662193357944488525390625"><ele></ele><time>2016-7-29T1:32:38Z</time></trkpt>
<trkpt lat="46.4517511613667011260986328125" lon="7.01292623765766620635986328125"><ele></ele><time>2016-7-29T1:32:41Z</time></trkpt>
<trkpt lat="46.45171671174466609954833984375" lon="7.01295976527035236358642578125"><ele></ele><time>2016-7-29T1:32:44Z</time></trkpt>
<trkpt lat="46.4516437053680419921875" lon="7.01301659457385540008544921875"><ele></ele><time>2016-7-29T1:32:47Z</time></trkpt>
<trkpt lat="46.45156282000243663787841796875" lon="7.01314584352076053619384765625"><ele></ele><time>2016-7-29T1:32:50Z</time></trkpt>
<trkpt lat="46.4515194855630397796630859375" lon="7.0134119689464569091796875"><ele></ele><time>2016-7-29T1:32:53Z</time></trkpt>
<trkpt lat="46.45145259797573089599609375" lon="7.01358698308467864990234375"><ele></ele><time>2016-7-29T1:32:56Z</time></trkpt>
<trkpt lat="46.45137271843850612640380859375" lon="7.0137024857103824615478515625"><ele></ele><time>2016-7-29T1:32:59Z</time></trkpt>
<trkpt lat="46.45127632655203342437744140625" lon="7.0138352550566196441650390625"><ele></ele><time>2016-7-29T1:33:2Z</time></trkpt>
<trkpt lat="46.45126895047724246978759765625" lon="7.0138674415647983551025390625"><ele></ele><time>2016-7-29T1:33:5Z</time></trkpt>
<trkpt lat="46.45123123191297054290771484375" lon="7.013984955847263336181640625"><ele></ele><time>2016-7-29T1:33:8Z</time></trkpt>
<trkpt lat="46.4512187428772449493408203125" lon="7.01401881873607635498046875"><ele></ele><time>2016-7-29T1:33:11Z</time></trkpt>
<trkpt lat="46.4511956088244915008544921875" lon="7.01404337771236896514892578125"><ele></ele><time>2016-7-29T1:33:14Z</time></trkpt>
<trkpt lat="46.4511466585099697113037109375" lon="7.0140783302485942840576171875"><ele></ele><time>2016-7-29T1:33:17Z</time></trkpt>
<trkpt lat="46.45109854638576507568359375" lon="7.01415033079683780670166015625"><ele></ele><time>2016-7-29T1:33:20Z</time></trkpt>
<trkpt lat="46.451037190854549407958984375" lon="7.0142825134098529815673828125"><ele></ele><time>2016-7-29T1:33:23Z</time></trkpt>
<trkpt lat="46.4510001428425312042236328125" lon="7.01450069434940814971923828125"><ele></ele><time>2016-7-29T1:33:26Z</time></trkpt>
<trkpt lat="46.4509646035730838775634765625" lon="7.01454721391201019287109375"><ele></ele><time>2016-7-29T1:33:29Z</time></trkpt>
<trkpt lat="46.4508962072432041168212890625" lon="7.01458183117210865020751953125"><ele></ele><time>2016-7-29T1:33:32Z</time></trkpt>
<trkpt lat="46.45079671405255794525146484375" lon="7.0145953260362148284912109375"><ele></ele><time>2016-7-29T1:33:35Z</time></trkpt>
<trkpt lat="46.4507201872766017913818359375" lon="7.01462726108729839324951171875"><ele></ele><time>2016-7-29T1:33:38Z</time></trkpt>
<trkpt lat="46.45063863135874271392822265625" lon="7.01467906124889850616455078125"><ele></ele><time>2016-7-29T1:33:41Z</time></trkpt>
<trkpt lat="46.45058448426425457000732421875" lon="7.0147210545837879180908203125"><ele></ele><time>2016-7-29T1:33:44Z</time></trkpt>
<trkpt lat="46.45042791031301021575927734375" lon="7.0148947276175022125244140625"><ele></ele><time>2016-7-29T1:33:47Z</time></trkpt>
<trkpt lat="46.45033470354974269866943359375" lon="7.0150365494191646575927734375"><ele></ele><time>2016-7-29T1:33:50Z</time></trkpt>
<trkpt lat="46.4502860046923160552978515625" lon="7.0152385532855987548828125"><ele></ele><time>2016-7-29T1:33:53Z</time></trkpt>
<trkpt lat="46.4501993358135223388671875" lon="7.01535715721547603607177734375"><ele></ele><time>2016-7-29T1:33:56Z</time></trkpt>
<trkpt lat="46.450175531208515167236328125" lon="7.01537928543984889984130859375"><ele></ele><time>2016-7-29T1:33:59Z</time></trkpt>
<trkpt lat="46.45004569552838802337646484375" lon="7.01560123823583126068115234375"><ele></ele><time>2016-7-29T1:34:2Z</time></trkpt>
<trkpt lat="46.44992616958916187286376953125" lon="7.01581053435802459716796875"><ele></ele><time>2016-7-29T1:34:5Z</time></trkpt>
<trkpt lat="46.4498243294656276702880859375" lon="7.01601161621510982513427734375"><ele></ele><time>2016-7-29T1:34:8Z</time></trkpt>
<trkpt lat="46.44976557232439517974853515625" lon="7.0161748118698596954345703125"><ele></ele><time>2016-7-29T1:34:11Z</time></trkpt>
<trkpt lat="46.4497311227023601531982421875" lon="7.016208507120609283447265625"><ele></ele><time>2016-7-29T1:34:14Z</time></trkpt>
<trkpt lat="46.44963632337749004364013671875" lon="7.0163122750818729400634765625"><ele></ele><time>2016-7-29T1:34:17Z</time></trkpt>
<trkpt lat="46.44949181936681270599365234375" lon="7.01649181544780731201171875"><ele></ele><time>2016-7-29T1:34:20Z</time></trkpt>
<trkpt lat="46.44938922487199306488037109375" lon="7.01655023731291294097900390625"><ele></ele><time>2016-7-29T1:34:23Z</time></trkpt>
<trkpt lat="46.44926517270505428314208984375" lon="7.0166180469095706939697265625"><ele></ele><time>2016-7-29T1:34:26Z</time></trkpt>
<trkpt lat="46.4491189084947109222412109375" lon="7.01665065251290798187255859375"><ele></ele><time>2016-7-29T1:34:29Z</time></trkpt>
<trkpt lat="46.44901069812476634979248046875" lon="7.01664562337100505828857421875"><ele></ele><time>2016-7-29T1:34:32Z</time></trkpt>
<trkpt lat="46.44896945916116237640380859375" lon="7.01666926033794879913330078125"><ele></ele><time>2016-7-29T1:34:35Z</time></trkpt>
<trkpt lat="46.4489579759538173675537109375" lon="7.01668418012559413909912109375"><ele></ele><time>2016-7-29T1:34:38Z</time></trkpt>
<trkpt lat="46.4488724805414676666259765625" lon="7.0167015306651592254638671875"><ele></ele><time>2016-7-29T1:34:41Z</time></trkpt>
<trkpt lat="46.4488587342202663421630859375" lon="7.0167122595012187957763671875"><ele></ele><time>2016-7-29T1:34:44Z</time></trkpt>
<trkpt lat="46.44878304563462734222412109375" lon="7.0167534984648227691650390625"><ele></ele><time>2016-7-29T1:34:47Z</time></trkpt>
<trkpt lat="46.44875572063028812408447265625" lon="7.0167675800621509552001953125"><ele></ele><time>2016-7-29T1:34:50Z</time></trkpt>
<trkpt lat="46.44859646447002887725830078125" lon="7.01687403023242950439453125"><ele></ele><time>2016-7-29T1:34:53Z</time></trkpt>
<trkpt lat="46.448456235229969024658203125" lon="7.0168976671993732452392578125"><ele></ele><time>2016-7-29T1:34:56Z</time></trkpt>
<trkpt lat="46.44831567071378231048583984375" lon="7.016839496791362762451171875"><ele></ele><time>2016-7-29T1:34:59Z</time></trkpt>
<trkpt lat="46.44829354248940944671630859375" lon="7.01685114763677120208740234375"><ele></ele><time>2016-7-29T1:35:2Z</time></trkpt>
<trkpt lat="46.44822011701762676239013671875" lon="7.0168815739452838897705078125"><ele></ele><time>2016-7-29T1:35:5Z</time></trkpt>
<trkpt lat="46.448194049298763275146484375" lon="7.01689825393259525299072265625"><ele></ele><time>2016-7-29T1:35:8Z</time></trkpt>
<trkpt lat="46.44805298186838626861572265625" lon="7.01698408462107181549072265625"><ele></ele><time>2016-7-29T1:35:11Z</time></trkpt>
<trkpt lat="46.44790948368608951568603515625" lon="7.0170570909976959228515625"><ele></ele><time>2016-7-29T1:35:14Z</time></trkpt>
<trkpt lat="46.44777101464569568634033203125" lon="7.0170954801142215728759765625"><ele></ele><time>2016-7-29T1:35:17Z</time></trkpt>
<trkpt lat="46.4475846849381923675537109375" lon="7.017156668007373809814453125"><ele></ele><time>2016-7-29T1:35:20Z</time></trkpt>
<trkpt lat="46.44742517732083797454833984375" lon="7.0172141678631305694580078125"><ele></ele><time>2016-7-29T1:35:23Z</time></trkpt>
<trkpt lat="46.44729274325072765350341796875" lon="7.017289437353610992431640625"><ele></ele><time>2016-7-29T1:35:26Z</time></trkpt>
<trkpt lat="46.447107084095478057861328125" lon="7.0173950493335723876953125"><ele></ele><time>2016-7-29T1:35:29Z</time></trkpt>
<trkpt lat="46.44697808660566806793212890625" lon="7.0175554789602756500244140625"><ele></ele><time>2016-7-29T1:35:32Z</time></trkpt>
<trkpt lat="46.446960233151912689208984375" lon="7.01758439652621746063232421875"><ele></ele><time>2016-7-29T1:35:35Z</time></trkpt>
<trkpt lat="46.44679754041135311126708984375" lon="7.01781070791184902191162109375"><ele></ele><time>2016-7-29T1:35:38Z</time></trkpt>
<trkpt lat="46.44672294147312641143798828125" lon="7.017947919666767120361328125"><ele></ele><time>2016-7-29T1:35:41Z</time></trkpt>
<trkpt lat="46.4466024935245513916015625" lon="7.01815352775156497955322265625"><ele></ele><time>2016-7-29T1:35:44Z</time></trkpt>
<trkpt lat="46.44657122902572154998779296875" lon="7.01819258742034435272216796875"><ele></ele><time>2016-7-29T1:35:47Z</time></trkpt>
<trkpt lat="46.4464299939572811126708984375" lon="7.01838637702167034149169921875"><ele></ele><time>2016-7-29T1:35:50Z</time></trkpt>
<trkpt lat="46.4464048482477664947509765625" lon="7.018424682319164276123046875"><ele></ele><time>2016-7-29T1:35:53Z</time></trkpt>
<trkpt lat="46.4463253878057003021240234375" lon="7.01854747720062732696533203125"><ele></ele><time>2016-7-29T1:35:56Z</time></trkpt>
<trkpt lat="46.44624047912657260894775390625" lon="7.0186722837388515472412109375"><ele></ele><time>2016-7-29T1:35:59Z</time></trkpt>
<trkpt lat="46.446133442223072052001953125" lon="7.0188380777835845947265625"><ele></ele><time>2016-7-29T1:36:2Z</time></trkpt>
<trkpt lat="46.44600595347583293914794921875" lon="7.01901066116988658905029296875"><ele></ele><time>2016-7-29T1:36:5Z</time></trkpt>
<trkpt lat="46.445862539112567901611328125" lon="7.01919439248740673065185546875"><ele></ele><time>2016-7-29T1:36:8Z</time></trkpt>
<trkpt lat="46.44575332291424274444580078125" lon="7.0194209553301334381103515625"><ele></ele><time>2016-7-29T1:36:11Z</time></trkpt>
<trkpt lat="46.445707641541957855224609375" lon="7.0195423252880573272705078125"><ele></ele><time>2016-7-29T1:36:14Z</time></trkpt>
<trkpt lat="46.4457120001316070556640625" lon="7.01962488703429698944091796875"><ele></ele><time>2016-7-29T1:36:17Z</time></trkpt>
<trkpt lat="46.44568140618503093719482421875" lon="7.01989092864096164703369140625"><ele></ele><time>2016-7-29T1:36:20Z</time></trkpt>
<trkpt lat="46.4457232318818569183349609375" lon="7.02009360305964946746826171875"><ele></ele><time>2016-7-29T1:36:23Z</time></trkpt>
<trkpt lat="46.44577360711991786956787109375" lon="7.020255289971828460693359375"><ele></ele><time>2016-7-29T1:36:26Z</time></trkpt>
<trkpt lat="46.44580445252358913421630859375" lon="7.02034690417349338531494140625"><ele></ele><time>2016-7-29T1:36:29Z</time></trkpt>
<trkpt lat="46.4458077214658260345458984375" lon="7.0203996263444423675537109375"><ele></ele><time>2016-7-29T1:36:32Z</time></trkpt>
<trkpt lat="46.44580713473260402679443359375" lon="7.0206048153340816497802734375"><ele></ele><time>2016-7-29T1:36:35Z</time></trkpt>
<trkpt lat="46.44582205452024936676025390625" lon="7.0207918994128704071044921875"><ele></ele><time>2016-7-29T1:36:38Z</time></trkpt>
<trkpt lat="46.4458114095032215118408203125" lon="7.0209823362529277801513671875"><ele></ele><time>2016-7-29T1:36:41Z</time></trkpt>
<trkpt lat="46.445787437260150909423828125" lon="7.021176628768444061279296875"><ele></ele><time>2016-7-29T1:36:44Z</time></trkpt>
<trkpt lat="46.4457497186958789825439453125" lon="7.02136815525591373443603515625"><ele></ele><time>2016-7-29T1:36:47Z</time></trkpt>
<trkpt lat="46.44567738287150859832763671875" lon="7.0214979909360408782958984375"><ele></ele><time>2016-7-29T1:36:50Z</time></trkpt>
<trkpt lat="46.445536650717258453369140625" lon="7.02161843888461589813232421875"><ele></ele><time>2016-7-29T1:36:53Z</time></trkpt>
<trkpt lat="46.4453986845910549163818359375" lon="7.021669484674930572509765625"><ele></ele><time>2016-7-29T1:36:56Z</time></trkpt>
<trkpt lat="46.445256359875202178955078125" lon="7.0216770283877849578857421875"><ele></ele><time>2016-7-29T1:36:59Z</time></trkpt>
<trkpt lat="46.44515468738973140716552734375" lon="7.02169806696474552154541015625"><ele></ele><time>2016-7-29T1:37:2Z</time></trkpt>
<trkpt lat="46.44497984088957309722900390625" lon="7.0217135734856128692626953125"><ele></ele><time>2016-7-29T1:37:5Z</time></trkpt>
<trkpt lat="46.444875486195087432861328125" lon="7.0217026770114898681640625"><ele></ele><time>2016-7-29T1:37:8Z</time></trkpt>
<trkpt lat="46.44464372657239437103271484375" lon="7.0217241346836090087890625"><ele></ele><time>2016-7-29T1:37:11Z</time></trkpt>
<trkpt lat="46.4444352686405181884765625" lon="7.02177501283586025238037109375"><ele></ele><time>2016-7-29T1:37:14Z</time></trkpt>
<trkpt lat="46.4442771859467029571533203125" lon="7.0218336023390293121337890625"><ele></ele><time>2016-7-29T1:37:17Z</time></trkpt>
<trkpt lat="46.44405640661716461181640625" lon="7.022001743316650390625"><ele></ele><time>2016-7-29T1:37:20Z</time></trkpt>
<trkpt lat="46.44386672414839267730712890625" lon="7.02214867807924747467041015625"><ele></ele><time>2016-7-29T1:37:23Z</time></trkpt>
<trkpt lat="46.4436592720448970794677734375" lon="7.0222399570047855377197265625"><ele></ele><time>2016-7-29T1:37:26Z</time></trkpt>
<trkpt lat="46.4434031210839748382568359375" lon="7.0223705470561981201171875"><ele></ele><time>2016-7-29T1:37:29Z</time></trkpt>
<trkpt lat="46.4431734569370746612548828125" lon="7.0225728861987590789794921875"><ele></ele><time>2016-7-29T1:37:32Z</time></trkpt>
<trkpt lat="46.4429766498506069183349609375" lon="7.02273742295801639556884765625"><ele></ele><time>2016-7-29T1:37:35Z</time></trkpt>
<trkpt lat="46.44280591048300266265869140625" lon="7.02281487174332141876220703125"><ele></ele><time>2016-7-29T1:37:38Z</time></trkpt>
<trkpt lat="46.4426138810813426971435546875" lon="7.022979743778705596923828125"><ele></ele><time>2016-7-29T1:37:41Z</time></trkpt>
<trkpt lat="46.4423825405538082122802734375" lon="7.02319725416600704193115234375"><ele></ele><time>2016-7-29T1:37:44Z</time></trkpt>
<trkpt lat="46.44214290194213390350341796875" lon="7.023413591086864471435546875"><ele></ele><time>2016-7-29T1:37:47Z</time></trkpt>
<trkpt lat="46.44193536601960659027099609375" lon="7.023608051240444183349609375"><ele></ele><time>2016-7-29T1:37:50Z</time></trkpt>
<trkpt lat="46.44166655838489532470703125" lon="7.02389429323375225067138671875"><ele></ele><time>2016-7-29T1:37:53Z</time></trkpt>
<trkpt lat="46.44154694862663745880126953125" lon="7.02399822883307933807373046875"><ele></ele><time>2016-7-29T1:37:56Z</time></trkpt>
<trkpt lat="46.4414601959288120269775390625" lon="7.02402211725711822509765625"><ele></ele><time>2016-7-29T1:37:59Z</time></trkpt>
<trkpt lat="46.4413612894713878631591796875" lon="7.02404818497598171234130859375"><ele></ele><time>2016-7-29T1:38:2Z</time></trkpt>
<trkpt lat="46.44124821759760379791259765625" lon="7.02408489771187305450439453125"><ele></ele><time>2016-7-29T1:38:5Z</time></trkpt>
<trkpt lat="46.441109664738178253173828125" lon="7.02415295876562595367431640625"><ele></ele><time>2016-7-29T1:38:8Z</time></trkpt>
<trkpt lat="46.44092358648777008056640625" lon="7.0242573134601116180419921875"><ele></ele><time>2016-7-29T1:38:11Z</time></trkpt>
<trkpt lat="46.44069517962634563446044921875" lon="7.02434490434825420379638671875"><ele></ele><time>2016-7-29T1:38:14Z</time></trkpt>
<trkpt lat="46.44045059569180011749267578125" lon="7.02443073503673076629638671875"><ele></ele><time>2016-7-29T1:38:17Z</time></trkpt>
<trkpt lat="46.4403695426881313323974609375" lon="7.02448370866477489471435546875"><ele></ele><time>2016-7-29T1:38:20Z</time></trkpt>
<trkpt lat="46.44024825654923915863037109375" lon="7.0246076770126819610595703125"><ele></ele><time>2016-7-29T1:38:23Z</time></trkpt>
<trkpt lat="46.440160162746906280517578125" lon="7.024790234863758087158203125"><ele></ele><time>2016-7-29T1:38:26Z</time></trkpt>
<trkpt lat="46.44007734954357147216796875" lon="7.024959884583950042724609375"><ele></ele><time>2016-7-29T1:38:29Z</time></trkpt>
<trkpt lat="46.4399541355669498443603515625" lon="7.0251592062413692474365234375"><ele></ele><time>2016-7-29T1:38:32Z</time></trkpt>
<trkpt lat="46.439806111156940460205078125" lon="7.0253275148570537567138671875"><ele></ele><time>2016-7-29T1:38:35Z</time></trkpt>
<trkpt lat="46.4396362937986850738525390625" lon="7.025501020252704620361328125"><ele></ele><time>2016-7-29T1:38:38Z</time></trkpt>
<trkpt lat="46.4394039474427700042724609375" lon="7.0256627909839153289794921875"><ele></ele><time>2016-7-29T1:38:41Z</time></trkpt>
<trkpt lat="46.43924561329185962677001953125" lon="7.02579664997756481170654296875"><ele></ele><time>2016-7-29T1:38:44Z</time></trkpt>
<trkpt lat="46.43906674347817897796630859375" lon="7.02596177347004413604736328125"><ele></ele><time>2016-7-29T1:38:47Z</time></trkpt>
<trkpt lat="46.4388628117740154266357421875" lon="7.026123292744159698486328125"><ele></ele><time>2016-7-29T1:38:50Z</time></trkpt>
<trkpt lat="46.43867631442844867706298828125" lon="7.026260755956172943115234375"><ele></ele><time>2016-7-29T1:38:53Z</time></trkpt>
<trkpt lat="46.438536755740642547607421875" lon="7.02635966241359710693359375"><ele></ele><time>2016-7-29T1:38:56Z</time></trkpt>
<trkpt lat="46.43825537525117397308349609375" lon="7.02657633461058139801025390625"><ele></ele><time>2016-7-29T1:38:59Z</time></trkpt>
<trkpt lat="46.4381449855864048004150390625" lon="7.02659494243562221527099609375"><ele></ele><time>2016-7-29T1:39:2Z</time></trkpt>
<trkpt lat="46.43792898394167423248291015625" lon="7.02668915502727031707763671875"><ele></ele><time>2016-7-29T1:39:5Z</time></trkpt>
<trkpt lat="46.43773712217807769775390625" lon="7.0267410390079021453857421875"><ele></ele><time>2016-7-29T1:39:8Z</time></trkpt>
<trkpt lat="46.437573172152042388916015625" lon="7.026792503893375396728515625"><ele></ele><time>2016-7-29T1:39:11Z</time></trkpt>
<trkpt lat="46.43741249106824398040771484375" lon="7.0268396101891994476318359375"><ele></ele><time>2016-7-29T1:39:14Z</time></trkpt>
<trkpt lat="46.4372632093727588653564453125" lon="7.0268738083541393280029296875"><ele></ele><time>2016-7-29T1:39:17Z</time></trkpt>
<trkpt lat="46.43701636232435703277587890625" lon="7.02694974839687347412109375"><ele></ele><time>2016-7-29T1:39:20Z</time></trkpt>
<trkpt lat="46.4367944933474063873291015625" lon="7.02693742699921131134033203125"><ele></ele><time>2016-7-29T1:39:23Z</time></trkpt>
<trkpt lat="46.4365557767450809478759765625" lon="7.026916556060314178466796875"><ele></ele><time>2016-7-29T1:39:26Z</time></trkpt>
<trkpt lat="46.4363173954188823699951171875" lon="7.02690322883427143096923828125"><ele></ele><time>2016-7-29T1:39:29Z</time></trkpt>
<trkpt lat="46.43599326722323894500732421875" lon="7.02690389938652515411376953125"><ele></ele><time>2016-7-29T1:39:32Z</time></trkpt>
<trkpt lat="46.43577081151306629180908203125" lon="7.02687657438218593597412109375"><ele></ele><time>2016-7-29T1:39:35Z</time></trkpt>
<trkpt lat="46.43556009046733379364013671875" lon="7.0268483273684978485107421875"><ele></ele><time>2016-7-29T1:39:38Z</time></trkpt>
<trkpt lat="46.4353390596807003021240234375" lon="7.0268337428569793701171875"><ele></ele><time>2016-7-29T1:39:41Z</time></trkpt>
<trkpt lat="46.435112915933132171630859375" lon="7.0268355868756771087646484375"><ele></ele><time>2016-7-29T1:39:44Z</time></trkpt>
<trkpt lat="46.4348807372152805328369140625" lon="7.026829384267330169677734375"><ele></ele><time>2016-7-29T1:39:47Z</time></trkpt>
<trkpt lat="46.4346480555832386016845703125" lon="7.02683080919086933135986328125"><ele></ele><time>2016-7-29T1:39:50Z</time></trkpt>
<trkpt lat="46.43444060347974300384521484375" lon="7.0268422923982143402099609375"><ele></ele><time>2016-7-29T1:39:53Z</time></trkpt>
<trkpt lat="46.4341650903224945068359375" lon="7.02691085636615753173828125"><ele></ele><time>2016-7-29T1:39:56Z</time></trkpt>
<trkpt lat="46.43397490493953227996826171875" lon="7.02701688744127750396728515625"><ele></ele><time>2016-7-29T1:39:59Z</time></trkpt>
<trkpt lat="46.43391338177025318145751953125" lon="7.02708126045763492584228515625"><ele></ele><time>2016-7-29T1:40:2Z</time></trkpt>
<trkpt lat="46.433818750083446502685546875" lon="7.02719324268400669097900390625"><ele></ele><time>2016-7-29T1:40:5Z</time></trkpt>
<trkpt lat="46.43375999294221401214599609375" lon="7.0273002795875072479248046875"><ele></ele><time>2016-7-29T1:40:8Z</time></trkpt>
<trkpt lat="46.4336797781288623809814453125" lon="7.02743145637214183807373046875"><ele></ele><time>2016-7-29T1:40:11Z</time></trkpt>
<trkpt lat="46.4336234517395496368408203125" lon="7.0275755412876605987548828125"><ele></ele><time>2016-7-29T1:40:14Z</time></trkpt>
<trkpt lat="46.433568298816680908203125" lon="7.027752399444580078125"><ele></ele><time>2016-7-29T1:40:17Z</time></trkpt>
<trkpt lat="46.4335191808640956878662109375" lon="7.02785859815776348114013671875"><ele></ele><time>2016-7-29T1:40:20Z</time></trkpt>
<trkpt lat="46.433451287448406219482421875" lon="7.027977369725704193115234375"><ele></ele><time>2016-7-29T1:40:23Z</time></trkpt>
<trkpt lat="46.4333548955619335174560546875" lon="7.02812044881284236907958984375"><ele></ele><time>2016-7-29T1:40:26Z</time></trkpt>
<trkpt lat="46.43331424333155155181884765625" lon="7.02824701555073261260986328125"><ele></ele><time>2016-7-29T1:40:29Z</time></trkpt>
<trkpt lat="46.43327124416828155517578125" lon="7.02850920148193836212158203125"><ele></ele><time>2016-7-29T1:40:32Z</time></trkpt>
<trkpt lat="46.43328909762203693389892578125" lon="7.0287024043500423431396484375"><ele></ele><time>2016-7-29T1:40:35Z</time></trkpt>
<trkpt lat="46.433303765952587127685546875" lon="7.02898043207824230194091796875"><ele></ele><time>2016-7-29T1:40:38Z</time></trkpt>
<trkpt lat="46.43326948396861553192138671875" lon="7.0292881317436695098876953125"><ele></ele><time>2016-7-29T1:40:41Z</time></trkpt>
<trkpt lat="46.43317040987312793731689453125" lon="7.02959281392395496368408203125"><ele></ele><time>2016-7-29T1:40:44Z</time></trkpt>
<trkpt lat="46.43314492888748645782470703125" lon="7.029641680419445037841796875"><ele></ele><time>2016-7-29T1:40:47Z</time></trkpt>
<trkpt lat="46.4330041967332363128662109375" lon="7.02990395016968250274658203125"><ele></ele><time>2016-7-29T1:40:50Z</time></trkpt>
<trkpt lat="46.43289179541170597076416015625" lon="7.0300827361643314361572265625"><ele></ele><time>2016-7-29T1:40:53Z</time></trkpt>
<trkpt lat="46.4328157715499401092529296875" lon="7.0302037708461284637451171875"><ele></ele><time>2016-7-29T1:40:56Z</time></trkpt>
<trkpt lat="46.432688198983669281005859375" lon="7.030376605689525604248046875"><ele></ele><time>2016-7-29T1:40:59Z</time></trkpt>
<trkpt lat="46.4326286874711513519287109375" lon="7.03046319074928760528564453125"><ele></ele><time>2016-7-29T1:41:2Z</time></trkpt>
<trkpt lat="46.43254411406815052032470703125" lon="7.03059243969619274139404296875"><ele></ele><time>2016-7-29T1:41:5Z</time></trkpt>
<trkpt lat="46.43249885179102420806884765625" lon="7.0306600816547870635986328125"><ele></ele><time>2016-7-29T1:41:8Z</time></trkpt>
<trkpt lat="46.43244520761072635650634765625" lon="7.03072269447147846221923828125"><ele></ele><time>2016-7-29T1:41:11Z</time></trkpt>
<trkpt lat="46.43235501833260059356689453125" lon="7.03081808052957057952880859375"><ele></ele><time>2016-7-29T1:41:14Z</time></trkpt>
<trkpt lat="46.43226650543510913848876953125" lon="7.03090273775160312652587890625"><ele></ele><time>2016-7-29T1:41:17Z</time></trkpt>
<trkpt lat="46.43214999698102474212646484375" lon="7.03098219819366931915283203125"><ele></ele><time>2016-7-29T1:41:20Z</time></trkpt>
<trkpt lat="46.43203466199338436126708984375" lon="7.03106232918798923492431640625"><ele></ele><time>2016-7-29T1:41:23Z</time></trkpt>
<trkpt lat="46.43195335753262042999267578125" lon="7.03110088594257831573486328125"><ele></ele><time>2016-7-29T1:41:26Z</time></trkpt>
<trkpt lat="46.431895606219768524169921875" lon="7.03119861893355846405029296875"><ele></ele><time>2016-7-29T1:41:29Z</time></trkpt>
<trkpt lat="46.43189317546784877777099609375" lon="7.031219489872455596923828125"><ele></ele><time>2016-7-29T1:41:32Z</time></trkpt>
<trkpt lat="46.43189183436334133148193359375" lon="7.03135703690350055694580078125"><ele></ele><time>2016-7-29T1:41:35Z</time></trkpt>
<trkpt lat="46.431939192116260528564453125" lon="7.031430043280124664306640625"><ele></ele><time>2016-7-29T1:41:38Z</time></trkpt>
<trkpt lat="46.43197171390056610107421875" lon="7.03147237189114093780517578125"><ele></ele><time>2016-7-29T1:41:41Z</time></trkpt>
<trkpt lat="46.4320935867726802825927734375" lon="7.0314868725836277008056640625"><ele></ele><time>2016-7-29T1:41:44Z</time></trkpt>
<trkpt lat="46.43224186263978481292724609375" lon="7.0314754731953144073486328125"><ele></ele><time>2016-7-29T1:41:47Z</time></trkpt>
<trkpt lat="46.43237966112792491912841796875" lon="7.0314570330083370208740234375"><ele></ele><time>2016-7-29T1:41:50Z</time></trkpt>
<trkpt lat="46.4325106702744960784912109375" lon="7.0314399339258670806884765625"><ele></ele><time>2016-7-29T1:41:53Z</time></trkpt>
<trkpt lat="46.43262407742440700531005859375" lon="7.03142769634723663330078125"><ele></ele><time>2016-7-29T1:41:56Z</time></trkpt>
<trkpt lat="46.43273740075528621673583984375" lon="7.03142342157661914825439453125"><ele></ele><time>2016-7-29T1:41:59Z</time></trkpt>
<trkpt lat="46.4328791387379169464111328125" lon="7.0314154587686061859130859375"><ele></ele><time>2016-7-29T1:42:2Z</time></trkpt>
<trkpt lat="46.43302439711987972259521484375" lon="7.03140313737094402313232421875"><ele></ele><time>2016-7-29T1:42:5Z</time></trkpt>
<trkpt lat="46.433132104575634002685546875" lon="7.0313752256333827972412109375"><ele></ele><time>2016-7-29T1:42:8Z</time></trkpt>
<trkpt lat="46.43321734853088855743408203125" lon="7.031320743262767791748046875"><ele></ele><time>2016-7-29T1:42:11Z</time></trkpt>
<trkpt lat="46.43331491388380527496337890625" lon="7.031301297247409820556640625"><ele></ele><time>2016-7-29T1:42:14Z</time></trkpt>
<trkpt lat="46.43340342678129673004150390625" lon="7.03124237246811389923095703125"><ele></ele><time>2016-7-29T1:42:17Z</time></trkpt>
<trkpt lat="46.43348707817494869232177734375" lon="7.0312079228460788726806640625"><ele></ele><time>2016-7-29T1:42:20Z</time></trkpt>
<trkpt lat="46.4335919357836246490478515625" lon="7.03114363364875316619873046875"><ele></ele><time>2016-7-29T1:42:23Z</time></trkpt>
<trkpt lat="46.43369193188846111297607421875" lon="7.031081356108188629150390625"><ele></ele><time>2016-7-29T1:42:26Z</time></trkpt>
<trkpt lat="46.433824785053730010986328125" lon="7.03102025203406810760498046875"><ele></ele><time>2016-7-29T1:42:29Z</time></trkpt>
<trkpt lat="46.43392226658761501312255859375" lon="7.03098705969750881195068359375"><ele></ele><time>2016-7-29T1:42:32Z</time></trkpt>
<trkpt lat="46.4340229332447052001953125" lon="7.03093375079333782196044921875"><ele></ele><time>2016-7-29T1:42:35Z</time></trkpt>
<trkpt lat="46.4341709576547145843505859375" lon="7.03090860508382320404052734375"><ele></ele><time>2016-7-29T1:42:38Z</time></trkpt>
<trkpt lat="46.4342997036874294281005859375" lon="7.03093894757330417633056640625"><ele></ele><time>2016-7-29T1:42:41Z</time></trkpt>
<trkpt lat="46.4344029687345027923583984375" lon="7.0309229381382465362548828125"><ele></ele><time>2016-7-29T1:42:44Z</time></trkpt>
<trkpt lat="46.43446750938892364501953125" lon="7.0308870635926723480224609375"><ele></ele><time>2016-7-29T1:42:47Z</time></trkpt>
<trkpt lat="46.43449701368808746337890625" lon="7.03089133836328983306884765625"><ele></ele><time>2016-7-29T1:42:50Z</time></trkpt>
<trkpt lat="46.434526182711124420166015625" lon="7.0309028215706348419189453125"><ele></ele><time>2016-7-29T1:42:53Z</time></trkpt>
<trkpt lat="46.43461008556187152862548828125" lon="7.03089938499033451080322265625"><ele></ele><time>2016-7-29T1:42:56Z</time></trkpt>
<trkpt lat="46.43474017269909381866455078125" lon="7.03090089373290538787841796875"><ele></ele><time>2016-7-29T1:42:59Z</time></trkpt>
<trkpt lat="46.43484461121261119842529296875" lon="7.03088982962071895599365234375"><ele></ele><time>2016-7-29T1:43:2Z</time></trkpt>
<trkpt lat="46.43485601060092449188232421875" lon="7.03089804388582706451416015625"><ele></ele><time>2016-7-29T1:43:5Z</time></trkpt>
<trkpt lat="46.434942595660686492919921875" lon="7.0308914221823215484619140625"><ele></ele><time>2016-7-29T1:43:8Z</time></trkpt>
<trkpt lat="46.43498308025300502777099609375" lon="7.0308726467192173004150390625"><ele></ele><time>2016-7-29T1:43:11Z</time></trkpt>
<trkpt lat="46.43500671721994876861572265625" lon="7.03089921735227108001708984375"><ele></ele><time>2016-7-29T1:43:14Z</time></trkpt>
<trkpt lat="46.43508299253880977630615234375" lon="7.0309026539325714111328125"><ele></ele><time>2016-7-29T1:43:17Z</time></trkpt>
<trkpt lat="46.43521022982895374298095703125" lon="7.03089150600135326385498046875"><ele></ele><time>2016-7-29T1:43:20Z</time></trkpt>
<trkpt lat="46.4353125728666782379150390625" lon="7.0308907516300678253173828125"><ele></ele><time>2016-7-29T1:43:23Z</time></trkpt>
<trkpt lat="46.43547006882727146148681640625" lon="7.03089125454425811767578125"><ele></ele><time>2016-7-29T1:43:26Z</time></trkpt>
<trkpt lat="46.4355885051190853118896484375" lon="7.030923105776309967041015625"><ele></ele><time>2016-7-29T1:43:29Z</time></trkpt>
<trkpt lat="46.43563552759587764739990234375" lon="7.03103550709784030914306640625"><ele></ele><time>2016-7-29T1:43:32Z</time></trkpt>
<trkpt lat="46.43559043295681476593017578125" lon="7.03114111907780170440673828125"><ele></ele><time>2016-7-29T1:43:35Z</time></trkpt>
<trkpt lat="46.43554684706032276153564453125" lon="7.03121982514858245849609375"><ele></ele><time>2016-7-29T1:43:38Z</time></trkpt>
<trkpt lat="46.4355231262743473052978515625" lon="7.0312350802123546600341796875"><ele></ele><time>2016-7-29T1:43:41Z</time></trkpt>
<trkpt lat="46.43543587066233158111572265625" lon="7.03133775852620601654052734375"><ele></ele><time>2016-7-29T1:43:44Z</time></trkpt>
<trkpt lat="46.43536076880991458892822265625" lon="7.03142995946109294891357421875"><ele></ele><time>2016-7-29T1:43:47Z</time></trkpt>
<trkpt lat="46.4352743513882160186767578125" lon="7.03151377849280834197998046875"><ele></ele><time>2016-7-29T1:43:50Z</time></trkpt>
<trkpt lat="46.435175947844982147216796875" lon="7.03161050565540790557861328125"><ele></ele><time>2016-7-29T1:43:53Z</time></trkpt>
<trkpt lat="46.4350855909287929534912109375" lon="7.031715698540210723876953125"><ele></ele><time>2016-7-29T1:43:56Z</time></trkpt>
<trkpt lat="46.43500252626836299896240234375" lon="7.03184402547776699066162109375"><ele></ele><time>2016-7-29T1:43:59Z</time></trkpt>
<trkpt lat="46.434948630630970001220703125" lon="7.031969167292118072509765625"><ele></ele><time>2016-7-29T1:44:2Z</time></trkpt>
<trkpt lat="46.4348951540887355804443359375" lon="7.03212548978626728057861328125"><ele></ele><time>2016-7-29T1:44:5Z</time></trkpt>
<trkpt lat="46.43483622930943965911865234375" lon="7.03228072263300418853759765625"><ele></ele><time>2016-7-29T1:44:8Z</time></trkpt>
<trkpt lat="46.43477537669241428375244140625" lon="7.032477445900440216064453125"><ele></ele><time>2016-7-29T1:44:11Z</time></trkpt>
<trkpt lat="46.43471150659024715423583984375" lon="7.03263393603265285491943359375"><ele></ele><time>2016-7-29T1:44:14Z</time></trkpt>
<trkpt lat="46.4346410147845745086669921875" lon="7.03276419080793857574462890625"><ele></ele><time>2016-7-29T1:44:17Z</time></trkpt>
<trkpt lat="46.43462131731212139129638671875" lon="7.03279185108840465545654296875"><ele></ele><time>2016-7-29T1:44:20Z</time></trkpt>
<trkpt lat="46.43457203172147274017333984375" lon="7.0328199304640293121337890625"><ele></ele><time>2016-7-29T1:44:23Z</time></trkpt>
<trkpt lat="46.4345156215131282806396484375" lon="7.0329014025628566741943359375"><ele></ele><time>2016-7-29T1:44:26Z</time></trkpt>
<trkpt lat="46.43444613553583621978759765625" lon="7.0329731516540050506591796875"><ele></ele><time>2016-7-29T1:44:29Z</time></trkpt>
<trkpt lat="46.43438444472849369049072265625" lon="7.03303710557520389556884765625"><ele></ele><time>2016-7-29T1:44:32Z</time></trkpt>
<trkpt lat="46.43437723629176616668701171875" lon="7.0330269634723663330078125"><ele></ele><time>2016-7-29T1:44:35Z</time></trkpt>
<trkpt lat="46.434346139430999755859375" lon="7.0330355130136013031005859375"><ele></ele><time>2016-7-29T1:44:38Z</time></trkpt>
<trkpt lat="46.434315629303455352783203125" lon="7.03306376002728939056396484375"><ele></ele><time>2016-7-29T1:44:41Z</time></trkpt>
<trkpt lat="46.4342903159558773040771484375" lon="7.03310097567737102508544921875"><ele></ele><time>2016-7-29T1:44:44Z</time></trkpt>
<trkpt lat="46.43422686494886875152587890625" lon="7.03315277583897113800048828125"><ele></ele><time>2016-7-29T1:44:47Z</time></trkpt>
<trkpt lat="46.4341977797448635101318359375" lon="7.03316040337085723876953125"><ele></ele><time>2016-7-29T1:44:50Z</time></trkpt>
<trkpt lat="46.4341367594897747039794921875" lon="7.0332504250109195709228515625"><ele></ele><time>2016-7-29T1:44:53Z</time></trkpt>
<trkpt lat="46.43403626047074794769287109375" lon="7.0333070866763591766357421875"><ele></ele><time>2016-7-29T1:44:56Z</time></trkpt>
<trkpt lat="46.43397423438727855682373046875" lon="7.03333072364330291748046875"><ele></ele><time>2016-7-29T1:44:59Z</time></trkpt>
<trkpt lat="46.43394154496490955352783203125" lon="7.0333540253341197967529296875"><ele></ele><time>2016-7-29T1:45:2Z</time></trkpt>
<trkpt lat="46.4339013956487178802490234375" lon="7.03338394872844219207763671875"><ele></ele><time>2016-7-29T1:45:5Z</time></trkpt>
<trkpt lat="46.43387499265372753143310546875" lon="7.0334183983504772186279296875"><ele></ele><time>2016-7-29T1:45:8Z</time></trkpt>
<trkpt lat="46.43387398682534694671630859375" lon="7.03340959735214710235595703125"><ele></ele><time>2016-7-29T1:45:11Z</time></trkpt>
<trkpt lat="46.4338383637368679046630859375" lon="7.0333925820887088775634765625"><ele></ele><time>2016-7-29T1:45:14Z</time></trkpt>
<trkpt lat="46.4338313229382038116455078125" lon="7.0333785004913806915283203125"><ele></ele><time>2016-7-29T1:45:17Z</time></trkpt>
<trkpt lat="46.433773152530193328857421875" lon="7.03339434228837490081787109375"><ele></ele><time>2016-7-29T1:45:20Z</time></trkpt>
<trkpt lat="46.43374742008745670318603515625" lon="7.0334140397608280181884765625"><ele></ele><time>2016-7-29T1:45:23Z</time></trkpt>
<trkpt lat="46.43373350612819194793701171875" lon="7.03343641944229602813720703125"><ele></ele><time>2016-7-29T1:45:26Z</time></trkpt>
<trkpt lat="46.43371590413153171539306640625" lon="7.033462487161159515380859375"><ele></ele><time>2016-7-29T1:45:29Z</time></trkpt>
<trkpt lat="46.4337055943906307220458984375" lon="7.03349676914513111114501953125"><ele></ele><time>2016-7-29T1:45:32Z</time></trkpt>
<trkpt lat="46.433682627975940704345703125" lon="7.03351219184696674346923828125"><ele></ele><time>2016-7-29T1:45:35Z</time></trkpt>
<trkpt lat="46.4336053468286991119384765625" lon="7.0335394330322742462158203125"><ele></ele><time>2016-7-29T1:45:38Z</time></trkpt>
<trkpt lat="46.4335416443645954132080078125" lon="7.03356139361858367919921875"><ele></ele><time>2016-7-29T1:45:41Z</time></trkpt>
<trkpt lat="46.43349043093621730804443359375" lon="7.03358762897551059722900390625"><ele></ele><time>2016-7-29T1:45:44Z</time></trkpt>
<trkpt lat="46.4334595017135143280029296875" lon="7.03358151018619537353515625"><ele></ele><time>2016-7-29T1:45:47Z</time></trkpt>
<trkpt lat="46.433392278850078582763671875" lon="7.03361772000789642333984375"><ele></ele><time>2016-7-29T1:45:50Z</time></trkpt>
<trkpt lat="46.4333156682550907135009765625" lon="7.03357480466365814208984375"><ele></ele><time>2016-7-29T1:45:53Z</time></trkpt>
<trkpt lat="46.4332772791385650634765625" lon="7.03356399200856685638427734375"><ele></ele><time>2016-7-29T1:45:56Z</time></trkpt>
<trkpt lat="46.43317158333957195281982421875" lon="7.0335350744426250457763671875"><ele></ele><time>2016-7-29T1:45:59Z</time></trkpt>
<trkpt lat="46.4330206252634525299072265625" lon="7.03351386822760105133056640625"><ele></ele><time>2016-7-29T1:46:2Z</time></trkpt>
<trkpt lat="46.4328710921108722686767578125" lon="7.03352459706366062164306640625"><ele></ele><time>2016-7-29T1:46:5Z</time></trkpt>
<trkpt lat="46.4327312819659709930419921875" lon="7.0335323922336101531982421875"><ele></ele><time>2016-7-29T1:46:8Z</time></trkpt>
<trkpt lat="46.432617790997028350830078125" lon="7.03353951685130596160888671875"><ele></ele><time>2016-7-29T1:46:11Z</time></trkpt>
<trkpt lat="46.4324898831546306610107421875" lon="7.0335473120212554931640625"><ele></ele><time>2016-7-29T1:46:14Z</time></trkpt>
<trkpt lat="46.43237748183310031890869140625" lon="7.03356047160923480987548828125"><ele></ele><time>2016-7-29T1:46:17Z</time></trkpt>
<trkpt lat="46.43225695006549358367919921875" lon="7.03357078135013580322265625"><ele></ele><time>2016-7-29T1:46:20Z</time></trkpt>
<trkpt lat="46.43214077688753604888916015625" lon="7.0335971005260944366455078125"><ele></ele><time>2016-7-29T1:46:23Z</time></trkpt>
<trkpt lat="46.43203206360340118408203125" lon="7.0336561091244220733642578125"><ele></ele><time>2016-7-29T1:46:26Z</time></trkpt>
<trkpt lat="46.43191329203546047210693359375" lon="7.0337587036192417144775390625"><ele></ele><time>2016-7-29T1:46:29Z</time></trkpt>
<trkpt lat="46.4317972026765346527099609375" lon="7.03386020846664905548095703125"><ele></ele><time>2016-7-29T1:46:32Z</time></trkpt>
<trkpt lat="46.431658230721950531005859375" lon="7.03398250043392181396484375"><ele></ele><time>2016-7-29T1:46:35Z</time></trkpt>
<trkpt lat="46.4314773492515087127685546875" lon="7.03413479961454868316650390625"><ele></ele><time>2016-7-29T1:46:38Z</time></trkpt>
<trkpt lat="46.43137047998607158660888671875" lon="7.0342290960252285003662109375"><ele></ele><time>2016-7-29T1:46:41Z</time></trkpt>
<trkpt lat="46.43126252107322216033935546875" lon="7.03438055701553821563720703125"><ele></ele><time>2016-7-29T1:46:44Z</time></trkpt>
<trkpt lat="46.431176774203777313232421875" lon="7.03453528694808483123779296875"><ele></ele><time>2016-7-29T1:46:47Z</time></trkpt>
<trkpt lat="46.43108767457306385040283203125" lon="7.0347430743277072906494140625"><ele></ele><time>2016-7-29T1:46:50Z</time></trkpt>
<trkpt lat="46.431008465588092803955078125" lon="7.0349479280412197113037109375"><ele></ele><time>2016-7-29T1:46:53Z</time></trkpt>
<trkpt lat="46.43094845116138458251953125" lon="7.03506921418011188507080078125"><ele></ele><time>2016-7-29T1:46:56Z</time></trkpt>
<trkpt lat="46.43087175674736499786376953125" lon="7.035190165042877197265625"><ele></ele><time>2016-7-29T1:46:59Z</time></trkpt>
<trkpt lat="46.4307886920869350433349609375" lon="7.0352986268699169158935546875"><ele></ele><time>2016-7-29T1:47:2Z</time></trkpt>
<trkpt lat="46.4307333715260028839111328125" lon="7.03534397296607494354248046875"><ele></ele><time>2016-7-29T1:47:5Z</time></trkpt>
<trkpt lat="46.430700682103633880615234375" lon="7.03538437373936176300048828125"><ele></ele><time>2016-7-29T1:47:8Z</time></trkpt>
<trkpt lat="46.430615521967411041259765625" lon="7.03548545949161052703857421875"><ele></ele><time>2016-7-29T1:47:11Z</time></trkpt>
<trkpt lat="46.430532038211822509765625" lon="7.03557078726589679718017578125"><ele></ele><time>2016-7-29T1:47:14Z</time></trkpt>
<trkpt lat="46.43044159747660160064697265625" lon="7.03566734679043292999267578125"><ele></ele><time>2016-7-29T1:47:17Z</time></trkpt>
<trkpt lat="46.4303018711507320404052734375" lon="7.03580330125987529754638671875"><ele></ele><time>2016-7-29T1:47:20Z</time></trkpt>
<trkpt lat="46.43013649620115756988525390625" lon="7.03593623824417591094970703125"><ele></ele><time>2016-7-29T1:47:23Z</time></trkpt>
<trkpt lat="46.430034153163433074951171875" lon="7.03600111417472362518310546875"><ele></ele><time>2016-7-29T1:47:26Z</time></trkpt>
<trkpt lat="46.42989727668464183807373046875" lon="7.036059200763702392578125"><ele></ele><time>2016-7-29T1:47:29Z</time></trkpt>
<trkpt lat="46.42972595058381557464599609375" lon="7.036174871027469635009765625"><ele></ele><time>2016-7-29T1:47:32Z</time></trkpt>
<trkpt lat="46.429619081318378448486328125" lon="7.03623681329190731048583984375"><ele></ele><time>2016-7-29T1:47:35Z</time></trkpt>
<trkpt lat="46.4294613339006900787353515625" lon="7.036282829940319061279296875"><ele></ele><time>2016-7-29T1:47:38Z</time></trkpt>
<trkpt lat="46.42932160757482051849365234375" lon="7.036263383924961090087890625"><ele></ele><time>2016-7-29T1:47:41Z</time></trkpt>
<trkpt lat="46.42914374358952045440673828125" lon="7.0362313650548458099365234375"><ele></ele><time>2016-7-29T1:47:44Z</time></trkpt>
<trkpt lat="46.42895900644361972808837890625" lon="7.0361839234828948974609375"><ele></ele><time>2016-7-29T1:47:47Z</time></trkpt>
<trkpt lat="46.42882606945931911468505859375" lon="7.03612483106553554534912109375"><ele></ele><time>2016-7-29T1:47:50Z</time></trkpt>
<trkpt lat="46.42868139781057834625244140625" lon="7.036052159965038299560546875"><ele></ele><time>2016-7-29T1:47:53Z</time></trkpt>
<trkpt lat="46.4284410886466503143310546875" lon="7.03600865788757801055908203125"><ele></ele><time>2016-7-29T1:47:56Z</time></trkpt>
<trkpt lat="46.4282721094787120819091796875" lon="7.03590019606053829193115234375"><ele></ele><time>2016-7-29T1:47:59Z</time></trkpt>
<trkpt lat="46.4280994422733783721923828125" lon="7.03593439422547817230224609375"><ele></ele><time>2016-7-29T1:48:2Z</time></trkpt>
<trkpt lat="46.42799693159759044647216796875" lon="7.0361019484698772430419921875"><ele></ele><time>2016-7-29T1:48:5Z</time></trkpt>
<trkpt lat="46.42797128297388553619384765625" lon="7.036349214613437652587890625"><ele></ele><time>2016-7-29T1:48:8Z</time></trkpt>
<trkpt lat="46.42796223051846027374267578125" lon="7.03658851794898509979248046875"><ele></ele><time>2016-7-29T1:48:11Z</time></trkpt>
<trkpt lat="46.4279609732329845428466796875" lon="7.036919184029102325439453125"><ele></ele><time>2016-7-29T1:48:14Z</time></trkpt>
<trkpt lat="46.42795954830944538116455078125" lon="7.037189416587352752685546875"><ele></ele><time>2016-7-29T1:48:17Z</time></trkpt>
<trkpt lat="46.42798083834350109100341796875" lon="7.0374055020511150360107421875"><ele></ele><time>2016-7-29T1:48:20Z</time></trkpt>
<trkpt lat="46.4280243404209613800048828125" lon="7.03759887255728244781494140625"><ele></ele><time>2016-7-29T1:48:23Z</time></trkpt>
<trkpt lat="46.428088210523128509521484375" lon="7.0377826876938343048095703125"><ele></ele><time>2016-7-29T1:48:26Z</time></trkpt>
<trkpt lat="46.42817144282162189483642578125" lon="7.0380545966327190399169921875"><ele></ele><time>2016-7-29T1:48:29Z</time></trkpt>
<trkpt lat="46.428218297660350799560546875" lon="7.0382557623088359832763671875"><ele></ele><time>2016-7-29T1:48:32Z</time></trkpt>
<trkpt lat="46.428212933242321014404296875" lon="7.03837369568645954132080078125"><ele></ele><time>2016-7-29T1:48:35Z</time></trkpt>
<trkpt lat="46.42822542227804660797119140625" lon="7.0383959077298641204833984375"><ele></ele><time>2016-7-29T1:48:38Z</time></trkpt>
<trkpt lat="46.42823464237153530120849609375" lon="7.0384183712303638458251953125"><ele></ele><time>2016-7-29T1:48:41Z</time></trkpt>
<trkpt lat="46.42822424881160259246826171875" lon="7.03847796656191349029541015625"><ele></ele><time>2016-7-29T1:48:44Z</time></trkpt>
<trkpt lat="46.42818569205701351165771484375" lon="7.038685418665409088134765625"><ele></ele><time>2016-7-29T1:48:47Z</time></trkpt>
<trkpt lat="46.42814529128372669219970703125" lon="7.03878365457057952880859375"><ele></ele><time>2016-7-29T1:48:50Z</time></trkpt>
<trkpt lat="46.4281032979488372802734375" lon="7.0389010012149810791015625"><ele></ele><time>2016-7-29T1:48:53Z</time></trkpt>
<trkpt lat="46.428097598254680633544921875" lon="7.03894324600696563720703125"><ele></ele><time>2016-7-29T1:48:56Z</time></trkpt>
<trkpt lat="46.42801679670810699462890625" lon="7.039253711700439453125"><ele></ele><time>2016-7-29T1:48:59Z</time></trkpt>
<trkpt lat="46.4278979413211345672607421875" lon="7.0396702922880649566650390625"><ele></ele><time>2016-7-29T1:49:2Z</time></trkpt>
<trkpt lat="46.42777380533516407012939453125" lon="7.0400639064610004425048828125"><ele></ele><time>2016-7-29T1:49:5Z</time></trkpt>
<trkpt lat="46.42692354507744312286376953125" lon="7.04221378080546855926513671875"><ele></ele><time>2016-7-29T1:49:8Z</time></trkpt>
<trkpt lat="46.4269338548183441162109375" lon="7.04222400672733783721923828125"><ele></ele><time>2016-7-29T1:49:11Z</time></trkpt>
<trkpt lat="46.4268947951495647430419921875" lon="7.042305730283260345458984375"><ele></ele><time>2016-7-29T1:49:14Z</time></trkpt>
<trkpt lat="46.42689806409180164337158203125" lon="7.0423763059079647064208984375"><ele></ele><time>2016-7-29T1:49:17Z</time></trkpt>
<trkpt lat="46.42686210572719573974609375" lon="7.0424470491707324981689453125"><ele></ele><time>2016-7-29T1:49:20Z</time></trkpt>
<trkpt lat="46.42679261974990367889404296875" lon="7.0425362326204776763916015625"><ele></ele><time>2016-7-29T1:49:23Z</time></trkpt>
<trkpt lat="46.42670460976660251617431640625" lon="7.04267822206020355224609375"><ele></ele><time>2016-7-29T1:49:26Z</time></trkpt>
<trkpt lat="46.42660167999565601348876953125" lon="7.0428416691720485687255859375"><ele></ele><time>2016-7-29T1:49:29Z</time></trkpt>
<trkpt lat="46.42647092230618000030517578125" lon="7.043088264763355255126953125"><ele></ele><time>2016-7-29T1:49:32Z</time></trkpt>
<trkpt lat="46.426451392471790313720703125" lon="7.04327845014631748199462890625"><ele></ele><time>2016-7-29T1:49:35Z</time></trkpt>
<trkpt lat="46.42650847323238849639892578125" lon="7.04346586950123310089111328125"><ele></ele><time>2016-7-29T1:49:38Z</time></trkpt>
<trkpt lat="46.42654384486377239227294921875" lon="7.04365722835063934326171875"><ele></ele><time>2016-7-29T1:49:41Z</time></trkpt>
<trkpt lat="46.42652490176260471343994140625" lon="7.04372227191925048828125"><ele></ele><time>2016-7-29T1:49:44Z</time></trkpt>
<trkpt lat="46.426492296159267425537109375" lon="7.0437331683933734893798828125"><ele></ele><time>2016-7-29T1:49:47Z</time></trkpt>
<trkpt lat="46.42649740912020206451416015625" lon="7.0437532849609851837158203125"><ele></ele><time>2016-7-29T1:49:50Z</time></trkpt>
<trkpt lat="46.4264832437038421630859375" lon="7.04373258166015148162841796875"><ele></ele><time>2016-7-29T1:49:53Z</time></trkpt>
<trkpt lat="46.42648953013122081756591796875" lon="7.04372118227183818817138671875"><ele></ele><time>2016-7-29T1:49:56Z</time></trkpt>
<trkpt lat="46.4265276677906513214111328125" lon="7.0436909236013889312744140625"><ele></ele><time>2016-7-29T1:49:59Z</time></trkpt>
<trkpt lat="46.42654702998697757720947265625" lon="7.0436895824968814849853515625"><ele></ele><time>2016-7-29T1:50:2Z</time></trkpt>
<trkpt lat="46.426619701087474822998046875" lon="7.043675668537616729736328125"><ele></ele><time>2016-7-29T1:50:5Z</time></trkpt>
<trkpt lat="46.42668600194156169891357421875" lon="7.04376342706382274627685546875"><ele></ele><time>2016-7-29T1:50:8Z</time></trkpt>
<trkpt lat="46.4267231337726116180419921875" lon="7.04386367462575435638427734375"><ele></ele><time>2016-7-29T1:50:11Z</time></trkpt>
<trkpt lat="46.426768563687801361083984375" lon="7.0440375991165637969970703125"><ele></ele><time>2016-7-29T1:50:14Z</time></trkpt>
<trkpt lat="46.4268441684544086456298828125" lon="7.04421722330152988433837890625"><ele></ele><time>2016-7-29T1:50:17Z</time></trkpt>
<trkpt lat="46.4269410632550716400146484375" lon="7.0443752221763134002685546875"><ele></ele><time>2016-7-29T1:50:20Z</time></trkpt>
<trkpt lat="46.42703133635222911834716796875" lon="7.04450757242739200592041015625"><ele></ele><time>2016-7-29T1:50:23Z</time></trkpt>
<trkpt lat="46.4271308295428752899169921875" lon="7.04466682858765125274658203125"><ele></ele><time>2016-7-29T1:50:26Z</time></trkpt>
<trkpt lat="46.42720945179462432861328125" lon="7.0448174513876438140869140625"><ele></ele><time>2016-7-29T1:50:29Z</time></trkpt>
<trkpt lat="46.4272827096283435821533203125" lon="7.044977881014347076416015625"><ele></ele><time>2016-7-29T1:50:32Z</time></trkpt>
<trkpt lat="46.42732688225805759429931640625" lon="7.04510855488479137420654296875"><ele></ele><time>2016-7-29T1:50:35Z</time></trkpt>
<trkpt lat="46.42738035880029201507568359375" lon="7.04525641165673732757568359375"><ele></ele><time>2016-7-29T1:50:38Z</time></trkpt>
<trkpt lat="46.4274863898754119873046875" lon="7.045451961457729339599609375"><ele></ele><time>2016-7-29T1:50:41Z</time></trkpt>
<trkpt lat="46.42759661190211772918701171875" lon="7.04564742743968963623046875"><ele></ele><time>2016-7-29T1:50:44Z</time></trkpt>
<trkpt lat="46.4276821911334991455078125" lon="7.04586929641664028167724609375"><ele></ele><time>2016-7-29T1:50:47Z</time></trkpt>
<trkpt lat="46.42774111591279506683349609375" lon="7.0460090227425098419189453125"><ele></ele><time>2016-7-29T1:50:50Z</time></trkpt>
<trkpt lat="46.427843458950519561767578125" lon="7.04625670798122882843017578125"><ele></ele><time>2016-7-29T1:50:53Z</time></trkpt>
<trkpt lat="46.4279314689338207244873046875" lon="7.0464908145368099212646484375"><ele></ele><time>2016-7-29T1:50:56Z</time></trkpt>
<trkpt lat="46.4279881305992603302001953125" lon="7.04670748673379421234130859375"><ele></ele><time>2016-7-29T1:50:59Z</time></trkpt>
<trkpt lat="46.4280967600643634796142578125" lon="7.0469491370022296905517578125"><ele></ele><time>2016-7-29T1:51:2Z</time></trkpt>
<trkpt lat="46.4282231591641902923583984375" lon="7.04715072177350521087646484375"><ele></ele><time>2016-7-29T1:51:5Z</time></trkpt>
<trkpt lat="46.42835182137787342071533203125" lon="7.04742573201656341552734375"><ele></ele><time>2016-7-29T1:51:8Z</time></trkpt>
<trkpt lat="46.42846011556684970855712890625" lon="7.04780367203056812286376953125"><ele></ele><time>2016-7-29T1:51:11Z</time></trkpt>
<trkpt lat="46.42859959043562412261962890625" lon="7.04832150600850582122802734375"><ele></ele><time>2016-7-29T1:51:14Z</time></trkpt>
<trkpt lat="46.4287247322499752044677734375" lon="7.04863264225423336029052734375"><ele></ele><time>2016-7-29T1:51:17Z</time></trkpt>
<trkpt lat="46.42886261455714702606201171875" lon="7.04897965304553508758544921875"><ele></ele><time>2016-7-29T1:51:20Z</time></trkpt>
<trkpt lat="46.4289440028369426727294921875" lon="7.04927419312298297882080078125"><ele></ele><time>2016-7-29T1:51:23Z</time></trkpt>
<trkpt lat="46.42906486988067626953125" lon="7.0495448447763919830322265625"><ele></ele><time>2016-7-29T1:51:26Z</time></trkpt>
<trkpt lat="46.42923653125762939453125" lon="7.0498060248792171478271484375"><ele></ele><time>2016-7-29T1:51:29Z</time></trkpt>
<trkpt lat="46.42922471277415752410888671875" lon="7.049919180572032928466796875"><ele></ele><time>2016-7-29T1:51:32Z</time></trkpt>
<trkpt lat="46.42921281047165393829345703125" lon="7.04993334598839282989501953125"><ele></ele><time>2016-7-29T1:51:35Z</time></trkpt>
<trkpt lat="46.42908523790538311004638671875" lon="7.04999134875833988189697265625"><ele></ele><time>2016-7-29T1:51:38Z</time></trkpt>
<trkpt lat="46.42888943664729595184326171875" lon="7.05012881197035312652587890625"><ele></ele><time>2016-7-29T1:51:41Z</time></trkpt>
<trkpt lat="46.4287321083247661590576171875" lon="7.05029963515698909759521484375"><ele></ele><time>2016-7-29T1:51:44Z</time></trkpt>
<trkpt lat="46.42858014442026615142822265625" lon="7.050500214099884033203125"><ele></ele><time>2016-7-29T1:51:47Z</time></trkpt>
<trkpt lat="46.4284994266927242279052734375" lon="7.05058109946548938751220703125"><ele></ele><time>2016-7-29T1:51:50Z</time></trkpt>
<trkpt lat="46.42838266678154468536376953125" lon="7.05071085132658481597900390625"><ele></ele><time>2016-7-29T1:51:53Z</time></trkpt>
<trkpt lat="46.4282466284930706024169921875" lon="7.05089793540537357330322265625"><ele></ele><time>2016-7-29T1:51:56Z</time></trkpt>
<trkpt lat="46.4281235821545124053955078125" lon="7.051049731671810150146484375"><ele></ele><time>2016-7-29T1:51:59Z</time></trkpt>
<trkpt lat="46.42801973037421703338623046875" lon="7.05127210356295108795166015625"><ele></ele><time>2016-7-29T1:52:2Z</time></trkpt>
<trkpt lat="46.4278939180076122283935546875" lon="7.0515932142734527587890625"><ele></ele><time>2016-7-29T1:52:5Z</time></trkpt>
<trkpt lat="46.42774681560695171356201171875" lon="7.0519377104938030242919921875"><ele></ele><time>2016-7-29T1:52:8Z</time></trkpt>
<trkpt lat="46.42764665186405181884765625" lon="7.05221758224070072174072265625"><ele></ele><time>2016-7-29T1:52:11Z</time></trkpt>
<trkpt lat="46.42764137126505374908447265625" lon="7.05228782258927822113037109375"><ele></ele><time>2016-7-29T1:52:14Z</time></trkpt>
<trkpt lat="46.4276776649057865142822265625" lon="7.05267473123967647552490234375"><ele></ele><time>2016-7-29T1:52:17Z</time></trkpt>
<trkpt lat="46.42784111201763153076171875" lon="7.05333237536251544952392578125"><ele></ele><time>2016-7-29T1:52:20Z</time></trkpt>
<trkpt lat="46.42805661074817180633544921875" lon="7.05377510748803615570068359375"><ele></ele><time>2016-7-29T1:52:23Z</time></trkpt>
<trkpt lat="46.42809902317821979522705078125" lon="7.05382556654512882232666015625"><ele></ele><time>2016-7-29T1:52:26Z</time></trkpt>
<trkpt lat="46.428205557167530059814453125" lon="7.05393201671540737152099609375"><ele></ele><time>2016-7-29T1:52:29Z</time></trkpt>
<trkpt lat="46.42822810448706150054931640625" lon="7.053967304527759552001953125"><ele></ele><time>2016-7-29T1:52:32Z</time></trkpt>
<trkpt lat="46.42827336676418781280517578125" lon="7.05412111245095729827880859375"><ele></ele><time>2016-7-29T1:52:35Z</time></trkpt>
<trkpt lat="46.4282757975161075592041015625" lon="7.0543693006038665771484375"><ele></ele><time>2016-7-29T1:52:38Z</time></trkpt>
<trkpt lat="46.42826448194682598114013671875" lon="7.054428644478321075439453125"><ele></ele><time>2016-7-29T1:52:41Z</time></trkpt>
<trkpt lat="46.42817714251577854156494140625" lon="7.05465537495911121368408203125"><ele></ele><time>2016-7-29T1:52:44Z</time></trkpt>
<trkpt lat="46.42797916196286678314208984375" lon="7.05488654784858226776123046875"><ele></ele><time>2016-7-29T1:52:47Z</time></trkpt>
<trkpt lat="46.427901796996593475341796875" lon="7.05513616092503070831298828125"><ele></ele><time>2016-7-29T1:52:50Z</time></trkpt>
<trkpt lat="46.4277665130794048309326171875" lon="7.055433131754398345947265625"><ele></ele><time>2016-7-29T1:52:53Z</time></trkpt>
<trkpt lat="46.42764086835086345672607421875" lon="7.05561728216707706451416015625"><ele></ele><time>2016-7-29T1:52:56Z</time></trkpt>
<trkpt lat="46.4275453984737396240234375" lon="7.0556862652301788330078125"><ele></ele><time>2016-7-29T1:52:59Z</time></trkpt>
<trkpt lat="46.42751513980329036712646484375" lon="7.0557052083313465118408203125"><ele></ele><time>2016-7-29T1:53:2Z</time></trkpt>
<trkpt lat="46.42735756002366542816162109375" lon="7.0558927953243255615234375"><ele></ele><time>2016-7-29T1:53:5Z</time></trkpt>
<trkpt lat="46.42732671461999416351318359375" lon="7.0561813004314899444580078125"><ele></ele><time>2016-7-29T1:53:8Z</time></trkpt>
<trkpt lat="46.42737734131515026092529296875" lon="7.05660114996135234832763671875"><ele></ele><time>2016-7-29T1:53:11Z</time></trkpt>
<trkpt lat="46.4274568855762481689453125" lon="7.05687574110925197601318359375"><ele></ele><time>2016-7-29T1:53:14Z</time></trkpt>
<trkpt lat="46.42752729356288909912109375" lon="7.0570151321589946746826171875"><ele></ele><time>2016-7-29T1:53:17Z</time></trkpt>
<trkpt lat="46.42781739123165607452392578125" lon="7.0575039647519588470458984375"><ele></ele><time>2016-7-29T1:53:20Z</time></trkpt>
<trkpt lat="46.4282080717384815216064453125" lon="7.05812028609216213226318359375"><ele></ele><time>2016-7-29T1:53:23Z</time></trkpt>
<trkpt lat="46.4284692518413066864013671875" lon="7.05848707817494869232177734375"><ele></ele><time>2016-7-29T1:53:26Z</time></trkpt>
<trkpt lat="46.428605876863002777099609375" lon="7.0585964620113372802734375"><ele></ele><time>2016-7-29T1:53:29Z</time></trkpt>
<trkpt lat="46.4287099801003932952880859375" lon="7.0587293989956378936767578125"><ele></ele><time>2016-7-29T1:53:32Z</time></trkpt>
<trkpt lat="46.42876504920423030853271484375" lon="7.058892510831356048583984375"><ele></ele><time>2016-7-29T1:53:35Z</time></trkpt>
<trkpt lat="46.42878524959087371826171875" lon="7.05905486829578876495361328125"><ele></ele><time>2016-7-29T1:53:38Z</time></trkpt>
<trkpt lat="46.42881668172776699066162109375" lon="7.05920088104903697967529296875"><ele></ele><time>2016-7-29T1:53:41Z</time></trkpt>
<trkpt lat="46.42887988127768039703369140625" lon="7.05937757156789302825927734375"><ele></ele><time>2016-7-29T1:53:44Z</time></trkpt>
<trkpt lat="46.4289607666432857513427734375" lon="7.059532888233661651611328125"><ele></ele><time>2016-7-29T1:53:47Z</time></trkpt>
<trkpt lat="46.42922655679285526275634765625" lon="7.059924490749835968017578125"><ele></ele><time>2016-7-29T1:53:50Z</time></trkpt>
<trkpt lat="46.429468207061290740966796875" lon="7.06032606773078441619873046875"><ele></ele><time>2016-7-29T1:53:53Z</time></trkpt>
<trkpt lat="46.42971907742321491241455078125" lon="7.0608654431998729705810546875"><ele></ele><time>2016-7-29T1:53:56Z</time></trkpt>
<trkpt lat="46.429785378277301788330078125" lon="7.06101237796247005462646484375"><ele></ele><time>2016-7-29T1:53:59Z</time></trkpt>
<trkpt lat="46.4298985339701175689697265625" lon="7.0612369291484355926513671875"><ele></ele><time>2016-7-29T1:54:2Z</time></trkpt>
<trkpt lat="46.4301325567066669464111328125" lon="7.061530463397502899169921875"><ele></ele><time>2016-7-29T1:54:5Z</time></trkpt>
<trkpt lat="46.430499851703643798828125" lon="7.0620050467550754547119140625"><ele></ele><time>2016-7-29T1:54:8Z</time></trkpt>
<trkpt lat="46.4307538233697414398193359375" lon="7.06234191544353961944580078125"><ele></ele><time>2016-7-29T1:54:11Z</time></trkpt>
<trkpt lat="46.43102078698575496673583984375" lon="7.0625793747603893280029296875"><ele></ele><time>2016-7-29T1:54:14Z</time></trkpt>
<trkpt lat="46.43124751746654510498046875" lon="7.062814235687255859375"><ele></ele><time>2016-7-29T1:54:17Z</time></trkpt>
<trkpt lat="46.431265957653522491455078125" lon="7.0628734119236469268798828125"><ele></ele><time>2016-7-29T1:54:20Z</time></trkpt>
<trkpt lat="46.4313288219273090362548828125" lon="7.06307734362781047821044921875"><ele></ele><time>2016-7-29T1:54:23Z</time></trkpt>
<trkpt lat="46.431507356464862823486328125" lon="7.06341580487787723541259765625"><ele></ele><time>2016-7-29T1:54:26Z</time></trkpt>
<trkpt lat="46.4317428879439830780029296875" lon="7.06377505324780941009521484375"><ele></ele><time>2016-7-29T1:54:29Z</time></trkpt>
<trkpt lat="46.43207154236733913421630859375" lon="7.06414134241640567779541015625"><ele></ele><time>2016-7-29T1:54:32Z</time></trkpt>
<trkpt lat="46.4322260208427906036376953125" lon="7.06426288001239299774169921875"><ele></ele><time>2016-7-29T1:54:35Z</time></trkpt>
<trkpt lat="46.43231235444545745849609375" lon="7.06430210731923580169677734375"><ele></ele><time>2016-7-29T1:54:38Z</time></trkpt>
<trkpt lat="46.432435400784015655517578125" lon="7.064313255250453948974609375"><ele></ele><time>2016-7-29T1:54:41Z</time></trkpt>
<trkpt lat="46.4325150288641452789306640625" lon="7.0643194578588008880615234375"><ele></ele><time>2016-7-29T1:54:44Z</time></trkpt>
<trkpt lat="46.432724408805370330810546875" lon="7.06435457803308963775634765625"><ele></ele><time>2016-7-29T1:54:47Z</time></trkpt>
<trkpt lat="46.4328479580581188201904296875" lon="7.06437855027616024017333984375"><ele></ele><time>2016-7-29T1:54:50Z</time></trkpt>
<trkpt lat="46.433035545051097869873046875" lon="7.06445432268083095550537109375"><ele></ele><time>2016-7-29T1:54:53Z</time></trkpt>
<trkpt lat="46.4331436716020107269287109375" lon="7.06459597684442996978759765625"><ele></ele><time>2016-7-29T1:54:56Z</time></trkpt>
<trkpt lat="46.43325758166611194610595703125" lon="7.06478809006512165069580078125"><ele></ele><time>2016-7-29T1:54:59Z</time></trkpt>
<trkpt lat="46.43343125469982624053955078125" lon="7.06490275450050830841064453125"><ele></ele><time>2016-7-29T1:55:2Z</time></trkpt>
<trkpt lat="46.43356100656092166900634765625" lon="7.06498456187546253204345703125"><ele></ele><time>2016-7-29T1:55:5Z</time></trkpt>
<trkpt lat="46.4336834661662578582763671875" lon="7.06512956880033016204833984375"><ele></ele><time>2016-7-29T1:55:8Z</time></trkpt>
<trkpt lat="46.4337528683245182037353515625" lon="7.0653628371655941009521484375"><ele></ele><time>2016-7-29T1:55:11Z</time></trkpt>
<trkpt lat="46.43381841480731964111328125" lon="7.0655458979308605194091796875"><ele></ele><time>2016-7-29T1:55:14Z</time></trkpt>
<trkpt lat="46.4339325763285160064697265625" lon="7.065762989223003387451171875"><ele></ele><time>2016-7-29T1:55:17Z</time></trkpt>
<trkpt lat="46.43404045142233371734619140625" lon="7.06598888151347637176513671875"><ele></ele><time>2016-7-29T1:55:20Z</time></trkpt>
<trkpt lat="46.43419434316456317901611328125" lon="7.0662246644496917724609375"><ele></ele><time>2016-7-29T1:55:23Z</time></trkpt>
<trkpt lat="46.43432560376822948455810546875" lon="7.06639272160828113555908203125"><ele></ele><time>2016-7-29T1:55:26Z</time></trkpt>
<trkpt lat="46.434465833008289337158203125" lon="7.06653915345668792724609375"><ele></ele><time>2016-7-29T1:55:29Z</time></trkpt>
<trkpt lat="46.43450061790645122528076171875" lon="7.0667342841625213623046875"><ele></ele><time>2016-7-29T1:55:32Z</time></trkpt>
<trkpt lat="46.43443775363266468048095703125" lon="7.0669198594987392425537109375"><ele></ele><time>2016-7-29T1:55:35Z</time></trkpt>
<trkpt lat="46.4343501627445220947265625" lon="7.06720962189137935638427734375"><ele></ele><time>2016-7-29T1:55:38Z</time></trkpt>
<trkpt lat="46.43435628153383731842041015625" lon="7.06745303235948085784912109375"><ele></ele><time>2016-7-29T1:55:41Z</time></trkpt>
<trkpt lat="46.4343204908072948455810546875" lon="7.06774287857115268707275390625"><ele></ele><time>2016-7-29T1:55:44Z</time></trkpt>
<trkpt lat="46.43421663902699947357177734375" lon="7.0679424516856670379638671875"><ele></ele><time>2016-7-29T1:55:47Z</time></trkpt>
<trkpt lat="46.4340499229729175567626953125" lon="7.06798779778182506561279296875"><ele></ele><time>2016-7-29T1:55:50Z</time></trkpt>
<trkpt lat="46.4339047484099864959716796875" lon="7.06790347583591938018798828125"><ele></ele><time>2016-7-29T1:55:53Z</time></trkpt>
<trkpt lat="46.4336901716887950897216796875" lon="7.06775276921689510345458984375"><ele></ele><time>2016-7-29T1:55:56Z</time></trkpt>
<trkpt lat="46.4334809593856334686279296875" lon="7.0676410384476184844970703125"><ele></ele><time>2016-7-29T1:55:59Z</time></trkpt>
<trkpt lat="46.4332868345081806182861328125" lon="7.06755596213042736053466796875"><ele></ele><time>2016-7-29T1:56:2Z</time></trkpt>
<trkpt lat="46.433079130947589874267578125" lon="7.06744599156081676483154296875"><ele></ele><time>2016-7-29T1:56:5Z</time></trkpt>
<trkpt lat="46.43288844265043735504150390625" lon="7.0673550479114055633544921875"><ele></ele><time>2016-7-29T1:56:8Z</time></trkpt>
<trkpt lat="46.43270487897098064422607421875" lon="7.06725689582526683807373046875"><ele></ele><time>2016-7-29T1:56:11Z</time></trkpt>
<trkpt lat="46.43249214626848697662353515625" lon="7.06710535101592540740966796875"><ele></ele><time>2016-7-29T1:56:14Z</time></trkpt>
<trkpt lat="46.43227748572826385498046875" lon="7.06700409762561321258544921875"><ele></ele><time>2016-7-29T1:56:17Z</time></trkpt>
<trkpt lat="46.432005576789379119873046875" lon="7.066927067935466766357421875"><ele></ele><time>2016-7-29T1:56:20Z</time></trkpt>
<trkpt lat="46.431739367544651031494140625" lon="7.06685674376785755157470703125"><ele></ele><time>2016-7-29T1:56:23Z</time></trkpt>
<trkpt lat="46.43155370838940143585205078125" lon="7.06679304130375385284423828125"><ele></ele><time>2016-7-29T1:56:26Z</time></trkpt>
<trkpt lat="46.431318931281566619873046875" lon="7.066716849803924560546875"><ele></ele><time>2016-7-29T1:56:29Z</time></trkpt>
<trkpt lat="46.43110334873199462890625" lon="7.06667636521160602569580078125"><ele></ele><time>2016-7-29T1:56:32Z</time></trkpt>
<trkpt lat="46.4309281669557094573974609375" lon="7.06665105186402797698974609375"><ele></ele><time>2016-7-29T1:56:35Z</time></trkpt>
<trkpt lat="46.43070437014102935791015625" lon="7.06661685369908809661865234375"><ele></ele><time>2016-7-29T1:56:38Z</time></trkpt>
<trkpt lat="46.4304731972515583038330078125" lon="7.06659371964633464813232421875"><ele></ele><time>2016-7-29T1:56:41Z</time></trkpt>
<trkpt lat="46.4301714487373828887939453125" lon="7.0665587671101093292236328125"><ele></ele><time>2016-7-29T1:56:44Z</time></trkpt>
<trkpt lat="46.42990834079682826995849609375" lon="7.06662205047905445098876953125"><ele></ele><time>2016-7-29T1:56:47Z</time></trkpt>
<trkpt lat="46.42975310795009136199951171875" lon="7.06660025753080844879150390625"><ele></ele><time>2016-7-29T1:56:50Z</time></trkpt>
<trkpt lat="46.42958463169634342193603515625" lon="7.066505290567874908447265625"><ele></ele><time>2016-7-29T1:56:53Z</time></trkpt>
<trkpt lat="46.42941548489034175872802734375" lon="7.06636355258524417877197265625"><ele></ele><time>2016-7-29T1:56:56Z</time></trkpt>
<trkpt lat="46.42923695035278797149658203125" lon="7.06622935831546783447265625"><ele></ele><time>2016-7-29T1:56:59Z</time></trkpt>
<trkpt lat="46.42920359037816524505615234375" lon="7.0662432722747325897216796875"><ele></ele><time>2016-7-29T1:57:2Z</time></trkpt>
<trkpt lat="46.4291639439761638641357421875" lon="7.06632231362164020538330078125"><ele></ele><time>2016-7-29T1:57:5Z</time></trkpt>
<trkpt lat="46.4291880838572978973388671875" lon="7.06651157699525356292724609375"><ele></ele><time>2016-7-29T1:57:8Z</time></trkpt>
<trkpt lat="46.429238207638263702392578125" lon="7.0666546560823917388916015625"><ele></ele><time>2016-7-29T1:57:11Z</time></trkpt>
<trkpt lat="46.429307274520397186279296875" lon="7.06690317951142787933349609375"><ele></ele><time>2016-7-29T1:57:14Z</time></trkpt>
<trkpt lat="46.42939302138984203338623046875" lon="7.0673721469938755035400390625"><ele></ele><time>2016-7-29T1:57:17Z</time></trkpt>
<trkpt lat="46.429424621164798736572265625" lon="7.0674948580563068389892578125"><ele></ele><time>2016-7-29T1:57:20Z</time></trkpt>
<trkpt lat="46.4294204302132129669189453125" lon="7.0675246976315975189208984375"><ele></ele><time>2016-7-29T1:57:23Z</time></trkpt>
<trkpt lat="46.42942470498383045196533203125" lon="7.0677117817103862762451171875"><ele></ele><time>2016-7-29T1:57:26Z</time></trkpt>
<trkpt lat="46.429469548165798187255859375" lon="7.06805518828332424163818359375"><ele></ele><time>2016-7-29T1:57:29Z</time></trkpt>
<trkpt lat="46.4294194243848323822021484375" lon="7.0681667514145374298095703125"><ele></ele><time>2016-7-29T1:57:32Z</time></trkpt>
<trkpt lat="46.42925790511071681976318359375" lon="7.06831787712872028350830078125"><ele></ele><time>2016-7-29T1:57:35Z</time></trkpt>
<trkpt lat="46.42923091538250446319580078125" lon="7.0683548413217067718505859375"><ele></ele><time>2016-7-29T1:57:38Z</time></trkpt>
<trkpt lat="46.4290849864482879638671875" lon="7.06857318989932537078857421875"><ele></ele><time>2016-7-29T1:57:41Z</time></trkpt>
<trkpt lat="46.42889312468469142913818359375" lon="7.0686227269470691680908203125"><ele></ele><time>2016-7-29T1:57:44Z</time></trkpt>
<trkpt lat="46.42870855517685413360595703125" lon="7.06866019405424594879150390625"><ele></ele><time>2016-7-29T1:57:47Z</time></trkpt>
<trkpt lat="46.4286365546286106109619140625" lon="7.06869271583855152130126953125"><ele></ele><time>2016-7-29T1:57:50Z</time></trkpt>
<trkpt lat="46.42838585190474987030029296875" lon="7.06880302168428897857666015625"><ele></ele><time>2016-7-29T1:57:53Z</time></trkpt>
<trkpt lat="46.42829331569373607635498046875" lon="7.06881894730031490325927734375"><ele></ele><time>2016-7-29T1:57:56Z</time></trkpt>
<trkpt lat="46.42809726297855377197265625" lon="7.0688225515186786651611328125"><ele></ele><time>2016-7-29T1:57:59Z</time></trkpt>
<trkpt lat="46.4277088455855846405029296875" lon="7.06888608634471893310546875"><ele></ele><time>2016-7-29T1:58:2Z</time></trkpt>
<trkpt lat="46.42762661911547183990478515625" lon="7.0689181052148342132568359375"><ele></ele><time>2016-7-29T1:58:5Z</time></trkpt>
<trkpt lat="46.42748571932315826416015625" lon="7.0689546503126621246337890625"><ele></ele><time>2016-7-29T1:58:8Z</time></trkpt>
<trkpt lat="46.42736124806106090545654296875" lon="7.0689650438725948333740234375"><ele></ele><time>2016-7-29T1:58:11Z</time></trkpt>
<trkpt lat="46.42721925862133502960205078125" lon="7.069141566753387451171875"><ele></ele><time>2016-7-29T1:58:14Z</time></trkpt>
<trkpt lat="46.42717366106808185577392578125" lon="7.069205604493618011474609375"><ele></ele><time>2016-7-29T1:58:17Z</time></trkpt>
<trkpt lat="46.42706503160297870635986328125" lon="7.06934767775237560272216796875"><ele></ele><time>2016-7-29T1:58:20Z</time></trkpt>
<trkpt lat="46.4269937016069889068603515625" lon="7.06946812570095062255859375"><ele></ele><time>2016-7-29T1:58:23Z</time></trkpt>
<trkpt lat="46.4269192703068256378173828125" lon="7.069615982472896575927734375"><ele></ele><time>2016-7-29T1:58:26Z</time></trkpt>
<trkpt lat="46.42670310102403163909912109375" lon="7.0700040645897388458251953125"><ele></ele><time>2016-7-29T1:58:29Z</time></trkpt>
<trkpt lat="46.42645667307078838348388671875" lon="7.07046079449355602264404296875"><ele></ele><time>2016-7-29T1:58:32Z</time></trkpt>
<trkpt lat="46.42635575495660305023193359375" lon="7.07058417610824108123779296875"><ele></ele><time>2016-7-29T1:58:35Z</time></trkpt>
<trkpt lat="46.42624494619667530059814453125" lon="7.07069330848753452301025390625"><ele></ele><time>2016-7-29T1:58:38Z</time></trkpt>
<trkpt lat="46.426160037517547607421875" lon="7.0707825757563114166259765625"><ele></ele><time>2016-7-29T1:58:41Z</time></trkpt>
<trkpt lat="46.426126174628734588623046875" lon="7.070833705365657806396484375"><ele></ele><time>2016-7-29T1:58:44Z</time></trkpt>
<trkpt lat="46.42608904279768466949462890625" lon="7.07091224379837512969970703125"><ele></ele><time>2016-7-29T1:58:47Z</time></trkpt>
<trkpt lat="46.42599902115762233734130859375" lon="7.07117459736764430999755859375"><ele></ele><time>2016-7-29T1:58:50Z</time></trkpt>
<trkpt lat="46.42595996148884296417236328125" lon="7.0712618529796600341796875"><ele></ele><time>2016-7-29T1:58:53Z</time></trkpt>
<trkpt lat="46.42580254934728145599365234375" lon="7.0713931135833263397216796875"><ele></ele><time>2016-7-29T1:58:56Z</time></trkpt>
<trkpt lat="46.4257515035569667816162109375" lon="7.07142722792923450469970703125"><ele></ele><time>2016-7-29T1:58:59Z</time></trkpt>
<trkpt lat="46.425654776394367218017578125" lon="7.0715248771011829376220703125"><ele></ele><time>2016-7-29T1:59:2Z</time></trkpt>
<trkpt lat="46.42556685023009777069091796875" lon="7.0716492645442485809326171875"><ele></ele><time>2016-7-29T1:59:5Z</time></trkpt>
<trkpt lat="46.425479762256145477294921875" lon="7.07184456288814544677734375"><ele></ele><time>2016-7-29T1:59:8Z</time></trkpt>
<trkpt lat="46.42546811141073703765869140625" lon="7.07192100584506988525390625"><ele></ele><time>2016-7-29T1:59:11Z</time></trkpt>
<trkpt lat="46.42548789270222187042236328125" lon="7.0722926594316959381103515625"><ele></ele><time>2016-7-29T1:59:14Z</time></trkpt>
<trkpt lat="46.425570286810398101806640625" lon="7.0725216530263423919677734375"><ele></ele><time>2016-7-29T1:59:17Z</time></trkpt>
<trkpt lat="46.4255530200898647308349609375" lon="7.0726765505969524383544921875"><ele></ele><time>2016-7-29T1:59:20Z</time></trkpt>
<trkpt lat="46.425502561032772064208984375" lon="7.0727370679378509521484375"><ele></ele><time>2016-7-29T1:59:23Z</time></trkpt>
<trkpt lat="46.42545788548886775970458984375" lon="7.07279381342232227325439453125"><ele></ele><time>2016-7-29T1:59:26Z</time></trkpt>
<trkpt lat="46.42529837787151336669921875" lon="7.07304040901362895965576171875"><ele></ele><time>2016-7-29T1:59:29Z</time></trkpt>
<trkpt lat="46.4252563007175922393798828125" lon="7.07325498573482036590576171875"><ele></ele><time>2016-7-29T1:59:32Z</time></trkpt>
<trkpt lat="46.42522235400974750518798828125" lon="7.07359948195517063140869140625"><ele></ele><time>2016-7-29T1:59:35Z</time></trkpt>
<trkpt lat="46.42519377171993255615234375" lon="7.073857896029949188232421875"><ele></ele><time>2016-7-29T1:59:38Z</time></trkpt>
<trkpt lat="46.425161249935626983642578125" lon="7.0740582235157489776611328125"><ele></ele><time>2016-7-29T1:59:41Z</time></trkpt>
<trkpt lat="46.4251470007002353668212890625" lon="7.0740796811878681182861328125"><ele></ele><time>2016-7-29T1:59:44Z</time></trkpt>
<trkpt lat="46.42502479255199432373046875" lon="7.07409200258553028106689453125"><ele></ele><time>2016-7-29T1:59:47Z</time></trkpt>
<trkpt lat="46.42486629076302051544189453125" lon="7.0740867219865322113037109375"><ele></ele><time>2016-7-29T1:59:50Z</time></trkpt>
<trkpt lat="46.42479135654866695404052734375" lon="7.07422024570405483245849609375"><ele></ele><time>2016-7-29T1:59:53Z</time></trkpt>
<trkpt lat="46.42475095577538013458251953125" lon="7.07433407194912433624267578125"><ele></ele><time>2016-7-29T1:59:56Z</time></trkpt>
<trkpt lat="46.42474106512963771820068359375" lon="7.07436759956181049346923828125"><ele></ele><time>2016-7-29T1:59:59Z</time></trkpt>
<trkpt lat="46.42461114563047885894775390625" lon="7.074494920670986175537109375"><ele></ele><time>2016-7-29T2:0:2Z</time></trkpt>
<trkpt lat="46.42446060664951801300048828125" lon="7.0746630616486072540283203125"><ele></ele><time>2016-7-29T2:0:5Z</time></trkpt>
<trkpt lat="46.42439983785152435302734375" lon="7.07489348016679286956787109375"><ele></ele><time>2016-7-29T2:0:8Z</time></trkpt>
<trkpt lat="46.42435549758374691009521484375" lon="7.07514560781419277191162109375"><ele></ele><time>2016-7-29T2:0:11Z</time></trkpt>
<trkpt lat="46.424335129559040069580078125" lon="7.07552044652402400970458984375"><ele></ele><time>2016-7-29T2:0:14Z</time></trkpt>
<trkpt lat="46.42430336214601993560791015625" lon="7.07579671405255794525146484375"><ele></ele><time>2016-7-29T2:0:17Z</time></trkpt>
<trkpt lat="46.424266062676906585693359375" lon="7.07604481838643550872802734375"><ele></ele><time>2016-7-29T2:0:20Z</time></trkpt>
<trkpt lat="46.4242213033139705657958984375" lon="7.07620692439377307891845703125"><ele></ele><time>2016-7-29T2:0:23Z</time></trkpt>
<trkpt lat="46.4241676591336727142333984375" lon="7.076381854712963104248046875"><ele></ele><time>2016-7-29T2:0:26Z</time></trkpt>
<trkpt lat="46.4241512306034564971923828125" lon="7.0765825174748897552490234375"><ele></ele><time>2016-7-29T2:0:29Z</time></trkpt>
<trkpt lat="46.4240938983857631683349609375" lon="7.0767764747142791748046875"><ele></ele><time>2016-7-29T2:0:32Z</time></trkpt>
<trkpt lat="46.42395383678376674652099609375" lon="7.07697504200041294097900390625"><ele></ele><time>2016-7-29T2:0:35Z</time></trkpt>
<trkpt lat="46.4237354882061481475830078125" lon="7.077239491045475006103515625"><ele></ele><time>2016-7-29T2:0:38Z</time></trkpt>
<trkpt lat="46.42368444241583347320556640625" lon="7.07738332450389862060546875"><ele></ele><time>2016-7-29T2:0:41Z</time></trkpt>
<trkpt lat="46.42366491258144378662109375" lon="7.07740285433828830718994140625"><ele></ele><time>2016-7-29T2:0:44Z</time></trkpt>
<trkpt lat="46.4236258529126644134521484375" lon="7.077389694750308990478515625"><ele></ele><time>2016-7-29T2:0:47Z</time></trkpt>
<trkpt lat="46.4235581271350383758544921875" lon="7.07728466950356960296630859375"><ele></ele><time>2016-7-29T2:0:50Z</time></trkpt>
<trkpt lat="46.42349417321383953094482421875" lon="7.077336050570011138916015625"><ele></ele><time>2016-7-29T2:0:53Z</time></trkpt>
<trkpt lat="46.42347958870232105255126953125" lon="7.07734870724380016326904296875"><ele></ele><time>2016-7-29T2:0:56Z</time></trkpt>
<trkpt lat="46.42334564588963985443115234375" lon="7.07745934836566448211669921875"><ele></ele><time>2016-7-29T2:0:59Z</time></trkpt>
<trkpt lat="46.42329853959381580352783203125" lon="7.077516429126262664794921875"><ele></ele><time>2016-7-29T2:1:2Z</time></trkpt>
<trkpt lat="46.4232674427330493927001953125" lon="7.077644504606723785400390625"><ele></ele><time>2016-7-29T2:1:5Z</time></trkpt>
<trkpt lat="46.4232104457914829254150390625" lon="7.0777787826955318450927734375"><ele></ele><time>2016-7-29T2:1:8Z</time></trkpt>
<trkpt lat="46.4232013933360576629638671875" lon="7.0779621787369251251220703125"><ele></ele><time>2016-7-29T2:1:11Z</time></trkpt>
<trkpt lat="46.4232164807617664337158203125" lon="7.078131996095180511474609375"><ele></ele><time>2016-7-29T2:1:14Z</time></trkpt>
<trkpt lat="46.4232412911951541900634765625" lon="7.07829619757831096649169921875"><ele></ele><time>2016-7-29T2:1:17Z</time></trkpt>
<trkpt lat="46.42323064617812633514404296875" lon="7.0784329064190387725830078125"><ele></ele><time>2016-7-29T2:1:20Z</time></trkpt>
<trkpt lat="46.4231943525373935699462890625" lon="7.07864371128380298614501953125"><ele></ele><time>2016-7-29T2:1:23Z</time></trkpt>
<trkpt lat="46.4231631718575954437255859375" lon="7.0788015425205230712890625"><ele></ele><time>2016-7-29T2:1:26Z</time></trkpt>
<trkpt lat="46.4231573045253753662109375" lon="7.07889399491250514984130859375"><ele></ele><time>2016-7-29T2:1:29Z</time></trkpt>
<trkpt lat="46.4231511019170284271240234375" lon="7.07892358303070068359375"><ele></ele><time>2016-7-29T2:1:32Z</time></trkpt>
<trkpt lat="46.42313006334006786346435546875" lon="7.07911494188010692596435546875"><ele></ele><time>2016-7-29T2:1:35Z</time></trkpt>
<trkpt lat="46.42306820489466190338134765625" lon="7.07929180003702640533447265625"><ele></ele><time>2016-7-29T2:1:38Z</time></trkpt>
<trkpt lat="46.42303526401519775390625" lon="7.07942943088710308074951171875"><ele></ele><time>2016-7-29T2:1:41Z</time></trkpt>
<trkpt lat="46.4230280555784702301025390625" lon="7.07960813306272029876708984375"><ele></ele><time>2016-7-29T2:1:44Z</time></trkpt>
<trkpt lat="46.42302076332271099090576171875" lon="7.07979253493249416351318359375"><ele></ele><time>2016-7-29T2:1:47Z</time></trkpt>
<trkpt lat="46.42304574139416217803955078125" lon="7.07993653602898120880126953125"><ele></ele><time>2016-7-29T2:1:50Z</time></trkpt>
<trkpt lat="46.42303333617746829986572265625" lon="7.07995028235018253326416015625"><ele></ele><time>2016-7-29T2:1:53Z</time></trkpt>
<trkpt lat="46.4230377785861492156982421875" lon="7.08003996871411800384521484375"><ele></ele><time>2016-7-29T2:1:56Z</time></trkpt>
<trkpt lat="46.42299327068030834197998046875" lon="7.0801169984042644500732421875"><ele></ele><time>2016-7-29T2:1:59Z</time></trkpt>
<trkpt lat="46.422955133020877838134765625" lon="7.08013954572379589080810546875"><ele></ele><time>2016-7-29T2:2:2Z</time></trkpt>
<trkpt lat="46.42287324182689189910888671875" lon="7.08027541637420654296875"><ele></ele><time>2016-7-29T2:2:5Z</time></trkpt>
<trkpt lat="46.42279948107898235321044921875" lon="7.0803939364850521087646484375"><ele></ele><time>2016-7-29T2:2:8Z</time></trkpt>
<trkpt lat="46.4227058552205562591552734375" lon="7.08054833114147186279296875"><ele></ele><time>2016-7-29T2:2:11Z</time></trkpt>
<trkpt lat="46.42264894209802150726318359375" lon="7.0807359181344509124755859375"><ele></ele><time>2016-7-29T2:2:14Z</time></trkpt>
<trkpt lat="46.42259898595511913299560546875" lon="7.0808737166225910186767578125"><ele></ele><time>2016-7-29T2:2:17Z</time></trkpt>
<trkpt lat="46.42252136953175067901611328125" lon="7.0810128562152385711669921875"><ele></ele><time>2016-7-29T2:2:20Z</time></trkpt>
<trkpt lat="46.4225502870976924896240234375" lon="7.08110480569303035736083984375"><ele></ele><time>2016-7-29T2:2:23Z</time></trkpt>
<trkpt lat="46.4225699007511138916015625" lon="7.0811124332249164581298828125"><ele></ele><time>2016-7-29T2:2:26Z</time></trkpt>
<trkpt lat="46.422579288482666015625" lon="7.08112894557416439056396484375"><ele></ele><time>2016-7-29T2:2:29Z</time></trkpt>
<trkpt lat="46.42259898595511913299560546875" lon="7.08125551231205463409423828125"><ele></ele><time>2016-7-29T2:2:32Z</time></trkpt>
<trkpt lat="46.4226146601140499114990234375" lon="7.08129742182791233062744140625"><ele></ele><time>2016-7-29T2:2:35Z</time></trkpt>
<trkpt lat="46.4226471818983554840087890625" lon="7.081392221152782440185546875"><ele></ele><time>2016-7-29T2:2:38Z</time></trkpt>
<trkpt lat="46.42264743335545063018798828125" lon="7.08154435269534587860107421875"><ele></ele><time>2016-7-29T2:2:41Z</time></trkpt>
<trkpt lat="46.42264491878449916839599609375" lon="7.08162515424191951751708984375"><ele></ele><time>2016-7-29T2:2:44Z</time></trkpt>
<trkpt lat="46.42265162430703639984130859375" lon="7.0816813968122005462646484375"><ele></ele><time>2016-7-29T2:2:47Z</time></trkpt>
<trkpt lat="46.4226471818983554840087890625" lon="7.08186437375843524932861328125"><ele></ele><time>2016-7-29T2:2:50Z</time></trkpt>
<trkpt lat="46.422664783895015716552734375" lon="7.0819553174078464508056640625"><ele></ele><time>2016-7-29T2:2:53Z</time></trkpt>
<trkpt lat="46.4226612634956836700439453125" lon="7.0819720812141895294189453125"><ele></ele><time>2016-7-29T2:2:56Z</time></trkpt>
<trkpt lat="46.42262044362723827362060546875" lon="7.08206780254840850830078125"><ele></ele><time>2016-7-29T2:2:59Z</time></trkpt>
<trkpt lat="46.4226331003010272979736328125" lon="7.08219981752336025238037109375"><ele></ele><time>2016-7-29T2:3:2Z</time></trkpt>
<trkpt lat="46.4226852357387542724609375" lon="7.08238321356475353240966796875"><ele></ele><time>2016-7-29T2:3:5Z</time></trkpt>
<trkpt lat="46.42264374531805515289306640625" lon="7.08250776864588260650634765625"><ele></ele><time>2016-7-29T2:3:8Z</time></trkpt>
<trkpt lat="46.422597728669643402099609375" lon="7.0826416276395320892333984375"><ele></ele><time>2016-7-29T2:3:11Z</time></trkpt>
<trkpt lat="46.42257384024560451507568359375" lon="7.08271957933902740478515625"><ele></ele><time>2016-7-29T2:3:14Z</time></trkpt>
<trkpt lat="46.42255908809602260589599609375" lon="7.08275084383785724639892578125"><ele></ele><time>2016-7-29T2:3:17Z</time></trkpt>
<trkpt lat="46.4225238002836704254150390625" lon="7.08278420381247997283935546875"><ele></ele><time>2016-7-29T2:3:20Z</time></trkpt>
<trkpt lat="46.42248817719519138336181640625" lon="7.0828226767480373382568359375"><ele></ele><time>2016-7-29T2:3:23Z</time></trkpt>
<trkpt lat="46.42247208394110202789306640625" lon="7.08283633925020694732666015625"><ele></ele><time>2016-7-29T2:3:26Z</time></trkpt>
<trkpt lat="46.42239580862224102020263671875" lon="7.082880176603794097900390625"><ele></ele><time>2016-7-29T2:3:29Z</time></trkpt>
<trkpt lat="46.42235959880053997039794921875" lon="7.08289702422916889190673828125"><ele></ele><time>2016-7-29T2:3:32Z</time></trkpt>
<trkpt lat="46.4222720079123973846435546875" lon="7.0829289592802524566650390625"><ele></ele><time>2016-7-29T2:3:35Z</time></trkpt>
<trkpt lat="46.422047875821590423583984375" lon="7.0829705335199832916259765625"><ele></ele><time>2016-7-29T2:3:38Z</time></trkpt>
<trkpt lat="46.42192290164530277252197265625" lon="7.0830850303173065185546875"><ele></ele><time>2016-7-29T2:3:41Z</time></trkpt>
<trkpt lat="46.421902365982532501220703125" lon="7.08309148438274860382080078125"><ele></ele><time>2016-7-29T2:3:44Z</time></trkpt>
<trkpt lat="46.42186515033245086669921875" lon="7.0831804163753986358642578125"><ele></ele><time>2016-7-29T2:3:47Z</time></trkpt>
<trkpt lat="46.4218767173588275909423828125" lon="7.08333657123148441314697265625"><ele></ele><time>2016-7-29T2:3:50Z</time></trkpt>
<trkpt lat="46.42185986973345279693603515625" lon="7.08346917293965816497802734375"><ele></ele><time>2016-7-29T2:3:53Z</time></trkpt>
<trkpt lat="46.4218250848352909088134765625" lon="7.08349247463047504425048828125"><ele></ele><time>2016-7-29T2:3:56Z</time></trkpt>
<trkpt lat="46.42180739901959896087646484375" lon="7.0835747011005878448486328125"><ele></ele><time>2016-7-29T2:3:59Z</time></trkpt>
<trkpt lat="46.42177923582494258880615234375" lon="7.08374074660241603851318359375"><ele></ele><time>2016-7-29T2:4:2Z</time></trkpt>
<trkpt lat="46.421813853085041046142578125" lon="7.08388726226985454559326171875"><ele></ele><time>2016-7-29T2:4:5Z</time></trkpt>
<trkpt lat="46.4218099974095821380615234375" lon="7.0839183591306209564208984375"><ele></ele><time>2016-7-29T2:4:8Z</time></trkpt>
<trkpt lat="46.42178895883262157440185546875" lon="7.0839324407279491424560546875"><ele></ele><time>2016-7-29T2:4:11Z</time></trkpt>
<trkpt lat="46.421767584979534149169921875" lon="7.0839994959533214569091796875"><ele></ele><time>2016-7-29T2:4:14Z</time></trkpt>
<trkpt lat="46.42174755223095417022705078125" lon="7.0840789563953876495361328125"><ele></ele><time>2016-7-29T2:4:17Z</time></trkpt>
<trkpt lat="46.42175291664898395538330078125" lon="7.084096558392047882080078125"><ele></ele><time>2016-7-29T2:4:20Z</time></trkpt>
<trkpt lat="46.42175073735415935516357421875" lon="7.0841654576361179351806640625"><ele></ele><time>2016-7-29T2:4:23Z</time></trkpt>
<trkpt lat="46.4216889627277851104736328125" lon="7.084262855350971221923828125"><ele></ele><time>2016-7-29T2:4:26Z</time></trkpt>
<trkpt lat="46.42170312814414501190185546875" lon="7.08437508903443813323974609375"><ele></ele><time>2016-7-29T2:4:29Z</time></trkpt>
<trkpt lat="46.42177219502627849578857421875" lon="7.0845436491072177886962890625"><ele></ele><time>2016-7-29T2:4:32Z</time></trkpt>
<trkpt lat="46.4218757115304470062255859375" lon="7.084687985479831695556640625"><ele></ele><time>2016-7-29T2:4:35Z</time></trkpt>
<trkpt lat="46.42187646590173244476318359375" lon="7.08479820750653743743896484375"><ele></ele><time>2016-7-29T2:4:38Z</time></trkpt>
<trkpt lat="46.421916782855987548828125" lon="7.0849318988621234893798828125"><ele></ele><time>2016-7-29T2:4:41Z</time></trkpt>
<trkpt lat="46.42191250808537006378173828125" lon="7.08495042286813259124755859375"><ele></ele><time>2016-7-29T2:4:44Z</time></trkpt>
<trkpt lat="46.4218993484973907470703125" lon="7.0850287936627864837646484375"><ele></ele><time>2016-7-29T2:4:47Z</time></trkpt>
<trkpt lat="46.42192826606333255767822265625" lon="7.085076905786991119384765625"><ele></ele><time>2016-7-29T2:4:50Z</time></trkpt>
<trkpt lat="46.422000266611576080322265625" lon="7.085208334028720855712890625"><ele></ele><time>2016-7-29T2:4:53Z</time></trkpt>
<trkpt lat="46.4219652302563190460205078125" lon="7.08539248444139957427978515625"><ele></ele><time>2016-7-29T2:4:56Z</time></trkpt>
<trkpt lat="46.421945951879024505615234375" lon="7.08553564734756946563720703125"><ele></ele><time>2016-7-29T2:4:59Z</time></trkpt>
<trkpt lat="46.4219367317855358123779296875" lon="7.0855705998837947845458984375"><ele></ele><time>2016-7-29T2:5:2Z</time></trkpt>
<trkpt lat="46.4218894578516483306884765625" lon="7.08562566898763179779052734375"><ele></ele><time>2016-7-29T2:5:5Z</time></trkpt>
<trkpt lat="46.421827264130115509033203125" lon="7.0856674946844577789306640625"><ele></ele><time>2016-7-29T2:5:8Z</time></trkpt>
<trkpt lat="46.42180345952510833740234375" lon="7.0856644771993160247802734375"><ele></ele><time>2016-7-29T2:5:11Z</time></trkpt>
<trkpt lat="46.42176448367536067962646484375" lon="7.08572239615023136138916015625"><ele></ele><time>2016-7-29T2:5:14Z</time></trkpt>
<trkpt lat="46.4217276871204376220703125" lon="7.0857135951519012451171875"><ele></ele><time>2016-7-29T2:5:17Z</time></trkpt>
<trkpt lat="46.42170765437185764312744140625" lon="7.0857187919318675994873046875"><ele></ele><time>2016-7-29T2:5:20Z</time></trkpt>
<trkpt lat="46.42164831049740314483642578125" lon="7.0857201330363750457763671875"><ele></ele><time>2016-7-29T2:5:23Z</time></trkpt>
<trkpt lat="46.42155057750642299652099609375" lon="7.08569549024105072021484375"><ele></ele><time>2016-7-29T2:5:26Z</time></trkpt>
<trkpt lat="46.42145167104899883270263671875" lon="7.08568149246275424957275390625"><ele></ele><time>2016-7-29T2:5:29Z</time></trkpt>
<trkpt lat="46.421386711299419403076171875" lon="7.0856584422290325164794921875"><ele></ele><time>2016-7-29T2:5:32Z</time></trkpt>
<trkpt lat="46.42127648927271366119384765625" lon="7.085614018142223358154296875"><ele></ele><time>2016-7-29T2:5:35Z</time></trkpt>
<trkpt lat="46.4212567918002605438232421875" lon="7.085608653724193572998046875"><ele></ele><time>2016-7-29T2:5:38Z</time></trkpt>
<trkpt lat="46.42118428833782672882080078125" lon="7.085601277649402618408203125"><ele></ele><time>2016-7-29T2:5:41Z</time></trkpt>
<trkpt lat="46.42112351953983306884765625" lon="7.085609324276447296142578125"><ele></ele><time>2016-7-29T2:5:44Z</time></trkpt>
<trkpt lat="46.42112712375819683074951171875" lon="7.08561494015157222747802734375"><ele></ele><time>2016-7-29T2:5:47Z</time></trkpt>
<trkpt lat="46.42108571715652942657470703125" lon="7.08561502397060394287109375"><ele></ele><time>2016-7-29T2:5:50Z</time></trkpt>
<trkpt lat="46.42106073908507823944091796875" lon="7.0856151916086673736572265625"><ele></ele><time>2016-7-29T2:5:53Z</time></trkpt>
<trkpt lat="46.4208916760981082916259765625" lon="7.08564159460365772247314453125"><ele></ele><time>2016-7-29T2:5:56Z</time></trkpt>
<trkpt lat="46.420838534832000732421875" lon="7.0857377350330352783203125"><ele></ele><time>2016-7-29T2:5:59Z</time></trkpt>
<trkpt lat="46.4207260496914386749267578125" lon="7.085882239043712615966796875"><ele></ele><time>2016-7-29T2:6:2Z</time></trkpt>
<trkpt lat="46.4206499420106410980224609375" lon="7.08597653545439243316650390625"><ele></ele><time>2016-7-29T2:6:5Z</time></trkpt>
<trkpt lat="46.42063242383301258087158203125" lon="7.08613000810146331787109375"><ele></ele><time>2016-7-29T2:6:8Z</time></trkpt>
<trkpt lat="46.42072831280529499053955078125" lon="7.086281217634677886962890625"><ele></ele><time>2016-7-29T2:6:11Z</time></trkpt>
<trkpt lat="46.42090667970478534698486328125" lon="7.0864604227244853973388671875"><ele></ele><time>2016-7-29T2:6:14Z</time></trkpt>
<trkpt lat="46.42100256867706775665283203125" lon="7.0866558887064456939697265625"><ele></ele><time>2016-7-29T2:6:17Z</time></trkpt>
<trkpt lat="46.42098136246204376220703125" lon="7.08694665692746639251708984375"><ele></ele><time>2016-7-29T2:6:20Z</time></trkpt>
<trkpt lat="46.420970298349857330322265625" lon="7.08717196248471736907958984375"><ele></ele><time>2016-7-29T2:6:23Z</time></trkpt>
<trkpt lat="46.4210304804146289825439453125" lon="7.08746683783829212188720703125"><ele></ele><time>2016-7-29T2:6:26Z</time></trkpt>
<trkpt lat="46.42109594307839870452880859375" lon="7.08769817836582660675048828125"><ele></ele><time>2016-7-29T2:6:29Z</time></trkpt>
<trkpt lat="46.42110340297222137451171875" lon="7.08800730295479297637939453125"><ele></ele><time>2016-7-29T2:6:32Z</time></trkpt>
<trkpt lat="46.42110968939960002899169921875" lon="7.0882414095103740692138671875"><ele></ele><time>2016-7-29T2:6:35Z</time></trkpt>
<trkpt lat="46.4210928417742252349853515625" lon="7.08855782635509967803955078125"><ele></ele><time>2016-7-29T2:6:38Z</time></trkpt>
<trkpt lat="46.42102436162531375885009765625" lon="7.08882202394306659698486328125"><ele></ele><time>2016-7-29T2:6:41Z</time></trkpt>
<trkpt lat="46.4208792708814144134521484375" lon="7.0889592356979846954345703125"><ele></ele><time>2016-7-29T2:6:44Z</time></trkpt>
<trkpt lat="46.42074407078325748443603515625" lon="7.08917825482785701751708984375"><ele></ele><time>2016-7-29T2:6:47Z</time></trkpt>
<trkpt lat="46.42069713212549686431884765625" lon="7.0894574560225009918212890625"><ele></ele><time>2016-7-29T2:6:50Z</time></trkpt>
<trkpt lat="46.4206680469214916229248046875" lon="7.08983824588358402252197265625"><ele></ele><time>2016-7-29T2:6:53Z</time></trkpt>
<trkpt lat="46.42064399085938930511474609375" lon="7.0902084745466709136962890625"><ele></ele><time>2016-7-29T2:6:56Z</time></trkpt>
<trkpt lat="46.420605517923831939697265625" lon="7.09056361578404903411865234375"><ele></ele><time>2016-7-29T2:6:59Z</time></trkpt>
<trkpt lat="46.4205664582550525665283203125" lon="7.090905010700225830078125"><ele></ele><time>2016-7-29T2:7:2Z</time></trkpt>
<trkpt lat="46.42055095173418521881103515625" lon="7.09100550971925258636474609375"><ele></ele><time>2016-7-29T2:7:5Z</time></trkpt>
<trkpt lat="46.420500911772251129150390625" lon="7.091376073658466339111328125"><ele></ele><time>2016-7-29T2:7:8Z</time></trkpt>
<trkpt lat="46.42044785432517528533935546875" lon="7.0918214879930019378662109375"><ele></ele><time>2016-7-29T2:7:11Z</time></trkpt>
<trkpt lat="46.42038834281265735626220703125" lon="7.09224821068346500396728515625"><ele></ele><time>2016-7-29T2:7:14Z</time></trkpt>
<trkpt lat="46.4203495346009731292724609375" lon="7.09261424839496612548828125"><ele></ele><time>2016-7-29T2:7:17Z</time></trkpt>
<trkpt lat="46.4202834852039813995361328125" lon="7.09304180927574634552001953125"><ele></ele><time>2016-7-29T2:7:20Z</time></trkpt>
<trkpt lat="46.42023277468979358673095703125" lon="7.09344347007572650909423828125"><ele></ele><time>2016-7-29T2:7:23Z</time></trkpt>
<trkpt lat="46.420153565704822540283203125" lon="7.09380003623664379119873046875"><ele></ele><time>2016-7-29T2:7:26Z</time></trkpt>
<trkpt lat="46.4200065471231937408447265625" lon="7.09408317692577838897705078125"><ele></ele><time>2016-7-29T2:7:29Z</time></trkpt>
<trkpt lat="46.4198767952620983123779296875" lon="7.094314433634281158447265625"><ele></ele><time>2016-7-29T2:7:32Z</time></trkpt>
<trkpt lat="46.4198553375899791717529296875" lon="7.09464141167700290679931640625"><ele></ele><time>2016-7-29T2:7:35Z</time></trkpt>
<trkpt lat="46.41988241113722324371337890625" lon="7.09512555040419101715087890625"><ele></ele><time>2016-7-29T2:7:38Z</time></trkpt>
<trkpt lat="46.419913507997989654541015625" lon="7.09537046961486339569091796875"><ele></ele><time>2016-7-29T2:7:41Z</time></trkpt>
<trkpt lat="46.41993069089949131011962890625" lon="7.0954873971641063690185546875"><ele></ele><time>2016-7-29T2:7:44Z</time></trkpt>
<trkpt lat="46.41994468867778778076171875" lon="7.0956084318459033966064453125"><ele></ele><time>2016-7-29T2:7:47Z</time></trkpt>
<trkpt lat="46.42003110609948635101318359375" lon="7.0961549319326877593994140625"><ele></ele><time>2016-7-29T2:7:50Z</time></trkpt>
<trkpt lat="46.42007200978696346282958984375" lon="7.09658115170896053314208984375"><ele></ele><time>2016-7-29T2:7:53Z</time></trkpt>
<trkpt lat="46.420071423053741455078125" lon="7.09663764573633670806884765625"><ele></ele><time>2016-7-29T2:7:56Z</time></trkpt>
<trkpt lat="46.42001870088279247283935546875" lon="7.097128070890903472900390625"><ele></ele><time>2016-7-29T2:7:59Z</time></trkpt>
<trkpt lat="46.4199815690517425537109375" lon="7.09749720990657806396484375"><ele></ele><time>2016-7-29T2:8:2Z</time></trkpt>
<trkpt lat="46.4199770428240299224853515625" lon="7.09765990264713764190673828125"><ele></ele><time>2016-7-29T2:8:5Z</time></trkpt>
<trkpt lat="46.419986598193645477294921875" lon="7.09811671636998653411865234375"><ele></ele><time>2016-7-29T2:8:8Z</time></trkpt>
<trkpt lat="46.42004552297294139862060546875" lon="7.09848166443407535552978515625"><ele></ele><time>2016-7-29T2:8:11Z</time></trkpt>
<trkpt lat="46.420160271227359771728515625" lon="7.09910511039197444915771484375"><ele></ele><time>2016-7-29T2:8:14Z</time></trkpt>
<trkpt lat="46.42019991762936115264892578125" lon="7.09955421276390552520751953125"><ele></ele><time>2016-7-29T2:8:17Z</time></trkpt>
<trkpt lat="46.42024316824972629547119140625" lon="7.09998906590044498443603515625"><ele></ele><time>2016-7-29T2:8:20Z</time></trkpt>
<trkpt lat="46.42024920322000980377197265625" lon="7.1002345718443393707275390625"><ele></ele><time>2016-7-29T2:8:23Z</time></trkpt>
<trkpt lat="46.420264542102813720703125" lon="7.10060010664165019989013671875"><ele></ele><time>2016-7-29T2:8:26Z</time></trkpt>
<trkpt lat="46.42020897008478641510009765625" lon="7.1009503863751888275146484375"><ele></ele><time>2016-7-29T2:8:29Z</time></trkpt>
<trkpt lat="46.42007452435791492462158203125" lon="7.1012839861214160919189453125"><ele></ele><time>2016-7-29T2:8:32Z</time></trkpt>
<trkpt lat="46.41998827457427978515625" lon="7.10150065831840038299560546875"><ele></ele><time>2016-7-29T2:8:35Z</time></trkpt>
<trkpt lat="46.419828347861766815185546875" lon="7.10180860944092273712158203125"><ele></ele><time>2016-7-29T2:8:38Z</time></trkpt>
<trkpt lat="46.4197165332734584808349609375" lon="7.1020554564893245697021484375"><ele></ele><time>2016-7-29T2:8:41Z</time></trkpt>
<trkpt lat="46.41963900066912174224853515625" lon="7.1023253537714481353759765625"><ele></ele><time>2016-7-29T2:8:44Z</time></trkpt>
<trkpt lat="46.4195529185235500335693359375" lon="7.1026260964572429656982421875"><ele></ele><time>2016-7-29T2:8:47Z</time></trkpt>
<trkpt lat="46.4195271022617816925048828125" lon="7.10291267372667789459228515625"><ele></ele><time>2016-7-29T2:8:50Z</time></trkpt>
<trkpt lat="46.41948603093624114990234375" lon="7.10325029678642749786376953125"><ele></ele><time>2016-7-29T2:8:53Z</time></trkpt>
<trkpt lat="46.41945895738899707794189453125" lon="7.10342916660010814666748046875"><ele></ele><time>2016-7-29T2:8:56Z</time></trkpt>
<trkpt lat="46.41942878253757953643798828125" lon="7.1035749278962612152099609375"><ele></ele><time>2016-7-29T2:8:59Z</time></trkpt>
<trkpt lat="46.41942777670919895172119140625" lon="7.10385194979608058929443359375"><ele></ele><time>2016-7-29T2:9:2Z</time></trkpt>
<trkpt lat="46.41946650110185146331787109375" lon="7.10429183207452297210693359375"><ele></ele><time>2016-7-29T2:9:5Z</time></trkpt>
<trkpt lat="46.419533975422382354736328125" lon="7.1047205664217472076416015625"><ele></ele><time>2016-7-29T2:9:8Z</time></trkpt>
<trkpt lat="46.41962978057563304901123046875" lon="7.10521526634693145751953125"><ele></ele><time>2016-7-29T2:9:11Z</time></trkpt>
<trkpt lat="46.41973438672721385955810546875" lon="7.1056543104350566864013671875"><ele></ele><time>2016-7-29T2:9:14Z</time></trkpt>
<trkpt lat="46.41982256434857845306396484375" lon="7.10602386854588985443115234375"><ele></ele><time>2016-7-29T2:9:17Z</time></trkpt>
<trkpt lat="46.41990269534289836883544921875" lon="7.10639384575188159942626953125"><ele></ele><time>2016-7-29T2:9:20Z</time></trkpt>
<trkpt lat="46.419835053384304046630859375" lon="7.1066078357398509979248046875"><ele></ele><time>2016-7-29T2:9:23Z</time></trkpt>
<trkpt lat="46.419662050902843475341796875" lon="7.10659668780863285064697265625"><ele></ele><time>2016-7-29T2:9:26Z</time></trkpt>
<trkpt lat="46.41924035735428333282470703125" lon="7.1064401976764202117919921875"><ele></ele><time>2016-7-29T2:9:29Z</time></trkpt>
<trkpt lat="46.41870609484612941741943359375" lon="7.10624431259930133819580078125"><ele></ele><time>2016-7-29T2:9:32Z</time></trkpt>
<trkpt lat="46.41818122006952762603759765625" lon="7.1060616709291934967041015625"><ele></ele><time>2016-7-29T2:9:35Z</time></trkpt>
<trkpt lat="46.4180585928261280059814453125" lon="7.10601917468011379241943359375"><ele></ele><time>2016-7-29T2:9:38Z</time></trkpt>
<trkpt lat="46.41764041967689990997314453125" lon="7.1058719046413898468017578125"><ele></ele><time>2016-7-29T2:9:41Z</time></trkpt>
<trkpt lat="46.41710397787392139434814453125" lon="7.10567660629749298095703125"><ele></ele><time>2016-7-29T2:9:44Z</time></trkpt>
<trkpt lat="46.41668756492435932159423828125" lon="7.10552481003105640411376953125"><ele></ele><time>2016-7-29T2:9:47Z</time></trkpt>
<trkpt lat="46.41612916253507137298583984375" lon="7.10531928576529026031494140625"><ele></ele><time>2016-7-29T2:9:50Z</time></trkpt>
<trkpt lat="46.4160801284015178680419921875" lon="7.1053029410541057586669921875"><ele></ele><time>2016-7-29T2:9:53Z</time></trkpt>
<trkpt lat="46.41556522808969020843505859375" lon="7.10511594079434871673583984375"><ele></ele><time>2016-7-29T2:9:56Z</time></trkpt>
<trkpt lat="46.41501923091709613800048828125" lon="7.10488845594227313995361328125"><ele></ele><time>2016-7-29T2:9:59Z</time></trkpt>
<trkpt lat="46.41456845216453075408935546875" lon="7.10456877015531063079833984375"><ele></ele><time>2016-7-29T2:10:2Z</time></trkpt>
<trkpt lat="46.4141504466533660888671875" lon="7.1042025648057460784912109375"><ele></ele><time>2016-7-29T2:10:5Z</time></trkpt>
<trkpt lat="46.41386856324970722198486328125" lon="7.103946916759014129638671875"><ele></ele><time>2016-7-29T2:10:8Z</time></trkpt>
<trkpt lat="46.4135528169572353363037109375" lon="7.10375220514833927154541015625"><ele></ele><time>2016-7-29T2:10:11Z</time></trkpt>
<trkpt lat="46.4135078899562358856201171875" lon="7.10373544134199619293212890625"><ele></ele><time>2016-7-29T2:10:14Z</time></trkpt>
<trkpt lat="46.4132282696664333343505859375" lon="7.10364642553031444549560546875"><ele></ele><time>2016-7-29T2:10:17Z</time></trkpt>
<trkpt lat="46.4131434448063373565673828125" lon="7.1036376245319843292236328125"><ele></ele><time>2016-7-29T2:10:20Z</time></trkpt>
<trkpt lat="46.41295476816594600677490234375" lon="7.10364843718707561492919921875"><ele></ele><time>2016-7-29T2:10:23Z</time></trkpt>
<trkpt lat="46.4126599766314029693603515625" lon="7.1037144027650356292724609375"><ele></ele><time>2016-7-29T2:10:26Z</time></trkpt>
<trkpt lat="46.412310786545276641845703125" lon="7.103773914277553558349609375"><ele></ele><time>2016-7-29T2:10:29Z</time></trkpt>
<trkpt lat="46.41207617707550525665283203125" lon="7.10376259870827198028564453125"><ele></ele><time>2016-7-29T2:10:32Z</time></trkpt>
<trkpt lat="46.41180284321308135986328125" lon="7.10365011356770992279052734375"><ele></ele><time>2016-7-29T2:10:35Z</time></trkpt>
<trkpt lat="46.41149296425282955169677734375" lon="7.1035447530448436737060546875"><ele></ele><time>2016-7-29T2:10:38Z</time></trkpt>
<trkpt lat="46.41110940836369991302490234375" lon="7.10351466201245784759521484375"><ele></ele><time>2016-7-29T2:10:41Z</time></trkpt>
<trkpt lat="46.41079056076705455780029296875" lon="7.103515751659870147705078125"><ele></ele><time>2016-7-29T2:10:44Z</time></trkpt>
<trkpt lat="46.41056508757174015045166015625" lon="7.103533856570720672607421875"><ele></ele><time>2016-7-29T2:10:47Z</time></trkpt>
<trkpt lat="46.4102024026215076446533203125" lon="7.103548943996429443359375"><ele></ele><time>2016-7-29T2:10:50Z</time></trkpt>
<trkpt lat="46.4098500274121761322021484375" lon="7.1035729162395000457763671875"><ele></ele><time>2016-7-29T2:10:53Z</time></trkpt>
<trkpt lat="46.40955381095409393310546875" lon="7.1036151610314846038818359375"><ele></ele><time>2016-7-29T2:10:56Z</time></trkpt>
<trkpt lat="46.40920420177280902862548828125" lon="7.103763520717620849609375"><ele></ele><time>2016-7-29T2:10:59Z</time></trkpt>
<trkpt lat="46.4090140163898468017578125" lon="7.103903330862522125244140625"><ele></ele><time>2016-7-29T2:11:2Z</time></trkpt>
<trkpt lat="46.4087858609855175018310546875" lon="7.10408580489456653594970703125"><ele></ele><time>2016-7-29T2:11:5Z</time></trkpt>
<trkpt lat="46.40857438556849956512451171875" lon="7.10425243712961673736572265625"><ele></ele><time>2016-7-29T2:11:8Z</time></trkpt>
<trkpt lat="46.40830499120056629180908203125" lon="7.10443784482777118682861328125"><ele></ele><time>2016-7-29T2:11:11Z</time></trkpt>
<trkpt lat="46.4080854691565036773681640625" lon="7.1045287884771823883056640625"><ele></ele><time>2016-7-29T2:11:14Z</time></trkpt>
<trkpt lat="46.40786561183631420135498046875" lon="7.10457631386816501617431640625"><ele></ele><time>2016-7-29T2:11:17Z</time></trkpt>
<trkpt lat="46.40769395045936107635498046875" lon="7.10456575267016887664794921875"><ele></ele><time>2016-7-29T2:11:20Z</time></trkpt>
<trkpt lat="46.4075084589421749114990234375" lon="7.10452535189688205718994140625"><ele></ele><time>2016-7-29T2:11:23Z</time></trkpt>
<trkpt lat="46.40730452723801136016845703125" lon="7.1045157127082347869873046875"><ele></ele><time>2016-7-29T2:11:26Z</time></trkpt>
<trkpt lat="46.40712213702499866485595703125" lon="7.1045281179249286651611328125"><ele></ele><time>2016-7-29T2:11:29Z</time></trkpt>
<trkpt lat="46.40693119727075099945068359375" lon="7.10460917092859745025634765625"><ele></ele><time>2016-7-29T2:11:32Z</time></trkpt>
<trkpt lat="46.4067899622023105621337890625" lon="7.10474562831223011016845703125"><ele></ele><time>2016-7-29T2:11:35Z</time></trkpt>
<trkpt lat="46.406657360494136810302734375" lon="7.10495064966380596160888671875"><ele></ele><time>2016-7-29T2:11:38Z</time></trkpt>
<trkpt lat="46.4065160416066646575927734375" lon="7.10507151670753955841064453125"><ele></ele><time>2016-7-29T2:11:41Z</time></trkpt>
<trkpt lat="46.4063520915806293487548828125" lon="7.1050286851823329925537109375"><ele></ele><time>2016-7-29T2:11:44Z</time></trkpt>
<trkpt lat="46.4062411151826381683349609375" lon="7.10486146621406078338623046875"><ele></ele><time>2016-7-29T2:11:47Z</time></trkpt>
<trkpt lat="46.406188309192657470703125" lon="7.10460699163377285003662109375"><ele></ele><time>2016-7-29T2:11:50Z</time></trkpt>
<trkpt lat="46.40612192451953887939453125" lon="7.1043415367603302001953125"><ele></ele><time>2016-7-29T2:11:53Z</time></trkpt>
<trkpt lat="46.40600365586578845977783203125" lon="7.10418337024748325347900390625"><ele></ele><time>2016-7-29T2:11:56Z</time></trkpt>
<trkpt lat="46.40583115629851818084716796875" lon="7.10406216792762279510498046875"><ele></ele><time>2016-7-29T2:11:59Z</time></trkpt>
<trkpt lat="46.4056577347218990325927734375" lon="7.1039767563343048095703125"><ele></ele><time>2016-7-29T2:12:2Z</time></trkpt>
<trkpt lat="46.405454389750957489013671875" lon="7.10382713936269283294677734375"><ele></ele><time>2016-7-29T2:12:5Z</time></trkpt>
<trkpt lat="46.4053244702517986297607421875" lon="7.10363167338073253631591796875"><ele></ele><time>2016-7-29T2:12:8Z</time></trkpt>
<trkpt lat="46.40531097538769245147705078125" lon="7.10360049270093441009521484375"><ele></ele><time>2016-7-29T2:12:11Z</time></trkpt>
<trkpt lat="46.4052560739219188690185546875" lon="7.10340938530862331390380859375"><ele></ele><time>2016-7-29T2:12:14Z</time></trkpt>
<trkpt lat="46.40517619438469409942626953125" lon="7.10315667092800140380859375"><ele></ele><time>2016-7-29T2:12:17Z</time></trkpt>
<trkpt lat="46.405052058398723602294921875" lon="7.102934382855892181396484375"><ele></ele><time>2016-7-29T2:12:20Z</time></trkpt>
<trkpt lat="46.40488768927752971649169921875" lon="7.1028041280806064605712890625"><ele></ele><time>2016-7-29T2:12:23Z</time></trkpt>
<trkpt lat="46.40465609729290008544921875" lon="7.1027370728552341461181640625"><ele></ele><time>2016-7-29T2:12:26Z</time></trkpt>
<trkpt lat="46.404407322406768798828125" lon="7.102717794477939605712890625"><ele></ele><time>2016-7-29T2:12:29Z</time></trkpt>
<trkpt lat="46.40419878065586090087890625" lon="7.10270480252802371978759765625"><ele></ele><time>2016-7-29T2:12:32Z</time></trkpt>
<trkpt lat="46.40392930246889591217041015625" lon="7.1026881225407123565673828125"><ele></ele><time>2016-7-29T2:12:35Z</time></trkpt>
<trkpt lat="46.40370701439678668975830078125" lon="7.10264478810131549835205078125"><ele></ele><time>2016-7-29T2:12:38Z</time></trkpt>
<trkpt lat="46.403484977781772613525390625" lon="7.1025122702121734619140625"><ele></ele><time>2016-7-29T2:12:41Z</time></trkpt>
<trkpt lat="46.40326193533837795257568359375" lon="7.1023199893534183502197265625"><ele></ele><time>2016-7-29T2:12:44Z</time></trkpt>
<trkpt lat="46.4030559919774532318115234375" lon="7.102235667407512664794921875"><ele></ele><time>2016-7-29T2:12:47Z</time></trkpt>
<trkpt lat="46.402733288705348968505859375" lon="7.10217632353305816650390625"><ele></ele><time>2016-7-29T2:12:50Z</time></trkpt>
<trkpt lat="46.40238502062857151031494140625" lon="7.10213298909366130828857421875"><ele></ele><time>2016-7-29T2:12:53Z</time></trkpt>
<trkpt lat="46.4021329768002033233642578125" lon="7.10218043066561222076416015625"><ele></ele><time>2016-7-29T2:12:56Z</time></trkpt>
<trkpt lat="46.40196441672742366790771484375" lon="7.10231579840183258056640625"><ele></ele><time>2016-7-29T2:12:59Z</time></trkpt>
<trkpt lat="46.40174925327301025390625" lon="7.102581672370433807373046875"><ele></ele><time>2016-7-29T2:13:2Z</time></trkpt>
<trkpt lat="46.4015576429665088653564453125" lon="7.10276850499212741851806640625"><ele></ele><time>2016-7-29T2:13:5Z</time></trkpt>
<trkpt lat="46.40133460052311420440673828125" lon="7.10280404426157474517822265625"><ele></ele><time>2016-7-29T2:13:8Z</time></trkpt>
<trkpt lat="46.401133351027965545654296875" lon="7.10272173397243022918701171875"><ele></ele><time>2016-7-29T2:13:11Z</time></trkpt>
<trkpt lat="46.400867141783237457275390625" lon="7.1025355719029903411865234375"><ele></ele><time>2016-7-29T2:13:14Z</time></trkpt>
<trkpt lat="46.40055541880428791046142578125" lon="7.1024343185126781463623046875"><ele></ele><time>2016-7-29T2:13:17Z</time></trkpt>
<trkpt lat="46.4002289436757564544677734375" lon="7.102400623261928558349609375"><ele></ele><time>2016-7-29T2:13:20Z</time></trkpt>
<trkpt lat="46.39977053739130496978759765625" lon="7.1024041436612606048583984375"><ele></ele><time>2016-7-29T2:13:23Z</time></trkpt>
<trkpt lat="46.39955629594624042510986328125" lon="7.102510593831539154052734375"><ele></ele><time>2016-7-29T2:13:26Z</time></trkpt>
<trkpt lat="46.39928338117897510528564453125" lon="7.10264897905290126800537109375"><ele></ele><time>2016-7-29T2:13:29Z</time></trkpt>
<trkpt lat="46.3991193473339080810546875" lon="7.10264227353036403656005859375"><ele></ele><time>2016-7-29T2:13:32Z</time></trkpt>
<trkpt lat="46.39907307922840118408203125" lon="7.1026190556585788726806640625"><ele></ele><time>2016-7-29T2:13:35Z</time></trkpt>
<trkpt lat="46.398688852787017822265625" lon="7.10241294465959072113037109375"><ele></ele><time>2016-7-29T2:13:38Z</time></trkpt>
<trkpt lat="46.39848173595964908599853515625" lon="7.1023099310696125030517578125"><ele></ele><time>2016-7-29T2:13:41Z</time></trkpt>
<trkpt lat="46.39838215894997119903564453125" lon="7.10221764631569385528564453125"><ele></ele><time>2016-7-29T2:13:44Z</time></trkpt>
<trkpt lat="46.39812449924647808074951171875" lon="7.10193484090268611907958984375"><ele></ele><time>2016-7-29T2:13:47Z</time></trkpt>
<trkpt lat="46.39805861748754978179931640625" lon="7.10189728997647762298583984375"><ele></ele><time>2016-7-29T2:13:50Z</time></trkpt>
<trkpt lat="46.39798837713897228240966796875" lon="7.101880274713039398193359375"><ele></ele><time>2016-7-29T2:13:53Z</time></trkpt>
<trkpt lat="46.397680006921291351318359375" lon="7.10173317231237888336181640625"><ele></ele><time>2016-7-29T2:13:56Z</time></trkpt>
<trkpt lat="46.39745780266821384429931640625" lon="7.1016621775925159454345703125"><ele></ele><time>2016-7-29T2:13:59Z</time></trkpt>
<trkpt lat="46.3971866481006145477294921875" lon="7.10168070159852504730224609375"><ele></ele><time>2016-7-29T2:14:2Z</time></trkpt>
<trkpt lat="46.39708220958709716796875" lon="7.101722024381160736083984375"><ele></ele><time>2016-7-29T2:14:5Z</time></trkpt>
<trkpt lat="46.39684240333735942840576171875" lon="7.1018229424953460693359375"><ele></ele><time>2016-7-29T2:14:8Z</time></trkpt>
<trkpt lat="46.39658776111900806427001953125" lon="7.10193953476846218109130859375"><ele></ele><time>2016-7-29T2:14:11Z</time></trkpt>
<trkpt lat="46.3963209651410579681396484375" lon="7.1020712144672870635986328125"><ele></ele><time>2016-7-29T2:14:14Z</time></trkpt>
<trkpt lat="46.3960457034409046173095703125" lon="7.10218629799783229827880859375"><ele></ele><time>2016-7-29T2:14:17Z</time></trkpt>
<trkpt lat="46.395876891911029815673828125" lon="7.1022790856659412384033203125"><ele></ele><time>2016-7-29T2:14:20Z</time></trkpt>
<trkpt lat="46.3957707770168781280517578125" lon="7.1024450473487377166748046875"><ele></ele><time>2016-7-29T2:14:23Z</time></trkpt>
<trkpt lat="46.3957278616726398468017578125" lon="7.10258510895073413848876953125"><ele></ele><time>2016-7-29T2:14:26Z</time></trkpt>
<trkpt lat="46.39573431573808193206787109375" lon="7.10282265208661556243896484375"><ele></ele><time>2016-7-29T2:14:29Z</time></trkpt>
<trkpt lat="46.39578745700418949127197265625" lon="7.102967910468578338623046875"><ele></ele><time>2016-7-29T2:14:32Z</time></trkpt>
<trkpt lat="46.39577186666429042816162109375" lon="7.1029959060251712799072265625"><ele></ele><time>2016-7-29T2:14:35Z</time></trkpt>
<trkpt lat="46.395789720118045806884765625" lon="7.102944441139698028564453125"><ele></ele><time>2016-7-29T2:14:38Z</time></trkpt>
<trkpt lat="46.39579097740352153778076171875" lon="7.10293496958911418914794921875"><ele></ele><time>2016-7-29T2:14:41Z</time></trkpt>
<trkpt lat="46.39579198323190212249755859375" lon="7.1029801480472087860107421875"><ele></ele><time>2016-7-29T2:14:44Z</time></trkpt>
<trkpt lat="46.395781338214874267578125" lon="7.103006802499294281005859375"><ele></ele><time>2016-7-29T2:14:47Z</time></trkpt>
<trkpt lat="46.3957979343831539154052734375" lon="7.1030116640031337738037109375"><ele></ele><time>2016-7-29T2:14:50Z</time></trkpt>
<trkpt lat="46.39580841176211833953857421875" lon="7.10302767343819141387939453125"><ele></ele><time>2016-7-29T2:14:53Z</time></trkpt>
<trkpt lat="46.39583892188966274261474609375" lon="7.10306338034570217132568359375"><ele></ele><time>2016-7-29T2:14:56Z</time></trkpt>
<trkpt lat="46.39585887081921100616455078125" lon="7.1030917949974536895751953125"><ele></ele><time>2016-7-29T2:14:59Z</time></trkpt>
<trkpt lat="46.395878903567790985107421875" lon="7.10310327820479869842529296875"><ele></ele><time>2016-7-29T2:15:2Z</time></trkpt>
<trkpt lat="46.39592659659683704376220703125" lon="7.10315038450062274932861328125"><ele></ele><time>2016-7-29T2:15:5Z</time></trkpt>
<trkpt lat="46.3960436917841434478759765625" lon="7.10328944027423858642578125"><ele></ele><time>2016-7-29T2:15:8Z</time></trkpt>
<trkpt lat="46.396140418946743011474609375" lon="7.10339681245386600494384765625"><ele></ele><time>2016-7-29T2:15:11Z</time></trkpt>
<trkpt lat="46.3962485454976558685302734375" lon="7.103519774973392486572265625"><ele></ele><time>2016-7-29T2:15:14Z</time></trkpt>
<trkpt lat="46.3963578455150127410888671875" lon="7.10363921709358692169189453125"><ele></ele><time>2016-7-29T2:15:17Z</time></trkpt>
<trkpt lat="46.39647929929196834564208984375" lon="7.10379076190292835235595703125"><ele></ele><time>2016-7-29T2:15:20Z</time></trkpt>
<trkpt lat="46.39657082967460155487060546875" lon="7.1039293147623538970947265625"><ele></ele><time>2016-7-29T2:15:23Z</time></trkpt>
<trkpt lat="46.39663453213870525360107421875" lon="7.10409301333129405975341796875"><ele></ele><time>2016-7-29T2:15:26Z</time></trkpt>
<trkpt lat="46.39666990377008914947509765625" lon="7.10424832999706268310546875"><ele></ele><time>2016-7-29T2:15:29Z</time></trkpt>
<trkpt lat="46.3966585882008075714111328125" lon="7.1044560335576534271240234375"><ele></ele><time>2016-7-29T2:15:32Z</time></trkpt>
<trkpt lat="46.3965720869600772857666015625" lon="7.10461587645113468170166015625"><ele></ele><time>2016-7-29T2:15:35Z</time></trkpt>
<trkpt lat="46.3964497111737728118896484375" lon="7.104661054909229278564453125"><ele></ele><time>2016-7-29T2:15:38Z</time></trkpt>
<trkpt lat="46.39629087410867214202880859375" lon="7.10464068688452243804931640625"><ele></ele><time>2016-7-29T2:15:41Z</time></trkpt>
<trkpt lat="46.39607034623622894287109375" lon="7.10455569438636302947998046875"><ele></ele><time>2016-7-29T2:15:44Z</time></trkpt>
<trkpt lat="46.39574638567864894866943359375" lon="7.10444723255932331085205078125"><ele></ele><time>2016-7-29T2:15:47Z</time></trkpt>
<trkpt lat="46.39548017643392086029052734375" lon="7.1043517626821994781494140625"><ele></ele><time>2016-7-29T2:15:50Z</time></trkpt>
<trkpt lat="46.3951897434890270233154296875" lon="7.10429937578737735748291015625"><ele></ele><time>2016-7-29T2:15:53Z</time></trkpt>
<trkpt lat="46.39489612542092800140380859375" lon="7.10427959449589252471923828125"><ele></ele><time>2016-7-29T2:15:56Z</time></trkpt>
<trkpt lat="46.39464047737419605255126953125" lon="7.1042689494788646697998046875"><ele></ele><time>2016-7-29T2:15:59Z</time></trkpt>
<trkpt lat="46.394213251769542694091796875" lon="7.10416761226952075958251953125"><ele></ele><time>2016-7-29T2:16:2Z</time></trkpt>
<trkpt lat="46.39407134614884853363037109375" lon="7.1041539497673511505126953125"><ele></ele><time>2016-7-29T2:16:5Z</time></trkpt>
<trkpt lat="46.39382936060428619384765625" lon="7.1041435562074184417724609375"><ele></ele><time>2016-7-29T2:16:8Z</time></trkpt>
<trkpt lat="46.3937012851238250732421875" lon="7.10412494838237762451171875"><ele></ele><time>2016-7-29T2:16:11Z</time></trkpt>
<trkpt lat="46.3935120217502117156982421875" lon="7.10407666862010955810546875"><ele></ele><time>2016-7-29T2:16:14Z</time></trkpt>
<trkpt lat="46.39329300262033939361572265625" lon="7.10410994477570056915283203125"><ele></ele><time>2016-7-29T2:16:17Z</time></trkpt>
<trkpt lat="46.393169872462749481201171875" lon="7.1041484177112579345703125"><ele></ele><time>2016-7-29T2:16:20Z</time></trkpt>
<trkpt lat="46.392965354025363922119140625" lon="7.10406652651727199554443359375"><ele></ele><time>2016-7-29T2:16:23Z</time></trkpt>
<trkpt lat="46.39267735183238983154296875" lon="7.1039091981947422027587890625"><ele></ele><time>2016-7-29T2:16:26Z</time></trkpt>
<trkpt lat="46.3925222866237163543701171875" lon="7.10381473414599895477294921875"><ele></ele><time>2016-7-29T2:16:29Z</time></trkpt>
<trkpt lat="46.39238901436328887939453125" lon="7.10373594425618648529052734375"><ele></ele><time>2016-7-29T2:16:32Z</time></trkpt>
<trkpt lat="46.39231936074793338775634765625" lon="7.1037150733172893524169921875"><ele></ele><time>2016-7-29T2:16:35Z</time></trkpt>
<trkpt lat="46.39218457974493503570556640625" lon="7.103638462722301483154296875"><ele></ele><time>2016-7-29T2:16:38Z</time></trkpt>
<trkpt lat="46.39200420118868350982666015625" lon="7.103527151048183441162109375"><ele></ele><time>2016-7-29T2:16:41Z</time></trkpt>
<trkpt lat="46.39183790422976016998291015625" lon="7.103424556553363800048828125"><ele></ele><time>2016-7-29T2:16:44Z</time></trkpt>
<trkpt lat="46.39160639606416225433349609375" lon="7.1033040247857570648193359375"><ele></ele><time>2016-7-29T2:16:47Z</time></trkpt>
<trkpt lat="46.39143289066851139068603515625" lon="7.1031980775296688079833984375"><ele></ele><time>2016-7-29T2:16:50Z</time></trkpt>
<trkpt lat="46.3913203217089176177978515625" lon="7.10313077084720134735107421875"><ele></ele><time>2016-7-29T2:16:53Z</time></trkpt>
<trkpt lat="46.39127078466117382049560546875" lon="7.10310093127191066741943359375"><ele></ele><time>2016-7-29T2:16:56Z</time></trkpt>
<trkpt lat="46.391140781342983245849609375" lon="7.103022895753383636474609375"><ele></ele><time>2016-7-29T2:16:59Z</time></trkpt>
<trkpt lat="46.39098378829658031463623046875" lon="7.10292608477175235748291015625"><ele></ele><time>2016-7-29T2:17:2Z</time></trkpt>
<trkpt lat="46.39083660207688808441162109375" lon="7.10290513001382350921630859375"><ele></ele><time>2016-7-29T2:17:5Z</time></trkpt>
<trkpt lat="46.3906891644001007080078125" lon="7.10288082249462604522705078125"><ele></ele><time>2016-7-29T2:17:8Z</time></trkpt>
<trkpt lat="46.39052353799343109130859375" lon="7.10290580056607723236083984375"><ele></ele><time>2016-7-29T2:17:11Z</time></trkpt>
<trkpt lat="46.39037869870662689208984375" lon="7.10294083692133426666259765625"><ele></ele><time>2016-7-29T2:17:14Z</time></trkpt>
<trkpt lat="46.39017309062182903289794921875" lon="7.10292734205722808837890625"><ele></ele><time>2016-7-29T2:17:17Z</time></trkpt>
<trkpt lat="46.39006429351866245269775390625" lon="7.1029365621507167816162109375"><ele></ele><time>2016-7-29T2:17:20Z</time></trkpt>
<trkpt lat="46.38992800377309322357177734375" lon="7.10294519551098346710205078125"><ele></ele><time>2016-7-29T2:17:23Z</time></trkpt>
<trkpt lat="46.38976807706058025360107421875" lon="7.102948129177093505859375"><ele></ele><time>2016-7-29T2:17:26Z</time></trkpt>
<trkpt lat="46.3896243274211883544921875" lon="7.10290051996707916259765625"><ele></ele><time>2016-7-29T2:17:29Z</time></trkpt>
<trkpt lat="46.38942592777311801910400390625" lon="7.10276062600314617156982421875"><ele></ele><time>2016-7-29T2:17:32Z</time></trkpt>
<trkpt lat="46.3892677612602710723876953125" lon="7.1027058921754360198974609375"><ele></ele><time>2016-7-29T2:17:35Z</time></trkpt>
<trkpt lat="46.389070115983486175537109375" lon="7.102646715939044952392578125"><ele></ele><time>2016-7-29T2:17:38Z</time></trkpt>
<trkpt lat="46.3889405317604541778564453125" lon="7.10259449668228626251220703125"><ele></ele><time>2016-7-29T2:17:41Z</time></trkpt>
<trkpt lat="46.3887799344956874847412109375" lon="7.10252677090466022491455078125"><ele></ele><time>2016-7-29T2:17:44Z</time></trkpt>
<trkpt lat="46.3886186666786670684814453125" lon="7.10245988331735134124755859375"><ele></ele><time>2016-7-29T2:17:47Z</time></trkpt>
<trkpt lat="46.3884959556162357330322265625" lon="7.10236634127795696258544921875"><ele></ele><time>2016-7-29T2:17:50Z</time></trkpt>
<trkpt lat="46.38836226426064968109130859375" lon="7.10225570015609264373779296875"><ele></ele><time>2016-7-29T2:17:53Z</time></trkpt>
<trkpt lat="46.388213150203227996826171875" lon="7.10212779231369495391845703125"><ele></ele><time>2016-7-29T2:17:56Z</time></trkpt>
<trkpt lat="46.38808138668537139892578125" lon="7.10200860165059566497802734375"><ele></ele><time>2016-7-29T2:17:59Z</time></trkpt>
<trkpt lat="46.3879414089024066925048828125" lon="7.10191254504024982452392578125"><ele></ele><time>2016-7-29T2:18:2Z</time></trkpt>
<trkpt lat="46.387808136641979217529296875" lon="7.1018418855965137481689453125"><ele></ele><time>2016-7-29T2:18:5Z</time></trkpt>
<trkpt lat="46.38764309696853160858154296875" lon="7.101783044636249542236328125"><ele></ele><time>2016-7-29T2:18:8Z</time></trkpt>
<trkpt lat="46.38752507977187633514404296875" lon="7.10173333995044231414794921875"><ele></ele><time>2016-7-29T2:18:11Z</time></trkpt>
<trkpt lat="46.38738996349275112152099609375" lon="7.10166125558316707611083984375"><ele></ele><time>2016-7-29T2:18:14Z</time></trkpt>
<trkpt lat="46.3872882910072803497314453125" lon="7.10157827474176883697509765625"><ele></ele><time>2016-7-29T2:18:17Z</time></trkpt>
<trkpt lat="46.38712928630411624908447265625" lon="7.101496048271656036376953125"><ele></ele><time>2016-7-29T2:18:20Z</time></trkpt>
<trkpt lat="46.3869902305305004119873046875" lon="7.10138565860688686370849609375"><ele></ele><time>2016-7-29T2:18:23Z</time></trkpt>
<trkpt lat="46.38687573373317718505859375" lon="7.1012970618903636932373046875"><ele></ele><time>2016-7-29T2:18:26Z</time></trkpt>
<trkpt lat="46.38678311370313167572021484375" lon="7.10123310796916484832763671875"><ele></ele><time>2016-7-29T2:18:29Z</time></trkpt>
<trkpt lat="46.3866355083882808685302734375" lon="7.10110687650740146636962890625"><ele></ele><time>2016-7-29T2:18:32Z</time></trkpt>
<trkpt lat="46.38651497662067413330078125" lon="7.100997157394886016845703125"><ele></ele><time>2016-7-29T2:18:35Z</time></trkpt>
<trkpt lat="46.38635178096592426300048828125" lon="7.10085944272577762603759765625"><ele></ele><time>2016-7-29T2:18:38Z</time></trkpt>
<trkpt lat="46.386229991912841796875" lon="7.10076020099222660064697265625"><ele></ele><time>2016-7-29T2:18:41Z</time></trkpt>
<trkpt lat="46.38608808629214763641357421875" lon="7.10063598118722438812255859375"><ele></ele><time>2016-7-29T2:18:44Z</time></trkpt>
<trkpt lat="46.3859072886407375335693359375" lon="7.100496254861354827880859375"><ele></ele><time>2016-7-29T2:18:47Z</time></trkpt>
<trkpt lat="46.385751552879810333251953125" lon="7.100368179380893707275390625"><ele></ele><time>2016-7-29T2:18:50Z</time></trkpt>
<trkpt lat="46.38559372164309024810791015625" lon="7.10020489990711212158203125"><ele></ele><time>2016-7-29T2:18:53Z</time></trkpt>
<trkpt lat="46.385414600372314453125" lon="7.09999811835587024688720703125"><ele></ele><time>2016-7-29T2:18:56Z</time></trkpt>
<trkpt lat="46.38525593094527721405029296875" lon="7.09986425936222076416015625"><ele></ele><time>2016-7-29T2:18:59Z</time></trkpt>
<trkpt lat="46.3850399293005466461181640625" lon="7.09975898265838623046875"><ele></ele><time>2016-7-29T2:19:2Z</time></trkpt>
<trkpt lat="46.38476659543812274932861328125" lon="7.0997283048927783966064453125"><ele></ele><time>2016-7-29T2:19:5Z</time></trkpt>
<trkpt lat="46.384660564363002777099609375" lon="7.0996746607124805450439453125"><ele></ele><time>2016-7-29T2:19:8Z</time></trkpt>
<trkpt lat="46.3845021463930606842041015625" lon="7.0995100401341915130615234375"><ele></ele><time>2016-7-29T2:19:11Z</time></trkpt>
<trkpt lat="46.3843066804111003875732421875" lon="7.099320776760578155517578125"><ele></ele><time>2016-7-29T2:19:14Z</time></trkpt>
<trkpt lat="46.38410140760242938995361328125" lon="7.099144756793975830078125"><ele></ele><time>2016-7-29T2:19:17Z</time></trkpt>
<trkpt lat="46.38388766907155513763427734375" lon="7.0989326946437358856201171875"><ele></ele><time>2016-7-29T2:19:20Z</time></trkpt>
<trkpt lat="46.38351534493267536163330078125" lon="7.09857436828315258026123046875"><ele></ele><time>2016-7-29T2:19:23Z</time></trkpt>
<trkpt lat="46.38313732109963893890380859375" lon="7.09831687621772289276123046875"><ele></ele><time>2016-7-29T2:19:26Z</time></trkpt>
<trkpt lat="46.3826720416545867919921875" lon="7.098012529313564300537109375"><ele></ele><time>2016-7-29T2:19:29Z</time></trkpt>
<trkpt lat="46.382202990353107452392578125" lon="7.09759804420173168182373046875"><ele></ele><time>2016-7-29T2:19:32Z</time></trkpt>
<trkpt lat="46.3818128965795040130615234375" lon="7.09715791046619415283203125"><ele></ele><time>2016-7-29T2:19:35Z</time></trkpt>
<trkpt lat="46.381645090878009796142578125" lon="7.0969173498451709747314453125"><ele></ele><time>2016-7-29T2:19:38Z</time></trkpt>
<trkpt lat="46.381521709263324737548828125" lon="7.09676857106387615203857421875"><ele></ele><time>2016-7-29T2:19:41Z</time></trkpt>
<trkpt lat="46.3813056237995624542236328125" lon="7.09654393605887889862060546875"><ele></ele><time>2016-7-29T2:19:44Z</time></trkpt>
<trkpt lat="46.38117629103362560272216796875" lon="7.096404545009136199951171875"><ele></ele><time>2016-7-29T2:19:47Z</time></trkpt>
<trkpt lat="46.381016112864017486572265625" lon="7.09635249339044094085693359375"><ele></ele><time>2016-7-29T2:19:50Z</time></trkpt>
<trkpt lat="46.38089952059090137481689453125" lon="7.0962890423834323883056640625"><ele></ele><time>2016-7-29T2:19:53Z</time></trkpt>
<trkpt lat="46.38073909096419811248779296875" lon="7.0962229929864406585693359375"><ele></ele><time>2016-7-29T2:19:56Z</time></trkpt>
<trkpt lat="46.3805938325822353363037109375" lon="7.0961998589336872100830078125"><ele></ele><time>2016-7-29T2:19:59Z</time></trkpt>
<trkpt lat="46.380460895597934722900390625" lon="7.0962303690612316131591796875"><ele></ele><time>2016-7-29T2:20:2Z</time></trkpt>
<trkpt lat="46.38037447817623615264892578125" lon="7.0962600409984588623046875"><ele></ele><time>2016-7-29T2:20:5Z</time></trkpt>
<trkpt lat="46.38024606741964817047119140625" lon="7.0962823368608951568603515625"><ele></ele><time>2016-7-29T2:20:8Z</time></trkpt>
<trkpt lat="46.38016794808208942413330078125" lon="7.09629700519144535064697265625"><ele></ele><time>2016-7-29T2:20:11Z</time></trkpt>
<trkpt lat="46.3800832070410251617431640625" lon="7.0963110029697418212890625"><ele></ele><time>2016-7-29T2:20:14Z</time></trkpt>
<trkpt lat="46.38004406355321407318115234375" lon="7.0963235758244991302490234375"><ele></ele><time>2016-7-29T2:20:17Z</time></trkpt>
<trkpt lat="46.3799179159104824066162109375" lon="7.0963463746011257171630859375"><ele></ele><time>2016-7-29T2:20:20Z</time></trkpt>
<trkpt lat="46.37981825508177280426025390625" lon="7.09636607207357883453369140625"><ele></ele><time>2016-7-29T2:20:23Z</time></trkpt>
<trkpt lat="46.37973560951650142669677734375" lon="7.09643966518342494964599609375"><ele></ele><time>2016-7-29T2:20:26Z</time></trkpt>
<trkpt lat="46.37971364893019199371337890625" lon="7.09645374678075313568115234375"><ele></ele><time>2016-7-29T2:20:29Z</time></trkpt>
<trkpt lat="46.3795641995966434478759765625" lon="7.0965421758592128753662109375"><ele></ele><time>2016-7-29T2:20:32Z</time></trkpt>
<trkpt lat="46.379428245127201080322265625" lon="7.09664586000144481658935546875"><ele></ele><time>2016-7-29T2:20:35Z</time></trkpt>
<trkpt lat="46.3792973197996616363525390625" lon="7.09670537151396274566650390625"><ele></ele><time>2016-7-29T2:20:38Z</time></trkpt>
<trkpt lat="46.3791860081255435943603515625" lon="7.0966940559446811676025390625"><ele></ele><time>2016-7-29T2:20:41Z</time></trkpt>
<trkpt lat="46.37907327152788639068603515625" lon="7.09669615142047405242919921875"><ele></ele><time>2016-7-29T2:20:44Z</time></trkpt>
<trkpt lat="46.37890663929283618927001953125" lon="7.09663798101246356964111328125"><ele></ele><time>2016-7-29T2:20:47Z</time></trkpt>
<trkpt lat="46.3787903822958469390869140625" lon="7.0966283418238162994384765625"><ele></ele><time>2016-7-29T2:20:50Z</time></trkpt>
<trkpt lat="46.37872592546045780181884765625" lon="7.09661182947456836700439453125"><ele></ele><time>2016-7-29T2:20:53Z</time></trkpt>
<trkpt lat="46.3786884583532810211181640625" lon="7.09661610424518585205078125"><ele></ele><time>2016-7-29T2:20:56Z</time></trkpt>
<trkpt lat="46.37858293019235134124755859375" lon="7.09662943147122859954833984375"><ele></ele><time>2016-7-29T2:20:59Z</time></trkpt>
<trkpt lat="46.378497183322906494140625" lon="7.09665860049426555633544921875"><ele></ele><time>2016-7-29T2:21:2Z</time></trkpt>
<trkpt lat="46.37842635624110698699951171875" lon="7.0967936329543590545654296875"><ele></ele><time>2016-7-29T2:21:5Z</time></trkpt>
<trkpt lat="46.37835561297833919525146484375" lon="7.09687535651028156280517578125"><ele></ele><time>2016-7-29T2:21:8Z</time></trkpt>
<trkpt lat="46.37833968736231327056884765625" lon="7.0968997478485107421875"><ele></ele><time>2016-7-29T2:21:11Z</time></trkpt>
<trkpt lat="46.378213204443454742431640625" lon="7.09701349027454853057861328125"><ele></ele><time>2016-7-29T2:21:14Z</time></trkpt>
<trkpt lat="46.378173641860485076904296875" lon="7.097036205232143402099609375"><ele></ele><time>2016-7-29T2:21:17Z</time></trkpt>
<trkpt lat="46.378128714859485626220703125" lon="7.09706126712262630462646484375"><ele></ele><time>2016-7-29T2:21:20Z</time></trkpt>
<trkpt lat="46.37805956415832042694091796875" lon="7.097066380083560943603515625"><ele></ele><time>2016-7-29T2:21:23Z</time></trkpt>
<trkpt lat="46.3779364340007305145263671875" lon="7.09703796543180942535400390625"><ele></ele><time>2016-7-29T2:21:26Z</time></trkpt>
<trkpt lat="46.3778210990130901336669921875" lon="7.096993625164031982421875"><ele></ele><time>2016-7-29T2:21:29Z</time></trkpt>
<trkpt lat="46.3777180016040802001953125" lon="7.0969562418758869171142578125"><ele></ele><time>2016-7-29T2:21:32Z</time></trkpt>
<trkpt lat="46.3776179216802120208740234375" lon="7.09686479531228542327880859375"><ele></ele><time>2016-7-29T2:21:35Z</time></trkpt>
<trkpt lat="46.37753359973430633544921875" lon="7.09679120220243930816650390625"><ele></ele><time>2016-7-29T2:21:38Z</time></trkpt>
<trkpt lat="46.3774435780942440032958984375" lon="7.09669950418174266815185546875"><ele></ele><time>2016-7-29T2:21:41Z</time></trkpt>
<trkpt lat="46.37732028029859066009521484375" lon="7.09658517502248287200927734375"><ele></ele><time>2016-7-29T2:21:44Z</time></trkpt>
<trkpt lat="46.37721047736704349517822265625" lon="7.09645642898976802825927734375"><ele></ele><time>2016-7-29T2:21:47Z</time></trkpt>
<trkpt lat="46.3771093077957630157470703125" lon="7.0963101647794246673583984375"><ele></ele><time>2016-7-29T2:21:50Z</time></trkpt>
<trkpt lat="46.3770583458244800567626953125" lon="7.096146047115325927734375"><ele></ele><time>2016-7-29T2:21:53Z</time></trkpt>
<trkpt lat="46.3770278356969356536865234375" lon="7.096006572246551513671875"><ele></ele><time>2016-7-29T2:21:56Z</time></trkpt>
<trkpt lat="46.37698433361947536468505859375" lon="7.0957639999687671661376953125"><ele></ele><time>2016-7-29T2:21:59Z</time></trkpt>
<trkpt lat="46.3769946433603763580322265625" lon="7.0956215076148509979248046875"><ele></ele><time>2016-7-29T2:22:2Z</time></trkpt>
<trkpt lat="46.3770023547112941741943359375" lon="7.095502316951751708984375"><ele></ele><time>2016-7-29T2:22:5Z</time></trkpt>
<trkpt lat="46.37697301805019378662109375" lon="7.09535412490367889404296875"><ele></ele><time>2016-7-29T2:22:8Z</time></trkpt>
<trkpt lat="46.37696287594735622406005859375" lon="7.09520995616912841796875"><ele></ele><time>2016-7-29T2:22:11Z</time></trkpt>
<trkpt lat="46.37696404941380023956298828125" lon="7.09504659287631511688232421875"><ele></ele><time>2016-7-29T2:22:14Z</time></trkpt>
<trkpt lat="46.37693940661847591400146484375" lon="7.09487560205161571502685546875"><ele></ele><time>2016-7-29T2:22:17Z</time></trkpt>
<trkpt lat="46.37692079879343509674072265625" lon="7.09472221322357654571533203125"><ele></ele><time>2016-7-29T2:22:20Z</time></trkpt>
<trkpt lat="46.37693387456238269805908203125" lon="7.09461408667266368865966796875"><ele></ele><time>2016-7-29T2:22:23Z</time></trkpt>
<trkpt lat="46.37694208882749080657958984375" lon="7.09442675113677978515625"><ele></ele><time>2016-7-29T2:22:26Z</time></trkpt>
<trkpt lat="46.3769026100635528564453125" lon="7.09433312527835369110107421875"><ele></ele><time>2016-7-29T2:22:29Z</time></trkpt>
<trkpt lat="46.37686346657574176788330078125" lon="7.09423991851508617401123046875"><ele></ele><time>2016-7-29T2:22:32Z</time></trkpt>
<trkpt lat="46.3768491335213184356689453125" lon="7.094192393124103546142578125"><ele></ele><time>2016-7-29T2:22:35Z</time></trkpt>
<trkpt lat="46.37683614157140254974365234375" lon="7.094156183302402496337890625"><ele></ele><time>2016-7-29T2:22:38Z</time></trkpt>
<trkpt lat="46.37680714018642902374267578125" lon="7.09406591020524501800537109375"><ele></ele><time>2016-7-29T2:22:41Z</time></trkpt>
<trkpt lat="46.37673430144786834716796875" lon="7.093942947685718536376953125"><ele></ele><time>2016-7-29T2:22:44Z</time></trkpt>
<trkpt lat="46.37669540941715240478515625" lon="7.09389097988605499267578125"><ele></ele><time>2016-7-29T2:22:47Z</time></trkpt>
<trkpt lat="46.3766613788902759552001953125" lon="7.09384881891310214996337890625"><ele></ele><time>2016-7-29T2:22:50Z</time></trkpt>
<trkpt lat="46.376646123826503753662109375" lon="7.09383121691644191741943359375"><ele></ele><time>2016-7-29T2:22:53Z</time></trkpt>
<trkpt lat="46.37655920349061489105224609375" lon="7.0937763154506683349609375"><ele></ele><time>2016-7-29T2:22:56Z</time></trkpt>
<trkpt lat="46.37642844580113887786865234375" lon="7.09379148669540882110595703125"><ele></ele><time>2016-7-29T2:22:59Z</time></trkpt>
<trkpt lat="46.3763673417270183563232421875" lon="7.09380221553146839141845703125"><ele></ele><time>2016-7-29T2:23:2Z</time></trkpt>
<trkpt lat="46.3762942515313625335693359375" lon="7.09384814836084842681884765625"><ele></ele><time>2016-7-29T2:23:5Z</time></trkpt>
<trkpt lat="46.376163996756076812744140625" lon="7.09391285665333271026611328125"><ele></ele><time>2016-7-29T2:23:8Z</time></trkpt>
<trkpt lat="46.37604296207427978515625" lon="7.09392425604164600372314453125"><ele></ele><time>2016-7-29T2:23:11Z</time></trkpt>
<trkpt lat="46.3759348355233669281005859375" lon="7.09389911033213138580322265625"><ele></ele><time>2016-7-29T2:23:14Z</time></trkpt>
<trkpt lat="46.37578555382788181304931640625" lon="7.09384513087570667266845703125"><ele></ele><time>2016-7-29T2:23:17Z</time></trkpt>
<trkpt lat="46.37566401623189449310302734375" lon="7.093830294907093048095703125"><ele></ele><time>2016-7-29T2:23:20Z</time></trkpt>
<trkpt lat="46.3755373656749725341796875" lon="7.09385745227336883544921875"><ele></ele><time>2016-7-29T2:23:23Z</time></trkpt>
<trkpt lat="46.37543183751404285430908203125" lon="7.09392677061259746551513671875"><ele></ele><time>2016-7-29T2:23:26Z</time></trkpt>
<trkpt lat="46.3753219507634639739990234375" lon="7.09394319914281368255615234375"><ele></ele><time>2016-7-29T2:23:29Z</time></trkpt>
<trkpt lat="46.3752572424709796905517578125" lon="7.09385083056986331939697265625"><ele></ele><time>2016-7-29T2:23:32Z</time></trkpt>
<trkpt lat="46.3752344436943531036376953125" lon="7.093666009604930877685546875"><ele></ele><time>2016-7-29T2:23:35Z</time></trkpt>
<trkpt lat="46.37527124024927616119384765625" lon="7.0935069210827350616455078125"><ele></ele><time>2016-7-29T2:23:38Z</time></trkpt>
<trkpt lat="46.3753299973905086517333984375" lon="7.09339133463799953460693359375"><ele></ele><time>2016-7-29T2:23:41Z</time></trkpt>
<trkpt lat="46.37537567876279354095458984375" lon="7.09327247925102710723876953125"><ele></ele><time>2016-7-29T2:23:44Z</time></trkpt>
<trkpt lat="46.37543150223791599273681640625" lon="7.09318497218191623687744140625"><ele></ele><time>2016-7-29T2:23:47Z</time></trkpt>
<trkpt lat="46.37544156052172183990478515625" lon="7.09318019449710845947265625"><ele></ele><time>2016-7-29T2:23:50Z</time></trkpt>
<trkpt lat="46.375472657382488250732421875" lon="7.09315211512148380279541015625"><ele></ele><time>2016-7-29T2:23:53Z</time></trkpt>
<trkpt lat="46.37551113031804561614990234375" lon="7.093091346323490142822265625"><ele></ele><time>2016-7-29T2:23:56Z</time></trkpt>
<trkpt lat="46.3756119646131992340087890625" lon="7.09294776432216167449951171875"><ele></ele><time>2016-7-29T2:23:59Z</time></trkpt>
<trkpt lat="46.3757574744522571563720703125" lon="7.09278523921966552734375"><ele></ele><time>2016-7-29T2:24:2Z</time></trkpt>
<trkpt lat="46.3757866434752941131591796875" lon="7.09275565110146999359130859375"><ele></ele><time>2016-7-29T2:24:5Z</time></trkpt>
<trkpt lat="46.37582612223923206329345703125" lon="7.0927022583782672882080078125"><ele></ele><time>2016-7-29T2:24:8Z</time></trkpt>
<trkpt lat="46.3758456520736217498779296875" lon="7.09263947792351245880126953125"><ele></ele><time>2016-7-29T2:24:11Z</time></trkpt>
<trkpt lat="46.37586082331836223602294921875" lon="7.09260712377727031707763671875"><ele></ele><time>2016-7-29T2:24:14Z</time></trkpt>
<trkpt lat="46.37590105645358562469482421875" lon="7.09254643879830837249755859375"><ele></ele><time>2016-7-29T2:24:17Z</time></trkpt>
<trkpt lat="46.37590910308063030242919921875" lon="7.09246261976659297943115234375"><ele></ele><time>2016-7-29T2:24:20Z</time></trkpt>
<trkpt lat="46.3759153895080089569091796875" lon="7.09237360395491123199462890625"><ele></ele><time>2016-7-29T2:24:23Z</time></trkpt>
<trkpt lat="46.3759016431868076324462890625" lon="7.09235063754022121429443359375"><ele></ele><time>2016-7-29T2:24:26Z</time></trkpt>
<trkpt lat="46.37588932178914546966552734375" lon="7.09233068861067295074462890625"><ele></ele><time>2016-7-29T2:24:29Z</time></trkpt>
<trkpt lat="46.37583903037011623382568359375" lon="7.09225256927311420440673828125"><ele></ele><time>2016-7-29T2:24:32Z</time></trkpt>
<trkpt lat="46.375783793628215789794921875" lon="7.09221367724239826202392578125"><ele></ele><time>2016-7-29T2:24:35Z</time></trkpt>
<trkpt lat="46.375728808343410491943359375" lon="7.09218467585742473602294921875"><ele></ele><time>2016-7-29T2:24:38Z</time></trkpt>
<trkpt lat="46.37569134123623371124267578125" lon="7.0921520702540874481201171875"><ele></ele><time>2016-7-29T2:24:41Z</time></trkpt>
<trkpt lat="46.3756384514272212982177734375" lon="7.0921289362013339996337890625"><ele></ele><time>2016-7-29T2:24:44Z</time></trkpt>
<trkpt lat="46.37561791576445102691650390625" lon="7.0921269245445728302001953125"><ele></ele><time>2016-7-29T2:24:47Z</time></trkpt>
<trkpt lat="46.375561170279979705810546875" lon="7.0921269245445728302001953125"><ele></ele><time>2016-7-29T2:24:50Z</time></trkpt>
<trkpt lat="46.375533677637577056884765625" lon="7.09212533198297023773193359375"><ele></ele><time>2016-7-29T2:24:53Z</time></trkpt>
<trkpt lat="46.37549914419651031494140625" lon="7.0921165309846401214599609375"><ele></ele><time>2016-7-29T2:24:56Z</time></trkpt>
<trkpt lat="46.37542597018182277679443359375" lon="7.09212365560233592987060546875"><ele></ele><time>2016-7-29T2:24:59Z</time></trkpt>
<trkpt lat="46.37541993521153926849365234375" lon="7.09212030284106731414794921875"><ele></ele><time>2016-7-29T2:25:2Z</time></trkpt>
<trkpt lat="46.37540283612906932830810546875" lon="7.092110998928546905517578125"><ele></ele><time>2016-7-29T2:25:5Z</time></trkpt>
<trkpt lat="46.3753383792936801910400390625" lon="7.092100270092487335205078125"><ele></ele><time>2016-7-29T2:25:8Z</time></trkpt>
<trkpt lat="46.3752726651728153228759765625" lon="7.09210085682570934295654296875"><ele></ele><time>2016-7-29T2:25:11Z</time></trkpt>
<trkpt lat="46.37518934905529022216796875" lon="7.0920957438647747039794921875"><ele></ele><time>2016-7-29T2:25:14Z</time></trkpt>
<trkpt lat="46.37517635710537433624267578125" lon="7.0921001024544239044189453125"><ele></ele><time>2016-7-29T2:25:17Z</time></trkpt>
<trkpt lat="46.3751482777297496795654296875" lon="7.09210387431085109710693359375"><ele></ele><time>2016-7-29T2:25:20Z</time></trkpt>
<trkpt lat="46.3750802166759967803955078125" lon="7.0921115018427371978759765625"><ele></ele><time>2016-7-29T2:25:23Z</time></trkpt>
<trkpt lat="46.37504107318818569183349609375" lon="7.09209658205509185791015625"><ele></ele><time>2016-7-29T2:25:26Z</time></trkpt>
<trkpt lat="46.374985836446285247802734375" lon="7.0921031199395656585693359375"><ele></ele><time>2016-7-29T2:25:29Z</time></trkpt>
<trkpt lat="46.37493227608501911163330078125" lon="7.09208979271352291107177734375"><ele></ele><time>2016-7-29T2:25:32Z</time></trkpt>
<trkpt lat="46.37491869740188121795654296875" lon="7.09213438443839550018310546875"><ele></ele><time>2016-7-29T2:25:35Z</time></trkpt>
<trkpt lat="46.374961696565151214599609375" lon="7.09221594035625457763671875"><ele></ele><time>2016-7-29T2:25:38Z</time></trkpt>
<trkpt lat="46.37500050477683544158935546875" lon="7.09229347296059131622314453125"><ele></ele><time>2016-7-29T2:25:41Z</time></trkpt>
<trkpt lat="46.37505364604294300079345703125" lon="7.09238785319030284881591796875"><ele></ele><time>2016-7-29T2:25:44Z</time></trkpt>
<trkpt lat="46.375004611909389495849609375" lon="7.09248323924839496612548828125"><ele></ele><time>2016-7-29T2:25:47Z</time></trkpt>
<trkpt lat="46.374993212521076202392578125" lon="7.092485167086124420166015625"><ele></ele><time>2016-7-29T2:25:50Z</time></trkpt>
<trkpt lat="46.374983489513397216796875" lon="7.09252229891717433929443359375"><ele></ele><time>2016-7-29T2:25:53Z</time></trkpt>
<trkpt lat="46.37498080730438232421875" lon="7.09253109991550445556640625"><ele></ele><time>2016-7-29T2:25:56Z</time></trkpt>
<trkpt lat="46.37491735629737377166748046875" lon="7.09257803857326507568359375"><ele></ele><time>2016-7-29T2:25:59Z</time></trkpt>
<trkpt lat="46.37490562163293361663818359375" lon="7.0926140807569026947021484375"><ele></ele><time>2016-7-29T2:26:2Z</time></trkpt>
<trkpt lat="46.37488969601690769195556640625" lon="7.09264576435089111328125"><ele></ele><time>2016-7-29T2:26:5Z</time></trkpt>
<trkpt lat="46.3748820684850215911865234375" lon="7.09270552732050418853759765625"><ele></ele><time>2016-7-29T2:26:8Z</time></trkpt>
<trkpt lat="46.37484560720622539520263671875" lon="7.092761099338531494140625"><ele></ele><time>2016-7-29T2:26:11Z</time></trkpt>
<trkpt lat="46.3748079724609851837158203125" lon="7.09281398914754390716552734375"><ele></ele><time>2016-7-29T2:26:14Z</time></trkpt>
<trkpt lat="46.37480353005230426788330078125" lon="7.0928134024143218994140625"><ele></ele><time>2016-7-29T2:26:17Z</time></trkpt>
<trkpt lat="46.37479078955948352813720703125" lon="7.09283695556223392486572265625"><ele></ele><time>2016-7-29T2:26:20Z</time></trkpt>
<trkpt lat="46.37474133633077144622802734375" lon="7.09286847151815891265869140625"><ele></ele><time>2016-7-29T2:26:23Z</time></trkpt>
<trkpt lat="46.37469925917685031890869140625" lon="7.0929019153118133544921875"><ele></ele><time>2016-7-29T2:26:26Z</time></trkpt>
<trkpt lat="46.374651230871677398681640625" lon="7.0929180085659027099609375"><ele></ele><time>2016-7-29T2:26:29Z</time></trkpt>
<trkpt lat="46.37460605241358280181884765625" lon="7.0929382927715778350830078125"><ele></ele><time>2016-7-29T2:26:32Z</time></trkpt>
<trkpt lat="46.37455173768103122711181640625" lon="7.0929647795855998992919921875"><ele></ele><time>2016-7-29T2:26:35Z</time></trkpt>
<trkpt lat="46.37452826835215091705322265625" lon="7.09298162721097469329833984375"><ele></ele><time>2016-7-29T2:26:38Z</time></trkpt>
<trkpt lat="46.374522149562835693359375" lon="7.09299051202833652496337890625"><ele></ele><time>2016-7-29T2:26:41Z</time></trkpt>
<trkpt lat="46.3744760490953922271728515625" lon="7.093002833425998687744140625"><ele></ele><time>2016-7-29T2:26:44Z</time></trkpt>
<trkpt lat="46.374452747404575347900390625" lon="7.09301079623401165008544921875"><ele></ele><time>2016-7-29T2:26:47Z</time></trkpt>
<trkpt lat="46.37445936910808086395263671875" lon="7.093026973307132720947265625"><ele></ele><time>2016-7-29T2:26:50Z</time></trkpt>
<trkpt lat="46.3743825070559978485107421875" lon="7.09304264746606349945068359375"><ele></ele><time>2016-7-29T2:26:53Z</time></trkpt>
<trkpt lat="46.37436197139322757720947265625" lon="7.09304097108542919158935546875"><ele></ele><time>2016-7-29T2:26:56Z</time></trkpt>
<trkpt lat="46.37433900497853755950927734375" lon="7.09306829608976840972900390625"><ele></ele><time>2016-7-29T2:26:59Z</time></trkpt>
<trkpt lat="46.37431704439222812652587890625" lon="7.09308137185871601104736328125"><ele></ele><time>2016-7-29T2:27:2Z</time></trkpt>
<trkpt lat="46.3743013702332973480224609375" lon="7.09308321587741374969482421875"><ele></ele><time>2016-7-29T2:27:5Z</time></trkpt>
<trkpt lat="46.3742418587207794189453125" lon="7.09310702048242092132568359375"><ele></ele><time>2016-7-29T2:27:8Z</time></trkpt>
<trkpt lat="46.3742125220596790313720703125" lon="7.09311573766171932220458984375"><ele></ele><time>2016-7-29T2:27:11Z</time></trkpt>
<trkpt lat="46.37420455925166606903076171875" lon="7.09310785867273807525634765625"><ele></ele><time>2016-7-29T2:27:14Z</time></trkpt>
<trkpt lat="46.374197266995906829833984375" lon="7.0931057631969451904296875"><ele></ele><time>2016-7-29T2:27:17Z</time></trkpt>
<trkpt lat="46.37414488010108470916748046875" lon="7.09311020560562610626220703125"><ele></ele><time>2016-7-29T2:27:20Z</time></trkpt>
<trkpt lat="46.37412962503731250762939453125" lon="7.09312210790812969207763671875"><ele></ele><time>2016-7-29T2:27:23Z</time></trkpt>
<trkpt lat="46.37412677519023418426513671875" lon="7.09312059916555881500244140625"><ele></ele><time>2016-7-29T2:27:26Z</time></trkpt>
<trkpt lat="46.37409274466335773468017578125" lon="7.09315932355821132659912109375"><ele></ele><time>2016-7-29T2:27:29Z</time></trkpt>
<trkpt lat="46.37408603914082050323486328125" lon="7.09316770546138286590576171875"><ele></ele><time>2016-7-29T2:27:32Z</time></trkpt>
<trkpt lat="46.37406148016452789306640625" lon="7.09321648813784122467041015625"><ele></ele><time>2016-7-29T2:27:35Z</time></trkpt>
<trkpt lat="46.37405804358422756195068359375" lon="7.09322445094585418701171875"><ele></ele><time>2016-7-29T2:27:38Z</time></trkpt>
<trkpt lat="46.3740237616002559661865234375" lon="7.0932323299348354339599609375"><ele></ele><time>2016-7-29T2:27:41Z</time></trkpt>
<trkpt lat="46.3739669322967529296875" lon="7.09323073737323284149169921875"><ele></ele><time>2016-7-29T2:27:44Z</time></trkpt>
<trkpt lat="46.37395025230944156646728515625" lon="7.093216069042682647705078125"><ele></ele><time>2016-7-29T2:27:47Z</time></trkpt>
<trkpt lat="46.373930387198925018310546875" lon="7.093230821192264556884765625"><ele></ele><time>2016-7-29T2:27:50Z</time></trkpt>
<trkpt lat="46.3739114440977573394775390625" lon="7.093240879476070404052734375"><ele></ele><time>2016-7-29T2:27:53Z</time></trkpt>
<trkpt lat="46.37386827729642391204833984375" lon="7.0932222716510295867919921875"><ele></ele><time>2016-7-29T2:27:56Z</time></trkpt>
<trkpt lat="46.37385092675685882568359375" lon="7.09321849979460239410400390625"><ele></ele><time>2016-7-29T2:27:59Z</time></trkpt>
<trkpt lat="46.37380876578390598297119140625" lon="7.093217074871063232421875"><ele></ele><time>2016-7-29T2:28:2Z</time></trkpt>
<trkpt lat="46.37377758510410785675048828125" lon="7.0932376943528652191162109375"><ele></ele><time>2016-7-29T2:28:5Z</time></trkpt>
<trkpt lat="46.3737448118627071380615234375" lon="7.09325261414051055908203125"><ele></ele><time>2016-7-29T2:28:8Z</time></trkpt>
<trkpt lat="46.37369133532047271728515625" lon="7.09327935241162776947021484375"><ele></ele><time>2016-7-29T2:28:11Z</time></trkpt>
<trkpt lat="46.3736562989652156829833984375" lon="7.09328337572515010833740234375"><ele></ele><time>2016-7-29T2:28:14Z</time></trkpt>
<trkpt lat="46.37363743968307971954345703125" lon="7.09333400242030620574951171875"><ele></ele><time>2016-7-29T2:28:17Z</time></trkpt>
<trkpt lat="46.3736303150653839111328125" lon="7.09333710372447967529296875"><ele></ele><time>2016-7-29T2:28:20Z</time></trkpt>
<trkpt lat="46.373601146042346954345703125" lon="7.093335427343845367431640625"><ele></ele><time>2016-7-29T2:28:23Z</time></trkpt>
<trkpt lat="46.37359469197690486907958984375" lon="7.0933302305638790130615234375"><ele></ele><time>2016-7-29T2:28:26Z</time></trkpt>
<trkpt lat="46.3735359348356723785400390625" lon="7.093332074582576751708984375"><ele></ele><time>2016-7-29T2:28:29Z</time></trkpt>
<trkpt lat="46.3734853081405162811279296875" lon="7.09333249367773532867431640625"><ele></ele><time>2016-7-29T2:28:32Z</time></trkpt>
<trkpt lat="46.37344398535788059234619140625" lon="7.09336350671947002410888671875"><ele></ele><time>2016-7-29T2:28:35Z</time></trkpt>
<trkpt lat="46.37339386157691478729248046875" lon="7.093440704047679901123046875"><ele></ele><time>2016-7-29T2:28:38Z</time></trkpt>
<trkpt lat="46.3733575679361820220947265625" lon="7.09350968711078166961669921875"><ele></ele><time>2016-7-29T2:28:41Z</time></trkpt>
<trkpt lat="46.373342983424663543701171875" lon="7.0935263670980930328369140625"><ele></ele><time>2016-7-29T2:28:44Z</time></trkpt>
<trkpt lat="46.373320184648036956787109375" lon="7.0935421250760555267333984375"><ele></ele><time>2016-7-29T2:28:47Z</time></trkpt>
<trkpt lat="46.37328707613050937652587890625" lon="7.09358177147805690765380859375"><ele></ele><time>2016-7-29T2:28:50Z</time></trkpt>
<trkpt lat="46.3732650317251682281494140625" lon="7.0936349965631961822509765625"><ele></ele><time>2016-7-29T2:28:53Z</time></trkpt>
<trkpt lat="46.3732395507395267486572265625" lon="7.093721330165863037109375"><ele></ele><time>2016-7-29T2:28:56Z</time></trkpt>
<trkpt lat="46.3731957972049713134765625" lon="7.09377002902328968048095703125"><ele></ele><time>2016-7-29T2:28:59Z</time></trkpt>
<trkpt lat="46.37311524711549282073974609375" lon="7.0939045585691928863525390625"><ele></ele><time>2016-7-29T2:29:2Z</time></trkpt>
<trkpt lat="46.37307551689445972442626953125" lon="7.09393783472478389739990234375"><ele></ele><time>2016-7-29T2:29:5Z</time></trkpt>
<trkpt lat="46.3730035163462162017822265625" lon="7.0939994417130947113037109375"><ele></ele><time>2016-7-29T2:29:8Z</time></trkpt>
<trkpt lat="46.3729465194046497344970703125" lon="7.0940524153411388397216796875"><ele></ele><time>2016-7-29T2:29:11Z</time></trkpt>
<trkpt lat="46.37288524769246578216552734375" lon="7.0941144414246082305908203125"><ele></ele><time>2016-7-29T2:29:14Z</time></trkpt>
<trkpt lat="46.37285876087844371795654296875" lon="7.09417638368904590606689453125"><ele></ele><time>2016-7-29T2:29:17Z</time></trkpt>
<trkpt lat="46.3728516362607479095458984375" lon="7.0942150242626667022705078125"><ele></ele><time>2016-7-29T2:29:20Z</time></trkpt>
<trkpt lat="46.37283445335924625396728515625" lon="7.0942519046366214752197265625"><ele></ele><time>2016-7-29T2:29:23Z</time></trkpt>
<trkpt lat="46.37281517498195171356201171875" lon="7.09431099705398082733154296875"><ele></ele><time>2016-7-29T2:29:26Z</time></trkpt>
<trkpt lat="46.372796483337879180908203125" lon="7.09438358433544635772705078125"><ele></ele><time>2016-7-29T2:29:29Z</time></trkpt>
<trkpt lat="46.37277267873287200927734375" lon="7.094445861876010894775390625"><ele></ele><time>2016-7-29T2:29:32Z</time></trkpt>
<trkpt lat="46.3727450184524059295654296875" lon="7.09454409778118133544921875"><ele></ele><time>2016-7-29T2:29:35Z</time></trkpt>
<trkpt lat="46.37272708117961883544921875" lon="7.09466169588267803192138671875"><ele></ele><time>2016-7-29T2:29:38Z</time></trkpt>
<trkpt lat="46.37269782833755016326904296875" lon="7.0947400666773319244384765625"><ele></ele><time>2016-7-29T2:29:41Z</time></trkpt>
<trkpt lat="46.37267477810382843017578125" lon="7.094803266227245330810546875"><ele></ele><time>2016-7-29T2:29:44Z</time></trkpt>
<trkpt lat="46.37266865931451320648193359375" lon="7.09485917352139949798583984375"><ele></ele><time>2016-7-29T2:29:47Z</time></trkpt>
<trkpt lat="46.372657008469104766845703125" lon="7.09490485489368438720703125"><ele></ele><time>2016-7-29T2:29:50Z</time></trkpt>
<trkpt lat="46.3726310245692729949951171875" lon="7.094960846006870269775390625"><ele></ele><time>2016-7-29T2:29:53Z</time></trkpt>
<trkpt lat="46.37259473092854022979736328125" lon="7.09499965421855449676513671875"><ele></ele><time>2016-7-29T2:29:56Z</time></trkpt>
<trkpt lat="46.3725502230226993560791015625" lon="7.09503360092639923095703125"><ele></ele><time>2016-7-29T2:29:59Z</time></trkpt>
<trkpt lat="46.37248744256794452667236328125" lon="7.09505363367497920989990234375"><ele></ele><time>2016-7-29T2:30:2Z</time></trkpt>
<trkpt lat="46.37241988442838191986083984375" lon="7.0950639434158802032470703125"><ele></ele><time>2016-7-29T2:30:5Z</time></trkpt>
<trkpt lat="46.3724134303629398345947265625" lon="7.095073163509368896484375"><ele></ele><time>2016-7-29T2:30:8Z</time></trkpt>
<trkpt lat="46.372415609657764434814453125" lon="7.09511532448232173919677734375"><ele></ele><time>2016-7-29T2:30:11Z</time></trkpt>
<trkpt lat="46.37241602875292301177978515625" lon="7.09512588568031787872314453125"><ele></ele><time>2016-7-29T2:30:14Z</time></trkpt>
<trkpt lat="46.3724099099636077880859375" lon="7.0952473394572734832763671875"><ele></ele><time>2016-7-29T2:30:17Z</time></trkpt>
<trkpt lat="46.37240588665008544921875" lon="7.09533308632671833038330078125"><ele></ele><time>2016-7-29T2:30:20Z</time></trkpt>
<trkpt lat="46.37237227521836757659912109375" lon="7.09540315903723239898681640625"><ele></ele><time>2016-7-29T2:30:23Z</time></trkpt>
<trkpt lat="46.3723343051970005035400390625" lon="7.09545873105525970458984375"><ele></ele><time>2016-7-29T2:30:26Z</time></trkpt>
<trkpt lat="46.37228594161570072174072265625" lon="7.09551430307328701019287109375"><ele></ele><time>2016-7-29T2:30:29Z</time></trkpt>
<trkpt lat="46.3722836785018444061279296875" lon="7.0955360122025012969970703125"><ele></ele><time>2016-7-29T2:30:32Z</time></trkpt>
<trkpt lat="46.372256018221378326416015625" lon="7.09561890922486782073974609375"><ele></ele><time>2016-7-29T2:30:35Z</time></trkpt>
<trkpt lat="46.37222877703607082366943359375" lon="7.09568805992603302001953125"><ele></ele><time>2016-7-29T2:30:38Z</time></trkpt>
<trkpt lat="46.37214981950819492340087890625" lon="7.09585838019847869873046875"><ele></ele><time>2016-7-29T2:30:41Z</time></trkpt>
<trkpt lat="46.372033059597015380859375" lon="7.09609550423920154571533203125"><ele></ele><time>2016-7-29T2:30:44Z</time></trkpt>
<trkpt lat="46.3719524256885051727294921875" lon="7.09629558026790618896484375"><ele></ele><time>2016-7-29T2:30:47Z</time></trkpt>
<trkpt lat="46.37181772850453853607177734375" lon="7.09643815644085407257080078125"><ele></ele><time>2016-7-29T2:30:50Z</time></trkpt>
<trkpt lat="46.37171027250587940216064453125" lon="7.09651107899844646453857421875"><ele></ele><time>2016-7-29T2:30:53Z</time></trkpt>
<trkpt lat="46.37161304242908954620361328125" lon="7.09670436568558216094970703125"><ele></ele><time>2016-7-29T2:30:56Z</time></trkpt>
<trkpt lat="46.3715363480150699615478515625" lon="7.09686814807355403900146484375"><ele></ele><time>2016-7-29T2:30:59Z</time></trkpt>
<trkpt lat="46.3714629225432872772216796875" lon="7.09699337370693683624267578125"><ele></ele><time>2016-7-29T2:31:2Z</time></trkpt>
<trkpt lat="46.3714377768337726593017578125" lon="7.09702941589057445526123046875"><ele></ele><time>2016-7-29T2:31:5Z</time></trkpt>
<trkpt lat="46.37138673104345798492431640625" lon="7.09716184996068477630615234375"><ele></ele><time>2016-7-29T2:31:8Z</time></trkpt>
<trkpt lat="46.3713341765105724334716796875" lon="7.09725237451493740081787109375"><ele></ele><time>2016-7-29T2:31:11Z</time></trkpt>
<trkpt lat="46.3713278062641620635986328125" lon="7.097274251282215118408203125"><ele></ele><time>2016-7-29T2:31:14Z</time></trkpt>
<trkpt lat="46.37128246016800403594970703125" lon="7.09734390489757061004638671875"><ele></ele><time>2016-7-29T2:31:17Z</time></trkpt>
<trkpt lat="46.37128531001508235931396484375" lon="7.09734273143112659454345703125"><ele></ele><time>2016-7-29T2:31:20Z</time></trkpt>
<trkpt lat="46.37127676047384738922119140625" lon="7.0973718166351318359375"><ele></ele><time>2016-7-29T2:31:23Z</time></trkpt>
<trkpt lat="46.3712533749639987945556640625" lon="7.09742956794798374176025390625"><ele></ele><time>2016-7-29T2:31:26Z</time></trkpt>
<trkpt lat="46.37121029198169708251953125" lon="7.097578682005405426025390625"><ele></ele><time>2016-7-29T2:31:29Z</time></trkpt>
<trkpt lat="46.37119461782276630401611328125" lon="7.09775604307651519775390625"><ele></ele><time>2016-7-29T2:31:32Z</time></trkpt>
<trkpt lat="46.37113762088119983673095703125" lon="7.09789643995463848114013671875"><ele></ele><time>2016-7-29T2:31:35Z</time></trkpt>
<trkpt lat="46.37106738053262233734130859375" lon="7.09806223399937152862548828125"><ele></ele><time>2016-7-29T2:31:38Z</time></trkpt>
<trkpt lat="46.37097618542611598968505859375" lon="7.09823858924210071563720703125"><ele></ele><time>2016-7-29T2:31:41Z</time></trkpt>
<trkpt lat="46.3709204457700252532958984375" lon="7.09849054925143718719482421875"><ele></ele><time>2016-7-29T2:31:44Z</time></trkpt>
<trkpt lat="46.37088130228221416473388671875" lon="7.09863807074725627899169921875"><ele></ele><time>2016-7-29T2:31:47Z</time></trkpt>
<trkpt lat="46.370840482413768768310546875" lon="7.098791040480136871337890625"><ele></ele><time>2016-7-29T2:31:50Z</time></trkpt>
<trkpt lat="46.37081508524715900421142578125" lon="7.09896664135158061981201171875"><ele></ele><time>2016-7-29T2:31:53Z</time></trkpt>
<trkpt lat="46.37078859843313694000244140625" lon="7.09913872182369232177734375"><ele></ele><time>2016-7-29T2:31:56Z</time></trkpt>
<trkpt lat="46.37075087986886501312255859375" lon="7.09922715090215206146240234375"><ele></ele><time>2016-7-29T2:31:59Z</time></trkpt>
<trkpt lat="46.37072372250258922576904296875" lon="7.09926872514188289642333984375"><ele></ele><time>2016-7-29T2:32:2Z</time></trkpt>
<trkpt lat="46.37070628814399242401123046875" lon="7.09927878342568874359130859375"><ele></ele><time>2016-7-29T2:32:5Z</time></trkpt>
<trkpt lat="46.3706254027783870697021484375" lon="7.09938271902501583099365234375"><ele></ele><time>2016-7-29T2:32:8Z</time></trkpt>
<trkpt lat="46.370552815496921539306640625" lon="7.0995227806270122528076171875"><ele></ele><time>2016-7-29T2:32:11Z</time></trkpt>
<trkpt lat="46.37050579302012920379638671875" lon="7.0996773429214954376220703125"><ele></ele><time>2016-7-29T2:32:14Z</time></trkpt>
<trkpt lat="46.370450891554355621337890625" lon="7.09997984580695629119873046875"><ele></ele><time>2016-7-29T2:32:17Z</time></trkpt>
<trkpt lat="46.370437145233154296875" lon="7.1002806723117828369140625"><ele></ele><time>2016-7-29T2:32:20Z</time></trkpt>
<trkpt lat="46.37043857015669345855712890625" lon="7.10052584297955036163330078125"><ele></ele><time>2016-7-29T2:32:23Z</time></trkpt>
<trkpt lat="46.3703799806535243988037109375" lon="7.1008840017020702362060546875"><ele></ele><time>2016-7-29T2:32:26Z</time></trkpt>
<trkpt lat="46.370355673134326934814453125" lon="7.1008890308439731597900390625"><ele></ele><time>2016-7-29T2:32:29Z</time></trkpt>
<trkpt lat="46.37027914635837078094482421875" lon="7.10096438415348529815673828125"><ele></ele><time>2016-7-29T2:32:32Z</time></trkpt>
<trkpt lat="46.37019532732665538787841796875" lon="7.10103412158787250518798828125"><ele></ele><time>2016-7-29T2:32:35Z</time></trkpt>
<trkpt lat="46.37009918689727783203125" lon="7.101155407726764678955078125"><ele></ele><time>2016-7-29T2:32:38Z</time></trkpt>
<trkpt lat="46.36995577253401279449462890625" lon="7.10126998834311962127685546875"><ele></ele><time>2016-7-29T2:32:41Z</time></trkpt>
<trkpt lat="46.36985351331532001495361328125" lon="7.10136772133409976959228515625"><ele></ele><time>2016-7-29T2:32:44Z</time></trkpt>
<trkpt lat="46.3698002882301807403564453125" lon="7.1014348603785037994384765625"><ele></ele><time>2016-7-29T2:32:47Z</time></trkpt>
<trkpt lat="46.3697731308639049530029296875" lon="7.1014620177447795867919921875"><ele></ele><time>2016-7-29T2:32:50Z</time></trkpt>
<trkpt lat="46.36972828768193721771240234375" lon="7.10161314345896244049072265625"><ele></ele><time>2016-7-29T2:32:53Z</time></trkpt>
<trkpt lat="46.36968553997576236724853515625" lon="7.1017424762248992919921875"><ele></ele><time>2016-7-29T2:32:56Z</time></trkpt>
<trkpt lat="46.3696266151964664459228515625" lon="7.10196501575410366058349609375"><ele></ele><time>2016-7-29T2:32:59Z</time></trkpt>
<trkpt lat="46.36952226050198078155517578125" lon="7.102157212793827056884765625"><ele></ele><time>2016-7-29T2:33:2Z</time></trkpt>
<trkpt lat="46.36948018334805965423583984375" lon="7.10235795937478542327880859375"><ele></ele><time>2016-7-29T2:33:5Z</time></trkpt>
<trkpt lat="46.369425617158412933349609375" lon="7.10255007259547710418701171875"><ele></ele><time>2016-7-29T2:33:8Z</time></trkpt>
<trkpt lat="46.36936635710299015045166015625" lon="7.10266490466892719268798828125"><ele></ele><time>2016-7-29T2:33:11Z</time></trkpt>
<trkpt lat="46.3692470826208591461181640625" lon="7.1028326265513896942138671875"><ele></ele><time>2016-7-29T2:33:14Z</time></trkpt>
<trkpt lat="46.36921045370399951934814453125" lon="7.10294536314904689788818359375"><ele></ele><time>2016-7-29T2:33:17Z</time></trkpt>
<trkpt lat="46.3691749982535839080810546875" lon="7.10315289907157421112060546875"><ele></ele><time>2016-7-29T2:33:20Z</time></trkpt>
<trkpt lat="46.36909226886928081512451171875" lon="7.10353662259876728057861328125"><ele></ele><time>2016-7-29T2:33:23Z</time></trkpt>
<trkpt lat="46.36905019171535968780517578125" lon="7.10368816740810871124267578125"><ele></ele><time>2016-7-29T2:33:26Z</time></trkpt>
<trkpt lat="46.368975006043910980224609375" lon="7.10389821790158748626708984375"><ele></ele><time>2016-7-29T2:33:29Z</time></trkpt>
<trkpt lat="46.3688470982015132904052734375" lon="7.104184292256832122802734375"><ele></ele><time>2016-7-29T2:33:32Z</time></trkpt>
<trkpt lat="46.3687331043183803558349609375" lon="7.1045217476785182952880859375"><ele></ele><time>2016-7-29T2:33:35Z</time></trkpt>
<trkpt lat="46.3686301745474338531494140625" lon="7.1047440357506275177001953125"><ele></ele><time>2016-7-29T2:33:38Z</time></trkpt>
<trkpt lat="46.368568651378154754638671875" lon="7.10481285117566585540771484375"><ele></ele><time>2016-7-29T2:33:41Z</time></trkpt>
<trkpt lat="46.36837863363325595855712890625" lon="7.1049106679856777191162109375"><ele></ele><time>2016-7-29T2:33:44Z</time></trkpt>
<trkpt lat="46.36819791980087757110595703125" lon="7.1049549244344234466552734375"><ele></ele><time>2016-7-29T2:33:47Z</time></trkpt>
<trkpt lat="46.3681825809180736541748046875" lon="7.104975543916225433349609375"><ele></ele><time>2016-7-29T2:33:50Z</time></trkpt>
<trkpt lat="46.368169672787189483642578125" lon="7.10501485504209995269775390625"><ele></ele><time>2016-7-29T2:33:53Z</time></trkpt>
<trkpt lat="46.368174366652965545654296875" lon="7.10500999353826045989990234375"><ele></ele><time>2016-7-29T2:33:56Z</time></trkpt>
<trkpt lat="46.3681684993207454681396484375" lon="7.10503849200904369354248046875"><ele></ele><time>2016-7-29T2:33:59Z</time></trkpt>
<trkpt lat="46.36816221289336681365966796875" lon="7.10508115589618682861328125"><ele></ele><time>2016-7-29T2:34:2Z</time></trkpt>
<trkpt lat="46.36815567500889301300048828125" lon="7.1052481234073638916015625"><ele></ele><time>2016-7-29T2:34:5Z</time></trkpt>
<trkpt lat="46.3681332953274250030517578125" lon="7.10547250695526599884033203125"><ele></ele><time>2016-7-29T2:34:8Z</time></trkpt>
<trkpt lat="46.3679949939250946044921875" lon="7.10553939454257488250732421875"><ele></ele><time>2016-7-29T2:34:11Z</time></trkpt>
<trkpt lat="46.36771227233111858367919921875" lon="7.10565422661602497100830078125"><ele></ele><time>2016-7-29T2:34:14Z</time></trkpt>
<trkpt lat="46.36766902171075344085693359375" lon="7.10568691603839397430419921875"><ele></ele><time>2016-7-29T2:34:17Z</time></trkpt>
<trkpt lat="46.36760498397052288055419921875" lon="7.10581901483237743377685546875"><ele></ele><time>2016-7-29T2:34:20Z</time></trkpt>
<trkpt lat="46.36756785213947296142578125" lon="7.10599972866475582122802734375"><ele></ele><time>2016-7-29T2:34:23Z</time></trkpt>
<trkpt lat="46.3675482384860515594482421875" lon="7.10610768757760524749755859375"><ele></ele><time>2016-7-29T2:34:26Z</time></trkpt>
<trkpt lat="46.36746735312044620513916015625" lon="7.10645847022533416748046875"><ele></ele><time>2016-7-29T2:34:29Z</time></trkpt>
<trkpt lat="46.36742276139557361602783203125" lon="7.10655025206506252288818359375"><ele></ele><time>2016-7-29T2:34:32Z</time></trkpt>
<trkpt lat="46.36714599095284938812255859375" lon="7.1068780682981014251708984375"><ele></ele><time>2016-7-29T2:34:35Z</time></trkpt>
<trkpt lat="46.3669621758162975311279296875" lon="7.1069853566586971282958984375"><ele></ele><time>2016-7-29T2:34:38Z</time></trkpt>
<trkpt lat="46.3668736629188060760498046875" lon="7.1070400066673755645751953125"><ele></ele><time>2016-7-29T2:34:41Z</time></trkpt>
<trkpt lat="46.36679579503834247589111328125" lon="7.10709423758089542388916015625"><ele></ele><time>2016-7-29T2:34:44Z</time></trkpt>
<trkpt lat="46.3665839843451976776123046875" lon="7.10729892365634441375732421875"><ele></ele><time>2016-7-29T2:34:47Z</time></trkpt>
<trkpt lat="46.366526819765567779541015625" lon="7.1073950640857219696044921875"><ele></ele><time>2016-7-29T2:34:50Z</time></trkpt>
<trkpt lat="46.36637250892817974090576171875" lon="7.10785145871341228485107421875"><ele></ele><time>2016-7-29T2:34:53Z</time></trkpt>
<trkpt lat="46.3663553260266780853271484375" lon="7.10796050727367401123046875"><ele></ele><time>2016-7-29T2:34:56Z</time></trkpt>
<trkpt lat="46.36634719558060169219970703125" lon="7.10808279924094676971435546875"><ele></ele><time>2016-7-29T2:34:59Z</time></trkpt>
<trkpt lat="46.3663650490343570709228515625" lon="7.10833006538450717926025390625"><ele></ele><time>2016-7-29T2:35:2Z</time></trkpt>
<trkpt lat="46.36646638624370098114013671875" lon="7.1086828596889972686767578125"><ele></ele><time>2016-7-29T2:35:5Z</time></trkpt>
<trkpt lat="46.3665139116346836090087890625" lon="7.1087985299527645111083984375"><ele></ele><time>2016-7-29T2:35:8Z</time></trkpt>
<trkpt lat="46.3666409812867641448974609375" lon="7.10915333591401576995849609375"><ele></ele><time>2016-7-29T2:35:11Z</time></trkpt>
<trkpt lat="46.3666624389588832855224609375" lon="7.10930136032402515411376953125"><ele></ele><time>2016-7-29T2:35:14Z</time></trkpt>
<trkpt lat="46.36664592660963535308837890625" lon="7.109702266752719879150390625"><ele></ele><time>2016-7-29T2:35:17Z</time></trkpt>
<trkpt lat="46.36660158634185791015625" lon="7.1099554002285003662109375"><ele></ele><time>2016-7-29T2:35:20Z</time></trkpt>
<trkpt lat="46.36657149530947208404541015625" lon="7.1102274768054485321044921875"><ele></ele><time>2016-7-29T2:35:23Z</time></trkpt>
<trkpt lat="46.3665038533508777618408203125" lon="7.11098394356667995452880859375"><ele></ele><time>2016-7-29T2:35:26Z</time></trkpt>
<trkpt lat="46.36643805541098117828369140625" lon="7.1117278374731540679931640625"><ele></ele><time>2016-7-29T2:35:29Z</time></trkpt>
<trkpt lat="46.36644626967608928680419921875" lon="7.111954987049102783203125"><ele></ele><time>2016-7-29T2:35:32Z</time></trkpt>
<trkpt lat="46.3665112294256687164306640625" lon="7.1121869981288909912109375"><ele></ele><time>2016-7-29T2:35:35Z</time></trkpt>
<trkpt lat="46.3665615208446979522705078125" lon="7.11243133060634136199951171875"><ele></ele><time>2016-7-29T2:35:38Z</time></trkpt>
<trkpt lat="46.3665695674717426300048828125" lon="7.11269997060298919677734375"><ele></ele><time>2016-7-29T2:35:41Z</time></trkpt>
<trkpt lat="46.36658909730613231658935546875" lon="7.11297732777893543243408203125"><ele></ele><time>2016-7-29T2:35:44Z</time></trkpt>
<trkpt lat="46.3666453398764133453369140625" lon="7.11326214484870433807373046875"><ele></ele><time>2016-7-29T2:35:47Z</time></trkpt>
<trkpt lat="46.36669370345771312713623046875" lon="7.1135158650577068328857421875"><ele></ele><time>2016-7-29T2:35:50Z</time></trkpt>
<trkpt lat="46.36672002263367176055908203125" lon="7.113954909145832061767578125"><ele></ele><time>2016-7-29T2:35:53Z</time></trkpt>
<trkpt lat="46.36674080975353717803955078125" lon="7.11488253436982631683349609375"><ele></ele><time>2016-7-29T2:35:56Z</time></trkpt>
<trkpt lat="46.36674818582832813262939453125" lon="7.11518562398850917816162109375"><ele></ele><time>2016-7-29T2:35:59Z</time></trkpt>
<trkpt lat="46.3667579926550388336181640625" lon="7.1159124188125133514404296875"><ele></ele><time>2016-7-29T2:36:2Z</time></trkpt>
<trkpt lat="46.3666812144219875335693359375" lon="7.11659210734069347381591796875"><ele></ele><time>2016-7-29T2:36:5Z</time></trkpt>
<trkpt lat="46.36655959300696849822998046875" lon="7.11709485389292240142822265625"><ele></ele><time>2016-7-29T2:36:8Z</time></trkpt>
<trkpt lat="46.366328336298465728759765625" lon="7.1175552718341350555419921875"><ele></ele><time>2016-7-29T2:36:11Z</time></trkpt>
<trkpt lat="46.36612809263169765472412109375" lon="7.11792516522109508514404296875"><ele></ele><time>2016-7-29T2:36:14Z</time></trkpt>
<trkpt lat="46.36610361747443675994873046875" lon="7.11802373640239238739013671875"><ele></ele><time>2016-7-29T2:36:17Z</time></trkpt>
<trkpt lat="46.3661099039018154144287109375" lon="7.11836613714694976806640625"><ele></ele><time>2016-7-29T2:36:20Z</time></trkpt>
<trkpt lat="46.3661176152527332305908203125" lon="7.11848557926714420318603515625"><ele></ele><time>2016-7-29T2:36:23Z</time></trkpt>
<trkpt lat="46.36611719615757465362548828125" lon="7.1186046861112117767333984375"><ele></ele><time>2016-7-29T2:36:26Z</time></trkpt>
<trkpt lat="46.36608148925006389617919921875" lon="7.11882940493524074554443359375"><ele></ele><time>2016-7-29T2:36:29Z</time></trkpt>
<trkpt lat="46.366009823977947235107421875" lon="7.1190093643963336944580078125"><ele></ele><time>2016-7-29T2:36:32Z</time></trkpt>
<trkpt lat="46.36592843569815158843994140625" lon="7.11919049732387065887451171875"><ele></ele><time>2016-7-29T2:36:35Z</time></trkpt>
<trkpt lat="46.3658680021762847900390625" lon="7.11927548982203006744384765625"><ele></ele><time>2016-7-29T2:36:38Z</time></trkpt>
<trkpt lat="46.36575744487345218658447265625" lon="7.11938814260065555572509765625"><ele></ele><time>2016-7-29T2:36:41Z</time></trkpt>
<trkpt lat="46.36571570299565792083740234375" lon="7.1194643341004848480224609375"><ele></ele><time>2016-7-29T2:36:44Z</time></trkpt>
<trkpt lat="46.36566842906177043914794921875" lon="7.11966994218528270721435546875"><ele></ele><time>2016-7-29T2:36:47Z</time></trkpt>
<trkpt lat="46.36563607491552829742431640625" lon="7.11990564130246639251708984375"><ele></ele><time>2016-7-29T2:36:50Z</time></trkpt>
<trkpt lat="46.3656110130250453948974609375" lon="7.1201731078326702117919921875"><ele></ele><time>2016-7-29T2:36:53Z</time></trkpt>
<trkpt lat="46.36569910682737827301025390625" lon="7.12036429904401302337646484375"><ele></ele><time>2016-7-29T2:36:56Z</time></trkpt>
<trkpt lat="46.36592357419431209564208984375" lon="7.12048131041228771209716796875"><ele></ele><time>2016-7-29T2:36:59Z</time></trkpt>
<trkpt lat="46.366041004657745361328125" lon="7.12055255658924579620361328125"><ele></ele><time>2016-7-29T2:37:2Z</time></trkpt>
<trkpt lat="46.3660978339612483978271484375" lon="7.120675854384899139404296875"><ele></ele><time>2016-7-29T2:37:5Z</time></trkpt>
<trkpt lat="46.3660029508173465728759765625" lon="7.1208590827882289886474609375"><ele></ele><time>2016-7-29T2:37:8Z</time></trkpt>
<trkpt lat="46.3657665811479091644287109375" lon="7.1210173331201076507568359375"><ele></ele><time>2016-7-29T2:37:11Z</time></trkpt>
<trkpt lat="46.3655359111726284027099609375" lon="7.1213056705892086029052734375"><ele></ele><time>2016-7-29T2:37:14Z</time></trkpt>
<trkpt lat="46.365439854562282562255859375" lon="7.1217195689678192138671875"><ele></ele><time>2016-7-29T2:37:17Z</time></trkpt>
<trkpt lat="46.365477405488491058349609375" lon="7.12221669964492321014404296875"><ele></ele><time>2016-7-29T2:37:20Z</time></trkpt>
<trkpt lat="46.36548251844942569732666015625" lon="7.122345529496669769287109375"><ele></ele><time>2016-7-29T2:37:23Z</time></trkpt>
<trkpt lat="46.365456283092498779296875" lon="7.12258550338447093963623046875"><ele></ele><time>2016-7-29T2:37:26Z</time></trkpt>
<trkpt lat="46.36540892533957958221435546875" lon="7.12287048809230327606201171875"><ele></ele><time>2016-7-29T2:37:29Z</time></trkpt>
<trkpt lat="46.3653944246470928192138671875" lon="7.122936286032199859619140625"><ele></ele><time>2016-7-29T2:37:32Z</time></trkpt>
<trkpt lat="46.365381181240081787109375" lon="7.122981883585453033447265625"><ele></ele><time>2016-7-29T2:37:35Z</time></trkpt>
<trkpt lat="46.36538126505911350250244140625" lon="7.122990600764751434326171875"><ele></ele><time>2016-7-29T2:37:38Z</time></trkpt>
<trkpt lat="46.36538092978298664093017578125" lon="7.12298749946057796478271484375"><ele></ele><time>2016-7-29T2:37:41Z</time></trkpt>
<trkpt lat="46.365365087985992431640625" lon="7.1230913512408733367919921875"><ele></ele><time>2016-7-29T2:37:44Z</time></trkpt>
<trkpt lat="46.3652928359806537628173828125" lon="7.123374156653881072998046875"><ele></ele><time>2016-7-29T2:37:47Z</time></trkpt>
<trkpt lat="46.365164928138256072998046875" lon="7.12367598898708820343017578125"><ele></ele><time>2016-7-29T2:37:50Z</time></trkpt>
<trkpt lat="46.36511689983308315277099609375" lon="7.12374103255569934844970703125"><ele></ele><time>2016-7-29T2:37:53Z</time></trkpt>
<trkpt lat="46.3649478368461132049560546875" lon="7.123956196010112762451171875"><ele></ele><time>2016-7-29T2:37:56Z</time></trkpt>
<trkpt lat="46.36487131007015705108642578125" lon="7.12411100976169109344482421875"><ele></ele><time>2016-7-29T2:37:59Z</time></trkpt>
<trkpt lat="46.36482395231723785400390625" lon="7.1242933161556720733642578125"><ele></ele><time>2016-7-29T2:38:2Z</time></trkpt>
<trkpt lat="46.36482520960271358489990234375" lon="7.12469053454697132110595703125"><ele></ele><time>2016-7-29T2:38:5Z</time></trkpt>
<trkpt lat="46.36480308137834072113037109375" lon="7.125344909727573394775390625"><ele></ele><time>2016-7-29T2:38:8Z</time></trkpt>
<trkpt lat="46.36479184962809085845947265625" lon="7.1258367598056793212890625"><ele></ele><time>2016-7-29T2:38:11Z</time></trkpt>
<trkpt lat="46.36472881771624088287353515625" lon="7.12655223906040191650390625"><ele></ele><time>2016-7-29T2:38:14Z</time></trkpt>
<trkpt lat="46.36463309638202190399169921875" lon="7.127227149903774261474609375"><ele></ele><time>2016-7-29T2:38:17Z</time></trkpt>
<trkpt lat="46.36454374529421329498291015625" lon="7.1277282200753688812255859375"><ele></ele><time>2016-7-29T2:38:20Z</time></trkpt>
<trkpt lat="46.364538967609405517578125" lon="7.12799048982560634613037109375"><ele></ele><time>2016-7-29T2:38:23Z</time></trkpt>
<trkpt lat="46.36457526125013828277587890625" lon="7.12843020446598529815673828125"><ele></ele><time>2016-7-29T2:38:26Z</time></trkpt>
<trkpt lat="46.36457827873528003692626953125" lon="7.128568924963474273681640625"><ele></ele><time>2016-7-29T2:38:29Z</time></trkpt>
<trkpt lat="46.364545337855815887451171875" lon="7.1290243975818157196044921875"><ele></ele><time>2016-7-29T2:38:32Z</time></trkpt>
<trkpt lat="46.3645136542618274688720703125" lon="7.1291668899357318878173828125"><ele></ele><time>2016-7-29T2:38:35Z</time></trkpt>
<trkpt lat="46.3643714971840381622314453125" lon="7.12964759208261966705322265625"><ele></ele><time>2016-7-29T2:38:38Z</time></trkpt>
<trkpt lat="46.36426680721342563629150390625" lon="7.12996828369796276092529296875"><ele></ele><time>2016-7-29T2:38:41Z</time></trkpt>
<trkpt lat="46.3642115704715251922607421875" lon="7.1300902403891086578369140625"><ele></ele><time>2016-7-29T2:38:44Z</time></trkpt>
<trkpt lat="46.36418759822845458984375" lon="7.13011127896606922149658203125"><ele></ele><time>2016-7-29T2:38:47Z</time></trkpt>
<trkpt lat="46.36400713585317134857177734375" lon="7.1302468143403530120849609375"><ele></ele><time>2016-7-29T2:38:50Z</time></trkpt>
<trkpt lat="46.3639574311673641204833984375" lon="7.13040833361446857452392578125"><ele></ele><time>2016-7-29T2:38:53Z</time></trkpt>
<trkpt lat="46.36395332403481006622314453125" lon="7.13051863946020603179931640625"><ele></ele><time>2016-7-29T2:38:56Z</time></trkpt>
<trkpt lat="46.3639663159847259521484375" lon="7.130649983882904052734375"><ele></ele><time>2016-7-29T2:38:59Z</time></trkpt>
<trkpt lat="46.3640429265797138214111328125" lon="7.13114082813262939453125"><ele></ele><time>2016-7-29T2:39:2Z</time></trkpt>
<trkpt lat="46.36408927850425243377685546875" lon="7.131587751209735870361328125"><ele></ele><time>2016-7-29T2:39:5Z</time></trkpt>
<trkpt lat="46.36403194628655910491943359375" lon="7.132229469716548919677734375"><ele></ele><time>2016-7-29T2:39:8Z</time></trkpt>
<trkpt lat="46.36394821107387542724609375" lon="7.1326765604317188262939453125"><ele></ele><time>2016-7-29T2:39:11Z</time></trkpt>
<trkpt lat="46.36399447917938232421875" lon="7.1330547519028186798095703125"><ele></ele><time>2016-7-29T2:39:14Z</time></trkpt>
<trkpt lat="46.3640479557216167449951171875" lon="7.1335749328136444091796875"><ele></ele><time>2016-7-29T2:39:17Z</time></trkpt>
<trkpt lat="46.36403697542846202850341796875" lon="7.1337078697979450225830078125"><ele></ele><time>2016-7-29T2:39:20Z</time></trkpt>
<trkpt lat="46.3639701716601848602294921875" lon="7.134090922772884368896484375"><ele></ele><time>2016-7-29T2:39:23Z</time></trkpt>
<trkpt lat="46.36394150555133819580078125" lon="7.13422000408172607421875"><ele></ele><time>2016-7-29T2:39:26Z</time></trkpt>
<trkpt lat="46.36383882723748683929443359375" lon="7.134593166410923004150390625"><ele></ele><time>2016-7-29T2:39:29Z</time></trkpt>
<trkpt lat="46.36382214725017547607421875" lon="7.13473775424063205718994140625"><ele></ele><time>2016-7-29T2:39:32Z</time></trkpt>
<trkpt lat="46.36379607953131198883056640625" lon="7.13511862792074680328369140625"><ele></ele><time>2016-7-29T2:39:35Z</time></trkpt>
<trkpt lat="46.36376540176570415496826171875" lon="7.13525022380053997039794921875"><ele></ele><time>2016-7-29T2:39:38Z</time></trkpt>
<trkpt lat="46.3636379130184650421142578125" lon="7.1356192789971828460693359375"><ele></ele><time>2016-7-29T2:39:41Z</time></trkpt>
<trkpt lat="46.36359977535903453826904296875" lon="7.13574425317347049713134765625"><ele></ele><time>2016-7-29T2:39:44Z</time></trkpt>
<trkpt lat="46.3634293712675571441650390625" lon="7.13628538884222507476806640625"><ele></ele><time>2016-7-29T2:39:47Z</time></trkpt>
<trkpt lat="46.363177411258220672607421875" lon="7.13676081039011478424072265625"><ele></ele><time>2016-7-29T2:39:50Z</time></trkpt>
<trkpt lat="46.36314312927424907684326171875" lon="7.13685183785855770111083984375"><ele></ele><time>2016-7-29T2:39:53Z</time></trkpt>
<trkpt lat="46.3630867190659046173095703125" lon="7.1370975114405155181884765625"><ele></ele><time>2016-7-29T2:39:56Z</time></trkpt>
<trkpt lat="46.362959481775760650634765625" lon="7.137826569378376007080078125"><ele></ele><time>2016-7-29T2:39:59Z</time></trkpt>
<trkpt lat="46.36288999579846858978271484375" lon="7.13837868534028530120849609375"><ele></ele><time>2016-7-29T2:40:2Z</time></trkpt>
<trkpt lat="46.36289686895906925201416015625" lon="7.13850080966949462890625"><ele></ele><time>2016-7-29T2:40:5Z</time></trkpt>
<trkpt lat="46.3629443943500518798828125" lon="7.13872217573225498199462890625"><ele></ele><time>2016-7-29T2:40:8Z</time></trkpt>
<trkpt lat="46.36297582648694515228271484375" lon="7.13892216794192790985107421875"><ele></ele><time>2016-7-29T2:40:11Z</time></trkpt>
<trkpt lat="46.36295688338577747344970703125" lon="7.1390323899686336517333984375"><ele></ele><time>2016-7-29T2:40:14Z</time></trkpt>
<trkpt lat="46.36280684731900691986083984375" lon="7.13924168609082698822021484375"><ele></ele><time>2016-7-29T2:40:17Z</time></trkpt>
<trkpt lat="46.3626186735928058624267578125" lon="7.13963496498763561248779296875"><ele></ele><time>2016-7-29T2:40:20Z</time></trkpt>
<trkpt lat="46.36258975602686405181884765625" lon="7.13971392251551151275634765625"><ele></ele><time>2016-7-29T2:40:23Z</time></trkpt>
<trkpt lat="46.36240325868129730224609375" lon="7.14017274789512157440185546875"><ele></ele><time>2016-7-29T2:40:26Z</time></trkpt>
<trkpt lat="46.36217686347663402557373046875" lon="7.14065973646938800811767578125"><ele></ele><time>2016-7-29T2:40:29Z</time></trkpt>
<trkpt lat="46.36201073415577411651611328125" lon="7.14108956046402454376220703125"><ele></ele><time>2016-7-29T2:40:32Z</time></trkpt>
<trkpt lat="46.36198525317013263702392578125" lon="7.1412098407745361328125"><ele></ele><time>2016-7-29T2:40:35Z</time></trkpt>
<trkpt lat="46.361910402774810791015625" lon="7.14180503971874713897705078125"><ele></ele><time>2016-7-29T2:40:38Z</time></trkpt>
<trkpt lat="46.36184594593942165374755859375" lon="7.1422651223838329315185546875"><ele></ele><time>2016-7-29T2:40:41Z</time></trkpt>
<trkpt lat="46.3618130050599575042724609375" lon="7.14234433136880397796630859375"><ele></ele><time>2016-7-29T2:40:44Z</time></trkpt>
<trkpt lat="46.36164595372974872589111328125" lon="7.14241339825093746185302734375"><ele></ele><time>2016-7-29T2:40:47Z</time></trkpt>
<trkpt lat="46.361598260700702667236328125" lon="7.14241390116512775421142578125"><ele></ele><time>2016-7-29T2:40:50Z</time></trkpt>
<trkpt lat="46.36154755018651485443115234375" lon="7.1424250490963459014892578125"><ele></ele><time>2016-7-29T2:40:53Z</time></trkpt>
<trkpt lat="46.3614110089838504791259765625" lon="7.14246402494609355926513671875"><ele></ele><time>2016-7-29T2:40:56Z</time></trkpt>
<trkpt lat="46.3612876273691654205322265625" lon="7.14258757419884204864501953125"><ele></ele><time>2016-7-29T2:40:59Z</time></trkpt>
<trkpt lat="46.361266672611236572265625" lon="7.1426097862422466278076171875"><ele></ele><time>2016-7-29T2:41:2Z</time></trkpt>
<trkpt lat="46.36119517497718334197998046875" lon="7.142723612487316131591796875"><ele></ele><time>2016-7-29T2:41:5Z</time></trkpt>
<trkpt lat="46.36114262044429779052734375" lon="7.14286183007061481475830078125"><ele></ele><time>2016-7-29T2:41:8Z</time></trkpt>
<trkpt lat="46.36111822910606861114501953125" lon="7.1430241875350475311279296875"><ele></ele><time>2016-7-29T2:41:11Z</time></trkpt>
<trkpt lat="46.36109224520623683929443359375" lon="7.14316047728061676025390625"><ele></ele><time>2016-7-29T2:41:14Z</time></trkpt>
<trkpt lat="46.3610713742673397064208984375" lon="7.1433551050722599029541015625"><ele></ele><time>2016-7-29T2:41:17Z</time></trkpt>
<trkpt lat="46.36103130877017974853515625" lon="7.14355316944420337677001953125"><ele></ele><time>2016-7-29T2:41:20Z</time></trkpt>
<trkpt lat="46.3610053248703479766845703125" lon="7.14373153634369373321533203125"><ele></ele><time>2016-7-29T2:41:23Z</time></trkpt>
<trkpt lat="46.36101412586867809295654296875" lon="7.14387805201113224029541015625"><ele></ele><time>2016-7-29T2:41:26Z</time></trkpt>
<trkpt lat="46.3610499165952205657958984375" lon="7.14400864206254482269287109375"><ele></ele><time>2016-7-29T2:41:29Z</time></trkpt>
<trkpt lat="46.3610422052443027496337890625" lon="7.14402674697339534759521484375"><ele></ele><time>2016-7-29T2:41:32Z</time></trkpt>
<trkpt lat="46.3610314764082431793212890625" lon="7.1440102346241474151611328125"><ele></ele><time>2016-7-29T2:41:35Z</time></trkpt>
<trkpt lat="46.3610373437404632568359375" lon="7.14400403201580047607421875"><ele></ele><time>2016-7-29T2:41:38Z</time></trkpt>
<trkpt lat="46.361030638217926025390625" lon="7.144018113613128662109375"><ele></ele><time>2016-7-29T2:41:41Z</time></trkpt>
<trkpt lat="46.361046731472015380859375" lon="7.1440340392291545867919921875"><ele></ele><time>2016-7-29T2:41:44Z</time></trkpt>
<trkpt lat="46.36105033569037914276123046875" lon="7.1440511383116245269775390625"><ele></ele><time>2016-7-29T2:41:47Z</time></trkpt>
<trkpt lat="46.36108067817986011505126953125" lon="7.144096903502941131591796875"><ele></ele><time>2016-7-29T2:41:50Z</time></trkpt>
<trkpt lat="46.36110213585197925567626953125" lon="7.14417175389826297760009765625"><ele></ele><time>2016-7-29T2:41:53Z</time></trkpt>
<trkpt lat="46.3611183129251003265380859375" lon="7.14420109055936336517333984375"><ele></ele><time>2016-7-29T2:41:56Z</time></trkpt>
<trkpt lat="46.36118612252175807952880859375" lon="7.14433285407721996307373046875"><ele></ele><time>2016-7-29T2:41:59Z</time></trkpt>
<trkpt lat="46.36127983219921588897705078125" lon="7.1444491110742092132568359375"><ele></ele><time>2016-7-29T2:42:2Z</time></trkpt>
<trkpt lat="46.36135510168969631195068359375" lon="7.14448121376335620880126953125"><ele></ele><time>2016-7-29T2:42:5Z</time></trkpt>
<trkpt lat="46.36140346527099609375" lon="7.144507952034473419189453125"><ele></ele><time>2016-7-29T2:42:8Z</time></trkpt>
<trkpt lat="46.36145174503326416015625" lon="7.14451608248054981231689453125"><ele></ele><time>2016-7-29T2:42:11Z</time></trkpt>
<trkpt lat="46.361474879086017608642578125" lon="7.14451591484248638153076171875"><ele></ele><time>2016-7-29T2:42:14Z</time></trkpt>
<trkpt lat="46.36154989711940288543701171875" lon="7.144536785781383514404296875"><ele></ele><time>2016-7-29T2:42:17Z</time></trkpt>
<trkpt lat="46.36162541806697845458984375" lon="7.14454047381877899169921875"><ele></ele><time>2016-7-29T2:42:20Z</time></trkpt>
<trkpt lat="46.36170865036547183990478515625" lon="7.14455413632094860076904296875"><ele></ele><time>2016-7-29T2:42:23Z</time></trkpt>
<trkpt lat="46.36177788488566875457763671875" lon="7.14458347298204898834228515625"><ele></ele><time>2016-7-29T2:42:26Z</time></trkpt>
<trkpt lat="46.3618428446352481842041015625" lon="7.14463007636368274688720703125"><ele></ele><time>2016-7-29T2:42:29Z</time></trkpt>
<trkpt lat="46.3618609495460987091064453125" lon="7.14476309716701507568359375"><ele></ele><time>2016-7-29T2:42:32Z</time></trkpt>
<trkpt lat="46.36189674027264118194580078125" lon="7.14497767388820648193359375"><ele></ele><time>2016-7-29T2:42:35Z</time></trkpt>
<trkpt lat="46.36192624457180500030517578125" lon="7.145210020244121551513671875"><ele></ele><time>2016-7-29T2:42:38Z</time></trkpt>
<trkpt lat="46.36198340915143489837646484375" lon="7.145427949726581573486328125"><ele></ele><time>2016-7-29T2:42:41Z</time></trkpt>
<trkpt lat="46.36209589429199695587158203125" lon="7.1456095017492771148681640625"><ele></ele><time>2016-7-29T2:42:44Z</time></trkpt>
<trkpt lat="46.36218692176043987274169921875" lon="7.1457932330667972564697265625"><ele></ele><time>2016-7-29T2:42:47Z</time></trkpt>
<trkpt lat="46.36221349239349365234375" lon="7.1460342966020107269287109375"><ele></ele><time>2016-7-29T2:42:50Z</time></trkpt>
<trkpt lat="46.36222363449633121490478515625" lon="7.14634291827678680419921875"><ele></ele><time>2016-7-29T2:42:53Z</time></trkpt>
<trkpt lat="46.36232773773372173309326171875" lon="7.1466951258480548858642578125"><ele></ele><time>2016-7-29T2:42:56Z</time></trkpt>
<trkpt lat="46.36237953789532184600830078125" lon="7.1468196809291839599609375"><ele></ele><time>2016-7-29T2:42:59Z</time></trkpt>
<trkpt lat="46.36239998973906040191650390625" lon="7.146881036460399627685546875"><ele></ele><time>2016-7-29T2:43:2Z</time></trkpt>
<trkpt lat="46.36249638162553310394287109375" lon="7.14712453074753284454345703125"><ele></ele><time>2016-7-29T2:43:5Z</time></trkpt>
<trkpt lat="46.362542398273944854736328125" lon="7.1473059989511966705322265625"><ele></ele><time>2016-7-29T2:43:8Z</time></trkpt>
<trkpt lat="46.362586654722690582275390625" lon="7.1474821865558624267578125"><ele></ele><time>2016-7-29T2:43:11Z</time></trkpt>
<trkpt lat="46.36258833110332489013671875" lon="7.14770707301795482635498046875"><ele></ele><time>2016-7-29T2:43:14Z</time></trkpt>
<trkpt lat="46.3625640235841274261474609375" lon="7.1479649841785430908203125"><ele></ele><time>2016-7-29T2:43:17Z</time></trkpt>
<trkpt lat="46.36251867748796939849853515625" lon="7.14820495806634426116943359375"><ele></ele><time>2016-7-29T2:43:20Z</time></trkpt>
<trkpt lat="46.3624507002532482147216796875" lon="7.1484784595668315887451171875"><ele></ele><time>2016-7-29T2:43:23Z</time></trkpt>
<trkpt lat="46.36236830614507198333740234375" lon="7.14880526997148990631103515625"><ele></ele><time>2016-7-29T2:43:26Z</time></trkpt>
<trkpt lat="46.36224123649299144744873046875" lon="7.14933467097580432891845703125"><ele></ele><time>2016-7-29T2:43:29Z</time></trkpt>
<trkpt lat="46.36223268695175647735595703125" lon="7.14941547252237796783447265625"><ele></ele><time>2016-7-29T2:43:32Z</time></trkpt>
<trkpt lat="46.36221148073673248291015625" lon="7.14969006367027759552001953125"><ele></ele><time>2016-7-29T2:43:35Z</time></trkpt>
<trkpt lat="46.362205781042575836181640625" lon="7.14986239559948444366455078125"><ele></ele><time>2016-7-29T2:43:38Z</time></trkpt>
<trkpt lat="46.36220603249967098236083984375" lon="7.14991486631333827972412109375"><ele></ele><time>2016-7-29T2:43:41Z</time></trkpt>
<trkpt lat="46.362202428281307220458984375" lon="7.150015197694301605224609375"><ele></ele><time>2016-7-29T2:43:44Z</time></trkpt>
<trkpt lat="46.36219413019716739654541015625" lon="7.15020940639078617095947265625"><ele></ele><time>2016-7-29T2:43:47Z</time></trkpt>
<trkpt lat="46.36219010688364505767822265625" lon="7.1503218077123165130615234375"><ele></ele><time>2016-7-29T2:43:50Z</time></trkpt>
<trkpt lat="46.36220050044357776641845703125" lon="7.15046354569494724273681640625"><ele></ele><time>2016-7-29T2:43:53Z</time></trkpt>
<trkpt lat="46.3622173480689525604248046875" lon="7.15062506496906280517578125"><ele></ele><time>2016-7-29T2:43:56Z</time></trkpt>
<trkpt lat="46.36226713657379150390625" lon="7.15076814405620098114013671875"><ele></ele><time>2016-7-29T2:43:59Z</time></trkpt>
<trkpt lat="46.36230980046093463897705078125" lon="7.15091072022914886474609375"><ele></ele><time>2016-7-29T2:44:2Z</time></trkpt>
<trkpt lat="46.362335868179798126220703125" lon="7.1510629355907440185546875"><ele></ele><time>2016-7-29T2:44:5Z</time></trkpt>
<trkpt lat="46.3623279891908168792724609375" lon="7.15125714428722858428955078125"><ele></ele><time>2016-7-29T2:44:8Z</time></trkpt>
<trkpt lat="46.3623105548322200775146484375" lon="7.15145177207887172698974609375"><ele></ele><time>2016-7-29T2:44:11Z</time></trkpt>
<trkpt lat="46.3622964732348918914794921875" lon="7.1516283787786960601806640625"><ele></ele><time>2016-7-29T2:44:14Z</time></trkpt>
<trkpt lat="46.36232254095375537872314453125" lon="7.15177581645548343658447265625"><ele></ele><time>2016-7-29T2:44:17Z</time></trkpt>
<trkpt lat="46.36234651319682598114013671875" lon="7.1519106812775135040283203125"><ele></ele><time>2016-7-29T2:44:20Z</time></trkpt>
<trkpt lat="46.36237065307796001434326171875" lon="7.15207052417099475860595703125"><ele></ele><time>2016-7-29T2:44:23Z</time></trkpt>
<trkpt lat="46.36237098835408687591552734375" lon="7.15212802402675151824951171875"><ele></ele><time>2016-7-29T2:44:26Z</time></trkpt>
<trkpt lat="46.3623782806098461151123046875" lon="7.1521835960447788238525390625"><ele></ele><time>2016-7-29T2:44:29Z</time></trkpt>
<trkpt lat="46.3623812980949878692626953125" lon="7.152354083955287933349609375"><ele></ele><time>2016-7-29T2:44:32Z</time></trkpt>
<trkpt lat="46.3623558171093463897705078125" lon="7.1525155194103717803955078125"><ele></ele><time>2016-7-29T2:44:35Z</time></trkpt>
<trkpt lat="46.36231206357479095458984375" lon="7.1526730991899967193603515625"><ele></ele><time>2016-7-29T2:44:38Z</time></trkpt>
<trkpt lat="46.36226512491703033447265625" lon="7.15283964760601520538330078125"><ele></ele><time>2016-7-29T2:44:41Z</time></trkpt>
<trkpt lat="46.36221684515476226806640625" lon="7.15297342278063297271728515625"><ele></ele><time>2016-7-29T2:44:44Z</time></trkpt>
<trkpt lat="46.362178958952426910400390625" lon="7.15310619212687015533447265625"><ele></ele><time>2016-7-29T2:44:47Z</time></trkpt>
<trkpt lat="46.36212757788598537445068359375" lon="7.1532739140093326568603515625"><ele></ele><time>2016-7-29T2:44:50Z</time></trkpt>
<trkpt lat="46.36212154291570186614990234375" lon="7.1532923541963100433349609375"><ele></ele><time>2016-7-29T2:44:53Z</time></trkpt>
<trkpt lat="46.3620896078646183013916015625" lon="7.153442390263080596923828125"><ele></ele><time>2016-7-29T2:44:56Z</time></trkpt>
<trkpt lat="46.36207460425794124603271484375" lon="7.153619416058063507080078125"><ele></ele><time>2016-7-29T2:44:59Z</time></trkpt>
<trkpt lat="46.362083069980144500732421875" lon="7.15376148931682109832763671875"><ele></ele><time>2016-7-29T2:45:2Z</time></trkpt>
<trkpt lat="46.3620887696743011474609375" lon="7.1539193205535411834716796875"><ele></ele><time>2016-7-29T2:45:5Z</time></trkpt>
<trkpt lat="46.36210620403289794921875" lon="7.15403608046472072601318359375"><ele></ele><time>2016-7-29T2:45:8Z</time></trkpt>
<trkpt lat="46.36211701668798923492431640625" lon="7.15414621867239475250244140625"><ele></ele><time>2016-7-29T2:45:11Z</time></trkpt>
<trkpt lat="46.36212858371436595916748046875" lon="7.154320143163204193115234375"><ele></ele><time>2016-7-29T2:45:14Z</time></trkpt>
<trkpt lat="46.36214551515877246856689453125" lon="7.15446942485868930816650390625"><ele></ele><time>2016-7-29T2:45:17Z</time></trkpt>
<trkpt lat="46.36217099614441394805908203125" lon="7.15459364466369152069091796875"><ele></ele><time>2016-7-29T2:45:20Z</time></trkpt>
<trkpt lat="46.3622274063527584075927734375" lon="7.15472456999123096466064453125"><ele></ele><time>2016-7-29T2:45:23Z</time></trkpt>
<trkpt lat="46.36231063865125179290771484375" lon="7.15478844009339809417724609375"><ele></ele><time>2016-7-29T2:45:26Z</time></trkpt>
<trkpt lat="46.3624081201851367950439453125" lon="7.15481090359389781951904296875"><ele></ele><time>2016-7-29T2:45:29Z</time></trkpt>
<trkpt lat="46.3624986447393894195556640625" lon="7.15478156693279743194580078125"><ele></ele><time>2016-7-29T2:45:32Z</time></trkpt>
<trkpt lat="46.36258875019848346710205078125" lon="7.15472909621894359588623046875"><ele></ele><time>2016-7-29T2:45:35Z</time></trkpt>
<trkpt lat="46.3626438193023204803466796875" lon="7.1546572633087635040283203125"><ele></ele><time>2016-7-29T2:45:38Z</time></trkpt>
<trkpt lat="46.36270659975707530975341796875" lon="7.1545610390603542327880859375"><ele></ele><time>2016-7-29T2:45:41Z</time></trkpt>
<trkpt lat="46.36273325420916080474853515625" lon="7.154517285525798797607421875"><ele></ele><time>2016-7-29T2:45:44Z</time></trkpt>
<trkpt lat="46.362744905054569244384765625" lon="7.15449322946369647979736328125"><ele></ele><time>2016-7-29T2:45:47Z</time></trkpt>
<trkpt lat="46.36278941296041011810302734375" lon="7.15439029969274997711181640625"><ele></ele><time>2016-7-29T2:45:50Z</time></trkpt>
<trkpt lat="46.36281992308795452117919921875" lon="7.1542784012854099273681640625"><ele></ele><time>2016-7-29T2:45:53Z</time></trkpt>
<trkpt lat="46.362874992191791534423828125" lon="7.15413666330277919769287109375"><ele></ele><time>2016-7-29T2:45:56Z</time></trkpt>
<trkpt lat="46.3629376888275146484375" lon="7.15400339104235172271728515625"><ele></ele><time>2016-7-29T2:45:59Z</time></trkpt>
<trkpt lat="46.3629904948174953460693359375" lon="7.15389610268175601959228515625"><ele></ele><time>2016-7-29T2:46:2Z</time></trkpt>
<trkpt lat="46.36306869797408580780029296875" lon="7.15376970358192920684814453125"><ele></ele><time>2016-7-29T2:46:5Z</time></trkpt>
<trkpt lat="46.36315268464386463165283203125" lon="7.1537231840193271636962890625"><ele></ele><time>2016-7-29T2:46:8Z</time></trkpt>
<trkpt lat="46.363184116780757904052734375" lon="7.153756879270076751708984375"><ele></ele><time>2016-7-29T2:46:11Z</time></trkpt>
<trkpt lat="46.36318000964820384979248046875" lon="7.1537992917001247406005859375"><ele></ele><time>2016-7-29T2:46:14Z</time></trkpt>
<trkpt lat="46.36315293610095977783203125" lon="7.15390917845070362091064453125"><ele></ele><time>2016-7-29T2:46:17Z</time></trkpt>
<trkpt lat="46.36315335519611835479736328125" lon="7.1539112739264965057373046875"><ele></ele><time>2016-7-29T2:46:20Z</time></trkpt>
<trkpt lat="46.36313525028526782989501953125" lon="7.15398453176021575927734375"><ele></ele><time>2016-7-29T2:46:23Z</time></trkpt>
<trkpt lat="46.363131143152713775634765625" lon="7.15409039519727230072021484375"><ele></ele><time>2016-7-29T2:46:26Z</time></trkpt>
<trkpt lat="46.363127119839191436767578125" lon="7.15411537326872348785400390625"><ele></ele><time>2016-7-29T2:46:29Z</time></trkpt>
<trkpt lat="46.36311898939311504364013671875" lon="7.1541754715144634246826171875"><ele></ele><time>2016-7-29T2:46:32Z</time></trkpt>
<trkpt lat="46.363079510629177093505859375" lon="7.154213525354862213134765625"><ele></ele><time>2016-7-29T2:46:35Z</time></trkpt>
<trkpt lat="46.36307054199278354644775390625" lon="7.15419642627239227294921875"><ele></ele><time>2016-7-29T2:46:38Z</time></trkpt>
<trkpt lat="46.3630501739680767059326171875" lon="7.15419567190110683441162109375"><ele></ele><time>2016-7-29T2:46:41Z</time></trkpt>
<trkpt lat="46.363052688539028167724609375" lon="7.15426708571612834930419921875"><ele></ele><time>2016-7-29T2:46:44Z</time></trkpt>
<trkpt lat="46.3630595616996288299560546875" lon="7.15433053672313690185546875"><ele></ele><time>2016-7-29T2:46:47Z</time></trkpt>
<trkpt lat="46.36306785978376865386962890625" lon="7.1543481387197971343994140625"><ele></ele><time>2016-7-29T2:46:50Z</time></trkpt>
<trkpt lat="46.3630662672221660614013671875" lon="7.1544215641915798187255859375"><ele></ele><time>2016-7-29T2:46:53Z</time></trkpt>
<trkpt lat="46.36306534521281719207763671875" lon="7.15445215813815593719482421875"><ele></ele><time>2016-7-29T2:46:56Z</time></trkpt>
<trkpt lat="46.36306442320346832275390625" lon="7.1545177884399890899658203125"><ele></ele><time>2016-7-29T2:46:59Z</time></trkpt>
<trkpt lat="46.36306048370897769927978515625" lon="7.1545513160526752471923828125"><ele></ele><time>2016-7-29T2:47:2Z</time></trkpt>
<trkpt lat="46.3630572147667407989501953125" lon="7.1546237356960773468017578125"><ele></ele><time>2016-7-29T2:47:5Z</time></trkpt>
<trkpt lat="46.36305863969027996063232421875" lon="7.15465483255684375762939453125"><ele></ele><time>2016-7-29T2:47:8Z</time></trkpt>
<trkpt lat="46.36306853033602237701416015625" lon="7.15475155971944332122802734375"><ele></ele><time>2016-7-29T2:47:11Z</time></trkpt>
<trkpt lat="46.3630719669163227081298828125" lon="7.154772095382213592529296875"><ele></ele><time>2016-7-29T2:47:14Z</time></trkpt>
<trkpt lat="46.36306232772767543792724609375" lon="7.15490813367068767547607421875"><ele></ele><time>2016-7-29T2:47:17Z</time></trkpt>
<trkpt lat="46.36301220394670963287353515625" lon="7.1551336906850337982177734375"><ele></ele><time>2016-7-29T2:47:20Z</time></trkpt>
<trkpt lat="46.3629328273236751556396484375" lon="7.15544055216014385223388671875"><ele></ele><time>2016-7-29T2:47:23Z</time></trkpt>
<trkpt lat="46.36289737187325954437255859375" lon="7.1556647680699825286865234375"><ele></ele><time>2016-7-29T2:47:26Z</time></trkpt>
<trkpt lat="46.36284221895039081573486328125" lon="7.15590138919651508331298828125"><ele></ele><time>2016-7-29T2:47:29Z</time></trkpt>
<trkpt lat="46.36278547346591949462890625" lon="7.15607740916311740875244140625"><ele></ele><time>2016-7-29T2:47:32Z</time></trkpt>
<trkpt lat="46.36271707713603973388671875" lon="7.15627153404057025909423828125"><ele></ele><time>2016-7-29T2:47:35Z</time></trkpt>
<trkpt lat="46.36266267858445644378662109375" lon="7.15647035278379917144775390625"><ele></ele><time>2016-7-29T2:47:38Z</time></trkpt>
<trkpt lat="46.36262579821050167083740234375" lon="7.15667503885924816131591796875"><ele></ele><time>2016-7-29T2:47:41Z</time></trkpt>
<trkpt lat="46.3626418076455593109130859375" lon="7.15681434608995914459228515625"><ele></ele><time>2016-7-29T2:47:44Z</time></trkpt>
<trkpt lat="46.36269318871200084686279296875" lon="7.15690939687192440032958984375"><ele></ele><time>2016-7-29T2:47:47Z</time></trkpt>
<trkpt lat="46.36278823949396610260009765625" lon="7.1569756977260112762451171875"><ele></ele><time>2016-7-29T2:47:50Z</time></trkpt>
<trkpt lat="46.3628815300762653350830078125" lon="7.15708055533468723297119140625"><ele></ele><time>2016-7-29T2:47:53Z</time></trkpt>
<trkpt lat="46.3629375211894512176513671875" lon="7.1572251431643962860107421875"><ele></ele><time>2016-7-29T2:47:56Z</time></trkpt>
<trkpt lat="46.36298798024654388427734375" lon="7.1573532186448574066162109375"><ele></ele><time>2016-7-29T2:47:59Z</time></trkpt>
<trkpt lat="46.36299736797809600830078125" lon="7.157373838126659393310546875"><ele></ele><time>2016-7-29T2:48:2Z</time></trkpt>
<trkpt lat="46.36299678124487400054931640625" lon="7.1573822200298309326171875"><ele></ele><time>2016-7-29T2:48:5Z</time></trkpt>
<trkpt lat="46.36303424835205078125" lon="7.15744215063750743865966796875"><ele></ele><time>2016-7-29T2:48:8Z</time></trkpt>
<trkpt lat="46.3630820252001285552978515625" lon="7.1575272269546985626220703125"><ele></ele><time>2016-7-29T2:48:11Z</time></trkpt>
<trkpt lat="46.36313407681882381439208984375" lon="7.15760819613933563232421875"><ele></ele><time>2016-7-29T2:48:14Z</time></trkpt>
<trkpt lat="46.3631589710712432861328125" lon="7.15769779868423938751220703125"><ele></ele><time>2016-7-29T2:48:17Z</time></trkpt>
<trkpt lat="46.363197863101959228515625" lon="7.15781112201511859893798828125"><ele></ele><time>2016-7-29T2:48:20Z</time></trkpt>
<trkpt lat="46.36324320919811725616455078125" lon="7.15790189802646636962890625"><ele></ele><time>2016-7-29T2:48:23Z</time></trkpt>
<trkpt lat="46.36328528635203838348388671875" lon="7.158004157245159149169921875"><ele></ele><time>2016-7-29T2:48:26Z</time></trkpt>
<trkpt lat="46.3633140362799167633056640625" lon="7.15812292881309986114501953125"><ele></ele><time>2016-7-29T2:48:29Z</time></trkpt>
<trkpt lat="46.3633334822952747344970703125" lon="7.15826273895800113677978515625"><ele></ele><time>2016-7-29T2:48:32Z</time></trkpt>
<trkpt lat="46.36333532631397247314453125" lon="7.1583945862948894500732421875"><ele></ele><time>2016-7-29T2:48:35Z</time></trkpt>
<trkpt lat="46.36333675123751163482666015625" lon="7.1585062332451343536376953125"><ele></ele><time>2016-7-29T2:48:38Z</time></trkpt>
<trkpt lat="46.36335678398609161376953125" lon="7.1586420200765132904052734375"><ele></ele><time>2016-7-29T2:48:41Z</time></trkpt>
<trkpt lat="46.36338067241013050079345703125" lon="7.15877722017467021942138671875"><ele></ele><time>2016-7-29T2:48:44Z</time></trkpt>
<trkpt lat="46.36339458636939525604248046875" lon="7.15889775194227695465087890625"><ele></ele><time>2016-7-29T2:48:47Z</time></trkpt>
<trkpt lat="46.36340464465320110321044921875" lon="7.15904451906681060791015625"><ele></ele><time>2016-7-29T2:48:50Z</time></trkpt>
<trkpt lat="46.363400705158710479736328125" lon="7.1590907871723175048828125"><ele></ele><time>2016-7-29T2:48:53Z</time></trkpt>
<trkpt lat="46.363396681845188140869140625" lon="7.1590983308851718902587890625"><ele></ele><time>2016-7-29T2:48:56Z</time></trkpt>
<trkpt lat="46.3634059019386768341064453125" lon="7.15919245965778827667236328125"><ele></ele><time>2016-7-29T2:48:59Z</time></trkpt>
<trkpt lat="46.36339441873133182525634765625" lon="7.1591623686254024505615234375"><ele></ele><time>2016-7-29T2:49:2Z</time></trkpt>
<trkpt lat="46.3634062372148036956787109375" lon="7.15923319570720195770263671875"><ele></ele><time>2016-7-29T2:49:5Z</time></trkpt>
<trkpt lat="46.3634508289396762847900390625" lon="7.1594657935202121734619140625"><ele></ele><time>2016-7-29T2:49:8Z</time></trkpt>
<trkpt lat="46.36348611675202846527099609375" lon="7.159665115177631378173828125"><ele></ele><time>2016-7-29T2:49:11Z</time></trkpt>
<trkpt lat="46.3635088317096233367919921875" lon="7.15987374074757099151611328125"><ele></ele><time>2016-7-29T2:49:14Z</time></trkpt>
<trkpt lat="46.36350606568157672882080078125" lon="7.16014145873486995697021484375"><ele></ele><time>2016-7-29T2:49:17Z</time></trkpt>
<trkpt lat="46.36352182365953922271728515625" lon="7.16034513898193836212158203125"><ele></ele><time>2016-7-29T2:49:20Z</time></trkpt>
<trkpt lat="46.3635302893817424774169921875" lon="7.16058318503201007843017578125"><ele></ele><time>2016-7-29T2:49:23Z</time></trkpt>
<trkpt lat="46.363535821437835693359375" lon="7.1608149446547031402587890625"><ele></ele><time>2016-7-29T2:49:26Z</time></trkpt>
<trkpt lat="46.3635403476655483245849609375" lon="7.161153741180896759033203125"><ele></ele><time>2016-7-29T2:49:29Z</time></trkpt>
<trkpt lat="46.36354722082614898681640625" lon="7.16130335815250873565673828125"><ele></ele><time>2016-7-29T2:49:32Z</time></trkpt>
<trkpt lat="46.36358477175235748291015625" lon="7.1614305116236209869384765625"><ele></ele><time>2016-7-29T2:49:35Z</time></trkpt>
<trkpt lat="46.36363967321813106536865234375" lon="7.16152430512011051177978515625"><ele></ele><time>2016-7-29T2:49:38Z</time></trkpt>
<trkpt lat="46.3636791519820690155029296875" lon="7.16162346303462982177734375"><ele></ele><time>2016-7-29T2:49:41Z</time></trkpt>
<trkpt lat="46.36372148059308528900146484375" lon="7.16178531758487224578857421875"><ele></ele><time>2016-7-29T2:49:44Z</time></trkpt>
<trkpt lat="46.3636900484561920166015625" lon="7.1619890816509723663330078125"><ele></ele><time>2016-7-29T2:49:47Z</time></trkpt>
<trkpt lat="46.3636737875640392303466796875" lon="7.16222754679620265960693359375"><ele></ele><time>2016-7-29T2:49:50Z</time></trkpt>
<trkpt lat="46.36366817168891429901123046875" lon="7.1624919958412647247314453125"><ele></ele><time>2016-7-29T2:49:53Z</time></trkpt>
<trkpt lat="46.3636632263660430908203125" lon="7.162734568119049072265625"><ele></ele><time>2016-7-29T2:49:56Z</time></trkpt>
<trkpt lat="46.36367940343916416168212890625" lon="7.16320755891501903533935546875"><ele></ele><time>2016-7-29T2:49:59Z</time></trkpt>
<trkpt lat="46.363698430359363555908203125" lon="7.1634750254452228546142578125"><ele></ele><time>2016-7-29T2:50:2Z</time></trkpt>
<trkpt lat="46.36370287276804447174072265625" lon="7.1635169349610805511474609375"><ele></ele><time>2016-7-29T2:50:5Z</time></trkpt>
<trkpt lat="46.36371946893632411956787109375" lon="7.163664288818836212158203125"><ele></ele><time>2016-7-29T2:50:8Z</time></trkpt>
<trkpt lat="46.36370890773832798004150390625" lon="7.1637888438999652862548828125"><ele></ele><time>2016-7-29T2:50:11Z</time></trkpt>
<trkpt lat="46.36370086111128330230712890625" lon="7.16393611393868923187255859375"><ele></ele><time>2016-7-29T2:50:14Z</time></trkpt>
<trkpt lat="46.36370253749191761016845703125" lon="7.16404692269861698150634765625"><ele></ele><time>2016-7-29T2:50:17Z</time></trkpt>
<trkpt lat="46.3637244142591953277587890625" lon="7.16418539173901081085205078125"><ele></ele><time>2016-7-29T2:50:20Z</time></trkpt>
<trkpt lat="46.36374612338840961456298828125" lon="7.1642481721937656402587890625"><ele></ele><time>2016-7-29T2:50:23Z</time></trkpt>
<trkpt lat="46.36375375092029571533203125" lon="7.16429217718541622161865234375"><ele></ele><time>2016-7-29T2:50:26Z</time></trkpt>
<trkpt lat="46.36376288719475269317626953125" lon="7.16436727903783321380615234375"><ele></ele><time>2016-7-29T2:50:29Z</time></trkpt>
<trkpt lat="46.363755762577056884765625" lon="7.164520919322967529296875"><ele></ele><time>2016-7-29T2:50:32Z</time></trkpt>
<trkpt lat="46.3637770526111125946044921875" lon="7.16475485824048519134521484375"><ele></ele><time>2016-7-29T2:50:35Z</time></trkpt>
<trkpt lat="46.36379339732229709625244140625" lon="7.165021486580371856689453125"><ele></ele><time>2016-7-29T2:50:38Z</time></trkpt>
<trkpt lat="46.3638602010905742645263671875" lon="7.165248133242130279541015625"><ele></ele><time>2016-7-29T2:50:41Z</time></trkpt>
<trkpt lat="46.36395500041544437408447265625" lon="7.1653215587139129638671875"><ele></ele><time>2016-7-29T2:50:44Z</time></trkpt>
<trkpt lat="46.3640345446765422821044921875" lon="7.1655078046023845672607421875"><ele></ele><time>2016-7-29T2:50:47Z</time></trkpt>
<trkpt lat="46.36408634483814239501953125" lon="7.1657243929803371429443359375"><ele></ele><time>2016-7-29T2:50:50Z</time></trkpt>
<trkpt lat="46.36415566317737102508544921875" lon="7.16585875488817691802978515625"><ele></ele><time>2016-7-29T2:50:53Z</time></trkpt>
<trkpt lat="46.3642095588147640228271484375" lon="7.1660066954791545867919921875"><ele></ele><time>2016-7-29T2:50:56Z</time></trkpt>
<trkpt lat="46.36421869508922100067138671875" lon="7.16616318561136722564697265625"><ele></ele><time>2016-7-29T2:50:59Z</time></trkpt>
<trkpt lat="46.36422238312661647796630859375" lon="7.16633099131286144256591796875"><ele></ele><time>2016-7-29T2:51:2Z</time></trkpt>
<trkpt lat="46.36426831595599651336669921875" lon="7.1664556302130222320556640625"><ele></ele><time>2016-7-29T2:51:5Z</time></trkpt>
<trkpt lat="46.36433721520006656646728515625" lon="7.16659066267311573028564453125"><ele></ele><time>2016-7-29T2:51:8Z</time></trkpt>
<trkpt lat="46.3643527217209339141845703125" lon="7.166630811989307403564453125"><ele></ele><time>2016-7-29T2:51:11Z</time></trkpt>
<trkpt lat="46.364356912672519683837890625" lon="7.16670750640332698822021484375"><ele></ele><time>2016-7-29T2:51:14Z</time></trkpt>
<trkpt lat="46.36433671228587627410888671875" lon="7.1667952649295330047607421875"><ele></ele><time>2016-7-29T2:51:17Z</time></trkpt>
<trkpt lat="46.364325396716594696044921875" lon="7.16684597544372081756591796875"><ele></ele><time>2016-7-29T2:51:20Z</time></trkpt>
<trkpt lat="46.364346183836460113525390625" lon="7.16690766625106334686279296875"><ele></ele><time>2016-7-29T2:51:23Z</time></trkpt>
<trkpt lat="46.3643678091466426849365234375" lon="7.16698964126408100128173828125"><ele></ele><time>2016-7-29T2:51:26Z</time></trkpt>
<trkpt lat="46.36441868729889392852783203125" lon="7.1670443750917911529541015625"><ele></ele><time>2016-7-29T2:51:29Z</time></trkpt>
<trkpt lat="46.3644569925963878631591796875" lon="7.16707228682935237884521484375"><ele></ele><time>2016-7-29T2:51:32Z</time></trkpt>
<trkpt lat="46.36448373086750507354736328125" lon="7.167161218822002410888671875"><ele></ele><time>2016-7-29T2:51:35Z</time></trkpt>
<trkpt lat="46.36454089544713497161865234375" lon="7.1673796512186527252197265625"><ele></ele><time>2016-7-29T2:51:38Z</time></trkpt>
<trkpt lat="46.36463494040071964263916015625" lon="7.16772842220962047576904296875"><ele></ele><time>2016-7-29T2:51:41Z</time></trkpt>
<trkpt lat="46.3645974732935428619384765625" lon="7.16786270029842853546142578125"><ele></ele><time>2016-7-29T2:51:44Z</time></trkpt>
<trkpt lat="46.36448238976299762725830078125" lon="7.168008126318454742431640625"><ele></ele><time>2016-7-29T2:51:47Z</time></trkpt>
<trkpt lat="46.364461518824100494384765625" lon="7.1682017482817173004150390625"><ele></ele><time>2016-7-29T2:51:50Z</time></trkpt>
<trkpt lat="46.36451859958469867706298828125" lon="7.16859318315982818603515625"><ele></ele><time>2016-7-29T2:51:53Z</time></trkpt>
<trkpt lat="46.364649944007396697998046875" lon="7.16914513148367404937744140625"><ele></ele><time>2016-7-29T2:51:56Z</time></trkpt>
<trkpt lat="46.36472336947917938232421875" lon="7.16950119473040103912353515625"><ele></ele><time>2016-7-29T2:51:59Z</time></trkpt>
<trkpt lat="46.36476100422441959381103515625" lon="7.16975265182554721832275390625"><ele></ele><time>2016-7-29T2:52:2Z</time></trkpt>
<trkpt lat="46.36482772417366504669189453125" lon="7.17002573423087596893310546875"><ele></ele><time>2016-7-29T2:52:5Z</time></trkpt>
<trkpt lat="46.36492076329886913299560546875" lon="7.17044667340815067291259765625"><ele></ele><time>2016-7-29T2:52:8Z</time></trkpt>
<trkpt lat="46.3650601543486118316650390625" lon="7.17083442024886608123779296875"><ele></ele><time>2016-7-29T2:52:11Z</time></trkpt>
<trkpt lat="46.36509225703775882720947265625" lon="7.17113181017339229583740234375"><ele></ele><time>2016-7-29T2:52:14Z</time></trkpt>
<trkpt lat="46.36513969860970973968505859375" lon="7.1713255159556865692138671875"><ele></ele><time>2016-7-29T2:52:17Z</time></trkpt>
<trkpt lat="46.36515361256897449493408203125" lon="7.17135879211127758026123046875"><ele></ele><time>2016-7-29T2:52:20Z</time></trkpt>
<trkpt lat="46.36524396948516368865966796875" lon="7.171535231173038482666015625"><ele></ele><time>2016-7-29T2:52:23Z</time></trkpt>
<trkpt lat="46.3653458096086978912353515625" lon="7.17171837575733661651611328125"><ele></ele><time>2016-7-29T2:52:26Z</time></trkpt>
<trkpt lat="46.36547396890819072723388671875" lon="7.1719846688210964202880859375"><ele></ele><time>2016-7-29T2:52:29Z</time></trkpt>
<trkpt lat="46.36552392505109310150146484375" lon="7.17210779897868633270263671875"><ele></ele><time>2016-7-29T2:52:32Z</time></trkpt>
<trkpt lat="46.36559952981770038604736328125" lon="7.17228214256465435028076171875"><ele></ele><time>2016-7-29T2:52:35Z</time></trkpt>
<trkpt lat="46.3656767271459102630615234375" lon="7.1724386326968669891357421875"><ele></ele><time>2016-7-29T2:52:38Z</time></trkpt>
<trkpt lat="46.36579357087612152099609375" lon="7.1725395508110523223876953125"><ele></ele><time>2016-7-29T2:52:41Z</time></trkpt>
<trkpt lat="46.3658845983445644378662109375" lon="7.17261976562440395355224609375"><ele></ele><time>2016-7-29T2:52:44Z</time></trkpt>
<trkpt lat="46.3659050501883029937744140625" lon="7.17266879975795745849609375"><ele></ele><time>2016-7-29T2:52:47Z</time></trkpt>
<trkpt lat="46.3659144379198551177978515625" lon="7.17274784110486507415771484375"><ele></ele><time>2016-7-29T2:52:50Z</time></trkpt>
<trkpt lat="46.365928351879119873046875" lon="7.17282143421471118927001953125"><ele></ele><time>2016-7-29T2:52:53Z</time></trkpt>
<trkpt lat="46.3659526593983173370361328125" lon="7.17282981611788272857666015625"><ele></ele><time>2016-7-29T2:52:56Z</time></trkpt>
<trkpt lat="46.366046704351902008056640625" lon="7.17293023131787776947021484375"><ele></ele><time>2016-7-29T2:52:59Z</time></trkpt>
<trkpt lat="46.36612893082201480865478515625" lon="7.17307222075760364532470703125"><ele></ele><time>2016-7-29T2:53:2Z</time></trkpt>
<trkpt lat="46.36619682423770427703857421875" lon="7.17315486632287502288818359375"><ele></ele><time>2016-7-29T2:53:5Z</time></trkpt>
<trkpt lat="46.36626069433987140655517578125" lon="7.1732546947896480560302734375"><ele></ele><time>2016-7-29T2:53:8Z</time></trkpt>
<trkpt lat="46.366354487836360931396484375" lon="7.1734137833118438720703125"><ele></ele><time>2016-7-29T2:53:11Z</time></trkpt>
<trkpt lat="46.36642766185104846954345703125" lon="7.17354613356292247772216796875"><ele></ele><time>2016-7-29T2:53:14Z</time></trkpt>
<trkpt lat="46.366506703197956085205078125" lon="7.1737505681812763214111328125"><ele></ele><time>2016-7-29T2:53:17Z</time></trkpt>
<trkpt lat="46.36648884974420070648193359375" lon="7.173844613134860992431640625"><ele></ele><time>2016-7-29T2:53:20Z</time></trkpt>
<trkpt lat="46.3664696551859378814697265625" lon="7.17392298392951488494873046875"><ele></ele><time>2016-7-29T2:53:23Z</time></trkpt>
<trkpt lat="46.3664592616260051727294921875" lon="7.1739684976637363433837890625"><ele></ele><time>2016-7-29T2:53:26Z</time></trkpt>
<trkpt lat="46.36643503792583942413330078125" lon="7.1740902028977870941162109375"><ele></ele><time>2016-7-29T2:53:29Z</time></trkpt>
<trkpt lat="46.36643671430647373199462890625" lon="7.1741277538239955902099609375"><ele></ele><time>2016-7-29T2:53:32Z</time></trkpt>
<trkpt lat="46.3664478622376918792724609375" lon="7.17420964501798152923583984375"><ele></ele><time>2016-7-29T2:53:35Z</time></trkpt>
<trkpt lat="46.36650041677057743072509765625" lon="7.1744425781071186065673828125"><ele></ele><time>2016-7-29T2:53:38Z</time></trkpt>
<trkpt lat="46.36658214032649993896484375" lon="7.174687497317790985107421875"><ele></ele><time>2016-7-29T2:53:41Z</time></trkpt>
<trkpt lat="46.36666369624435901641845703125" lon="7.174902744591236114501953125"><ele></ele><time>2016-7-29T2:53:44Z</time></trkpt>
<trkpt lat="46.36669345200061798095703125" lon="7.1750943548977375030517578125"><ele></ele><time>2016-7-29T2:53:47Z</time></trkpt>
<trkpt lat="46.36675019748508930206298828125" lon="7.17536978423595428466796875"><ele></ele><time>2016-7-29T2:53:50Z</time></trkpt>
<trkpt lat="46.366815827786922454833984375" lon="7.17560204677283763885498046875"><ele></ele><time>2016-7-29T2:53:53Z</time></trkpt>
<trkpt lat="46.36682211421430110931396484375" lon="7.17584788799285888671875"><ele></ele><time>2016-7-29T2:53:56Z</time></trkpt>
<trkpt lat="46.3668019138276576995849609375" lon="7.17613077722489833831787109375"><ele></ele><time>2016-7-29T2:53:59Z</time></trkpt>
<trkpt lat="46.3667858205735683441162109375" lon="7.17627997510135173797607421875"><ele></ele><time>2016-7-29T2:54:2Z</time></trkpt>
<trkpt lat="46.3667569868266582489013671875" lon="7.17640989460051059722900390625"><ele></ele><time>2016-7-29T2:54:5Z</time></trkpt>
<trkpt lat="46.3667422346770763397216796875" lon="7.176413834095001220703125"><ele></ele><time>2016-7-29T2:54:8Z</time></trkpt>
<trkpt lat="46.3666820526123046875" lon="7.176396735012531280517578125"><ele></ele><time>2016-7-29T2:54:11Z</time></trkpt>
<trkpt lat="46.36666704900562763214111328125" lon="7.1763938851654529571533203125"><ele></ele><time>2016-7-29T2:54:14Z</time></trkpt>
<trkpt lat="46.3665474392473697662353515625" lon="7.17636245302855968475341796875"><ele></ele><time>2016-7-29T2:54:17Z</time></trkpt>
<trkpt lat="46.366456411778926849365234375" lon="7.1763295121490955352783203125"><ele></ele><time>2016-7-29T2:54:20Z</time></trkpt>
<trkpt lat="46.36638038791716098785400390625" lon="7.1763801388442516326904296875"><ele></ele><time>2016-7-29T2:54:23Z</time></trkpt>
<trkpt lat="46.3663707487285137176513671875" lon="7.176412828266620635986328125"><ele></ele><time>2016-7-29T2:54:26Z</time></trkpt>
<trkpt lat="46.36639245785772800445556640625" lon="7.17650276608765125274658203125"><ele></ele><time>2016-7-29T2:54:29Z</time></trkpt>
<trkpt lat="46.36645817197859287261962890625" lon="7.1765326894819736480712890625"><ele></ele><time>2016-7-29T2:54:32Z</time></trkpt>
<trkpt lat="46.3664875924587249755859375" lon="7.17656428925693035125732421875"><ele></ele><time>2016-7-29T2:54:35Z</time></trkpt>
<trkpt lat="46.3665132410824298858642578125" lon="7.1766007505357265472412109375"><ele></ele><time>2016-7-29T2:54:38Z</time></trkpt>
<trkpt lat="46.36654752306640148162841796875" lon="7.17661189846694469451904296875"><ele></ele><time>2016-7-29T2:54:41Z</time></trkpt>
<trkpt lat="46.36663134209811687469482421875" lon="7.1766248904168605804443359375"><ele></ele><time>2016-7-29T2:54:44Z</time></trkpt>
<trkpt lat="46.36666922830045223236083984375" lon="7.17672186903655529022216796875"><ele></ele><time>2016-7-29T2:54:47Z</time></trkpt>
<trkpt lat="46.3666101358830928802490234375" lon="7.17678272165358066558837890625"><ele></ele><time>2016-7-29T2:54:50Z</time></trkpt>
<trkpt lat="46.3665273226797580718994140625" lon="7.17681826092302799224853515625"><ele></ele><time>2016-7-29T2:54:53Z</time></trkpt>
<trkpt lat="46.3664974831044673919677734375" lon="7.17681859619915485382080078125"><ele></ele><time>2016-7-29T2:54:56Z</time></trkpt>
<trkpt lat="46.36648599989712238311767578125" lon="7.1768270619213581085205078125"><ele></ele><time>2016-7-29T2:54:59Z</time></trkpt>
<trkpt lat="46.36647887527942657470703125" lon="7.17682764865458011627197265625"><ele></ele><time>2016-7-29T2:55:2Z</time></trkpt>
<trkpt lat="46.366430930793285369873046875" lon="7.17684768140316009521484375"><ele></ele><time>2016-7-29T2:55:5Z</time></trkpt>
<trkpt lat="46.3663653843104839324951171875" lon="7.17683619819581508636474609375"><ele></ele><time>2016-7-29T2:55:8Z</time></trkpt>
<trkpt lat="46.36629070155322551727294921875" lon="7.1768550574779510498046875"><ele></ele><time>2016-7-29T2:55:11Z</time></trkpt>
<trkpt lat="46.36620721779763698577880859375" lon="7.176868803799152374267578125"><ele></ele><time>2016-7-29T2:55:14Z</time></trkpt>
<trkpt lat="46.36612054891884326934814453125" lon="7.17686645686626434326171875"><ele></ele><time>2016-7-29T2:55:17Z</time></trkpt>
<trkpt lat="46.366039328277111053466796875" lon="7.17687584459781646728515625"><ele></ele><time>2016-7-29T2:55:20Z</time></trkpt>
<trkpt lat="46.3660156913101673126220703125" lon="7.1768719889223575592041015625"><ele></ele><time>2016-7-29T2:55:23Z</time></trkpt>
<trkpt lat="46.365985013544559478759765625" lon="7.1768631041049957275390625"><ele></ele><time>2016-7-29T2:55:26Z</time></trkpt>
<trkpt lat="46.36591318063437938690185546875" lon="7.17685463838279247283935546875"><ele></ele><time>2016-7-29T2:55:29Z</time></trkpt>
<trkpt lat="46.36584143154323101043701171875" lon="7.17684273608028888702392578125"><ele></ele><time>2016-7-29T2:55:32Z</time></trkpt>
<trkpt lat="46.36577404104173183441162109375" lon="7.1768059395253658294677734375"><ele></ele><time>2016-7-29T2:55:35Z</time></trkpt>
<trkpt lat="46.3656901381909847259521484375" lon="7.1767799556255340576171875"><ele></ele><time>2016-7-29T2:55:38Z</time></trkpt>
<trkpt lat="46.365588717162609100341796875" lon="7.17673528008162975311279296875"><ele></ele><time>2016-7-29T2:55:41Z</time></trkpt>
<trkpt lat="46.365579664707183837890625" lon="7.1767330169677734375"><ele></ele><time>2016-7-29T2:55:44Z</time></trkpt>
<trkpt lat="46.36555845849215984344482421875" lon="7.1767435781657695770263671875"><ele></ele><time>2016-7-29T2:55:47Z</time></trkpt>
<trkpt lat="46.36551420204341411590576171875" lon="7.17671466059982776641845703125"><ele></ele><time>2016-7-29T2:55:50Z</time></trkpt>
<trkpt lat="46.36548000387847423553466796875" lon="7.1766994893550872802734375"><ele></ele><time>2016-7-29T2:55:53Z</time></trkpt>
<trkpt lat="46.36543239466845989227294921875" lon="7.17667761258780956268310546875"><ele></ele><time>2016-7-29T2:55:56Z</time></trkpt>
<trkpt lat="46.36535176075994968414306640625" lon="7.1765916980803012847900390625"><ele></ele><time>2016-7-29T2:55:59Z</time></trkpt>
<trkpt lat="46.365274898707866668701171875" lon="7.17654459178447723388671875"><ele></ele><time>2016-7-29T2:56:2Z</time></trkpt>
<trkpt lat="46.3652023114264011383056640625" lon="7.1765139140188694000244140625"><ele></ele><time>2016-7-29T2:56:5Z</time></trkpt>
<trkpt lat="46.36511824093759059906005859375" lon="7.17646890319883823394775390625"><ele></ele><time>2016-7-29T2:56:8Z</time></trkpt>
<trkpt lat="46.3650199212133884429931640625" lon="7.176454067230224609375"><ele></ele><time>2016-7-29T2:56:11Z</time></trkpt>
<trkpt lat="46.364924870431423187255859375" lon="7.17641090042889118194580078125"><ele></ele><time>2016-7-29T2:56:14Z</time></trkpt>
<trkpt lat="46.364924199879169464111328125" lon="7.17640654183924198150634765625"><ele></ele><time>2016-7-29T2:56:17Z</time></trkpt>
<trkpt lat="46.3648784346878528594970703125" lon="7.17636697925627231597900390625"><ele></ele><time>2016-7-29T2:56:20Z</time></trkpt>
<trkpt lat="46.3647897541522979736328125" lon="7.17632171697914600372314453125"><ele></ele><time>2016-7-29T2:56:23Z</time></trkpt>
<trkpt lat="46.3646732456982135772705078125" lon="7.17629221267998218536376953125"><ele></ele><time>2016-7-29T2:56:26Z</time></trkpt>
<trkpt lat="46.3645558990538120269775390625" lon="7.17628785409033298492431640625"><ele></ele><time>2016-7-29T2:56:29Z</time></trkpt>
<trkpt lat="46.3645190186798572540283203125" lon="7.17626924626529216766357421875"><ele></ele><time>2016-7-29T2:56:32Z</time></trkpt>
<trkpt lat="46.36448490433394908905029296875" lon="7.17625583522021770477294921875"><ele></ele><time>2016-7-29T2:56:35Z</time></trkpt>
<trkpt lat="46.36438809335231781005859375" lon="7.1762376464903354644775390625"><ele></ele><time>2016-7-29T2:56:38Z</time></trkpt>
<trkpt lat="46.36433537118136882781982421875" lon="7.17624644748866558074951171875"><ele></ele><time>2016-7-29T2:56:41Z</time></trkpt>
<trkpt lat="46.36428977362811565399169921875" lon="7.17622046358883380889892578125"><ele></ele><time>2016-7-29T2:56:44Z</time></trkpt>
<trkpt lat="46.364201344549655914306640625" lon="7.17616480775177478790283203125"><ele></ele><time>2016-7-29T2:56:47Z</time></trkpt>
<trkpt lat="46.3641133345663547515869140625" lon="7.176103033125400543212890625"><ele></ele><time>2016-7-29T2:56:50Z</time></trkpt>
<trkpt lat="46.3640124164521694183349609375" lon="7.17605802230536937713623046875"><ele></ele><time>2016-7-29T2:56:53Z</time></trkpt>
<trkpt lat="46.36391627602279186248779296875" lon="7.176048047840595245361328125"><ele></ele><time>2016-7-29T2:56:56Z</time></trkpt>
<trkpt lat="46.363777220249176025390625" lon="7.1760586090385913848876953125"><ele></ele><time>2016-7-29T2:56:59Z</time></trkpt>
<trkpt lat="46.3636700995266437530517578125" lon="7.1761015243828296661376953125"><ele></ele><time>2016-7-29T2:57:2Z</time></trkpt>
<trkpt lat="46.363553591072559356689453125" lon="7.1761561743915081024169921875"><ele></ele><time>2016-7-29T2:57:5Z</time></trkpt>
<trkpt lat="46.36341520585119724273681640625" lon="7.1761675737798213958740234375"><ele></ele><time>2016-7-29T2:57:8Z</time></trkpt>
<trkpt lat="46.3633251003921031951904296875" lon="7.17610227875411510467529296875"><ele></ele><time>2016-7-29T2:57:11Z</time></trkpt>
<trkpt lat="46.363235414028167724609375" lon="7.1760488860309123992919921875"><ele></ele><time>2016-7-29T2:57:14Z</time></trkpt>
<trkpt lat="46.363139860332012176513671875" lon="7.1759887039661407470703125"><ele></ele><time>2016-7-29T2:57:17Z</time></trkpt>
<trkpt lat="46.36304338462650775909423828125" lon="7.17591226100921630859375"><ele></ele><time>2016-7-29T2:57:20Z</time></trkpt>
<trkpt lat="46.36294699274003505706787109375" lon="7.17581662349402904510498046875"><ele></ele><time>2016-7-29T2:57:23Z</time></trkpt>
<trkpt lat="46.36291732080280780792236328125" lon="7.17577974312007427215576171875"><ele></ele><time>2016-7-29T2:57:26Z</time></trkpt>
<trkpt lat="46.36287507601082324981689453125" lon="7.17573330737650394439697265625"><ele></ele><time>2016-7-29T2:57:29Z</time></trkpt>
<trkpt lat="46.3627512753009796142578125" lon="7.17563456855714321136474609375"><ele></ele><time>2016-7-29T2:57:32Z</time></trkpt>
<trkpt lat="46.3626542128622531890869140625" lon="7.17553499154746532440185546875"><ele></ele><time>2016-7-29T2:57:35Z</time></trkpt>
<trkpt lat="46.362554468214511871337890625" lon="7.17541278339922428131103515625"><ele></ele><time>2016-7-29T2:57:38Z</time></trkpt>
<trkpt lat="46.36245246045291423797607421875" lon="7.17527188360691070556640625"><ele></ele><time>2016-7-29T2:57:41Z</time></trkpt>
<trkpt lat="46.362342573702335357666015625" lon="7.17511497437953948974609375"><ele></ele><time>2016-7-29T2:57:44Z</time></trkpt>
<trkpt lat="46.36228859424591064453125" lon="7.17498631216585636138916015625"><ele></ele><time>2016-7-29T2:57:47Z</time></trkpt>
<trkpt lat="46.36221039108932018280029296875" lon="7.1748184226453304290771484375"><ele></ele><time>2016-7-29T2:57:50Z</time></trkpt>
<trkpt lat="46.36209606193006038665771484375" lon="7.17460661195218563079833984375"><ele></ele><time>2016-7-29T2:57:53Z</time></trkpt>
<trkpt lat="46.361975781619548797607421875" lon="7.17452329583466053009033203125"><ele></ele><time>2016-7-29T2:57:56Z</time></trkpt>
<trkpt lat="46.36185365729033946990966796875" lon="7.1745267324149608612060546875"><ele></ele><time>2016-7-29T2:57:59Z</time></trkpt>
<trkpt lat="46.36170730926096439361572265625" lon="7.17453704215586185455322265625"><ele></ele><time>2016-7-29T2:58:2Z</time></trkpt>
<trkpt lat="46.36157982051372528076171875" lon="7.17449001967906951904296875"><ele></ele><time>2016-7-29T2:58:5Z</time></trkpt>
<trkpt lat="46.361418552696704864501953125" lon="7.17440410517156124114990234375"><ele></ele><time>2016-7-29T2:58:8Z</time></trkpt>
<trkpt lat="46.361287795007228851318359375" lon="7.17426563613116741180419921875"><ele></ele><time>2016-7-29T2:58:11Z</time></trkpt>
<trkpt lat="46.36120565235614776611328125" lon="7.1741022728383541107177734375"><ele></ele><time>2016-7-29T2:58:14Z</time></trkpt>
<trkpt lat="46.361131556332111358642578125" lon="7.17407134361565113067626953125"><ele></ele><time>2016-7-29T2:58:17Z</time></trkpt>
<trkpt lat="46.36107824742794036865234375" lon="7.17410369776189327239990234375"><ele></ele><time>2016-7-29T2:58:20Z</time></trkpt>
<trkpt lat="46.36104413308203220367431640625" lon="7.17414024285972118377685546875"><ele></ele><time>2016-7-29T2:58:23Z</time></trkpt>
<trkpt lat="46.36099585331976413726806640625" lon="7.17428214848041534423828125"><ele></ele><time>2016-7-29T2:58:26Z</time></trkpt>
<trkpt lat="46.3609875552356243133544921875" lon="7.174419946968555450439453125"><ele></ele><time>2016-7-29T2:58:29Z</time></trkpt>
<trkpt lat="46.36099970899522304534912109375" lon="7.1745890937745571136474609375"><ele></ele><time>2016-7-29T2:58:32Z</time></trkpt>
<trkpt lat="46.36100448668003082275390625" lon="7.17475212179124355316162109375"><ele></ele><time>2016-7-29T2:58:35Z</time></trkpt>
<trkpt lat="46.361001469194889068603515625" lon="7.174896709620952606201171875"><ele></ele><time>2016-7-29T2:58:38Z</time></trkpt>
<trkpt lat="46.360985375940799713134765625" lon="7.17506057582795619964599609375"><ele></ele><time>2016-7-29T2:58:41Z</time></trkpt>
<trkpt lat="46.36097087524831295013427734375" lon="7.17520575039088726043701171875"><ele></ele><time>2016-7-29T2:58:44Z</time></trkpt>
<trkpt lat="46.36094673536717891693115234375" lon="7.1753793396055698394775390625"><ele></ele><time>2016-7-29T2:58:47Z</time></trkpt>
<trkpt lat="46.36095897294580936431884765625" lon="7.175558544695377349853515625"><ele></ele><time>2016-7-29T2:58:50Z</time></trkpt>
<trkpt lat="46.361014544963836669921875" lon="7.175636328756809234619140625"><ele></ele><time>2016-7-29T2:58:53Z</time></trkpt>
<trkpt lat="46.3610764034092426300048828125" lon="7.1755788289010524749755859375"><ele></ele><time>2016-7-29T2:58:56Z</time></trkpt>
<trkpt lat="46.361122839152812957763671875" lon="7.17545251362025737762451171875"><ele></ele><time>2016-7-29T2:58:59Z</time></trkpt>
<trkpt lat="46.36122283525764942169189453125" lon="7.17539300210773944854736328125"><ele></ele><time>2016-7-29T2:59:2Z</time></trkpt>
<trkpt lat="46.3612681813538074493408203125" lon="7.175474725663661956787109375"><ele></ele><time>2016-7-29T2:59:5Z</time></trkpt>
<trkpt lat="46.36128435842692852020263671875" lon="7.1754856221377849578857421875"><ele></ele><time>2016-7-29T2:59:8Z</time></trkpt>
<trkpt lat="46.3613285310566425323486328125" lon="7.1755112707614898681640625"><ele></ele><time>2016-7-29T2:59:11Z</time></trkpt>
<trkpt lat="46.3613828457891941070556640625" lon="7.17557388357818126678466796875"><ele></ele><time>2016-7-29T2:59:14Z</time></trkpt>
<trkpt lat="46.3614757172763347625732421875" lon="7.17566792853176593780517578125"><ele></ele><time>2016-7-29T2:59:17Z</time></trkpt>
<trkpt lat="46.36157839559018611907958984375" lon="7.1757377497851848602294921875"><ele></ele><time>2016-7-29T2:59:20Z</time></trkpt>
<trkpt lat="46.361606307327747344970703125" lon="7.1757571958005428314208984375"><ele></ele><time>2016-7-29T2:59:23Z</time></trkpt>
<trkpt lat="46.36164260096848011016845703125" lon="7.175789885222911834716796875"><ele></ele><time>2016-7-29T2:59:26Z</time></trkpt>
<trkpt lat="46.36172507889568805694580078125" lon="7.1758430264890193939208984375"><ele></ele><time>2016-7-29T2:59:29Z</time></trkpt>
<trkpt lat="46.3618099875748157501220703125" lon="7.17590765096247196197509765625"><ele></ele><time>2016-7-29T2:59:32Z</time></trkpt>
<trkpt lat="46.36187930591404438018798828125" lon="7.17597336508333683013916015625"><ele></ele><time>2016-7-29T2:59:35Z</time></trkpt>
<trkpt lat="46.36194149963557720184326171875" lon="7.1760691702365875244140625"><ele></ele><time>2016-7-29T2:59:38Z</time></trkpt>
<trkpt lat="46.36200386099517345428466796875" lon="7.1761662326753139495849609375"><ele></ele><time>2016-7-29T2:59:41Z</time></trkpt>
<trkpt lat="46.362061612308025360107421875" lon="7.17624711804091930389404296875"><ele></ele><time>2016-7-29T2:59:44Z</time></trkpt>
<trkpt lat="46.362102515995502471923828125" lon="7.17628768645226955413818359375"><ele></ele><time>2016-7-29T2:59:47Z</time></trkpt>
<trkpt lat="46.36213160119950771331787109375" lon="7.176310904324054718017578125"><ele></ele><time>2016-7-29T2:59:50Z</time></trkpt>
<trkpt lat="46.36217853985726833343505859375" lon="7.1763928793370723724365234375"><ele></ele><time>2016-7-29T2:59:53Z</time></trkpt>
<trkpt lat="46.362226568162441253662109375" lon="7.17642934061586856842041015625"><ele></ele><time>2016-7-29T2:59:56Z</time></trkpt>
<trkpt lat="46.36227007023990154266357421875" lon="7.1764968149363994598388671875"><ele></ele><time>2016-7-29T2:59:59Z</time></trkpt>
<trkpt lat="46.362312734127044677734375" lon="7.1765551529824733734130859375"><ele></ele><time>2016-7-29T3:0:2Z</time></trkpt>
<trkpt lat="46.36232069693505764007568359375" lon="7.17656931839883327484130859375"><ele></ele><time>2016-7-29T3:0:5Z</time></trkpt>
<trkpt lat="46.3623621873557567596435546875" lon="7.1766158379614353179931640625"><ele></ele><time>2016-7-29T3:0:8Z</time></trkpt>
<trkpt lat="46.3624227046966552734375" lon="7.17671088874340057373046875"><ele></ele><time>2016-7-29T3:0:11Z</time></trkpt>
<trkpt lat="46.3624745048582553863525390625" lon="7.17678389512002468109130859375"><ele></ele><time>2016-7-29T3:0:14Z</time></trkpt>
<trkpt lat="46.3625194318592548370361328125" lon="7.17689403332769870758056640625"><ele></ele><time>2016-7-29T3:0:17Z</time></trkpt>
<trkpt lat="46.36253728531301021575927734375" lon="7.177013643085956573486328125"><ele></ele><time>2016-7-29T3:0:20Z</time></trkpt>
<trkpt lat="46.362543404102325439453125" lon="7.1770267188549041748046875"><ele></ele><time>2016-7-29T3:0:23Z</time></trkpt>
<trkpt lat="46.36256477795541286468505859375" lon="7.17708949930965900421142578125"><ele></ele><time>2016-7-29T3:0:26Z</time></trkpt>
<trkpt lat="46.36261221952736377716064453125" lon="7.17720651067793369293212890625"><ele></ele><time>2016-7-29T3:0:29Z</time></trkpt>
<trkpt lat="46.36263753287494182586669921875" lon="7.17730407603085041046142578125"><ele></ele><time>2016-7-29T3:0:32Z</time></trkpt>
<trkpt lat="46.36265630833804607391357421875" lon="7.1773400343954563140869140625"><ele></ele><time>2016-7-29T3:0:35Z</time></trkpt>
<trkpt lat="46.3626672886312007904052734375" lon="7.17741806991398334503173828125"><ele></ele><time>2016-7-29T3:0:38Z</time></trkpt>
<trkpt lat="46.36266871355473995208740234375" lon="7.17751563526690006256103515625"><ele></ele><time>2016-7-29T3:0:41Z</time></trkpt>
<trkpt lat="46.36267843656241893768310546875" lon="7.17761957086622714996337890625"><ele></ele><time>2016-7-29T3:0:44Z</time></trkpt>
<trkpt lat="46.36270861141383647918701171875" lon="7.1777403540909290313720703125"><ele></ele><time>2016-7-29T3:0:47Z</time></trkpt>
<trkpt lat="46.3627484254539012908935546875" lon="7.1778352372348308563232421875"><ele></ele><time>2016-7-29T3:0:50Z</time></trkpt>
<trkpt lat="46.3627544604241847991943359375" lon="7.17784638516604900360107421875"><ele></ele><time>2016-7-29T3:0:53Z</time></trkpt>
<trkpt lat="46.36277281679213047027587890625" lon="7.17791377566754817962646484375"><ele></ele><time>2016-7-29T3:0:56Z</time></trkpt>
<trkpt lat="46.3627913407981395721435546875" lon="7.1780464611947536468505859375"><ele></ele><time>2016-7-29T3:0:59Z</time></trkpt>
<trkpt lat="46.3628161512315273284912109375" lon="7.17817948199808597564697265625"><ele></ele><time>2016-7-29T3:1:2Z</time></trkpt>
<trkpt lat="46.36284590698778629302978515625" lon="7.1782871894538402557373046875"><ele></ele><time>2016-7-29T3:1:5Z</time></trkpt>
<trkpt lat="46.362896449863910675048828125" lon="7.178440578281879425048828125"><ele></ele><time>2016-7-29T3:1:8Z</time></trkpt>
<trkpt lat="46.36292335577309131622314453125" lon="7.178563289344310760498046875"><ele></ele><time>2016-7-29T3:1:11Z</time></trkpt>
<trkpt lat="46.362942047417163848876953125" lon="7.178708128631114959716796875"><ele></ele><time>2016-7-29T3:1:14Z</time></trkpt>
<trkpt lat="46.362940706312656402587890625" lon="7.17879253439605236053466796875"><ele></ele><time>2016-7-29T3:1:17Z</time></trkpt>
<trkpt lat="46.362944059073925018310546875" lon="7.17880661599338054656982421875"><ele></ele><time>2016-7-29T3:1:20Z</time></trkpt>
<trkpt lat="46.362960152328014373779296875" lon="7.17883930541574954986572265625"><ele></ele><time>2016-7-29T3:1:23Z</time></trkpt>
<trkpt lat="46.3629801012575626373291015625" lon="7.17889965511858463287353515625"><ele></ele><time>2016-7-29T3:1:26Z</time></trkpt>
<trkpt lat="46.36304489336907863616943359375" lon="7.17903259210288524627685546875"><ele></ele><time>2016-7-29T3:1:29Z</time></trkpt>
<trkpt lat="46.3631041534245014190673828125" lon="7.17915513552725315093994140625"><ele></ele><time>2016-7-29T3:1:32Z</time></trkpt>
<trkpt lat="46.363139860332012176513671875" lon="7.17922252602875232696533203125"><ele></ele><time>2016-7-29T3:1:35Z</time></trkpt>
<trkpt lat="46.3631601445376873016357421875" lon="7.1793013997375965118408203125"><ele></ele><time>2016-7-29T3:1:38Z</time></trkpt>
<trkpt lat="46.3632040657103061676025390625" lon="7.17945688404142856597900390625"><ele></ele><time>2016-7-29T3:1:41Z</time></trkpt>
<trkpt lat="46.36323097161948680877685546875" lon="7.1796150505542755126953125"><ele></ele><time>2016-7-29T3:1:44Z</time></trkpt>
<trkpt lat="46.36327229440212249755859375" lon="7.1797684393823146820068359375"><ele></ele><time>2016-7-29T3:1:47Z</time></trkpt>
<trkpt lat="46.3632694445550441741943359375" lon="7.17992744408547878265380859375"><ele></ele><time>2016-7-29T3:1:50Z</time></trkpt>
<trkpt lat="46.36325486004352569580078125" lon="7.18001537024974822998046875"><ele></ele><time>2016-7-29T3:1:53Z</time></trkpt>
<trkpt lat="46.363242454826831817626953125" lon="7.1800292842090129852294921875"><ele></ele><time>2016-7-29T3:1:56Z</time></trkpt>
<trkpt lat="46.36317573487758636474609375" lon="7.18003749847412109375"><ele></ele><time>2016-7-29T3:1:59Z</time></trkpt>
<trkpt lat="46.36315762996673583984375" lon="7.18003607355058193206787109375"><ele></ele><time>2016-7-29T3:2:2Z</time></trkpt>
<trkpt lat="46.3630417920649051666259765625" lon="7.17995879240334033966064453125"><ele></ele><time>2016-7-29T3:2:5Z</time></trkpt>
<trkpt lat="46.362949423491954803466796875" lon="7.17983968555927276611328125"><ele></ele><time>2016-7-29T3:2:8Z</time></trkpt>
<trkpt lat="46.3628225214779376983642578125" lon="7.179709933698177337646484375"><ele></ele><time>2016-7-29T3:2:11Z</time></trkpt>
<trkpt lat="46.36270458810031414031982421875" lon="7.1796983666718006134033203125"><ele></ele><time>2016-7-29T3:2:14Z</time></trkpt>
<trkpt lat="46.36260014958679676055908203125" lon="7.17979115433990955352783203125"><ele></ele><time>2016-7-29T3:2:17Z</time></trkpt>
<trkpt lat="46.3625720702111721038818359375" lon="7.17991118319332599639892578125"><ele></ele><time>2016-7-29T3:2:20Z</time></trkpt>
<trkpt lat="46.3625621795654296875" lon="7.18005853705108165740966796875"><ele></ele><time>2016-7-29T3:2:23Z</time></trkpt>
<trkpt lat="46.3625747524201869964599609375" lon="7.180232293903827667236328125"><ele></ele><time>2016-7-29T3:2:26Z</time></trkpt>
<trkpt lat="46.36261372826993465423583984375" lon="7.180412672460079193115234375"><ele></ele><time>2016-7-29T3:2:29Z</time></trkpt>
<trkpt lat="46.362645663321018218994140625" lon="7.1805828250944614410400390625"><ele></ele><time>2016-7-29T3:2:32Z</time></trkpt>
<trkpt lat="46.3626679591834545135498046875" lon="7.18072213232517242431640625"><ele></ele><time>2016-7-29T3:2:35Z</time></trkpt>
<trkpt lat="46.36270944960415363311767578125" lon="7.18090980313718318939208984375"><ele></ele><time>2016-7-29T3:2:38Z</time></trkpt>
<trkpt lat="46.36275186203420162200927734375" lon="7.1810803748667240142822265625"><ele></ele><time>2016-7-29T3:2:41Z</time></trkpt>
<trkpt lat="46.36275605298578739166259765625" lon="7.18110308982431888580322265625"><ele></ele><time>2016-7-29T3:2:44Z</time></trkpt>
<trkpt lat="46.3627715595066547393798828125" lon="7.1813060157001018524169921875"><ele></ele><time>2016-7-29T3:2:47Z</time></trkpt>
<trkpt lat="46.36279779486358165740966796875" lon="7.1815215982496738433837890625"><ele></ele><time>2016-7-29T3:2:50Z</time></trkpt>
<trkpt lat="46.36281455866992473602294921875" lon="7.1816238574683666229248046875"><ele></ele><time>2016-7-29T3:2:53Z</time></trkpt>
<trkpt lat="46.36283836327493190765380859375" lon="7.181618995964527130126953125"><ele></ele><time>2016-7-29T3:2:56Z</time></trkpt>
<trkpt lat="46.3628637604415416717529296875" lon="7.18156325630843639373779296875"><ele></ele><time>2016-7-29T3:2:59Z</time></trkpt>
<trkpt lat="46.3628785125911235809326171875" lon="7.181526124477386474609375"><ele></ele><time>2016-7-29T3:3:2Z</time></trkpt>
<trkpt lat="46.36293643154203891754150390625" lon="7.18140668235719203948974609375"><ele></ele><time>2016-7-29T3:3:5Z</time></trkpt>
<trkpt lat="46.36300113983452320098876953125" lon="7.1812929399311542510986328125"><ele></ele><time>2016-7-29T3:3:8Z</time></trkpt>
<trkpt lat="46.36308227665722370147705078125" lon="7.1811648644506931304931640625"><ele></ele><time>2016-7-29T3:3:11Z</time></trkpt>
<trkpt lat="46.363178752362728118896484375" lon="7.18109252862632274627685546875"><ele></ele><time>2016-7-29T3:3:14Z</time></trkpt>
<trkpt lat="46.3632929138839244842529296875" lon="7.18107190914452075958251953125"><ele></ele><time>2016-7-29T3:3:17Z</time></trkpt>
<trkpt lat="46.363391317427158355712890625" lon="7.1810592524707317352294921875"><ele></ele><time>2016-7-29T3:3:20Z</time></trkpt>
<trkpt lat="46.36352601461112499237060546875" lon="7.18103921972215175628662109375"><ele></ele><time>2016-7-29T3:3:23Z</time></trkpt>
<trkpt lat="46.363616622984409332275390625" lon="7.18099798075854778289794921875"><ele></ele><time>2016-7-29T3:3:26Z</time></trkpt>
<trkpt lat="46.36369583196938037872314453125" lon="7.18094500713050365447998046875"><ele></ele><time>2016-7-29T3:3:29Z</time></trkpt>
<trkpt lat="46.36380312032997608184814453125" lon="7.18088750727474689483642578125"><ele></ele><time>2016-7-29T3:3:32Z</time></trkpt>
<trkpt lat="46.36388978920876979827880859375" lon="7.18084056861698627471923828125"><ele></ele><time>2016-7-29T3:3:35Z</time></trkpt>
<trkpt lat="46.36399724520742893218994140625" lon="7.1807799674570560455322265625"><ele></ele><time>2016-7-29T3:3:38Z</time></trkpt>
<trkpt lat="46.36408257298171520233154296875" lon="7.1807665564119815826416015625"><ele></ele><time>2016-7-29T3:3:41Z</time></trkpt>
<trkpt lat="46.3641218841075897216796875" lon="7.180768735706806182861328125"><ele></ele><time>2016-7-29T3:3:44Z</time></trkpt>
<trkpt lat="46.364187933504581451416015625" lon="7.18084274791181087493896484375"><ele></ele><time>2016-7-29T3:3:47Z</time></trkpt>
<trkpt lat="46.3642226345837116241455078125" lon="7.18095255084335803985595703125"><ele></ele><time>2016-7-29T3:3:50Z</time></trkpt>
<trkpt lat="46.364247612655162811279296875" lon="7.1810465119779109954833984375"><ele></ele><time>2016-7-29T3:3:53Z</time></trkpt>
<trkpt lat="46.3642548210918903350830078125" lon="7.1810793690383434295654296875"><ele></ele><time>2016-7-29T3:3:56Z</time></trkpt>
<trkpt lat="46.36429153382778167724609375" lon="7.1811742521822452545166015625"><ele></ele><time>2016-7-29T3:3:59Z</time></trkpt>
<trkpt lat="46.36432212777435779571533203125" lon="7.18129285611212253570556640625"><ele></ele><time>2016-7-29T3:4:2Z</time></trkpt>
<trkpt lat="46.3643533922731876373291015625" lon="7.18141003511846065521240234375"><ele></ele><time>2016-7-29T3:4:5Z</time></trkpt>
<trkpt lat="46.36437091045081615447998046875" lon="7.18152117915451526641845703125"><ele></ele><time>2016-7-29T3:4:8Z</time></trkpt>
<trkpt lat="46.3644080422818660736083984375" lon="7.18160198070108890533447265625"><ele></ele><time>2016-7-29T3:4:11Z</time></trkpt>
<trkpt lat="46.36445087380707263946533203125" lon="7.18168906867504119873046875"><ele></ele><time>2016-7-29T3:4:14Z</time></trkpt>
<trkpt lat="46.36450611054897308349609375" lon="7.18168278224766254425048828125"><ele></ele><time>2016-7-29T3:4:17Z</time></trkpt>
<trkpt lat="46.364592276513576507568359375" lon="7.18166165985167026519775390625"><ele></ele><time>2016-7-29T3:4:20Z</time></trkpt>
<trkpt lat="46.364598311483860015869140625" lon="7.18165512196719646453857421875"><ele></ele><time>2016-7-29T3:4:23Z</time></trkpt>
<trkpt lat="46.364656984806060791015625" lon="7.18163064680993556976318359375"><ele></ele><time>2016-7-29T3:4:26Z</time></trkpt>
<trkpt lat="46.3647414743900299072265625" lon="7.18161371536552906036376953125"><ele></ele><time>2016-7-29T3:4:29Z</time></trkpt>
<trkpt lat="46.36482370086014270782470703125" lon="7.18162125907838344573974609375"><ele></ele><time>2016-7-29T3:4:32Z</time></trkpt>
<trkpt lat="46.36489444412291049957275390625" lon="7.18164213001728057861328125"><ele></ele><time>2016-7-29T3:4:35Z</time></trkpt>
<trkpt lat="46.36496610939502716064453125" lon="7.1816707961261272430419921875"><ele></ele><time>2016-7-29T3:4:38Z</time></trkpt>
<trkpt lat="46.3650232739746570587158203125" lon="7.181719578802585601806640625"><ele></ele><time>2016-7-29T3:4:41Z</time></trkpt>
<trkpt lat="46.365080438554286956787109375" lon="7.18182854354381561279296875"><ele></ele><time>2016-7-29T3:4:44Z</time></trkpt>
<trkpt lat="46.3650909997522830963134765625" lon="7.1819351613521575927734375"><ele></ele><time>2016-7-29T3:4:47Z</time></trkpt>
<trkpt lat="46.36508488096296787261962890625" lon="7.1819604746997356414794921875"><ele></ele><time>2016-7-29T3:4:50Z</time></trkpt>
<trkpt lat="46.3650752417743206024169921875" lon="7.18201269395649433135986328125"><ele></ele><time>2016-7-29T3:4:53Z</time></trkpt>
<trkpt lat="46.365072391927242279052734375" lon="7.1820251829922199249267578125"><ele></ele><time>2016-7-29T3:4:56Z</time></trkpt>
<trkpt lat="46.36506778188049793243408203125" lon="7.18203063122928142547607421875"><ele></ele><time>2016-7-29T3:4:59Z</time></trkpt>
<trkpt lat="46.3650333322584629058837890625" lon="7.18206482939422130584716796875"><ele></ele><time>2016-7-29T3:5:2Z</time></trkpt>
<trkpt lat="46.365027129650115966796875" lon="7.18206499703228473663330078125"><ele></ele><time>2016-7-29T3:5:5Z</time></trkpt>
<trkpt lat="46.36497952044010162353515625" lon="7.182148396968841552734375"><ele></ele><time>2016-7-29T3:5:8Z</time></trkpt>
<trkpt lat="46.3649096153676509857177734375" lon="7.18230689875781536102294921875"><ele></ele><time>2016-7-29T3:5:11Z</time></trkpt>
<trkpt lat="46.3648539595305919647216796875" lon="7.18244503252208232879638671875"><ele></ele><time>2016-7-29T3:5:14Z</time></trkpt>
<trkpt lat="46.364761926233768463134765625" lon="7.1826109103858470916748046875"><ele></ele><time>2016-7-29T3:5:17Z</time></trkpt>
<trkpt lat="46.36463996954262256622314453125" lon="7.182689197361469268798828125"><ele></ele><time>2016-7-29T3:5:20Z</time></trkpt>
<trkpt lat="46.36452530510723590850830078125" lon="7.18280143104493618011474609375"><ele></ele><time>2016-7-29T3:5:23Z</time></trkpt>
<trkpt lat="46.36445380747318267822265625" lon="7.18294425867497920989990234375"><ele></ele><time>2016-7-29T3:5:26Z</time></trkpt>
<trkpt lat="46.36438616551458835601806640625" lon="7.18305842019617557525634765625"><ele></ele><time>2016-7-29T3:5:29Z</time></trkpt>
<trkpt lat="46.36433889158070087432861328125" lon="7.18318616040050983428955078125"><ele></ele><time>2016-7-29T3:5:32Z</time></trkpt>
<trkpt lat="46.36433050967752933502197265625" lon="7.183300070464611053466796875"><ele></ele><time>2016-7-29T3:5:35Z</time></trkpt>
<trkpt lat="46.3643409870564937591552734375" lon="7.18342755921185016632080078125"><ele></ele><time>2016-7-29T3:5:38Z</time></trkpt>
<trkpt lat="46.3643624447286128997802734375" lon="7.1835386194288730621337890625"><ele></ele><time>2016-7-29T3:5:41Z</time></trkpt>
<trkpt lat="46.36435934342443943023681640625" lon="7.1836656890809535980224609375"><ele></ele><time>2016-7-29T3:5:44Z</time></trkpt>
<trkpt lat="46.364360265433788299560546875" lon="7.18374473042786121368408203125"><ele></ele><time>2016-7-29T3:5:47Z</time></trkpt>
<trkpt lat="46.36434920132160186767578125" lon="7.18386073596775531768798828125"><ele></ele><time>2016-7-29T3:5:50Z</time></trkpt>
<trkpt lat="46.36432749219238758087158203125" lon="7.18406123109161853790283203125"><ele></ele><time>2016-7-29T3:5:53Z</time></trkpt>
<trkpt lat="46.3643257319927215576171875" lon="7.18427966348826885223388671875"><ele></ele><time>2016-7-29T3:5:56Z</time></trkpt>
<trkpt lat="46.3643419928848743438720703125" lon="7.1844944916665554046630859375"><ele></ele><time>2016-7-29T3:5:59Z</time></trkpt>
<trkpt lat="46.3643580861389636993408203125" lon="7.18466506339609622955322265625"><ele></ele><time>2016-7-29T3:6:2Z</time></trkpt>
<trkpt lat="46.3643713295459747314453125" lon="7.1848508901894092559814453125"><ele></ele><time>2016-7-29T3:6:5Z</time></trkpt>
<trkpt lat="46.36437962763011455535888671875" lon="7.1849928796291351318359375"><ele></ele><time>2016-7-29T3:6:8Z</time></trkpt>
<trkpt lat="46.36437895707786083221435546875" lon="7.1851144172251224517822265625"><ele></ele><time>2016-7-29T3:6:11Z</time></trkpt>
<trkpt lat="46.36437878943979740142822265625" lon="7.18527493067085742950439453125"><ele></ele><time>2016-7-29T3:6:14Z</time></trkpt>
<trkpt lat="46.36437828652560710906982421875" lon="7.18540736474096775054931640625"><ele></ele><time>2016-7-29T3:6:17Z</time></trkpt>
<trkpt lat="46.364378370344638824462890625" lon="7.18554751016199588775634765625"><ele></ele><time>2016-7-29T3:6:20Z</time></trkpt>
<trkpt lat="46.3643755204975605010986328125" lon="7.185587994754314422607421875"><ele></ele><time>2016-7-29T3:6:23Z</time></trkpt>
<trkpt lat="46.36439370922744274139404296875" lon="7.18570307828485965728759765625"><ele></ele><time>2016-7-29T3:6:26Z</time></trkpt>
<trkpt lat="46.36441801674664020538330078125" lon="7.18580416403710842132568359375"><ele></ele><time>2016-7-29T3:6:29Z</time></trkpt>
<trkpt lat="46.3644590042531490325927734375" lon="7.1858619153499603271484375"><ele></ele><time>2016-7-29T3:6:32Z</time></trkpt>
<trkpt lat="46.3644918613135814666748046875" lon="7.185952104628086090087890625"><ele></ele><time>2016-7-29T3:6:35Z</time></trkpt>
<trkpt lat="46.36451038531959056854248046875" lon="7.1860897354781627655029296875"><ele></ele><time>2016-7-29T3:6:38Z</time></trkpt>
<trkpt lat="46.36453268118202686309814453125" lon="7.186193503439426422119140625"><ele></ele><time>2016-7-29T3:6:41Z</time></trkpt>
<trkpt lat="46.36454709805548191070556640625" lon="7.18629308044910430908203125"><ele></ele><time>2016-7-29T3:6:44Z</time></trkpt>
<trkpt lat="46.36454768478870391845703125" lon="7.186400704085826873779296875"><ele></ele><time>2016-7-29T3:6:47Z</time></trkpt>
<trkpt lat="46.36454005725681781768798828125" lon="7.1865125186741352081298828125"><ele></ele><time>2016-7-29T3:6:50Z</time></trkpt>
<trkpt lat="46.3645240478217601776123046875" lon="7.18659172765910625457763671875"><ele></ele><time>2016-7-29T3:6:53Z</time></trkpt>
<trkpt lat="46.36446629650890827178955078125" lon="7.186670266091823577880859375"><ele></ele><time>2016-7-29T3:6:56Z</time></trkpt>
<trkpt lat="46.36439622379839420318603515625" lon="7.18671896494925022125244140625"><ele></ele><time>2016-7-29T3:6:59Z</time></trkpt>
<trkpt lat="46.364305280148983001708984375" lon="7.186764143407344818115234375"><ele></ele><time>2016-7-29T3:7:2Z</time></trkpt>
<trkpt lat="46.36421349830925464630126953125" lon="7.1868357248604297637939453125"><ele></ele><time>2016-7-29T3:7:5Z</time></trkpt>
<trkpt lat="46.364158429205417633056640625" lon="7.186941839754581451416015625"><ele></ele><time>2016-7-29T3:7:8Z</time></trkpt>
<trkpt lat="46.364145018160343170166015625" lon="7.1869577653706073760986328125"><ele></ele><time>2016-7-29T3:7:11Z</time></trkpt>
<trkpt lat="46.36411710642278194427490234375" lon="7.18697176314890384674072265625"><ele></ele><time>2016-7-29T3:7:14Z</time></trkpt>
<trkpt lat="46.3641153462231159210205078125" lon="7.1869705058634281158447265625"><ele></ele><time>2016-7-29T3:7:17Z</time></trkpt>
<trkpt lat="46.36414141394197940826416015625" lon="7.1870241500437259674072265625"><ele></ele><time>2016-7-29T3:7:20Z</time></trkpt>
<trkpt lat="46.3641176931560039520263671875" lon="7.18705122359097003936767578125"><ele></ele><time>2016-7-29T3:7:23Z</time></trkpt>
<trkpt lat="46.364099420607089996337890625" lon="7.18707762658596038818359375"><ele></ele><time>2016-7-29T3:7:26Z</time></trkpt>
<trkpt lat="46.36408961378037929534912109375" lon="7.18710671178996562957763671875"><ele></ele><time>2016-7-29T3:7:29Z</time></trkpt>
<trkpt lat="46.3640848360955715179443359375" lon="7.1871847473084926605224609375"><ele></ele><time>2016-7-29T3:7:32Z</time></trkpt>
<trkpt lat="46.36407419107854366302490234375" lon="7.18725733458995819091796875"><ele></ele><time>2016-7-29T3:7:35Z</time></trkpt>
<trkpt lat="46.36407955549657344818115234375" lon="7.1872957237064838409423828125"><ele></ele><time>2016-7-29T3:7:38Z</time></trkpt>
<trkpt lat="46.36412615887820720672607421875" lon="7.18739571981132030487060546875"><ele></ele><time>2016-7-29T3:7:41Z</time></trkpt>
<trkpt lat="46.36418499983847141265869140625" lon="7.18749060295522212982177734375"><ele></ele><time>2016-7-29T3:7:44Z</time></trkpt>
<trkpt lat="46.3642345368862152099609375" lon="7.187555730342864990234375"><ele></ele><time>2016-7-29T3:7:47Z</time></trkpt>
<trkpt lat="46.3642997480928897857666015625" lon="7.1876407228410243988037109375"><ele></ele><time>2016-7-29T3:7:50Z</time></trkpt>
<trkpt lat="46.364355571568012237548828125" lon="7.18771054409444332122802734375"><ele></ele><time>2016-7-29T3:7:53Z</time></trkpt>
<trkpt lat="46.36439806781709194183349609375" lon="7.18780190683901309967041015625"><ele></ele><time>2016-7-29T3:7:56Z</time></trkpt>
<trkpt lat="46.36443360708653926849365234375" lon="7.18792109750211238861083984375"><ele></ele><time>2016-7-29T3:7:59Z</time></trkpt>
<trkpt lat="46.3644583337008953094482421875" lon="7.188041545450687408447265625"><ele></ele><time>2016-7-29T3:8:2Z</time></trkpt>
<trkpt lat="46.36448507197201251983642578125" lon="7.1881262026727199554443359375"><ele></ele><time>2016-7-29T3:8:5Z</time></trkpt>
<trkpt lat="46.3645344413816928863525390625" lon="7.18824631534516811370849609375"><ele></ele><time>2016-7-29T3:8:8Z</time></trkpt>
<trkpt lat="46.36457509361207485198974609375" lon="7.1883417852222919464111328125"><ele></ele><time>2016-7-29T3:8:11Z</time></trkpt>
<trkpt lat="46.3646154105663299560546875" lon="7.18845804221928119659423828125"><ele></ele><time>2016-7-29T3:8:14Z</time></trkpt>
<trkpt lat="46.36464893817901611328125" lon="7.1885657496750354766845703125"><ele></ele><time>2016-7-29T3:8:17Z</time></trkpt>
<trkpt lat="46.3646715693175792694091796875" lon="7.18866289593279361724853515625"><ele></ele><time>2016-7-29T3:8:20Z</time></trkpt>
<trkpt lat="46.3646839745342731475830078125" lon="7.18874990008771419525146484375"><ele></ele><time>2016-7-29T3:8:23Z</time></trkpt>
<trkpt lat="46.3646990619599819183349609375" lon="7.188834138214588165283203125"><ele></ele><time>2016-7-29T3:8:26Z</time></trkpt>
<trkpt lat="46.3647144846618175506591796875" lon="7.1889348886907100677490234375"><ele></ele><time>2016-7-29T3:8:29Z</time></trkpt>
<trkpt lat="46.36472965590655803680419921875" lon="7.18905801884829998016357421875"><ele></ele><time>2016-7-29T3:8:32Z</time></trkpt>
<trkpt lat="46.36473300866782665252685546875" lon="7.18914703465998172760009765625"><ele></ele><time>2016-7-29T3:8:35Z</time></trkpt>
<trkpt lat="46.36474926955997943878173828125" lon="7.189257256686687469482421875"><ele></ele><time>2016-7-29T3:8:38Z</time></trkpt>
<trkpt lat="46.3647352717816829681396484375" lon="7.18933043070137500762939453125"><ele></ele><time>2016-7-29T3:8:41Z</time></trkpt>
<trkpt lat="46.36470995843410491943359375" lon="7.1893273293972015380859375"><ele></ele><time>2016-7-29T3:8:44Z</time></trkpt>
<trkpt lat="46.36470501311123371124267578125" lon="7.18931249342858791351318359375"><ele></ele><time>2016-7-29T3:8:47Z</time></trkpt>
<trkpt lat="46.364717669785022735595703125" lon="7.18930184841156005859375"><ele></ele><time>2016-7-29T3:8:50Z</time></trkpt>
<trkpt lat="46.36471037752926349639892578125" lon="7.18929941765964031219482421875"><ele></ele><time>2016-7-29T3:8:53Z</time></trkpt>
<trkpt lat="46.36470719240605831146240234375" lon="7.18932355754077434539794921875"><ele></ele><time>2016-7-29T3:8:56Z</time></trkpt>
<trkpt lat="46.364708282053470611572265625" lon="7.1893321909010410308837890625"><ele></ele><time>2016-7-29T3:8:59Z</time></trkpt>
<trkpt lat="46.36471129953861236572265625" lon="7.18939815647900104522705078125"><ele></ele><time>2016-7-29T3:9:2Z</time></trkpt>
<trkpt lat="46.36471658013761043548583984375" lon="7.1894024312496185302734375"><ele></ele><time>2016-7-29T3:9:5Z</time></trkpt>
<trkpt lat="46.364727728068828582763671875" lon="7.18947526998817920684814453125"><ele></ele><time>2016-7-29T3:9:8Z</time></trkpt>
<trkpt lat="46.36471138335764408111572265625" lon="7.1896077878773212432861328125"><ele></ele><time>2016-7-29T3:9:11Z</time></trkpt>
<trkpt lat="46.36469428427517414093017578125" lon="7.18979629687964916229248046875"><ele></ele><time>2016-7-29T3:9:14Z</time></trkpt>
<trkpt lat="46.36468221433460712432861328125" lon="7.1899487636983394622802734375"><ele></ele><time>2016-7-29T3:9:17Z</time></trkpt>
<trkpt lat="46.3646809570491313934326171875" lon="7.19012905843555927276611328125"><ele></ele><time>2016-7-29T3:9:20Z</time></trkpt>
<trkpt lat="46.36467819102108478546142578125" lon="7.19029988162219524383544921875"><ele></ele><time>2016-7-29T3:9:23Z</time></trkpt>
<trkpt lat="46.36467450298368930816650390625" lon="7.1904191561043262481689453125"><ele></ele><time>2016-7-29T3:9:26Z</time></trkpt>
<trkpt lat="46.36469260789453983306884765625" lon="7.19055519439280033111572265625"><ele></ele><time>2016-7-29T3:9:29Z</time></trkpt>
<trkpt lat="46.36471725068986415863037109375" lon="7.19067044556140899658203125"><ele></ele><time>2016-7-29T3:9:32Z</time></trkpt>
<trkpt lat="46.364739127457141876220703125" lon="7.19079022295773029327392578125"><ele></ele><time>2016-7-29T3:9:35Z</time></trkpt>
<trkpt lat="46.3647711463272571563720703125" lon="7.19091595150530338287353515625"><ele></ele><time>2016-7-29T3:9:38Z</time></trkpt>
<trkpt lat="46.364817582070827484130859375" lon="7.191034890711307525634765625"><ele></ele><time>2016-7-29T3:9:41Z</time></trkpt>
<trkpt lat="46.36484800837934017181396484375" lon="7.19109985046088695526123046875"><ele></ele><time>2016-7-29T3:9:44Z</time></trkpt>
<trkpt lat="46.3648603297770023345947265625" lon="7.19113714993000030517578125"><ele></ele><time>2016-7-29T3:9:47Z</time></trkpt>
<trkpt lat="46.3649096153676509857177734375" lon="7.1912794746458530426025390625"><ele></ele><time>2016-7-29T3:9:50Z</time></trkpt>
<trkpt lat="46.3649206794798374176025390625" lon="7.1912908740341663360595703125"><ele></ele><time>2016-7-29T3:9:53Z</time></trkpt>
<trkpt lat="46.36494423262774944305419921875" lon="7.19135700725018978118896484375"><ele></ele><time>2016-7-29T3:9:56Z</time></trkpt>
<trkpt lat="46.36498295702040195465087890625" lon="7.191447280347347259521484375"><ele></ele><time>2016-7-29T3:9:59Z</time></trkpt>
<trkpt lat="46.36503308080136775970458984375" lon="7.1915242262184619903564453125"><ele></ele><time>2016-7-29T3:10:2Z</time></trkpt>
<trkpt lat="46.3651000522077083587646484375" lon="7.19158683903515338897705078125"><ele></ele><time>2016-7-29T3:10:5Z</time></trkpt>
<trkpt lat="46.365148164331912994384765625" lon="7.19163394533097743988037109375"><ele></ele><time>2016-7-29T3:10:8Z</time></trkpt>
<trkpt lat="46.36520021595060825347900390625" lon="7.19167954288423061370849609375"><ele></ele><time>2016-7-29T3:10:11Z</time></trkpt>
<trkpt lat="46.365262828767299652099609375" lon="7.1917320974171161651611328125"><ele></ele><time>2016-7-29T3:10:14Z</time></trkpt>
<trkpt lat="46.36531555093824863433837890625" lon="7.1917746774852275848388671875"><ele></ele><time>2016-7-29T3:10:17Z</time></trkpt>
<trkpt lat="46.36538847349584102630615234375" lon="7.1918088756501674652099609375"><ele></ele><time>2016-7-29T3:10:20Z</time></trkpt>
<trkpt lat="46.36545368470251560211181640625" lon="7.19183385372161865234375"><ele></ele><time>2016-7-29T3:10:23Z</time></trkpt>
<trkpt lat="46.36553415097296237945556640625" lon="7.19186595641076564788818359375"><ele></ele><time>2016-7-29T3:10:26Z</time></trkpt>
<trkpt lat="46.36562316678464412689208984375" lon="7.191830165684223175048828125"><ele></ele><time>2016-7-29T3:10:29Z</time></trkpt>
<trkpt lat="46.36569567024707794189453125" lon="7.1918742544949054718017578125"><ele></ele><time>2016-7-29T3:10:32Z</time></trkpt>
<trkpt lat="46.36578820645809173583984375" lon="7.19189487397670745849609375"><ele></ele><time>2016-7-29T3:10:35Z</time></trkpt>
<trkpt lat="46.365852244198322296142578125" lon="7.191846929490566253662109375"><ele></ele><time>2016-7-29T3:10:38Z</time></trkpt>
<trkpt lat="46.36593882925808429718017578125" lon="7.1917740069329738616943359375"><ele></ele><time>2016-7-29T3:10:41Z</time></trkpt>
<trkpt lat="46.36601619422435760498046875" lon="7.19174542464315891265869140625"><ele></ele><time>2016-7-29T3:10:44Z</time></trkpt>
<trkpt lat="46.366041339933872222900390625" lon="7.1917391382157802581787109375"><ele></ele><time>2016-7-29T3:10:47Z</time></trkpt>
<trkpt lat="46.3660636357963085174560546875" lon="7.1917042694985866546630859375"><ele></ele><time>2016-7-29T3:10:50Z</time></trkpt>
<trkpt lat="46.366091631352901458740234375" lon="7.1916982345283031463623046875"><ele></ele><time>2016-7-29T3:10:53Z</time></trkpt>
<trkpt lat="46.366129852831363677978515625" lon="7.1916864998638629913330078125"><ele></ele><time>2016-7-29T3:10:56Z</time></trkpt>
<trkpt lat="46.3662222214043140411376953125" lon="7.1916952170431613922119140625"><ele></ele><time>2016-7-29T3:10:59Z</time></trkpt>
<trkpt lat="46.366326324641704559326171875" lon="7.19169261865317821502685546875"><ele></ele><time>2016-7-29T3:11:2Z</time></trkpt>
<trkpt lat="46.36640184558928012847900390625" lon="7.191678620874881744384765625"><ele></ele><time>2016-7-29T3:11:5Z</time></trkpt>
<trkpt lat="46.36648197658360004425048828125" lon="7.1916767768561840057373046875"><ele></ele><time>2016-7-29T3:11:8Z</time></trkpt>
<trkpt lat="46.36649857275187969207763671875" lon="7.1916781179606914520263671875"><ele></ele><time>2016-7-29T3:11:11Z</time></trkpt>
<trkpt lat="46.3665253110229969024658203125" lon="7.1916690655052661895751953125"><ele></ele><time>2016-7-29T3:11:14Z</time></trkpt>
<trkpt lat="46.36653411202132701873779296875" lon="7.19167292118072509765625"><ele></ele><time>2016-7-29T3:11:17Z</time></trkpt>
<trkpt lat="46.366562359035015106201171875" lon="7.19170846045017242431640625"><ele></ele><time>2016-7-29T3:11:20Z</time></trkpt>
<trkpt lat="46.3665653765201568603515625" lon="7.19173352234065532684326171875"><ele></ele><time>2016-7-29T3:11:23Z</time></trkpt>
<trkpt lat="46.3665668852627277374267578125" lon="7.19173419289290904998779296875"><ele></ele><time>2016-7-29T3:11:26Z</time></trkpt>
<trkpt lat="46.3665611855685710906982421875" lon="7.19173486344516277313232421875"><ele></ele><time>2016-7-29T3:11:29Z</time></trkpt>
<trkpt lat="46.36656797491014003753662109375" lon="7.19174324534833431243896484375"><ele></ele><time>2016-7-29T3:11:32Z</time></trkpt>
<trkpt lat="46.36658012866973876953125" lon="7.191750705242156982421875"><ele></ele><time>2016-7-29T3:11:35Z</time></trkpt>
<trkpt lat="46.3666329346597194671630859375" lon="7.19182773493230342864990234375"><ele></ele><time>2016-7-29T3:11:38Z</time></trkpt>
<trkpt lat="46.36678020469844341278076171875" lon="7.19190652482211589813232421875"><ele></ele><time>2016-7-29T3:11:41Z</time></trkpt>
<trkpt lat="46.36692546308040618896484375" lon="7.19193133525550365447998046875"><ele></ele><time>2016-7-29T3:11:44Z</time></trkpt>
<trkpt lat="46.36703073978424072265625" lon="7.191943489015102386474609375"><ele></ele><time>2016-7-29T3:11:47Z</time></trkpt>
<trkpt lat="46.367165185511112213134765625" lon="7.191964276134967803955078125"><ele></ele><time>2016-7-29T3:11:50Z</time></trkpt>
<trkpt lat="46.36729049496352672576904296875" lon="7.19206561334431171417236328125"><ele></ele><time>2016-7-29T3:11:53Z</time></trkpt>
<trkpt lat="46.3673400320112705230712890625" lon="7.192243225872516632080078125"><ele></ele><time>2016-7-29T3:11:56Z</time></trkpt>
<trkpt lat="46.36742829345166683197021484375" lon="7.19239376485347747802734375"><ele></ele><time>2016-7-29T3:11:59Z</time></trkpt>
<trkpt lat="46.3675765693187713623046875" lon="7.19249074347317218780517578125"><ele></ele><time>2016-7-29T3:12:2Z</time></trkpt>
<trkpt lat="46.36778033338487148284912109375" lon="7.1926205791532993316650390625"><ele></ele><time>2016-7-29T3:12:5Z</time></trkpt>
<trkpt lat="46.36797487735748291015625" lon="7.19271169044077396392822265625"><ele></ele><time>2016-7-29T3:12:8Z</time></trkpt>
<trkpt lat="46.36813857592642307281494140625" lon="7.1927208267152309417724609375"><ele></ele><time>2016-7-29T3:12:11Z</time></trkpt>
<trkpt lat="46.36835315264761447906494140625" lon="7.19267665408551692962646484375"><ele></ele><time>2016-7-29T3:12:14Z</time></trkpt>
<trkpt lat="46.36843420565128326416015625" lon="7.19255126081407070159912109375"><ele></ele><time>2016-7-29T3:12:17Z</time></trkpt>
<trkpt lat="46.36847502551972866058349609375" lon="7.192353196442127227783203125"><ele></ele><time>2016-7-29T3:12:20Z</time></trkpt>
<trkpt lat="46.368550546467304229736328125" lon="7.19209176488220691680908203125"><ele></ele><time>2016-7-29T3:12:23Z</time></trkpt>
<trkpt lat="46.36868809349834918975830078125" lon="7.191977016627788543701171875"><ele></ele><time>2016-7-29T3:12:26Z</time></trkpt>
<trkpt lat="46.36891591362655162811279296875" lon="7.19180233776569366455078125"><ele></ele><time>2016-7-29T3:12:29Z</time></trkpt>
<trkpt lat="46.3689567334949970245361328125" lon="7.19176654703915119171142578125"><ele></ele><time>2016-7-29T3:12:32Z</time></trkpt>
<trkpt lat="46.3689812086522579193115234375" lon="7.1917481906712055206298828125"><ele></ele><time>2016-7-29T3:12:35Z</time></trkpt>
<trkpt lat="46.36895053088665008544921875" lon="7.1917304210364818572998046875"><ele></ele><time>2016-7-29T3:12:38Z</time></trkpt>
<trkpt lat="46.36892546899616718292236328125" lon="7.1917186863720417022705078125"><ele></ele><time>2016-7-29T3:12:41Z</time></trkpt>
<trkpt lat="46.368910633027553558349609375" lon="7.19170334748923778533935546875"><ele></ele><time>2016-7-29T3:12:44Z</time></trkpt>
<trkpt lat="46.3689007423818111419677734375" lon="7.19165456481277942657470703125"><ele></ele><time>2016-7-29T3:12:47Z</time></trkpt>
<trkpt lat="46.36889328248798847198486328125" lon="7.19161433167755603790283203125"><ele></ele><time>2016-7-29T3:12:50Z</time></trkpt>
<trkpt lat="46.3688973896205425262451171875" lon="7.19159572385251522064208984375"><ele></ele><time>2016-7-29T3:12:53Z</time></trkpt>
<trkpt lat="46.36887551285326480865478515625" lon="7.19162271358072757720947265625"><ele></ele><time>2016-7-29T3:12:56Z</time></trkpt>
<trkpt lat="46.3688846491277217864990234375" lon="7.1917106397449970245361328125"><ele></ele><time>2016-7-29T3:12:59Z</time></trkpt>
<trkpt lat="46.3688732497394084930419921875" lon="7.191656492650508880615234375"><ele></ele><time>2016-7-29T3:13:2Z</time></trkpt>
<trkpt lat="46.3688779436051845550537109375" lon="7.19165339134633541107177734375"><ele></ele><time>2016-7-29T3:13:5Z</time></trkpt>
<trkpt lat="46.3688796199858188629150390625" lon="7.1916375495493412017822265625"><ele></ele><time>2016-7-29T3:13:8Z</time></trkpt>
<trkpt lat="46.36887249536812305450439453125" lon="7.19167367555201053619384765625"><ele></ele><time>2016-7-29T3:13:11Z</time></trkpt>
<trkpt lat="46.36887366883456707000732421875" lon="7.19169932417571544647216796875"><ele></ele><time>2016-7-29T3:13:14Z</time></trkpt>
<trkpt lat="46.3688809610903263092041015625" lon="7.191718854010105133056640625"><ele></ele><time>2016-7-29T3:13:17Z</time></trkpt>
<trkpt lat="46.36889328248798847198486328125" lon="7.19172597862780094146728515625"><ele></ele><time>2016-7-29T3:13:20Z</time></trkpt>
<trkpt lat="46.36891323141753673553466796875" lon="7.19170577824115753173828125"><ele></ele><time>2016-7-29T3:13:23Z</time></trkpt>
<trkpt lat="46.3689574040472507476806640625" lon="7.19174358062446117401123046875"><ele></ele><time>2016-7-29T3:13:26Z</time></trkpt>
<trkpt lat="46.36897441931068897247314453125" lon="7.191750705242156982421875"><ele></ele><time>2016-7-29T3:13:29Z</time></trkpt>
<trkpt lat="46.36900685727596282958984375" lon="7.19176151789724826812744140625"><ele></ele><time>2016-7-29T3:13:32Z</time></trkpt>
<trkpt lat="46.3690144009888172149658203125" lon="7.19175942242145538330078125"><ele></ele><time>2016-7-29T3:13:35Z</time></trkpt>
<trkpt lat="46.36907391250133514404296875" lon="7.1917324326932430267333984375"><ele></ele><time>2016-7-29T3:13:38Z</time></trkpt>
<trkpt lat="46.36908405460417270660400390625" lon="7.19171826727688312530517578125"><ele></ele><time>2016-7-29T3:13:41Z</time></trkpt>
<trkpt lat="46.36910744011402130126953125" lon="7.19160075299441814422607421875"><ele></ele><time>2016-7-29T3:13:44Z</time></trkpt>
<trkpt lat="46.3691377826035022735595703125" lon="7.1914742700755596160888671875"><ele></ele><time>2016-7-29T3:13:47Z</time></trkpt>
<trkpt lat="46.3691451586782932281494140625" lon="7.19146463088691234588623046875"><ele></ele><time>2016-7-29T3:13:50Z</time></trkpt>
<trkpt lat="46.36923107318580150604248046875" lon="7.19142146408557891845703125"><ele></ele><time>2016-7-29T3:13:53Z</time></trkpt>
<trkpt lat="46.369302570819854736328125" lon="7.19144283793866634368896484375"><ele></ele><time>2016-7-29T3:13:56Z</time></trkpt>
<trkpt lat="46.36932671070098876953125" lon="7.1914712525904178619384765625"><ele></ele><time>2016-7-29T3:13:59Z</time></trkpt>
<trkpt lat="46.36933006346225738525390625" lon="7.191470749676227569580078125"><ele></ele><time>2016-7-29T3:14:2Z</time></trkpt>
<trkpt lat="46.36934741400182247161865234375" lon="7.1914900280535221099853515625"><ele></ele><time>2016-7-29T3:14:5Z</time></trkpt>
<trkpt lat="46.369365938007831573486328125" lon="7.19150637276470661163330078125"><ele></ele><time>2016-7-29T3:14:8Z</time></trkpt>
<trkpt lat="46.3693976216018199920654296875" lon="7.19154694117605686187744140625"><ele></ele><time>2016-7-29T3:14:11Z</time></trkpt>
<trkpt lat="46.3694529421627521514892578125" lon="7.19160108827054500579833984375"><ele></ele><time>2016-7-29T3:14:14Z</time></trkpt>
<trkpt lat="46.36954438872635364532470703125" lon="7.19170049764215946197509765625"><ele></ele><time>2016-7-29T3:14:17Z</time></trkpt>
<trkpt lat="46.36965595185756683349609375" lon="7.191773839294910430908203125"><ele></ele><time>2016-7-29T3:14:20Z</time></trkpt>
<trkpt lat="46.3697620667517185211181640625" lon="7.19179219566285610198974609375"><ele></ele><time>2016-7-29T3:14:23Z</time></trkpt>
<trkpt lat="46.36985183693468570709228515625" lon="7.1917186863720417022705078125"><ele></ele><time>2016-7-29T3:14:26Z</time></trkpt>
<trkpt lat="46.369917131960391998291015625" lon="7.1916033513844013214111328125"><ele></ele><time>2016-7-29T3:14:29Z</time></trkpt>
<trkpt lat="46.36997890658676624298095703125" lon="7.19144099391996860504150390625"><ele></ele><time>2016-7-29T3:14:32Z</time></trkpt>
<trkpt lat="46.3700239174067974090576171875" lon="7.19126455485820770263671875"><ele></ele><time>2016-7-29T3:14:35Z</time></trkpt>
<trkpt lat="46.37005585245788097381591796875" lon="7.1910944022238254547119140625"><ele></ele><time>2016-7-29T3:14:38Z</time></trkpt>
<trkpt lat="46.370064653456211090087890625" lon="7.1910427697002887725830078125"><ele></ele><time>2016-7-29T3:14:41Z</time></trkpt>
<trkpt lat="46.3700691796839237213134765625" lon="7.19097043387591838836669921875"><ele></ele><time>2016-7-29T3:14:44Z</time></trkpt>
<trkpt lat="46.37007974088191986083984375" lon="7.1908345632255077362060546875"><ele></ele><time>2016-7-29T3:14:47Z</time></trkpt>
<trkpt lat="46.37011787854135036468505859375" lon="7.19073481857776641845703125"><ele></ele><time>2016-7-29T3:14:50Z</time></trkpt>
<trkpt lat="46.370161212980747222900390625" lon="7.19060213305056095123291015625"><ele></ele><time>2016-7-29T3:14:53Z</time></trkpt>
<trkpt lat="46.37022248469293117523193359375" lon="7.19050875864923000335693359375"><ele></ele><time>2016-7-29T3:14:56Z</time></trkpt>
<trkpt lat="46.3702928088605403900146484375" lon="7.1904184855520725250244140625"><ele></ele><time>2016-7-29T3:14:59Z</time></trkpt>
<trkpt lat="46.37034988962113857269287109375" lon="7.19033340923488140106201171875"><ele></ele><time>2016-7-29T3:15:2Z</time></trkpt>
<trkpt lat="46.3704242371022701263427734375" lon="7.19023819081485271453857421875"><ele></ele><time>2016-7-29T3:15:5Z</time></trkpt>
<trkpt lat="46.37050445191562175750732421875" lon="7.19017348252236843109130859375"><ele></ele><time>2016-7-29T3:15:8Z</time></trkpt>
<trkpt lat="46.3706136681139469146728515625" lon="7.1901512704789638519287109375"><ele></ele><time>2016-7-29T3:15:11Z</time></trkpt>
<trkpt lat="46.37070595286786556243896484375" lon="7.19011464156210422515869140625"><ele></ele><time>2016-7-29T3:15:14Z</time></trkpt>
<trkpt lat="46.370793879032135009765625" lon="7.19007926993072032928466796875"><ele></ele><time>2016-7-29T3:15:17Z</time></trkpt>
<trkpt lat="46.3708352856338024139404296875" lon="7.1900944411754608154296875"><ele></ele><time>2016-7-29T3:15:20Z</time></trkpt>
<trkpt lat="46.37091818265616893768310546875" lon="7.19012939371168613433837890625"><ele></ele><time>2016-7-29T3:15:23Z</time></trkpt>
<trkpt lat="46.37095489539206027984619140625" lon="7.19017784111201763153076171875"><ele></ele><time>2016-7-29T3:15:26Z</time></trkpt>
<trkpt lat="46.37101658619940280914306640625" lon="7.19028286635875701904296875"><ele></ele><time>2016-7-29T3:15:29Z</time></trkpt>
<trkpt lat="46.37105740606784820556640625" lon="7.190367020666599273681640625"><ele></ele><time>2016-7-29T3:15:32Z</time></trkpt>
<trkpt lat="46.37110057286918163299560546875" lon="7.19045662321150302886962890625"><ele></ele><time>2016-7-29T3:15:35Z</time></trkpt>
<trkpt lat="46.371112056076526641845703125" lon="7.190485708415508270263671875"><ele></ele><time>2016-7-29T3:15:38Z</time></trkpt>
<trkpt lat="46.3711584918200969696044921875" lon="7.19057857990264892578125"><ele></ele><time>2016-7-29T3:15:41Z</time></trkpt>
<trkpt lat="46.37122571468353271484375" lon="7.1907167136669158935546875"><ele></ele><time>2016-7-29T3:15:44Z</time></trkpt>
<trkpt lat="46.37127541936933994293212890625" lon="7.1908278577029705047607421875"><ele></ele><time>2016-7-29T3:15:47Z</time></trkpt>
<trkpt lat="46.3713321648538112640380859375" lon="7.19092123210430145263671875"><ele></ele><time>2016-7-29T3:15:50Z</time></trkpt>
<trkpt lat="46.37138664722442626953125" lon="7.19101485796272754669189453125"><ele></ele><time>2016-7-29T3:15:53Z</time></trkpt>
<trkpt lat="46.371426880359649658203125" lon="7.19109498895704746246337890625"><ele></ele><time>2016-7-29T3:15:56Z</time></trkpt>
<trkpt lat="46.37146971188485622406005859375" lon="7.19117964617908000946044921875"><ele></ele><time>2016-7-29T3:15:59Z</time></trkpt>
<trkpt lat="46.371483542025089263916015625" lon="7.19119993038475513458251953125"><ele></ele><time>2016-7-29T3:16:2Z</time></trkpt>
<trkpt lat="46.371500305831432342529296875" lon="7.191241420805454254150390625"><ele></ele><time>2016-7-29T3:16:5Z</time></trkpt>
<trkpt lat="46.37154045514762401580810546875" lon="7.1913247369229793548583984375"><ele></ele><time>2016-7-29T3:16:8Z</time></trkpt>
<trkpt lat="46.37160600163042545318603515625" lon="7.1914283372461795806884765625"><ele></ele><time>2016-7-29T3:16:11Z</time></trkpt>
<trkpt lat="46.37166333384811878204345703125" lon="7.1915108151733875274658203125"><ele></ele><time>2016-7-29T3:16:14Z</time></trkpt>
<trkpt lat="46.3717210851609706878662109375" lon="7.191592119634151458740234375"><ele></ele><time>2016-7-29T3:16:17Z</time></trkpt>
<trkpt lat="46.37179342098534107208251953125" lon="7.19169446267187595367431640625"><ele></ele><time>2016-7-29T3:16:20Z</time></trkpt>
<trkpt lat="46.3718468137085437774658203125" lon="7.19178196974098682403564453125"><ele></ele><time>2016-7-29T3:16:23Z</time></trkpt>
<trkpt lat="46.3719038106501102447509765625" lon="7.19188221730291843414306640625"><ele></ele><time>2016-7-29T3:16:26Z</time></trkpt>
<trkpt lat="46.37194580398499965667724609375" lon="7.191986404359340667724609375"><ele></ele><time>2016-7-29T3:16:29Z</time></trkpt>
<trkpt lat="46.37197312898933887481689453125" lon="7.19208824448287487030029296875"><ele></ele><time>2016-7-29T3:16:32Z</time></trkpt>
<trkpt lat="46.37200280092656612396240234375" lon="7.19219570048153400421142578125"><ele></ele><time>2016-7-29T3:16:35Z</time></trkpt>
<trkpt lat="46.37203247286379337310791015625" lon="7.19228974543511867523193359375"><ele></ele><time>2016-7-29T3:16:38Z</time></trkpt>
<trkpt lat="46.37206600047647953033447265625" lon="7.19238010235130786895751953125"><ele></ele><time>2016-7-29T3:16:41Z</time></trkpt>
<trkpt lat="46.3720826804637908935546875" lon="7.1924918331205844879150390625"><ele></ele><time>2016-7-29T3:16:44Z</time></trkpt>
<trkpt lat="46.37209785170853137969970703125" lon="7.1925835311412811279296875"><ele></ele><time>2016-7-29T3:16:47Z</time></trkpt>
<trkpt lat="46.37209516949951648712158203125" lon="7.1926406957209110260009765625"><ele></ele><time>2016-7-29T3:16:50Z</time></trkpt>
<trkpt lat="46.37210740707814693450927734375" lon="7.19266944564878940582275390625"><ele></ele><time>2016-7-29T3:16:53Z</time></trkpt>
<trkpt lat="46.37214026413857936859130859375" lon="7.19278863631188869476318359375"><ele></ele><time>2016-7-29T3:16:56Z</time></trkpt>
<trkpt lat="46.37217454612255096435546875" lon="7.19290464185178279876708984375"><ele></ele><time>2016-7-29T3:16:59Z</time></trkpt>
<trkpt lat="46.37218267656862735748291015625" lon="7.1929927356541156768798828125"><ele></ele><time>2016-7-29T3:17:2Z</time></trkpt>
<trkpt lat="46.3721971772611141204833984375" lon="7.19309055246412754058837890625"><ele></ele><time>2016-7-29T3:17:5Z</time></trkpt>
<trkpt lat="46.37221033684909343719482421875" lon="7.193201445043087005615234375"><ele></ele><time>2016-7-29T3:17:8Z</time></trkpt>
<trkpt lat="46.3722221553325653076171875" lon="7.19328165985643863677978515625"><ele></ele><time>2016-7-29T3:17:11Z</time></trkpt>
<trkpt lat="46.37222726829349994659423828125" lon="7.19339129514992237091064453125"><ele></ele><time>2016-7-29T3:17:14Z</time></trkpt>
<trkpt lat="46.37223078869283199310302734375" lon="7.19348047859966754913330078125"><ele></ele><time>2016-7-29T3:17:17Z</time></trkpt>
<trkpt lat="46.37221687473356723785400390625" lon="7.19358072616159915924072265625"><ele></ele><time>2016-7-29T3:17:20Z</time></trkpt>
<trkpt lat="46.37220664881169795989990234375" lon="7.1936725080013275146484375"><ele></ele><time>2016-7-29T3:17:23Z</time></trkpt>
<trkpt lat="46.372185610234737396240234375" lon="7.1937816403806209564208984375"><ele></ele><time>2016-7-29T3:17:26Z</time></trkpt>
<trkpt lat="46.37216641567647457122802734375" lon="7.1938678063452243804931640625"><ele></ele><time>2016-7-29T3:17:29Z</time></trkpt>
<trkpt lat="46.37214160524308681488037109375" lon="7.1939643658697605133056640625"><ele></ele><time>2016-7-29T3:17:32Z</time></trkpt>
<trkpt lat="46.3721089996397495269775390625" lon="7.19406117685139179229736328125"><ele></ele><time>2016-7-29T3:17:35Z</time></trkpt>
<trkpt lat="46.3720855303108692169189453125" lon="7.19412957318127155303955078125"><ele></ele><time>2016-7-29T3:17:38Z</time></trkpt>
<trkpt lat="46.372046805918216705322265625" lon="7.19420886598527431488037109375"><ele></ele><time>2016-7-29T3:17:41Z</time></trkpt>
<trkpt lat="46.37201101519167423248291015625" lon="7.1942986361682415008544921875"><ele></ele><time>2016-7-29T3:17:44Z</time></trkpt>
<trkpt lat="46.371993832290172576904296875" lon="7.1943801082670688629150390625"><ele></ele><time>2016-7-29T3:17:47Z</time></trkpt>
<trkpt lat="46.3719705305993556976318359375" lon="7.1945051662623882293701171875"><ele></ele><time>2016-7-29T3:17:50Z</time></trkpt>
<trkpt lat="46.3719504140317440032958984375" lon="7.194602899253368377685546875"><ele></ele><time>2016-7-29T3:17:53Z</time></trkpt>
<trkpt lat="46.37192971073091030120849609375" lon="7.1947024762630462646484375"><ele></ele><time>2016-7-29T3:17:56Z</time></trkpt>
<trkpt lat="46.371905319392681121826171875" lon="7.1948126144707202911376953125"><ele></ele><time>2016-7-29T3:17:59Z</time></trkpt>
<trkpt lat="46.37187941931188106536865234375" lon="7.19491110183298587799072265625"><ele></ele><time>2016-7-29T3:18:2Z</time></trkpt>
<trkpt lat="46.3718573749065399169921875" lon="7.19498838298022747039794921875"><ele></ele><time>2016-7-29T3:18:5Z</time></trkpt>
<trkpt lat="46.3718198239803314208984375" lon="7.1950332261621952056884765625"><ele></ele><time>2016-7-29T3:18:8Z</time></trkpt>
<trkpt lat="46.3717747293412685394287109375" lon="7.195112518966197967529296875"><ele></ele><time>2016-7-29T3:18:11Z</time></trkpt>
<trkpt lat="46.37173826806247234344482421875" lon="7.195192314684391021728515625"><ele></ele><time>2016-7-29T3:18:14Z</time></trkpt>
<trkpt lat="46.3717046566307544708251953125" lon="7.195264399051666259765625"><ele></ele><time>2016-7-29T3:18:17Z</time></trkpt>
<trkpt lat="46.37167565524578094482421875" lon="7.19532868824899196624755859375"><ele></ele><time>2016-7-29T3:18:20Z</time></trkpt>
<trkpt lat="46.371646821498870849609375" lon="7.195401526987552642822265625"><ele></ele><time>2016-7-29T3:18:23Z</time></trkpt>
<trkpt lat="46.37161941267549991607666015625" lon="7.19548165798187255859375"><ele></ele><time>2016-7-29T3:18:26Z</time></trkpt>
<trkpt lat="46.3716013915836811065673828125" lon="7.19556589610874652862548828125"><ele></ele><time>2016-7-29T3:18:29Z</time></trkpt>
<trkpt lat="46.37159041129052639007568359375" lon="7.19564854167401790618896484375"><ele></ele><time>2016-7-29T3:18:32Z</time></trkpt>
<trkpt lat="46.37159409932792186737060546875" lon="7.195740826427936553955078125"><ele></ele><time>2016-7-29T3:18:35Z</time></trkpt>
<trkpt lat="46.37162410654127597808837890625" lon="7.1957775391638278961181640625"><ele></ele><time>2016-7-29T3:18:38Z</time></trkpt>
<trkpt lat="46.37166115455329418182373046875" lon="7.19580478034913539886474609375"><ele></ele><time>2016-7-29T3:18:41Z</time></trkpt>
<trkpt lat="46.3717157207429409027099609375" lon="7.19578466378152370452880859375"><ele></ele><time>2016-7-29T3:18:44Z</time></trkpt>
<trkpt lat="46.37177363969385623931884765625" lon="7.195768989622592926025390625"><ele></ele><time>2016-7-29T3:18:47Z</time></trkpt>
<trkpt lat="46.37183415703475475311279296875" lon="7.19575247727334499359130859375"><ele></ele><time>2016-7-29T3:18:50Z</time></trkpt>
<trkpt lat="46.37188847176730632781982421875" lon="7.19574518501758575439453125"><ele></ele><time>2016-7-29T3:18:53Z</time></trkpt>
<trkpt lat="46.37193691916763782501220703125" lon="7.195738814771175384521484375"><ele></ele><time>2016-7-29T3:18:56Z</time></trkpt>
<trkpt lat="46.37200179509818553924560546875" lon="7.19572783447802066802978515625"><ele></ele><time>2016-7-29T3:18:59Z</time></trkpt>
<trkpt lat="46.3720587082207202911376953125" lon="7.19571593217551708221435546875"><ele></ele><time>2016-7-29T3:19:2Z</time></trkpt>
<trkpt lat="46.37211545370519161224365234375" lon="7.195686511695384979248046875"><ele></ele><time>2016-7-29T3:19:5Z</time></trkpt>
<trkpt lat="46.37217856943607330322265625" lon="7.19567134045064449310302734375"><ele></ele><time>2016-7-29T3:19:8Z</time></trkpt>
<trkpt lat="46.37223280034959316253662109375" lon="7.19565306790173053741455078125"><ele></ele><time>2016-7-29T3:19:11Z</time></trkpt>
<trkpt lat="46.37228049337863922119140625" lon="7.19560747034847736358642578125"><ele></ele><time>2016-7-29T3:19:14Z</time></trkpt>
<trkpt lat="46.37233204208314418792724609375" lon="7.1955629624426364898681640625"><ele></ele><time>2016-7-29T3:19:17Z</time></trkpt>
<trkpt lat="46.37236238457262516021728515625" lon="7.19549800269305706024169921875"><ele></ele><time>2016-7-29T3:19:20Z</time></trkpt>
<trkpt lat="46.372399516403675079345703125" lon="7.195446453988552093505859375"><ele></ele><time>2016-7-29T3:19:23Z</time></trkpt>
<trkpt lat="46.3724362291395664215087890625" lon="7.1954052150249481201171875"><ele></ele><time>2016-7-29T3:19:26Z</time></trkpt>
<trkpt lat="46.37248157523572444915771484375" lon="7.1953218989074230194091796875"><ele></ele><time>2016-7-29T3:19:29Z</time></trkpt>
<trkpt lat="46.37250051833689212799072265625" lon="7.19525895081460475921630859375"><ele></ele><time>2016-7-29T3:19:32Z</time></trkpt>
<trkpt lat="46.3725274242460727691650390625" lon="7.1952169574797153472900390625"><ele></ele><time>2016-7-29T3:19:35Z</time></trkpt>
<trkpt lat="46.3725743629038333892822265625" lon="7.19515250064432621002197265625"><ele></ele><time>2016-7-29T3:19:38Z</time></trkpt>
<trkpt lat="46.372607387602329254150390625" lon="7.195097096264362335205078125"><ele></ele><time>2016-7-29T3:19:41Z</time></trkpt>
<trkpt lat="46.37264661490917205810546875" lon="7.19505057670176029205322265625"><ele></ele><time>2016-7-29T3:19:44Z</time></trkpt>
<trkpt lat="46.37270101346075534820556640625" lon="7.194991149008274078369140625"><ele></ele><time>2016-7-29T3:19:47Z</time></trkpt>
<trkpt lat="46.3727316074073314666748046875" lon="7.194950580596923828125"><ele></ele><time>2016-7-29T3:19:50Z</time></trkpt>
<trkpt lat="46.37276991270482540130615234375" lon="7.19491629861295223236083984375"><ele></ele><time>2016-7-29T3:19:53Z</time></trkpt>
<trkpt lat="46.37281425297260284423828125" lon="7.1949041448533535003662109375"><ele></ele><time>2016-7-29T3:19:56Z</time></trkpt>
<trkpt lat="46.37286462821066379547119140625" lon="7.1948528476059436798095703125"><ele></ele><time>2016-7-29T3:19:59Z</time></trkpt>
<trkpt lat="46.372897066175937652587890625" lon="7.1947753988206386566162109375"><ele></ele><time>2016-7-29T3:20:2Z</time></trkpt>
<trkpt lat="46.372919194400310516357421875" lon="7.19472971744835376739501953125"><ele></ele><time>2016-7-29T3:20:5Z</time></trkpt>
<trkpt lat="46.372939310967922210693359375" lon="7.1946748159825801849365234375"><ele></ele><time>2016-7-29T3:20:8Z</time></trkpt>
<trkpt lat="46.372968815267086029052734375" lon="7.19460432417690753936767578125"><ele></ele><time>2016-7-29T3:20:11Z</time></trkpt>
<trkpt lat="46.37301516719162464141845703125" lon="7.1945283003151416778564453125"><ele></ele><time>2016-7-29T3:20:14Z</time></trkpt>
<trkpt lat="46.37307467870414257049560546875" lon="7.19447876326739788055419921875"><ele></ele><time>2016-7-29T3:20:17Z</time></trkpt>
<trkpt lat="46.3731314241886138916015625" lon="7.19452050514519214630126953125"><ele></ele><time>2016-7-29T3:20:20Z</time></trkpt>
<trkpt lat="46.37316637672483921051025390625" lon="7.19458705745637416839599609375"><ele></ele><time>2016-7-29T3:20:23Z</time></trkpt>
<trkpt lat="46.3732060231268405914306640625" lon="7.19467372633516788482666015625"><ele></ele><time>2016-7-29T3:20:26Z</time></trkpt>
<trkpt lat="46.37325136922299861907958984375" lon="7.19472728669643402099609375"><ele></ele><time>2016-7-29T3:20:29Z</time></trkpt>
<trkpt lat="46.3733193464577198028564453125" lon="7.194794006645679473876953125"><ele></ele><time>2016-7-29T3:20:32Z</time></trkpt>
<trkpt lat="46.373364441096782684326171875" lon="7.19486164860427379608154296875"><ele></ele><time>2016-7-29T3:20:35Z</time></trkpt>
<trkpt lat="46.37339293956756591796875" lon="7.194933481514453887939453125"><ele></ele><time>2016-7-29T3:20:38Z</time></trkpt>
<trkpt lat="46.3734157383441925048828125" lon="7.19500984065234661102294921875"><ele></ele><time>2016-7-29T3:20:41Z</time></trkpt>
<trkpt lat="46.3734316639602184295654296875" lon="7.1950962580740451812744140625"><ele></ele><time>2016-7-29T3:20:44Z</time></trkpt>
<trkpt lat="46.37345773167908191680908203125" lon="7.19516926445066928863525390625"><ele></ele><time>2016-7-29T3:20:47Z</time></trkpt>
<trkpt lat="46.37350031174719333648681640625" lon="7.19526113010942935943603515625"><ele></ele><time>2016-7-29T3:20:50Z</time></trkpt>
<trkpt lat="46.37353786267340183258056640625" lon="7.1953131817281246185302734375"><ele></ele><time>2016-7-29T3:20:53Z</time></trkpt>
<trkpt lat="46.3735686242580413818359375" lon="7.1953959949314594268798828125"><ele></ele><time>2016-7-29T3:20:56Z</time></trkpt>
<trkpt lat="46.37357910163700580596923828125" lon="7.1954429335892200469970703125"><ele></ele><time>2016-7-29T3:20:59Z</time></trkpt>
<trkpt lat="46.373587734997272491455078125" lon="7.19552348367869853973388671875"><ele></ele><time>2016-7-29T3:21:2Z</time></trkpt>
<trkpt lat="46.37362771667540073394775390625" lon="7.1956841647624969482421875"><ele></ele><time>2016-7-29T3:21:5Z</time></trkpt>
<trkpt lat="46.3736410439014434814453125" lon="7.1958462707698345184326171875"><ele></ele><time>2016-7-29T3:21:8Z</time></trkpt>
<trkpt lat="46.37366778217256069183349609375" lon="7.1959864161908626556396484375"><ele></ele><time>2016-7-29T3:21:11Z</time></trkpt>
<trkpt lat="46.3737216778099536895751953125" lon="7.19615288078784942626953125"><ele></ele><time>2016-7-29T3:21:14Z</time></trkpt>
<trkpt lat="46.37372863478958606719970703125" lon="7.19617760740220546722412109375"><ele></ele><time>2016-7-29T3:21:17Z</time></trkpt>
<trkpt lat="46.37372796423733234405517578125" lon="7.19618699513375759124755859375"><ele></ele><time>2016-7-29T3:21:20Z</time></trkpt>
<trkpt lat="46.37373433448374271392822265625" lon="7.19624315388500690460205078125"><ele></ele><time>2016-7-29T3:21:23Z</time></trkpt>
<trkpt lat="46.3737394474446773529052734375" lon="7.19631289131939411163330078125"><ele></ele><time>2016-7-29T3:21:26Z</time></trkpt>
<trkpt lat="46.373733580112457275390625" lon="7.19638866372406482696533203125"><ele></ele><time>2016-7-29T3:21:29Z</time></trkpt>
<trkpt lat="46.37373265810310840606689453125" lon="7.19646678306162357330322265625"><ele></ele><time>2016-7-29T3:21:32Z</time></trkpt>
<trkpt lat="46.3737428002059459686279296875" lon="7.1965483389794826507568359375"><ele></ele><time>2016-7-29T3:21:35Z</time></trkpt>
<trkpt lat="46.37377708218991756439208984375" lon="7.19664774835109710693359375"><ele></ele><time>2016-7-29T3:21:38Z</time></trkpt>
<trkpt lat="46.37380608357489109039306640625" lon="7.19673366285860538482666015625"><ele></ele><time>2016-7-29T3:21:41Z</time></trkpt>
<trkpt lat="46.3738262839615345001220703125" lon="7.196833826601505279541015625"><ele></ele><time>2016-7-29T3:21:44Z</time></trkpt>
<trkpt lat="46.373833827674388885498046875" lon="7.19692711718380451202392578125"><ele></ele><time>2016-7-29T3:21:47Z</time></trkpt>
<trkpt lat="46.3738381862640380859375" lon="7.19702887348830699920654296875"><ele></ele><time>2016-7-29T3:21:50Z</time></trkpt>
<trkpt lat="46.3738527707755565643310546875" lon="7.1971072442829608917236328125"><ele></ele><time>2016-7-29T3:21:53Z</time></trkpt>
<trkpt lat="46.37387598864734172821044921875" lon="7.19718846492469310760498046875"><ele></ele><time>2016-7-29T3:21:56Z</time></trkpt>
<trkpt lat="46.37392795644700527191162109375" lon="7.19727538526058197021484375"><ele></ele><time>2016-7-29T3:21:59Z</time></trkpt>
<trkpt lat="46.3739885576069355010986328125" lon="7.19736968167126178741455078125"><ele></ele><time>2016-7-29T3:22:2Z</time></trkpt>
<trkpt lat="46.37399752624332904815673828125" lon="7.1974663250148296356201171875"><ele></ele><time>2016-7-29T3:22:5Z</time></trkpt>
<trkpt lat="46.37397070415318012237548828125" lon="7.19753966666758060455322265625"><ele></ele><time>2016-7-29T3:22:8Z</time></trkpt>
<trkpt lat="46.37393298558890819549560546875" lon="7.19760638661682605743408203125"><ele></ele><time>2016-7-29T3:22:11Z</time></trkpt>
<trkpt lat="46.37389115989208221435546875" lon="7.1976812370121479034423828125"><ele></ele><time>2016-7-29T3:22:14Z</time></trkpt>
<trkpt lat="46.3738360069692134857177734375" lon="7.1977650560438632965087890625"><ele></ele><time>2016-7-29T3:22:17Z</time></trkpt>
<trkpt lat="46.37378613464534282684326171875" lon="7.19780771993100643157958984375"><ele></ele><time>2016-7-29T3:22:20Z</time></trkpt>
<trkpt lat="46.37374229729175567626953125" lon="7.1978777088224887847900390625"><ele></ele><time>2016-7-29T3:22:23Z</time></trkpt>
<trkpt lat="46.3737099431455135345458984375" lon="7.19794652424752712249755859375"><ele></ele><time>2016-7-29T3:22:26Z</time></trkpt>
<trkpt lat="46.37369401752948760986328125" lon="7.197989523410797119140625"><ele></ele><time>2016-7-29T3:22:29Z</time></trkpt>
<trkpt lat="46.37366057373583316802978515625" lon="7.19805967994034290313720703125"><ele></ele><time>2016-7-29T3:22:32Z</time></trkpt>
<trkpt lat="46.373663842678070068359375" lon="7.19808809459209442138671875"><ele></ele><time>2016-7-29T3:22:35Z</time></trkpt>
<trkpt lat="46.3736693747341632843017578125" lon="7.1981117315590381622314453125"><ele></ele><time>2016-7-29T3:22:38Z</time></trkpt>
<trkpt lat="46.37371991761028766632080078125" lon="7.198150791227817535400390625"><ele></ele><time>2016-7-29T3:22:41Z</time></trkpt>
<trkpt lat="46.3737481646239757537841796875" lon="7.19816814176738262176513671875"><ele></ele><time>2016-7-29T3:22:44Z</time></trkpt>
<trkpt lat="46.3737900741398334503173828125" lon="7.19817803241312503814697265625"><ele></ele><time>2016-7-29T3:22:47Z</time></trkpt>
<trkpt lat="46.37381278909742832183837890625" lon="7.19818775542080402374267578125"><ele></ele><time>2016-7-29T3:22:50Z</time></trkpt>
<trkpt lat="46.37384212575852870941162109375" lon="7.19817719422280788421630859375"><ele></ele><time>2016-7-29T3:22:53Z</time></trkpt>
<trkpt lat="46.37386425398290157318115234375" lon="7.1981757692992687225341796875"><ele></ele><time>2016-7-29T3:22:56Z</time></trkpt>
<trkpt lat="46.373880095779895782470703125" lon="7.19817283563315868377685546875"><ele></ele><time>2016-7-29T3:22:59Z</time></trkpt>
<trkpt lat="46.37389778159558773040771484375" lon="7.19816830940544605255126953125"><ele></ele><time>2016-7-29T3:23:2Z</time></trkpt>
<trkpt lat="46.37394505552947521209716796875" lon="7.198155820369720458984375"><ele></ele><time>2016-7-29T3:23:5Z</time></trkpt>
<trkpt lat="46.37400222010910511016845703125" lon="7.198142744600772857666015625"><ele></ele><time>2016-7-29T3:23:8Z</time></trkpt>
<trkpt lat="46.374082602560520172119140625" lon="7.19814534299075603485107421875"><ele></ele><time>2016-7-29T3:23:11Z</time></trkpt>
<trkpt lat="46.37408905662596225738525390625" lon="7.198146097362041473388671875"><ele></ele><time>2016-7-29T3:23:14Z</time></trkpt>
<trkpt lat="46.37414270080626010894775390625" lon="7.19816478900611400604248046875"><ele></ele><time>2016-7-29T3:23:17Z</time></trkpt>
<trkpt lat="46.37420372106134891510009765625" lon="7.198225893080234527587890625"><ele></ele><time>2016-7-29T3:23:20Z</time></trkpt>
<trkpt lat="46.37421512044966220855712890625" lon="7.19830694608390331268310546875"><ele></ele><time>2016-7-29T3:23:23Z</time></trkpt>
<trkpt lat="46.37420841492712497711181640625" lon="7.19843016006052494049072265625"><ele></ele><time>2016-7-29T3:23:26Z</time></trkpt>
<trkpt lat="46.374207995831966400146484375" lon="7.19846804626286029815673828125"><ele></ele><time>2016-7-29T3:23:29Z</time></trkpt>
<trkpt lat="46.3742069900035858154296875" lon="7.19851884059607982635498046875"><ele></ele><time>2016-7-29T3:23:32Z</time></trkpt>
<trkpt lat="46.3742064870893955230712890625" lon="7.19852864742279052734375"><ele></ele><time>2016-7-29T3:23:35Z</time></trkpt>
<trkpt lat="46.37420539744198322296142578125" lon="7.19861925579607486724853515625"><ele></ele><time>2016-7-29T3:23:38Z</time></trkpt>
<trkpt lat="46.3742177188396453857421875" lon="7.19864825718104839324951171875"><ele></ele><time>2016-7-29T3:23:41Z</time></trkpt>
<trkpt lat="46.37422216124832630157470703125" lon="7.19866342842578887939453125"><ele></ele><time>2016-7-29T3:23:44Z</time></trkpt>
<trkpt lat="46.3742534257471561431884765625" lon="7.19870123080909252166748046875"><ele></ele><time>2016-7-29T3:23:47Z</time></trkpt>
<trkpt lat="46.37429441325366497039794921875" lon="7.1986977942287921905517578125"><ele></ele><time>2016-7-29T3:23:50Z</time></trkpt>
<trkpt lat="46.37432358227670192718505859375" lon="7.19866435043513774871826171875"><ele></ele><time>2016-7-29T3:23:53Z</time></trkpt>
<trkpt lat="46.37434956617653369903564453125" lon="7.1986345946788787841796875"><ele></ele><time>2016-7-29T3:23:56Z</time></trkpt>
<trkpt lat="46.37439466081559658050537109375" lon="7.19859142787754535675048828125"><ele></ele><time>2016-7-29T3:23:59Z</time></trkpt>
<trkpt lat="46.37444679625332355499267578125" lon="7.19857768155634403228759765625"><ele></ele><time>2016-7-29T3:24:2Z</time></trkpt>
<trkpt lat="46.3745270110666751861572265625" lon="7.1985568106174468994140625"><ele></ele><time>2016-7-29T3:24:5Z</time></trkpt>
<trkpt lat="46.3745833374559879302978515625" lon="7.1985130570828914642333984375"><ele></ele><time>2016-7-29T3:24:8Z</time></trkpt>
<trkpt lat="46.3746168650686740875244140625" lon="7.19842244870960712432861328125"><ele></ele><time>2016-7-29T3:24:11Z</time></trkpt>
<trkpt lat="46.37465399689972400665283203125" lon="7.19833276234567165374755859375"><ele></ele><time>2016-7-29T3:24:14Z</time></trkpt>
<trkpt lat="46.37467059306800365447998046875" lon="7.19829303212463855743408203125"><ele></ele><time>2016-7-29T3:24:17Z</time></trkpt>
<trkpt lat="46.37468433938920497894287109375" lon="7.19824240542948246002197265625"><ele></ele><time>2016-7-29T3:24:20Z</time></trkpt>
<trkpt lat="46.37471736408770084381103515625" lon="7.19819144345819950103759765625"><ele></ele><time>2016-7-29T3:24:23Z</time></trkpt>
<trkpt lat="46.3747513107955455780029296875" lon="7.19815456308424472808837890625"><ele></ele><time>2016-7-29T3:24:26Z</time></trkpt>
<trkpt lat="46.374788023531436920166015625" lon="7.198097147047519683837890625"><ele></ele><time>2016-7-29T3:24:29Z</time></trkpt>
<trkpt lat="46.37481115758419036865234375" lon="7.1980423294007778167724609375"><ele></ele><time>2016-7-29T3:24:32Z</time></trkpt>
<trkpt lat="46.37484191916882991790771484375" lon="7.19795960001647472381591796875"><ele></ele><time>2016-7-29T3:24:35Z</time></trkpt>
<trkpt lat="46.374844014644622802734375" lon="7.1979511342942714691162109375"><ele></ele><time>2016-7-29T3:24:38Z</time></trkpt>
<trkpt lat="46.3748549111187458038330078125" lon="7.19791031442582607269287109375"><ele></ele><time>2016-7-29T3:24:41Z</time></trkpt>
<trkpt lat="46.3748589344322681427001953125" lon="7.1978944726288318634033203125"><ele></ele><time>2016-7-29T3:24:44Z</time></trkpt>
<trkpt lat="46.37489573098719120025634765625" lon="7.19780855812132358551025390625"><ele></ele><time>2016-7-29T3:24:47Z</time></trkpt>
<trkpt lat="46.37493185698986053466796875" lon="7.19776044599711894989013671875"><ele></ele><time>2016-7-29T3:24:50Z</time></trkpt>
<trkpt lat="46.3749233074486255645751953125" lon="7.19775809906423091888427734375"><ele></ele><time>2016-7-29T3:24:53Z</time></trkpt>
<trkpt lat="46.37493730522692203521728515625" lon="7.19775038771331310272216796875"><ele></ele><time>2016-7-29T3:24:56Z</time></trkpt>
<trkpt lat="46.37493378482758998870849609375" lon="7.197731696069240570068359375"><ele></ele><time>2016-7-29T3:24:59Z</time></trkpt>
<trkpt lat="46.37493998743593692779541015625" lon="7.1976812370121479034423828125"><ele></ele><time>2016-7-29T3:25:2Z</time></trkpt>
<trkpt lat="46.37492607347667217254638671875" lon="7.19764309935271739959716796875"><ele></ele><time>2016-7-29T3:25:5Z</time></trkpt>
<trkpt lat="46.374905370175838470458984375" lon="7.197570092976093292236328125"><ele></ele><time>2016-7-29T3:25:8Z</time></trkpt>
<trkpt lat="46.374910064041614532470703125" lon="7.19753195531666278839111328125"><ele></ele><time>2016-7-29T3:25:11Z</time></trkpt>
<trkpt lat="46.3749145902693271636962890625" lon="7.1974542550742626190185546875"><ele></ele><time>2016-7-29T3:25:14Z</time></trkpt>
<trkpt lat="46.374916099011898040771484375" lon="7.19740974716842174530029296875"><ele></ele><time>2016-7-29T3:25:17Z</time></trkpt>
<trkpt lat="46.37492607347667217254638671875" lon="7.19730354845523834228515625"><ele></ele><time>2016-7-29T3:25:20Z</time></trkpt>
<trkpt lat="46.37493261136114597320556640625" lon="7.19719533808529376983642578125"><ele></ele><time>2016-7-29T3:25:23Z</time></trkpt>
<trkpt lat="46.37494568713009357452392578125" lon="7.19712811522185802459716796875"><ele></ele><time>2016-7-29T3:25:26Z</time></trkpt>
<trkpt lat="46.37497032992541790008544921875" lon="7.19707421958446502685546875"><ele></ele><time>2016-7-29T3:25:29Z</time></trkpt>
<trkpt lat="46.37497418560087680816650390625" lon="7.19699283130466938018798828125"><ele></ele><time>2016-7-29T3:25:32Z</time></trkpt>
<trkpt lat="46.3749860040843486785888671875" lon="7.19691202975809574127197265625"><ele></ele><time>2016-7-29T3:25:35Z</time></trkpt>
<trkpt lat="46.37500838376581668853759765625" lon="7.19683349132537841796875"><ele></ele><time>2016-7-29T3:25:38Z</time></trkpt>
<trkpt lat="46.37502439320087432861328125" lon="7.19672821462154388427734375"><ele></ele><time>2016-7-29T3:25:41Z</time></trkpt>
<trkpt lat="46.37501559220254421234130859375" lon="7.1966509334743022918701171875"><ele></ele><time>2016-7-29T3:25:44Z</time></trkpt>
<trkpt lat="46.3749955594539642333984375" lon="7.19654188491404056549072265625"><ele></ele><time>2016-7-29T3:25:47Z</time></trkpt>
<trkpt lat="46.37499212287366390228271484375" lon="7.19646108336746692657470703125"><ele></ele><time>2016-7-29T3:25:50Z</time></trkpt>
<trkpt lat="46.374993883073329925537109375" lon="7.1963686309754848480224609375"><ele></ele><time>2016-7-29T3:25:53Z</time></trkpt>
<trkpt lat="46.37500964105129241943359375" lon="7.19625120051205158233642578125"><ele></ele><time>2016-7-29T3:25:56Z</time></trkpt>
<trkpt lat="46.3750299252569675445556640625" lon="7.19611390493810176849365234375"><ele></ele><time>2016-7-29T3:25:59Z</time></trkpt>
<trkpt lat="46.37504492886364459991455078125" lon="7.1960038505494594573974609375"><ele></ele><time>2016-7-29T3:26:2Z</time></trkpt>
<trkpt lat="46.37505666352808475494384765625" lon="7.1959193609654903411865234375"><ele></ele><time>2016-7-29T3:26:5Z</time></trkpt>
<trkpt lat="46.3750902749598026275634765625" lon="7.19583428464829921722412109375"><ele></ele><time>2016-7-29T3:26:8Z</time></trkpt>
<trkpt lat="46.3751164264976978302001953125" lon="7.1957668103277683258056640625"><ele></ele><time>2016-7-29T3:26:11Z</time></trkpt>
<trkpt lat="46.375117264688014984130859375" lon="7.19573269598186016082763671875"><ele></ele><time>2016-7-29T3:26:14Z</time></trkpt>
<trkpt lat="46.3751415722072124481201171875" lon="7.1956487931311130523681640625"><ele></ele><time>2016-7-29T3:26:17Z</time></trkpt>
<trkpt lat="46.375142075121402740478515625" lon="7.19558483920991420745849609375"><ele></ele><time>2016-7-29T3:26:20Z</time></trkpt>
<trkpt lat="46.3751516304910182952880859375" lon="7.195492722094058990478515625"><ele></ele><time>2016-7-29T3:26:23Z</time></trkpt>
<trkpt lat="46.3751603476703166961669921875" lon="7.19546497799456119537353515625"><ele></ele><time>2016-7-29T3:26:26Z</time></trkpt>
<trkpt lat="46.37516931630671024322509765625" lon="7.1953845955431461334228515625"><ele></ele><time>2016-7-29T3:26:29Z</time></trkpt>
<trkpt lat="46.3751764409244060516357421875" lon="7.19527873210608959197998046875"><ele></ele><time>2016-7-29T3:26:32Z</time></trkpt>
<trkpt lat="46.37518473900854587554931640625" lon="7.19519290141761302947998046875"><ele></ele><time>2016-7-29T3:26:35Z</time></trkpt>
<trkpt lat="46.37519060634076595306396484375" lon="7.19512986950576305389404296875"><ele></ele><time>2016-7-29T3:26:38Z</time></trkpt>
<trkpt lat="46.37519999407231807708740234375" lon="7.195071615278720855712890625"><ele></ele><time>2016-7-29T3:26:41Z</time></trkpt>
<trkpt lat="46.37521483004093170166015625" lon="7.195043452084064483642578125"><ele></ele><time>2016-7-29T3:26:44Z</time></trkpt>
<trkpt lat="46.37521675787866115570068359375" lon="7.1950127743184566497802734375"><ele></ele><time>2016-7-29T3:26:47Z</time></trkpt>
<trkpt lat="46.37521684169769287109375" lon="7.19496491365134716033935546875"><ele></ele><time>2016-7-29T3:26:50Z</time></trkpt>
<trkpt lat="46.37521072290837764739990234375" lon="7.19489316456019878387451171875"><ele></ele><time>2016-7-29T3:26:53Z</time></trkpt>
<trkpt lat="46.375212483108043670654296875" lon="7.19485737383365631103515625"><ele></ele><time>2016-7-29T3:26:56Z</time></trkpt>
<trkpt lat="46.3752253912389278411865234375" lon="7.19476827420294284820556640625"><ele></ele><time>2016-7-29T3:26:59Z</time></trkpt>
<trkpt lat="46.3752342760562896728515625" lon="7.19470021314918994903564453125"><ele></ele><time>2016-7-29T3:27:2Z</time></trkpt>
<trkpt lat="46.37523268349468708038330078125" lon="7.194632403552532196044921875"><ele></ele><time>2016-7-29T3:27:5Z</time></trkpt>
<trkpt lat="46.37523838318884372711181640625" lon="7.19452335499227046966552734375"><ele></ele><time>2016-7-29T3:27:8Z</time></trkpt>
<trkpt lat="46.3752664625644683837890625" lon="7.19446401111781597137451171875"><ele></ele><time>2016-7-29T3:27:11Z</time></trkpt>
<trkpt lat="46.37529822997748851776123046875" lon="7.19440550543367862701416015625"><ele></ele><time>2016-7-29T3:27:14Z</time></trkpt>
<trkpt lat="46.37532454915344715118408203125" lon="7.19437834806740283966064453125"><ele></ele><time>2016-7-29T3:27:17Z</time></trkpt>
<trkpt lat="46.37537366710603237152099609375" lon="7.1943405456840991973876953125"><ele></ele><time>2016-7-29T3:27:20Z</time></trkpt>
<trkpt lat="46.3753702305257320404052734375" lon="7.19429335556924343109130859375"><ele></ele><time>2016-7-29T3:27:23Z</time></trkpt>
<trkpt lat="46.37534533627331256866455078125" lon="7.194259576499462127685546875"><ele></ele><time>2016-7-29T3:27:26Z</time></trkpt>
<trkpt lat="46.3753326795995235443115234375" lon="7.194226048886775970458984375"><ele></ele><time>2016-7-29T3:27:29Z</time></trkpt>
<trkpt lat="46.3753279857337474822998046875" lon="7.194183804094791412353515625"><ele></ele><time>2016-7-29T3:27:32Z</time></trkpt>
<trkpt lat="46.3753266446292400360107421875" lon="7.19414834864437580108642578125"><ele></ele><time>2016-7-29T3:27:35Z</time></trkpt>
<trkpt lat="46.375330500304698944091796875" lon="7.1941296570003032684326171875"><ele></ele><time>2016-7-29T3:27:38Z</time></trkpt>
<trkpt lat="46.3753336854279041290283203125" lon="7.1940904296934604644775390625"><ele></ele><time>2016-7-29T3:27:41Z</time></trkpt>
<trkpt lat="46.375332176685333251953125" lon="7.194006778299808502197265625"><ele></ele><time>2016-7-29T3:27:44Z</time></trkpt>
<trkpt lat="46.37532203458249568939208984375" lon="7.19394735060632228851318359375"><ele></ele><time>2016-7-29T3:27:47Z</time></trkpt>
<trkpt lat="46.37531415559351444244384765625" lon="7.193858921527862548828125"><ele></ele><time>2016-7-29T3:27:50Z</time></trkpt>
<trkpt lat="46.375321447849273681640625" lon="7.19376839697360992431640625"><ele></ele><time>2016-7-29T3:27:53Z</time></trkpt>
<trkpt lat="46.3753380440175533294677734375" lon="7.19368348829448223114013671875"><ele></ele><time>2016-7-29T3:27:56Z</time></trkpt>
<trkpt lat="46.3753752596676349639892578125" lon="7.1936180256307125091552734375"><ele></ele><time>2016-7-29T3:27:59Z</time></trkpt>
<trkpt lat="46.3754273951053619384765625" lon="7.193536050617694854736328125"><ele></ele><time>2016-7-29T3:28:2Z</time></trkpt>
<trkpt lat="46.37546318583190441131591796875" lon="7.19345566816627979278564453125"><ele></ele><time>2016-7-29T3:28:5Z</time></trkpt>
<trkpt lat="46.3754688017070293426513671875" lon="7.19344560988247394561767578125"><ele></ele><time>2016-7-29T3:28:8Z</time></trkpt>
<trkpt lat="46.37553376145660877227783203125" lon="7.19335131347179412841796875"><ele></ele><time>2016-7-29T3:28:11Z</time></trkpt>
<trkpt lat="46.375596038997173309326171875" lon="7.19327210448682308197021484375"><ele></ele><time>2016-7-29T3:28:14Z</time></trkpt>
<trkpt lat="46.37560903094708919525146484375" lon="7.19324226491153240203857421875"><ele></ele><time>2016-7-29T3:28:17Z</time></trkpt>
<trkpt lat="46.37563400901854038238525390625" lon="7.19317018054425716400146484375"><ele></ele><time>2016-7-29T3:28:20Z</time></trkpt>
<trkpt lat="46.375674493610858917236328125" lon="7.19304780475795269012451171875"><ele></ele><time>2016-7-29T3:28:23Z</time></trkpt>
<trkpt lat="46.3756795227527618408203125" lon="7.1930386684834957122802734375"><ele></ele><time>2016-7-29T3:28:26Z</time></trkpt>
<trkpt lat="46.37570860795676708221435546875" lon="7.19296239316463470458984375"><ele></ele><time>2016-7-29T3:28:29Z</time></trkpt>
<trkpt lat="46.37576191686093807220458984375" lon="7.19290078617632389068603515625"><ele></ele><time>2016-7-29T3:28:32Z</time></trkpt>
<trkpt lat="46.375819332897663116455078125" lon="7.1928405202925205230712890625"><ele></ele><time>2016-7-29T3:28:35Z</time></trkpt>
<trkpt lat="46.37585327960550785064697265625" lon="7.19280824996531009674072265625"><ele></ele><time>2016-7-29T3:28:38Z</time></trkpt>
<trkpt lat="46.37586249969899654388427734375" lon="7.19280020333826541900634765625"><ele></ele><time>2016-7-29T3:28:41Z</time></trkpt>
<trkpt lat="46.3759128749370574951171875" lon="7.1927858702838420867919921875"><ele></ele><time>2016-7-29T3:28:44Z</time></trkpt>
<trkpt lat="46.3759289681911468505859375" lon="7.1927533484995365142822265625"><ele></ele><time>2016-7-29T3:28:47Z</time></trkpt>
<trkpt lat="46.375937350094318389892578125" lon="7.19272367656230926513671875"><ele></ele><time>2016-7-29T3:28:50Z</time></trkpt>
<trkpt lat="46.37594665400683879852294921875" lon="7.19266223721206188201904296875"><ele></ele><time>2016-7-29T3:28:53Z</time></trkpt>
<trkpt lat="46.375960148870944976806640625" lon="7.19258311204612255096435546875"><ele></ele><time>2016-7-29T3:28:56Z</time></trkpt>
<trkpt lat="46.376007758080959320068359375" lon="7.1925431303679943084716796875"><ele></ele><time>2016-7-29T3:28:59Z</time></trkpt>
<trkpt lat="46.37603449635207653045654296875" lon="7.19250365160405635833740234375"><ele></ele><time>2016-7-29T3:29:2Z</time></trkpt>
<trkpt lat="46.37606483884155750274658203125" lon="7.19244900159537792205810546875"><ele></ele><time>2016-7-29T3:29:5Z</time></trkpt>
<trkpt lat="46.3761028088629245758056640625" lon="7.19242888502776622772216796875"><ele></ele><time>2016-7-29T3:29:8Z</time></trkpt>
<trkpt lat="46.37615050189197063446044921875" lon="7.19239016063511371612548828125"><ele></ele><time>2016-7-29T3:29:11Z</time></trkpt>
<trkpt lat="46.37618981301784515380859375" lon="7.19232712872326374053955078125"><ele></ele><time>2016-7-29T3:29:14Z</time></trkpt>
<trkpt lat="46.37623029761016368865966796875" lon="7.19223878346383571624755859375"><ele></ele><time>2016-7-29T3:29:17Z</time></trkpt>
<trkpt lat="46.37623985297977924346923828125" lon="7.19219653867185115814208984375"><ele></ele><time>2016-7-29T3:29:20Z</time></trkpt>
<trkpt lat="46.3762503303587436676025390625" lon="7.19215395860373973846435546875"><ele></ele><time>2016-7-29T3:29:23Z</time></trkpt>
<trkpt lat="46.3762768171727657318115234375" lon="7.1921257115900516510009765625"><ele></ele><time>2016-7-29T3:29:26Z</time></trkpt>
<trkpt lat="46.3763301260769367218017578125" lon="7.19211489893496036529541015625"><ele></ele><time>2016-7-29T3:29:29Z</time></trkpt>
<trkpt lat="46.37638427317142486572265625" lon="7.19210676848888397216796875"><ele></ele><time>2016-7-29T3:29:32Z</time></trkpt>
<trkpt lat="46.376436240971088409423828125" lon="7.192070893943309783935546875"><ele></ele><time>2016-7-29T3:29:35Z</time></trkpt>
<trkpt lat="46.37649248354136943817138671875" lon="7.1920578181743621826171875"><ele></ele><time>2016-7-29T3:29:38Z</time></trkpt>
<trkpt lat="46.37655434198677539825439453125" lon="7.19199654646217823028564453125"><ele></ele><time>2016-7-29T3:29:41Z</time></trkpt>
<trkpt lat="46.37658770196139812469482421875" lon="7.1919071115553379058837890625"><ele></ele><time>2016-7-29T3:29:44Z</time></trkpt>
<trkpt lat="46.37660555541515350341796875" lon="7.191834859549999237060546875"><ele></ele><time>2016-7-29T3:29:47Z</time></trkpt>
<trkpt lat="46.376636736094951629638671875" lon="7.1917471848428249359130859375"><ele></ele><time>2016-7-29T3:29:50Z</time></trkpt>
<trkpt lat="46.376650817692279815673828125" lon="7.191701419651508331298828125"><ele></ele><time>2016-7-29T3:29:53Z</time></trkpt>
<trkpt lat="46.3766704313457012176513671875" lon="7.19165347516536712646484375"><ele></ele><time>2016-7-29T3:29:56Z</time></trkpt>
<trkpt lat="46.37672147713601589202880859375" lon="7.19162254594266414642333984375"><ele></ele><time>2016-7-29T3:29:59Z</time></trkpt>
<trkpt lat="46.376757435500621795654296875" lon="7.1916080452501773834228515625"><ele></ele><time>2016-7-29T3:30:2Z</time></trkpt>
<trkpt lat="46.37676271609961986541748046875" lon="7.191601507365703582763671875"><ele></ele><time>2016-7-29T3:30:5Z</time></trkpt>
<trkpt lat="46.376779563724994659423828125" lon="7.1915735118091106414794921875"><ele></ele><time>2016-7-29T3:30:8Z</time></trkpt>
<trkpt lat="46.37680848129093647003173828125" lon="7.19154425896704196929931640625"><ele></ele><time>2016-7-29T3:30:11Z</time></trkpt>
<trkpt lat="46.37683798559010028839111328125" lon="7.19151877798140048980712890625"><ele></ele><time>2016-7-29T3:30:14Z</time></trkpt>
<trkpt lat="46.3768784701824188232421875" lon="7.19146563671529293060302734375"><ele></ele><time>2016-7-29T3:30:17Z</time></trkpt>
<trkpt lat="46.37689330615103244781494140625" lon="7.19143210910260677337646484375"><ele></ele><time>2016-7-29T3:30:20Z</time></trkpt>
<trkpt lat="46.3768947310745716094970703125" lon="7.19138349406421184539794921875"><ele></ele><time>2016-7-29T3:30:23Z</time></trkpt>
<trkpt lat="46.37691945768892765045166015625" lon="7.19137578271329402923583984375"><ele></ele><time>2016-7-29T3:30:26Z</time></trkpt>
<trkpt lat="46.376931779086589813232421875" lon="7.19136673025786876678466796875"><ele></ele><time>2016-7-29T3:30:29Z</time></trkpt>
<trkpt lat="46.3769876025617122650146484375" lon="7.19132213853299617767333984375"><ele></ele><time>2016-7-29T3:30:32Z</time></trkpt>
<trkpt lat="46.37705759145319461822509765625" lon="7.19128240831196308135986328125"><ele></ele><time>2016-7-29T3:30:35Z</time></trkpt>
<trkpt lat="46.377100758254528045654296875" lon="7.191240079700946807861328125"><ele></ele><time>2016-7-29T3:30:38Z</time></trkpt>
<trkpt lat="46.3771418295800685882568359375" lon="7.19121619127690792083740234375"><ele></ele><time>2016-7-29T3:30:41Z</time></trkpt>
<trkpt lat="46.3771493732929229736328125" lon="7.1912290155887603759765625"><ele></ele><time>2016-7-29T3:30:44Z</time></trkpt>
<trkpt lat="46.377161443233489990234375" lon="7.19123999588191509246826171875"><ele></ele><time>2016-7-29T3:30:47Z</time></trkpt>
<trkpt lat="46.377189271152019500732421875" lon="7.19121451489627361297607421875"><ele></ele><time>2016-7-29T3:30:50Z</time></trkpt>
<trkpt lat="46.37721282429993152618408203125" lon="7.1911386586725711822509765625"><ele></ele><time>2016-7-29T3:30:53Z</time></trkpt>
<trkpt lat="46.377244926989078521728515625" lon="7.19107721932232379913330078125"><ele></ele><time>2016-7-29T3:30:56Z</time></trkpt>
<trkpt lat="46.37724526226520538330078125" lon="7.19105609692633152008056640625"><ele></ele><time>2016-7-29T3:30:59Z</time></trkpt>
<trkpt lat="46.37722355313599109649658203125" lon="7.19108660705387592315673828125"><ele></ele><time>2016-7-29T3:31:2Z</time></trkpt>
<trkpt lat="46.377196647226810455322265625" lon="7.1911473758518695831298828125"><ele></ele><time>2016-7-29T3:31:5Z</time></trkpt>
<trkpt lat="46.377167813479900360107421875" lon="7.191204540431499481201171875"><ele></ele><time>2016-7-29T3:31:8Z</time></trkpt>
<trkpt lat="46.37715515680611133575439453125" lon="7.191211916506290435791015625"><ele></ele><time>2016-7-29T3:31:11Z</time></trkpt>
<trkpt lat="46.3771411590278148651123046875" lon="7.1912372298538684844970703125"><ele></ele><time>2016-7-29T3:31:14Z</time></trkpt>
<trkpt lat="46.37713638134300708770751953125" lon="7.1912261657416820526123046875"><ele></ele><time>2016-7-29T3:31:17Z</time></trkpt>
<trkpt lat="46.37714727781713008880615234375" lon="7.19121920876204967498779296875"><ele></ele><time>2016-7-29T3:31:20Z</time></trkpt>
<trkpt lat="46.3771761953830718994140625" lon="7.191222645342350006103515625"><ele></ele><time>2016-7-29T3:31:23Z</time></trkpt>
<trkpt lat="46.3771780394017696380615234375" lon="7.19124418683350086212158203125"><ele></ele><time>2016-7-29T3:31:26Z</time></trkpt>
<trkpt lat="46.37715096585452556610107421875" lon="7.19122524373233318328857421875"><ele></ele><time>2016-7-29T3:31:29Z</time></trkpt>
<trkpt lat="46.377135626971721649169921875" lon="7.1912397444248199462890625"><ele></ele><time>2016-7-29T3:31:32Z</time></trkpt>
<trkpt lat="46.377136297523975372314453125" lon="7.1912211365997791290283203125"><ele></ele><time>2016-7-29T3:31:35Z</time></trkpt>
<trkpt lat="46.37714057229459285736083984375" lon="7.191242091357707977294921875"><ele></ele><time>2016-7-29T3:31:38Z</time></trkpt>
<trkpt lat="46.3771535642445087432861328125" lon="7.19123714603483676910400390625"><ele></ele><time>2016-7-29T3:31:41Z</time></trkpt>
<trkpt lat="46.37714845128357410430908203125" lon="7.19124016351997852325439453125"><ele></ele><time>2016-7-29T3:31:44Z</time></trkpt>
<trkpt lat="46.377128921449184417724609375" lon="7.191251479089260101318359375"><ele></ele><time>2016-7-29T3:31:47Z</time></trkpt>
<trkpt lat="46.37713839299976825714111328125" lon="7.1912424266338348388671875"><ele></ele><time>2016-7-29T3:31:50Z</time></trkpt>
<trkpt lat="46.377129256725311279296875" lon="7.1912325359880924224853515625"><ele></ele><time>2016-7-29T3:31:53Z</time></trkpt>
<trkpt lat="46.37712984345853328704833984375" lon="7.1912191249430179595947265625"><ele></ele><time>2016-7-29T3:31:56Z</time></trkpt>
<trkpt lat="46.37714870274066925048828125" lon="7.1912033669650554656982421875"><ele></ele><time>2016-7-29T3:31:59Z</time></trkpt>
<trkpt lat="46.3771632872521877288818359375" lon="7.1912144310772418975830078125"><ele></ele><time>2016-7-29T3:32:2Z</time></trkpt>
<trkpt lat="46.3771559111773967742919921875" lon="7.1912171132862567901611328125"><ele></ele><time>2016-7-29T3:32:5Z</time></trkpt>
<trkpt lat="46.3771508820354938507080078125" lon="7.19121334142982959747314453125"><ele></ele><time>2016-7-29T3:32:8Z</time></trkpt>
<trkpt lat="46.37715817429125308990478515625" lon="7.19123580493032932281494140625"><ele></ele><time>2016-7-29T3:32:11Z</time></trkpt>
<trkpt lat="46.3771669752895832061767578125" lon="7.19122407026588916778564453125"><ele></ele><time>2016-7-29T3:32:14Z</time></trkpt>
<trkpt lat="46.37719538994133472442626953125" lon="7.19120060093700885772705078125"><ele></ele><time>2016-7-29T3:32:17Z</time></trkpt>
<trkpt lat="46.37723059393465518951416015625" lon="7.19110337086021900177001953125"><ele></ele><time>2016-7-29T3:32:20Z</time></trkpt>
<trkpt lat="46.377244256436824798583984375" lon="7.1910766325891017913818359375"><ele></ele><time>2016-7-29T3:32:23Z</time></trkpt>
<trkpt lat="46.3772893510758876800537109375" lon="7.19100463204085826873779296875"><ele></ele><time>2016-7-29T3:32:26Z</time></trkpt>
<trkpt lat="46.37736721895635128021240234375" lon="7.1908965893089771270751953125"><ele></ele><time>2016-7-29T3:32:29Z</time></trkpt>
<trkpt lat="46.37744869105517864227294921875" lon="7.1908092498779296875"><ele></ele><time>2016-7-29T3:32:32Z</time></trkpt>
<trkpt lat="46.3775592483580112457275390625" lon="7.1907732076942920684814453125"><ele></ele><time>2016-7-29T3:32:35Z</time></trkpt>
<trkpt lat="46.3775750063359737396240234375" lon="7.19077798537909984588623046875"><ele></ele><time>2016-7-29T3:32:38Z</time></trkpt>
<trkpt lat="46.3776038400828838348388671875" lon="7.1908017061650753021240234375"><ele></ele><time>2016-7-29T3:32:41Z</time></trkpt>
<trkpt lat="46.3776350207626819610595703125" lon="7.1908214874565601348876953125"><ele></ele><time>2016-7-29T3:32:44Z</time></trkpt>
<trkpt lat="46.37776586227118968963623046875" lon="7.19086490571498870849609375"><ele></ele><time>2016-7-29T3:32:47Z</time></trkpt>
<trkpt lat="46.37788220308721065521240234375" lon="7.19090002588927745819091796875"><ele></ele><time>2016-7-29T3:32:50Z</time></trkpt>
<trkpt lat="46.377900056540966033935546875" lon="7.1907956711947917938232421875"><ele></ele><time>2016-7-29T3:32:53Z</time></trkpt>
<trkpt lat="46.37789997272193431854248046875" lon="7.19077630899846553802490234375"><ele></ele><time>2016-7-29T3:32:56Z</time></trkpt>
<trkpt lat="46.37789997272193431854248046875" lon="7.190776057541370391845703125"><ele></ele><time>2016-7-29T3:32:59Z</time></trkpt>
<trkpt lat="46.37792075984179973602294921875" lon="7.19073272310197353363037109375"><ele></ele><time>2016-7-29T3:33:2Z</time></trkpt>
<trkpt lat="46.377955712378025054931640625" lon="7.19066583551466464996337890625"><ele></ele><time>2016-7-29T3:33:5Z</time></trkpt>
<trkpt lat="46.37798161245882511138916015625" lon="7.19061587937176227569580078125"><ele></ele><time>2016-7-29T3:33:8Z</time></trkpt>
<trkpt lat="46.37800491414964199066162109375" lon="7.19057782553136348724365234375"><ele></ele><time>2016-7-29T3:33:11Z</time></trkpt>
<trkpt lat="46.37803039513528347015380859375" lon="7.1905244328081607818603515625"><ele></ele><time>2016-7-29T3:33:14Z</time></trkpt>
<trkpt lat="46.37806844897568225860595703125" lon="7.190422676503658294677734375"><ele></ele><time>2016-7-29T3:33:17Z</time></trkpt>
<trkpt lat="46.37809996493160724639892578125" lon="7.19035201705992221832275390625"><ele></ele><time>2016-7-29T3:33:20Z</time></trkpt>
<trkpt lat="46.37813298963010311126708984375" lon="7.1902821958065032958984375"><ele></ele><time>2016-7-29T3:33:23Z</time></trkpt>
<trkpt lat="46.37815897352993488311767578125" lon="7.19026568345725536346435546875"><ele></ele><time>2016-7-29T3:33:26Z</time></trkpt>
<trkpt lat="46.3781778328120708465576171875" lon="7.19027389772236347198486328125"><ele></ele><time>2016-7-29T3:33:29Z</time></trkpt>
<trkpt lat="46.37823407538235187530517578125" lon="7.1902887336909770965576171875"><ele></ele><time>2016-7-29T3:33:32Z</time></trkpt>
<trkpt lat="46.37826584279537200927734375" lon="7.19027976505458354949951171875"><ele></ele><time>2016-7-29T3:33:35Z</time></trkpt>
<trkpt lat="46.378332562744617462158203125" lon="7.190269120037555694580078125"><ele></ele><time>2016-7-29T3:33:38Z</time></trkpt>
<trkpt lat="46.37836365960538387298583984375" lon="7.190271802246570587158203125"><ele></ele><time>2016-7-29T3:33:41Z</time></trkpt>
<trkpt lat="46.378384865820407867431640625" lon="7.19029770232737064361572265625"><ele></ele><time>2016-7-29T3:33:44Z</time></trkpt>
<trkpt lat="46.37839995324611663818359375" lon="7.190267778933048248291015625"><ele></ele><time>2016-7-29T3:33:47Z</time></trkpt>
<trkpt lat="46.37841747142374515533447265625" lon="7.19016761519014835357666015625"><ele></ele><time>2016-7-29T3:33:50Z</time></trkpt>
<trkpt lat="46.3784272782504558563232421875" lon="7.19013643451035022735595703125"><ele></ele><time>2016-7-29T3:33:53Z</time></trkpt>
<trkpt lat="46.3784475624561309814453125" lon="7.19008094631135463714599609375"><ele></ele><time>2016-7-29T3:33:56Z</time></trkpt>
<trkpt lat="46.37847463600337505340576171875" lon="7.19005228020250797271728515625"><ele></ele><time>2016-7-29T3:33:59Z</time></trkpt>
<trkpt lat="46.37848201207816600799560546875" lon="7.19004523940384387969970703125"><ele></ele><time>2016-7-29T3:34:2Z</time></trkpt>
<trkpt lat="46.3785198144614696502685546875" lon="7.19001942314207553863525390625"><ele></ele><time>2016-7-29T3:34:5Z</time></trkpt>
<trkpt lat="46.3785521686077117919921875" lon="7.18999109230935573577880859375"><ele></ele><time>2016-7-29T3:34:8Z</time></trkpt>
<trkpt lat="46.37858544476330280303955078125" lon="7.18998120166361331939697265625"><ele></ele><time>2016-7-29T3:34:11Z</time></trkpt>
<trkpt lat="46.37866255827248096466064453125" lon="7.18998958356678485870361328125"><ele></ele><time>2016-7-29T3:34:14Z</time></trkpt>
<trkpt lat="46.37874302454292774200439453125" lon="7.1899923495948314666748046875"><ele></ele><time>2016-7-29T3:34:17Z</time></trkpt>
<trkpt lat="46.378805302083492279052734375" lon="7.1899683773517608642578125"><ele></ele><time>2016-7-29T3:34:20Z</time></trkpt>
<trkpt lat="46.3788735307753086090087890625" lon="7.1899898350238800048828125"><ele></ele><time>2016-7-29T3:34:23Z</time></trkpt>
<trkpt lat="46.37892776168882846832275390625" lon="7.189995534718036651611328125"><ele></ele><time>2016-7-29T3:34:26Z</time></trkpt>
<trkpt lat="46.378987021744251251220703125" lon="7.18998606316745281219482421875"><ele></ele><time>2016-7-29T3:34:29Z</time></trkpt>
<trkpt lat="46.37902113609015941619873046875" lon="7.18997432850301265716552734375"><ele></ele><time>2016-7-29T3:34:32Z</time></trkpt>
<trkpt lat="46.37908835895359516143798828125" lon="7.18994951806962490081787109375"><ele></ele><time>2016-7-29T3:34:35Z</time></trkpt>
<trkpt lat="46.37912373058497905731201171875" lon="7.189920432865619659423828125"><ele></ele><time>2016-7-29T3:34:38Z</time></trkpt>
<trkpt lat="46.37917938642203807830810546875" lon="7.1898357756435871124267578125"><ele></ele><time>2016-7-29T3:34:41Z</time></trkpt>
<trkpt lat="46.379265971481800079345703125" lon="7.18976385891437530517578125"><ele></ele><time>2016-7-29T3:34:44Z</time></trkpt>
<trkpt lat="46.3792735151946544647216796875" lon="7.189750783145427703857421875"><ele></ele><time>2016-7-29T3:34:47Z</time></trkpt>
<trkpt lat="46.37930058874189853668212890625" lon="7.18963620252907276153564453125"><ele></ele><time>2016-7-29T3:34:50Z</time></trkpt>
<trkpt lat="46.37932405807077884674072265625" lon="7.189543247222900390625"><ele></ele><time>2016-7-29T3:34:53Z</time></trkpt>
<trkpt lat="46.3793543167412281036376953125" lon="7.1894371323287487030029296875"><ele></ele><time>2016-7-29T3:34:56Z</time></trkpt>
<trkpt lat="46.3793556578457355499267578125" lon="7.18942933715879917144775390625"><ele></ele><time>2016-7-29T3:34:59Z</time></trkpt>
<trkpt lat="46.37937200255692005157470703125" lon="7.18939178623259067535400390625"><ele></ele><time>2016-7-29T3:35:2Z</time></trkpt>
<trkpt lat="46.37944173999130725860595703125" lon="7.189342081546783447265625"><ele></ele><time>2016-7-29T3:35:5Z</time></trkpt>
<trkpt lat="46.37946101836860179901123046875" lon="7.18933411873877048492431640625"><ele></ele><time>2016-7-29T3:35:8Z</time></trkpt>
<trkpt lat="46.37952690012753009796142578125" lon="7.18931785784661769866943359375"><ele></ele><time>2016-7-29T3:35:11Z</time></trkpt>
<trkpt lat="46.3795943744480609893798828125" lon="7.189322300255298614501953125"><ele></ele><time>2016-7-29T3:35:14Z</time></trkpt>
<trkpt lat="46.37962706387042999267578125" lon="7.1893127448856830596923828125"><ele></ele><time>2016-7-29T3:35:17Z</time></trkpt>
<trkpt lat="46.3796357810497283935546875" lon="7.189311571419239044189453125"><ele></ele><time>2016-7-29T3:35:20Z</time></trkpt>
<trkpt lat="46.37972068972885608673095703125" lon="7.18931165523827075958251953125"><ele></ele><time>2016-7-29T3:35:23Z</time></trkpt>
<trkpt lat="46.3798646070063114166259765625" lon="7.18923135660588741302490234375"><ele></ele><time>2016-7-29T3:35:26Z</time></trkpt>
<trkpt lat="46.37986871413886547088623046875" lon="7.18923412263393402099609375"><ele></ele><time>2016-7-29T3:35:29Z</time></trkpt>
<trkpt lat="46.37990106828510761260986328125" lon="7.18919296748936176300048828125"><ele></ele><time>2016-7-29T3:35:32Z</time></trkpt>
<trkpt lat="46.37995119206607341766357421875" lon="7.1891270019114017486572265625"><ele></ele><time>2016-7-29T3:35:35Z</time></trkpt>
<trkpt lat="46.379999555647373199462890625" lon="7.1891001798212528228759765625"><ele></ele><time>2016-7-29T3:35:38Z</time></trkpt>
<trkpt lat="46.380017660558223724365234375" lon="7.18909322284162044525146484375"><ele></ele><time>2016-7-29T3:35:41Z</time></trkpt>
<trkpt lat="46.38004188425838947296142578125" lon="7.18908769078552722930908203125"><ele></ele><time>2016-7-29T3:35:44Z</time></trkpt>
<trkpt lat="46.3800889067351818084716796875" lon="7.1890656463801860809326171875"><ele></ele><time>2016-7-29T3:35:47Z</time></trkpt>
<trkpt lat="46.3802714645862579345703125" lon="7.18902030028402805328369140625"><ele></ele><time>2016-7-29T3:35:50Z</time></trkpt>
<trkpt lat="46.3803919963538646697998046875" lon="7.188983000814914703369140625"><ele></ele><time>2016-7-29T3:35:53Z</time></trkpt>
<trkpt lat="46.38048009015619754791259765625" lon="7.1888954937458038330078125"><ele></ele><time>2016-7-29T3:35:56Z</time></trkpt>
<trkpt lat="46.3805445469915866851806640625" lon="7.18885123729705810546875"><ele></ele><time>2016-7-29T3:35:59Z</time></trkpt>
<trkpt lat="46.38059123419225215911865234375" lon="7.18883849680423736572265625"><ele></ele><time>2016-7-29T3:36:2Z</time></trkpt>
<trkpt lat="46.3806991092860698699951171875" lon="7.188746631145477294921875"><ele></ele><time>2016-7-29T3:36:5Z</time></trkpt>
<trkpt lat="46.380811594426631927490234375" lon="7.18861361034214496612548828125"><ele></ele><time>2016-7-29T3:36:8Z</time></trkpt>
<trkpt lat="46.38098602183163166046142578125" lon="7.1885245107114315032958984375"><ele></ele><time>2016-7-29T3:36:11Z</time></trkpt>
<trkpt lat="46.3811537437140941619873046875" lon="7.188433818519115447998046875"><ele></ele><time>2016-7-29T3:36:14Z</time></trkpt>
<trkpt lat="46.381344683468341827392578125" lon="7.1883950941264629364013671875"><ele></ele><time>2016-7-29T3:36:17Z</time></trkpt>
<trkpt lat="46.3814900256693363189697265625" lon="7.18840389512479305267333984375"><ele></ele><time>2016-7-29T3:36:20Z</time></trkpt>
<trkpt lat="46.38162975199520587921142578125" lon="7.18844161368906497955322265625"><ele></ele><time>2016-7-29T3:36:23Z</time></trkpt>
<trkpt lat="46.3817988149821758270263671875" lon="7.18845452181994915008544921875"><ele></ele><time>2016-7-29T3:36:26Z</time></trkpt>
<trkpt lat="46.3818993978202342987060546875" lon="7.18835796229541301727294921875"><ele></ele><time>2016-7-29T3:36:29Z</time></trkpt>
<trkpt lat="46.38200609944760799407958984375" lon="7.18816584907472133636474609375"><ele></ele><time>2016-7-29T3:36:32Z</time></trkpt>
<trkpt lat="46.3820526190102100372314453125" lon="7.18805336393415927886962890625"><ele></ele><time>2016-7-29T3:36:35Z</time></trkpt>
<trkpt lat="46.38205069117248058319091796875" lon="7.1880500949919223785400390625"><ele></ele><time>2016-7-29T3:36:38Z</time></trkpt>
<trkpt lat="46.3820687122642993927001953125" lon="7.188010700047016143798828125"><ele></ele><time>2016-7-29T3:36:41Z</time></trkpt>
<trkpt lat="46.3820764236152172088623046875" lon="7.18799049966037273406982421875"><ele></ele><time>2016-7-29T3:36:44Z</time></trkpt>
<trkpt lat="46.382109113037586212158203125" lon="7.1879820339381694793701171875"><ele></ele><time>2016-7-29T3:36:47Z</time></trkpt>
<trkpt lat="46.38212378136813640594482421875" lon="7.18795965425670146942138671875"><ele></ele><time>2016-7-29T3:36:50Z</time></trkpt>
<trkpt lat="46.38215160928666591644287109375" lon="7.1879008971154689788818359375"><ele></ele><time>2016-7-29T3:36:53Z</time></trkpt>
<trkpt lat="46.38218044303357601165771484375" lon="7.1878485940396785736083984375"><ele></ele><time>2016-7-29T3:36:56Z</time></trkpt>
<trkpt lat="46.3822026550769805908203125" lon="7.18783258460462093353271484375"><ele></ele><time>2016-7-29T3:36:59Z</time></trkpt>
<trkpt lat="46.3822259567677974700927734375" lon="7.18783895485103130340576171875"><ele></ele><time>2016-7-29T3:37:2Z</time></trkpt>
<trkpt lat="46.3822625018656253814697265625" lon="7.1878291480243206024169921875"><ele></ele><time>2016-7-29T3:37:5Z</time></trkpt>
<trkpt lat="46.38232494704425334930419921875" lon="7.18782906420528888702392578125"><ele></ele><time>2016-7-29T3:37:8Z</time></trkpt>
<trkpt lat="46.3824740611016750335693359375" lon="7.1879002265632152557373046875"><ele></ele><time>2016-7-29T3:37:11Z</time></trkpt>
<trkpt lat="46.3826155476272106170654296875" lon="7.187899388372898101806640625"><ele></ele><time>2016-7-29T3:37:14Z</time></trkpt>
<trkpt lat="46.382697522640228271484375" lon="7.18791238032281398773193359375"><ele></ele><time>2016-7-29T3:37:17Z</time></trkpt>
<trkpt lat="46.382700540125370025634765625" lon="7.18790718354284763336181640625"><ele></ele><time>2016-7-29T3:37:20Z</time></trkpt>
<trkpt lat="46.382708586752414703369140625" lon="7.18790416605770587921142578125"><ele></ele><time>2016-7-29T3:37:23Z</time></trkpt>
<trkpt lat="46.38273297809064388275146484375" lon="7.18790232203900814056396484375"><ele></ele><time>2016-7-29T3:37:26Z</time></trkpt>
<trkpt lat="46.38273566029965877532958984375" lon="7.187900058925151824951171875"><ele></ele><time>2016-7-29T3:37:29Z</time></trkpt>
<trkpt lat="46.38279399834573268890380859375" lon="7.18790165148675441741943359375"><ele></ele><time>2016-7-29T3:37:32Z</time></trkpt>
<trkpt lat="46.38283221982419490814208984375" lon="7.1878988854587078094482421875"><ele></ele><time>2016-7-29T3:37:35Z</time></trkpt>
<trkpt lat="46.38285820372402667999267578125" lon="7.187903411686420440673828125"><ele></ele><time>2016-7-29T3:37:38Z</time></trkpt>
<trkpt lat="46.38292140327394008636474609375" lon="7.1879057586193084716796875"><ele></ele><time>2016-7-29T3:37:41Z</time></trkpt>
<trkpt lat="46.38292877934873104095458984375" lon="7.1879096142947673797607421875"><ele></ele><time>2016-7-29T3:37:44Z</time></trkpt>
<trkpt lat="46.38298141770064830780029296875" lon="7.1879002265632152557373046875"><ele></ele><time>2016-7-29T3:37:47Z</time></trkpt>
<trkpt lat="46.3830396719276905059814453125" lon="7.1879017353057861328125"><ele></ele><time>2016-7-29T3:37:50Z</time></trkpt>
<trkpt lat="46.383086107671260833740234375" lon="7.18793056905269622802734375"><ele></ele><time>2016-7-29T3:37:53Z</time></trkpt>
<trkpt lat="46.3831275142729282379150390625" lon="7.18789176084101200103759765625"><ele></ele><time>2016-7-29T3:37:56Z</time></trkpt>
<trkpt lat="46.38318912126123905181884765625" lon="7.18785890378057956695556640625"><ele></ele><time>2016-7-29T3:37:59Z</time></trkpt>
<trkpt lat="46.38325785286724567413330078125" lon="7.1878150664269924163818359375"><ele></ele><time>2016-7-29T3:38:2Z</time></trkpt>
<trkpt lat="46.3833048753440380096435546875" lon="7.187791429460048675537109375"><ele></ele><time>2016-7-29T3:38:5Z</time></trkpt>
<trkpt lat="46.38333982788026332855224609375" lon="7.18777759931981563568115234375"><ele></ele><time>2016-7-29T3:38:8Z</time></trkpt>
<trkpt lat="46.38342767022550106048583984375" lon="7.18777609057724475860595703125"><ele></ele><time>2016-7-29T3:38:11Z</time></trkpt>
<trkpt lat="46.38356060720980167388916015625" lon="7.1878103725612163543701171875"><ele></ele><time>2016-7-29T3:38:14Z</time></trkpt>
<trkpt lat="46.3837206177413463592529296875" lon="7.18781867064535617828369140625"><ele></ele><time>2016-7-29T3:38:17Z</time></trkpt>
<trkpt lat="46.38383285142481327056884765625" lon="7.187816910445690155029296875"><ele></ele><time>2016-7-29T3:38:20Z</time></trkpt>
<trkpt lat="46.38392865657806396484375" lon="7.18782722018659114837646484375"><ele></ele><time>2016-7-29T3:38:23Z</time></trkpt>
<trkpt lat="46.3839487731456756591796875" lon="7.18783593736588954925537109375"><ele></ele><time>2016-7-29T3:38:26Z</time></trkpt>
<trkpt lat="46.38398037292063236236572265625" lon="7.18785345554351806640625"><ele></ele><time>2016-7-29T3:38:29Z</time></trkpt>
<trkpt lat="46.38401322998106479644775390625" lon="7.1878583170473575592041015625"><ele></ele><time>2016-7-29T3:38:32Z</time></trkpt>
<trkpt lat="46.3840560615062713623046875" lon="7.187880612909793853759765625"><ele></ele><time>2016-7-29T3:38:35Z</time></trkpt>
<trkpt lat="46.384061090648174285888671875" lon="7.1878791041672229766845703125"><ele></ele><time>2016-7-29T3:38:38Z</time></trkpt>
<trkpt lat="46.38409101404249668121337890625" lon="7.187874577939510345458984375"><ele></ele><time>2016-7-29T3:38:41Z</time></trkpt>
<trkpt lat="46.3841390423476696014404296875" lon="7.1878620050847530364990234375"><ele></ele><time>2016-7-29T3:38:44Z</time></trkpt>
<trkpt lat="46.38415396213531494140625" lon="7.18787248246371746063232421875"><ele></ele><time>2016-7-29T3:38:47Z</time></trkpt>
<trkpt lat="46.384199224412441253662109375" lon="7.18790953047573566436767578125"><ele></ele><time>2016-7-29T3:38:50Z</time></trkpt>
<trkpt lat="46.384237110614776611328125" lon="7.18790642917156219482421875"><ele></ele><time>2016-7-29T3:38:53Z</time></trkpt>
<trkpt lat="46.384289748966693878173828125" lon="7.187863849103450775146484375"><ele></ele><time>2016-7-29T3:38:56Z</time></trkpt>
<trkpt lat="46.3843294791877269744873046875" lon="7.1878700517117977142333984375"><ele></ele><time>2016-7-29T3:38:59Z</time></trkpt>
<trkpt lat="46.384350769221782684326171875" lon="7.18787885271012783050537109375"><ele></ele><time>2016-7-29T3:39:2Z</time></trkpt>
<trkpt lat="46.38438153080642223358154296875" lon="7.18786619603633880615234375"><ele></ele><time>2016-7-29T3:39:5Z</time></trkpt>
<trkpt lat="46.38441455550491809844970703125" lon="7.18782973475754261016845703125"><ele></ele><time>2016-7-29T3:39:8Z</time></trkpt>
<trkpt lat="46.38446819968521595001220703125" lon="7.1878150664269924163818359375"><ele></ele><time>2016-7-29T3:39:11Z</time></trkpt>
<trkpt lat="46.3844910822808742523193359375" lon="7.187828309834003448486328125"><ele></ele><time>2016-7-29T3:39:14Z</time></trkpt>
<trkpt lat="46.38450331985950469970703125" lon="7.18783535063266754150390625"><ele></ele><time>2016-7-29T3:39:17Z</time></trkpt>
<trkpt lat="46.38451480306684970855712890625" lon="7.18786728568375110626220703125"><ele></ele><time>2016-7-29T3:39:20Z</time></trkpt>
<trkpt lat="46.38453374616801738739013671875" lon="7.1878948621451854705810546875"><ele></ele><time>2016-7-29T3:39:23Z</time></trkpt>
<trkpt lat="46.38458487577736377716064453125" lon="7.187929563224315643310546875"><ele></ele><time>2016-7-29T3:39:26Z</time></trkpt>
<trkpt lat="46.38465612195432186126708984375" lon="7.187965773046016693115234375"><ele></ele><time>2016-7-29T3:39:29Z</time></trkpt>
<trkpt lat="46.38470540754497051239013671875" lon="7.18802553601562976837158203125"><ele></ele><time>2016-7-29T3:39:32Z</time></trkpt>
<trkpt lat="46.3847267813980579376220703125" lon="7.18810197897255420684814453125"><ele></ele><time>2016-7-29T3:39:35Z</time></trkpt>
<trkpt lat="46.384749077260494232177734375" lon="7.18812578357756137847900390625"><ele></ele><time>2016-7-29T3:39:38Z</time></trkpt>
<trkpt lat="46.38477916829288005828857421875" lon="7.1881332434713840484619140625"><ele></ele><time>2016-7-29T3:39:41Z</time></trkpt>
<trkpt lat="46.38484169729053974151611328125" lon="7.1881417930126190185546875"><ele></ele><time>2016-7-29T3:39:44Z</time></trkpt>
<trkpt lat="46.3848769851028919219970703125" lon="7.1881473250687122344970703125"><ele></ele><time>2016-7-29T3:39:47Z</time></trkpt>
<trkpt lat="46.38492576777935028076171875" lon="7.18814791180193424224853515625"><ele></ele><time>2016-7-29T3:39:50Z</time></trkpt>
<trkpt lat="46.38500154018402099609375" lon="7.18818244524300098419189453125"><ele></ele><time>2016-7-29T3:39:53Z</time></trkpt>
<trkpt lat="46.38509516604244709014892578125" lon="7.188223265111446380615234375"><ele></ele><time>2016-7-29T3:39:56Z</time></trkpt>
<trkpt lat="46.3851351477205753326416015625" lon="7.18827565200626850128173828125"><ele></ele><time>2016-7-29T3:39:59Z</time></trkpt>
<trkpt lat="46.38518753461539745330810546875" lon="7.1882973611354827880859375"><ele></ele><time>2016-7-29T3:40:2Z</time></trkpt>
<trkpt lat="46.38523262925446033477783203125" lon="7.1882475726306438446044921875"><ele></ele><time>2016-7-29T3:40:5Z</time></trkpt>
<trkpt lat="46.3852442800998687744140625" lon="7.18822536058723926544189453125"><ele></ele><time>2016-7-29T3:40:8Z</time></trkpt>
<trkpt lat="46.38525509275496006011962890625" lon="7.18820909969508647918701171875"><ele></ele><time>2016-7-29T3:40:11Z</time></trkpt>
<trkpt lat="46.38530957512557506561279296875" lon="7.18812947161495685577392578125"><ele></ele><time>2016-7-29T3:40:14Z</time></trkpt>
<trkpt lat="46.38532768003642559051513671875" lon="7.18810214661061763763427734375"><ele></ele><time>2016-7-29T3:40:17Z</time></trkpt>
<trkpt lat="46.3853480480611324310302734375" lon="7.18805487267673015594482421875"><ele></ele><time>2016-7-29T3:40:20Z</time></trkpt>
<trkpt lat="46.385405547916889190673828125" lon="7.18798614107072353363037109375"><ele></ele><time>2016-7-29T3:40:23Z</time></trkpt>
<trkpt lat="46.38548324815928936004638671875" lon="7.1879632584750652313232421875"><ele></ele><time>2016-7-29T3:40:26Z</time></trkpt>
<trkpt lat="46.3854992575943470001220703125" lon="7.187949679791927337646484375"><ele></ele><time>2016-7-29T3:40:29Z</time></trkpt>
<trkpt lat="46.38550378382205963134765625" lon="7.1879361011087894439697265625"><ele></ele><time>2016-7-29T3:40:32Z</time></trkpt>
<trkpt lat="46.3855207152664661407470703125" lon="7.1879334188997745513916015625"><ele></ele><time>2016-7-29T3:40:35Z</time></trkpt>
<trkpt lat="46.38551996089518070220947265625" lon="7.1879206784069538116455078125"><ele></ele><time>2016-7-29T3:40:38Z</time></trkpt>
<trkpt lat="46.38552096672356128692626953125" lon="7.18792864121496677398681640625"><ele></ele><time>2016-7-29T3:40:41Z</time></trkpt>
<trkpt lat="46.38556086458265781402587890625" lon="7.1879406273365020751953125"><ele></ele><time>2016-7-29T3:40:44Z</time></trkpt>
<trkpt lat="46.38562691397964954376220703125" lon="7.18795001506805419921875"><ele></ele><time>2016-7-29T3:40:47Z</time></trkpt>
<trkpt lat="46.38566966168582439422607421875" lon="7.18791187740862369537353515625"><ele></ele><time>2016-7-29T3:40:50Z</time></trkpt>
<trkpt lat="46.38569614849984645843505859375" lon="7.18790316022932529449462890625"><ele></ele><time>2016-7-29T3:40:53Z</time></trkpt>
<trkpt lat="46.38572548516094684600830078125" lon="7.187882959842681884765625"><ele></ele><time>2016-7-29T3:40:56Z</time></trkpt>
<trkpt lat="46.38574593700468540191650390625" lon="7.187879271805286407470703125"><ele></ele><time>2016-7-29T3:40:59Z</time></trkpt>
<trkpt lat="46.38578466139733791351318359375" lon="7.187855131924152374267578125"><ele></ele><time>2016-7-29T3:41:2Z</time></trkpt>
<trkpt lat="46.38581600971519947052001953125" lon="7.1878398768603801727294921875"><ele></ele><time>2016-7-29T3:41:5Z</time></trkpt>
<trkpt lat="46.3858764432370662689208984375" lon="7.18781364150345325469970703125"><ele></ele><time>2016-7-29T3:41:8Z</time></trkpt>
<trkpt lat="46.38598331250250339508056640625" lon="7.18774692155420780181884765625"><ele></ele><time>2016-7-29T3:41:11Z</time></trkpt>
<trkpt lat="46.38614977709949016571044921875" lon="7.187666036188602447509765625"><ele></ele><time>2016-7-29T3:41:14Z</time></trkpt>
<trkpt lat="46.38632998801767826080322265625" lon="7.1875109709799289703369140625"><ele></ele><time>2016-7-29T3:41:17Z</time></trkpt>
<trkpt lat="46.38656049035489559173583984375" lon="7.18733134679496288299560546875"><ele></ele><time>2016-7-29T3:41:20Z</time></trkpt>
<trkpt lat="46.38665042817592620849609375" lon="7.1872709132730960845947265625"><ele></ele><time>2016-7-29T3:41:23Z</time></trkpt>
<trkpt lat="46.38665889389812946319580078125" lon="7.1872725896537303924560546875"><ele></ele><time>2016-7-29T3:41:26Z</time></trkpt>
<trkpt lat="46.38670566491782665252685546875" lon="7.18724652193486690521240234375"><ele></ele><time>2016-7-29T3:41:29Z</time></trkpt>
<trkpt lat="46.38672477565705776214599609375" lon="7.18721835874021053314208984375"><ele></ele><time>2016-7-29T3:41:32Z</time></trkpt>
<trkpt lat="46.3867706246674060821533203125" lon="7.18718181364238262176513671875"><ele></ele><time>2016-7-29T3:41:35Z</time></trkpt>
<trkpt lat="46.3869023881852626800537109375" lon="7.1870855055749416351318359375"><ele></ele><time>2016-7-29T3:41:38Z</time></trkpt>
<trkpt lat="46.38704027049243450164794921875" lon="7.1870268322527408599853515625"><ele></ele><time>2016-7-29T3:41:41Z</time></trkpt>
<trkpt lat="46.3871166296303272247314453125" lon="7.18698282726109027862548828125"><ele></ele><time>2016-7-29T3:41:44Z</time></trkpt>
<trkpt lat="46.3871176354587078094482421875" lon="7.186979390680789947509765625"><ele></ele><time>2016-7-29T3:41:47Z</time></trkpt>
<trkpt lat="46.38715066015720367431640625" lon="7.18695784918963909149169921875"><ele></ele><time>2016-7-29T3:41:50Z</time></trkpt>
<trkpt lat="46.38718812726438045501708984375" lon="7.18696740455925464630126953125"><ele></ele><time>2016-7-29T3:41:53Z</time></trkpt>
<trkpt lat="46.387224756181240081787109375" lon="7.18700244091451168060302734375"><ele></ele><time>2016-7-29T3:41:56Z</time></trkpt>
<trkpt lat="46.3872577808797359466552734375" lon="7.1870523132383823394775390625"><ele></ele><time>2016-7-29T3:41:59Z</time></trkpt>
<trkpt lat="46.3873015344142913818359375" lon="7.18711056746542453765869140625"><ele></ele><time>2016-7-29T3:42:2Z</time></trkpt>
<trkpt lat="46.38731083832681179046630859375" lon="7.187120877206325531005859375"><ele></ele><time>2016-7-29T3:42:5Z</time></trkpt>
<trkpt lat="46.38733045198023319244384765625" lon="7.18716681003570556640625"><ele></ele><time>2016-7-29T3:42:8Z</time></trkpt>
<trkpt lat="46.38737252913415431976318359375" lon="7.187222801148891448974609375"><ele></ele><time>2016-7-29T3:42:11Z</time></trkpt>
<trkpt lat="46.38739733956754207611083984375" lon="7.18721768818795680999755859375"><ele></ele><time>2016-7-29T3:42:14Z</time></trkpt>
<trkpt lat="46.387438662350177764892578125" lon="7.1872477792203426361083984375"><ele></ele><time>2016-7-29T3:42:17Z</time></trkpt>
<trkpt lat="46.38748551718890666961669921875" lon="7.1872647106647491455078125"><ele></ele><time>2016-7-29T3:42:20Z</time></trkpt>
<trkpt lat="46.38754502870142459869384765625" lon="7.1872296743094921112060546875"><ele></ele><time>2016-7-29T3:42:23Z</time></trkpt>
<trkpt lat="46.38755408115684986114501953125" lon="7.18724216334521770477294921875"><ele></ele><time>2016-7-29T3:42:26Z</time></trkpt>
<trkpt lat="46.38758542947471141815185546875" lon="7.1873564086854457855224609375"><ele></ele><time>2016-7-29T3:42:29Z</time></trkpt>
<trkpt lat="46.3875890336930751800537109375" lon="7.18737660907208919525146484375"><ele></ele><time>2016-7-29T3:42:32Z</time></trkpt>
<trkpt lat="46.3876031152904033660888671875" lon="7.18742321245372295379638671875"><ele></ele><time>2016-7-29T3:42:35Z</time></trkpt>
<trkpt lat="46.3876376487314701080322265625" lon="7.1874465979635715484619140625"><ele></ele><time>2016-7-29T3:42:38Z</time></trkpt>
<trkpt lat="46.38767947442829608917236328125" lon="7.18741784803569316864013671875"><ele></ele><time>2016-7-29T3:42:41Z</time></trkpt>
<trkpt lat="46.38770914636552333831787109375" lon="7.1873312629759311676025390625"><ele></ele><time>2016-7-29T3:42:44Z</time></trkpt>
<trkpt lat="46.387721635401248931884765625" lon="7.18730150721967220306396484375"><ele></ele><time>2016-7-29T3:42:47Z</time></trkpt>
<trkpt lat="46.38773261569440364837646484375" lon="7.1872367151081562042236328125"><ele></ele><time>2016-7-29T3:42:50Z</time></trkpt>
<trkpt lat="46.387729011476039886474609375" lon="7.18714962713420391082763671875"><ele></ele><time>2016-7-29T3:42:53Z</time></trkpt>
<trkpt lat="46.3877409137785434722900390625" lon="7.18707016669213771820068359375"><ele></ele><time>2016-7-29T3:42:56Z</time></trkpt>
<trkpt lat="46.387751139700412750244140625" lon="7.18703244812786579132080078125"><ele></ele><time>2016-7-29T3:42:59Z</time></trkpt>
<trkpt lat="46.3877734355628490447998046875" lon="7.18688316643238067626953125"><ele></ele><time>2016-7-29T3:43:2Z</time></trkpt>
<trkpt lat="46.38775759376585483551025390625" lon="7.18673991970717906951904296875"><ele></ele><time>2016-7-29T3:43:5Z</time></trkpt>
<trkpt lat="46.38775172643363475799560546875" lon="7.1867317892611026763916015625"><ele></ele><time>2016-7-29T3:43:8Z</time></trkpt>
<trkpt lat="46.3877482898533344268798828125" lon="7.18672650866210460662841796875"><ele></ele><time>2016-7-29T3:43:11Z</time></trkpt>
<trkpt lat="46.3877372257411479949951171875" lon="7.18667537905275821685791015625"><ele></ele><time>2016-7-29T3:43:14Z</time></trkpt>
<trkpt lat="46.38772599399089813232421875" lon="7.18660832382738590240478515625"><ele></ele><time>2016-7-29T3:43:17Z</time></trkpt>
<trkpt lat="46.38772440142929553985595703125" lon="7.186595834791660308837890625"><ele></ele><time>2016-7-29T3:43:20Z</time></trkpt>
<trkpt lat="46.387703530490398406982421875" lon="7.18647086061537265777587890625"><ele></ele><time>2016-7-29T3:43:23Z</time></trkpt>
<trkpt lat="46.3876748643815517425537109375" lon="7.18627690337598323822021484375"><ele></ele><time>2016-7-29T3:43:26Z</time></trkpt>
<trkpt lat="46.3876698352396488189697265625" lon="7.18624052591621875762939453125"><ele></ele><time>2016-7-29T3:43:29Z</time></trkpt>
<trkpt lat="46.38761929236352443695068359375" lon="7.18617774546146392822265625"><ele></ele><time>2016-7-29T3:43:32Z</time></trkpt>
<trkpt lat="46.38751946389675140380859375" lon="7.1861430443823337554931640625"><ele></ele><time>2016-7-29T3:43:35Z</time></trkpt>
<trkpt lat="46.38747788965702056884765625" lon="7.186132483184337615966796875"><ele></ele><time>2016-7-29T3:43:38Z</time></trkpt>
<trkpt lat="46.3872651569545269012451171875" lon="7.18607850372791290283203125"><ele></ele><time>2016-7-29T3:43:41Z</time></trkpt>
<trkpt lat="46.38718477450311183929443359375" lon="7.186035253107547760009765625"><ele></ele><time>2016-7-29T3:43:44Z</time></trkpt>
<trkpt lat="46.38709659688174724578857421875" lon="7.185991667211055755615234375"><ele></ele><time>2016-7-29T3:43:47Z</time></trkpt>
<trkpt lat="46.38702459633350372314453125" lon="7.18593894504010677337646484375"><ele></ele><time>2016-7-29T3:43:50Z</time></trkpt>
<trkpt lat="46.38699182309210300445556640625" lon="7.18589016236364841461181640625"><ele></ele><time>2016-7-29T3:43:53Z</time></trkpt>
<trkpt lat="46.3869815133512020111083984375" lon="7.185849510133266448974609375"><ele></ele><time>2016-7-29T3:43:56Z</time></trkpt>
<trkpt lat="46.38697891496121883392333984375" lon="7.1858151443302631378173828125"><ele></ele><time>2016-7-29T3:43:59Z</time></trkpt>
<trkpt lat="46.38698729686439037322998046875" lon="7.18577784486114978790283203125"><ele></ele><time>2016-7-29T3:44:2Z</time></trkpt>
<trkpt lat="46.3870029710233211517333984375" lon="7.1857078559696674346923828125"><ele></ele><time>2016-7-29T3:44:5Z</time></trkpt>
<trkpt lat="46.387058794498443603515625" lon="7.18564557842910289764404296875"><ele></ele><time>2016-7-29T3:44:8Z</time></trkpt>
<trkpt lat="46.3870720379054546356201171875" lon="7.18563769944012165069580078125"><ele></ele><time>2016-7-29T3:44:11Z</time></trkpt>
<trkpt lat="46.38708603568375110626220703125" lon="7.185636274516582489013671875"><ele></ele><time>2016-7-29T3:44:14Z</time></trkpt>
<trkpt lat="46.38712191022932529449462890625" lon="7.1856190077960491180419921875"><ele></ele><time>2016-7-29T3:44:17Z</time></trkpt>
<trkpt lat="46.38717345893383026123046875" lon="7.1855948679149150848388671875"><ele></ele><time>2016-7-29T3:44:20Z</time></trkpt>
<trkpt lat="46.38723623938858509063720703125" lon="7.18557181768119335174560546875"><ele></ele><time>2016-7-29T3:44:23Z</time></trkpt>
<trkpt lat="46.38742952607572078704833984375" lon="7.1855294890701770782470703125"><ele></ele><time>2016-7-29T3:44:26Z</time></trkpt>
<trkpt lat="46.38755433261394500732421875" lon="7.18556762672960758209228515625"><ele></ele><time>2016-7-29T3:44:29Z</time></trkpt>
<trkpt lat="46.3875581882894039154052734375" lon="7.18559394590556621551513671875"><ele></ele><time>2016-7-29T3:44:32Z</time></trkpt>
<trkpt lat="46.3875578530132770538330078125" lon="7.18559528701007366180419921875"><ele></ele><time>2016-7-29T3:44:35Z</time></trkpt>
<trkpt lat="46.38755558989942073822021484375" lon="7.18558623455464839935302734375"><ele></ele><time>2016-7-29T3:44:38Z</time></trkpt>
<trkpt lat="46.38754787854850292205810546875" lon="7.18564666807651519775390625"><ele></ele><time>2016-7-29T3:44:41Z</time></trkpt>
<trkpt lat="46.3875980861485004425048828125" lon="7.18567105941474437713623046875"><ele></ele><time>2016-7-29T3:44:44Z</time></trkpt>
<trkpt lat="46.38764016330242156982421875" lon="7.18575873412191867828369140625"><ele></ele><time>2016-7-29T3:44:47Z</time></trkpt>
<trkpt lat="46.38770964927971363067626953125" lon="7.185812294483184814453125"><ele></ele><time>2016-7-29T3:44:50Z</time></trkpt>
<trkpt lat="46.38778123073279857635498046875" lon="7.185785472393035888671875"><ele></ele><time>2016-7-29T3:44:53Z</time></trkpt>
<trkpt lat="46.38786655850708484649658203125" lon="7.1857514418661594390869140625"><ele></ele><time>2016-7-29T3:44:56Z</time></trkpt>
<trkpt lat="46.38795490376651287078857421875" lon="7.18568497337400913238525390625"><ele></ele><time>2016-7-29T3:44:59Z</time></trkpt>
<trkpt lat="46.38795993290841579437255859375" lon="7.18568111769855022430419921875"><ele></ele><time>2016-7-29T3:45:2Z</time></trkpt>
<trkpt lat="46.3879632018506526947021484375" lon="7.185615487396717071533203125"><ele></ele><time>2016-7-29T3:45:5Z</time></trkpt>
<trkpt lat="46.387979127466678619384765625" lon="7.185606099665164947509765625"><ele></ele><time>2016-7-29T3:45:8Z</time></trkpt>
<trkpt lat="46.38800402171909809112548828125" lon="7.185592353343963623046875"><ele></ele><time>2016-7-29T3:45:11Z</time></trkpt>
<trkpt lat="46.388007290661334991455078125" lon="7.18559294007718563079833984375"><ele></ele><time>2016-7-29T3:45:14Z</time></trkpt>
<trkpt lat="46.38802531175315380096435546875" lon="7.18560920096933841705322265625"><ele></ele><time>2016-7-29T3:45:17Z</time></trkpt>
<trkpt lat="46.38805724680423736572265625" lon="7.18561406247317790985107421875"><ele></ele><time>2016-7-29T3:45:20Z</time></trkpt>
<trkpt lat="46.38809421099722385406494140625" lon="7.1856129728257656097412109375"><ele></ele><time>2016-7-29T3:45:23Z</time></trkpt>
<trkpt lat="46.38818674720823764801025390625" lon="7.18561657704412937164306640625"><ele></ele><time>2016-7-29T3:45:26Z</time></trkpt>
<trkpt lat="46.38831934891641139984130859375" lon="7.18563325703144073486328125"><ele></ele><time>2016-7-29T3:45:29Z</time></trkpt>
<trkpt lat="46.3884087838232517242431640625" lon="7.18560886569321155548095703125"><ele></ele><time>2016-7-29T3:45:32Z</time></trkpt>
<trkpt lat="46.3884198479354381561279296875" lon="7.1855972148478031158447265625"><ele></ele><time>2016-7-29T3:45:35Z</time></trkpt>
<trkpt lat="46.38842479325830936431884765625" lon="7.18560568057000637054443359375"><ele></ele><time>2016-7-29T3:45:38Z</time></trkpt>
<trkpt lat="46.388435773551464080810546875" lon="7.18558455817401409149169921875"><ele></ele><time>2016-7-29T3:45:41Z</time></trkpt>
<trkpt lat="46.38848748989403247833251953125" lon="7.1855641901493072509765625"><ele></ele><time>2016-7-29T3:45:44Z</time></trkpt>
<trkpt lat="46.388562507927417755126953125" lon="7.18555840663611888885498046875"><ele></ele><time>2016-7-29T3:45:47Z</time></trkpt>
<trkpt lat="46.38863350264728069305419921875" lon="7.18555010855197906494140625"><ele></ele><time>2016-7-29T3:45:50Z</time></trkpt>
<trkpt lat="46.38871061615645885467529296875" lon="7.1855244599282741546630859375"><ele></ele><time>2016-7-29T3:45:53Z</time></trkpt>
<trkpt lat="46.3887443952262401580810546875" lon="7.185496799647808074951171875"><ele></ele><time>2016-7-29T3:45:56Z</time></trkpt>
<trkpt lat="46.38875730335712432861328125" lon="7.1854708157479763031005859375"><ele></ele><time>2016-7-29T3:45:59Z</time></trkpt>
<trkpt lat="46.388819329440593719482421875" lon="7.185402251780033111572265625"><ele></ele><time>2016-7-29T3:46:2Z</time></trkpt>
<trkpt lat="46.388839781284332275390625" lon="7.1853715740144252777099609375"><ele></ele><time>2016-7-29T3:46:5Z</time></trkpt>
<trkpt lat="46.388858892023563385009765625" lon="7.18534735031425952911376953125"><ele></ele><time>2016-7-29T3:46:8Z</time></trkpt>
<trkpt lat="46.38895939104259014129638671875" lon="7.18529236502945423126220703125"><ele></ele><time>2016-7-29T3:46:11Z</time></trkpt>
<trkpt lat="46.38912853784859180450439453125" lon="7.18526219017803668975830078125"><ele></ele><time>2016-7-29T3:46:14Z</time></trkpt>
<trkpt lat="46.389284022152423858642578125" lon="7.1852206997573375701904296875"><ele></ele><time>2016-7-29T3:46:17Z</time></trkpt>
<trkpt lat="46.3893827609717845916748046875" lon="7.185156829655170440673828125"><ele></ele><time>2016-7-29T3:46:20Z</time></trkpt>
<trkpt lat="46.38945593498647212982177734375" lon="7.18499832786619663238525390625"><ele></ele><time>2016-7-29T3:46:23Z</time></trkpt>
<trkpt lat="46.38943766243755817413330078125" lon="7.184852063655853271484375"><ele></ele><time>2016-7-29T3:46:26Z</time></trkpt>
<trkpt lat="46.389392316341400146484375" lon="7.184619717299938201904296875"><ele></ele><time>2016-7-29T3:46:29Z</time></trkpt>
<trkpt lat="46.38934336602687835693359375" lon="7.18438058160245418548583984375"><ele></ele><time>2016-7-29T3:46:32Z</time></trkpt>
<trkpt lat="46.38931444846093654632568359375" lon="7.184153012931346893310546875"><ele></ele><time>2016-7-29T3:46:35Z</time></trkpt>
<trkpt lat="46.38931696303188800811767578125" lon="7.1840406954288482666015625"><ele></ele><time>2016-7-29T3:46:38Z</time></trkpt>
<trkpt lat="46.38932618312537670135498046875" lon="7.1840183995664119720458984375"><ele></ele><time>2016-7-29T3:46:41Z</time></trkpt>
<trkpt lat="46.3893898017704486846923828125" lon="7.1839614026248455047607421875"><ele></ele><time>2016-7-29T3:46:44Z</time></trkpt>
<trkpt lat="46.389405392110347747802734375" lon="7.183949165046215057373046875"><ele></ele><time>2016-7-29T3:46:47Z</time></trkpt>
<trkpt lat="46.3895009458065032958984375" lon="7.18383072875440120697021484375"><ele></ele><time>2016-7-29T3:46:50Z</time></trkpt>
<trkpt lat="46.38958610594272613525390625" lon="7.18371287919580936431884765625"><ele></ele><time>2016-7-29T3:46:53Z</time></trkpt>
<trkpt lat="46.3896566815674304962158203125" lon="7.18354758806526660919189453125"><ele></ele><time>2016-7-29T3:46:56Z</time></trkpt>
<trkpt lat="46.38970118947327136993408203125" lon="7.1834273077547550201416015625"><ele></ele><time>2016-7-29T3:46:59Z</time></trkpt>
<trkpt lat="46.3897418417036533355712890625" lon="7.18321792781352996826171875"><ele></ele><time>2016-7-29T3:47:2Z</time></trkpt>
<trkpt lat="46.389779560267925262451171875" lon="7.18307040631771087646484375"><ele></ele><time>2016-7-29T3:47:5Z</time></trkpt>
<trkpt lat="46.38983211480081081390380859375" lon="7.18287728726863861083984375"><ele></ele><time>2016-7-29T3:47:8Z</time></trkpt>
<trkpt lat="46.3899128325283527374267578125" lon="7.1826642192900180816650390625"><ele></ele><time>2016-7-29T3:47:11Z</time></trkpt>
<trkpt lat="46.389918364584445953369140625" lon="7.18262541107833385467529296875"><ele></ele><time>2016-7-29T3:47:14Z</time></trkpt>
<trkpt lat="46.38991878367960453033447265625" lon="7.18262122012674808502197265625"><ele></ele><time>2016-7-29T3:47:17Z</time></trkpt>
<trkpt lat="46.38992079533636569976806640625" lon="7.18258559703826904296875"><ele></ele><time>2016-7-29T3:47:20Z</time></trkpt>
<trkpt lat="46.38992272317409515380859375" lon="7.18256992287933826446533203125"><ele></ele><time>2016-7-29T3:47:23Z</time></trkpt>
<trkpt lat="46.38993236236274242401123046875" lon="7.18253932893276214599609375"><ele></ele><time>2016-7-29T3:47:26Z</time></trkpt>
<trkpt lat="46.38995080254971981048583984375" lon="7.18250957317650318145751953125"><ele></ele><time>2016-7-29T3:47:29Z</time></trkpt>
<trkpt lat="46.3899936340749263763427734375" lon="7.1824084036052227020263671875"><ele></ele><time>2016-7-29T3:47:32Z</time></trkpt>
<trkpt lat="46.39003998599946498870849609375" lon="7.18228778801858425140380859375"><ele></ele><time>2016-7-29T3:47:35Z</time></trkpt>
<trkpt lat="46.39007921330630779266357421875" lon="7.18221972696483135223388671875"><ele></ele><time>2016-7-29T3:47:38Z</time></trkpt>
<trkpt lat="46.39011978171765804290771484375" lon="7.18213004060089588165283203125"><ele></ele><time>2016-7-29T3:47:41Z</time></trkpt>
<trkpt lat="46.39016269706189632415771484375" lon="7.18202962540090084075927734375"><ele></ele><time>2016-7-29T3:47:44Z</time></trkpt>
<trkpt lat="46.39016152359545230865478515625" lon="7.18196357600390911102294921875"><ele></ele><time>2016-7-29T3:47:47Z</time></trkpt>
<trkpt lat="46.390154063701629638671875" lon="7.18187682330608367919921875"><ele></ele><time>2016-7-29T3:47:50Z</time></trkpt>
<trkpt lat="46.390095390379428863525390625" lon="7.1817298047244548797607421875"><ele></ele><time>2016-7-29T3:47:53Z</time></trkpt>
<trkpt lat="46.39005557633936405181884765625" lon="7.181604243814945220947265625"><ele></ele><time>2016-7-29T3:47:56Z</time></trkpt>
<trkpt lat="46.39005507342517375946044921875" lon="7.18158538453280925750732421875"><ele></ele><time>2016-7-29T3:47:59Z</time></trkpt>
<trkpt lat="46.3900687359273433685302734375" lon="7.181557305157184600830078125"><ele></ele><time>2016-7-29T3:48:2Z</time></trkpt>
<trkpt lat="46.390104107558727264404296875" lon="7.18150190077722072601318359375"><ele></ele><time>2016-7-29T3:48:5Z</time></trkpt>
<trkpt lat="46.3901445083320140838623046875" lon="7.18143551610410213470458984375"><ele></ele><time>2016-7-29T3:48:8Z</time></trkpt>
<trkpt lat="46.39015431515872478485107421875" lon="7.18128137290477752685546875"><ele></ele><time>2016-7-29T3:48:11Z</time></trkpt>
<trkpt lat="46.390132941305637359619140625" lon="7.18114650808274745941162109375"><ele></ele><time>2016-7-29T3:48:14Z</time></trkpt>
<trkpt lat="46.39012548141181468963623046875" lon="7.181138209998607635498046875"><ele></ele><time>2016-7-29T3:48:17Z</time></trkpt>
<trkpt lat="46.3900895230472087860107421875" lon="7.18109386973083019256591796875"><ele></ele><time>2016-7-29T3:48:20Z</time></trkpt>
<trkpt lat="46.39004610478878021240234375" lon="7.18104525469243526458740234375"><ele></ele><time>2016-7-29T3:48:23Z</time></trkpt>
<trkpt lat="46.39003001153469085693359375" lon="7.180977277457714080810546875"><ele></ele><time>2016-7-29T3:48:26Z</time></trkpt>
<trkpt lat="46.3900355435907840728759765625" lon="7.18091793358325958251953125"><ele></ele><time>2016-7-29T3:48:29Z</time></trkpt>
<trkpt lat="46.390043087303638458251953125" lon="7.18088063411414623260498046875"><ele></ele><time>2016-7-29T3:48:32Z</time></trkpt>
<trkpt lat="46.3900563307106494903564453125" lon="7.18083470128476619720458984375"><ele></ele><time>2016-7-29T3:48:35Z</time></trkpt>
<trkpt lat="46.39006613753736019134521484375" lon="7.180780470371246337890625"><ele></ele><time>2016-7-29T3:48:38Z</time></trkpt>
<trkpt lat="46.39006479643285274505615234375" lon="7.180678546428680419921875"><ele></ele><time>2016-7-29T3:48:41Z</time></trkpt>
<trkpt lat="46.3900791294872760772705078125" lon="7.18061174266040325164794921875"><ele></ele><time>2016-7-29T3:48:44Z</time></trkpt>
<trkpt lat="46.39009664766490459442138671875" lon="7.1805677376687526702880859375"><ele></ele><time>2016-7-29T3:48:47Z</time></trkpt>
<trkpt lat="46.39012522995471954345703125" lon="7.180491797626018524169921875"><ele></ele><time>2016-7-29T3:48:50Z</time></trkpt>
<trkpt lat="46.3901277445256710052490234375" lon="7.18046757392585277557373046875"><ele></ele><time>2016-7-29T3:48:53Z</time></trkpt>
<trkpt lat="46.39014693908393383026123046875" lon="7.1803876943886280059814453125"><ele></ele><time>2016-7-29T3:48:56Z</time></trkpt>
<trkpt lat="46.39015213586390018463134765625" lon="7.18034083954989910125732421875"><ele></ele><time>2016-7-29T3:48:59Z</time></trkpt>
<trkpt lat="46.39015146531164646148681640625" lon="7.1801890432834625244140625"><ele></ele><time>2016-7-29T3:49:2Z</time></trkpt>
<trkpt lat="46.39016437344253063201904296875" lon="7.18009089119732379913330078125"><ele></ele><time>2016-7-29T3:49:5Z</time></trkpt>
<trkpt lat="46.3901733420789241790771484375" lon="7.179965414106845855712890625"><ele></ele><time>2016-7-29T3:49:8Z</time></trkpt>
<trkpt lat="46.3901669718325138092041015625" lon="7.17986977659165859222412109375"><ele></ele><time>2016-7-29T3:49:11Z</time></trkpt>
<trkpt lat="46.39016437344253063201904296875" lon="7.17977019958198070526123046875"><ele></ele><time>2016-7-29T3:49:14Z</time></trkpt>
<trkpt lat="46.39015951193869113922119140625" lon="7.17968084849417209625244140625"><ele></ele><time>2016-7-29T3:49:17Z</time></trkpt>
<trkpt lat="46.3901639543473720550537109375" lon="7.179669030010700225830078125"><ele></ele><time>2016-7-29T3:49:20Z</time></trkpt>
<trkpt lat="46.39020896516740322113037109375" lon="7.17957288958132266998291015625"><ele></ele><time>2016-7-29T3:49:23Z</time></trkpt>
<trkpt lat="46.39025053940713405609130859375" lon="7.1794884838163852691650390625"><ele></ele><time>2016-7-29T3:49:26Z</time></trkpt>
<trkpt lat="46.3902814686298370361328125" lon="7.17940961010754108428955078125"><ele></ele><time>2016-7-29T3:49:29Z</time></trkpt>
<trkpt lat="46.39028943143784999847412109375" lon="7.1793763339519500732421875"><ele></ele><time>2016-7-29T3:49:32Z</time></trkpt>
<trkpt lat="46.39028758741915225982666015625" lon="7.17929746024310588836669921875"><ele></ele><time>2016-7-29T3:49:35Z</time></trkpt>
<trkpt lat="46.39030183665454387664794921875" lon="7.17926762066781520843505859375"><ele></ele><time>2016-7-29T3:49:38Z</time></trkpt>
<trkpt lat="46.39033150859177112579345703125" lon="7.17921213246881961822509765625"><ele></ele><time>2016-7-29T3:49:41Z</time></trkpt>
<trkpt lat="46.39036352746188640594482421875" lon="7.1790871582925319671630859375"><ele></ele><time>2016-7-29T3:49:44Z</time></trkpt>
<trkpt lat="46.390380375087261199951171875" lon="7.17902337200939655303955078125"><ele></ele><time>2016-7-29T3:49:47Z</time></trkpt>
<trkpt lat="46.39038808643817901611328125" lon="7.1790035068988800048828125"><ele></ele><time>2016-7-29T3:49:50Z</time></trkpt>
<trkpt lat="46.39041415415704250335693359375" lon="7.1789614297449588775634765625"><ele></ele><time>2016-7-29T3:49:53Z</time></trkpt>
<trkpt lat="46.39042337425053119659423828125" lon="7.17894793488085269927978515625"><ele></ele><time>2016-7-29T3:49:56Z</time></trkpt>
<trkpt lat="46.390481293201446533203125" lon="7.17889646999537944793701171875"><ele></ele><time>2016-7-29T3:49:59Z</time></trkpt>
<trkpt lat="46.3905069418251514434814453125" lon="7.17887383885681629180908203125"><ele></ele><time>2016-7-29T3:50:2Z</time></trkpt>
<trkpt lat="46.39051825739443302154541015625" lon="7.17886847443878650665283203125"><ele></ele><time>2016-7-29T3:50:5Z</time></trkpt>
<trkpt lat="46.39053049497306346893310546875" lon="7.1788403950631618499755859375"><ele></ele><time>2016-7-29T3:50:8Z</time></trkpt>
<trkpt lat="46.39053803868591785430908203125" lon="7.1788608469069004058837890625"><ele></ele><time>2016-7-29T3:50:11Z</time></trkpt>
<trkpt lat="46.39053585939109325408935546875" lon="7.17883897013962268829345703125"><ele></ele><time>2016-7-29T3:50:14Z</time></trkpt>
<trkpt lat="46.3905361108481884002685546875" lon="7.178820110857486724853515625"><ele></ele><time>2016-7-29T3:50:17Z</time></trkpt>
<trkpt lat="46.39055949635803699493408203125" lon="7.178788594901561737060546875"><ele></ele><time>2016-7-29T3:50:20Z</time></trkpt>
<trkpt lat="46.39060257934033870697021484375" lon="7.17874794267117977142333984375"><ele></ele><time>2016-7-29T3:50:23Z</time></trkpt>
<trkpt lat="46.39066242612898349761962890625" lon="7.1786281652748584747314453125"><ele></ele><time>2016-7-29T3:50:26Z</time></trkpt>
<trkpt lat="46.39076652936637401580810546875" lon="7.178586088120937347412109375"><ele></ele><time>2016-7-29T3:50:29Z</time></trkpt>
<trkpt lat="46.39095243997871875762939453125" lon="7.17853956855833530426025390625"><ele></ele><time>2016-7-29T3:50:32Z</time></trkpt>
<trkpt lat="46.39115042053163051605224609375" lon="7.178488187491893768310546875"><ele></ele><time>2016-7-29T3:50:35Z</time></trkpt>
<trkpt lat="46.39127028174698352813720703125" lon="7.178342342376708984375"><ele></ele><time>2016-7-29T3:50:38Z</time></trkpt>
<trkpt lat="46.3914121873676776885986328125" lon="7.17834410257637500762939453125"><ele></ele><time>2016-7-29T3:50:41Z</time></trkpt>
<trkpt lat="46.39163070358335971832275390625" lon="7.17848919332027435302734375"><ele></ele><time>2016-7-29T3:50:44Z</time></trkpt>
<trkpt lat="46.3918304443359375" lon="7.17862523160874843597412109375"><ele></ele><time>2016-7-29T3:50:47Z</time></trkpt>
<trkpt lat="46.39194150455296039581298828125" lon="7.178677283227443695068359375"><ele></ele><time>2016-7-29T3:50:50Z</time></trkpt>
<trkpt lat="46.3920706696808338165283203125" lon="7.17875540256500244140625"><ele></ele><time>2016-7-29T3:50:53Z</time></trkpt>
<trkpt lat="46.39222003519535064697265625" lon="7.17888272367417812347412109375"><ele></ele><time>2016-7-29T3:50:56Z</time></trkpt>
<trkpt lat="46.39235707931220531463623046875" lon="7.1789158321917057037353515625"><ele></ele><time>2016-7-29T3:50:59Z</time></trkpt>
<trkpt lat="46.392642147839069366455078125" lon="7.17880301177501678466796875"><ele></ele><time>2016-7-29T3:51:2Z</time></trkpt>
<trkpt lat="46.39284825883805751800537109375" lon="7.178661525249481201171875"><ele></ele><time>2016-7-29T3:51:5Z</time></trkpt>
<trkpt lat="46.3930439762771129608154296875" lon="7.17851978726685047149658203125"><ele></ele><time>2016-7-29T3:51:8Z</time></trkpt>
<trkpt lat="46.39313575811684131622314453125" lon="7.1785000897943973541259765625"><ele></ele><time>2016-7-29T3:51:11Z</time></trkpt>
<trkpt lat="46.39314212836325168609619140625" lon="7.1785161830484867095947265625"><ele></ele><time>2016-7-29T3:51:14Z</time></trkpt>
<trkpt lat="46.39314145781099796295166015625" lon="7.1785178594291210174560546875"><ele></ele><time>2016-7-29T3:51:17Z</time></trkpt>
<trkpt lat="46.393147408962249755859375" lon="7.17850386165082454681396484375"><ele></ele><time>2016-7-29T3:51:20Z</time></trkpt>
<trkpt lat="46.3931593112647533416748046875" lon="7.17852179892361164093017578125"><ele></ele><time>2016-7-29T3:51:23Z</time></trkpt>
<trkpt lat="46.393174566328525543212890625" lon="7.17854007147252559661865234375"><ele></ele><time>2016-7-29T3:51:26Z</time></trkpt>
<trkpt lat="46.3932307250797748565673828125" lon="7.17859220691025257110595703125"><ele></ele><time>2016-7-29T3:51:29Z</time></trkpt>
<trkpt lat="46.39333675615489482879638671875" lon="7.17875682748854160308837890625"><ele></ele><time>2016-7-29T3:51:32Z</time></trkpt>
<trkpt lat="46.39344974420964717864990234375" lon="7.1789818815886974334716796875"><ele></ele><time>2016-7-29T3:51:35Z</time></trkpt>
<trkpt lat="46.3935779035091400146484375" lon="7.1791939437389373779296875"><ele></ele><time>2016-7-29T3:51:38Z</time></trkpt>
<trkpt lat="46.39373992569744586944580078125" lon="7.17933467589318752288818359375"><ele></ele><time>2016-7-29T3:51:41Z</time></trkpt>
<trkpt lat="46.39377797953784465789794921875" lon="7.1793798543512821197509765625"><ele></ele><time>2016-7-29T3:51:44Z</time></trkpt>
<trkpt lat="46.39391074888408184051513671875" lon="7.17953332699835300445556640625"><ele></ele><time>2016-7-29T3:51:47Z</time></trkpt>
<trkpt lat="46.3939827494323253631591796875" lon="7.17971487902104854583740234375"><ele></ele><time>2016-7-29T3:51:50Z</time></trkpt>
<trkpt lat="46.3940055482089519500732421875" lon="7.1798318065702915191650390625"><ele></ele><time>2016-7-29T3:51:53Z</time></trkpt>
<trkpt lat="46.3940219767391681671142578125" lon="7.17987748794257640838623046875"><ele></ele><time>2016-7-29T3:51:56Z</time></trkpt>
<trkpt lat="46.39409095980226993560791015625" lon="7.17995745129883289337158203125"><ele></ele><time>2016-7-29T3:51:59Z</time></trkpt>
<trkpt lat="46.39417528174817562103271484375" lon="7.180036492645740509033203125"><ele></ele><time>2016-7-29T3:52:2Z</time></trkpt>
<trkpt lat="46.39423915185034275054931640625" lon="7.18014755286276340484619140625"><ele></ele><time>2016-7-29T3:52:5Z</time></trkpt>
<trkpt lat="46.3942673988640308380126953125" lon="7.180187366902828216552734375"><ele></ele><time>2016-7-29T3:52:8Z</time></trkpt>
<trkpt lat="46.3943877629935741424560546875" lon="7.18027931638062000274658203125"><ele></ele><time>2016-7-29T3:52:11Z</time></trkpt>
<trkpt lat="46.3944742642343044281005859375" lon="7.18031401745975017547607421875"><ele></ele><time>2016-7-29T3:52:14Z</time></trkpt>
<trkpt lat="46.3946204446256160736083984375" lon="7.180378139019012451171875"><ele></ele><time>2016-7-29T3:52:17Z</time></trkpt>
<trkpt lat="46.39477752149105072021484375" lon="7.180464975535869598388671875"><ele></ele><time>2016-7-29T3:52:20Z</time></trkpt>
<trkpt lat="46.394900567829608917236328125" lon="7.18055156059563159942626953125"><ele></ele><time>2016-7-29T3:52:23Z</time></trkpt>
<trkpt lat="46.3949718140065670013427734375" lon="7.18062733300030231475830078125"><ele></ele><time>2016-7-29T3:52:26Z</time></trkpt>
<trkpt lat="46.39497960917651653289794921875" lon="7.18062230385839939117431640625"><ele></ele><time>2016-7-29T3:52:29Z</time></trkpt>
<trkpt lat="46.3949726521968841552734375" lon="7.180616520345211029052734375"><ele></ele><time>2016-7-29T3:52:32Z</time></trkpt>
<trkpt lat="46.39501531608402729034423828125" lon="7.1806307695806026458740234375"><ele></ele><time>2016-7-29T3:52:35Z</time></trkpt>
<trkpt lat="46.3950331695377826690673828125" lon="7.180641330778598785400390625"><ele></ele><time>2016-7-29T3:52:38Z</time></trkpt>
<trkpt lat="46.39508924447000026702880859375" lon="7.18065046705305576324462890625"><ele></ele><time>2016-7-29T3:52:41Z</time></trkpt>
<trkpt lat="46.395222432911396026611328125" lon="7.18061241321265697479248046875"><ele></ele><time>2016-7-29T3:52:44Z</time></trkpt>
<trkpt lat="46.39528403989970684051513671875" lon="7.18059347011148929595947265625"><ele></ele><time>2016-7-29T3:52:47Z</time></trkpt>
<trkpt lat="46.3954086787998676300048828125" lon="7.18059045262634754180908203125"><ele></ele><time>2016-7-29T3:52:50Z</time></trkpt>
<trkpt lat="46.3957268558442592620849609375" lon="7.18065583147108554840087890625"><ele></ele><time>2016-7-29T3:52:53Z</time></trkpt>
<trkpt lat="46.39578846283257007598876953125" lon="7.1806713379919528961181640625"><ele></ele><time>2016-7-29T3:52:56Z</time></trkpt>
<trkpt lat="46.395914442837238311767578125" lon="7.18073462136089801788330078125"><ele></ele><time>2016-7-29T3:52:59Z</time></trkpt>
<trkpt lat="46.39596163295209407806396484375" lon="7.18075959943234920501708984375"><ele></ele><time>2016-7-29T3:53:2Z</time></trkpt>
<trkpt lat="46.395992897450923919677734375" lon="7.180774100124835968017578125"><ele></ele><time>2016-7-29T3:53:5Z</time></trkpt>
<trkpt lat="46.3961447775363922119140625" lon="7.18088951893150806427001953125"><ele></ele><time>2016-7-29T3:53:8Z</time></trkpt>
<trkpt lat="46.3963028602302074432373046875" lon="7.1810341067612171173095703125"><ele></ele><time>2016-7-29T3:53:11Z</time></trkpt>
<trkpt lat="46.3964195363223552703857421875" lon="7.18116511590778827667236328125"><ele></ele><time>2016-7-29T3:53:14Z</time></trkpt>
<trkpt lat="46.396559178829193115234375" lon="7.181323282420635223388671875"><ele></ele><time>2016-7-29T3:53:17Z</time></trkpt>
<trkpt lat="46.3966884277760982513427734375" lon="7.1813569776713848114013671875"><ele></ele><time>2016-7-29T3:53:20Z</time></trkpt>
<trkpt lat="46.39687509275972843170166015625" lon="7.18144088052213191986083984375"><ele></ele><time>2016-7-29T3:53:23Z</time></trkpt>
<trkpt lat="46.39709972776472568511962890625" lon="7.1816159784793853759765625"><ele></ele><time>2016-7-29T3:53:26Z</time></trkpt>
<trkpt lat="46.3972034119069576263427734375" lon="7.18158454634249210357666015625"><ele></ele><time>2016-7-29T3:53:29Z</time></trkpt>
<trkpt lat="46.3974230177700519561767578125" lon="7.18143400736153125762939453125"><ele></ele><time>2016-7-29T3:53:32Z</time></trkpt>
<trkpt lat="46.39757129363715648651123046875" lon="7.1814884059131145477294921875"><ele></ele><time>2016-7-29T3:53:35Z</time></trkpt>
<trkpt lat="46.39779324643313884735107421875" lon="7.18152813613414764404296875"><ele></ele><time>2016-7-29T3:53:38Z</time></trkpt>
<trkpt lat="46.3979913108050823211669921875" lon="7.18150709755718708038330078125"><ele></ele><time>2016-7-29T3:53:41Z</time></trkpt>
<trkpt lat="46.3982105813920497894287109375" lon="7.18157147057354450225830078125"><ele></ele><time>2016-7-29T3:53:44Z</time></trkpt>
<trkpt lat="46.39839439652860164642333984375" lon="7.1815631724894046783447265625"><ele></ele><time>2016-7-29T3:53:47Z</time></trkpt>
<trkpt lat="46.3985642977058887481689453125" lon="7.1816821955144405364990234375"><ele></ele><time>2016-7-29T3:53:50Z</time></trkpt>
<trkpt lat="46.39865071512758731842041015625" lon="7.1816818602383136749267578125"><ele></ele><time>2016-7-29T3:53:53Z</time></trkpt>
<trkpt lat="46.39866613782942295074462890625" lon="7.1816982887685298919677734375"><ele></ele><time>2016-7-29T3:53:56Z</time></trkpt>
<trkpt lat="46.39866379089653491973876953125" lon="7.18179459683597087860107421875"><ele></ele><time>2016-7-29T3:53:59Z</time></trkpt>
<trkpt lat="46.3985941372811794281005859375" lon="7.1819118596613407135009765625"><ele></ele><time>2016-7-29T3:54:2Z</time></trkpt>
<trkpt lat="46.3985720090568065643310546875" lon="7.18194781802594661712646484375"><ele></ele><time>2016-7-29T3:54:5Z</time></trkpt>
<trkpt lat="46.39844250865280628204345703125" lon="7.18218938447535037994384765625"><ele></ele><time>2016-7-29T3:54:8Z</time></trkpt>
<trkpt lat="46.3983265869319438934326171875" lon="7.18226574361324310302734375"><ele></ele><time>2016-7-29T3:54:11Z</time></trkpt>
<trkpt lat="46.398171521723270416259765625" lon="7.18223481439054012298583984375"><ele></ele><time>2016-7-29T3:54:14Z</time></trkpt>
<trkpt lat="46.39798334799706935882568359375" lon="7.1822261810302734375"><ele></ele><time>2016-7-29T3:54:17Z</time></trkpt>
<trkpt lat="46.39789265580475330352783203125" lon="7.1823571063578128814697265625"><ele></ele><time>2016-7-29T3:54:20Z</time></trkpt>
<trkpt lat="46.397901289165019989013671875" lon="7.182545363903045654296875"><ele></ele><time>2016-7-29T3:54:23Z</time></trkpt>
<trkpt lat="46.3980114273726940155029296875" lon="7.18269623816013336181640625"><ele></ele><time>2016-7-29T3:54:26Z</time></trkpt>
<trkpt lat="46.39807286672294139862060546875" lon="7.18272984959185123443603515625"><ele></ele><time>2016-7-29T3:54:29Z</time></trkpt>
<trkpt lat="46.39813053421676158905029296875" lon="7.18269598670303821563720703125"><ele></ele><time>2016-7-29T3:54:32Z</time></trkpt>
<trkpt lat="46.398233212530612945556640625" lon="7.18269146047532558441162109375"><ele></ele><time>2016-7-29T3:54:35Z</time></trkpt>
<trkpt lat="46.39825928024947643280029296875" lon="7.18271040357649326324462890625"><ele></ele><time>2016-7-29T3:54:38Z</time></trkpt>
<trkpt lat="46.39844887889921665191650390625" lon="7.18278131447732448577880859375"><ele></ele><time>2016-7-29T3:54:41Z</time></trkpt>
<trkpt lat="46.3986404053866863250732421875" lon="7.1828667260706424713134765625"><ele></ele><time>2016-7-29T3:54:44Z</time></trkpt>
<trkpt lat="46.39876202680170536041259765625" lon="7.18292632140219211578369140625"><ele></ele><time>2016-7-29T3:54:47Z</time></trkpt>
<trkpt lat="46.39879438094794750213623046875" lon="7.182933278381824493408203125"><ele></ele><time>2016-7-29T3:54:50Z</time></trkpt>
<trkpt lat="46.39889915473759174346923828125" lon="7.182917855679988861083984375"><ele></ele><time>2016-7-29T3:54:53Z</time></trkpt>
<trkpt lat="46.39896989800035953521728515625" lon="7.18289874494075775146484375"><ele></ele><time>2016-7-29T3:54:56Z</time></trkpt>
<trkpt lat="46.39914927072823047637939453125" lon="7.1829089708626270294189453125"><ele></ele><time>2016-7-29T3:54:59Z</time></trkpt>
<trkpt lat="46.39940173365175724029541015625" lon="7.1830695681273937225341796875"><ele></ele><time>2016-7-29T3:55:2Z</time></trkpt>
<trkpt lat="46.3995386101305484771728515625" lon="7.1832449175417423248291015625"><ele></ele><time>2016-7-29T3:55:5Z</time></trkpt>
<trkpt lat="46.39959787018597126007080078125" lon="7.18338145874440670013427734375"><ele></ele><time>2016-7-29T3:55:8Z</time></trkpt>
<trkpt lat="46.39950432814657688140869140625" lon="7.1834484301507472991943359375"><ele></ele><time>2016-7-29T3:55:11Z</time></trkpt>
<trkpt lat="46.39946375973522663116455078125" lon="7.18345127999782562255859375"><ele></ele><time>2016-7-29T3:55:14Z</time></trkpt>
<trkpt lat="46.39931422658264636993408203125" lon="7.1835419721901416778564453125"><ele></ele><time>2016-7-29T3:55:17Z</time></trkpt>
<trkpt lat="46.39919646084308624267578125" lon="7.18376384116709232330322265625"><ele></ele><time>2016-7-29T3:55:20Z</time></trkpt>
<trkpt lat="46.39920593239367008209228515625" lon="7.18400456942617893218994140625"><ele></ele><time>2016-7-29T3:55:23Z</time></trkpt>
<trkpt lat="46.399310790002346038818359375" lon="7.18412945978343486785888671875"><ele></ele><time>2016-7-29T3:55:26Z</time></trkpt>
<trkpt lat="46.39946577139198780059814453125" lon="7.18414127826690673828125"><ele></ele><time>2016-7-29T3:55:29Z</time></trkpt>
<trkpt lat="46.39961899258196353912353515625" lon="7.1841843612492084503173828125"><ele></ele><time>2016-7-29T3:55:32Z</time></trkpt>
<trkpt lat="46.3997642509639263153076171875" lon="7.1842504106462001800537109375"><ele></ele><time>2016-7-29T3:55:35Z</time></trkpt>
<trkpt lat="46.399837173521518707275390625" lon="7.184295170009136199951171875"><ele></ele><time>2016-7-29T3:55:38Z</time></trkpt>
<trkpt lat="46.39983952045440673828125" lon="7.1843295358121395111083984375"><ele></ele><time>2016-7-29T3:55:41Z</time></trkpt>
<trkpt lat="46.39978076331317424774169921875" lon="7.18439131043851375579833984375"><ele></ele><time>2016-7-29T3:55:44Z</time></trkpt>
<trkpt lat="46.39975042082369327545166015625" lon="7.18440673314034938812255859375"><ele></ele><time>2016-7-29T3:55:47Z</time></trkpt>
<trkpt lat="46.39956199564039707183837890625" lon="7.1845303662121295928955078125"><ele></ele><time>2016-7-29T3:55:50Z</time></trkpt>
<trkpt lat="46.3993468321859836578369140625" lon="7.18471057713031768798828125"><ele></ele><time>2016-7-29T3:55:53Z</time></trkpt>
<trkpt lat="46.3993065990507602691650390625" lon="7.18473513610661029815673828125"><ele></ele><time>2016-7-29T3:55:56Z</time></trkpt>
<trkpt lat="46.39907576143741607666015625" lon="7.18485918827354907989501953125"><ele></ele><time>2016-7-29T3:55:59Z</time></trkpt>
<trkpt lat="46.3990360312163829803466796875" lon="7.1848592720925807952880859375"><ele></ele><time>2016-7-29T3:56:2Z</time></trkpt>
<trkpt lat="46.39892958104610443115234375" lon="7.1847704239189624786376953125"><ele></ele><time>2016-7-29T3:56:5Z</time></trkpt>
<trkpt lat="46.39879069291055202484130859375" lon="7.18474620021879673004150390625"><ele></ele><time>2016-7-29T3:56:8Z</time></trkpt>
<trkpt lat="46.39873956330120563507080078125" lon="7.18488031066954135894775390625"><ele></ele><time>2016-7-29T3:56:11Z</time></trkpt>
<trkpt lat="46.398639567196369171142578125" lon="7.1850641258060932159423828125"><ele></ele><time>2016-7-29T3:56:14Z</time></trkpt>
<trkpt lat="46.39847117476165294647216796875" lon="7.18521240167319774627685546875"><ele></ele><time>2016-7-29T3:56:17Z</time></trkpt>
<trkpt lat="46.3984697498381137847900390625" lon="7.1853621862828731536865234375"><ele></ele><time>2016-7-29T3:56:20Z</time></trkpt>
<trkpt lat="46.3985534012317657470703125" lon="7.18556762672960758209228515625"><ele></ele><time>2016-7-29T3:56:23Z</time></trkpt>
<trkpt lat="46.39852012507617473602294921875" lon="7.185705341398715972900390625"><ele></ele><time>2016-7-29T3:56:26Z</time></trkpt>
<trkpt lat="46.39849263243377208709716796875" lon="7.18572487123310565948486328125"><ele></ele><time>2016-7-29T3:56:29Z</time></trkpt>
<trkpt lat="46.39842373318970203399658203125" lon="7.18573174439370632171630859375"><ele></ele><time>2016-7-29T3:56:32Z</time></trkpt>
<trkpt lat="46.39834997244179248809814453125" lon="7.18571598641574382781982421875"><ele></ele><time>2016-7-29T3:56:35Z</time></trkpt>
<trkpt lat="46.398267410695552825927734375" lon="7.18573777936398983001708984375"><ele></ele><time>2016-7-29T3:56:38Z</time></trkpt>
<trkpt lat="46.398246288299560546875" lon="7.1857433952391147613525390625"><ele></ele><time>2016-7-29T3:56:41Z</time></trkpt>
<trkpt lat="46.398144029080867767333984375" lon="7.18567659147083759307861328125"><ele></ele><time>2016-7-29T3:56:44Z</time></trkpt>
<trkpt lat="46.39801553450524806976318359375" lon="7.18565010465681552886962890625"><ele></ele><time>2016-7-29T3:56:47Z</time></trkpt>
<trkpt lat="46.397846639156341552734375" lon="7.18566485680639743804931640625"><ele></ele><time>2016-7-29T3:56:50Z</time></trkpt>
<trkpt lat="46.39768009074032306671142578125" lon="7.18563870526850223541259765625"><ele></ele><time>2016-7-29T3:56:53Z</time></trkpt>
<trkpt lat="46.39750625006854534149169921875" lon="7.18560383655130863189697265625"><ele></ele><time>2016-7-29T3:56:56Z</time></trkpt>
<trkpt lat="46.39724708162248134613037109375" lon="7.18557969667017459869384765625"><ele></ele><time>2016-7-29T3:56:59Z</time></trkpt>
<trkpt lat="46.396922282874584197998046875" lon="7.185587324202060699462890625"><ele></ele><time>2016-7-29T3:57:2Z</time></trkpt>
<trkpt lat="46.39668549410998821258544921875" lon="7.18561942689120769500732421875"><ele></ele><time>2016-7-29T3:57:5Z</time></trkpt>
<trkpt lat="46.39666135422885417938232421875" lon="7.18564708717167377471923828125"><ele></ele><time>2016-7-29T3:57:8Z</time></trkpt>
<trkpt lat="46.39665783382952213287353515625" lon="7.185805253684520721435546875"><ele></ele><time>2016-7-29T3:57:11Z</time></trkpt>
<trkpt lat="46.39678708277642726898193359375" lon="7.1859599836170673370361328125"><ele></ele><time>2016-7-29T3:57:14Z</time></trkpt>
<trkpt lat="46.3970126397907733917236328125" lon="7.18622392974793910980224609375"><ele></ele><time>2016-7-29T3:57:17Z</time></trkpt>
<trkpt lat="46.39705949462950229644775390625" lon="7.1862915717065334320068359375"><ele></ele><time>2016-7-29T3:57:20Z</time></trkpt>
<trkpt lat="46.39720492064952850341796875" lon="7.1864917315542697906494140625"><ele></ele><time>2016-7-29T3:57:23Z</time></trkpt>
<trkpt lat="46.39722771942615509033203125" lon="7.186542861163616180419921875"><ele></ele><time>2016-7-29T3:57:26Z</time></trkpt>
<trkpt lat="46.39727189205586910247802734375" lon="7.1868092380464076995849609375"><ele></ele><time>2016-7-29T3:57:29Z</time></trkpt>
<trkpt lat="46.39732318930327892303466796875" lon="7.18695952557027339935302734375"><ele></ele><time>2016-7-29T3:57:32Z</time></trkpt>
<trkpt lat="46.3973455689847469329833984375" lon="7.186993472278118133544921875"><ele></ele><time>2016-7-29T3:57:35Z</time></trkpt>
<trkpt lat="46.39740876853466033935546875" lon="7.18712029047310352325439453125"><ele></ele><time>2016-7-29T3:57:38Z</time></trkpt>
<trkpt lat="46.39747624285519123077392578125" lon="7.18721433542668819427490234375"><ele></ele><time>2016-7-29T3:57:41Z</time></trkpt>
<trkpt lat="46.3975075073540210723876953125" lon="7.18727669678628444671630859375"><ele></ele><time>2016-7-29T3:57:44Z</time></trkpt>
<trkpt lat="46.39760917983949184417724609375" lon="7.18743746168911457061767578125"><ele></ele><time>2016-7-29T3:57:47Z</time></trkpt>
<trkpt lat="46.3976520113646984100341796875" lon="7.18747551552951335906982421875"><ele></ele><time>2016-7-29T3:57:50Z</time></trkpt>
<trkpt lat="46.39776407741010189056396484375" lon="7.18757383525371551513671875"><ele></ele><time>2016-7-29T3:57:53Z</time></trkpt>
<trkpt lat="46.3979876227676868438720703125" lon="7.18771976418793201446533203125"><ele></ele><time>2016-7-29T3:57:56Z</time></trkpt>
<trkpt lat="46.39820806682109832763671875" lon="7.1878449060022830963134765625"><ele></ele><time>2016-7-29T3:57:59Z</time></trkpt>
<trkpt lat="46.39830990694463253021240234375" lon="7.1879096142947673797607421875"><ele></ele><time>2016-7-29T3:58:2Z</time></trkpt>
<trkpt lat="46.3984368927776813507080078125" lon="7.18794004060328006744384765625"><ele></ele><time>2016-7-29T3:58:5Z</time></trkpt>
<trkpt lat="46.39870435930788516998291015625" lon="7.1880050003528594970703125"><ele></ele><time>2016-7-29T3:58:8Z</time></trkpt>
<trkpt lat="46.3989289104938507080078125" lon="7.18811488710343837738037109375"><ele></ele><time>2016-7-29T3:58:11Z</time></trkpt>
<trkpt lat="46.3989771902561187744140625" lon="7.18815495260059833526611328125"><ele></ele><time>2016-7-29T3:58:14Z</time></trkpt>
<trkpt lat="46.39918950386345386505126953125" lon="7.1883290447294712066650390625"><ele></ele><time>2016-7-29T3:58:17Z</time></trkpt>
<trkpt lat="46.39925010502338409423828125" lon="7.18835611827671527862548828125"><ele></ele><time>2016-7-29T3:58:20Z</time></trkpt>
<trkpt lat="46.39954154379665851593017578125" lon="7.18843214213848114013671875"><ele></ele><time>2016-7-29T3:58:23Z</time></trkpt>
<trkpt lat="46.4000071585178375244140625" lon="7.1885349042713642120361328125"><ele></ele><time>2016-7-29T3:58:26Z</time></trkpt>
<trkpt lat="46.4005109108984470367431640625" lon="7.1887265145778656005859375"><ele></ele><time>2016-7-29T3:58:29Z</time></trkpt>
<trkpt lat="46.401043497025966644287109375" lon="7.1890156902372837066650390625"><ele></ele><time>2016-7-29T3:58:32Z</time></trkpt>
<trkpt lat="46.401589326560497283935546875" lon="7.18932389281690120697021484375"><ele></ele><time>2016-7-29T3:58:35Z</time></trkpt>
<trkpt lat="46.4016531966626644134521484375" lon="7.18935004435479640960693359375"><ele></ele><time>2016-7-29T3:58:38Z</time></trkpt>
<trkpt lat="46.40171430073678493499755859375" lon="7.1893737651407718658447265625"><ele></ele><time>2016-7-29T3:58:41Z</time></trkpt>
<trkpt lat="46.4019247703254222869873046875" lon="7.1894532255828380584716796875"><ele></ele><time>2016-7-29T3:58:44Z</time></trkpt>
<trkpt lat="46.40210523270070552825927734375" lon="7.18953394331037998199462890625"><ele></ele><time>2016-7-29T3:58:47Z</time></trkpt>
<trkpt lat="46.4021621458232402801513671875" lon="7.18955892138183116912841796875"><ele></ele><time>2016-7-29T3:58:50Z</time></trkpt>
<trkpt lat="46.40225417912006378173828125" lon="7.189583815634250640869140625"><ele></ele><time>2016-7-29T3:58:53Z</time></trkpt>
<trkpt lat="46.40242047607898712158203125" lon="7.1895551495254039764404296875"><ele></ele><time>2016-7-29T3:58:56Z</time></trkpt>
<trkpt lat="46.40260420739650726318359375" lon="7.1894746832549571990966796875"><ele></ele><time>2016-7-29T3:58:59Z</time></trkpt>
<trkpt lat="46.40274502336978912353515625" lon="7.1894146688282489776611328125"><ele></ele><time>2016-7-29T3:59:2Z</time></trkpt>
<trkpt lat="46.402933113276958465576171875" lon="7.1893402375280857086181640625"><ele></ele><time>2016-7-29T3:59:5Z</time></trkpt>
<trkpt lat="46.403146348893642425537109375" lon="7.1892316080629825592041015625"><ele></ele><time>2016-7-29T3:59:8Z</time></trkpt>
<trkpt lat="46.403324715793132781982421875" lon="7.1892014332115650177001953125"><ele></ele><time>2016-7-29T3:59:11Z</time></trkpt>
<trkpt lat="46.40351372770965099334716796875" lon="7.1893026866018772125244140625"><ele></ele><time>2016-7-29T3:59:14Z</time></trkpt>
<trkpt lat="46.4037583954632282257080078125" lon="7.18953855335712432861328125"><ele></ele><time>2016-7-29T3:59:17Z</time></trkpt>
<trkpt lat="46.40403038822114467620849609375" lon="7.18979596160352230072021484375"><ele></ele><time>2016-7-29T3:59:20Z</time></trkpt>
<trkpt lat="46.4043380878865718841552734375" lon="7.19006971456110477447509765625"><ele></ele><time>2016-7-29T3:59:23Z</time></trkpt>
<trkpt lat="46.40465903095901012420654296875" lon="7.19036308117210865020751953125"><ele></ele><time>2016-7-29T3:59:26Z</time></trkpt>
<trkpt lat="46.40490881167352199554443359375" lon="7.19047405757009983062744140625"><ele></ele><time>2016-7-29T3:59:29Z</time></trkpt>
<trkpt lat="46.4052339456975460052490234375" lon="7.1905757300555706024169921875"><ele></ele><time>2016-7-29T3:59:32Z</time></trkpt>
<trkpt lat="46.4054092951118946075439453125" lon="7.19054111279547214508056640625"><ele></ele><time>2016-7-29T3:59:35Z</time></trkpt>
<trkpt lat="46.40545765869319438934326171875" lon="7.19051931984722614288330078125"><ele></ele><time>2016-7-29T3:59:38Z</time></trkpt>
<trkpt lat="46.40558875165879726409912109375" lon="7.19045645557343959808349609375"><ele></ele><time>2016-7-29T3:59:41Z</time></trkpt>
<trkpt lat="46.4057898335158824920654296875" lon="7.19035503454506397247314453125"><ele></ele><time>2016-7-29T3:59:44Z</time></trkpt>
<trkpt lat="46.40613273717463016510009765625" lon="7.19017046503722667694091796875"><ele></ele><time>2016-7-29T3:59:47Z</time></trkpt>
<trkpt lat="46.406424343585968017578125" lon="7.19003937207162380218505859375"><ele></ele><time>2016-7-29T3:59:50Z</time></trkpt>
<trkpt lat="46.40661318786442279815673828125" lon="7.18994247727096080780029296875"><ele></ele><time>2016-7-29T3:59:53Z</time></trkpt>
<trkpt lat="46.40692926943302154541015625" lon="7.18975958414375782012939453125"><ele></ele><time>2016-7-29T3:59:56Z</time></trkpt>
<trkpt lat="46.4070477895438671112060546875" lon="7.18970761634409427642822265625"><ele></ele><time>2016-7-29T3:59:59Z</time></trkpt>
<trkpt lat="46.4072050340473651885986328125" lon="7.1896818839013576507568359375"><ele></ele><time>2016-7-29T4:0:2Z</time></trkpt>
<trkpt lat="46.40724040567874908447265625" lon="7.18968205153942108154296875"><ele></ele><time>2016-7-29T4:0:5Z</time></trkpt>
<trkpt lat="46.407337300479412078857421875" lon="7.189709208905696868896484375"><ele></ele><time>2016-7-29T4:0:8Z</time></trkpt>
<trkpt lat="46.40735180117189884185791015625" lon="7.189714908599853515625"><ele></ele><time>2016-7-29T4:0:11Z</time></trkpt>
<trkpt lat="46.40734861604869365692138671875" lon="7.1897402219474315643310546875"><ele></ele><time>2016-7-29T4:0:14Z</time></trkpt>
<trkpt lat="46.40734501183032989501953125" lon="7.18974634073674678802490234375"><ele></ele><time>2016-7-29T4:0:17Z</time></trkpt>
<trkpt lat="46.4073498733341693878173828125" lon="7.189760170876979827880859375"><ele></ele><time>2016-7-29T4:0:20Z</time></trkpt>
<trkpt lat="46.4073451794683933258056640625" lon="7.18975287862122058868408203125"><ele></ele><time>2016-7-29T4:0:23Z</time></trkpt>
<trkpt lat="46.40734794549643993377685546875" lon="7.18975354917347431182861328125"><ele></ele><time>2016-7-29T4:0:26Z</time></trkpt>
<trkpt lat="46.40734107233583927154541015625" lon="7.18976511619985103607177734375"><ele></ele><time>2016-7-29T4:0:29Z</time></trkpt>
<trkpt lat="46.40734476037323474884033203125" lon="7.18975924886763095855712890625"><ele></ele><time>2016-7-29T4:0:32Z</time></trkpt>
<trkpt lat="46.40734844841063022613525390625" lon="7.18976679258048534393310546875"><ele></ele><time>2016-7-29T4:0:35Z</time></trkpt>
<trkpt lat="46.4073646254837512969970703125" lon="7.18974952585995197296142578125"><ele></ele><time>2016-7-29T4:0:38Z</time></trkpt>
<trkpt lat="46.40738449059426784515380859375" lon="7.18971532769501209259033203125"><ele></ele><time>2016-7-29T4:0:41Z</time></trkpt>
<trkpt lat="46.40741667710244655609130859375" lon="7.18970912508666515350341796875"><ele></ele><time>2016-7-29T4:0:44Z</time></trkpt>
<trkpt lat="46.40743880532681941986083984375" lon="7.18973913230001926422119140625"><ele></ele><time>2016-7-29T4:0:47Z</time></trkpt>
<trkpt lat="46.407416425645351409912109375" lon="7.1897217817604541778564453125"><ele></ele><time>2016-7-29T4:0:50Z</time></trkpt>
<trkpt lat="46.407406367361545562744140625" lon="7.1897190995514392852783203125"><ele></ele><time>2016-7-29T4:0:53Z</time></trkpt>
<trkpt lat="46.40745942480862140655517578125" lon="7.18973024748265743255615234375"><ele></ele><time>2016-7-29T4:0:56Z</time></trkpt>
<trkpt lat="46.40761080197989940643310546875" lon="7.18977299518883228302001953125"><ele></ele><time>2016-7-29T4:0:59Z</time></trkpt>
<trkpt lat="46.4078444056212902069091796875" lon="7.18981842510402202606201171875"><ele></ele><time>2016-7-29T4:1:2Z</time></trkpt>
<trkpt lat="46.40808555297553539276123046875" lon="7.1899608336389064788818359375"><ele></ele><time>2016-7-29T4:1:5Z</time></trkpt>
<trkpt lat="46.4082480780780315399169921875" lon="7.19008035957813262939453125"><ele></ele><time>2016-7-29T4:1:8Z</time></trkpt>
<trkpt lat="46.40837095677852630615234375" lon="7.1900614164769649505615234375"><ele></ele><time>2016-7-29T4:1:11Z</time></trkpt>
<trkpt lat="46.4085494913160800933837890625" lon="7.1899879910051822662353515625"><ele></ele><time>2016-7-29T4:1:14Z</time></trkpt>
<trkpt lat="46.40885467641055583953857421875" lon="7.18985027633607387542724609375"><ele></ele><time>2016-7-29T4:1:17Z</time></trkpt>
<trkpt lat="46.4090969972312450408935546875" lon="7.1897435747087001800537109375"><ele></ele><time>2016-7-29T4:1:20Z</time></trkpt>
<trkpt lat="46.409363709390163421630859375" lon="7.18962329439818859100341796875"><ele></ele><time>2016-7-29T4:1:23Z</time></trkpt>
<trkpt lat="46.4095630310475826263427734375" lon="7.18954123556613922119140625"><ele></ele><time>2016-7-29T4:1:26Z</time></trkpt>
<trkpt lat="46.40973712317645549774169921875" lon="7.18946822918951511383056640625"><ele></ele><time>2016-7-29T4:1:29Z</time></trkpt>
<trkpt lat="46.40985287725925445556640625" lon="7.1894210390746593475341796875"><ele></ele><time>2016-7-29T4:1:32Z</time></trkpt>
<trkpt lat="46.40993711538612842559814453125" lon="7.1893895231187343597412109375"><ele></ele><time>2016-7-29T4:1:35Z</time></trkpt>
<trkpt lat="46.4100619219243526458740234375" lon="7.1893372200429439544677734375"><ele></ele><time>2016-7-29T4:1:38Z</time></trkpt>
<trkpt lat="46.4103093557059764862060546875" lon="7.18923521228134632110595703125"><ele></ele><time>2016-7-29T4:1:41Z</time></trkpt>
<trkpt lat="46.41049769707024097442626953125" lon="7.18912641517817974090576171875"><ele></ele><time>2016-7-29T4:1:44Z</time></trkpt>
<trkpt lat="46.4106620661914348602294921875" lon="7.18898794613778591156005859375"><ele></ele><time>2016-7-29T4:1:47Z</time></trkpt>
<trkpt lat="46.41097881831228733062744140625" lon="7.1887015365064144134521484375"><ele></ele><time>2016-7-29T4:1:50Z</time></trkpt>
<trkpt lat="46.4112591929733753204345703125" lon="7.18839718960225582122802734375"><ele></ele><time>2016-7-29T4:1:53Z</time></trkpt>
<trkpt lat="46.4114070497453212738037109375" lon="7.1881526894867420196533203125"><ele></ele><time>2016-7-29T4:1:56Z</time></trkpt>
<trkpt lat="46.41153353266417980194091796875" lon="7.1879481710493564605712890625"><ele></ele><time>2016-7-29T4:1:59Z</time></trkpt>
<trkpt lat="46.41169689595699310302734375" lon="7.18788136728107929229736328125"><ele></ele><time>2016-7-29T4:2:2Z</time></trkpt>
<trkpt lat="46.411935277283191680908203125" lon="7.18794708140194416046142578125"><ele></ele><time>2016-7-29T4:2:5Z</time></trkpt>
<trkpt lat="46.4121691323816776275634765625" lon="7.18803542666137218475341796875"><ele></ele><time>2016-7-29T4:2:8Z</time></trkpt>
<trkpt lat="46.41248420812189579010009765625" lon="7.1881176531314849853515625"><ele></ele><time>2016-7-29T4:2:11Z</time></trkpt>
<trkpt lat="46.41276198439300060272216796875" lon="7.1880661882460117340087890625"><ele></ele><time>2016-7-29T4:2:14Z</time></trkpt>
<trkpt lat="46.41310865990817546844482421875" lon="7.187976837158203125"><ele></ele><time>2016-7-29T4:2:17Z</time></trkpt>
<trkpt lat="46.4133482985198497772216796875" lon="7.1879404596984386444091796875"><ele></ele><time>2016-7-29T4:2:20Z</time></trkpt>
<trkpt lat="46.4135340414941310882568359375" lon="7.18793601728975772857666015625"><ele></ele><time>2016-7-29T4:2:23Z</time></trkpt>
<trkpt lat="46.413645185530185699462890625" lon="7.1879327483475208282470703125"><ele></ele><time>2016-7-29T4:2:26Z</time></trkpt>
<trkpt lat="46.41368298791348934173583984375" lon="7.1879243664443492889404296875"><ele></ele><time>2016-7-29T4:2:29Z</time></trkpt>
<trkpt lat="46.413805447518825531005859375" lon="7.18786225654184818267822265625"><ele></ele><time>2016-7-29T4:2:32Z</time></trkpt>
<trkpt lat="46.41398875974118709564208984375" lon="7.18776100315153598785400390625"><ele></ele><time>2016-7-29T4:2:35Z</time></trkpt>
<trkpt lat="46.41415220685303211212158203125" lon="7.18767173588275909423828125"><ele></ele><time>2016-7-29T4:2:38Z</time></trkpt>
<trkpt lat="46.4143113791942596435546875" lon="7.1875605918467044830322265625"><ele></ele><time>2016-7-29T4:2:41Z</time></trkpt>
<trkpt lat="46.41457867808640003204345703125" lon="7.18737065792083740234375"><ele></ele><time>2016-7-29T4:2:44Z</time></trkpt>
<trkpt lat="46.41492359340190887451171875" lon="7.1872165985405445098876953125"><ele></ele><time>2016-7-29T4:2:47Z</time></trkpt>
<trkpt lat="46.41542114317417144775390625" lon="7.1870342083275318145751953125"><ele></ele><time>2016-7-29T4:2:50Z</time></trkpt>
<trkpt lat="46.41572632826864719390869140625" lon="7.18689632602035999298095703125"><ele></ele><time>2016-7-29T4:2:53Z</time></trkpt>
<trkpt lat="46.415879465639591217041015625" lon="7.18672784976661205291748046875"><ele></ele><time>2016-7-29T4:2:56Z</time></trkpt>
<trkpt lat="46.4161783643066883087158203125" lon="7.18632669188082218170166015625"><ele></ele><time>2016-7-29T4:2:59Z</time></trkpt>
<trkpt lat="46.4164224453270435333251953125" lon="7.186071462929248809814453125"><ele></ele><time>2016-7-29T4:3:2Z</time></trkpt>
<trkpt lat="46.41675964929163455963134765625" lon="7.185760326683521270751953125"><ele></ele><time>2016-7-29T4:3:5Z</time></trkpt>
<trkpt lat="46.41705754213035106658935546875" lon="7.185367383062839508056640625"><ele></ele><time>2016-7-29T4:3:8Z</time></trkpt>
<trkpt lat="46.4173736236989498138427734375" lon="7.1848384849727153778076171875"><ele></ele><time>2016-7-29T4:3:11Z</time></trkpt>
<trkpt lat="46.4176666550338268280029296875" lon="7.1845417656004428863525390625"><ele></ele><time>2016-7-29T4:3:14Z</time></trkpt>
<trkpt lat="46.41782850958406925201416015625" lon="7.1844371594488620758056640625"><ele></ele><time>2016-7-29T4:3:17Z</time></trkpt>
<trkpt lat="46.41808063723146915435791015625" lon="7.18430430628359317779541015625"><ele></ele><time>2016-7-29T4:3:20Z</time></trkpt>
<trkpt lat="46.41826621256768703460693359375" lon="7.1841907314956188201904296875"><ele></ele><time>2016-7-29T4:3:23Z</time></trkpt>
<trkpt lat="46.418308876454830169677734375" lon="7.18412174843251705169677734375"><ele></ele><time>2016-7-29T4:3:26Z</time></trkpt>
<trkpt lat="46.41827140934765338897705078125" lon="7.183893509209156036376953125"><ele></ele><time>2016-7-29T4:3:29Z</time></trkpt>
<trkpt lat="46.41813579015433788299560546875" lon="7.183744646608829498291015625"><ele></ele><time>2016-7-29T4:3:32Z</time></trkpt>
<trkpt lat="46.4180689863860607147216796875" lon="7.183658815920352935791015625"><ele></ele><time>2016-7-29T4:3:35Z</time></trkpt>
<trkpt lat="46.4178933016955852508544921875" lon="7.1832556463778018951416015625"><ele></ele><time>2016-7-29T4:3:38Z</time></trkpt>
<trkpt lat="46.41796966083347797393798828125" lon="7.18299622647464275360107421875"><ele></ele><time>2016-7-29T4:3:41Z</time></trkpt>
<trkpt lat="46.41810871660709381103515625" lon="7.1828605234622955322265625"><ele></ele><time>2016-7-29T4:3:44Z</time></trkpt>
<trkpt lat="46.418170742690563201904296875" lon="7.182797491550445556640625"><ele></ele><time>2016-7-29T4:3:47Z</time></trkpt>
<trkpt lat="46.4184666238725185394287109375" lon="7.1824650652706623077392578125"><ele></ele><time>2016-7-29T4:3:50Z</time></trkpt>
<trkpt lat="46.418593861162662506103515625" lon="7.1822759695351123809814453125"><ele></ele><time>2016-7-29T4:3:53Z</time></trkpt>
<trkpt lat="46.41861406154930591583251953125" lon="7.1821837686002254486083984375"><ele></ele><time>2016-7-29T4:3:56Z</time></trkpt>
<trkpt lat="46.41861565411090850830078125" lon="7.18187321908771991729736328125"><ele></ele><time>2016-7-29T4:3:59Z</time></trkpt>
<trkpt lat="46.41861020587384700775146484375" lon="7.18176056630909442901611328125"><ele></ele><time>2016-7-29T4:4:2Z</time></trkpt>
<trkpt lat="46.41860182397067546844482421875" lon="7.1816607378423213958740234375"><ele></ele><time>2016-7-29T4:4:5Z</time></trkpt>
<trkpt lat="46.41855790279805660247802734375" lon="7.18140475451946258544921875"><ele></ele><time>2016-7-29T4:4:8Z</time></trkpt>
<trkpt lat="46.41860987059772014617919921875" lon="7.18100133351981639862060546875"><ele></ele><time>2016-7-29T4:4:11Z</time></trkpt>
<trkpt lat="46.41864038072526454925537109375" lon="7.1808976493775844573974609375"><ele></ele><time>2016-7-29T4:4:14Z</time></trkpt>
<trkpt lat="46.4186895824968814849853515625" lon="7.18078306876122951507568359375"><ele></ele><time>2016-7-29T4:4:17Z</time></trkpt>
<trkpt lat="46.41876711510121822357177734375" lon="7.18056312762200832366943359375"><ele></ele><time>2016-7-29T4:4:20Z</time></trkpt>
<trkpt lat="46.41890575177967548370361328125" lon="7.18016146682202816009521484375"><ele></ele><time>2016-7-29T4:4:23Z</time></trkpt>
<trkpt lat="46.41891228966414928436279296875" lon="7.1800490655004978179931640625"><ele></ele><time>2016-7-29T4:4:26Z</time></trkpt>
<trkpt lat="46.418917737901210784912109375" lon="7.17968738637864589691162109375"><ele></ele><time>2016-7-29T4:4:29Z</time></trkpt>
<trkpt lat="46.41895537264645099639892578125" lon="7.179535925388336181640625"><ele></ele><time>2016-7-29T4:4:32Z</time></trkpt>
<trkpt lat="46.419037096202373504638671875" lon="7.17921431176364421844482421875"><ele></ele><time>2016-7-29T4:4:35Z</time></trkpt>
<trkpt lat="46.41909333877265453338623046875" lon="7.17906729318201541900634765625"><ele></ele><time>2016-7-29T4:4:38Z</time></trkpt>
<trkpt lat="46.41922141425311565399169921875" lon="7.17887987382709980010986328125"><ele></ele><time>2016-7-29T4:4:41Z</time></trkpt>
<trkpt lat="46.419528611004352569580078125" lon="7.17835583724081516265869140625"><ele></ele><time>2016-7-29T4:4:44Z</time></trkpt>
<trkpt lat="46.41966305673122406005859375" lon="7.17786851339042186737060546875"><ele></ele><time>2016-7-29T4:4:47Z</time></trkpt>
<trkpt lat="46.4198573492467403411865234375" lon="7.17734380625188350677490234375"><ele></ele><time>2016-7-29T4:4:50Z</time></trkpt>
<trkpt lat="46.4201178587973117828369140625" lon="7.17662665061652660369873046875"><ele></ele><time>2016-7-29T4:4:53Z</time></trkpt>
<trkpt lat="46.4204455912113189697265625" lon="7.17588569037616252899169921875"><ele></ele><time>2016-7-29T4:4:56Z</time></trkpt>
<trkpt lat="46.420786567032337188720703125" lon="7.17532544396817684173583984375"><ele></ele><time>2016-7-29T4:4:59Z</time></trkpt>
<trkpt lat="46.4209024049341678619384765625" lon="7.175016738474369049072265625"><ele></ele><time>2016-7-29T4:5:2Z</time></trkpt>
<trkpt lat="46.4208641834557056427001953125" lon="7.17470325529575347900390625"><ele></ele><time>2016-7-29T4:5:5Z</time></trkpt>
<trkpt lat="46.4207310788333415985107421875" lon="7.173873446881771087646484375"><ele></ele><time>2016-7-29T4:5:8Z</time></trkpt>
<trkpt lat="46.42075337469577789306640625" lon="7.17359927482903003692626953125"><ele></ele><time>2016-7-29T4:5:11Z</time></trkpt>
<trkpt lat="46.42078463919460773468017578125" lon="7.17333457432687282562255859375"><ele></ele><time>2016-7-29T4:5:14Z</time></trkpt>
<trkpt lat="46.420908607542514801025390625" lon="7.17287038452923297882080078125"><ele></ele><time>2016-7-29T4:5:17Z</time></trkpt>
<trkpt lat="46.42110935412347316741943359375" lon="7.17260836623609066009521484375"><ele></ele><time>2016-7-29T4:5:20Z</time></trkpt>
<trkpt lat="46.42116199247539043426513671875" lon="7.172524966299533843994140625"><ele></ele><time>2016-7-29T4:5:23Z</time></trkpt>
<trkpt lat="46.42124421894550323486328125" lon="7.1723179332911968231201171875"><ele></ele><time>2016-7-29T4:5:26Z</time></trkpt>
<trkpt lat="46.4212919957935810089111328125" lon="7.17196849174797534942626953125"><ele></ele><time>2016-7-29T4:5:29Z</time></trkpt>
<trkpt lat="46.4214648306369781494140625" lon="7.17157320119440555572509765625"><ele></ele><time>2016-7-29T4:5:32Z</time></trkpt>
<trkpt lat="46.42152962274849414825439453125" lon="7.17149960808455944061279296875"><ele></ele><time>2016-7-29T4:5:35Z</time></trkpt>
<trkpt lat="46.421585865318775177001953125" lon="7.1714173816144466400146484375"><ele></ele><time>2016-7-29T4:5:38Z</time></trkpt>
<trkpt lat="46.42167245037853717803955078125" lon="7.17120699584484100341796875"><ele></ele><time>2016-7-29T4:5:41Z</time></trkpt>
<trkpt lat="46.421802453696727752685546875" lon="7.1706187538802623748779296875"><ele></ele><time>2016-7-29T4:5:44Z</time></trkpt>
<trkpt lat="46.421923153102397918701171875" lon="7.17026730068027973175048828125"><ele></ele><time>2016-7-29T4:5:47Z</time></trkpt>
<trkpt lat="46.42198308371007442474365234375" lon="7.17019069008529186248779296875"><ele></ele><time>2016-7-29T4:5:50Z</time></trkpt>
<trkpt lat="46.42221978865563869476318359375" lon="7.170015089213848114013671875"><ele></ele><time>2016-7-29T4:5:53Z</time></trkpt>
<trkpt lat="46.42240519635379314422607421875" lon="7.1697284281253814697265625"><ele></ele><time>2016-7-29T4:5:56Z</time></trkpt>
<trkpt lat="46.42246051691472530364990234375" lon="7.1695232391357421875"><ele></ele><time>2016-7-29T4:5:59Z</time></trkpt>
<trkpt lat="46.42247275449335575103759765625" lon="7.1694038808345794677734375"><ele></ele><time>2016-7-29T4:6:2Z</time></trkpt>
<trkpt lat="46.42245599068701267242431640625" lon="7.16896374709904193878173828125"><ele></ele><time>2016-7-29T4:6:5Z</time></trkpt>
<trkpt lat="46.4223601855337619781494140625" lon="7.16866350732743740081787109375"><ele></ele><time>2016-7-29T4:6:8Z</time></trkpt>
<trkpt lat="46.4223236404359340667724609375" lon="7.16856812126934528350830078125"><ele></ele><time>2016-7-29T4:6:11Z</time></trkpt>
<trkpt lat="46.422267146408557891845703125" lon="7.1683623455464839935302734375"><ele></ele><time>2016-7-29T4:6:14Z</time></trkpt>
<trkpt lat="46.42222498543560504913330078125" lon="7.168140225112438201904296875"><ele></ele><time>2016-7-29T4:6:17Z</time></trkpt>
<trkpt lat="46.42220084555447101593017578125" lon="7.16804911382496356964111328125"><ele></ele><time>2016-7-29T4:6:20Z</time></trkpt>
<trkpt lat="46.42222481779754161834716796875" lon="7.16779380105435848236083984375"><ele></ele><time>2016-7-29T4:6:23Z</time></trkpt>
<trkpt lat="46.42225381918251514434814453125" lon="7.1676884405314922332763671875"><ele></ele><time>2016-7-29T4:6:26Z</time></trkpt>
<trkpt lat="46.4223709143698215484619140625" lon="7.16717404313385486602783203125"><ele></ele><time>2016-7-29T4:6:29Z</time></trkpt>
<trkpt lat="46.42236999236047267913818359375" lon="7.16703792102634906768798828125"><ele></ele><time>2016-7-29T4:6:32Z</time></trkpt>
<trkpt lat="46.42233009450137615203857421875" lon="7.1668116934597492218017578125"><ele></ele><time>2016-7-29T4:6:35Z</time></trkpt>
<trkpt lat="46.42222565598785877227783203125" lon="7.16594458557665348052978515625"><ele></ele><time>2016-7-29T4:6:38Z</time></trkpt>
<trkpt lat="46.4223018474876880645751953125" lon="7.16541250236332416534423828125"><ele></ele><time>2016-7-29T4:6:41Z</time></trkpt>
<trkpt lat="46.4223511330783367156982421875" lon="7.1649287827312946319580078125"><ele></ele><time>2016-7-29T4:6:44Z</time></trkpt>
<trkpt lat="46.4223816432058811187744140625" lon="7.164794169366359710693359375"><ele></ele><time>2016-7-29T4:6:47Z</time></trkpt>
<trkpt lat="46.42242196016013622283935546875" lon="7.164441458880901336669921875"><ele></ele><time>2016-7-29T4:6:50Z</time></trkpt>
<trkpt lat="46.42242179252207279205322265625" lon="7.1641422249376773834228515625"><ele></ele><time>2016-7-29T4:6:53Z</time></trkpt>
<trkpt lat="46.4224185235798358917236328125" lon="7.163995541632175445556640625"><ele></ele><time>2016-7-29T4:6:56Z</time></trkpt>
<trkpt lat="46.42241558991372585296630859375" lon="7.16377669014036655426025390625"><ele></ele><time>2016-7-29T4:6:59Z</time></trkpt>
<trkpt lat="46.42244341783225536346435546875" lon="7.16349941678345203399658203125"><ele></ele><time>2016-7-29T4:7:2Z</time></trkpt>
<trkpt lat="46.42249815165996551513671875" lon="7.16323019005358219146728515625"><ele></ele><time>2016-7-29T4:7:5Z</time></trkpt>
<trkpt lat="46.422521956264972686767578125" lon="7.16298996470868587493896484375"><ele></ele><time>2016-7-29T4:7:8Z</time></trkpt>
<trkpt lat="46.4224567450582981109619140625" lon="7.16266809962689876556396484375"><ele></ele><time>2016-7-29T4:7:11Z</time></trkpt>
<trkpt lat="46.42250259406864643096923828125" lon="7.16216434724628925323486328125"><ele></ele><time>2016-7-29T4:7:14Z</time></trkpt>
<trkpt lat="46.42252958379685878753662109375" lon="7.1619076095521450042724609375"><ele></ele><time>2016-7-29T4:7:17Z</time></trkpt>
<trkpt lat="46.42255472950637340545654296875" lon="7.16177609749138355255126953125"><ele></ele><time>2016-7-29T4:7:20Z</time></trkpt>
<trkpt lat="46.422587335109710693359375" lon="7.1616524644196033477783203125"><ele></ele><time>2016-7-29T4:7:23Z</time></trkpt>
<trkpt lat="46.4226342737674713134765625" lon="7.1610489673912525177001953125"><ele></ele><time>2016-7-29T4:7:26Z</time></trkpt>
<trkpt lat="46.42264089547097682952880859375" lon="7.16091846115887165069580078125"><ele></ele><time>2016-7-29T4:7:29Z</time></trkpt>
<trkpt lat="46.42260317690670490264892578125" lon="7.16066851280629634857177734375"><ele></ele><time>2016-7-29T4:7:32Z</time></trkpt>
<trkpt lat="46.42252690158784389495849609375" lon="7.1604372560977935791015625"><ele></ele><time>2016-7-29T4:7:35Z</time></trkpt>
<trkpt lat="46.42245934344828128814697265625" lon="7.16025687754154205322265625"><ele></ele><time>2016-7-29T4:7:38Z</time></trkpt>
<trkpt lat="46.42242665402591228485107421875" lon="7.16004758141934871673583984375"><ele></ele><time>2016-7-29T4:7:41Z</time></trkpt>
<trkpt lat="46.4224671386182308197021484375" lon="7.15964172966778278350830078125"><ele></ele><time>2016-7-29T4:7:44Z</time></trkpt>
<trkpt lat="46.4226324297487735748291015625" lon="7.159484736621379852294921875"><ele></ele><time>2016-7-29T4:7:47Z</time></trkpt>
<trkpt lat="46.42276905477046966552734375" lon="7.1588693372905254364013671875"><ele></ele><time>2016-7-29T4:7:50Z</time></trkpt>
<trkpt lat="46.42269101925194263458251953125" lon="7.158480584621429443359375"><ele></ele><time>2016-7-29T4:7:53Z</time></trkpt>
<trkpt lat="46.4226384647190570831298828125" lon="7.15782872401177883148193359375"><ele></ele><time>2016-7-29T4:7:56Z</time></trkpt>
<trkpt lat="46.422620527446269989013671875" lon="7.1576933562755584716796875"><ele></ele><time>2016-7-29T4:7:59Z</time></trkpt>
<trkpt lat="46.42255623824894428253173828125" lon="7.15744324028491973876953125"><ele></ele><time>2016-7-29T4:8:2Z</time></trkpt>
<trkpt lat="46.4225385524332523345947265625" lon="7.15703965164721012115478515625"><ele></ele><time>2016-7-29T4:8:5Z</time></trkpt>
<trkpt lat="46.4226629398763179779052734375" lon="7.1565810777246952056884765625"><ele></ele><time>2016-7-29T4:8:8Z</time></trkpt>
<trkpt lat="46.42271314747631549835205078125" lon="7.15647655539214611053466796875"><ele></ele><time>2016-7-29T4:8:11Z</time></trkpt>
<trkpt lat="46.422904171049594879150390625" lon="7.15621487237513065338134765625"><ele></ele><time>2016-7-29T4:8:14Z</time></trkpt>
<trkpt lat="46.42307474277913570404052734375" lon="7.1559655107557773590087890625"><ele></ele><time>2016-7-29T4:8:17Z</time></trkpt>
<trkpt lat="46.42313878051936626434326171875" lon="7.15575671754777431488037109375"><ele></ele><time>2016-7-29T4:8:20Z</time></trkpt>
<trkpt lat="46.42311212606728076934814453125" lon="7.15539059601724147796630859375"><ele></ele><time>2016-7-29T4:8:23Z</time></trkpt>
<trkpt lat="46.423093266785144805908203125" lon="7.1552820503711700439453125"><ele></ele><time>2016-7-29T4:8:26Z</time></trkpt>
<trkpt lat="46.42308496870100498199462890625" lon="7.15515523217618465423583984375"><ele></ele><time>2016-7-29T4:8:29Z</time></trkpt>
<trkpt lat="46.42308547161519527435302734375" lon="7.1548886038362979888916015625"><ele></ele><time>2016-7-29T4:8:32Z</time></trkpt>
<trkpt lat="46.42312872223556041717529296875" lon="7.15448610484600067138671875"><ele></ele><time>2016-7-29T4:8:35Z</time></trkpt>
<trkpt lat="46.42316241748631000518798828125" lon="7.1543595381081104278564453125"><ele></ele><time>2016-7-29T4:8:38Z</time></trkpt>
<trkpt lat="46.4232235215604305267333984375" lon="7.15388453565537929534912109375"><ele></ele><time>2016-7-29T4:8:41Z</time></trkpt>
<trkpt lat="46.4230991341173648834228515625" lon="7.1535535342991352081298828125"><ele></ele><time>2016-7-29T4:8:44Z</time></trkpt>
<trkpt lat="46.42301715910434722900390625" lon="7.15321951545774936676025390625"><ele></ele><time>2016-7-29T4:8:47Z</time></trkpt>
<trkpt lat="46.42301321960985660552978515625" lon="7.15310066007077693939208984375"><ele></ele><time>2016-7-29T4:8:50Z</time></trkpt>
<trkpt lat="46.4229898341000080108642578125" lon="7.15263965539634227752685546875"><ele></ele><time>2016-7-29T4:8:53Z</time></trkpt>
<trkpt lat="46.42286201007664203643798828125" lon="7.152313850820064544677734375"><ele></ele><time>2016-7-29T4:8:56Z</time></trkpt>
<trkpt lat="46.4228319190442562103271484375" lon="7.1521970070898532867431640625"><ele></ele><time>2016-7-29T4:8:59Z</time></trkpt>
<trkpt lat="46.4228017441928386688232421875" lon="7.151820324361324310302734375"><ele></ele><time>2016-7-29T4:9:2Z</time></trkpt>
<trkpt lat="46.42286368645727634429931640625" lon="7.15144473128020763397216796875"><ele></ele><time>2016-7-29T4:9:5Z</time></trkpt>
<trkpt lat="46.4228500239551067352294921875" lon="7.1510027535259723663330078125"><ele></ele><time>2016-7-29T4:9:8Z</time></trkpt>
<trkpt lat="46.4228315837681293487548828125" lon="7.15089739300310611724853515625"><ele></ele><time>2016-7-29T4:9:11Z</time></trkpt>
<trkpt lat="46.42279881052672863006591796875" lon="7.15069153346121311187744140625"><ele></ele><time>2016-7-29T4:9:14Z</time></trkpt>
<trkpt lat="46.4228315837681293487548828125" lon="7.1504795551300048828125"><ele></ele><time>2016-7-29T4:9:17Z</time></trkpt>
<trkpt lat="46.42299377359449863433837890625" lon="7.1502436883747577667236328125"><ele></ele><time>2016-7-29T4:9:20Z</time></trkpt>
<trkpt lat="46.42305881716310977935791015625" lon="7.14996331371366977691650390625"><ele></ele><time>2016-7-29T4:9:23Z</time></trkpt>
<trkpt lat="46.42302176915109157562255859375" lon="7.14966290630400180816650390625"><ele></ele><time>2016-7-29T4:9:26Z</time></trkpt>
<trkpt lat="46.42300668172538280487060546875" lon="7.149558551609516143798828125"><ele></ele><time>2016-7-29T4:9:29Z</time></trkpt>
<trkpt lat="46.4228946156799793243408203125" lon="7.1488529630005359649658203125"><ele></ele><time>2016-7-29T4:9:32Z</time></trkpt>
<trkpt lat="46.42273209057748317718505859375" lon="7.1479765512049198150634765625"><ele></ele><time>2016-7-29T4:9:35Z</time></trkpt>
<trkpt lat="46.42269797623157501220703125" lon="7.14773573912680149078369140625"><ele></ele><time>2016-7-29T4:9:38Z</time></trkpt>
<trkpt lat="46.42272085882723331451416015625" lon="7.1474806778132915496826171875"><ele></ele><time>2016-7-29T4:9:41Z</time></trkpt>
<trkpt lat="46.422856561839580535888671875" lon="7.1470293961465358734130859375"><ele></ele><time>2016-7-29T4:9:44Z</time></trkpt>
<trkpt lat="46.42298371531069278717041015625" lon="7.14686787687242031097412109375"><ele></ele><time>2016-7-29T4:9:47Z</time></trkpt>
<trkpt lat="46.42305680550634860992431640625" lon="7.14681372977793216705322265625"><ele></ele><time>2016-7-29T4:9:50Z</time></trkpt>
<trkpt lat="46.42311648465692996978759765625" lon="7.14676913805305957794189453125"><ele></ele><time>2016-7-29T4:9:53Z</time></trkpt>
<trkpt lat="46.42314632423222064971923828125" lon="7.1467625163495540618896484375"><ele></ele><time>2016-7-29T4:9:56Z</time></trkpt>
<trkpt lat="46.4232490025460720062255859375" lon="7.14678757824003696441650390625"><ele></ele><time>2016-7-29T4:9:59Z</time></trkpt>
<trkpt lat="46.42327959649264812469482421875" lon="7.14679218828678131103515625"><ele></ele><time>2016-7-29T4:10:2Z</time></trkpt>
<trkpt lat="46.42338973470032215118408203125" lon="7.146732509136199951171875"><ele></ele><time>2016-7-29T4:10:5Z</time></trkpt>
<trkpt lat="46.4235477335751056671142578125" lon="7.1464647911489009857177734375"><ele></ele><time>2016-7-29T4:10:8Z</time></trkpt>
<trkpt lat="46.42369466833770275115966796875" lon="7.14596397243440151214599609375"><ele></ele><time>2016-7-29T4:10:11Z</time></trkpt>
<trkpt lat="46.42392047680914402008056640625" lon="7.14536927640438079833984375"><ele></ele><time>2016-7-29T4:10:14Z</time></trkpt>
<trkpt lat="46.42416237853467464447021484375" lon="7.1450998820364475250244140625"><ele></ele><time>2016-7-29T4:10:17Z</time></trkpt>
<trkpt lat="46.42456554807722568511962890625" lon="7.14469294063746929168701171875"><ele></ele><time>2016-7-29T4:10:20Z</time></trkpt>
<trkpt lat="46.42460259608924388885498046875" lon="7.1446331776678562164306640625"><ele></ele><time>2016-7-29T4:10:23Z</time></trkpt>
<trkpt lat="46.42474592663347721099853515625" lon="7.14432195760309696197509765625"><ele></ele><time>2016-7-29T4:10:26Z</time></trkpt>
<trkpt lat="46.4248620159924030303955078125" lon="7.1438211388885974884033203125"><ele></ele><time>2016-7-29T4:10:29Z</time></trkpt>
<trkpt lat="46.424903757870197296142578125" lon="7.14316190220415592193603515625"><ele></ele><time>2016-7-29T4:10:32Z</time></trkpt>
<trkpt lat="46.42492731101810932159423828125" lon="7.14268363080918788909912109375"><ele></ele><time>2016-7-29T4:10:35Z</time></trkpt>
<trkpt lat="46.4249508641660213470458984375" lon="7.14258858002722263336181640625"><ele></ele><time>2016-7-29T4:10:38Z</time></trkpt>
<trkpt lat="46.42514172010123729705810546875" lon="7.142303846776485443115234375"><ele></ele><time>2016-7-29T4:10:41Z</time></trkpt>
<trkpt lat="46.42526753246784210205078125" lon="7.14220586232841014862060546875"><ele></ele><time>2016-7-29T4:10:44Z</time></trkpt>
<trkpt lat="46.42549158073961734771728515625" lon="7.14202280156314373016357421875"><ele></ele><time>2016-7-29T4:10:47Z</time></trkpt>
<trkpt lat="46.425586380064487457275390625" lon="7.14190327562391757965087890625"><ele></ele><time>2016-7-29T4:10:50Z</time></trkpt>
<trkpt lat="46.42566047608852386474609375" lon="7.141764722764492034912109375"><ele></ele><time>2016-7-29T4:10:53Z</time></trkpt>
<trkpt lat="46.4257551915943622589111328125" lon="7.141504548490047454833984375"><ele></ele><time>2016-7-29T4:10:56Z</time></trkpt>
<trkpt lat="46.4258168824017047882080078125" lon="7.14134269393980503082275390625"><ele></ele><time>2016-7-29T4:10:59Z</time></trkpt>
<trkpt lat="46.42604663036763668060302734375" lon="7.1409525163471698760986328125"><ele></ele><time>2016-7-29T4:11:2Z</time></trkpt>
<trkpt lat="46.42610438168048858642578125" lon="7.14089074172079563140869140625"><ele></ele><time>2016-7-29T4:11:5Z</time></trkpt>
<trkpt lat="46.42637017183005809783935546875" lon="7.14066158048808574676513671875"><ele></ele><time>2016-7-29T4:11:8Z</time></trkpt>
<trkpt lat="46.426825225353240966796875" lon="7.140318341553211212158203125"><ele></ele><time>2016-7-29T4:11:11Z</time></trkpt>
<trkpt lat="46.42720215953886508941650390625" lon="7.140216417610645294189453125"><ele></ele><time>2016-7-29T4:11:14Z</time></trkpt>
<trkpt lat="46.4272746630012989044189453125" lon="7.140188254415988922119140625"><ele></ele><time>2016-7-29T4:11:17Z</time></trkpt>
<trkpt lat="46.42741271294653415679931640625" lon="7.14010141789913177490234375"><ele></ele><time>2016-7-29T4:11:20Z</time></trkpt>
<trkpt lat="46.4274738170206546783447265625" lon="7.14005372487008571624755859375"><ele></ele><time>2016-7-29T4:11:23Z</time></trkpt>
<trkpt lat="46.42799609340727329254150390625" lon="7.1396080590784549713134765625"><ele></ele><time>2016-7-29T4:11:26Z</time></trkpt>
<trkpt lat="46.42805610783398151397705078125" lon="7.139536477625370025634765625"><ele></ele><time>2016-7-29T4:11:29Z</time></trkpt>
<trkpt lat="46.42811595462262630462646484375" lon="7.13944888673722743988037109375"><ele></ele><time>2016-7-29T4:11:32Z</time></trkpt>
<trkpt lat="46.4282610453665256500244140625" lon="7.1391778998076915740966796875"><ele></ele><time>2016-7-29T4:11:35Z</time></trkpt>
<trkpt lat="46.428581066429615020751953125" lon="7.13848815299570560455322265625"><ele></ele><time>2016-7-29T4:11:38Z</time></trkpt>
<trkpt lat="46.42862473614513874053955078125" lon="7.13838958181440830230712890625"><ele></ele><time>2016-7-29T4:11:41Z</time></trkpt>
<trkpt lat="46.4289305917918682098388671875" lon="7.13772590272128582000732421875"><ele></ele><time>2016-7-29T4:11:44Z</time></trkpt>
<trkpt lat="46.429018937051296234130859375" lon="7.1375461108982563018798828125"><ele></ele><time>2016-7-29T4:11:47Z</time></trkpt>
<trkpt lat="46.42937424592673778533935546875" lon="7.1369276940822601318359375"><ele></ele><time>2016-7-29T4:11:50Z</time></trkpt>
<trkpt lat="46.42942629754543304443359375" lon="7.13685334660112857818603515625"><ele></ele><time>2016-7-29T4:11:53Z</time></trkpt>
<trkpt lat="46.42986827529966831207275390625" lon="7.136264182627201080322265625"><ele></ele><time>2016-7-29T4:11:56Z</time></trkpt>
<trkpt lat="46.43031151033937931060791015625" lon="7.1357533894479274749755859375"><ele></ele><time>2016-7-29T4:11:59Z</time></trkpt>
<trkpt lat="46.43037923611700534820556640625" lon="7.135677449405193328857421875"><ele></ele><time>2016-7-29T4:12:2Z</time></trkpt>
<trkpt lat="46.43082180060446262359619140625" lon="7.1351847611367702484130859375"><ele></ele><time>2016-7-29T4:12:5Z</time></trkpt>
<trkpt lat="46.43122605979442596435546875" lon="7.1346181444823741912841796875"><ele></ele><time>2016-7-29T4:12:8Z</time></trkpt>
<trkpt lat="46.431627385318279266357421875" lon="7.134052701294422149658203125"><ele></ele><time>2016-7-29T4:12:11Z</time></trkpt>
<trkpt lat="46.4316818676888942718505859375" lon="7.13399159722030162811279296875"><ele></ele><time>2016-7-29T4:12:14Z</time></trkpt>
<trkpt lat="46.432093419134616851806640625" lon="7.13355959393084049224853515625"><ele></ele><time>2016-7-29T4:12:17Z</time></trkpt>
<trkpt lat="46.4323376677930355072021484375" lon="7.13312289677560329437255859375"><ele></ele><time>2016-7-29T4:12:20Z</time></trkpt>
<trkpt lat="46.4326166175305843353271484375" lon="7.1324338205158710479736328125"><ele></ele><time>2016-7-29T4:12:23Z</time></trkpt>
<trkpt lat="46.43265257589519023895263671875" lon="7.1323443017899990081787109375"><ele></ele><time>2016-7-29T4:12:26Z</time></trkpt>
<trkpt lat="46.4329233951866626739501953125" lon="7.13164583779871463775634765625"><ele></ele><time>2016-7-29T4:12:29Z</time></trkpt>
<trkpt lat="46.4330048672854900360107421875" lon="7.13133872486650943756103515625"><ele></ele><time>2016-7-29T4:12:32Z</time></trkpt>
<trkpt lat="46.43305473960936069488525390625" lon="7.13079105131328105926513671875"><ele></ele><time>2016-7-29T4:12:35Z</time></trkpt>
<trkpt lat="46.4330829866230487823486328125" lon="7.13045795448124408721923828125"><ele></ele><time>2016-7-29T4:12:38Z</time></trkpt>
<trkpt lat="46.4331523887813091278076171875" lon="7.1300607360899448394775390625"><ele></ele><time>2016-7-29T4:12:41Z</time></trkpt>
<trkpt lat="46.43331022001802921295166015625" lon="7.129298485815525054931640625"><ele></ele><time>2016-7-29T4:12:44Z</time></trkpt>
<trkpt lat="46.4333496987819671630859375" lon="7.129118777811527252197265625"><ele></ele><time>2016-7-29T4:12:47Z</time></trkpt>
<trkpt lat="46.4334960468113422393798828125" lon="7.128386199474334716796875"><ele></ele><time>2016-7-29T4:12:50Z</time></trkpt>
<trkpt lat="46.43365605734288692474365234375" lon="7.1279448084533214569091796875"><ele></ele><time>2016-7-29T4:12:53Z</time></trkpt>
<trkpt lat="46.4339369349181652069091796875" lon="7.12752453982830047607421875"><ele></ele><time>2016-7-29T4:12:56Z</time></trkpt>
<trkpt lat="46.43413147889077663421630859375" lon="7.1272744238376617431640625"><ele></ele><time>2016-7-29T4:12:59Z</time></trkpt>
<trkpt lat="46.4342128671705722808837890625" lon="7.12712061591446399688720703125"><ele></ele><time>2016-7-29T4:13:2Z</time></trkpt>
<trkpt lat="46.43424999900162220001220703125" lon="7.12703277356922626495361328125"><ele></ele><time>2016-7-29T4:13:5Z</time></trkpt>
<trkpt lat="46.4343546889722347259521484375" lon="7.12670755572617053985595703125"><ele></ele><time>2016-7-29T4:13:8Z</time></trkpt>
<trkpt lat="46.43461771309375762939453125" lon="7.12607304565608501434326171875"><ele></ele><time>2016-7-29T4:13:11Z</time></trkpt>
<trkpt lat="46.43470731563866138458251953125" lon="7.1259525977075099945068359375"><ele></ele><time>2016-7-29T4:13:14Z</time></trkpt>
<trkpt lat="46.43484142608940601348876953125" lon="7.12580868043005466461181640625"><ele></ele><time>2016-7-29T4:13:17Z</time></trkpt>
<trkpt lat="46.43488886766135692596435546875" lon="7.12577045895159244537353515625"><ele></ele><time>2016-7-29T4:13:20Z</time></trkpt>
<trkpt lat="46.4350933022797107696533203125" lon="7.12564506568014621734619140625"><ele></ele><time>2016-7-29T4:13:23Z</time></trkpt>
<trkpt lat="46.435587666928768157958984375" lon="7.12532512843608856201171875"><ele></ele><time>2016-7-29T4:13:26Z</time></trkpt>
<trkpt lat="46.43568456172943115234375" lon="7.1252619288861751556396484375"><ele></ele><time>2016-7-29T4:13:29Z</time></trkpt>
<trkpt lat="46.43618973903357982635498046875" lon="7.124915085732936859130859375"><ele></ele><time>2016-7-29T4:13:32Z</time></trkpt>
<trkpt lat="46.4362345822155475616455078125" lon="7.1248844079673290252685546875"><ele></ele><time>2016-7-29T4:13:35Z</time></trkpt>
<trkpt lat="46.4366312138736248016357421875" lon="7.12467242963612079620361328125"><ele></ele><time>2016-7-29T4:13:38Z</time></trkpt>
<trkpt lat="46.43701963126659393310546875" lon="7.12460671551525592803955078125"><ele></ele><time>2016-7-29T4:13:41Z</time></trkpt>
<trkpt lat="46.43739908002316951751708984375" lon="7.12466689758002758026123046875"><ele></ele><time>2016-7-29T4:13:44Z</time></trkpt>
<trkpt lat="46.43786243163049221038818359375" lon="7.1247918717563152313232421875"><ele></ele><time>2016-7-29T4:13:47Z</time></trkpt>
<trkpt lat="46.43838479183614253997802734375" lon="7.12491952814161777496337890625"><ele></ele><time>2016-7-29T4:13:50Z</time></trkpt>
<trkpt lat="46.4385168068110942840576171875" lon="7.1249216236174106597900390625"><ele></ele><time>2016-7-29T4:13:53Z</time></trkpt>
<trkpt lat="46.438762061297893524169921875" lon="7.1248845756053924560546875"><ele></ele><time>2016-7-29T4:13:56Z</time></trkpt>
<trkpt lat="46.43908199854195117950439453125" lon="7.12475021369755268096923828125"><ele></ele><time>2016-7-29T4:13:59Z</time></trkpt>
<trkpt lat="46.4391982555389404296875" lon="7.12452021427452564239501953125"><ele></ele><time>2016-7-29T4:14:2Z</time></trkpt>
<trkpt lat="46.43921904265880584716796875" lon="7.1242215670645236968994140625"><ele></ele><time>2016-7-29T4:14:5Z</time></trkpt>
<trkpt lat="46.43927402794361114501953125" lon="7.12381496094167232513427734375"><ele></ele><time>2016-7-29T4:14:8Z</time></trkpt>
<trkpt lat="46.43931032158434391021728515625" lon="7.12372560985386371612548828125"><ele></ele><time>2016-7-29T4:14:11Z</time></trkpt>
<trkpt lat="46.4393449388444423675537109375" lon="7.12365285493433475494384765625"><ele></ele><time>2016-7-29T4:14:14Z</time></trkpt>
<trkpt lat="46.43938760273158550262451171875" lon="7.12356450967490673065185546875"><ele></ele><time>2016-7-29T4:14:17Z</time></trkpt>
<trkpt lat="46.4394525624811649322509765625" lon="7.12340525351464748382568359375"><ele></ele><time>2016-7-29T4:14:20Z</time></trkpt>
<trkpt lat="46.4394773729145526885986328125" lon="7.12331590242683887481689453125"><ele></ele><time>2016-7-29T4:14:23Z</time></trkpt>
<trkpt lat="46.4395172707736492156982421875" lon="7.12293301708996295928955078125"><ele></ele><time>2016-7-29T4:14:26Z</time></trkpt>
<trkpt lat="46.43954551778733730316162109375" lon="7.1227627806365489959716796875"><ele></ele><time>2016-7-29T4:14:29Z</time></trkpt>
<trkpt lat="46.43962313421070575714111328125" lon="7.122594974935054779052734375"><ele></ele><time>2016-7-29T4:14:32Z</time></trkpt>
<trkpt lat="46.43981273286044597625732421875" lon="7.12248022668063640594482421875"><ele></ele><time>2016-7-29T4:14:35Z</time></trkpt>
<trkpt lat="46.44015840254724025726318359375" lon="7.12242926470935344696044921875"><ele></ele><time>2016-7-29T4:14:38Z</time></trkpt>
<trkpt lat="46.44041036255657672882080078125" lon="7.12238333187997341156005859375"><ele></ele><time>2016-7-29T4:14:41Z</time></trkpt>
<trkpt lat="46.44052871502935886383056640625" lon="7.122309319674968719482421875"><ele></ele><time>2016-7-29T4:14:44Z</time></trkpt>
<trkpt lat="46.440643966197967529296875" lon="7.12222407571971416473388671875"><ele></ele><time>2016-7-29T4:14:47Z</time></trkpt>
<trkpt lat="46.44088561646640300750732421875" lon="7.12211729027330875396728515625"><ele></ele><time>2016-7-29T4:14:50Z</time></trkpt>
<trkpt lat="46.44101017154753208160400390625" lon="7.12209817953407764434814453125"><ele></ele><time>2016-7-29T4:14:53Z</time></trkpt>
<trkpt lat="46.44117303192615509033203125" lon="7.12212399579584598541259765625"><ele></ele><time>2016-7-29T4:14:56Z</time></trkpt>
<trkpt lat="46.44153370521962642669677734375" lon="7.12225475348532199859619140625"><ele></ele><time>2016-7-29T4:14:59Z</time></trkpt>
<trkpt lat="46.44168776459991931915283203125" lon="7.122349552810192108154296875"><ele></ele><time>2016-7-29T4:15:2Z</time></trkpt>
<trkpt lat="46.44178801216185092926025390625" lon="7.1224164403975009918212890625"><ele></ele><time>2016-7-29T4:15:5Z</time></trkpt>
<trkpt lat="46.44206025637686252593994140625" lon="7.1224573440849781036376953125"><ele></ele><time>2016-7-29T4:15:8Z</time></trkpt>
<trkpt lat="46.44224993884563446044921875" lon="7.122550047934055328369140625"><ele></ele><time>2016-7-29T4:15:11Z</time></trkpt>
<trkpt lat="46.44236653111875057220458984375" lon="7.12256588973104953765869140625"><ele></ele><time>2016-7-29T4:15:14Z</time></trkpt>
<trkpt lat="46.44271505065262317657470703125" lon="7.1225106529891490936279296875"><ele></ele><time>2016-7-29T4:15:17Z</time></trkpt>
<trkpt lat="46.4431704394519329071044921875" lon="7.12235516868531703948974609375"><ele></ele><time>2016-7-29T4:15:20Z</time></trkpt>
<trkpt lat="46.44368701614439487457275390625" lon="7.12219658307731151580810546875"><ele></ele><time>2016-7-29T4:15:23Z</time></trkpt>
<trkpt lat="46.44379195757210254669189453125" lon="7.12218937464058399200439453125"><ele></ele><time>2016-7-29T4:15:26Z</time></trkpt>
<trkpt lat="46.443960182368755340576171875" lon="7.12226347066462039947509765625"><ele></ele><time>2016-7-29T4:15:29Z</time></trkpt>
<trkpt lat="46.4440119825303554534912109375" lon="7.122295908629894256591796875"><ele></ele><time>2016-7-29T4:15:32Z</time></trkpt>
<trkpt lat="46.4442600868642330169677734375" lon="7.12248424999415874481201171875"><ele></ele><time>2016-7-29T4:15:35Z</time></trkpt>
<trkpt lat="46.444370560348033905029296875" lon="7.1225468628108501434326171875"><ele></ele><time>2016-7-29T4:15:38Z</time></trkpt>
<trkpt lat="46.4445403777062892913818359375" lon="7.12255264632403850555419921875"><ele></ele><time>2016-7-29T4:15:41Z</time></trkpt>
<trkpt lat="46.44471262581646442413330078125" lon="7.1225081384181976318359375"><ele></ele><time>2016-7-29T4:15:44Z</time></trkpt>
<trkpt lat="46.444834582507610321044921875" lon="7.12244887836277484893798828125"><ele></ele><time>2016-7-29T4:15:47Z</time></trkpt>
<trkpt lat="46.445124931633472442626953125" lon="7.1223148517310619354248046875"><ele></ele><time>2016-7-29T4:15:50Z</time></trkpt>
<trkpt lat="46.44563379697501659393310546875" lon="7.12207621894776821136474609375"><ele></ele><time>2016-7-29T4:15:53Z</time></trkpt>
<trkpt lat="46.44587553106248378753662109375" lon="7.1219084970653057098388671875"><ele></ele><time>2016-7-29T4:15:56Z</time></trkpt>
<trkpt lat="46.4459223859012126922607421875" lon="7.12184093892574310302734375"><ele></ele><time>2016-7-29T4:15:59Z</time></trkpt>
<trkpt lat="46.4460233040153980255126953125" lon="7.12150189094245433807373046875"><ele></ele><time>2016-7-29T4:16:2Z</time></trkpt>
<trkpt lat="46.4460266567766666412353515625" lon="7.121304832398891448974609375"><ele></ele><time>2016-7-29T4:16:5Z</time></trkpt>
<trkpt lat="46.44605523906648159027099609375" lon="7.12111313827335834503173828125"><ele></ele><time>2016-7-29T4:16:8Z</time></trkpt>
<trkpt lat="46.44617610611021518707275390625" lon="7.12085329927504062652587890625"><ele></ele><time>2016-7-29T4:16:11Z</time></trkpt>
<trkpt lat="46.4462838135659694671630859375" lon="7.1207085438072681427001953125"><ele></ele><time>2016-7-29T4:16:14Z</time></trkpt>
<trkpt lat="46.4464789442718029022216796875" lon="7.1204205416142940521240234375"><ele></ele><time>2016-7-29T4:16:17Z</time></trkpt>
<trkpt lat="46.446515657007694244384765625" lon="7.120340578258037567138671875"><ele></ele><time>2016-7-29T4:16:20Z</time></trkpt>
<trkpt lat="46.44658707082271575927734375" lon="7.1200742013752460479736328125"><ele></ele><time>2016-7-29T4:16:23Z</time></trkpt>
<trkpt lat="46.44660559482872486114501953125" lon="7.1199796535074710845947265625"><ele></ele><time>2016-7-29T4:16:26Z</time></trkpt>
<trkpt lat="46.44662705250084400177001953125" lon="7.1198794059455394744873046875"><ele></ele><time>2016-7-29T4:16:29Z</time></trkpt>
<trkpt lat="46.4466512762010097503662109375" lon="7.11979801766574382781982421875"><ele></ele><time>2016-7-29T4:16:32Z</time></trkpt>
<trkpt lat="46.44673199392855167388916015625" lon="7.1196328103542327880859375"><ele></ele><time>2016-7-29T4:16:35Z</time></trkpt>
<trkpt lat="46.44682100974023342132568359375" lon="7.11950984783470630645751953125"><ele></ele><time>2016-7-29T4:16:38Z</time></trkpt>
<trkpt lat="46.44693466834723949432373046875" lon="7.11940323002636432647705078125"><ele></ele><time>2016-7-29T4:16:41Z</time></trkpt>
<trkpt lat="46.4469899050891399383544921875" lon="7.1193697862327098846435546875"><ele></ele><time>2016-7-29T4:16:44Z</time></trkpt>
<trkpt lat="46.4472359977662563323974609375" lon="7.11933248676359653472900390625"><ele></ele><time>2016-7-29T4:16:47Z</time></trkpt>
<trkpt lat="46.4477677457034587860107421875" lon="7.11929158307611942291259765625"><ele></ele><time>2016-7-29T4:16:50Z</time></trkpt>
<trkpt lat="46.44788970239460468292236328125" lon="7.11925637908279895782470703125"><ele></ele><time>2016-7-29T4:16:53Z</time></trkpt>
<trkpt lat="46.4480550773441791534423828125" lon="7.11915344931185245513916015625"><ele></ele><time>2016-7-29T4:16:56Z</time></trkpt>
<trkpt lat="46.4484691433608531951904296875" lon="7.1189595758914947509765625"><ele></ele><time>2016-7-29T4:16:59Z</time></trkpt>
<trkpt lat="46.4488117955625057220458984375" lon="7.11882001720368862152099609375"><ele></ele><time>2016-7-29T4:17:2Z</time></trkpt>
<trkpt lat="46.44906853325664997100830078125" lon="7.1185711584985256195068359375"><ele></ele><time>2016-7-29T4:17:5Z</time></trkpt>
<trkpt lat="46.44934413023293018341064453125" lon="7.11817779578268527984619140625"><ele></ele><time>2016-7-29T4:17:8Z</time></trkpt>
<trkpt lat="46.44965023733675479888916015625" lon="7.11771159432828426361083984375"><ele></ele><time>2016-7-29T4:17:11Z</time></trkpt>
<trkpt lat="46.4500630460679531097412109375" lon="7.11722343228757381439208984375"><ele></ele><time>2016-7-29T4:17:14Z</time></trkpt>
<trkpt lat="46.45019070245325565338134765625" lon="7.1170171536505222320556640625"><ele></ele><time>2016-7-29T4:17:17Z</time></trkpt>
<trkpt lat="46.4502829872071743011474609375" lon="7.1167744137346744537353515625"><ele></ele><time>2016-7-29T4:17:20Z</time></trkpt>
<trkpt lat="46.45036764442920684814453125" lon="7.11632765829563140869140625"><ele></ele><time>2016-7-29T4:17:23Z</time></trkpt>
<trkpt lat="46.45035465247929096221923828125" lon="7.115809656679630279541015625"><ele></ele><time>2016-7-29T4:17:26Z</time></trkpt>
<trkpt lat="46.45034995861351490020751953125" lon="7.11499569006264209747314453125"><ele></ele><time>2016-7-29T4:17:29Z</time></trkpt>
<trkpt lat="46.4504595100879669189453125" lon="7.11447232402861118316650390625"><ele></ele><time>2016-7-29T4:17:32Z</time></trkpt>
<trkpt lat="46.45048155449330806732177734375" lon="7.11429747752845287322998046875"><ele></ele><time>2016-7-29T4:17:35Z</time></trkpt>
<trkpt lat="46.4504875056445598602294921875" lon="7.1139242313802242279052734375"><ele></ele><time>2016-7-29T4:17:38Z</time></trkpt>
<trkpt lat="46.45051877014338970184326171875" lon="7.11378718726336956024169921875"><ele></ele><time>2016-7-29T4:17:41Z</time></trkpt>
<trkpt lat="46.45063611678779125213623046875" lon="7.11346666328608989715576171875"><ele></ele><time>2016-7-29T4:17:44Z</time></trkpt>
<trkpt lat="46.4508730731904506683349609375" lon="7.1130903996527194976806640625"><ele></ele><time>2016-7-29T4:17:47Z</time></trkpt>
<trkpt lat="46.45123676396906375885009765625" lon="7.11262495256960391998291015625"><ele></ele><time>2016-7-29T4:17:50Z</time></trkpt>
<trkpt lat="46.45137305371463298797607421875" lon="7.11257935501635074615478515625"><ele></ele><time>2016-7-29T4:17:53Z</time></trkpt>
<trkpt lat="46.4516562782227993011474609375" lon="7.11267306469380855560302734375"><ele></ele><time>2016-7-29T4:17:56Z</time></trkpt>
<trkpt lat="46.45187999121844768524169921875" lon="7.1128835342824459075927734375"><ele></ele><time>2016-7-29T4:17:59Z</time></trkpt>
<trkpt lat="46.45215022377669811248779296875" lon="7.11322509683668613433837890625"><ele></ele><time>2016-7-29T4:18:2Z</time></trkpt>
<trkpt lat="46.4523720927536487579345703125" lon="7.11367185227572917938232421875"><ele></ele><time>2016-7-29T4:18:5Z</time></trkpt>
<trkpt lat="46.4524497091770172119140625" lon="7.1138454414904117584228515625"><ele></ele><time>2016-7-29T4:18:8Z</time></trkpt>
<trkpt lat="46.45253830589354038238525390625" lon="7.1139798872172832489013671875"><ele></ele><time>2016-7-29T4:18:11Z</time></trkpt>
<trkpt lat="46.4527170918881893157958984375" lon="7.11422882974147796630859375"><ele></ele><time>2016-7-29T4:18:14Z</time></trkpt>
<trkpt lat="46.45313845016062259674072265625" lon="7.11472361348569393157958984375"><ele></ele><time>2016-7-29T4:18:17Z</time></trkpt>
<trkpt lat="46.45324238575994968414306640625" lon="7.1148150600492954254150390625"><ele></ele><time>2016-7-29T4:18:20Z</time></trkpt>
<trkpt lat="46.4537256024777889251708984375" lon="7.11520976386964321136474609375"><ele></ele><time>2016-7-29T4:18:23Z</time></trkpt>
<trkpt lat="46.45394428633153438568115234375" lon="7.1154400147497653961181640625"><ele></ele><time>2016-7-29T4:18:26Z</time></trkpt>
<trkpt lat="46.45431526936590671539306640625" lon="7.11600939743220806121826171875"><ele></ele><time>2016-7-29T4:18:29Z</time></trkpt>
<trkpt lat="46.4546652138233184814453125" lon="7.1166258864104747772216796875"><ele></ele><time>2016-7-29T4:18:32Z</time></trkpt>
<trkpt lat="46.45501599647104740142822265625" lon="7.11719979532063007354736328125"><ele></ele><time>2016-7-29T4:18:35Z</time></trkpt>
<trkpt lat="46.45513116382062435150146484375" lon="7.11732703261077404022216796875"><ele></ele><time>2016-7-29T4:18:38Z</time></trkpt>
<trkpt lat="46.45549912936985492706298828125" lon="7.11757413111627101898193359375"><ele></ele><time>2016-7-29T4:18:41Z</time></trkpt>
<trkpt lat="46.4561053924262523651123046875" lon="7.1179462037980556488037109375"><ele></ele><time>2016-7-29T4:18:44Z</time></trkpt>
<trkpt lat="46.45637101493775844573974609375" lon="7.118097580969333648681640625"><ele></ele><time>2016-7-29T4:18:47Z</time></trkpt>
<trkpt lat="46.45698071457445621490478515625" lon="7.118515335023403167724609375"><ele></ele><time>2016-7-29T4:18:50Z</time></trkpt>
<trkpt lat="46.45708850584924221038818359375" lon="7.11863393895328044891357421875"><ele></ele><time>2016-7-29T4:18:53Z</time></trkpt>
<trkpt lat="46.45735974423587322235107421875" lon="7.11905454285442829132080078125"><ele></ele><time>2016-7-29T4:18:56Z</time></trkpt>
<trkpt lat="46.4574937708675861358642578125" lon="7.11937406100332736968994140625"><ele></ele><time>2016-7-29T4:18:59Z</time></trkpt>
<trkpt lat="46.45761103369295597076416015625" lon="7.11970279924571514129638671875"><ele></ele><time>2016-7-29T4:19:2Z</time></trkpt>
<trkpt lat="46.45793147385120391845703125" lon="7.12047435343265533447265625"><ele></ele><time>2016-7-29T4:19:5Z</time></trkpt>
<trkpt lat="46.4582454599440097808837890625" lon="7.12100249715149402618408203125"><ele></ele><time>2016-7-29T4:19:8Z</time></trkpt>
<trkpt lat="46.45853773690760135650634765625" lon="7.12137063033878803253173828125"><ele></ele><time>2016-7-29T4:19:11Z</time></trkpt>
<trkpt lat="46.45864896476268768310546875" lon="7.1212671138346195220947265625"><ele></ele><time>2016-7-29T4:19:14Z</time></trkpt>
<trkpt lat="46.45870872773230075836181640625" lon="7.12105211801826953887939453125"><ele></ele><time>2016-7-29T4:19:17Z</time></trkpt>
<trkpt lat="46.45866882987320423126220703125" lon="7.12072312831878662109375"><ele></ele><time>2016-7-29T4:19:20Z</time></trkpt>
<trkpt lat="46.458637900650501251220703125" lon="7.12061257101595401763916015625"><ele></ele><time>2016-7-29T4:19:23Z</time></trkpt>
<trkpt lat="46.45850203000009059906005859375" lon="7.120303027331829071044921875"><ele></ele><time>2016-7-29T4:19:26Z</time></trkpt>
<trkpt lat="46.458181254565715789794921875" lon="7.11964295245707035064697265625"><ele></ele><time>2016-7-29T4:19:29Z</time></trkpt>
<trkpt lat="46.4579246006906032562255859375" lon="7.11885656230151653289794921875"><ele></ele><time>2016-7-29T4:19:32Z</time></trkpt>
<trkpt lat="46.45778873004019260406494140625" lon="7.11810730397701263427734375"><ele></ele><time>2016-7-29T4:19:35Z</time></trkpt>
<trkpt lat="46.45774380303919315338134765625" lon="7.11730037815868854522705078125"><ele></ele><time>2016-7-29T4:19:38Z</time></trkpt>
<trkpt lat="46.4577422104775905609130859375" lon="7.11713902652263641357421875"><ele></ele><time>2016-7-29T4:19:41Z</time></trkpt>
<trkpt lat="46.45772955380380153656005859375" lon="7.116328664124011993408203125"><ele></ele><time>2016-7-29T4:19:44Z</time></trkpt>
<trkpt lat="46.4577247761189937591552734375" lon="7.1156887896358966827392578125"><ele></ele><time>2016-7-29T4:19:47Z</time></trkpt>
<trkpt lat="46.4577137120068073272705078125" lon="7.11484967730939388275146484375"><ele></ele><time>2016-7-29T4:19:50Z</time></trkpt>
<trkpt lat="46.45771530456840991973876953125" lon="7.1143661253154277801513671875"><ele></ele><time>2016-7-29T4:19:53Z</time></trkpt>
<trkpt lat="46.45777565427124500274658203125" lon="7.1134974248707294464111328125"><ele></ele><time>2016-7-29T4:19:56Z</time></trkpt>
<trkpt lat="46.457797698676586151123046875" lon="7.11334009654819965362548828125"><ele></ele><time>2016-7-29T4:19:59Z</time></trkpt>
<trkpt lat="46.45798972807824611663818359375" lon="7.112470306456089019775390625"><ele></ele><time>2016-7-29T4:20:2Z</time></trkpt>
<trkpt lat="46.45828418433666229248046875" lon="7.1116617880761623382568359375"><ele></ele><time>2016-7-29T4:20:5Z</time></trkpt>
<trkpt lat="46.4586246572434902191162109375" lon="7.110930047929286956787109375"><ele></ele><time>2016-7-29T4:20:8Z</time></trkpt>
<trkpt lat="46.45890704356133937835693359375" lon="7.1103082783520221710205078125"><ele></ele><time>2016-7-29T4:20:11Z</time></trkpt>
<trkpt lat="46.45894467830657958984375" lon="7.11015832610428333282470703125"><ele></ele><time>2016-7-29T4:20:14Z</time></trkpt>
<trkpt lat="46.459081135690212249755859375" lon="7.10946463979780673980712890625"><ele></ele><time>2016-7-29T4:20:17Z</time></trkpt>
<trkpt lat="46.45928573794662952423095703125" lon="7.10902073420584201812744140625"><ele></ele><time>2016-7-29T4:20:20Z</time></trkpt>
<trkpt lat="46.45937257446348667144775390625" lon="7.10886248387396335601806640625"><ele></ele><time>2016-7-29T4:20:23Z</time></trkpt>
<trkpt lat="46.45949210040271282196044921875" lon="7.10856894962489604949951171875"><ele></ele><time>2016-7-29T4:20:26Z</time></trkpt>
<trkpt lat="46.45953987725079059600830078125" lon="7.10838169790804386138916015625"><ele></ele><time>2016-7-29T4:20:29Z</time></trkpt>
<trkpt lat="46.459660492837429046630859375" lon="7.107704691588878631591796875"><ele></ele><time>2016-7-29T4:20:32Z</time></trkpt>
<trkpt lat="46.45976610481739044189453125" lon="7.10733287036418914794921875"><ele></ele><time>2016-7-29T4:20:35Z</time></trkpt>
<trkpt lat="46.45992008037865161895751953125" lon="7.10707076825201511383056640625"><ele></ele><time>2016-7-29T4:20:38Z</time></trkpt>
<trkpt lat="46.4600019715726375579833984375" lon="7.10697881877422332763671875"><ele></ele><time>2016-7-29T4:20:41Z</time></trkpt>
<trkpt lat="46.46002418361604213714599609375" lon="7.10694286040961742401123046875"><ele></ele><time>2016-7-29T4:20:44Z</time></trkpt>
<trkpt lat="46.46005201153457164764404296875" lon="7.10689206607639789581298828125"><ele></ele><time>2016-7-29T4:20:47Z</time></trkpt>
<trkpt lat="46.460063494741916656494140625" lon="7.1068896353244781494140625"><ele></ele><time>2016-7-29T4:20:50Z</time></trkpt>
<trkpt lat="46.460075564682483673095703125" lon="7.1068485639989376068115234375"><ele></ele><time>2016-7-29T4:20:53Z</time></trkpt>
<trkpt lat="46.4600805938243865966796875" lon="7.10679936222732067108154296875"><ele></ele><time>2016-7-29T4:20:56Z</time></trkpt>
<trkpt lat="46.46008403040468692779541015625" lon="7.1066482365131378173828125"><ele></ele><time>2016-7-29T4:20:59Z</time></trkpt>
<trkpt lat="46.4601290412247180938720703125" lon="7.10638982243835926055908203125"><ele></ele><time>2016-7-29T4:21:2Z</time></trkpt>
<trkpt lat="46.46023423410952091217041015625" lon="7.10608270950615406036376953125"><ele></ele><time>2016-7-29T4:21:5Z</time></trkpt>
<trkpt lat="46.4603157900273799896240234375" lon="7.10597324185073375701904296875"><ele></ele><time>2016-7-29T4:21:8Z</time></trkpt>
<trkpt lat="46.46039885468780994415283203125" lon="7.10588690824806690216064453125"><ele></ele><time>2016-7-29T4:21:11Z</time></trkpt>
<trkpt lat="46.460737399756908416748046875" lon="7.1055968105792999267578125"><ele></ele><time>2016-7-29T4:21:14Z</time></trkpt>
<trkpt lat="46.4611543156206607818603515625" lon="7.105230353772640228271484375"><ele></ele><time>2016-7-29T4:21:17Z</time></trkpt>
<trkpt lat="46.46155002526938915252685546875" lon="7.10490035824477672576904296875"><ele></ele><time>2016-7-29T4:21:20Z</time></trkpt>
<trkpt lat="46.46189686842262744903564453125" lon="7.10459659807384014129638671875"><ele></ele><time>2016-7-29T4:21:23Z</time></trkpt>
<trkpt lat="46.46230909042060375213623046875" lon="7.1042449772357940673828125"><ele></ele><time>2016-7-29T4:21:26Z</time></trkpt>
<trkpt lat="46.46258116699755191802978515625" lon="7.103908024728298187255859375"><ele></ele><time>2016-7-29T4:21:29Z</time></trkpt>
<trkpt lat="46.4627145230770111083984375" lon="7.1035502851009368896484375"><ele></ele><time>2016-7-29T4:21:32Z</time></trkpt>
<trkpt lat="46.462728939950466156005859375" lon="7.1034867502748966217041015625"><ele></ele><time>2016-7-29T4:21:35Z</time></trkpt>
<trkpt lat="46.46275802515447139739990234375" lon="7.10318022407591342926025390625"><ele></ele><time>2016-7-29T4:21:38Z</time></trkpt>
<trkpt lat="46.46275484003126621246337890625" lon="7.1027407608926296234130859375"><ele></ele><time>2016-7-29T4:21:41Z</time></trkpt>
<trkpt lat="46.4627574384212493896484375" lon="7.1022254414856433868408203125"><ele></ele><time>2016-7-29T4:21:44Z</time></trkpt>
<trkpt lat="46.46277411840856075286865234375" lon="7.101826630532741546630859375"><ele></ele><time>2016-7-29T4:21:47Z</time></trkpt>
<trkpt lat="46.462797336280345916748046875" lon="7.101427651941776275634765625"><ele></ele><time>2016-7-29T4:21:50Z</time></trkpt>
<trkpt lat="46.46281845867633819580078125" lon="7.1009949781000614166259765625"><ele></ele><time>2016-7-29T4:21:53Z</time></trkpt>
<trkpt lat="46.462867073714733123779296875" lon="7.10043816827237606048583984375"><ele></ele><time>2016-7-29T4:21:56Z</time></trkpt>
<trkpt lat="46.462962962687015533447265625" lon="7.09995687939226627349853515625"><ele></ele><time>2016-7-29T4:21:59Z</time></trkpt>
<trkpt lat="46.4630375616252422332763671875" lon="7.0997340045869350433349609375"><ele></ele><time>2016-7-29T4:22:2Z</time></trkpt>
<trkpt lat="46.46313470788300037384033203125" lon="7.09950886666774749755859375"><ele></ele><time>2016-7-29T4:22:5Z</time></trkpt>
<trkpt lat="46.46341885440051555633544921875" lon="7.09899312816560268402099609375"><ele></ele><time>2016-7-29T4:22:8Z</time></trkpt>
<trkpt lat="46.4636725746095180511474609375" lon="7.0986705087125301361083984375"><ele></ele><time>2016-7-29T4:22:11Z</time></trkpt>
<trkpt lat="46.46372362039983272552490234375" lon="7.09863119758665561676025390625"><ele></ele><time>2016-7-29T4:22:14Z</time></trkpt>
<trkpt lat="46.4638915099203586578369140625" lon="7.09854033775627613067626953125"><ele></ele><time>2016-7-29T4:22:17Z</time></trkpt>
<trkpt lat="46.464022099971771240234375" lon="7.09847998805344104766845703125"><ele></ele><time>2016-7-29T4:22:20Z</time></trkpt>
<trkpt lat="46.4640772528946399688720703125" lon="7.0984545908868312835693359375"><ele></ele><time>2016-7-29T4:22:23Z</time></trkpt>
<trkpt lat="46.4643558673560619354248046875" lon="7.09830530919134616851806640625"><ele></ele><time>2016-7-29T4:22:26Z</time></trkpt>
<trkpt lat="46.46440171636641025543212890625" lon="7.098254598677158355712890625"><ele></ele><time>2016-7-29T4:22:29Z</time></trkpt>
<trkpt lat="46.464478075504302978515625" lon="7.09801353514194488525390625"><ele></ele><time>2016-7-29T4:22:32Z</time></trkpt>
<trkpt lat="46.46449391730129718780517578125" lon="7.09769141860306262969970703125"><ele></ele><time>2016-7-29T4:22:35Z</time></trkpt>
<trkpt lat="46.4645191468298435211181640625" lon="7.0974467508494853973388671875"><ele></ele><time>2016-7-29T4:22:38Z</time></trkpt>
<trkpt lat="46.46454554982483386993408203125" lon="7.09740375168621540069580078125"><ele></ele><time>2016-7-29T4:22:41Z</time></trkpt>
<trkpt lat="46.46467597223818302154541015625" lon="7.09726989269256591796875"><ele></ele><time>2016-7-29T4:22:44Z</time></trkpt>
<trkpt lat="46.46472341381013393402099609375" lon="7.09718414582312107086181640625"><ele></ele><time>2016-7-29T4:22:47Z</time></trkpt>
<trkpt lat="46.4647530019283294677734375" lon="7.09713569842278957366943359375"><ele></ele><time>2016-7-29T4:22:50Z</time></trkpt>
<trkpt lat="46.46482148207724094390869140625" lon="7.09700510837137699127197265625"><ele></ele><time>2016-7-29T4:22:53Z</time></trkpt>
<trkpt lat="46.46483589895069599151611328125" lon="7.0967651344835758209228515625"><ele></ele><time>2016-7-29T4:22:56Z</time></trkpt>
<trkpt lat="46.46479189395904541015625" lon="7.09637193940579891204833984375"><ele></ele><time>2016-7-29T4:22:59Z</time></trkpt>
<trkpt lat="46.4647521637380123138427734375" lon="7.09600883536040782928466796875"><ele></ele><time>2016-7-29T4:23:2Z</time></trkpt>
<trkpt lat="46.46460036747157573699951171875" lon="7.09571622312068939208984375"><ele></ele><time>2016-7-29T4:23:5Z</time></trkpt>
<trkpt lat="46.464414037764072418212890625" lon="7.09540952928364276885986328125"><ele></ele><time>2016-7-29T4:23:8Z</time></trkpt>
<trkpt lat="46.464271210134029388427734375" lon="7.09517668001353740692138671875"><ele></ele><time>2016-7-29T4:23:11Z</time></trkpt>
<trkpt lat="46.46408638916909694671630859375" lon="7.094873003661632537841796875"><ele></ele><time>2016-7-29T4:23:14Z</time></trkpt>
<trkpt lat="46.46387600339949131011962890625" lon="7.09453261457383632659912109375"><ele></ele><time>2016-7-29T4:23:17Z</time></trkpt>
<trkpt lat="46.4637319184839725494384765625" lon="7.09429574199020862579345703125"><ele></ele><time>2016-7-29T4:23:20Z</time></trkpt>
<trkpt lat="46.46351088769733905792236328125" lon="7.0939330570399761199951171875"><ele></ele><time>2016-7-29T4:23:23Z</time></trkpt>
<trkpt lat="46.4633071236312389373779296875" lon="7.09360021166503429412841796875"><ele></ele><time>2016-7-29T4:23:26Z</time></trkpt>
<trkpt lat="46.46311241202056407928466796875" lon="7.09325655363500118255615234375"><ele></ele><time>2016-7-29T4:23:29Z</time></trkpt>
<trkpt lat="46.46291459910571575164794921875" lon="7.0928283222019672393798828125"><ele></ele><time>2016-7-29T4:23:32Z</time></trkpt>
<trkpt lat="46.46280546672642230987548828125" lon="7.0925532281398773193359375"><ele></ele><time>2016-7-29T4:23:35Z</time></trkpt>
<trkpt lat="46.4627606235444545745849609375" lon="7.09234057925641536712646484375"><ele></ele><time>2016-7-29T4:23:38Z</time></trkpt>
<trkpt lat="46.46269599907100200653076171875" lon="7.09168880246579647064208984375"><ele></ele><time>2016-7-29T4:23:41Z</time></trkpt>
<trkpt lat="46.46265710704028606414794921875" lon="7.09095085971057415008544921875"><ele></ele><time>2016-7-29T4:23:44Z</time></trkpt>
<trkpt lat="46.462663225829601287841796875" lon="7.09076293744146823883056640625"><ele></ele><time>2016-7-29T4:23:47Z</time></trkpt>
<trkpt lat="46.46271795965731143951416015625" lon="7.09050712175667285919189453125"><ele></ele><time>2016-7-29T4:23:50Z</time></trkpt>
<trkpt lat="46.4628432691097259521484375" lon="7.0901182852685451507568359375"><ele></ele><time>2016-7-29T4:23:53Z</time></trkpt>
<trkpt lat="46.46294879727065563201904296875" lon="7.0897809974849224090576171875"><ele></ele><time>2016-7-29T4:23:56Z</time></trkpt>
<trkpt lat="46.462998501956462860107421875" lon="7.08959232084453105926513671875"><ele></ele><time>2016-7-29T4:23:59Z</time></trkpt>
<trkpt lat="46.4630134217441082000732421875" lon="7.08936651237308979034423828125"><ele></ele><time>2016-7-29T4:24:2Z</time></trkpt>
<trkpt lat="46.4630127511918544769287109375" lon="7.0891325734555721282958984375"><ele></ele><time>2016-7-29T4:24:5Z</time></trkpt>
<trkpt lat="46.4629819057881832122802734375" lon="7.08880073390901088714599609375"><ele></ele><time>2016-7-29T4:24:8Z</time></trkpt>
<trkpt lat="46.46293387748301029205322265625" lon="7.08851792849600315093994140625"><ele></ele><time>2016-7-29T4:24:11Z</time></trkpt>
<trkpt lat="46.4628913812339305877685546875" lon="7.088153399527072906494140625"><ele></ele><time>2016-7-29T4:24:14Z</time></trkpt>
<trkpt lat="46.46294645033776760101318359375" lon="7.08778702653944492340087890625"><ele></ele><time>2016-7-29T4:24:17Z</time></trkpt>
<trkpt lat="46.4629979990422725677490234375" lon="7.0872479863464832305908203125"><ele></ele><time>2016-7-29T4:24:20Z</time></trkpt>
<trkpt lat="46.46299456246197223663330078125" lon="7.087158970534801483154296875"><ele></ele><time>2016-7-29T4:24:23Z</time></trkpt>
<trkpt lat="46.46293052472174167633056640625" lon="7.08680433221161365509033203125"><ele></ele><time>2016-7-29T4:24:26Z</time></trkpt>
<trkpt lat="46.46276255138218402862548828125" lon="7.08618960343301296234130859375"><ele></ele><time>2016-7-29T4:24:29Z</time></trkpt>
<trkpt lat="46.46253054030239582061767578125" lon="7.0855920575559139251708984375"><ele></ele><time>2016-7-29T4:24:32Z</time></trkpt>
<trkpt lat="46.4623220823705196380615234375" lon="7.08501756191253662109375"><ele></ele><time>2016-7-29T4:24:35Z</time></trkpt>
<trkpt lat="46.462152935564517974853515625" lon="7.08444516174495220184326171875"><ele></ele><time>2016-7-29T4:24:38Z</time></trkpt>
<trkpt lat="46.46194732747972011566162109375" lon="7.0836799778044223785400390625"><ele></ele><time>2016-7-29T4:24:41Z</time></trkpt>
<trkpt lat="46.461762003600597381591796875" lon="7.08299810998141765594482421875"><ele></ele><time>2016-7-29T4:24:44Z</time></trkpt>
<trkpt lat="46.461688242852687835693359375" lon="7.0826593972742557525634765625"><ele></ele><time>2016-7-29T4:24:47Z</time></trkpt>
<trkpt lat="46.4615988917648792266845703125" lon="7.08221842534840106964111328125"><ele></ele><time>2016-7-29T4:24:50Z</time></trkpt>
<trkpt lat="46.4615289866924285888671875" lon="7.081887759268283843994140625"><ele></ele><time>2016-7-29T4:24:53Z</time></trkpt>
<trkpt lat="46.4614688046276569366455078125" lon="7.081610150635242462158203125"><ele></ele><time>2016-7-29T4:24:56Z</time></trkpt>
<trkpt lat="46.46142412908375263214111328125" lon="7.08143589086830615997314453125"><ele></ele><time>2016-7-29T4:24:59Z</time></trkpt>
<trkpt lat="46.4612703211605548858642578125" lon="7.081264145672321319580078125"><ele></ele><time>2016-7-29T4:25:2Z</time></trkpt>
<trkpt lat="46.46110679022967815399169921875" lon="7.0810675062239170074462890625"><ele></ele><time>2016-7-29T4:25:5Z</time></trkpt>
<trkpt lat="46.4610299281775951385498046875" lon="7.08084630779922008514404296875"><ele></ele><time>2016-7-29T4:25:8Z</time></trkpt>
<trkpt lat="46.4610245637595653533935546875" lon="7.08052159287035465240478515625"><ele></ele><time>2016-7-29T4:25:11Z</time></trkpt>
<trkpt lat="46.46108700893819332122802734375" lon="7.0800771005451679229736328125"><ele></ele><time>2016-7-29T4:25:14Z</time></trkpt>
<trkpt lat="46.46116764284670352935791015625" lon="7.07952775061130523681640625"><ele></ele><time>2016-7-29T4:25:17Z</time></trkpt>
<trkpt lat="46.461154483258724212646484375" lon="7.07914151251316070556640625"><ele></ele><time>2016-7-29T4:25:20Z</time></trkpt>
<trkpt lat="46.46114786155521869659423828125" lon="7.07881453447043895721435546875"><ele></ele><time>2016-7-29T4:25:23Z</time></trkpt>
<trkpt lat="46.461165212094783782958984375" lon="7.07843877375125885009765625"><ele></ele><time>2016-7-29T4:25:26Z</time></trkpt>
<trkpt lat="46.46120720542967319488525390625" lon="7.0779809542000293731689453125"><ele></ele><time>2016-7-29T4:25:29Z</time></trkpt>
<trkpt lat="46.4611999131739139556884765625" lon="7.07774600945413112640380859375"><ele></ele><time>2016-7-29T4:25:32Z</time></trkpt>
<trkpt lat="46.46118842996656894683837890625" lon="7.07730981521308422088623046875"><ele></ele><time>2016-7-29T4:25:35Z</time></trkpt>
<trkpt lat="46.461181640625" lon="7.07697487436234951019287109375"><ele></ele><time>2016-7-29T4:25:38Z</time></trkpt>
<trkpt lat="46.46116730757057666778564453125" lon="7.076578997075557708740234375"><ele></ele><time>2016-7-29T4:25:41Z</time></trkpt>
<trkpt lat="46.46112573333084583282470703125" lon="7.07630046643316745758056640625"><ele></ele><time>2016-7-29T4:25:44Z</time></trkpt>
<trkpt lat="46.46108248271048069000244140625" lon="7.0758645236492156982421875"><ele></ele><time>2016-7-29T4:25:47Z</time></trkpt>
<trkpt lat="46.46101693622767925262451171875" lon="7.075540982186794281005859375"><ele></ele><time>2016-7-29T4:25:50Z</time></trkpt>
<trkpt lat="46.460873186588287353515625" lon="7.07505650818347930908203125"><ele></ele><time>2016-7-29T4:25:53Z</time></trkpt>
<trkpt lat="46.4608461968600749969482421875" lon="7.0749778859317302703857421875"><ele></ele><time>2016-7-29T4:25:56Z</time></trkpt>
<trkpt lat="46.4606369845569133758544921875" lon="7.0743636600673198699951171875"><ele></ele><time>2016-7-29T4:25:59Z</time></trkpt>
<trkpt lat="46.46060454659163951873779296875" lon="7.0741908252239227294921875"><ele></ele><time>2016-7-29T4:26:2Z</time></trkpt>
<trkpt lat="46.46059348247945308685302734375" lon="7.07399569451808929443359375"><ele></ele><time>2016-7-29T4:26:5Z</time></trkpt>
<trkpt lat="46.4605464600026607513427734375" lon="7.07339362241327762603759765625"><ele></ele><time>2016-7-29T4:26:8Z</time></trkpt>
<trkpt lat="46.46043657325208187103271484375" lon="7.07287721335887908935546875"><ele></ele><time>2016-7-29T4:26:11Z</time></trkpt>
<trkpt lat="46.4604388363659381866455078125" lon="7.07276615314185619354248046875"><ele></ele><time>2016-7-29T4:26:14Z</time></trkpt>
<trkpt lat="46.4604847691953182220458984375" lon="7.0725099183619022369384765625"><ele></ele><time>2016-7-29T4:26:17Z</time></trkpt>
<trkpt lat="46.46049440838396549224853515625" lon="7.07243087701499462127685546875"><ele></ele><time>2016-7-29T4:26:20Z</time></trkpt>
<trkpt lat="46.46049474366009235382080078125" lon="7.07235275767743587493896484375"><ele></ele><time>2016-7-29T4:26:23Z</time></trkpt>
<trkpt lat="46.4604804106056690216064453125" lon="7.07212485373020172119140625"><ele></ele><time>2016-7-29T4:26:26Z</time></trkpt>
<trkpt lat="46.4604721963405609130859375" lon="7.07204614765942096710205078125"><ele></ele><time>2016-7-29T4:26:29Z</time></trkpt>
<trkpt lat="46.46046574227511882781982421875" lon="7.0718846283853054046630859375"><ele></ele><time>2016-7-29T4:26:32Z</time></trkpt>
<trkpt lat="46.46049004979431629180908203125" lon="7.0716802775859832763671875"><ele></ele><time>2016-7-29T4:26:35Z</time></trkpt>
<trkpt lat="46.4605075679719448089599609375" lon="7.07162101753056049346923828125"><ele></ele><time>2016-7-29T4:26:38Z</time></trkpt>
<trkpt lat="46.4605883695185184478759765625" lon="7.07147332839667797088623046875"><ele></ele><time>2016-7-29T4:26:41Z</time></trkpt>
<trkpt lat="46.46061426959931850433349609375" lon="7.07142437808215618133544921875"><ele></ele><time>2016-7-29T4:26:44Z</time></trkpt>
<trkpt lat="46.46072541363537311553955078125" lon="7.07113872282207012176513671875"><ele></ele><time>2016-7-29T4:26:47Z</time></trkpt>
<trkpt lat="46.46078802645206451416015625" lon="7.0708157680928707122802734375"><ele></ele><time>2016-7-29T4:26:50Z</time></trkpt>
<trkpt lat="46.46086975000798702239990234375" lon="7.07036959938704967498779296875"><ele></ele><time>2016-7-29T4:26:53Z</time></trkpt>
<trkpt lat="46.4609578438103199005126953125" lon="7.06994463689625263214111328125"><ele></ele><time>2016-7-29T4:26:56Z</time></trkpt>
<trkpt lat="46.46112238056957721710205078125" lon="7.069511711597442626953125"><ele></ele><time>2016-7-29T4:26:59Z</time></trkpt>
<trkpt lat="46.46132404915988445281982421875" lon="7.0689982362091541290283203125"><ele></ele><time>2016-7-29T4:27:2Z</time></trkpt>
<trkpt lat="46.461451537907123565673828125" lon="7.06868718378245830535888671875"><ele></ele><time>2016-7-29T4:27:5Z</time></trkpt>
<trkpt lat="46.46156377159059047698974609375" lon="7.0686062984168529510498046875"><ele></ele><time>2016-7-29T4:27:8Z</time></trkpt>
<trkpt lat="46.461694277822971343994140625" lon="7.0685519836843013763427734375"><ele></ele><time>2016-7-29T4:27:11Z</time></trkpt>
<trkpt lat="46.46177918650209903717041015625" lon="7.06839800812304019927978515625"><ele></ele><time>2016-7-29T4:27:14Z</time></trkpt>
<trkpt lat="46.4618644304573535919189453125" lon="7.068174295127391815185546875"><ele></ele><time>2016-7-29T4:27:17Z</time></trkpt>
<trkpt lat="46.461939699947834014892578125" lon="7.06792183220386505126953125"><ele></ele><time>2016-7-29T4:27:20Z</time></trkpt>
<trkpt lat="46.46202276460826396942138671875" lon="7.0676443912088871002197265625"><ele></ele><time>2016-7-29T4:27:23Z</time></trkpt>
<trkpt lat="46.462104655802249908447265625" lon="7.06725236959755420684814453125"><ele></ele><time>2016-7-29T4:27:26Z</time></trkpt>
<trkpt lat="46.46218101494014263153076171875" lon="7.067012228071689605712890625"><ele></ele><time>2016-7-29T4:27:29Z</time></trkpt>
<trkpt lat="46.46221236325800418853759765625" lon="7.0669667981564998626708984375"><ele></ele><time>2016-7-29T4:27:32Z</time></trkpt>
<trkpt lat="46.462212614715099334716796875" lon="7.06696704961359500885009765625"><ele></ele><time>2016-7-29T4:27:35Z</time></trkpt>
<trkpt lat="46.46222862415015697479248046875" lon="7.06701457500457763671875"><ele></ele><time>2016-7-29T4:27:38Z</time></trkpt>
<trkpt lat="46.4621960185468196868896484375" lon="7.06702287308871746063232421875"><ele></ele><time>2016-7-29T4:27:41Z</time></trkpt>
<trkpt lat="46.4622060768306255340576171875" lon="7.06701298244297504425048828125"><ele></ele><time>2016-7-29T4:27:44Z</time></trkpt>
<trkpt lat="46.46212284453213214874267578125" lon="7.06699923612177371978759765625"><ele></ele><time>2016-7-29T4:27:47Z</time></trkpt>
<trkpt lat="46.46210691891610622406005859375" lon="7.06701750867068767547607421875"><ele></ele><time>2016-7-29T4:27:50Z</time></trkpt>
<trkpt lat="46.462172381579875946044921875" lon="7.067004851996898651123046875"><ele></ele><time>2016-7-29T4:27:53Z</time></trkpt>
<trkpt lat="46.46218973211944103240966796875" lon="7.06702404655516147613525390625"><ele></ele><time>2016-7-29T4:27:56Z</time></trkpt>
<trkpt lat="46.462179757654666900634765625" lon="7.0669761858880519866943359375"><ele></ele><time>2016-7-29T4:27:59Z</time></trkpt>
<trkpt lat="46.46220113150775432586669921875" lon="7.06699705682694911956787109375"><ele></ele><time>2016-7-29T4:28:2Z</time></trkpt>
<trkpt lat="46.46220532245934009552001953125" lon="7.06697626970708370208740234375"><ele></ele><time>2016-7-29T4:28:5Z</time></trkpt>
<trkpt lat="46.4622104354202747344970703125" lon="7.06699957139790058135986328125"><ele></ele><time>2016-7-29T4:28:8Z</time></trkpt>
<trkpt lat="46.4622090943157672882080078125" lon="7.06701700575649738311767578125"><ele></ele><time>2016-7-29T4:28:11Z</time></trkpt>
<trkpt lat="46.46219492889940738677978515625" lon="7.0670170895755290985107421875"><ele></ele><time>2016-7-29T4:28:14Z</time></trkpt>
<trkpt lat="46.46219861693680286407470703125" lon="7.0669869147241115570068359375"><ele></ele><time>2016-7-29T4:28:17Z</time></trkpt>
<trkpt lat="46.4621963538229465484619140625" lon="7.0669238828122615814208984375"><ele></ele><time>2016-7-29T4:28:20Z</time></trkpt>
<trkpt lat="46.46218813955783843994140625" lon="7.06689052283763885498046875"><ele></ele><time>2016-7-29T4:28:23Z</time></trkpt>
<trkpt lat="46.46227941848337650299072265625" lon="7.0667317695915699005126953125"><ele></ele><time>2016-7-29T4:28:26Z</time></trkpt>
<trkpt lat="46.4623204059898853302001953125" lon="7.0664917118847370147705078125"><ele></ele><time>2016-7-29T4:28:29Z</time></trkpt>
<trkpt lat="46.46232250146567821502685546875" lon="7.06618267111480236053466796875"><ele></ele><time>2016-7-29T4:28:32Z</time></trkpt>
<trkpt lat="46.4624048955738544464111328125" lon="7.0658835209906101226806640625"><ele></ele><time>2016-7-29T4:28:35Z</time></trkpt>
<trkpt lat="46.46261058747768402099609375" lon="7.065850161015987396240234375"><ele></ele><time>2016-7-29T4:28:38Z</time></trkpt>
<trkpt lat="46.46273237653076648712158203125" lon="7.0658357441425323486328125"><ele></ele><time>2016-7-29T4:28:41Z</time></trkpt>
<trkpt lat="46.46289682947099208831787109375" lon="7.0658116042613983154296875"><ele></ele><time>2016-7-29T4:28:44Z</time></trkpt>
<trkpt lat="46.46316111087799072265625" lon="7.06578486599028110504150390625"><ele></ele><time>2016-7-29T4:28:47Z</time></trkpt>
<trkpt lat="46.46333084441721439361572265625" lon="7.06580850295722484588623046875"><ele></ele><time>2016-7-29T4:28:50Z</time></trkpt>
<trkpt lat="46.4636296592652797698974609375" lon="7.06586994230747222900390625"><ele></ele><time>2016-7-29T4:28:53Z</time></trkpt>
<trkpt lat="46.46374382078647613525390625" lon="7.06571043469011783599853515625"><ele></ele><time>2016-7-29T4:28:56Z</time></trkpt>
<trkpt lat="46.46377843804657459259033203125" lon="7.065469287335872650146484375"><ele></ele><time>2016-7-29T4:28:59Z</time></trkpt>
<trkpt lat="46.46389310248196125030517578125" lon="7.06511146388947963714599609375"><ele></ele><time>2016-7-29T4:29:2Z</time></trkpt>
<trkpt lat="46.46403484046459197998046875" lon="7.06502328626811504364013671875"><ele></ele><time>2016-7-29T4:29:5Z</time></trkpt>
<trkpt lat="46.46409225650131702423095703125" lon="7.06496209837496280670166015625"><ele></ele><time>2016-7-29T4:29:8Z</time></trkpt>
<trkpt lat="46.46414170973002910614013671875" lon="7.06488565541803836822509765625"><ele></ele><time>2016-7-29T4:29:11Z</time></trkpt>
<trkpt lat="46.46427682600915431976318359375" lon="7.06465314142405986785888671875"><ele></ele><time>2016-7-29T4:29:14Z</time></trkpt>
<trkpt lat="46.4646405167877674102783203125" lon="7.06397831439971923828125"><ele></ele><time>2016-7-29T4:29:17Z</time></trkpt>
<trkpt lat="46.46467546932399272918701171875" lon="7.06381595693528652191162109375"><ele></ele><time>2016-7-29T4:29:20Z</time></trkpt>
<trkpt lat="46.46470229141414165496826171875" lon="7.06356449984014034271240234375"><ele></ele><time>2016-7-29T4:29:23Z</time></trkpt>
<trkpt lat="46.4647270180284976959228515625" lon="7.06298011355102062225341796875"><ele></ele><time>2016-7-29T4:29:26Z</time></trkpt>
<trkpt lat="46.4647166244685649871826171875" lon="7.06289260648190975189208984375"><ele></ele><time>2016-7-29T4:29:29Z</time></trkpt>
<trkpt lat="46.464686952531337738037109375" lon="7.0626440830528736114501953125"><ele></ele><time>2016-7-29T4:29:32Z</time></trkpt>
<trkpt lat="46.464668177068233489990234375" lon="7.0625676400959491729736328125"><ele></ele><time>2016-7-29T4:29:35Z</time></trkpt>
<trkpt lat="46.464467681944370269775390625" lon="7.062233202159404754638671875"><ele></ele><time>2016-7-29T4:29:38Z</time></trkpt>
<trkpt lat="46.46442485041916370391845703125" lon="7.0621572621166706085205078125"><ele></ele><time>2016-7-29T4:29:41Z</time></trkpt>
<trkpt lat="46.46422720514237880706787109375" lon="7.061814107000827789306640625"><ele></ele><time>2016-7-29T4:29:44Z</time></trkpt>
<trkpt lat="46.4642036519944667816162109375" lon="7.06174143590033054351806640625"><ele></ele><time>2016-7-29T4:29:47Z</time></trkpt>
<trkpt lat="46.46415981464087963104248046875" lon="7.06142015755176544189453125"><ele></ele><time>2016-7-29T4:29:50Z</time></trkpt>
<trkpt lat="46.4641520194709300994873046875" lon="7.06132770515978336334228515625"><ele></ele><time>2016-7-29T4:29:53Z</time></trkpt>
<trkpt lat="46.464184708893299102783203125" lon="7.0609593205153942108154296875"><ele></ele><time>2016-7-29T4:29:56Z</time></trkpt>
<trkpt lat="46.46425905637443065643310546875" lon="7.06063737161457538604736328125"><ele></ele><time>2016-7-29T4:29:59Z</time></trkpt>
<trkpt lat="46.4642569608986377716064453125" lon="7.06057014875113964080810546875"><ele></ele><time>2016-7-29T4:30:2Z</time></trkpt>
<trkpt lat="46.46423055790364742279052734375" lon="7.0604000799357891082763671875"><ele></ele><time>2016-7-29T4:30:5Z</time></trkpt>
<trkpt lat="46.46420222707092761993408203125" lon="7.06027443520724773406982421875"><ele></ele><time>2016-7-29T4:30:8Z</time></trkpt>
<trkpt lat="46.464097537100315093994140625" lon="7.05989389680325984954833984375"><ele></ele><time>2016-7-29T4:30:11Z</time></trkpt>
<trkpt lat="46.464061327278614044189453125" lon="7.05952911637723445892333984375"><ele></ele><time>2016-7-29T4:30:14Z</time></trkpt>
<trkpt lat="46.46400877274572849273681640625" lon="7.059206999838352203369140625"><ele></ele><time>2016-7-29T4:30:17Z</time></trkpt>
<trkpt lat="46.46394724957644939422607421875" lon="7.058806680142879486083984375"><ele></ele><time>2016-7-29T4:30:20Z</time></trkpt>
<trkpt lat="46.46395127288997173309326171875" lon="7.05820041708648204803466796875"><ele></ele><time>2016-7-29T4:30:23Z</time></trkpt>
<trkpt lat="46.463982872664928436279296875" lon="7.05780529417097568511962890625"><ele></ele><time>2016-7-29T4:30:26Z</time></trkpt>
<trkpt lat="46.46398949436843395233154296875" lon="7.05769783817231655120849609375"><ele></ele><time>2016-7-29T4:30:29Z</time></trkpt>
<trkpt lat="46.463968120515346527099609375" lon="7.05744688399136066436767578125"><ele></ele><time>2016-7-29T4:30:32Z</time></trkpt>
<trkpt lat="46.46398723125457763671875" lon="7.0572706125676631927490234375"><ele></ele><time>2016-7-29T4:30:35Z</time></trkpt>
<trkpt lat="46.4640507660806179046630859375" lon="7.0571190677583217620849609375"><ele></ele><time>2016-7-29T4:30:38Z</time></trkpt>
<trkpt lat="46.46406778134405612945556640625" lon="7.057065926492214202880859375"><ele></ele><time>2016-7-29T4:30:41Z</time></trkpt>
<trkpt lat="46.46420239470899105072021484375" lon="7.0567596517503261566162109375"><ele></ele><time>2016-7-29T4:30:44Z</time></trkpt>
<trkpt lat="46.46425033919513225555419921875" lon="7.0566513575613498687744140625"><ele></ele><time>2016-7-29T4:30:47Z</time></trkpt>
<trkpt lat="46.4643659256398677825927734375" lon="7.05645631067454814910888671875"><ele></ele><time>2016-7-29T4:30:50Z</time></trkpt>
<trkpt lat="46.4644289575517177581787109375" lon="7.0562468469142913818359375"><ele></ele><time>2016-7-29T4:30:53Z</time></trkpt>
<trkpt lat="46.46446927450597286224365234375" lon="7.05602380447089672088623046875"><ele></ele><time>2016-7-29T4:30:56Z</time></trkpt>
<trkpt lat="46.46450020372867584228515625" lon="7.0558698289096355438232421875"><ele></ele><time>2016-7-29T4:30:59Z</time></trkpt>
<trkpt lat="46.46458662115037441253662109375" lon="7.055546455085277557373046875"><ele></ele><time>2016-7-29T4:31:2Z</time></trkpt>
<trkpt lat="46.46458276547491550445556640625" lon="7.05545970238745212554931640625"><ele></ele><time>2016-7-29T4:31:5Z</time></trkpt>
<trkpt lat="46.4645717851817607879638671875" lon="7.05509307794272899627685546875"><ele></ele><time>2016-7-29T4:31:8Z</time></trkpt>
<trkpt lat="46.4645650796592235565185546875" lon="7.05499886535108089447021484375"><ele></ele><time>2016-7-29T4:31:11Z</time></trkpt>
<trkpt lat="46.46453079767525196075439453125" lon="7.05472863279283046722412109375"><ele></ele><time>2016-7-29T4:31:14Z</time></trkpt>
<trkpt lat="46.46452761255204677581787109375" lon="7.05463819205760955810546875"><ele></ele><time>2016-7-29T4:31:17Z</time></trkpt>
<trkpt lat="46.464542113244533538818359375" lon="7.0544779300689697265625"><ele></ele><time>2016-7-29T4:31:20Z</time></trkpt>
<trkpt lat="46.46452560089528560638427734375" lon="7.054209373891353607177734375"><ele></ele><time>2016-7-29T4:31:23Z</time></trkpt>
<trkpt lat="46.46447430364787578582763671875" lon="7.0539587549865245819091796875"><ele></ele><time>2016-7-29T4:31:26Z</time></trkpt>
<trkpt lat="46.4644628204405307769775390625" lon="7.05375214107334613800048828125"><ele></ele><time>2016-7-29T4:31:29Z</time></trkpt>
<trkpt lat="46.46441571414470672607421875" lon="7.05343882553279399871826171875"><ele></ele><time>2016-7-29T4:31:32Z</time></trkpt>
<trkpt lat="46.46441043354570865631103515625" lon="7.05327101983129978179931640625"><ele></ele><time>2016-7-29T4:31:35Z</time></trkpt>
<trkpt lat="46.46447681821882724761962890625" lon="7.0531296171247959136962890625"><ele></ele><time>2016-7-29T4:31:38Z</time></trkpt>
<trkpt lat="46.4646281115710735321044921875" lon="7.05297882668673992156982421875"><ele></ele><time>2016-7-29T4:31:41Z</time></trkpt>
<trkpt lat="46.46495676599442958831787109375" lon="7.0526598952710628509521484375"><ele></ele><time>2016-7-29T4:31:44Z</time></trkpt>
<trkpt lat="46.4650022797286510467529296875" lon="7.05260549671947956085205078125"><ele></ele><time>2016-7-29T4:31:47Z</time></trkpt>
<trkpt lat="46.46515960805118083953857421875" lon="7.05240634270012378692626953125"><ele></ele><time>2016-7-29T4:31:50Z</time></trkpt>
<trkpt lat="46.46522574126720428466796875" lon="7.05227759666740894317626953125"><ele></ele><time>2016-7-29T4:31:53Z</time></trkpt>
<trkpt lat="46.4652423374354839324951171875" lon="7.0522076077759265899658203125"><ele></ele><time>2016-7-29T4:31:56Z</time></trkpt>
<trkpt lat="46.4653135836124420166015625" lon="7.0519055239856243133544921875"><ele></ele><time>2016-7-29T4:31:59Z</time></trkpt>
<trkpt lat="46.46530754864215850830078125" lon="7.05151082016527652740478515625"><ele></ele><time>2016-7-29T4:32:2Z</time></trkpt>
<trkpt lat="46.46529614925384521484375" lon="7.0511625520884990692138671875"><ele></ele><time>2016-7-29T4:32:5Z</time></trkpt>
<trkpt lat="46.46533713676035404205322265625" lon="7.05069174058735370635986328125"><ele></ele><time>2016-7-29T4:32:8Z</time></trkpt>
<trkpt lat="46.4653251506388187408447265625" lon="7.0506034791469573974609375"><ele></ele><time>2016-7-29T4:32:11Z</time></trkpt>
<trkpt lat="46.46528315730392932891845703125" lon="7.0503106154501438140869140625"><ele></ele><time>2016-7-29T4:32:14Z</time></trkpt>
<trkpt lat="46.46521174348890781402587890625" lon="7.04966495744884014129638671875"><ele></ele><time>2016-7-29T4:32:17Z</time></trkpt>
<trkpt lat="46.4652587659657001495361328125" lon="7.04926145263016223907470703125"><ele></ele><time>2016-7-29T4:32:20Z</time></trkpt>
<trkpt lat="46.4653083868324756622314453125" lon="7.0491777174174785614013671875"><ele></ele><time>2016-7-29T4:32:23Z</time></trkpt>
<trkpt lat="46.46548516117036342620849609375" lon="7.0490536652505397796630859375"><ele></ele><time>2016-7-29T4:32:26Z</time></trkpt>
<trkpt lat="46.46564760245382785797119140625" lon="7.048940174281597137451171875"><ele></ele><time>2016-7-29T4:32:29Z</time></trkpt>
<trkpt lat="46.46581607870757579803466796875" lon="7.04864370636641979217529296875"><ele></ele><time>2016-7-29T4:32:32Z</time></trkpt>
<trkpt lat="46.46593728102743625640869140625" lon="7.0482614077627658843994140625"><ele></ele><time>2016-7-29T4:32:35Z</time></trkpt>
<trkpt lat="46.46621455438435077667236328125" lon="7.048073820769786834716796875"><ele></ele><time>2016-7-29T4:32:38Z</time></trkpt>
<trkpt lat="46.466383449733257293701171875" lon="7.04799033701419830322265625"><ele></ele><time>2016-7-29T4:32:41Z</time></trkpt>
<trkpt lat="46.466638259589672088623046875" lon="7.0477896742522716522216796875"><ele></ele><time>2016-7-29T4:32:44Z</time></trkpt>
<trkpt lat="46.46671880967915058135986328125" lon="7.04775975085794925689697265625"><ele></ele><time>2016-7-29T4:32:47Z</time></trkpt>
<trkpt lat="46.46697713993489742279052734375" lon="7.0476978085935115814208984375"><ele></ele><time>2016-7-29T4:32:50Z</time></trkpt>
<trkpt lat="46.467224322259426116943359375" lon="7.04760946333408355712890625"><ele></ele><time>2016-7-29T4:32:53Z</time></trkpt>
<trkpt lat="46.46735516376793384552001953125" lon="7.04751382581889629364013671875"><ele></ele><time>2016-7-29T4:32:56Z</time></trkpt>
<trkpt lat="46.46747385151684284210205078125" lon="7.04741626046597957611083984375"><ele></ele><time>2016-7-29T4:32:59Z</time></trkpt>
<trkpt lat="46.4675128273665904998779296875" lon="7.04739748500287532806396484375"><ele></ele><time>2016-7-29T4:33:2Z</time></trkpt>
<trkpt lat="46.46753034554421901702880859375" lon="7.04741709865629673004150390625"><ele></ele><time>2016-7-29T4:33:5Z</time></trkpt>
<trkpt lat="46.4675336144864559173583984375" lon="7.04743151552975177764892578125"><ele></ele><time>2016-7-29T4:33:8Z</time></trkpt>
<trkpt lat="46.46751894615590572357177734375" lon="7.04744744114577770233154296875"><ele></ele><time>2016-7-29T4:33:11Z</time></trkpt>
<trkpt lat="46.467502601444721221923828125" lon="7.04745666123926639556884765625"><ele></ele><time>2016-7-29T4:33:14Z</time></trkpt>
<trkpt lat="46.4674896933138370513916015625" lon="7.047462947666645050048828125"><ele></ele><time>2016-7-29T4:33:17Z</time></trkpt>
<trkpt lat="46.46749245934188365936279296875" lon="7.047462277114391326904296875"><ele></ele><time>2016-7-29T4:33:20Z</time></trkpt>
<trkpt lat="46.467487178742885589599609375" lon="7.04745934344828128814697265625"><ele></ele><time>2016-7-29T4:33:23Z</time></trkpt>
<trkpt lat="46.46750628948211669921875" lon="7.04748071730136871337890625"><ele></ele><time>2016-7-29T4:33:26Z</time></trkpt>
<trkpt lat="46.46751425229012966156005859375" lon="7.04742179252207279205322265625"><ele></ele><time>2016-7-29T4:33:29Z</time></trkpt>
<trkpt lat="46.46751341409981250762939453125" lon="7.04739379696547985076904296875"><ele></ele><time>2016-7-29T4:33:32Z</time></trkpt>
<trkpt lat="46.4675359614193439483642578125" lon="7.0473481155931949615478515625"><ele></ele><time>2016-7-29T4:33:35Z</time></trkpt>
<trkpt lat="46.46765322424471378326416015625" lon="7.04720503650605678558349609375"><ele></ele><time>2016-7-29T4:33:38Z</time></trkpt>
<trkpt lat="46.46791758947074413299560546875" lon="7.04705558717250823974609375"><ele></ele><time>2016-7-29T4:33:41Z</time></trkpt>
<trkpt lat="46.46819067187607288360595703125" lon="7.0468968339264392852783203125"><ele></ele><time>2016-7-29T4:33:44Z</time></trkpt>
<trkpt lat="46.46843357942998409271240234375" lon="7.04678392969071865081787109375"><ele></ele><time>2016-7-29T4:33:47Z</time></trkpt>
<trkpt lat="46.46867774426937103271484375" lon="7.04663808457553386688232421875"><ele></ele><time>2016-7-29T4:33:50Z</time></trkpt>
<trkpt lat="46.46881797350943088531494140625" lon="7.04645334742963314056396484375"><ele></ele><time>2016-7-29T4:33:53Z</time></trkpt>
<trkpt lat="46.46894462406635284423828125" lon="7.0462609827518463134765625"><ele></ele><time>2016-7-29T4:33:56Z</time></trkpt>
<trkpt lat="46.46910044364631175994873046875" lon="7.04612812958657741546630859375"><ele></ele><time>2016-7-29T4:33:59Z</time></trkpt>
<trkpt lat="46.469130031764507293701171875" lon="7.0461122877895832061767578125"><ele></ele><time>2016-7-29T4:34:2Z</time></trkpt>
<trkpt lat="46.4692819118499755859375" lon="7.04604397527873516082763671875"><ele></ele><time>2016-7-29T4:34:5Z</time></trkpt>
<trkpt lat="46.4694872684776782989501953125" lon="7.0459597371518611907958984375"><ele></ele><time>2016-7-29T4:34:8Z</time></trkpt>
<trkpt lat="46.469587348401546478271484375" lon="7.0459171570837497711181640625"><ele></ele><time>2016-7-29T4:34:11Z</time></trkpt>
<trkpt lat="46.469708383083343505859375" lon="7.04590768553316593170166015625"><ele></ele><time>2016-7-29T4:34:14Z</time></trkpt>
<trkpt lat="46.46985431201756000518798828125" lon="7.04585856758058071136474609375"><ele></ele><time>2016-7-29T4:34:17Z</time></trkpt>
<trkpt lat="46.4700763486325740814208984375" lon="7.0457897521555423736572265625"><ele></ele><time>2016-7-29T4:34:20Z</time></trkpt>
<trkpt lat="46.47021741606295108795166015625" lon="7.04571825452148914337158203125"><ele></ele><time>2016-7-29T4:34:23Z</time></trkpt>
<trkpt lat="46.4704304002225399017333984375" lon="7.0456734113395214080810546875"><ele></ele><time>2016-7-29T4:34:26Z</time></trkpt>
<trkpt lat="46.4706094376742839813232421875" lon="7.04576653428375720977783203125"><ele></ele><time>2016-7-29T4:34:29Z</time></trkpt>
<trkpt lat="46.47084555588662624359130859375" lon="7.04581481404602527618408203125"><ele></ele><time>2016-7-29T4:34:32Z</time></trkpt>
<trkpt lat="46.4710771478712558746337890625" lon="7.04581917263567447662353515625"><ele></ele><time>2016-7-29T4:34:35Z</time></trkpt>
<trkpt lat="46.4712672494351863861083984375" lon="7.04566645435988903045654296875"><ele></ele><time>2016-7-29T4:34:38Z</time></trkpt>
<trkpt lat="46.47151124663650989532470703125" lon="7.04543394036591053009033203125"><ele></ele><time>2016-7-29T4:34:41Z</time></trkpt>
<trkpt lat="46.47152616642415523529052734375" lon="7.04537610523402690887451171875"><ele></ele><time>2016-7-29T4:34:44Z</time></trkpt>
<trkpt lat="46.471796147525310516357421875" lon="7.0450347103178501129150390625"><ele></ele><time>2016-7-29T4:34:47Z</time></trkpt>
<trkpt lat="46.47186630405485630035400390625" lon="7.045006714761257171630859375"><ele></ele><time>2016-7-29T4:34:50Z</time></trkpt>
<trkpt lat="46.472015418112277984619140625" lon="7.04498098231852054595947265625"><ele></ele><time>2016-7-29T4:34:53Z</time></trkpt>
<trkpt lat="46.4722187630832195281982421875" lon="7.04473606310784816741943359375"><ele></ele><time>2016-7-29T4:34:56Z</time></trkpt>
<trkpt lat="46.47230283357203006744384765625" lon="7.044400535523891448974609375"><ele></ele><time>2016-7-29T4:34:59Z</time></trkpt>
<trkpt lat="46.4724242873489856719970703125" lon="7.04410783946514129638671875"><ele></ele><time>2016-7-29T4:35:2Z</time></trkpt>
<trkpt lat="46.4725332520902156829833984375" lon="7.04399627633392810821533203125"><ele></ele><time>2016-7-29T4:35:5Z</time></trkpt>
<trkpt lat="46.47270868532359600067138671875" lon="7.0439189113676548004150390625"><ele></ele><time>2016-7-29T4:35:8Z</time></trkpt>
<trkpt lat="46.47275730036199092864990234375" lon="7.0438860543072223663330078125"><ele></ele><time>2016-7-29T4:35:11Z</time></trkpt>
<trkpt lat="46.47286576218903064727783203125" lon="7.04368765465915203094482421875"><ele></ele><time>2016-7-29T4:35:14Z</time></trkpt>
<trkpt lat="46.47288613021373748779296875" lon="7.0433945395052433013916015625"><ele></ele><time>2016-7-29T4:35:17Z</time></trkpt>
<trkpt lat="46.472893171012401580810546875" lon="7.04333938658237457275390625"><ele></ele><time>2016-7-29T4:35:20Z</time></trkpt>
<trkpt lat="46.47288772277534008026123046875" lon="7.0429355464875698089599609375"><ele></ele><time>2016-7-29T4:35:23Z</time></trkpt>
<trkpt lat="46.4728658460080623626708984375" lon="7.04285935498774051666259765625"><ele></ele><time>2016-7-29T4:35:26Z</time></trkpt>
<trkpt lat="46.47288286127150058746337890625" lon="7.042640335857868194580078125"><ele></ele><time>2016-7-29T4:35:29Z</time></trkpt>
<trkpt lat="46.47289208136498928070068359375" lon="7.04251133836805820465087890625"><ele></ele><time>2016-7-29T4:35:32Z</time></trkpt>
<trkpt lat="46.472903229296207427978515625" lon="7.04216323792934417724609375"><ele></ele><time>2016-7-29T4:35:35Z</time></trkpt>
<trkpt lat="46.4729042351245880126953125" lon="7.0420028083026409149169921875"><ele></ele><time>2016-7-29T4:35:38Z</time></trkpt>
<trkpt lat="46.472997106611728668212890625" lon="7.04171254299581050872802734375"><ele></ele><time>2016-7-29T4:35:41Z</time></trkpt>
<trkpt lat="46.47320908494293689727783203125" lon="7.0413010753691196441650390625"><ele></ele><time>2016-7-29T4:35:44Z</time></trkpt>
<trkpt lat="46.4734200574457645416259765625" lon="7.04101583920419216156005859375"><ele></ele><time>2016-7-29T4:35:47Z</time></trkpt>
<trkpt lat="46.47360286675393581390380859375" lon="7.040775530040264129638671875"><ele></ele><time>2016-7-29T4:35:50Z</time></trkpt>
<trkpt lat="46.47379539906978607177734375" lon="7.040639407932758331298828125"><ele></ele><time>2016-7-29T4:35:53Z</time></trkpt>
<trkpt lat="46.473840661346912384033203125" lon="7.0406342111527919769287109375"><ele></ele><time>2016-7-29T4:35:56Z</time></trkpt>
<trkpt lat="46.47400100715458393096923828125" lon="7.04065793193876743316650390625"><ele></ele><time>2016-7-29T4:35:59Z</time></trkpt>
<trkpt lat="46.474135033786296844482421875" lon="7.040584422647953033447265625"><ele></ele><time>2016-7-29T4:36:2Z</time></trkpt>
<trkpt lat="46.47414484061300754547119140625" lon="7.0405906252562999725341796875"><ele></ele><time>2016-7-29T4:36:5Z</time></trkpt>
<trkpt lat="46.474166549742221832275390625" lon="7.04059640876948833465576171875"><ele></ele><time>2016-7-29T4:36:8Z</time></trkpt>
<trkpt lat="46.47419915534555912017822265625" lon="7.0405929721891880035400390625"><ele></ele><time>2016-7-29T4:36:11Z</time></trkpt>
<trkpt lat="46.4742240495979785919189453125" lon="7.04058551229536533355712890625"><ele></ele><time>2016-7-29T4:36:14Z</time></trkpt>
<trkpt lat="46.47435187362134456634521484375" lon="7.04048543237149715423583984375"><ele></ele><time>2016-7-29T4:36:17Z</time></trkpt>
<trkpt lat="46.474452875554561614990234375" lon="7.04017731361091136932373046875"><ele></ele><time>2016-7-29T4:36:20Z</time></trkpt>
<trkpt lat="46.47458472289144992828369140625" lon="7.03974388539791107177734375"><ele></ele><time>2016-7-29T4:36:23Z</time></trkpt>
<trkpt lat="46.474670469760894775390625" lon="7.039318419992923736572265625"><ele></ele><time>2016-7-29T4:36:26Z</time></trkpt>
<trkpt lat="46.47469603456556797027587890625" lon="7.03893209807574748992919921875"><ele></ele><time>2016-7-29T4:36:29Z</time></trkpt>
<trkpt lat="46.47466166876256465911865234375" lon="7.038473188877105712890625"><ele></ele><time>2016-7-29T4:36:32Z</time></trkpt>
<trkpt lat="46.47465228103101253509521484375" lon="7.03841627575457096099853515625"><ele></ele><time>2016-7-29T4:36:35Z</time></trkpt>
<trkpt lat="46.47455639205873012542724609375" lon="7.03798879869282245635986328125"><ele></ele><time>2016-7-29T4:36:38Z</time></trkpt>
<trkpt lat="46.47437936626374721527099609375" lon="7.03739049844443798065185546875"><ele></ele><time>2016-7-29T4:36:41Z</time></trkpt>
<trkpt lat="46.4743085391819477081298828125" lon="7.03691960312426090240478515625"><ele></ele><time>2016-7-29T4:36:44Z</time></trkpt>
<trkpt lat="46.47434114478528499603271484375" lon="7.03684098087251186370849609375"><ele></ele><time>2016-7-29T4:36:47Z</time></trkpt>
<trkpt lat="46.4744077809154987335205078125" lon="7.0364503003656864166259765625"><ele></ele><time>2016-7-29T4:36:50Z</time></trkpt>
<trkpt lat="46.47444155998528003692626953125" lon="7.0363480411469936370849609375"><ele></ele><time>2016-7-29T4:36:53Z</time></trkpt>
<trkpt lat="46.47466753609478473663330078125" lon="7.03593020327389240264892578125"><ele></ele><time>2016-7-29T4:36:56Z</time></trkpt>
<trkpt lat="46.47492167539894580841064453125" lon="7.03569819219410419464111328125"><ele></ele><time>2016-7-29T4:36:59Z</time></trkpt>
<trkpt lat="46.47498990409076213836669921875" lon="7.0356469787657260894775390625"><ele></ele><time>2016-7-29T4:37:2Z</time></trkpt>
<trkpt lat="46.47546230815351009368896484375" lon="7.03526333905756473541259765625"><ele></ele><time>2016-7-29T4:37:5Z</time></trkpt>
<trkpt lat="46.47559574805200099945068359375" lon="7.03515185974538326263427734375"><ele></ele><time>2016-7-29T4:37:8Z</time></trkpt>
<trkpt lat="46.47609933279454708099365234375" lon="7.034737206995487213134765625"><ele></ele><time>2016-7-29T4:37:11Z</time></trkpt>
<trkpt lat="46.47616437636315822601318359375" lon="7.03468658030033111572265625"><ele></ele><time>2016-7-29T4:37:14Z</time></trkpt>
<trkpt lat="46.476583220064640045166015625" lon="7.0344538986682891845703125"><ele></ele><time>2016-7-29T4:37:17Z</time></trkpt>
<trkpt lat="46.47694104351103305816650390625" lon="7.034414000809192657470703125"><ele></ele><time>2016-7-29T4:37:20Z</time></trkpt>
<trkpt lat="46.47733130492269992828369140625" lon="7.03447334468364715576171875"><ele></ele><time>2016-7-29T4:37:23Z</time></trkpt>
<trkpt lat="46.47791217081248760223388671875" lon="7.03459429554641246795654296875"><ele></ele><time>2016-7-29T4:37:26Z</time></trkpt>
<trkpt lat="46.47804133594036102294921875" lon="7.0346133224666118621826171875"><ele></ele><time>2016-7-29T4:37:29Z</time></trkpt>
<trkpt lat="46.47858976386487483978271484375" lon="7.03470543958246707916259765625"><ele></ele><time>2016-7-29T4:37:32Z</time></trkpt>
<trkpt lat="46.4790298976004123687744140625" lon="7.0349221117794513702392578125"><ele></ele><time>2016-7-29T4:37:35Z</time></trkpt>
<trkpt lat="46.47941554896533489227294921875" lon="7.0352845452725887298583984375"><ele></ele><time>2016-7-29T4:37:38Z</time></trkpt>
<trkpt lat="46.479850821197032928466796875" lon="7.035776562988758087158203125"><ele></ele><time>2016-7-29T4:37:41Z</time></trkpt>
<trkpt lat="46.4802959002554416656494140625" lon="7.03629632480442523956298828125"><ele></ele><time>2016-7-29T4:37:44Z</time></trkpt>
<trkpt lat="46.48036681115627288818359375" lon="7.03636857680976390838623046875"><ele></ele><time>2016-7-29T4:37:47Z</time></trkpt>
<trkpt lat="46.4808051846921443939208984375" lon="7.0368714071810245513916015625"><ele></ele><time>2016-7-29T4:37:50Z</time></trkpt>
<trkpt lat="46.4809221960604190826416015625" lon="7.0370014943182468414306640625"><ele></ele><time>2016-7-29T4:37:53Z</time></trkpt>
<trkpt lat="46.48098899982869625091552734375" lon="7.03707533888518810272216796875"><ele></ele><time>2016-7-29T4:37:56Z</time></trkpt>
<trkpt lat="46.48141094483435153961181640625" lon="7.0374490879476070404052734375"><ele></ele><time>2016-7-29T4:37:59Z</time></trkpt>
<trkpt lat="46.48172426037490367889404296875" lon="7.0375717990100383758544921875"><ele></ele><time>2016-7-29T4:38:2Z</time></trkpt>
<trkpt lat="46.4822361432015895843505859375" lon="7.03770398162305355072021484375"><ele></ele><time>2016-7-29T4:38:5Z</time></trkpt>
<trkpt lat="46.48260905407369136810302734375" lon="7.03790665604174137115478515625"><ele></ele><time>2016-7-29T4:38:8Z</time></trkpt>
<trkpt lat="46.48267074488103389739990234375" lon="7.0379546843469142913818359375"><ele></ele><time>2016-7-29T4:38:11Z</time></trkpt>
<trkpt lat="46.4828852377831935882568359375" lon="7.03818426467478275299072265625"><ele></ele><time>2016-7-29T4:38:14Z</time></trkpt>
<trkpt lat="46.482921950519084930419921875" lon="7.03824981115758419036865234375"><ele></ele><time>2016-7-29T4:38:17Z</time></trkpt>
<trkpt lat="46.48322931490838527679443359375" lon="7.0388113148510456085205078125"><ele></ele><time>2016-7-29T4:38:20Z</time></trkpt>
<trkpt lat="46.48354430682957172393798828125" lon="7.03944657929241657257080078125"><ele></ele><time>2016-7-29T4:38:23Z</time></trkpt>
<trkpt lat="46.4835839532315731048583984375" lon="7.0395234413444995880126953125"><ele></ele><time>2016-7-29T4:38:26Z</time></trkpt>
<trkpt lat="46.48394110612571239471435546875" lon="7.04016976989805698394775390625"><ele></ele><time>2016-7-29T4:38:29Z</time></trkpt>
<trkpt lat="46.48437512107193470001220703125" lon="7.04073420725762844085693359375"><ele></ele><time>2016-7-29T4:38:32Z</time></trkpt>
<trkpt lat="46.4847731776535511016845703125" lon="7.04125606454908847808837890625"><ele></ele><time>2016-7-29T4:38:35Z</time></trkpt>
<trkpt lat="46.48519487120211124420166015625" lon="7.0417992956936359405517578125"><ele></ele><time>2016-7-29T4:38:38Z</time></trkpt>
<trkpt lat="46.48560055531561374664306640625" lon="7.0422405190765857696533203125"><ele></ele><time>2016-7-29T4:38:41Z</time></trkpt>
<trkpt lat="46.48595695383846759796142578125" lon="7.04256397671997547149658203125"><ele></ele><time>2016-7-29T4:38:44Z</time></trkpt>
<trkpt lat="46.4862804114818572998046875" lon="7.04282767139375209808349609375"><ele></ele><time>2016-7-29T4:38:47Z</time></trkpt>
<trkpt lat="46.486655585467815399169921875" lon="7.04321022145450115203857421875"><ele></ele><time>2016-7-29T4:38:50Z</time></trkpt>
<trkpt lat="46.48666438646614551544189453125" lon="7.04337023198604583740234375"><ele></ele><time>2016-7-29T4:38:53Z</time></trkpt>
<trkpt lat="46.48663504980504512786865234375" lon="7.04352621920406818389892578125"><ele></ele><time>2016-7-29T4:38:56Z</time></trkpt>
<trkpt lat="46.486711241304874420166015625" lon="7.0436413027346134185791015625"><ele></ele><time>2016-7-29T4:38:59Z</time></trkpt>
<trkpt lat="46.4867395721375942230224609375" lon="7.043685056269168853759765625"><ele></ele><time>2016-7-29T4:39:2Z</time></trkpt>
<trkpt lat="46.48693964816629886627197265625" lon="7.0440104417502880096435546875"><ele></ele><time>2016-7-29T4:39:5Z</time></trkpt>
<trkpt lat="46.4871626906096935272216796875" lon="7.044355608522891998291015625"><ele></ele><time>2016-7-29T4:39:8Z</time></trkpt>
<trkpt lat="46.48739646188914775848388671875" lon="7.04472734592854976654052734375"><ele></ele><time>2016-7-29T4:39:11Z</time></trkpt>
<trkpt lat="46.48761791177093982696533203125" lon="7.044967152178287506103515625"><ele></ele><time>2016-7-29T4:39:14Z</time></trkpt>
<trkpt lat="46.487710364162921905517578125" lon="7.04502624459564685821533203125"><ele></ele><time>2016-7-29T4:39:17Z</time></trkpt>
<trkpt lat="46.48783533833920955657958984375" lon="7.04502574168145656585693359375"><ele></ele><time>2016-7-29T4:39:20Z</time></trkpt>
<trkpt lat="46.4878942631185054779052734375" lon="7.04499305225908756256103515625"><ele></ele><time>2016-7-29T4:39:23Z</time></trkpt>
<trkpt lat="46.48804756812751293182373046875" lon="7.0449200458824634552001953125"><ele></ele><time>2016-7-29T4:39:26Z</time></trkpt>
<trkpt lat="46.48817195557057857513427734375" lon="7.0448794774711132049560546875"><ele></ele><time>2016-7-29T4:39:29Z</time></trkpt>
<trkpt lat="46.4882912300527095794677734375" lon="7.0449126698076725006103515625"><ele></ele><time>2016-7-29T4:39:32Z</time></trkpt>
<trkpt lat="46.48831964470446109771728515625" lon="7.0450601913034915924072265625"><ele></ele><time>2016-7-29T4:39:35Z</time></trkpt>
<trkpt lat="46.4882679283618927001953125" lon="7.04543058760464191436767578125"><ele></ele><time>2016-7-29T4:39:38Z</time></trkpt>
<trkpt lat="46.4881874620914459228515625" lon="7.0460093580186367034912109375"><ele></ele><time>2016-7-29T4:39:41Z</time></trkpt>
<trkpt lat="46.48812753148376941680908203125" lon="7.04611170105636119842529296875"><ele></ele><time>2016-7-29T4:39:44Z</time></trkpt>
<trkpt lat="46.4879110269248485565185546875" lon="7.04636265523731708526611328125"><ele></ele><time>2016-7-29T4:39:47Z</time></trkpt>
<trkpt lat="46.48770173080265522003173828125" lon="7.0466155372560024261474609375"><ele></ele><time>2016-7-29T4:39:50Z</time></trkpt>
<trkpt lat="46.4876136370003223419189453125" lon="7.04684813506901264190673828125"><ele></ele><time>2016-7-29T4:39:53Z</time></trkpt>
<trkpt lat="46.48760483600199222564697265625" lon="7.04719841480255126953125"><ele></ele><time>2016-7-29T4:39:56Z</time></trkpt>
<trkpt lat="46.48761657066643238067626953125" lon="7.04744023270905017852783203125"><ele></ele><time>2016-7-29T4:39:59Z</time></trkpt>
<trkpt lat="46.48765043355524539947509765625" lon="7.04795974306762218475341796875"><ele></ele><time>2016-7-29T4:40:2Z</time></trkpt>
<trkpt lat="46.48775889538228511810302734375" lon="7.0481762476265430450439453125"><ele></ele><time>2016-7-29T4:40:5Z</time></trkpt>
<trkpt lat="46.48777867667376995086669921875" lon="7.04825897701084613800048828125"><ele></ele><time>2016-7-29T4:40:8Z</time></trkpt>
<trkpt lat="46.487861908972263336181640625" lon="7.0484464801847934722900390625"><ele></ele><time>2016-7-29T4:40:11Z</time></trkpt>
<trkpt lat="46.48798436857759952545166015625" lon="7.0486627332866191864013671875"><ele></ele><time>2016-7-29T4:40:14Z</time></trkpt>
<trkpt lat="46.4880800060927867889404296875" lon="7.04876893199980258941650390625"><ele></ele><time>2016-7-29T4:40:17Z</time></trkpt>
<trkpt lat="46.48815116845071315765380859375" lon="7.0488095842301845550537109375"><ele></ele><time>2016-7-29T4:40:20Z</time></trkpt>
<trkpt lat="46.48823046125471591949462890625" lon="7.048909999430179595947265625"><ele></ele><time>2016-7-29T4:40:23Z</time></trkpt>
<trkpt lat="46.48824521340429782867431640625" lon="7.04892148263752460479736328125"><ele></ele><time>2016-7-29T4:40:26Z</time></trkpt>
<trkpt lat="46.48827639408409595489501953125" lon="7.049007900059223175048828125"><ele></ele><time>2016-7-29T4:40:29Z</time></trkpt>
<trkpt lat="46.48834168910980224609375" lon="7.04912566579878330230712890625"><ele></ele><time>2016-7-29T4:40:32Z</time></trkpt>
<trkpt lat="46.48845258168876171112060546875" lon="7.04924401827156543731689453125"><ele></ele><time>2016-7-29T4:40:35Z</time></trkpt>
<trkpt lat="46.4885550923645496368408203125" lon="7.04933806322515010833740234375"><ele></ele><time>2016-7-29T4:40:38Z</time></trkpt>
<trkpt lat="46.48864100687205791473388671875" lon="7.04941316507756710052490234375"><ele></ele><time>2016-7-29T4:40:41Z</time></trkpt>
<trkpt lat="46.48880512453615665435791015625" lon="7.04960863105952739715576171875"><ele></ele><time>2016-7-29T4:40:44Z</time></trkpt>
<trkpt lat="46.48902095854282379150390625" lon="7.049795128405094146728515625"><ele></ele><time>2016-7-29T4:40:47Z</time></trkpt>
<trkpt lat="46.48926830850541591644287109375" lon="7.04995497129857540130615234375"><ele></ele><time>2016-7-29T4:40:50Z</time></trkpt>
<trkpt lat="46.4894442446529865264892578125" lon="7.05008690245449542999267578125"><ele></ele><time>2016-7-29T4:40:53Z</time></trkpt>
<trkpt lat="46.48946109227836132049560546875" lon="7.05011087469756603240966796875"><ele></ele><time>2016-7-29T4:40:56Z</time></trkpt>
<trkpt lat="46.48947970010340213775634765625" lon="7.0501340925693511962890625"><ele></ele><time>2016-7-29T4:40:59Z</time></trkpt>
<trkpt lat="46.4895082823932170867919921875" lon="7.05015244893729686737060546875"><ele></ele><time>2016-7-29T4:41:2Z</time></trkpt>
<trkpt lat="46.48955228738486766815185546875" lon="7.05020441673696041107177734375"><ele></ele><time>2016-7-29T4:41:5Z</time></trkpt>
<trkpt lat="46.48964591324329376220703125" lon="7.050323188304901123046875"><ele></ele><time>2016-7-29T4:41:8Z</time></trkpt>
<trkpt lat="46.48981346748769283294677734375" lon="7.0506023056805133819580078125"><ele></ele><time>2016-7-29T4:41:11Z</time></trkpt>
<trkpt lat="46.4898925088346004486083984375" lon="7.05078913830220699310302734375"><ele></ele><time>2016-7-29T4:41:14Z</time></trkpt>
<trkpt lat="46.48997984826564788818359375" lon="7.05091972835361957550048828125"><ele></ele><time>2016-7-29T4:41:17Z</time></trkpt>
<trkpt lat="46.4901141263544559478759765625" lon="7.05111108720302581787109375"><ele></ele><time>2016-7-29T4:41:20Z</time></trkpt>
<trkpt lat="46.4902861230075359344482421875" lon="7.05127797089517116546630859375"><ele></ele><time>2016-7-29T4:41:23Z</time></trkpt>
<trkpt lat="46.4904396794736385345458984375" lon="7.05151014961302280426025390625"><ele></ele><time>2016-7-29T4:41:26Z</time></trkpt>
<trkpt lat="46.49056146852672100067138671875" lon="7.0517724193632602691650390625"><ele></ele><time>2016-7-29T4:41:29Z</time></trkpt>
<trkpt lat="46.49066054262220859527587890625" lon="7.05195589922368526458740234375"><ele></ele><time>2016-7-29T4:41:32Z</time></trkpt>
<trkpt lat="46.49079465307295322418212890625" lon="7.05214985646307468414306640625"><ele></ele><time>2016-7-29T4:41:35Z</time></trkpt>
<trkpt lat="46.49088014848530292510986328125" lon="7.0522884093225002288818359375"><ele></ele><time>2016-7-29T4:41:38Z</time></trkpt>
<trkpt lat="46.49097385816276073455810546875" lon="7.05241262912750244140625"><ele></ele><time>2016-7-29T4:41:41Z</time></trkpt>
<trkpt lat="46.49110780097544193267822265625" lon="7.05258135683834552764892578125"><ele></ele><time>2016-7-29T4:41:44Z</time></trkpt>
<trkpt lat="46.4913003332912921905517578125" lon="7.0527909882366657257080078125"><ele></ele><time>2016-7-29T4:41:47Z</time></trkpt>
<trkpt lat="46.49140569381415843963623046875" lon="7.05289148725569248199462890625"><ele></ele><time>2016-7-29T4:41:50Z</time></trkpt>
<trkpt lat="46.4915095455944538116455078125" lon="7.052939347922801971435546875"><ele></ele><time>2016-7-29T4:41:53Z</time></trkpt>
<trkpt lat="46.4915940351784229278564453125" lon="7.05297765322029590606689453125"><ele></ele><time>2016-7-29T4:41:56Z</time></trkpt>
<trkpt lat="46.49173728190362453460693359375" lon="7.0530313812196254730224609375"><ele></ele><time>2016-7-29T4:41:59Z</time></trkpt>
<trkpt lat="46.491935513913631439208984375" lon="7.05307018943130970001220703125"><ele></ele><time>2016-7-29T4:42:2Z</time></trkpt>
<trkpt lat="46.492190659046173095703125" lon="7.05313489772379398345947265625"><ele></ele><time>2016-7-29T4:42:5Z</time></trkpt>
<trkpt lat="46.4922173134982585906982421875" lon="7.053143195807933807373046875"><ele></ele><time>2016-7-29T4:42:8Z</time></trkpt>
<trkpt lat="46.49237397126853466033935546875" lon="7.0531789027154445648193359375"><ele></ele><time>2016-7-29T4:42:11Z</time></trkpt>
<trkpt lat="46.49256055243313312530517578125" lon="7.0532070659101009368896484375"><ele></ele><time>2016-7-29T4:42:14Z</time></trkpt>
<trkpt lat="46.4926810003817081451416015625" lon="7.0532104186713695526123046875"><ele></ele><time>2016-7-29T4:42:17Z</time></trkpt>
<trkpt lat="46.49276666343212127685546875" lon="7.053234390914440155029296875"><ele></ele><time>2016-7-29T4:42:20Z</time></trkpt>
<trkpt lat="46.4928573556244373321533203125" lon="7.0533076487481594085693359375"><ele></ele><time>2016-7-29T4:42:23Z</time></trkpt>
<trkpt lat="46.49292466230690479278564453125" lon="7.0533891208469867706298828125"><ele></ele><time>2016-7-29T4:42:26Z</time></trkpt>
<trkpt lat="46.4930018596351146697998046875" lon="7.05348626710474491119384765625"><ele></ele><time>2016-7-29T4:42:29Z</time></trkpt>
<trkpt lat="46.49313521571457386016845703125" lon="7.05359808169305324554443359375"><ele></ele><time>2016-7-29T4:42:32Z</time></trkpt>
<trkpt lat="46.49329447187483310699462890625" lon="7.05369472503662109375"><ele></ele><time>2016-7-29T4:42:35Z</time></trkpt>
<trkpt lat="46.49347476661205291748046875" lon="7.05379019491374492645263671875"><ele></ele><time>2016-7-29T4:42:38Z</time></trkpt>
<trkpt lat="46.49358364753425121307373046875" lon="7.05382824875414371490478515625"><ele></ele><time>2016-7-29T4:42:41Z</time></trkpt>
<trkpt lat="46.4937230385839939117431640625" lon="7.05386077053844928741455078125"><ele></ele><time>2016-7-29T4:42:44Z</time></trkpt>
<trkpt lat="46.493824459612369537353515625" lon="7.05388507805764675140380859375"><ele></ele><time>2016-7-29T4:42:47Z</time></trkpt>
<trkpt lat="46.49393686093389987945556640625" lon="7.0539124868810176849365234375"><ele></ele><time>2016-7-29T4:42:50Z</time></trkpt>
<trkpt lat="46.49404481984674930572509765625" lon="7.05392866395413875579833984375"><ele></ele><time>2016-7-29T4:42:53Z</time></trkpt>
<trkpt lat="46.49418194778263568878173828125" lon="7.05398616380989551544189453125"><ele></ele><time>2016-7-29T4:42:56Z</time></trkpt>
<trkpt lat="46.49428018368780612945556640625" lon="7.05408238805830478668212890625"><ele></ele><time>2016-7-29T4:42:59Z</time></trkpt>
<trkpt lat="46.4943942613899707794189453125" lon="7.05418230034410953521728515625"><ele></ele><time>2016-7-29T4:43:2Z</time></trkpt>
<trkpt lat="46.494518481194972991943359375" lon="7.05431423150002956390380859375"><ele></ele><time>2016-7-29T4:43:5Z</time></trkpt>
<trkpt lat="46.494604311883449554443359375" lon="7.0544043369591236114501953125"><ele></ele><time>2016-7-29T4:43:8Z</time></trkpt>
<trkpt lat="46.494733057916164398193359375" lon="7.05447751097381114959716796875"><ele></ele><time>2016-7-29T4:43:11Z</time></trkpt>
<trkpt lat="46.49484847672283649444580078125" lon="7.05451942048966884613037109375"><ele></ele><time>2016-7-29T4:43:14Z</time></trkpt>
<trkpt lat="46.49494537152349948883056640625" lon="7.0545418001711368560791015625"><ele></ele><time>2016-7-29T4:43:17Z</time></trkpt>
<trkpt lat="46.4950859360396862030029296875" lon="7.0545796863734722137451171875"><ele></ele><time>2016-7-29T4:43:20Z</time></trkpt>
<trkpt lat="46.49527092464268207550048828125" lon="7.0546329952776432037353515625"><ele></ele><time>2016-7-29T4:43:23Z</time></trkpt>
<trkpt lat="46.49541945196688175201416015625" lon="7.05467063002288341522216796875"><ele></ele><time>2016-7-29T4:43:26Z</time></trkpt>
<trkpt lat="46.49557636119425296783447265625" lon="7.0546698756515979766845703125"><ele></ele><time>2016-7-29T4:43:29Z</time></trkpt>
<trkpt lat="46.4957605116069316864013671875" lon="7.054676748812198638916015625"><ele></ele><time>2016-7-29T4:43:32Z</time></trkpt>
<trkpt lat="46.4959683828055858612060546875" lon="7.05467901192605495452880859375"><ele></ele><time>2016-7-29T4:43:35Z</time></trkpt>
<trkpt lat="46.49608095176517963409423828125" lon="7.05465654842555522918701171875"><ele></ele><time>2016-7-29T4:43:38Z</time></trkpt>
<trkpt lat="46.49623316712677478790283203125" lon="7.0546115376055240631103515625"><ele></ele><time>2016-7-29T4:43:41Z</time></trkpt>
<trkpt lat="46.496405415236949920654296875" lon="7.05458815209567546844482421875"><ele></ele><time>2016-7-29T4:43:44Z</time></trkpt>
<trkpt lat="46.4965303055942058563232421875" lon="7.0546155609190464019775390625"><ele></ele><time>2016-7-29T4:43:47Z</time></trkpt>
<trkpt lat="46.4966399408876895904541015625" lon="7.05466258339583873748779296875"><ele></ele><time>2016-7-29T4:43:50Z</time></trkpt>
<trkpt lat="46.49675703607499599456787109375" lon="7.054735757410526275634765625"><ele></ele><time>2016-7-29T4:43:53Z</time></trkpt>
<trkpt lat="46.49682660587131977081298828125" lon="7.054785378277301788330078125"><ele></ele><time>2016-7-29T4:43:56Z</time></trkpt>
<trkpt lat="46.4969473890960216522216796875" lon="7.05489492975175380706787109375"><ele></ele><time>2016-7-29T4:43:59Z</time></trkpt>
<trkpt lat="46.49707051925361156463623046875" lon="7.05501277931034564971923828125"><ele></ele><time>2016-7-29T4:44:2Z</time></trkpt>
<trkpt lat="46.4971837587654590606689453125" lon="7.0551292039453983306884765625"><ele></ele><time>2016-7-29T4:44:5Z</time></trkpt>
<trkpt lat="46.4972625486552715301513671875" lon="7.0552079938352108001708984375"><ele></ele><time>2016-7-29T4:44:8Z</time></trkpt>
<trkpt lat="46.4973762072622776031494140625" lon="7.05531352199614048004150390625"><ele></ele><time>2016-7-29T4:44:11Z</time></trkpt>
<trkpt lat="46.49753420613706111907958984375" lon="7.055483758449554443359375"><ele></ele><time>2016-7-29T4:44:14Z</time></trkpt>
<trkpt lat="46.49764585308730602264404296875" lon="7.0555771328508853912353515625"><ele></ele><time>2016-7-29T4:44:17Z</time></trkpt>
<trkpt lat="46.49778432212769985198974609375" lon="7.05567754805088043212890625"><ele></ele><time>2016-7-29T4:44:20Z</time></trkpt>
<trkpt lat="46.49787937290966510772705078125" lon="7.05577184446156024932861328125"><ele></ele><time>2016-7-29T4:44:23Z</time></trkpt>
<trkpt lat="46.49794810451567173004150390625" lon="7.0558637939393520355224609375"><ele></ele><time>2016-7-29T4:44:26Z</time></trkpt>
<trkpt lat="46.498102582991123199462890625" lon="7.0560827292501926422119140625"><ele></ele><time>2016-7-29T4:44:29Z</time></trkpt>
<trkpt lat="46.49825722910463809967041015625" lon="7.05623184330761432647705078125"><ele></ele><time>2016-7-29T4:44:32Z</time></trkpt>
<trkpt lat="46.49849594570696353912353515625" lon="7.05627207644283771514892578125"><ele></ele><time>2016-7-29T4:44:35Z</time></trkpt>
<trkpt lat="46.49854305200278759002685546875" lon="7.056306861340999603271484375"><ele></ele><time>2016-7-29T4:44:38Z</time></trkpt>
<trkpt lat="46.49867146275937557220458984375" lon="7.056469805538654327392578125"><ele></ele><time>2016-7-29T4:44:41Z</time></trkpt>
<trkpt lat="46.498735584318637847900390625" lon="7.05652780830860137939453125"><ele></ele><time>2016-7-29T4:44:44Z</time></trkpt>
<trkpt lat="46.49878797121345996856689453125" lon="7.05650894902646541595458984375"><ele></ele><time>2016-7-29T4:44:47Z</time></trkpt>
<trkpt lat="46.498860307037830352783203125" lon="7.05639579333364963531494140625"><ele></ele><time>2016-7-29T4:44:50Z</time></trkpt>
<trkpt lat="46.49887212552130222320556640625" lon="7.05636243335902690887451171875"><ele></ele><time>2016-7-29T4:44:53Z</time></trkpt>
<trkpt lat="46.4988852851092815399169921875" lon="7.05621994100511074066162109375"><ele></ele><time>2016-7-29T4:44:56Z</time></trkpt>
<trkpt lat="46.49888922460377216339111328125" lon="7.05618993379175662994384765625"><ele></ele><time>2016-7-29T4:44:59Z</time></trkpt>
<trkpt lat="46.49888671003282070159912109375" lon="7.0559596829116344451904296875"><ele></ele><time>2016-7-29T4:45:2Z</time></trkpt>
<trkpt lat="46.4988889731466770172119140625" lon="7.0557635463774204254150390625"><ele></ele><time>2016-7-29T4:45:5Z</time></trkpt>
<trkpt lat="46.4988916553556919097900390625" lon="7.05555626191198825836181640625"><ele></ele><time>2016-7-29T4:45:8Z</time></trkpt>
<trkpt lat="46.49887430481612682342529296875" lon="7.05530547536909580230712890625"><ele></ele><time>2016-7-29T4:45:11Z</time></trkpt>
<trkpt lat="46.49889458902180194854736328125" lon="7.0550604723393917083740234375"><ele></ele><time>2016-7-29T4:45:14Z</time></trkpt>
<trkpt lat="46.4989949204027652740478515625" lon="7.0549272000789642333984375"><ele></ele><time>2016-7-29T4:45:17Z</time></trkpt>
<trkpt lat="46.49919080547988414764404296875" lon="7.05489191226661205291748046875"><ele></ele><time>2016-7-29T4:45:20Z</time></trkpt>
<trkpt lat="46.49936221539974212646484375" lon="7.05488671548664569854736328125"><ele></ele><time>2016-7-29T4:45:23Z</time></trkpt>
<trkpt lat="46.49954862892627716064453125" lon="7.0548961870372295379638671875"><ele></ele><time>2016-7-29T4:45:26Z</time></trkpt>
<trkpt lat="46.4996051229536533355712890625" lon="7.05490448512136936187744140625"><ele></ele><time>2016-7-29T4:45:29Z</time></trkpt>
<trkpt lat="46.49977066554129123687744140625" lon="7.05493046902120113372802734375"><ele></ele><time>2016-7-29T4:45:32Z</time></trkpt>
<trkpt lat="46.50002396665513515472412109375" lon="7.05497623421251773834228515625"><ele></ele><time>2016-7-29T4:45:35Z</time></trkpt>
<trkpt lat="46.50027927942574024200439453125" lon="7.0550712011754512786865234375"><ele></ele><time>2016-7-29T4:45:38Z</time></trkpt>
<trkpt lat="46.5005148947238922119140625" lon="7.0552344806492328643798828125"><ele></ele><time>2016-7-29T4:45:41Z</time></trkpt>
<trkpt lat="46.500709690153598785400390625" lon="7.05536750145256519317626953125"><ele></ele><time>2016-7-29T4:45:44Z</time></trkpt>
<trkpt lat="46.50098034180700778961181640625" lon="7.05553597770631313323974609375"><ele></ele><time>2016-7-29T4:45:47Z</time></trkpt>
<trkpt lat="46.5012446232140064239501953125" lon="7.05573362298309803009033203125"><ele></ele><time>2016-7-29T4:45:50Z</time></trkpt>
<trkpt lat="46.50142609141767024993896484375" lon="7.05590193159878253936767578125"><ele></ele><time>2016-7-29T4:45:53Z</time></trkpt>
<trkpt lat="46.50167754851281642913818359375" lon="7.056194208562374114990234375"><ele></ele><time>2016-7-29T4:45:56Z</time></trkpt>
<trkpt lat="46.50193135254085063934326171875" lon="7.05646838061511516571044921875"><ele></ele><time>2016-7-29T4:45:59Z</time></trkpt>
<trkpt lat="46.5021535567939281463623046875" lon="7.0566607452929019927978515625"><ele></ele><time>2016-7-29T4:46:2Z</time></trkpt>
<trkpt lat="46.502463854849338531494140625" lon="7.0568387769162654876708984375"><ele></ele><time>2016-7-29T4:46:5Z</time></trkpt>
<trkpt lat="46.5027946047484874725341796875" lon="7.05712786875665187835693359375"><ele></ele><time>2016-7-29T4:46:8Z</time></trkpt>
<trkpt lat="46.50310129858553409576416015625" lon="7.057532630860805511474609375"><ele></ele><time>2016-7-29T4:46:11Z</time></trkpt>
<trkpt lat="46.5033411048352718353271484375" lon="7.05785307101905345916748046875"><ele></ele><time>2016-7-29T4:46:14Z</time></trkpt>
<trkpt lat="46.50348502211272716522216796875" lon="7.05799254588782787322998046875"><ele></ele><time>2016-7-29T4:46:17Z</time></trkpt>
<trkpt lat="46.5036562643945217132568359375" lon="7.05812967382371425628662109375"><ele></ele><time>2016-7-29T4:46:20Z</time></trkpt>
<trkpt lat="46.50399631820619106292724609375" lon="7.05846176482737064361572265625"><ele></ele><time>2016-7-29T4:46:23Z</time></trkpt>
<trkpt lat="46.50413814000785350799560546875" lon="7.05878279171884059906005859375"><ele></ele><time>2016-7-29T4:46:26Z</time></trkpt>
<trkpt lat="46.50438104756176471710205078125" lon="7.059412859380245208740234375"><ele></ele><time>2016-7-29T4:46:29Z</time></trkpt>
<trkpt lat="46.50459562428295612335205078125" lon="7.059797756373882293701171875"><ele></ele><time>2016-7-29T4:46:32Z</time></trkpt>
<trkpt lat="46.504623703658580780029296875" lon="7.05985718406736850738525390625"><ele></ele><time>2016-7-29T4:46:35Z</time></trkpt>
<trkpt lat="46.50476493872702121734619140625" lon="7.0603330247104167938232421875"><ele></ele><time>2016-7-29T4:46:38Z</time></trkpt>
<trkpt lat="46.50482185184955596923828125" lon="7.06062848679721355438232421875"><ele></ele><time>2016-7-29T4:46:41Z</time></trkpt>
<trkpt lat="46.5048505179584026336669921875" lon="7.06077382899820804595947265625"><ele></ele><time>2016-7-29T4:46:44Z</time></trkpt>
<trkpt lat="46.50487759150564670562744140625" lon="7.06088279373943805694580078125"><ele></ele><time>2016-7-29T4:46:47Z</time></trkpt>
<trkpt lat="46.504931151866912841796875" lon="7.0609318278729915618896484375"><ele></ele><time>2016-7-29T4:46:50Z</time></trkpt>
<trkpt lat="46.504969708621501922607421875" lon="7.06091347150504589080810546875"><ele></ele><time>2016-7-29T4:46:53Z</time></trkpt>
<trkpt lat="46.50504849851131439208984375" lon="7.0608091168105602264404296875"><ele></ele><time>2016-7-29T4:46:56Z</time></trkpt>
<trkpt lat="46.5050826966762542724609375" lon="7.06075354479253292083740234375"><ele></ele><time>2016-7-29T4:46:59Z</time></trkpt>
<trkpt lat="46.50525100529193878173828125" lon="7.0605610124766826629638671875"><ele></ele><time>2016-7-29T4:47:2Z</time></trkpt>
<trkpt lat="46.5053038112819194793701171875" lon="7.06047928892076015472412109375"><ele></ele><time>2016-7-29T4:47:5Z</time></trkpt>
<trkpt lat="46.50537975132465362548828125" lon="7.06029136665165424346923828125"><ele></ele><time>2016-7-29T4:47:8Z</time></trkpt>
<trkpt lat="46.50541051290929317474365234375" lon="7.06018357537686824798583984375"><ele></ele><time>2016-7-29T4:47:11Z</time></trkpt>
<trkpt lat="46.5055747143924236297607421875" lon="7.05944848246872425079345703125"><ele></ele><time>2016-7-29T4:47:14Z</time></trkpt>
<trkpt lat="46.50566029362380504608154296875" lon="7.05871917307376861572265625"><ele></ele><time>2016-7-29T4:47:17Z</time></trkpt>
<trkpt lat="46.5056996047496795654296875" lon="7.0584261417388916015625"><ele></ele><time>2016-7-29T4:47:20Z</time></trkpt>
<trkpt lat="46.50581284426152706146240234375" lon="7.05752098001539707183837890625"><ele></ele><time>2016-7-29T4:47:23Z</time></trkpt>
<trkpt lat="46.5058382414281368255615234375" lon="7.057173550128936767578125"><ele></ele><time>2016-7-29T4:47:26Z</time></trkpt>
<trkpt lat="46.5058610402047634124755859375" lon="7.05633603036403656005859375"><ele></ele><time>2016-7-29T4:47:29Z</time></trkpt>
<trkpt lat="46.50585852563381195068359375" lon="7.0561642013490200042724609375"><ele></ele><time>2016-7-29T4:47:32Z</time></trkpt>
<trkpt lat="46.505823992192745208740234375" lon="7.05528150312602519989013671875"><ele></ele><time>2016-7-29T4:47:35Z</time></trkpt>
<trkpt lat="46.5057946555316448211669921875" lon="7.05491621978580951690673828125"><ele></ele><time>2016-7-29T4:47:38Z</time></trkpt>
<trkpt lat="46.5056682564318180084228515625" lon="7.05406017601490020751953125"><ele></ele><time>2016-7-29T4:47:41Z</time></trkpt>
<trkpt lat="46.50567219592630863189697265625" lon="7.05378198064863681793212890625"><ele></ele><time>2016-7-29T4:47:44Z</time></trkpt>
<trkpt lat="46.50570874102413654327392578125" lon="7.05365155823528766632080078125"><ele></ele><time>2016-7-29T4:47:47Z</time></trkpt>
<trkpt lat="46.50588333606719970703125" lon="7.053503952920436859130859375"><ele></ele><time>2016-7-29T4:47:50Z</time></trkpt>
<trkpt lat="46.50595667771995067596435546875" lon="7.053440250456333160400390625"><ele></ele><time>2016-7-29T4:47:53Z</time></trkpt>
<trkpt lat="46.5063567459583282470703125" lon="7.05311427824199199676513671875"><ele></ele><time>2016-7-29T4:47:56Z</time></trkpt>
<trkpt lat="46.50640393607318401336669921875" lon="7.05309097655117511749267578125"><ele></ele><time>2016-7-29T4:47:59Z</time></trkpt>
<trkpt lat="46.5064933709800243377685546875" lon="7.05311964266002178192138671875"><ele></ele><time>2016-7-29T4:48:2Z</time></trkpt>
<trkpt lat="46.506520695984363555908203125" lon="7.0532580278813838958740234375"><ele></ele><time>2016-7-29T4:48:5Z</time></trkpt>
<trkpt lat="46.50661532767117023468017578125" lon="7.0533884502947330474853515625"><ele></ele><time>2016-7-29T4:48:8Z</time></trkpt>
<trkpt lat="46.50670870207250118255615234375" lon="7.05342843197286128997802734375"><ele></ele><time>2016-7-29T4:48:11Z</time></trkpt>
<trkpt lat="46.5067605860531330108642578125" lon="7.05345894210040569305419921875"><ele></ele><time>2016-7-29T4:48:14Z</time></trkpt>
<trkpt lat="46.50698010809719562530517578125" lon="7.0535282604396343231201171875"><ele></ele><time>2016-7-29T4:48:17Z</time></trkpt>
<trkpt lat="46.5071682818233966827392578125" lon="7.05353471450507640838623046875"><ele></ele><time>2016-7-29T4:48:20Z</time></trkpt>
<trkpt lat="46.50736802257597446441650390625" lon="7.0535637997090816497802734375"><ele></ele><time>2016-7-29T4:48:23Z</time></trkpt>
<trkpt lat="46.5076205693185329437255859375" lon="7.05369547940790653228759765625"><ele></ele><time>2016-7-29T4:48:26Z</time></trkpt>
<trkpt lat="46.50781410746276378631591796875" lon="7.0537978224456310272216796875"><ele></ele><time>2016-7-29T4:48:29Z</time></trkpt>
<trkpt lat="46.50789122097194194793701171875" lon="7.05386647023260593414306640625"><ele></ele><time>2016-7-29T4:48:32Z</time></trkpt>
<trkpt lat="46.50796079076826572418212890625" lon="7.05395280383527278900146484375"><ele></ele><time>2016-7-29T4:48:35Z</time></trkpt>
<trkpt lat="46.50809272192418575286865234375" lon="7.05418288707733154296875"><ele></ele><time>2016-7-29T4:48:38Z</time></trkpt>
<trkpt lat="46.5081238187849521636962890625" lon="7.05433820374310016632080078125"><ele></ele><time>2016-7-29T4:48:41Z</time></trkpt>
<trkpt lat="46.50818291120231151580810546875" lon="7.05460122786462306976318359375"><ele></ele><time>2016-7-29T4:48:44Z</time></trkpt>
<trkpt lat="46.50824476964771747589111328125" lon="7.05485855229198932647705078125"><ele></ele><time>2016-7-29T4:48:47Z</time></trkpt>
<trkpt lat="46.5082530677318572998046875" lon="7.05497455783188343048095703125"><ele></ele><time>2016-7-29T4:48:50Z</time></trkpt>
<trkpt lat="46.50824376381933689117431640625" lon="7.0551798306405544281005859375"><ele></ele><time>2016-7-29T4:48:53Z</time></trkpt>
<trkpt lat="46.50820906274020671844482421875" lon="7.05546758137643337249755859375"><ele></ele><time>2016-7-29T4:48:56Z</time></trkpt>
<trkpt lat="46.50814368389546871185302734375" lon="7.055832110345363616943359375"><ele></ele><time>2016-7-29T4:48:59Z</time></trkpt>
<trkpt lat="46.5081399120390415191650390625" lon="7.055864296853542327880859375"><ele></ele><time>2016-7-29T4:49:2Z</time></trkpt>
<trkpt lat="46.50808878242969512939453125" lon="7.055912911891937255859375"><ele></ele><time>2016-7-29T4:49:5Z</time></trkpt>
<trkpt lat="46.50803740136325359344482421875" lon="7.05597619526088237762451171875"><ele></ele><time>2016-7-29T4:49:8Z</time></trkpt>
<trkpt lat="46.50794419459998607635498046875" lon="7.0561571605503559112548828125"><ele></ele><time>2016-7-29T4:49:11Z</time></trkpt>
<trkpt lat="46.50785618461668491363525390625" lon="7.05634198151528835296630859375"><ele></ele><time>2016-7-29T4:49:14Z</time></trkpt>
<trkpt lat="46.50776557624340057373046875" lon="7.05635254271328449249267578125"><ele></ele><time>2016-7-29T4:49:17Z</time></trkpt>
<trkpt lat="46.50774973444640636444091796875" lon="7.0564173348248004913330078125"><ele></ele><time>2016-7-29T4:49:20Z</time></trkpt>
<trkpt lat="46.50781159289181232452392578125" lon="7.0564850606024265289306640625"><ele></ele><time>2016-7-29T4:49:23Z</time></trkpt>
<trkpt lat="46.50783472694456577301025390625" lon="7.0565122179687023162841796875"><ele></ele><time>2016-7-29T4:49:26Z</time></trkpt>
<trkpt lat="46.50792919099330902099609375" lon="7.0567123778164386749267578125"><ele></ele><time>2016-7-29T4:49:29Z</time></trkpt>
<trkpt lat="46.50807059369981288909912109375" lon="7.0570821873843669891357421875"><ele></ele><time>2016-7-29T4:49:32Z</time></trkpt>
<trkpt lat="46.508212499320507049560546875" lon="7.057467587292194366455078125"><ele></ele><time>2016-7-29T4:49:35Z</time></trkpt>
<trkpt lat="46.5083129145205020904541015625" lon="7.05772281624376773834228515625"><ele></ele><time>2016-7-29T4:49:38Z</time></trkpt>
<trkpt lat="46.50834920816123485565185546875" lon="7.0578161068260669708251953125"><ele></ele><time>2016-7-29T4:49:41Z</time></trkpt>
<trkpt lat="46.50847627781331539154052734375" lon="7.0582184381783008575439453125"><ele></ele><time>2016-7-29T4:49:44Z</time></trkpt>
<trkpt lat="46.50858859531581401824951171875" lon="7.05852613784372806549072265625"><ele></ele><time>2016-7-29T4:49:47Z</time></trkpt>
<trkpt lat="46.5085948817431926727294921875" lon="7.05862051807343959808349609375"><ele></ele><time>2016-7-29T4:49:50Z</time></trkpt>
<trkpt lat="46.508588008582592010498046875" lon="7.05865236930549144744873046875"><ele></ele><time>2016-7-29T4:49:53Z</time></trkpt>
<trkpt lat="46.50855280458927154541015625" lon="7.05885328352451324462890625"><ele></ele><time>2016-7-29T4:49:56Z</time></trkpt>
<trkpt lat="46.5086354501545429229736328125" lon="7.05913759768009185791015625"><ele></ele><time>2016-7-29T4:49:59Z</time></trkpt>
<trkpt lat="46.50874231941998004913330078125" lon="7.05944529734551906585693359375"><ele></ele><time>2016-7-29T4:50:2Z</time></trkpt>
<trkpt lat="46.508889757096767425537109375" lon="7.0598150230944156646728515625"><ele></ele><time>2016-7-29T4:50:5Z</time></trkpt>
<trkpt lat="46.5089921839535236358642578125" lon="7.06017871387302875518798828125"><ele></ele><time>2016-7-29T4:50:8Z</time></trkpt>
<trkpt lat="46.50909067131578922271728515625" lon="7.06056545488536357879638671875"><ele></ele><time>2016-7-29T4:50:11Z</time></trkpt>
<trkpt lat="46.50912285782396793365478515625" lon="7.06064458005130290985107421875"><ele></ele><time>2016-7-29T4:50:14Z</time></trkpt>
<trkpt lat="46.50917482562363147735595703125" lon="7.060721777379512786865234375"><ele></ele><time>2016-7-29T4:50:17Z</time></trkpt>
<trkpt lat="46.50919192470610141754150390625" lon="7.0607812888920307159423828125"><ele></ele><time>2016-7-29T4:50:20Z</time></trkpt>
<trkpt lat="46.5092288888990879058837890625" lon="7.06092059612274169921875"><ele></ele><time>2016-7-29T4:50:23Z</time></trkpt>
<trkpt lat="46.5093277953565120697021484375" lon="7.06123047508299350738525390625"><ele></ele><time>2016-7-29T4:50:26Z</time></trkpt>
<trkpt lat="46.50947087444365024566650390625" lon="7.06151110120117664337158203125"><ele></ele><time>2016-7-29T4:50:29Z</time></trkpt>
<trkpt lat="46.50961956940591335296630859375" lon="7.06170849502086639404296875"><ele></ele><time>2016-7-29T4:50:32Z</time></trkpt>
<trkpt lat="46.50980832986533641815185546875" lon="7.06191611476242542266845703125"><ele></ele><time>2016-7-29T4:50:35Z</time></trkpt>
<trkpt lat="46.51000865735113620758056640625" lon="7.0621324516832828521728515625"><ele></ele><time>2016-7-29T4:50:38Z</time></trkpt>
<trkpt lat="46.5102249942719936370849609375" lon="7.062363959848880767822265625"><ele></ele><time>2016-7-29T4:50:41Z</time></trkpt>
<trkpt lat="46.5103483758866786956787109375" lon="7.06251491792500019073486328125"><ele></ele><time>2016-7-29T4:50:44Z</time></trkpt>
<trkpt lat="46.510488688945770263671875" lon="7.062614746391773223876953125"><ele></ele><time>2016-7-29T4:50:47Z</time></trkpt>
<trkpt lat="46.51054291985929012298583984375" lon="7.06264458596706390380859375"><ele></ele><time>2016-7-29T4:50:50Z</time></trkpt>
<trkpt lat="46.51060997508466243743896484375" lon="7.06270468421280384063720703125"><ele></ele><time>2016-7-29T4:50:53Z</time></trkpt>
<trkpt lat="46.5107047744095325469970703125" lon="7.06270619295537471771240234375"><ele></ele><time>2016-7-29T4:50:56Z</time></trkpt>
<trkpt lat="46.510813571512699127197265625" lon="7.062633521854877471923828125"><ele></ele><time>2016-7-29T4:50:59Z</time></trkpt>
<trkpt lat="46.51097123511135578155517578125" lon="7.0625032670795917510986328125"><ele></ele><time>2016-7-29T4:51:2Z</time></trkpt>
<trkpt lat="46.51114004664123058319091796875" lon="7.0623265765607357025146484375"><ele></ele><time>2016-7-29T4:51:5Z</time></trkpt>
<trkpt lat="46.51126661337912082672119140625" lon="7.06224367953836917877197265625"><ele></ele><time>2016-7-29T4:51:8Z</time></trkpt>
<trkpt lat="46.51142385788261890411376953125" lon="7.06215918995440006256103515625"><ele></ele><time>2016-7-29T4:51:11Z</time></trkpt>
<trkpt lat="46.5115929208695888519287109375" lon="7.062279470264911651611328125"><ele></ele><time>2016-7-29T4:51:14Z</time></trkpt>
<trkpt lat="46.5117290429770946502685546875" lon="7.06235180608928203582763671875"><ele></ele><time>2016-7-29T4:51:17Z</time></trkpt>
<trkpt lat="46.5119835175573825836181640625" lon="7.06238566897809505462646484375"><ele></ele><time>2016-7-29T4:51:20Z</time></trkpt>
<trkpt lat="46.5121887065470218658447265625" lon="7.06245423294603824615478515625"><ele></ele><time>2016-7-29T4:51:23Z</time></trkpt>
<trkpt lat="46.512468159198760986328125" lon="7.062691189348697662353515625"><ele></ele><time>2016-7-29T4:51:26Z</time></trkpt>
<trkpt lat="46.5126731805503368377685546875" lon="7.06291423179209232330322265625"><ele></ele><time>2016-7-29T4:51:29Z</time></trkpt>
<trkpt lat="46.51291407644748687744140625" lon="7.0631469972431659698486328125"><ele></ele><time>2016-7-29T4:51:32Z</time></trkpt>
<trkpt lat="46.5131492726504802703857421875" lon="7.06338982097804546356201171875"><ele></ele><time>2016-7-29T4:51:35Z</time></trkpt>
<trkpt lat="46.5133547969162464141845703125" lon="7.0636180602014064788818359375"><ele></ele><time>2016-7-29T4:51:38Z</time></trkpt>
<trkpt lat="46.51356845162808895111083984375" lon="7.06374756060540676116943359375"><ele></ele><time>2016-7-29T4:51:41Z</time></trkpt>
<trkpt lat="46.5137943439185619354248046875" lon="7.06387463025748729705810546875"><ele></ele><time>2016-7-29T4:51:44Z</time></trkpt>
<trkpt lat="46.514203213155269622802734375" lon="7.06407596357166767120361328125"><ele></ele><time>2016-7-29T4:51:47Z</time></trkpt>
<trkpt lat="46.514456681907176971435546875" lon="7.0641256682574748992919921875"><ele></ele><time>2016-7-29T4:51:50Z</time></trkpt>
<trkpt lat="46.51472456753253936767578125" lon="7.06406070850789546966552734375"><ele></ele><time>2016-7-29T4:51:53Z</time></trkpt>
<trkpt lat="46.51481182314455509185791015625" lon="7.06404335796833038330078125"><ele></ele><time>2016-7-29T4:51:56Z</time></trkpt>
<trkpt lat="46.5148782916367053985595703125" lon="7.06403355114161968231201171875"><ele></ele><time>2016-7-29T4:51:59Z</time></trkpt>
<trkpt lat="46.51496420614421367645263671875" lon="7.064050398766994476318359375"><ele></ele><time>2016-7-29T4:52:2Z</time></trkpt>
<trkpt lat="46.51508591137826442718505859375" lon="7.06400723196566104888916015625"><ele></ele><time>2016-7-29T4:52:5Z</time></trkpt>
<trkpt lat="46.51518079452216625213623046875" lon="7.063885442912578582763671875"><ele></ele><time>2016-7-29T4:52:8Z</time></trkpt>
<trkpt lat="46.51523309759795665740966796875" lon="7.06388670019805431365966796875"><ele></ele><time>2016-7-29T4:52:11Z</time></trkpt>
<trkpt lat="46.5152544714510440826416015625" lon="7.0638809166848659515380859375"><ele></ele><time>2016-7-29T4:52:14Z</time></trkpt>
<trkpt lat="46.51529009453952312469482421875" lon="7.06375912763178348541259765625"><ele></ele><time>2016-7-29T4:52:17Z</time></trkpt>
<trkpt lat="46.51533217169344425201416015625" lon="7.06358931027352809906005859375"><ele></ele><time>2016-7-29T4:52:20Z</time></trkpt>
<trkpt lat="46.515368632972240447998046875" lon="7.06337339244782924652099609375"><ele></ele><time>2016-7-29T4:52:23Z</time></trkpt>
<trkpt lat="46.51539704762399196624755859375" lon="7.06318848766386508941650390625"><ele></ele><time>2016-7-29T4:52:26Z</time></trkpt>
<trkpt lat="46.51544532738626003265380859375" lon="7.0629713125526905059814453125"><ele></ele><time>2016-7-29T4:52:29Z</time></trkpt>
<trkpt lat="46.51551104150712490081787109375" lon="7.0627480186522006988525390625"><ele></ele><time>2016-7-29T4:52:32Z</time></trkpt>
<trkpt lat="46.5155377797782421112060546875" lon="7.06262874417006969451904296875"><ele></ele><time>2016-7-29T4:52:35Z</time></trkpt>
<trkpt lat="46.515536271035671234130859375" lon="7.06262111663818359375"><ele></ele><time>2016-7-29T4:52:38Z</time></trkpt>
<trkpt lat="46.5155646018683910369873046875" lon="7.0626145787537097930908203125"><ele></ele><time>2016-7-29T4:52:41Z</time></trkpt>
<trkpt lat="46.51557943783700466156005859375" lon="7.06259873695671558380126953125"><ele></ele><time>2016-7-29T4:52:44Z</time></trkpt>
<trkpt lat="46.5155920945107936859130859375" lon="7.06255816854536533355712890625"><ele></ele><time>2016-7-29T4:52:47Z</time></trkpt>
<trkpt lat="46.51563928462564945220947265625" lon="7.0624382235109806060791015625"><ele></ele><time>2016-7-29T4:52:50Z</time></trkpt>
<trkpt lat="46.5157044120132923126220703125" lon="7.0622925460338592529296875"><ele></ele><time>2016-7-29T4:52:53Z</time></trkpt>
<trkpt lat="46.5157927572727203369140625" lon="7.062059529125690460205078125"><ele></ele><time>2016-7-29T4:52:56Z</time></trkpt>
<trkpt lat="46.51589577086269855499267578125" lon="7.06182307563722133636474609375"><ele></ele><time>2016-7-29T4:52:59Z</time></trkpt>
<trkpt lat="46.51600339449942111968994140625" lon="7.0615983568131923675537109375"><ele></ele><time>2016-7-29T4:53:2Z</time></trkpt>
<trkpt lat="46.5160715393722057342529296875" lon="7.061443962156772613525390625"><ele></ele><time>2016-7-29T4:53:5Z</time></trkpt>
<trkpt lat="46.51615619659423828125" lon="7.06126534380018711090087890625"><ele></ele><time>2016-7-29T4:53:8Z</time></trkpt>
<trkpt lat="46.51626013219356536865234375" lon="7.06103886477649211883544921875"><ele></ele><time>2016-7-29T4:53:11Z</time></trkpt>
<trkpt lat="46.5163424424827098846435546875" lon="7.06085680983960628509521484375"><ele></ele><time>2016-7-29T4:53:14Z</time></trkpt>
<trkpt lat="46.51643313467502593994140625" lon="7.060664780437946319580078125"><ele></ele><time>2016-7-29T4:53:17Z</time></trkpt>
<trkpt lat="46.516543440520763397216796875" lon="7.06042363308370113372802734375"><ele></ele><time>2016-7-29T4:53:20Z</time></trkpt>
<trkpt lat="46.5166381560266017913818359375" lon="7.06019866280257701873779296875"><ele></ele><time>2016-7-29T4:53:23Z</time></trkpt>
<trkpt lat="46.5166643075644969940185546875" lon="7.06005432642996311187744140625"><ele></ele><time>2016-7-29T4:53:26Z</time></trkpt>
<trkpt lat="46.51667361147701740264892578125" lon="7.06003940664231777191162109375"><ele></ele><time>2016-7-29T4:53:29Z</time></trkpt>
<trkpt lat="46.5167028643190860748291015625" lon="7.0600725151598453521728515625"><ele></ele><time>2016-7-29T4:53:32Z</time></trkpt>
<trkpt lat="46.5167142637073993682861328125" lon="7.0600879378616809844970703125"><ele></ele><time>2016-7-29T4:53:35Z</time></trkpt>
<trkpt lat="46.5167776308953762054443359375" lon="7.06014703027904033660888671875"><ele></ele><time>2016-7-29T4:53:38Z</time></trkpt>
<trkpt lat="46.516828425228595733642578125" lon="7.06018994562327861785888671875"><ele></ele><time>2016-7-29T4:53:41Z</time></trkpt>
<trkpt lat="46.51680998504161834716796875" lon="7.0602116547524929046630859375"><ele></ele><time>2016-7-29T4:53:44Z</time></trkpt>
<trkpt lat="46.51675826869904994964599609375" lon="7.060312740504741668701171875"><ele></ele><time>2016-7-29T4:53:47Z</time></trkpt>
<trkpt lat="46.51667042635381221771240234375" lon="7.060521952807903289794921875"><ele></ele><time>2016-7-29T4:53:50Z</time></trkpt>
<trkpt lat="46.51659616269171237945556640625" lon="7.06070878542959690093994140625"><ele></ele><time>2016-7-29T4:53:53Z</time></trkpt>
<trkpt lat="46.5165196359157562255859375" lon="7.0608563907444477081298828125"><ele></ele><time>2016-7-29T4:53:56Z</time></trkpt>
<trkpt lat="46.516418047249317169189453125" lon="7.06106283701956272125244140625"><ele></ele><time>2016-7-29T4:53:59Z</time></trkpt>
<trkpt lat="46.51632727123796939849853515625" lon="7.06124941818416118621826171875"><ele></ele><time>2016-7-29T4:54:2Z</time></trkpt>
<trkpt lat="46.516234315931797027587890625" lon="7.06147153861820697784423828125"><ele></ele><time>2016-7-29T4:54:5Z</time></trkpt>
<trkpt lat="46.51612736284732818603515625" lon="7.0616939105093479156494140625"><ele></ele><time>2016-7-29T4:54:8Z</time></trkpt>
<trkpt lat="46.51600557379424571990966796875" lon="7.0619701780378818511962890625"><ele></ele><time>2016-7-29T4:54:11Z</time></trkpt>
<trkpt lat="46.515884287655353546142578125" lon="7.06224166788160800933837890625"><ele></ele><time>2016-7-29T4:54:14Z</time></trkpt>
<trkpt lat="46.5157711319625377655029296875" lon="7.0625612698495388031005859375"><ele></ele><time>2016-7-29T4:54:17Z</time></trkpt>
<trkpt lat="46.51569158770143985748291015625" lon="7.06283041276037693023681640625"><ele></ele><time>2016-7-29T4:54:20Z</time></trkpt>
<trkpt lat="46.5156128816306591033935546875" lon="7.06309159286320209503173828125"><ele></ele><time>2016-7-29T4:54:23Z</time></trkpt>
<trkpt lat="46.51555982418358325958251953125" lon="7.06328018568456172943115234375"><ele></ele><time>2016-7-29T4:54:26Z</time></trkpt>
<trkpt lat="46.51550048030912876129150390625" lon="7.06351772882044315338134765625"><ele></ele><time>2016-7-29T4:54:29Z</time></trkpt>
<trkpt lat="46.515426971018314361572265625" lon="7.0637756399810314178466796875"><ele></ele><time>2016-7-29T4:54:32Z</time></trkpt>
<trkpt lat="46.51534608565270900726318359375" lon="7.0640639774501323699951171875"><ele></ele><time>2016-7-29T4:54:35Z</time></trkpt>
<trkpt lat="46.5153151564300060272216796875" lon="7.0641742832958698272705078125"><ele></ele><time>2016-7-29T4:54:38Z</time></trkpt>
<trkpt lat="46.51526771485805511474609375" lon="7.06434485502541065216064453125"><ele></ele><time>2016-7-29T4:54:41Z</time></trkpt>
<trkpt lat="46.51521138846874237060546875" lon="7.0645397342741489410400390625"><ele></ele><time>2016-7-29T4:54:44Z</time></trkpt>
<trkpt lat="46.51518448255956172943115234375" lon="7.064731009304523468017578125"><ele></ele><time>2016-7-29T4:54:47Z</time></trkpt>
<trkpt lat="46.515192948281764984130859375" lon="7.06475741229951381683349609375"><ele></ele><time>2016-7-29T4:54:50Z</time></trkpt>
<trkpt lat="46.515227146446704864501953125" lon="7.064822204411029815673828125"><ele></ele><time>2016-7-29T4:54:53Z</time></trkpt>
<trkpt lat="46.51527282781898975372314453125" lon="7.06486771814525127410888671875"><ele></ele><time>2016-7-29T4:54:56Z</time></trkpt>
<trkpt lat="46.51542068459093570709228515625" lon="7.06500836648046970367431640625"><ele></ele><time>2016-7-29T4:54:59Z</time></trkpt>
<trkpt lat="46.5156090259552001953125" lon="7.06511951051652431488037109375"><ele></ele><time>2016-7-29T4:55:2Z</time></trkpt>
<trkpt lat="46.5157257020473480224609375" lon="7.06514314748346805572509765625"><ele></ele><time>2016-7-29T4:55:5Z</time></trkpt>
<trkpt lat="46.51585017330944538116455078125" lon="7.06503267399966716766357421875"><ele></ele><time>2016-7-29T4:55:8Z</time></trkpt>
<trkpt lat="46.51591680943965911865234375" lon="7.06495623104274272918701171875"><ele></ele><time>2016-7-29T4:55:11Z</time></trkpt>
<trkpt lat="46.5159706212580204010009765625" lon="7.06495354883372783660888671875"><ele></ele><time>2016-7-29T4:55:14Z</time></trkpt>
<trkpt lat="46.51607162319123744964599609375" lon="7.0650325901806354522705078125"><ele></ele><time>2016-7-29T4:55:17Z</time></trkpt>
<trkpt lat="46.51616432704031467437744140625" lon="7.06503569148480892181396484375"><ele></ele><time>2016-7-29T4:55:20Z</time></trkpt>
<trkpt lat="46.5162675082683563232421875" lon="7.06500601954758167266845703125"><ele></ele><time>2016-7-29T4:55:23Z</time></trkpt>
<trkpt lat="46.5163850225508213043212890625" lon="7.06504474394023418426513671875"><ele></ele><time>2016-7-29T4:55:26Z</time></trkpt>
<trkpt lat="46.51642349548637866973876953125" lon="7.06505128182470798492431640625"><ele></ele><time>2016-7-29T4:55:29Z</time></trkpt>
<trkpt lat="46.5165008604526519775390625" lon="7.06504407338798046112060546875"><ele></ele><time>2016-7-29T4:55:32Z</time></trkpt>
<trkpt lat="46.51654578745365142822265625" lon="7.06506527960300445556640625"><ele></ele><time>2016-7-29T4:55:35Z</time></trkpt>
<trkpt lat="46.51658409275114536285400390625" lon="7.065070979297161102294921875"><ele></ele><time>2016-7-29T4:55:38Z</time></trkpt>
<trkpt lat="46.5167031995952129364013671875" lon="7.06506452523171901702880859375"><ele></ele><time>2016-7-29T4:55:41Z</time></trkpt>
<trkpt lat="46.51680369861423969268798828125" lon="7.0650962926447391510009765625"><ele></ele><time>2016-7-29T4:55:44Z</time></trkpt>
<trkpt lat="46.5169197879731655120849609375" lon="7.0651164092123508453369140625"><ele></ele><time>2016-7-29T4:55:47Z</time></trkpt>
<trkpt lat="46.51693579740822315216064453125" lon="7.06510978750884532928466796875"><ele></ele><time>2016-7-29T4:55:50Z</time></trkpt>
<trkpt lat="46.51698726229369640350341796875" lon="7.0650869049131870269775390625"><ele></ele><time>2016-7-29T4:55:53Z</time></trkpt>
<trkpt lat="46.51710812933743000030517578125" lon="7.06498439423739910125732421875"><ele></ele><time>2016-7-29T4:55:56Z</time></trkpt>
<trkpt lat="46.51717266999185085296630859375" lon="7.06489269621670246124267578125"><ele></ele><time>2016-7-29T4:55:59Z</time></trkpt>
<trkpt lat="46.517183817923069000244140625" lon="7.064879201352596282958984375"><ele></ele><time>2016-7-29T4:56:2Z</time></trkpt>
<trkpt lat="46.517276354134082794189453125" lon="7.06485447473824024200439453125"><ele></ele><time>2016-7-29T4:56:5Z</time></trkpt>
<trkpt lat="46.517330668866634368896484375" lon="7.064871154725551605224609375"><ele></ele><time>2016-7-29T4:56:8Z</time></trkpt>
<trkpt lat="46.51746578514575958251953125" lon="7.06490744836628437042236328125"><ele></ele><time>2016-7-29T4:56:11Z</time></trkpt>
<trkpt lat="46.5176057629287242889404296875" lon="7.06504491157829761505126953125"><ele></ele><time>2016-7-29T4:56:14Z</time></trkpt>
<trkpt lat="46.51767223142087459564208984375" lon="7.065092436969280242919921875"><ele></ele><time>2016-7-29T4:56:17Z</time></trkpt>
<trkpt lat="46.51772998273372650146484375" lon="7.06509285606443881988525390625"><ele></ele><time>2016-7-29T4:56:20Z</time></trkpt>
<trkpt lat="46.51777868159115314483642578125" lon="7.06510827876627445220947265625"><ele></ele><time>2016-7-29T4:56:23Z</time></trkpt>
<trkpt lat="46.51786250062286853790283203125" lon="7.06517466343939304351806640625"><ele></ele><time>2016-7-29T4:56:26Z</time></trkpt>
<trkpt lat="46.51793274097144603729248046875" lon="7.06520986743271350860595703125"><ele></ele><time>2016-7-29T4:56:29Z</time></trkpt>
<trkpt lat="46.51796056888997554779052734375" lon="7.06520936451852321624755859375"><ele></ele><time>2016-7-29T4:56:32Z</time></trkpt>
<trkpt lat="46.51808260940015316009521484375" lon="7.065230570733547210693359375"><ele></ele><time>2016-7-29T4:56:35Z</time></trkpt>
<trkpt lat="46.51818151585757732391357421875" lon="7.06530223600566387176513671875"><ele></ele><time>2016-7-29T4:56:38Z</time></trkpt>
<trkpt lat="46.51828612200915813446044921875" lon="7.06527289934456348419189453125"><ele></ele><time>2016-7-29T4:56:41Z</time></trkpt>
<trkpt lat="46.51836474426090717315673828125" lon="7.0652575604617595672607421875"><ele></ele><time>2016-7-29T4:56:44Z</time></trkpt>
<trkpt lat="46.51842442341148853302001953125" lon="7.06527105532586574554443359375"><ele></ele><time>2016-7-29T4:56:47Z</time></trkpt>
<trkpt lat="46.51855853386223316192626953125" lon="7.06529485993087291717529296875"><ele></ele><time>2016-7-29T4:56:50Z</time></trkpt>
<trkpt lat="46.51875584386289119720458984375" lon="7.06533157266676425933837890625"><ele></ele><time>2016-7-29T4:56:53Z</time></trkpt>
<trkpt lat="46.51889632456004619598388671875" lon="7.065353281795978546142578125"><ele></ele><time>2016-7-29T4:56:56Z</time></trkpt>
<trkpt lat="46.519039236009120941162109375" lon="7.06533794291317462921142578125"><ele></ele><time>2016-7-29T4:56:59Z</time></trkpt>
<trkpt lat="46.51919287629425525665283203125" lon="7.06522218883037567138671875"><ele></ele><time>2016-7-29T4:57:2Z</time></trkpt>
<trkpt lat="46.5192358754575252532958984375" lon="7.0651117153465747833251953125"><ele></ele><time>2016-7-29T4:57:5Z</time></trkpt>
<trkpt lat="46.51931826956570148468017578125" lon="7.06502060405910015106201171875"><ele></ele><time>2016-7-29T4:57:8Z</time></trkpt>
<trkpt lat="46.51941784657537937164306640625" lon="7.065067626535892486572265625"><ele></ele><time>2016-7-29T4:57:11Z</time></trkpt>
<trkpt lat="46.51944114826619625091552734375" lon="7.0650847256183624267578125"><ele></ele><time>2016-7-29T4:57:14Z</time></trkpt>
<trkpt lat="46.519664190709590911865234375" lon="7.065179608762264251708984375"><ele></ele><time>2016-7-29T4:57:17Z</time></trkpt>
<trkpt lat="46.51983794756233692169189453125" lon="7.06521707586944103240966796875"><ele></ele><time>2016-7-29T4:57:20Z</time></trkpt>
<trkpt lat="46.51994808577001094818115234375" lon="7.06514365039765834808349609375"><ele></ele><time>2016-7-29T4:57:23Z</time></trkpt>
<trkpt lat="46.52009443379938602447509765625" lon="7.0649693906307220458984375"><ele></ele><time>2016-7-29T4:57:26Z</time></trkpt>
<trkpt lat="46.5202373452484607696533203125" lon="7.0647747628390789031982421875"><ele></ele><time>2016-7-29T4:57:29Z</time></trkpt>
<trkpt lat="46.520301215350627899169921875" lon="7.0647070370614528656005859375"><ele></ele><time>2016-7-29T4:57:32Z</time></trkpt>
<trkpt lat="46.52035410515964031219482421875" lon="7.06470209173858165740966796875"><ele></ele><time>2016-7-29T4:57:35Z</time></trkpt>
<trkpt lat="46.52054387144744396209716796875" lon="7.064721286296844482421875"><ele></ele><time>2016-7-29T4:57:38Z</time></trkpt>
<trkpt lat="46.52067949064075946807861328125" lon="7.06483569927513599395751953125"><ele></ele><time>2016-7-29T4:57:41Z</time></trkpt>
<trkpt lat="46.52080337516963481903076171875" lon="7.06500358879566192626953125"><ele></ele><time>2016-7-29T4:57:44Z</time></trkpt>
<trkpt lat="46.52082684449851512908935546875" lon="7.0650050975382328033447265625"><ele></ele><time>2016-7-29T4:57:47Z</time></trkpt>
<trkpt lat="46.52090865187346935272216796875" lon="7.06497601233422756195068359375"><ele></ele><time>2016-7-29T4:57:50Z</time></trkpt>
<trkpt lat="46.5210493840277194976806640625" lon="7.064957655966281890869140625"><ele></ele><time>2016-7-29T4:57:53Z</time></trkpt>
<trkpt lat="46.52121777646243572235107421875" lon="7.06492655910551548004150390625"><ele></ele><time>2016-7-29T4:57:56Z</time></trkpt>
<trkpt lat="46.52140569873154163360595703125" lon="7.06479697488248348236083984375"><ele></ele><time>2016-7-29T4:57:59Z</time></trkpt>
<trkpt lat="46.52156361378729343414306640625" lon="7.064702175557613372802734375"><ele></ele><time>2016-7-29T4:58:2Z</time></trkpt>
<trkpt lat="46.5217142365872859954833984375" lon="7.06471852026879787445068359375"><ele></ele><time>2016-7-29T4:58:5Z</time></trkpt>
<trkpt lat="46.5218597464263439178466796875" lon="7.0648032613098621368408203125"><ele></ele><time>2016-7-29T4:58:8Z</time></trkpt>
<trkpt lat="46.522013805806636810302734375" lon="7.0648160018026828765869140625"><ele></ele><time>2016-7-29T4:58:11Z</time></trkpt>
<trkpt lat="46.5221940167248249053955078125" lon="7.064704187214374542236328125"><ele></ele><time>2016-7-29T4:58:14Z</time></trkpt>
<trkpt lat="46.52237749658524990081787109375" lon="7.064659595489501953125"><ele></ele><time>2016-7-29T4:58:17Z</time></trkpt>
<trkpt lat="46.5225170552730560302734375" lon="7.0647328533232212066650390625"><ele></ele><time>2016-7-29T4:58:20Z</time></trkpt>
<trkpt lat="46.52258369140326976776123046875" lon="7.0648951269686222076416015625"><ele></ele><time>2016-7-29T4:58:23Z</time></trkpt>
<trkpt lat="46.522606573998928070068359375" lon="7.06501699984073638916015625"><ele></ele><time>2016-7-29T4:58:26Z</time></trkpt>
<trkpt lat="46.52262794785201549530029296875" lon="7.06504072062671184539794921875"><ele></ele><time>2016-7-29T4:58:29Z</time></trkpt>
<trkpt lat="46.522784270346164703369140625" lon="7.065094448626041412353515625"><ele></ele><time>2016-7-29T4:58:32Z</time></trkpt>
<trkpt lat="46.522920392453670501708984375" lon="7.06503669731318950653076171875"><ele></ele><time>2016-7-29T4:58:35Z</time></trkpt>
<trkpt lat="46.5230784751474857330322265625" lon="7.06490661017596721649169921875"><ele></ele><time>2016-7-29T4:58:38Z</time></trkpt>
<trkpt lat="46.5232588537037372589111328125" lon="7.0647816359996795654296875"><ele></ele><time>2016-7-29T4:58:41Z</time></trkpt>
<trkpt lat="46.52339254505932331085205078125" lon="7.064770571887493133544921875"><ele></ele><time>2016-7-29T4:58:44Z</time></trkpt>
<trkpt lat="46.5235538966953754425048828125" lon="7.06475372426211833953857421875"><ele></ele><time>2016-7-29T4:58:47Z</time></trkpt>
<trkpt lat="46.52375279925763607025146484375" lon="7.0647791214287281036376953125"><ele></ele><time>2016-7-29T4:58:50Z</time></trkpt>
<trkpt lat="46.5238767676055431365966796875" lon="7.06471449695527553558349609375"><ele></ele><time>2016-7-29T4:58:53Z</time></trkpt>
<trkpt lat="46.523979194462299346923828125" lon="7.06455297768115997314453125"><ele></ele><time>2016-7-29T4:58:56Z</time></trkpt>
<trkpt lat="46.52412093244493007659912109375" lon="7.06454887054860591888427734375"><ele></ele><time>2016-7-29T4:58:59Z</time></trkpt>
<trkpt lat="46.52433089911937713623046875" lon="7.06457938067615032196044921875"><ele></ele><time>2016-7-29T4:59:2Z</time></trkpt>
<trkpt lat="46.52454941533505916595458984375" lon="7.06461324356496334075927734375"><ele></ele><time>2016-7-29T4:59:5Z</time></trkpt>
<trkpt lat="46.52456299401819705963134765625" lon="7.06461944617331027984619140625"><ele></ele><time>2016-7-29T4:59:8Z</time></trkpt>
<trkpt lat="46.52455846779048442840576171875" lon="7.0646346174180507659912109375"><ele></ele><time>2016-7-29T4:59:11Z</time></trkpt>
<trkpt lat="46.52455595321953296661376953125" lon="7.06460167653858661651611328125"><ele></ele><time>2016-7-29T4:59:14Z</time></trkpt>
<trkpt lat="46.524557881057262420654296875" lon="7.064596898853778839111328125"><ele></ele><time>2016-7-29T4:59:17Z</time></trkpt>
<trkpt lat="46.52455930598080158233642578125" lon="7.06462212838232517242431640625"><ele></ele><time>2016-7-29T4:59:20Z</time></trkpt>
<trkpt lat="46.524541787803173065185546875" lon="7.06460569985210895538330078125"><ele></ele><time>2016-7-29T4:59:23Z</time></trkpt>
<trkpt lat="46.5245563723146915435791015625" lon="7.064616344869136810302734375"><ele></ele><time>2016-7-29T4:59:26Z</time></trkpt>
<trkpt lat="46.524568609893321990966796875" lon="7.06460922025144100189208984375"><ele></ele><time>2016-7-29T4:59:29Z</time></trkpt>
<trkpt lat="46.52458168566226959228515625" lon="7.0645938813686370849609375"><ele></ele><time>2016-7-29T4:59:32Z</time></trkpt>
<trkpt lat="46.52463088743388652801513671875" lon="7.06454451195895671844482421875"><ele></ele><time>2016-7-29T4:59:35Z</time></trkpt>
<trkpt lat="46.52464027516543865203857421875" lon="7.06451165489852428436279296875"><ele></ele><time>2016-7-29T4:59:38Z</time></trkpt>
<trkpt lat="46.52465083636343479156494140625" lon="7.06437528133392333984375"><ele></ele><time>2016-7-29T4:59:41Z</time></trkpt>
<trkpt lat="46.52464362792670726776123046875" lon="7.064040340483188629150390625"><ele></ele><time>2016-7-29T4:59:44Z</time></trkpt>
<trkpt lat="46.5247065760195255279541015625" lon="7.06382903270423412322998046875"><ele></ele><time>2016-7-29T4:59:47Z</time></trkpt>
<trkpt lat="46.524824090301990509033203125" lon="7.06373515538871288299560546875"><ele></ele><time>2016-7-29T4:59:50Z</time></trkpt>
<trkpt lat="46.52491704560816287994384765625" lon="7.06368989311158657073974609375"><ele></ele><time>2016-7-29T4:59:53Z</time></trkpt>
<trkpt lat="46.5249174647033214569091796875" lon="7.06370783038437366485595703125"><ele></ele><time>2016-7-29T4:59:56Z</time></trkpt>
<trkpt lat="46.5249690972268581390380859375" lon="7.06368352286517620086669921875"><ele></ele><time>2016-7-29T4:59:59Z</time></trkpt>
<trkpt lat="46.52497756294906139373779296875" lon="7.0636673457920551300048828125"><ele></ele><time>2016-7-29T5:0:2Z</time></trkpt>
<trkpt lat="46.52499918825924396514892578125" lon="7.0636800862848758697509765625"><ele></ele><time>2016-7-29T5:0:5Z</time></trkpt>
<trkpt lat="46.5250063128769397735595703125" lon="7.0636770687997341156005859375"><ele></ele><time>2016-7-29T5:0:8Z</time></trkpt>
<trkpt lat="46.52501477859914302825927734375" lon="7.06367346458137035369873046875"><ele></ele><time>2016-7-29T5:0:11Z</time></trkpt>
<trkpt lat="46.525128185749053955078125" lon="7.06363172270357608795166015625"><ele></ele><time>2016-7-29T5:0:14Z</time></trkpt>
<trkpt lat="46.52538777329027652740478515625" lon="7.06351471133530139923095703125"><ele></ele><time>2016-7-29T5:0:17Z</time></trkpt>
<trkpt lat="46.52562749572098255157470703125" lon="7.06336610019207000732421875"><ele></ele><time>2016-7-29T5:0:20Z</time></trkpt>
<trkpt lat="46.5257925353944301605224609375" lon="7.063151188194751739501953125"><ele></ele><time>2016-7-29T5:0:23Z</time></trkpt>
<trkpt lat="46.5258733369410037994384765625" lon="7.06303928978741168975830078125"><ele></ele><time>2016-7-29T5:0:26Z</time></trkpt>
<trkpt lat="46.52589890174567699432373046875" lon="7.06305420957505702972412109375"><ele></ele><time>2016-7-29T5:0:29Z</time></trkpt>
<trkpt lat="46.52594558894634246826171875" lon="7.0631899125874042510986328125"><ele></ele><time>2016-7-29T5:0:32Z</time></trkpt>
<trkpt lat="46.5260798670351505279541015625" lon="7.06362132914364337921142578125"><ele></ele><time>2016-7-29T5:0:35Z</time></trkpt>
<trkpt lat="46.52621389366686344146728515625" lon="7.06396959722042083740234375"><ele></ele><time>2016-7-29T5:0:38Z</time></trkpt>
<trkpt lat="46.52638320811092853546142578125" lon="7.06416481174528598785400390625"><ele></ele><time>2016-7-29T5:0:41Z</time></trkpt>
<trkpt lat="46.5265452302992343902587890625" lon="7.06435357220470905303955078125"><ele></ele><time>2016-7-29T5:0:44Z</time></trkpt>
<trkpt lat="46.52667875401675701141357421875" lon="7.06460217945277690887451171875"><ele></ele><time>2016-7-29T5:0:47Z</time></trkpt>
<trkpt lat="46.5268017165362834930419921875" lon="7.06458826549351215362548828125"><ele></ele><time>2016-7-29T5:0:50Z</time></trkpt>
<trkpt lat="46.52700447477400302886962890625" lon="7.064495645463466644287109375"><ele></ele><time>2016-7-29T5:0:53Z</time></trkpt>
<trkpt lat="46.52736674062907695770263671875" lon="7.06435726024210453033447265625"><ele></ele><time>2016-7-29T5:0:56Z</time></trkpt>
<trkpt lat="46.52757729403674602508544921875" lon="7.064188532531261444091796875"><ele></ele><time>2016-7-29T5:0:59Z</time></trkpt>
<trkpt lat="46.52771442197263240814208984375" lon="7.06383825279772281646728515625"><ele></ele><time>2016-7-29T5:1:2Z</time></trkpt>
<trkpt lat="46.52784065343439579010009765625" lon="7.06355796195566654205322265625"><ele></ele><time>2016-7-29T5:1:5Z</time></trkpt>
<trkpt lat="46.52799152769148349761962890625" lon="7.06336886622011661529541015625"><ele></ele><time>2016-7-29T5:1:8Z</time></trkpt>
<trkpt lat="46.5281872451305389404296875" lon="7.06340893171727657318115234375"><ele></ele><time>2016-7-29T5:1:11Z</time></trkpt>
<trkpt lat="46.5283872373402118682861328125" lon="7.06347665749490261077880859375"><ele></ele><time>2016-7-29T5:1:14Z</time></trkpt>
<trkpt lat="46.52857323177158832550048828125" lon="7.06355494447052478790283203125"><ele></ele><time>2016-7-29T5:1:17Z</time></trkpt>
<trkpt lat="46.52880172245204448699951171875" lon="7.06356449984014034271240234375"><ele></ele><time>2016-7-29T5:1:20Z</time></trkpt>
<trkpt lat="46.5288881398737430572509765625" lon="7.06339166499674320220947265625"><ele></ele><time>2016-7-29T5:1:23Z</time></trkpt>
<trkpt lat="46.52897120453417301177978515625" lon="7.06302872858941555023193359375"><ele></ele><time>2016-7-29T5:1:26Z</time></trkpt>
<trkpt lat="46.52893566526472568511962890625" lon="7.06289805471897125244140625"><ele></ele><time>2016-7-29T5:1:29Z</time></trkpt>
<trkpt lat="46.52891621924936771392822265625" lon="7.06287902779877185821533203125"><ele></ele><time>2016-7-29T5:1:32Z</time></trkpt>
<trkpt lat="46.52876886539161205291748046875" lon="7.06273184157907962799072265625"><ele></ele><time>2016-7-29T5:1:35Z</time></trkpt>
<trkpt lat="46.52860323898494243621826171875" lon="7.0625968091189861297607421875"><ele></ele><time>2016-7-29T5:1:38Z</time></trkpt>
<trkpt lat="46.528332419693470001220703125" lon="7.0623596012592315673828125"><ele></ele><time>2016-7-29T5:1:41Z</time></trkpt>
<trkpt lat="46.52812622487545013427734375" lon="7.06215508282184600830078125"><ele></ele><time>2016-7-29T5:1:44Z</time></trkpt>
<trkpt lat="46.52802740223705768585205078125" lon="7.06201669760048389434814453125"><ele></ele><time>2016-7-29T5:1:47Z</time></trkpt>
<trkpt lat="46.52794308029115200042724609375" lon="7.0619021169841289520263671875"><ele></ele><time>2016-7-29T5:1:50Z</time></trkpt>
<trkpt lat="46.52786445803940296173095703125" lon="7.06177680753171443939208984375"><ele></ele><time>2016-7-29T5:1:53Z</time></trkpt>
<trkpt lat="46.52778114192187786102294921875" lon="7.0616318844258785247802734375"><ele></ele><time>2016-7-29T5:1:56Z</time></trkpt>
<trkpt lat="46.52770201675593852996826171875" lon="7.0614907331764698028564453125"><ele></ele><time>2016-7-29T5:1:59Z</time></trkpt>
<trkpt lat="46.52763848192989826202392578125" lon="7.0613063313066959381103515625"><ele></ele><time>2016-7-29T5:2:2Z</time></trkpt>
<trkpt lat="46.52763814665377140045166015625" lon="7.06117532216012477874755859375"><ele></ele><time>2016-7-29T5:2:5Z</time></trkpt>
<trkpt lat="46.5276570059359073638916015625" lon="7.06107708625495433807373046875"><ele></ele><time>2016-7-29T5:2:8Z</time></trkpt>
<trkpt lat="46.5277366340160369873046875" lon="7.0609747432172298431396484375"><ele></ele><time>2016-7-29T5:2:11Z</time></trkpt>
<trkpt lat="46.52777996845543384552001953125" lon="7.060920260846614837646484375"><ele></ele><time>2016-7-29T5:2:14Z</time></trkpt>
<trkpt lat="46.52783025987446308135986328125" lon="7.06093040294945240020751953125"><ele></ele><time>2016-7-29T5:2:17Z</time></trkpt>
<trkpt lat="46.527869738638401031494140625" lon="7.06095169298350811004638671875"><ele></ele><time>2016-7-29T5:2:20Z</time></trkpt>
<trkpt lat="46.52797761373221874237060546875" lon="7.0610407926142215728759765625"><ele></ele><time>2016-7-29T5:2:23Z</time></trkpt>
<trkpt lat="46.52808540500700473785400390625" lon="7.06114313565194606781005859375"><ele></ele><time>2016-7-29T5:2:26Z</time></trkpt>
<trkpt lat="46.52810317464172840118408203125" lon="7.0611816085875034332275390625"><ele></ele><time>2016-7-29T5:2:29Z</time></trkpt>
<trkpt lat="46.52812354266643524169921875" lon="7.061249502003192901611328125"><ele></ele><time>2016-7-29T5:2:32Z</time></trkpt>
<trkpt lat="46.52822387404739856719970703125" lon="7.06134279258549213409423828125"><ele></ele><time>2016-7-29T5:2:35Z</time></trkpt>
<trkpt lat="46.52848237194120883941650390625" lon="7.06148528493940830230712890625"><ele></ele><time>2016-7-29T5:2:38Z</time></trkpt>
<trkpt lat="46.5288277901709079742431640625" lon="7.06165225245058536529541015625"><ele></ele><time>2016-7-29T5:2:41Z</time></trkpt>
<trkpt lat="46.5292938239872455596923828125" lon="7.06187219358980655670166015625"><ele></ele><time>2016-7-29T5:2:44Z</time></trkpt>
<trkpt lat="46.52970512397587299346923828125" lon="7.062058188021183013916015625"><ele></ele><time>2016-7-29T5:2:47Z</time></trkpt>
<trkpt lat="46.53004266321659088134765625" lon="7.0622025243937969207763671875"><ele></ele><time>2016-7-29T5:2:50Z</time></trkpt>
<trkpt lat="46.5304394625127315521240234375" lon="7.0623808912932872772216796875"><ele></ele><time>2016-7-29T5:2:53Z</time></trkpt>
<trkpt lat="46.53075118549168109893798828125" lon="7.06253268755972385406494140625"><ele></ele><time>2016-7-29T5:2:56Z</time></trkpt>
<trkpt lat="46.53115804307162761688232421875" lon="7.0627148263156414031982421875"><ele></ele><time>2016-7-29T5:2:59Z</time></trkpt>
<trkpt lat="46.531610749661922454833984375" lon="7.062924206256866455078125"><ele></ele><time>2016-7-29T5:3:2Z</time></trkpt>
<trkpt lat="46.532043926417827606201171875" lon="7.0631235279142856597900390625"><ele></ele><time>2016-7-29T5:3:5Z</time></trkpt>
<trkpt lat="46.53231273405253887176513671875" lon="7.0632911659777164459228515625"><ele></ele><time>2016-7-29T5:3:8Z</time></trkpt>
<trkpt lat="46.5325634367763996124267578125" lon="7.06357472576200962066650390625"><ele></ele><time>2016-7-29T5:3:11Z</time></trkpt>
<trkpt lat="46.53278731741011142730712890625" lon="7.06398610956966876983642578125"><ele></ele><time>2016-7-29T5:3:14Z</time></trkpt>
<trkpt lat="46.53302804566919803619384765625" lon="7.06439883448183536529541015625"><ele></ele><time>2016-7-29T5:3:17Z</time></trkpt>
<trkpt lat="46.53327615000307559967041015625" lon="7.0646922849118709564208984375"><ele></ele><time>2016-7-29T5:3:20Z</time></trkpt>
<trkpt lat="46.53354504145681858062744140625" lon="7.06493762321770191192626953125"><ele></ele><time>2016-7-29T5:3:23Z</time></trkpt>
<trkpt lat="46.53379909694194793701171875" lon="7.065185643732547760009765625"><ele></ele><time>2016-7-29T5:3:26Z</time></trkpt>
<trkpt lat="46.5340986661612987518310546875" lon="7.065465264022350311279296875"><ele></ele><time>2016-7-29T5:3:29Z</time></trkpt>
<trkpt lat="46.53437132947146892547607421875" lon="7.06567053683102130889892578125"><ele></ele><time>2016-7-29T5:3:32Z</time></trkpt>
<trkpt lat="46.5347004868090152740478515625" lon="7.0658117718994617462158203125"><ele></ele><time>2016-7-29T5:3:35Z</time></trkpt>
<trkpt lat="46.53503827750682830810546875" lon="7.0659180544316768646240234375"><ele></ele><time>2016-7-29T5:3:38Z</time></trkpt>
<trkpt lat="46.53533491306006908416748046875" lon="7.06606146879494190216064453125"><ele></ele><time>2016-7-29T5:3:41Z</time></trkpt>
<trkpt lat="46.53568024747073650360107421875" lon="7.06634058617055416107177734375"><ele></ele><time>2016-7-29T5:3:44Z</time></trkpt>
<trkpt lat="46.53587655164301395416259765625" lon="7.0665554143488407135009765625"><ele></ele><time>2016-7-29T5:3:47Z</time></trkpt>
<trkpt lat="46.53621065430343151092529296875" lon="7.06687317229807376861572265625"><ele></ele><time>2016-7-29T5:3:50Z</time></trkpt>
<trkpt lat="46.5364053659141063690185546875" lon="7.06700510345399379730224609375"><ele></ele><time>2016-7-29T5:3:53Z</time></trkpt>
<trkpt lat="46.53672161512076854705810546875" lon="7.06718296743929386138916015625"><ele></ele><time>2016-7-29T5:3:56Z</time></trkpt>
<trkpt lat="46.537037193775177001953125" lon="7.06735395826399326324462890625"><ele></ele><time>2016-7-29T5:3:59Z</time></trkpt>
<trkpt lat="46.53736643493175506591796875" lon="7.0675213448703289031982421875"><ele></ele><time>2016-7-29T5:4:2Z</time></trkpt>
<trkpt lat="46.53769207186996936798095703125" lon="7.06768454052507877349853515625"><ele></ele><time>2016-7-29T5:4:5Z</time></trkpt>
<trkpt lat="46.53802885673940181732177734375" lon="7.0678468979895114898681640625"><ele></ele><time>2016-7-29T5:4:8Z</time></trkpt>
<trkpt lat="46.53833328746259212493896484375" lon="7.067971788346767425537109375"><ele></ele><time>2016-7-29T5:4:11Z</time></trkpt>
<trkpt lat="46.538695804774761199951171875" lon="7.06809760071337223052978515625"><ele></ele><time>2016-7-29T5:4:14Z</time></trkpt>
<trkpt lat="46.5390087850391864776611328125" lon="7.0682616345584392547607421875"><ele></ele><time>2016-7-29T5:4:17Z</time></trkpt>
<trkpt lat="46.53926317580044269561767578125" lon="7.0684822462499141693115234375"><ele></ele><time>2016-7-29T5:4:20Z</time></trkpt>
<trkpt lat="46.53945780359208583831787109375" lon="7.0686252415180206298828125"><ele></ele><time>2016-7-29T5:4:23Z</time></trkpt>
<trkpt lat="46.5395110286772251129150390625" lon="7.06866086460649967193603515625"><ele></ele><time>2016-7-29T5:4:26Z</time></trkpt>
<trkpt lat="46.53977983631193637847900390625" lon="7.06893076188862323760986328125"><ele></ele><time>2016-7-29T5:4:29Z</time></trkpt>
<trkpt lat="46.540023498237133026123046875" lon="7.06932999193668365478515625"><ele></ele><time>2016-7-29T5:4:32Z</time></trkpt>
<trkpt lat="46.54036782681941986083984375" lon="7.06973911263048648834228515625"><ele></ele><time>2016-7-29T5:4:35Z</time></trkpt>
<trkpt lat="46.54084836132824420928955078125" lon="7.0701633207499980926513671875"><ele></ele><time>2016-7-29T5:4:38Z</time></trkpt>
<trkpt lat="46.54130970127880573272705078125" lon="7.07057260908186435699462890625"><ele></ele><time>2016-7-29T5:4:41Z</time></trkpt>
<trkpt lat="46.54147683642804622650146484375" lon="7.0707178674638271331787109375"><ele></ele><time>2016-7-29T5:4:44Z</time></trkpt>
<trkpt lat="46.5419756434857845306396484375" lon="7.07115749828517436981201171875"><ele></ele><time>2016-7-29T5:4:47Z</time></trkpt>
<trkpt lat="46.54219441115856170654296875" lon="7.07135103642940521240234375"><ele></ele><time>2016-7-29T5:4:50Z</time></trkpt>
<trkpt lat="46.54267452657222747802734375" lon="7.0717749930918216705322265625"><ele></ele><time>2016-7-29T5:4:53Z</time></trkpt>
<trkpt lat="46.54272842220962047576904296875" lon="7.07182302139699459075927734375"><ele></ele><time>2016-7-29T5:4:56Z</time></trkpt>
<trkpt lat="46.54320451430976390838623046875" lon="7.072239853441715240478515625"><ele></ele><time>2016-7-29T5:4:59Z</time></trkpt>
<trkpt lat="46.54343887232244014739990234375" lon="7.0724770613014698028564453125"><ele></ele><time>2016-7-29T5:5:2Z</time></trkpt>
<trkpt lat="46.54341481626033782958984375" lon="7.0726405084133148193359375"><ele></ele><time>2016-7-29T5:5:5Z</time></trkpt>
<trkpt lat="46.54330861754715442657470703125" lon="7.0728291012346744537353515625"><ele></ele><time>2016-7-29T5:5:8Z</time></trkpt>
<trkpt lat="46.543279699981212615966796875" lon="7.0728777162730693817138671875"><ele></ele><time>2016-7-29T5:5:11Z</time></trkpt>
<trkpt lat="46.54310770332813262939453125" lon="7.0731519721448421478271484375"><ele></ele><time>2016-7-29T5:5:14Z</time></trkpt>
<trkpt lat="46.5430384688079357147216796875" lon="7.0732823945581912994384765625"><ele></ele><time>2016-7-29T5:5:17Z</time></trkpt>
<trkpt lat="46.54288709163665771484375" lon="7.07359068095684051513671875"><ele></ele><time>2016-7-29T5:5:20Z</time></trkpt>
<trkpt lat="46.54265449382364749908447265625" lon="7.073967196047306060791015625"><ele></ele><time>2016-7-29T5:5:23Z</time></trkpt>
<trkpt lat="46.5426819026470184326171875" lon="7.07415352575480937957763671875"><ele></ele><time>2016-7-29T5:5:26Z</time></trkpt>
<trkpt lat="46.54283680021762847900390625" lon="7.07432585768401622772216796875"><ele></ele><time>2016-7-29T5:5:29Z</time></trkpt>
<trkpt lat="46.54317819513380527496337890625" lon="7.0746989361941814422607421875"><ele></ele><time>2016-7-29T5:5:32Z</time></trkpt>
<trkpt lat="46.54363081790506839752197265625" lon="7.0751505531370639801025390625"><ele></ele><time>2016-7-29T5:5:35Z</time></trkpt>
<trkpt lat="46.54368982650339603424072265625" lon="7.075209058821201324462890625"><ele></ele><time>2016-7-29T5:5:38Z</time></trkpt>
<trkpt lat="46.54405762441456317901611328125" lon="7.07561633549630641937255859375"><ele></ele><time>2016-7-29T5:5:41Z</time></trkpt>
<trkpt lat="46.54441854916512966156005859375" lon="7.07603610120713710784912109375"><ele></ele><time>2016-7-29T5:5:44Z</time></trkpt>
<trkpt lat="46.54464502818882465362548828125" lon="7.07626459188759326934814453125"><ele></ele><time>2016-7-29T5:5:47Z</time></trkpt>
<trkpt lat="46.5447373129427433013916015625" lon="7.076324522495269775390625"><ele></ele><time>2016-7-29T5:5:50Z</time></trkpt>
<trkpt lat="46.54488206841051578521728515625" lon="7.076383531093597412109375"><ele></ele><time>2016-7-29T5:5:53Z</time></trkpt>
<trkpt lat="46.545016765594482421875" lon="7.07640163600444793701171875"><ele></ele><time>2016-7-29T5:5:56Z</time></trkpt>
<trkpt lat="46.545447595417499542236328125" lon="7.07646693103015422821044921875"><ele></ele><time>2016-7-29T5:5:59Z</time></trkpt>
<trkpt lat="46.54578479938209056854248046875" lon="7.07657606340944766998291015625"><ele></ele><time>2016-7-29T5:6:2Z</time></trkpt>
<trkpt lat="46.54610163532197475433349609375" lon="7.0766316354274749755859375"><ele></ele><time>2016-7-29T5:6:5Z</time></trkpt>
<trkpt lat="46.5462427027523517608642578125" lon="7.0766609720885753631591796875"><ele></ele><time>2016-7-29T5:6:8Z</time></trkpt>
<trkpt lat="46.54635996557772159576416015625" lon="7.07679592072963714599609375"><ele></ele><time>2016-7-29T5:6:11Z</time></trkpt>
<trkpt lat="46.54642961919307708740234375" lon="7.07699297927320003509521484375"><ele></ele><time>2016-7-29T5:6:14Z</time></trkpt>
<trkpt lat="46.54647731222212314605712890625" lon="7.07712675444781780242919921875"><ele></ele><time>2016-7-29T5:6:17Z</time></trkpt>
<trkpt lat="46.5466051362454891204833984375" lon="7.077472843229770660400390625"><ele></ele><time>2016-7-29T5:6:20Z</time></trkpt>
<trkpt lat="46.54665132053196430206298828125" lon="7.0775782875716686248779296875"><ele></ele><time>2016-7-29T5:6:23Z</time></trkpt>
<trkpt lat="46.546676717698574066162109375" lon="7.07763000391423702239990234375"><ele></ele><time>2016-7-29T5:6:26Z</time></trkpt>
<trkpt lat="46.5467885322868824005126953125" lon="7.07784491591155529022216796875"><ele></ele><time>2016-7-29T5:6:29Z</time></trkpt>
<trkpt lat="46.54682968743145465850830078125" lon="7.07790903747081756591796875"><ele></ele><time>2016-7-29T5:6:32Z</time></trkpt>
<trkpt lat="46.54714199714362621307373046875" lon="7.07829720340669155120849609375"><ele></ele><time>2016-7-29T5:6:35Z</time></trkpt>
<trkpt lat="46.5472917817533016204833984375" lon="7.07840885035693645477294921875"><ele></ele><time>2016-7-29T5:6:38Z</time></trkpt>
<trkpt lat="46.547393538057804107666015625" lon="7.0784570463001728057861328125"><ele></ele><time>2016-7-29T5:6:41Z</time></trkpt>
<trkpt lat="46.54773476533591747283935546875" lon="7.078542374074459075927734375"><ele></ele><time>2016-7-29T5:6:44Z</time></trkpt>
<trkpt lat="46.54819945804774761199951171875" lon="7.07862996496260166168212890625"><ele></ele><time>2016-7-29T5:6:47Z</time></trkpt>
<trkpt lat="46.5485076606273651123046875" lon="7.078727446496486663818359375"><ele></ele><time>2016-7-29T5:6:50Z</time></trkpt>
<trkpt lat="46.54883153736591339111328125" lon="7.07893556915223598480224609375"><ele></ele><time>2016-7-29T5:6:53Z</time></trkpt>
<trkpt lat="46.5491004288196563720703125" lon="7.07905509509146213531494140625"><ele></ele><time>2016-7-29T5:6:56Z</time></trkpt>
<trkpt lat="46.54938197694718837738037109375" lon="7.07918350584805011749267578125"><ele></ele><time>2016-7-29T5:6:59Z</time></trkpt>
<trkpt lat="46.5496690571308135986328125" lon="7.07931141369044780731201171875"><ele></ele><time>2016-7-29T5:7:2Z</time></trkpt>
<trkpt lat="46.54971675015985965728759765625" lon="7.07933136261999607086181640625"><ele></ele><time>2016-7-29T5:7:5Z</time></trkpt>
<trkpt lat="46.55000240541994571685791015625" lon="7.07944652996957302093505859375"><ele></ele><time>2016-7-29T5:7:8Z</time></trkpt>
<trkpt lat="46.5503280423581600189208984375" lon="7.0795782096683979034423828125"><ele></ele><time>2016-7-29T5:7:11Z</time></trkpt>
<trkpt lat="46.55064110644161701202392578125" lon="7.07970486022531986236572265625"><ele></ele><time>2016-7-29T5:7:14Z</time></trkpt>
<trkpt lat="46.55095006339251995086669921875" lon="7.07983612082898616790771484375"><ele></ele><time>2016-7-29T5:7:17Z</time></trkpt>
<trkpt lat="46.55122633092105388641357421875" lon="7.07990887574851512908935546875"><ele></ele><time>2016-7-29T5:7:20Z</time></trkpt>
<trkpt lat="46.55136027373373508453369140625" lon="7.0799315907061100006103515625"><ele></ele><time>2016-7-29T5:7:23Z</time></trkpt>
<trkpt lat="46.55150301754474639892578125" lon="7.079961597919464111328125"><ele></ele><time>2016-7-29T5:7:26Z</time></trkpt>
<trkpt lat="46.5518166683614253997802734375" lon="7.0800965465605258941650390625"><ele></ele><time>2016-7-29T5:7:29Z</time></trkpt>
<trkpt lat="46.55218907631933689117431640625" lon="7.080304585397243499755859375"><ele></ele><time>2016-7-29T5:7:32Z</time></trkpt>
<trkpt lat="46.5525432117283344268798828125" lon="7.08052913658320903778076171875"><ele></ele><time>2016-7-29T5:7:35Z</time></trkpt>
<trkpt lat="46.55268763191998004913330078125" lon="7.08061832003295421600341796875"><ele></ele><time>2016-7-29T5:7:38Z</time></trkpt>
<trkpt lat="46.552983261644840240478515625" lon="7.0808110199868679046630859375"><ele></ele><time>2016-7-29T5:7:41Z</time></trkpt>
<trkpt lat="46.5532419271767139434814453125" lon="7.08100824616849422454833984375"><ele></ele><time>2016-7-29T5:7:44Z</time></trkpt>
<trkpt lat="46.55361299403011798858642578125" lon="7.08134871907532215118408203125"><ele></ele><time>2016-7-29T5:7:47Z</time></trkpt>
<trkpt lat="46.55393435619771480560302734375" lon="7.0816254056990146636962890625"><ele></ele><time>2016-7-29T5:7:50Z</time></trkpt>
<trkpt lat="46.55420224182307720184326171875" lon="7.08185314200818538665771484375"><ele></ele><time>2016-7-29T5:7:53Z</time></trkpt>
<trkpt lat="46.5545421279966831207275390625" lon="7.08216302096843719482421875"><ele></ele><time>2016-7-29T5:7:56Z</time></trkpt>
<trkpt lat="46.5549320541322231292724609375" lon="7.082510031759738922119140625"><ele></ele><time>2016-7-29T5:7:59Z</time></trkpt>
<trkpt lat="46.55530010350048542022705078125" lon="7.0828892290592193603515625"><ele></ele><time>2016-7-29T5:8:2Z</time></trkpt>
<trkpt lat="46.55555189587175846099853515625" lon="7.08313154987990856170654296875"><ele></ele><time>2016-7-29T5:8:5Z</time></trkpt>
<trkpt lat="46.55583134852349758148193359375" lon="7.08343246020376682281494140625"><ele></ele><time>2016-7-29T5:8:8Z</time></trkpt>
<trkpt lat="46.5560401417315006256103515625" lon="7.08366229198873043060302734375"><ele></ele><time>2016-7-29T5:8:11Z</time></trkpt>
<trkpt lat="46.5563043393194675445556640625" lon="7.0839056186378002166748046875"><ele></ele><time>2016-7-29T5:8:14Z</time></trkpt>
<trkpt lat="46.55639846809208393096923828125" lon="7.0839669741690158843994140625"><ele></ele><time>2016-7-29T5:8:17Z</time></trkpt>
<trkpt lat="46.55656225048005580902099609375" lon="7.084048949182033538818359375"><ele></ele><time>2016-7-29T5:8:20Z</time></trkpt>
<trkpt lat="46.5567254461348056793212890625" lon="7.08411508239805698394775390625"><ele></ele><time>2016-7-29T5:8:23Z</time></trkpt>
<trkpt lat="46.5568672679364681243896484375" lon="7.084270901978015899658203125"><ele></ele><time>2016-7-29T5:8:26Z</time></trkpt>
<trkpt lat="46.5569893084466457366943359375" lon="7.084571309387683868408203125"><ele></ele><time>2016-7-29T5:8:29Z</time></trkpt>
<trkpt lat="46.5571425296366214752197265625" lon="7.084995768964290618896484375"><ele></ele><time>2016-7-29T5:8:32Z</time></trkpt>
<trkpt lat="46.55729952268302440643310546875" lon="7.085285447537899017333984375"><ele></ele><time>2016-7-29T5:8:35Z</time></trkpt>
<trkpt lat="46.55742407776415348052978515625" lon="7.085405476391315460205078125"><ele></ele><time>2016-7-29T5:8:38Z</time></trkpt>
<trkpt lat="46.55752197839319705963134765625" lon="7.0854790695011615753173828125"><ele></ele><time>2016-7-29T5:8:41Z</time></trkpt>
<trkpt lat="46.55767687596380710601806640625" lon="7.08570630289614200592041015625"><ele></ele><time>2016-7-29T5:8:44Z</time></trkpt>
<trkpt lat="46.55784518457949161529541015625" lon="7.08588601090013980865478515625"><ele></ele><time>2016-7-29T5:8:47Z</time></trkpt>
<trkpt lat="46.558040566742420196533203125" lon="7.08608516491949558258056640625"><ele></ele><time>2016-7-29T5:8:50Z</time></trkpt>
<trkpt lat="46.55807870440185070037841796875" lon="7.08609379827976226806640625"><ele></ele><time>2016-7-29T5:8:53Z</time></trkpt>
<trkpt lat="46.558222286403179168701171875" lon="7.08605549298226833343505859375"><ele></ele><time>2016-7-29T5:8:56Z</time></trkpt>
<trkpt lat="46.55826763249933719635009765625" lon="7.0860381424427032470703125"><ele></ele><time>2016-7-29T5:8:59Z</time></trkpt>
<trkpt lat="46.5585191734135150909423828125" lon="7.08592389710247516632080078125"><ele></ele><time>2016-7-29T5:9:2Z</time></trkpt>
<trkpt lat="46.558584384620189666748046875" lon="7.085846029222011566162109375"><ele></ele><time>2016-7-29T5:9:5Z</time></trkpt>
<trkpt lat="46.5586723946034908294677734375" lon="7.08568216301500797271728515625"><ele></ele><time>2016-7-29T5:9:8Z</time></trkpt>
<trkpt lat="46.558706425130367279052734375" lon="7.08563723601400852203369140625"><ele></ele><time>2016-7-29T5:9:11Z</time></trkpt>
<trkpt lat="46.5587438084185123443603515625" lon="7.0856088213622570037841796875"><ele></ele><time>2016-7-29T5:9:14Z</time></trkpt>
<trkpt lat="46.558875739574432373046875" lon="7.08563405089080333709716796875"><ele></ele><time>2016-7-29T5:9:17Z</time></trkpt>
<trkpt lat="46.55899333767592906951904296875" lon="7.0857295207679271697998046875"><ele></ele><time>2016-7-29T5:9:20Z</time></trkpt>
<trkpt lat="46.559100709855556488037109375" lon="7.085846699774265289306640625"><ele></ele><time>2016-7-29T5:9:23Z</time></trkpt>
<trkpt lat="46.559229791164398193359375" lon="7.0860228873789310455322265625"><ele></ele><time>2016-7-29T5:9:26Z</time></trkpt>
<trkpt lat="46.5593462996184825897216796875" lon="7.08620754070580005645751953125"><ele></ele><time>2016-7-29T5:9:29Z</time></trkpt>
<trkpt lat="46.55962969176471233367919921875" lon="7.08662294782698154449462890625"><ele></ele><time>2016-7-29T5:9:32Z</time></trkpt>
<trkpt lat="46.55994082801043987274169921875" lon="7.08690960891544818878173828125"><ele></ele><time>2016-7-29T5:9:35Z</time></trkpt>
<trkpt lat="46.56028582714498043060302734375" lon="7.087175734341144561767578125"><ele></ele><time>2016-7-29T5:9:38Z</time></trkpt>
<trkpt lat="46.56059009023010730743408203125" lon="7.087351419031620025634765625"><ele></ele><time>2016-7-29T5:9:41Z</time></trkpt>
<trkpt lat="46.56069092452526092529296875" lon="7.08736893720924854278564453125"><ele></ele><time>2016-7-29T5:9:44Z</time></trkpt>
<trkpt lat="46.560878343880176544189453125" lon="7.0873797498643398284912109375"><ele></ele><time>2016-7-29T5:9:47Z</time></trkpt>
<trkpt lat="46.5613033063709735870361328125" lon="7.0874382555484771728515625"><ele></ele><time>2016-7-29T5:9:50Z</time></trkpt>
<trkpt lat="46.56172751449048519134521484375" lon="7.08749525249004364013671875"><ele></ele><time>2016-7-29T5:9:53Z</time></trkpt>
<trkpt lat="46.5620855055749416351318359375" lon="7.0874525047838687896728515625"><ele></ele><time>2016-7-29T5:9:56Z</time></trkpt>
<trkpt lat="46.5626293234527111053466796875" lon="7.087432555854320526123046875"><ele></ele><time>2016-7-29T5:9:59Z</time></trkpt>
<trkpt lat="46.5630966983735561370849609375" lon="7.087571360170841217041015625"><ele></ele><time>2016-7-29T5:10:2Z</time></trkpt>
<trkpt lat="46.56343189068138599395751953125" lon="7.08775098435580730438232421875"><ele></ele><time>2016-7-29T5:10:5Z</time></trkpt>
<trkpt lat="46.56367999501526355743408203125" lon="7.0878481306135654449462890625"><ele></ele><time>2016-7-29T5:10:8Z</time></trkpt>
<trkpt lat="46.56372995115816593170166015625" lon="7.0878320373594760894775390625"><ele></ele><time>2016-7-29T5:10:11Z</time></trkpt>
<trkpt lat="46.56383740715682506561279296875" lon="7.08769298158586025238037109375"><ele></ele><time>2016-7-29T5:10:14Z</time></trkpt>
<trkpt lat="46.5638664923608303070068359375" lon="7.08763514645397663116455078125"><ele></ele><time>2016-7-29T5:10:17Z</time></trkpt>
<trkpt lat="46.56396816484630107879638671875" lon="7.0874665863811969757080078125"><ele></ele><time>2016-7-29T5:10:20Z</time></trkpt>
<trkpt lat="46.5640951506793498992919921875" lon="7.08734630607068538665771484375"><ele></ele><time>2016-7-29T5:10:23Z</time></trkpt>
<trkpt lat="46.56430327333509922027587890625" lon="7.08731344901025295257568359375"><ele></ele><time>2016-7-29T5:10:26Z</time></trkpt>
<trkpt lat="46.56471482478082180023193359375" lon="7.0872952602803707122802734375"><ele></ele><time>2016-7-29T5:10:29Z</time></trkpt>
<trkpt lat="46.5651281364262104034423828125" lon="7.087276317179203033447265625"><ele></ele><time>2016-7-29T5:10:32Z</time></trkpt>
<trkpt lat="46.565586291253566741943359375" lon="7.0872610621154308319091796875"><ele></ele><time>2016-7-29T5:10:35Z</time></trkpt>
<trkpt lat="46.5656384266912937164306640625" lon="7.08726055920124053955078125"><ele></ele><time>2016-7-29T5:10:38Z</time></trkpt>
<trkpt lat="46.56586666591465473175048828125" lon="7.0872478187084197998046875"><ele></ele><time>2016-7-29T5:10:41Z</time></trkpt>
<trkpt lat="46.5660927258431911468505859375" lon="7.08725343458354473114013671875"><ele></ele><time>2016-7-29T5:10:44Z</time></trkpt>
<trkpt lat="46.56628743745386600494384765625" lon="7.08731227554380893707275390625"><ele></ele><time>2016-7-29T5:10:47Z</time></trkpt>
<trkpt lat="46.56643026508390903472900390625" lon="7.08747446537017822265625"><ele></ele><time>2016-7-29T5:10:50Z</time></trkpt>
<trkpt lat="46.56668557785451412200927734375" lon="7.08786271512508392333984375"><ele></ele><time>2016-7-29T5:10:53Z</time></trkpt>
<trkpt lat="46.56694826669991016387939453125" lon="7.08826345391571521759033203125"><ele></ele><time>2016-7-29T5:10:56Z</time></trkpt>
<trkpt lat="46.567058824002742767333984375" lon="7.08836470730602741241455078125"><ele></ele><time>2016-7-29T5:10:59Z</time></trkpt>
<trkpt lat="46.567281782627105712890625" lon="7.0884613506495952606201171875"><ele></ele><time>2016-7-29T5:11:2Z</time></trkpt>
<trkpt lat="46.5673376061022281646728515625" lon="7.0884804613888263702392578125"><ele></ele><time>2016-7-29T5:11:5Z</time></trkpt>
<trkpt lat="46.567689143121242523193359375" lon="7.088589258491992950439453125"><ele></ele><time>2016-7-29T5:11:8Z</time></trkpt>
<trkpt lat="46.5680064819753170013427734375" lon="7.08863158710300922393798828125"><ele></ele><time>2016-7-29T5:11:11Z</time></trkpt>
<trkpt lat="46.5683447755873203277587890625" lon="7.0886668749153614044189453125"><ele></ele><time>2016-7-29T5:11:14Z</time></trkpt>
<trkpt lat="46.56866957433521747589111328125" lon="7.08874340169131755828857421875"><ele></ele><time>2016-7-29T5:11:17Z</time></trkpt>
<trkpt lat="46.56874165870249271392822265625" lon="7.08878011442720890045166015625"><ele></ele><time>2016-7-29T5:11:20Z</time></trkpt>
<trkpt lat="46.569107361137866973876953125" lon="7.0889830403029918670654296875"><ele></ele><time>2016-7-29T5:11:23Z</time></trkpt>
<trkpt lat="46.56940818764269351959228515625" lon="7.08912561647593975067138671875"><ele></ele><time>2016-7-29T5:11:26Z</time></trkpt>
<trkpt lat="46.5698069147765636444091796875" lon="7.08931018598377704620361328125"><ele></ele><time>2016-7-29T5:11:29Z</time></trkpt>
<trkpt lat="46.5702769719064235687255859375" lon="7.0895228348672389984130859375"><ele></ele><time>2016-7-29T5:11:32Z</time></trkpt>
<trkpt lat="46.57065507955849170684814453125" lon="7.08970145322382450103759765625"><ele></ele><time>2016-7-29T5:11:35Z</time></trkpt>
<trkpt lat="46.570928581058979034423828125" lon="7.08982969634234905242919921875"><ele></ele><time>2016-7-29T5:11:38Z</time></trkpt>
<trkpt lat="46.57115547917783260345458984375" lon="7.0899218134582042694091796875"><ele></ele><time>2016-7-29T5:11:41Z</time></trkpt>
<trkpt lat="46.571460328996181488037109375" lon="7.09006807766854763031005859375"><ele></ele><time>2016-7-29T5:11:44Z</time></trkpt>
<trkpt lat="46.571705751121044158935546875" lon="7.090213000774383544921875"><ele></ele><time>2016-7-29T5:11:47Z</time></trkpt>
<trkpt lat="46.57190767116844654083251953125" lon="7.0903439261019229888916015625"><ele></ele><time>2016-7-29T5:11:50Z</time></trkpt>
<trkpt lat="46.571945138275623321533203125" lon="7.09042967297136783599853515625"><ele></ele><time>2016-7-29T5:11:53Z</time></trkpt>
<trkpt lat="46.5719421207904815673828125" lon="7.0904612727463245391845703125"><ele></ele><time>2016-7-29T5:11:56Z</time></trkpt>
<trkpt lat="46.57191538251936435699462890625" lon="7.0908190123736858367919921875"><ele></ele><time>2016-7-29T5:11:59Z</time></trkpt>
<trkpt lat="46.57192669808864593505859375" lon="7.0912136323750019073486328125"><ele></ele><time>2016-7-29T5:12:2Z</time></trkpt>
<trkpt lat="46.57196424901485443115234375" lon="7.09157480858266353607177734375"><ele></ele><time>2016-7-29T5:12:5Z</time></trkpt>
<trkpt lat="46.5719885565340518951416015625" lon="7.09183230064809322357177734375"><ele></ele><time>2016-7-29T5:12:8Z</time></trkpt>
<trkpt lat="46.57202057540416717529296875" lon="7.0918952487409114837646484375"><ele></ele><time>2016-7-29T5:12:11Z</time></trkpt>
<trkpt lat="46.57207363285124301910400390625" lon="7.091902792453765869140625"><ele></ele><time>2016-7-29T5:12:14Z</time></trkpt>
<trkpt lat="46.57221729867160320281982421875" lon="7.09184017963707447052001953125"><ele></ele><time>2016-7-29T5:12:17Z</time></trkpt>
<trkpt lat="46.57249121926724910736083984375" lon="7.091758958995342254638671875"><ele></ele><time>2016-7-29T5:12:20Z</time></trkpt>
<trkpt lat="46.572797410190105438232421875" lon="7.09179407916963100433349609375"><ele></ele><time>2016-7-29T5:12:23Z</time></trkpt>
<trkpt lat="46.5728592686355113983154296875" lon="7.09179625846445560455322265625"><ele></ele><time>2016-7-29T5:12:26Z</time></trkpt>
<trkpt lat="46.57304911874234676361083984375" lon="7.09177530370652675628662109375"><ele></ele><time>2016-7-29T5:12:29Z</time></trkpt>
<trkpt lat="46.57313159666955471038818359375" lon="7.09173959679901599884033203125"><ele></ele><time>2016-7-29T5:12:32Z</time></trkpt>
<trkpt lat="46.57317015342414379119873046875" lon="7.0917396806180477142333984375"><ele></ele><time>2016-7-29T5:12:35Z</time></trkpt>
<trkpt lat="46.573372073471546173095703125" lon="7.0917564444243907928466796875"><ele></ele><time>2016-7-29T5:12:38Z</time></trkpt>
<trkpt lat="46.57348430715501308441162109375" lon="7.091763652861118316650390625"><ele></ele><time>2016-7-29T5:12:41Z</time></trkpt>
<trkpt lat="46.5736345946788787841796875" lon="7.0917685143649578094482421875"><ele></ele><time>2016-7-29T5:12:44Z</time></trkpt>
<trkpt lat="46.57382679171860218048095703125" lon="7.091817967593669891357421875"><ele></ele><time>2016-7-29T5:12:47Z</time></trkpt>
<trkpt lat="46.574052684009075164794921875" lon="7.0918117649853229522705078125"><ele></ele><time>2016-7-29T5:12:50Z</time></trkpt>
<trkpt lat="46.57428125850856304168701171875" lon="7.09174630232155323028564453125"><ele></ele><time>2016-7-29T5:12:53Z</time></trkpt>
<trkpt lat="46.5744473040103912353515625" lon="7.091771028935909271240234375"><ele></ele><time>2016-7-29T5:12:56Z</time></trkpt>
<trkpt lat="46.5746737830340862274169921875" lon="7.09175451658666133880615234375"><ele></ele><time>2016-7-29T5:12:59Z</time></trkpt>
<trkpt lat="46.5747938118875026702880859375" lon="7.0916937477886676788330078125"><ele></ele><time>2016-7-29T5:13:2Z</time></trkpt>
<trkpt lat="46.57500327564775943756103515625" lon="7.09165267646312713623046875"><ele></ele><time>2016-7-29T5:13:5Z</time></trkpt>
<trkpt lat="46.575199328362941741943359375" lon="7.09162627346813678741455078125"><ele></ele><time>2016-7-29T5:13:8Z</time></trkpt>
<trkpt lat="46.57536797225475311279296875" lon="7.09162694402039051055908203125"><ele></ele><time>2016-7-29T5:13:11Z</time></trkpt>
<trkpt lat="46.57552412711083889007568359375" lon="7.0917393453419208526611328125"><ele></ele><time>2016-7-29T5:13:14Z</time></trkpt>
<trkpt lat="46.57572546042501926422119140625" lon="7.0919281058013439178466796875"><ele></ele><time>2016-7-29T5:13:17Z</time></trkpt>
<trkpt lat="46.5757956169545650482177734375" lon="7.0919760502874851226806640625"><ele></ele><time>2016-7-29T5:13:20Z</time></trkpt>
<trkpt lat="46.57595093362033367156982421875" lon="7.09203623235225677490234375"><ele></ele><time>2016-7-29T5:13:23Z</time></trkpt>
<trkpt lat="46.57611337490379810333251953125" lon="7.09211024455726146697998046875"><ele></ele><time>2016-7-29T5:13:26Z</time></trkpt>
<trkpt lat="46.5763300471007823944091796875" lon="7.09219054318964481353759765625"><ele></ele><time>2016-7-29T5:13:29Z</time></trkpt>
<trkpt lat="46.5765878744423389434814453125" lon="7.092227675020694732666015625"><ele></ele><time>2016-7-29T5:13:32Z</time></trkpt>
<trkpt lat="46.576686613261699676513671875" lon="7.09225676022469997406005859375"><ele></ele><time>2016-7-29T5:13:35Z</time></trkpt>
<trkpt lat="46.5768252499401569366455078125" lon="7.092283330857753753662109375"><ele></ele><time>2016-7-29T5:13:38Z</time></trkpt>
<trkpt lat="46.5771021880209445953369140625" lon="7.09233320318162441253662109375"><ele></ele><time>2016-7-29T5:13:41Z</time></trkpt>
<trkpt lat="46.57722632400691509246826171875" lon="7.09239606745541095733642578125"><ele></ele><time>2016-7-29T5:13:44Z</time></trkpt>
<trkpt lat="46.5772969834506511688232421875" lon="7.0924632064998149871826171875"><ele></ele><time>2016-7-29T5:13:47Z</time></trkpt>
<trkpt lat="46.5775068663060665130615234375" lon="7.09263461641967296600341796875"><ele></ele><time>2016-7-29T5:13:50Z</time></trkpt>
<trkpt lat="46.57754282467067241668701171875" lon="7.09265179932117462158203125"><ele></ele><time>2016-7-29T5:13:53Z</time></trkpt>
<trkpt lat="46.57769135199487209320068359375" lon="7.09267183206975460052490234375"><ele></ele><time>2016-7-29T5:13:56Z</time></trkpt>
<trkpt lat="46.57783485017716884613037109375" lon="7.092591114342212677001953125"><ele></ele><time>2016-7-29T5:13:59Z</time></trkpt>
<trkpt lat="46.57806920818984508514404296875" lon="7.09252364002168178558349609375"><ele></ele><time>2016-7-29T5:14:2Z</time></trkpt>
<trkpt lat="46.5782506763935089111328125" lon="7.092621959745883941650390625"><ele></ele><time>2016-7-29T5:14:5Z</time></trkpt>
<trkpt lat="46.57838704995810985565185546875" lon="7.0927438326179981231689453125"><ele></ele><time>2016-7-29T5:14:8Z</time></trkpt>
<trkpt lat="46.57853968441486358642578125" lon="7.0928085409104824066162109375"><ele></ele><time>2016-7-29T5:14:11Z</time></trkpt>
<trkpt lat="46.5788194723427295684814453125" lon="7.09286679513752460479736328125"><ele></ele><time>2016-7-29T5:14:14Z</time></trkpt>
<trkpt lat="46.578902117908000946044921875" lon="7.092896886169910430908203125"><ele></ele><time>2016-7-29T5:14:17Z</time></trkpt>
<trkpt lat="46.57896908931434154510498046875" lon="7.09293745458126068115234375"><ele></ele><time>2016-7-29T5:14:20Z</time></trkpt>
<trkpt lat="46.57906983979046344757080078125" lon="7.0930199325084686279296875"><ele></ele><time>2016-7-29T5:14:23Z</time></trkpt>
<trkpt lat="46.57913647592067718505859375" lon="7.09304264746606349945068359375"><ele></ele><time>2016-7-29T5:14:26Z</time></trkpt>
<trkpt lat="46.5793237276375293731689453125" lon="7.0930546335875988006591796875"><ele></ele><time>2016-7-29T5:14:29Z</time></trkpt>
<trkpt lat="46.579554565250873565673828125" lon="7.09303091280162334442138671875"><ele></ele><time>2016-7-29T5:14:32Z</time></trkpt>
<trkpt lat="46.57959320582449436187744140625" lon="7.0930154062807559967041015625"><ele></ele><time>2016-7-29T5:14:35Z</time></trkpt>
<trkpt lat="46.57972010783851146697998046875" lon="7.09299084730446338653564453125"><ele></ele><time>2016-7-29T5:14:38Z</time></trkpt>
<trkpt lat="46.579825468361377716064453125" lon="7.09297844208776950836181640625"><ele></ele><time>2016-7-29T5:14:41Z</time></trkpt>
<trkpt lat="46.57998598180711269378662109375" lon="7.09307919256389141082763671875"><ele></ele><time>2016-7-29T5:14:44Z</time></trkpt>
<trkpt lat="46.5802407078444957733154296875" lon="7.093359567224979400634765625"><ele></ele><time>2016-7-29T5:14:47Z</time></trkpt>
<trkpt lat="46.58041295595467090606689453125" lon="7.0935391075909137725830078125"><ele></ele><time>2016-7-29T5:14:50Z</time></trkpt>
<trkpt lat="46.5805588848888874053955078125" lon="7.0936883054673671722412109375"><ele></ele><time>2016-7-29T5:14:53Z</time></trkpt>
<trkpt lat="46.580776311457157135009765625" lon="7.09392358548939228057861328125"><ele></ele><time>2016-7-29T5:14:56Z</time></trkpt>
<trkpt lat="46.58096498809754848480224609375" lon="7.09398745559155941009521484375"><ele></ele><time>2016-7-29T5:14:59Z</time></trkpt>
<trkpt lat="46.5813112445175647735595703125" lon="7.09410413168370723724365234375"><ele></ele><time>2016-7-29T5:15:2Z</time></trkpt>
<trkpt lat="46.5814309380948543548583984375" lon="7.09416364319622516632080078125"><ele></ele><time>2016-7-29T5:15:5Z</time></trkpt>
<trkpt lat="46.5815080516040325164794921875" lon="7.0942403376102447509765625"><ele></ele><time>2016-7-29T5:15:8Z</time></trkpt>
<trkpt lat="46.58153546042740345001220703125" lon="7.094280906021595001220703125"><ele></ele><time>2016-7-29T5:15:11Z</time></trkpt>
<trkpt lat="46.58167979680001735687255859375" lon="7.09440353326499462127685546875"><ele></ele><time>2016-7-29T5:15:14Z</time></trkpt>
<trkpt lat="46.581835113465785980224609375" lon="7.09447343833744525909423828125"><ele></ele><time>2016-7-29T5:15:17Z</time></trkpt>
<trkpt lat="46.581948436796665191650390625" lon="7.09449539892375469207763671875"><ele></ele><time>2016-7-29T5:15:20Z</time></trkpt>
<trkpt lat="46.5821011550724506378173828125" lon="7.0944718457758426666259765625"><ele></ele><time>2016-7-29T5:15:23Z</time></trkpt>
<trkpt lat="46.58221892081201076507568359375" lon="7.0944426767528057098388671875"><ele></ele><time>2016-7-29T5:15:26Z</time></trkpt>
<trkpt lat="46.582294441759586334228515625" lon="7.0944173634052276611328125"><ele></ele><time>2016-7-29T5:15:29Z</time></trkpt>
<trkpt lat="46.5824015624821186065673828125" lon="7.09438945166766643524169921875"><ele></ele><time>2016-7-29T5:15:32Z</time></trkpt>
<trkpt lat="46.5824753232300281524658203125" lon="7.0943333767354488372802734375"><ele></ele><time>2016-7-29T5:15:35Z</time></trkpt>
<trkpt lat="46.58255754970014095306396484375" lon="7.09424779750406742095947265625"><ele></ele><time>2016-7-29T5:15:38Z</time></trkpt>
<trkpt lat="46.5826255269348621368408203125" lon="7.09413330070674419403076171875"><ele></ele><time>2016-7-29T5:15:41Z</time></trkpt>
<trkpt lat="46.58265888690948486328125" lon="7.0939900539815425872802734375"><ele></ele><time>2016-7-29T5:15:44Z</time></trkpt>
<trkpt lat="46.58270054496824741363525390625" lon="7.093927524983882904052734375"><ele></ele><time>2016-7-29T5:15:47Z</time></trkpt>
<trkpt lat="46.58273206092417240142822265625" lon="7.09392375312745571136474609375"><ele></ele><time>2016-7-29T5:15:50Z</time></trkpt>
<trkpt lat="46.5828327275812625885009765625" lon="7.09393481723964214324951171875"><ele></ele><time>2016-7-29T5:15:53Z</time></trkpt>
<trkpt lat="46.58297077752649784088134765625" lon="7.09400086663663387298583984375"><ele></ele><time>2016-7-29T5:15:56Z</time></trkpt>
<trkpt lat="46.58326531760394573211669921875" lon="7.09422818385064601898193359375"><ele></ele><time>2016-7-29T5:15:59Z</time></trkpt>
<trkpt lat="46.5833839215338230133056640625" lon="7.0943652279675006866455078125"><ele></ele><time>2016-7-29T5:16:2Z</time></trkpt>
<trkpt lat="46.58346396870911121368408203125" lon="7.09450520575046539306640625"><ele></ele><time>2016-7-29T5:16:5Z</time></trkpt>
<trkpt lat="46.583613418042659759521484375" lon="7.09489705972373485565185546875"><ele></ele><time>2016-7-29T5:16:8Z</time></trkpt>
<trkpt lat="46.58363898284733295440673828125" lon="7.09497769363224506378173828125"><ele></ele><time>2016-7-29T5:16:11Z</time></trkpt>
<trkpt lat="46.58366136252880096435546875" lon="7.09503402002155780792236328125"><ele></ele><time>2016-7-29T5:16:14Z</time></trkpt>
<trkpt lat="46.58375398255884647369384765625" lon="7.09518824703991413116455078125"><ele></ele><time>2016-7-29T5:16:17Z</time></trkpt>
<trkpt lat="46.58383905887603759765625" lon="7.0952956192195415496826171875"><ele></ele><time>2016-7-29T5:16:20Z</time></trkpt>
<trkpt lat="46.58385448157787322998046875" lon="7.0953883230686187744140625"><ele></ele><time>2016-7-29T5:16:23Z</time></trkpt>
<trkpt lat="46.583880968391895294189453125" lon="7.09548999555408954620361328125"><ele></ele><time>2016-7-29T5:16:26Z</time></trkpt>
<trkpt lat="46.58393452875316143035888671875" lon="7.09557364694774150848388671875"><ele></ele><time>2016-7-29T5:16:29Z</time></trkpt>
<trkpt lat="46.58407467417418956756591796875" lon="7.09585578180849552154541015625"><ele></ele><time>2016-7-29T5:16:32Z</time></trkpt>
<trkpt lat="46.58411909826099872589111328125" lon="7.09592065773904323577880859375"><ele></ele><time>2016-7-29T5:16:35Z</time></trkpt>
<trkpt lat="46.584196127951145172119140625" lon="7.09608008153736591339111328125"><ele></ele><time>2016-7-29T5:16:38Z</time></trkpt>
<trkpt lat="46.5842271409928798675537109375" lon="7.0961244218051433563232421875"><ele></ele><time>2016-7-29T5:16:41Z</time></trkpt>
<trkpt lat="46.58427768386900424957275390625" lon="7.09623347036540508270263671875"><ele></ele><time>2016-7-29T5:16:44Z</time></trkpt>
<trkpt lat="46.58428589813411235809326171875" lon="7.0962538383901119232177734375"><ele></ele><time>2016-7-29T5:16:47Z</time></trkpt>
<trkpt lat="46.58433887176215648651123046875" lon="7.0963869430124759674072265625"><ele></ele><time>2016-7-29T5:16:50Z</time></trkpt>
<trkpt lat="46.584425456821918487548828125" lon="7.096534632146358489990234375"><ele></ele><time>2016-7-29T5:16:53Z</time></trkpt>
<trkpt lat="46.5845781750977039337158203125" lon="7.09682053886353969573974609375"><ele></ele><time>2016-7-29T5:16:56Z</time></trkpt>
<trkpt lat="46.584705077111721038818359375" lon="7.09704014472663402557373046875"><ele></ele><time>2016-7-29T5:16:59Z</time></trkpt>
<trkpt lat="46.584855951368808746337890625" lon="7.097262181341648101806640625"><ele></ele><time>2016-7-29T5:17:2Z</time></trkpt>
<trkpt lat="46.58497053198516368865966796875" lon="7.0974665321409702301025390625"><ele></ele><time>2016-7-29T5:17:5Z</time></trkpt>
<trkpt lat="46.5851022116839885711669921875" lon="7.0976509340107440948486328125"><ele></ele><time>2016-7-29T5:17:8Z</time></trkpt>
<trkpt lat="46.58523447811603546142578125" lon="7.09783382713794708251953125"><ele></ele><time>2016-7-29T5:17:11Z</time></trkpt>
<trkpt lat="46.5853711031377315521240234375" lon="7.09806307218968868255615234375"><ele></ele><time>2016-7-29T5:17:14Z</time></trkpt>
<trkpt lat="46.585472188889980316162109375" lon="7.098182179033756256103515625"><ele></ele><time>2016-7-29T5:17:17Z</time></trkpt>
<trkpt lat="46.5855999290943145751953125" lon="7.09837001748383045196533203125"><ele></ele><time>2016-7-29T5:17:20Z</time></trkpt>
<trkpt lat="46.5857152640819549560546875" lon="7.0985873602330684661865234375"><ele></ele><time>2016-7-29T5:17:23Z</time></trkpt>
<trkpt lat="46.5858988277614116668701171875" lon="7.09887661971151828765869140625"><ele></ele><time>2016-7-29T5:17:26Z</time></trkpt>
<trkpt lat="46.58614617772400379180908203125" lon="7.0991207845509052276611328125"><ele></ele><time>2016-7-29T5:17:29Z</time></trkpt>
<trkpt lat="46.58642009831964969635009765625" lon="7.09927056916058063507080078125"><ele></ele><time>2016-7-29T5:17:32Z</time></trkpt>
<trkpt lat="46.5867380239069461822509765625" lon="7.099470309913158416748046875"><ele></ele><time>2016-7-29T5:17:35Z</time></trkpt>
<trkpt lat="46.58679074607789516448974609375" lon="7.09951615892350673675537109375"><ele></ele><time>2016-7-29T5:17:38Z</time></trkpt>
<trkpt lat="46.58695117570459842681884765625" lon="7.09968857467174530029296875"><ele></ele><time>2016-7-29T5:17:41Z</time></trkpt>
<trkpt lat="46.58704170025885105133056640625" lon="7.0998086035251617431640625"><ele></ele><time>2016-7-29T5:17:44Z</time></trkpt>
<trkpt lat="46.58709920011460781097412109375" lon="7.099890075623989105224609375"><ele></ele><time>2016-7-29T5:17:47Z</time></trkpt>
<trkpt lat="46.58714898861944675445556640625" lon="7.09996442310512065887451171875"><ele></ele><time>2016-7-29T5:17:50Z</time></trkpt>
<trkpt lat="46.58724077045917510986328125" lon="7.1001289598643779754638671875"><ele></ele><time>2016-7-29T5:17:53Z</time></trkpt>
<trkpt lat="46.5872744657099246978759765625" lon="7.100174725055694580078125"><ele></ele><time>2016-7-29T5:17:56Z</time></trkpt>
<trkpt lat="46.58740296028554439544677734375" lon="7.1003378368914127349853515625"><ele></ele><time>2016-7-29T5:17:59Z</time></trkpt>
<trkpt lat="46.587494574487209320068359375" lon="7.10046105086803436279296875"><ele></ele><time>2016-7-29T5:18:2Z</time></trkpt>
<trkpt lat="46.5876786410808563232421875" lon="7.10063866339623928070068359375"><ele></ele><time>2016-7-29T5:18:5Z</time></trkpt>
<trkpt lat="46.58781878650188446044921875" lon="7.10072994232177734375"><ele></ele><time>2016-7-29T5:18:8Z</time></trkpt>
<trkpt lat="46.5880502946674823760986328125" lon="7.1008037030696868896484375"><ele></ele><time>2016-7-29T5:18:11Z</time></trkpt>
<trkpt lat="46.58825640566647052764892578125" lon="7.100927419960498809814453125"><ele></ele><time>2016-7-29T5:18:14Z</time></trkpt>
<trkpt lat="46.588289849460124969482421875" lon="7.100948207080364227294921875"><ele></ele><time>2016-7-29T5:18:17Z</time></trkpt>
<trkpt lat="46.58851054497063159942626953125" lon="7.101110480725765228271484375"><ele></ele><time>2016-7-29T5:18:20Z</time></trkpt>
<trkpt lat="46.5887255407869815826416015625" lon="7.10123830474913120269775390625"><ele></ele><time>2016-7-29T5:18:23Z</time></trkpt>
<trkpt lat="46.58900943584740161895751953125" lon="7.10133410990238189697265625"><ele></ele><time>2016-7-29T5:18:26Z</time></trkpt>
<trkpt lat="46.58926089294254779815673828125" lon="7.10143092088401317596435546875"><ele></ele><time>2016-7-29T5:18:29Z</time></trkpt>
<trkpt lat="46.5895737893879413604736328125" lon="7.10146562196314334869384765625"><ele></ele><time>2016-7-29T5:18:32Z</time></trkpt>
<trkpt lat="46.58989171497523784637451171875" lon="7.101465202867984771728515625"><ele></ele><time>2016-7-29T5:18:35Z</time></trkpt>
<trkpt lat="46.58997972495853900909423828125" lon="7.10144818760454654693603515625"><ele></ele><time>2016-7-29T5:18:38Z</time></trkpt>
<trkpt lat="46.59012624062597751617431640625" lon="7.1013691462576389312744140625"><ele></ele><time>2016-7-29T5:18:41Z</time></trkpt>
<trkpt lat="46.59040150232613086700439453125" lon="7.101217769086360931396484375"><ele></ele><time>2016-7-29T5:18:44Z</time></trkpt>
<trkpt lat="46.5905993990600109100341796875" lon="7.1010958962142467498779296875"><ele></ele><time>2016-7-29T5:18:47Z</time></trkpt>
<trkpt lat="46.5908139757812023162841796875" lon="7.10089213214814662933349609375"><ele></ele><time>2016-7-29T5:18:50Z</time></trkpt>
<trkpt lat="46.59108429215848445892333984375" lon="7.100602872669696807861328125"><ele></ele><time>2016-7-29T5:18:53Z</time></trkpt>
<trkpt lat="46.59119359217584133148193359375" lon="7.10050354711711406707763671875"><ele></ele><time>2016-7-29T5:18:56Z</time></trkpt>
<trkpt lat="46.59132904373109340667724609375" lon="7.10041285492479801177978515625"><ele></ele><time>2016-7-29T5:18:59Z</time></trkpt>
<trkpt lat="46.59155585803091526031494140625" lon="7.10022996179759502410888671875"><ele></ele><time>2016-7-29T5:19:2Z</time></trkpt>
<trkpt lat="46.59180765040218830108642578125" lon="7.1000069193542003631591796875"><ele></ele><time>2016-7-29T5:19:5Z</time></trkpt>
<trkpt lat="46.5919720195233821868896484375" lon="7.09988211281597614288330078125"><ele></ele><time>2016-7-29T5:19:8Z</time></trkpt>
<trkpt lat="46.5920467860996723175048828125" lon="7.099820673465728759765625"><ele></ele><time>2016-7-29T5:19:11Z</time></trkpt>
<trkpt lat="46.59223596565425395965576171875" lon="7.09961137734353542327880859375"><ele></ele><time>2016-7-29T5:19:14Z</time></trkpt>
<trkpt lat="46.592262201011180877685546875" lon="7.09958220832049846649169921875"><ele></ele><time>2016-7-29T5:19:17Z</time></trkpt>
<trkpt lat="46.59246177412569522857666015625" lon="7.09931348450481891632080078125"><ele></ele><time>2016-7-29T5:19:20Z</time></trkpt>
<trkpt lat="46.59263930283486843109130859375" lon="7.0990976504981517791748046875"><ele></ele><time>2016-7-29T5:19:23Z</time></trkpt>
<trkpt lat="46.5928863175213336944580078125" lon="7.09894568659365177154541015625"><ele></ele><time>2016-7-29T5:19:26Z</time></trkpt>
<trkpt lat="46.59317222423851490020751953125" lon="7.0987915433943271636962890625"><ele></ele><time>2016-7-29T5:19:29Z</time></trkpt>
<trkpt lat="46.59329057671129703521728515625" lon="7.0987224765121936798095703125"><ele></ele><time>2016-7-29T5:19:32Z</time></trkpt>
<trkpt lat="46.5934106893837451934814453125" lon="7.09865550510585308074951171875"><ele></ele><time>2016-7-29T5:19:35Z</time></trkpt>
<trkpt lat="46.5936571173369884490966796875" lon="7.098548300564289093017578125"><ele></ele><time>2016-7-29T5:19:38Z</time></trkpt>
<trkpt lat="46.59377454780042171478271484375" lon="7.098522484302520751953125"><ele></ele><time>2016-7-29T5:19:41Z</time></trkpt>
<trkpt lat="46.5939308702945709228515625" lon="7.09850714541971683502197265625"><ele></ele><time>2016-7-29T5:19:44Z</time></trkpt>
<trkpt lat="46.59423463046550750732421875" lon="7.0985508151352405548095703125"><ele></ele><time>2016-7-29T5:19:47Z</time></trkpt>
<trkpt lat="46.59445649944245815277099609375" lon="7.09866053424775600433349609375"><ele></ele><time>2016-7-29T5:19:50Z</time></trkpt>
<trkpt lat="46.59473645500838756561279296875" lon="7.09894367493689060211181640625"><ele></ele><time>2016-7-29T5:19:53Z</time></trkpt>
<trkpt lat="46.59495974890887737274169921875" lon="7.099172584712505340576171875"><ele></ele><time>2016-7-29T5:19:56Z</time></trkpt>
<trkpt lat="46.595115400850772857666015625" lon="7.09926486946642398834228515625"><ele></ele><time>2016-7-29T5:19:59Z</time></trkpt>
<trkpt lat="46.5952862240374088287353515625" lon="7.09921709261834621429443359375"><ele></ele><time>2016-7-29T5:20:2Z</time></trkpt>
<trkpt lat="46.595478169620037078857421875" lon="7.09910921752452850341796875"><ele></ele><time>2016-7-29T5:20:5Z</time></trkpt>
<trkpt lat="46.595656536519527435302734375" lon="7.09908583201467990875244140625"><ele></ele><time>2016-7-29T5:20:8Z</time></trkpt>
<trkpt lat="46.59588226117193698883056640625" lon="7.099041827023029327392578125"><ele></ele><time>2016-7-29T5:20:11Z</time></trkpt>
<trkpt lat="46.59610605798661708831787109375" lon="7.09901240654289722442626953125"><ele></ele><time>2016-7-29T5:20:14Z</time></trkpt>
<trkpt lat="46.59638383425772190093994140625" lon="7.09895901381969451904296875"><ele></ele><time>2016-7-29T5:20:17Z</time></trkpt>
<trkpt lat="46.59645818173885345458984375" lon="7.0989427529275417327880859375"><ele></ele><time>2016-7-29T5:20:20Z</time></trkpt>
<trkpt lat="46.596686840057373046875" lon="7.09887050092220306396484375"><ele></ele><time>2016-7-29T5:20:23Z</time></trkpt>
<trkpt lat="46.59689269959926605224609375" lon="7.0987893640995025634765625"><ele></ele><time>2016-7-29T5:20:26Z</time></trkpt>
<trkpt lat="46.59710057079792022705078125" lon="7.0986517332494258880615234375"><ele></ele><time>2016-7-29T5:20:29Z</time></trkpt>
<trkpt lat="46.59735764376819133758544921875" lon="7.09848334081470966339111328125"><ele></ele><time>2016-7-29T5:20:32Z</time></trkpt>
<trkpt lat="46.5976814366877079010009765625" lon="7.09828435443341732025146484375"><ele></ele><time>2016-7-29T5:20:35Z</time></trkpt>
<trkpt lat="46.59799768589437007904052734375" lon="7.09807598032057285308837890625"><ele></ele><time>2016-7-29T5:20:38Z</time></trkpt>
<trkpt lat="46.59829608164727687835693359375" lon="7.097912617027759552001953125"><ele></ele><time>2016-7-29T5:20:41Z</time></trkpt>
<trkpt lat="46.59850847907364368438720703125" lon="7.09778965450823307037353515625"><ele></ele><time>2016-7-29T5:20:44Z</time></trkpt>
<trkpt lat="46.59882196225225925445556640625" lon="7.09761656820774078369140625"><ele></ele><time>2016-7-29T5:20:47Z</time></trkpt>
<trkpt lat="46.59913192503154277801513671875" lon="7.09744499064981937408447265625"><ele></ele><time>2016-7-29T5:20:50Z</time></trkpt>
<trkpt lat="46.5993990562856197357177734375" lon="7.09729679860174655914306640625"><ele></ele><time>2016-7-29T5:20:53Z</time></trkpt>
<trkpt lat="46.59975419752299785614013671875" lon="7.09709613583981990814208984375"><ele></ele><time>2016-7-29T5:20:56Z</time></trkpt>
<trkpt lat="46.60010062158107757568359375" lon="7.0969042740762233734130859375"><ele></ele><time>2016-7-29T5:20:59Z</time></trkpt>
<trkpt lat="46.60038585774600505828857421875" lon="7.09674082696437835693359375"><ele></ele><time>2016-7-29T5:21:2Z</time></trkpt>
<trkpt lat="46.600693725049495697021484375" lon="7.0965780504047870635986328125"><ele></ele><time>2016-7-29T5:21:5Z</time></trkpt>
<trkpt lat="46.60101248882710933685302734375" lon="7.09640831686556339263916015625"><ele></ele><time>2016-7-29T5:21:8Z</time></trkpt>
<trkpt lat="46.6012424044311046600341796875" lon="7.09630019031465053558349609375"><ele></ele><time>2016-7-29T5:21:11Z</time></trkpt>
<trkpt lat="46.60150568000972270965576171875" lon="7.0962404273450374603271484375"><ele></ele><time>2016-7-29T5:21:14Z</time></trkpt>
<trkpt lat="46.601912789046764373779296875" lon="7.0961901359260082244873046875"><ele></ele><time>2016-7-29T5:21:17Z</time></trkpt>
<trkpt lat="46.60200708545744419097900390625" lon="7.0961421914398670196533203125"><ele></ele><time>2016-7-29T5:21:20Z</time></trkpt>
<trkpt lat="46.6021157987415790557861328125" lon="7.09602895192801952362060546875"><ele></ele><time>2016-7-29T5:21:23Z</time></trkpt>
<trkpt lat="46.60218712873756885528564453125" lon="7.0958059094846248626708984375"><ele></ele><time>2016-7-29T5:21:26Z</time></trkpt>
<trkpt lat="46.6022492386400699615478515625" lon="7.095497287809848785400390625"><ele></ele><time>2016-7-29T5:21:29Z</time></trkpt>
<trkpt lat="46.6022980213165283203125" lon="7.09524457342922687530517578125"><ele></ele><time>2016-7-29T5:21:32Z</time></trkpt>
<trkpt lat="46.60237337462604045867919921875" lon="7.0950166694819927215576171875"><ele></ele><time>2016-7-29T5:21:35Z</time></trkpt>
<trkpt lat="46.60246725194156169891357421875" lon="7.0948398113250732421875"><ele></ele><time>2016-7-29T5:21:38Z</time></trkpt>
<trkpt lat="46.60260756500065326690673828125" lon="7.0946827344596385955810546875"><ele></ele><time>2016-7-29T5:21:41Z</time></trkpt>
<trkpt lat="46.60277268849313259124755859375" lon="7.0945871807634830474853515625"><ele></ele><time>2016-7-29T5:21:44Z</time></trkpt>
<trkpt lat="46.60294485278427600860595703125" lon="7.09449288435280323028564453125"><ele></ele><time>2016-7-29T5:21:47Z</time></trkpt>
<trkpt lat="46.60305951721966266632080078125" lon="7.0944024436175823211669921875"><ele></ele><time>2016-7-29T5:21:50Z</time></trkpt>
<trkpt lat="46.603070162236690521240234375" lon="7.0943883620202541351318359375"><ele></ele><time>2016-7-29T5:21:53Z</time></trkpt>
<trkpt lat="46.603111065924167633056640625" lon="7.0942039601504802703857421875"><ele></ele><time>2016-7-29T5:21:56Z</time></trkpt>
<trkpt lat="46.60302716307342052459716796875" lon="7.0939769782125949859619140625"><ele></ele><time>2016-7-29T5:21:59Z</time></trkpt>
<trkpt lat="46.60284309647977352142333984375" lon="7.093629129230976104736328125"><ele></ele><time>2016-7-29T5:22:2Z</time></trkpt>
<trkpt lat="46.6026693396270275115966796875" lon="7.09333970211446285247802734375"><ele></ele><time>2016-7-29T5:22:5Z</time></trkpt>
<trkpt lat="46.60249507986009120941162109375" lon="7.093055807054042816162109375"><ele></ele><time>2016-7-29T5:22:8Z</time></trkpt>
<trkpt lat="46.602349318563938140869140625" lon="7.0928142406046390533447265625"><ele></ele><time>2016-7-29T5:22:11Z</time></trkpt>
<trkpt lat="46.6023330576717853546142578125" lon="7.0927919447422027587890625"><ele></ele><time>2016-7-29T5:22:14Z</time></trkpt>
<trkpt lat="46.602317802608013153076171875" lon="7.0927436649799346923828125"><ele></ele><time>2016-7-29T5:22:17Z</time></trkpt>
<trkpt lat="46.6023240052163600921630859375" lon="7.09273771382868289947509765625"><ele></ele><time>2016-7-29T5:22:20Z</time></trkpt>
<trkpt lat="46.6023565270006656646728515625" lon="7.0926804654300212860107421875"><ele></ele><time>2016-7-29T5:22:23Z</time></trkpt>
<trkpt lat="46.60242299549281597137451171875" lon="7.09254090674221515655517578125"><ele></ele><time>2016-7-29T5:22:26Z</time></trkpt>
<trkpt lat="46.60254168324172496795654296875" lon="7.0923388190567493438720703125"><ele></ele><time>2016-7-29T5:22:29Z</time></trkpt>
<trkpt lat="46.60267009399831295013427734375" lon="7.0922479592263698577880859375"><ele></ele><time>2016-7-29T5:22:32Z</time></trkpt>
<trkpt lat="46.6028232313692569732666015625" lon="7.0921638049185276031494140625"><ele></ele><time>2016-7-29T5:22:35Z</time></trkpt>
<trkpt lat="46.60296916030347347259521484375" lon="7.09203849546611309051513671875"><ele></ele><time>2016-7-29T5:22:38Z</time></trkpt>
<trkpt lat="46.6030669771134853363037109375" lon="7.09192567504942417144775390625"><ele></ele><time>2016-7-29T5:22:41Z</time></trkpt>
<trkpt lat="46.60317183472216129302978515625" lon="7.0917430333793163299560546875"><ele></ele><time>2016-7-29T5:22:44Z</time></trkpt>
<trkpt lat="46.60323369316756725311279296875" lon="7.09158830344676971435546875"><ele></ele><time>2016-7-29T5:22:47Z</time></trkpt>
<trkpt lat="46.6032453440129756927490234375" lon="7.0915448851883411407470703125"><ele></ele><time>2016-7-29T5:22:50Z</time></trkpt>
<trkpt lat="46.6032403148710727691650390625" lon="7.09153105504810810089111328125"><ele></ele><time>2016-7-29T5:22:53Z</time></trkpt>
<trkpt lat="46.6032252274453639984130859375" lon="7.09145645610988140106201171875"><ele></ele><time>2016-7-29T5:22:56Z</time></trkpt>
<trkpt lat="46.6032101400196552276611328125" lon="7.09137582220137119293212890625"><ele></ele><time>2016-7-29T5:22:59Z</time></trkpt>
<trkpt lat="46.6032051108777523040771484375" lon="7.09136291407048702239990234375"><ele></ele><time>2016-7-29T5:23:2Z</time></trkpt>
<trkpt lat="46.603206284344196319580078125" lon="7.0913581363856792449951171875"><ele></ele><time>2016-7-29T5:23:5Z</time></trkpt>
<trkpt lat="46.60319781862199306488037109375" lon="7.09131069481372833251953125"><ele></ele><time>2016-7-29T5:23:8Z</time></trkpt>
<trkpt lat="46.603153310716152191162109375" lon="7.0911626704037189483642578125"><ele></ele><time>2016-7-29T5:23:11Z</time></trkpt>
<trkpt lat="46.603093631565570831298828125" lon="7.090934850275516510009765625"><ele></ele><time>2016-7-29T5:23:14Z</time></trkpt>
<trkpt lat="46.603050716221332550048828125" lon="7.090746425092220306396484375"><ele></ele><time>2016-7-29T5:23:17Z</time></trkpt>
<trkpt lat="46.6030522249639034271240234375" lon="7.09064810536801815032958984375"><ele></ele><time>2016-7-29T5:23:20Z</time></trkpt>
<trkpt lat="46.603062450885772705078125" lon="7.09060334600508213043212890625"><ele></ele><time>2016-7-29T5:23:23Z</time></trkpt>
<trkpt lat="46.60311282612383365631103515625" lon="7.09049790166318416595458984375"><ele></ele><time>2016-7-29T5:23:26Z</time></trkpt>
<trkpt lat="46.6031853295862674713134765625" lon="7.0903838239610195159912109375"><ele></ele><time>2016-7-29T5:23:29Z</time></trkpt>
<trkpt lat="46.6032014228403568267822265625" lon="7.09035323001444339752197265625"><ele></ele><time>2016-7-29T5:23:32Z</time></trkpt>
<trkpt lat="46.603215672075748443603515625" lon="7.0902597717940807342529296875"><ele></ele><time>2016-7-29T5:23:35Z</time></trkpt>
<trkpt lat="46.60324978642165660858154296875" lon="7.0901370607316493988037109375"><ele></ele><time>2016-7-29T5:23:38Z</time></trkpt>
<trkpt lat="46.603266298770904541015625" lon="7.0899550057947635650634765625"><ele></ele><time>2016-7-29T5:23:41Z</time></trkpt>
<trkpt lat="46.60327903926372528076171875" lon="7.08984629251062870025634765625"><ele></ele><time>2016-7-29T5:23:44Z</time></trkpt>
<trkpt lat="46.60330745391547679901123046875" lon="7.0896971784532070159912109375"><ele></ele><time>2016-7-29T5:23:47Z</time></trkpt>
<trkpt lat="46.60335774533450603485107421875" lon="7.08958008326590061187744140625"><ele></ele><time>2016-7-29T5:23:50Z</time></trkpt>
<trkpt lat="46.603390686213970184326171875" lon="7.089477069675922393798828125"><ele></ele><time>2016-7-29T5:23:53Z</time></trkpt>
<trkpt lat="46.60339898429811000823974609375" lon="7.0894564501941204071044921875"><ele></ele><time>2016-7-29T5:23:56Z</time></trkpt>
<trkpt lat="46.60344257019460201263427734375" lon="7.08936500363051891326904296875"><ele></ele><time>2016-7-29T5:23:59Z</time></trkpt>
<trkpt lat="46.603479199111461639404296875" lon="7.089282609522342681884765625"><ele></ele><time>2016-7-29T5:24:2Z</time></trkpt>
<trkpt lat="46.60351532511413097381591796875" lon="7.089247740805149078369140625"><ele></ele><time>2016-7-29T5:24:5Z</time></trkpt>
<trkpt lat="46.6036453284323215484619140625" lon="7.0891295559704303741455078125"><ele></ele><time>2016-7-29T5:24:8Z</time></trkpt>
<trkpt lat="46.6036860644817352294921875" lon="7.08911522291600704193115234375"><ele></ele><time>2016-7-29T5:24:11Z</time></trkpt>
<trkpt lat="46.60370794124901294708251953125" lon="7.08912595175206661224365234375"><ele></ele><time>2016-7-29T5:24:14Z</time></trkpt>
<trkpt lat="46.60378522239625453948974609375" lon="7.0891226828098297119140625"><ele></ele><time>2016-7-29T5:24:17Z</time></trkpt>
<trkpt lat="46.6038139723241329193115234375" lon="7.08913232199847698211669921875"><ele></ele><time>2016-7-29T5:24:20Z</time></trkpt>
<trkpt lat="46.60392343997955322265625" lon="7.0891972817480564117431640625"><ele></ele><time>2016-7-29T5:24:23Z</time></trkpt>
<trkpt lat="46.60403131507337093353271484375" lon="7.0893131196498870849609375"><ele></ele><time>2016-7-29T5:24:26Z</time></trkpt>
<trkpt lat="46.60411446355283260345458984375" lon="7.089388556778430938720703125"><ele></ele><time>2016-7-29T5:24:29Z</time></trkpt>
<trkpt lat="46.60421236418187618255615234375" lon="7.08948067389428615570068359375"><ele></ele><time>2016-7-29T5:24:32Z</time></trkpt>
<trkpt lat="46.60423885099589824676513671875" lon="7.08948838524520397186279296875"><ele></ele><time>2016-7-29T5:24:35Z</time></trkpt>
<trkpt lat="46.60430406220257282257080078125" lon="7.089481763541698455810546875"><ele></ele><time>2016-7-29T5:24:38Z</time></trkpt>
<trkpt lat="46.60444001667201519012451171875" lon="7.08942920900881290435791015625"><ele></ele><time>2016-7-29T5:24:41Z</time></trkpt>
<trkpt lat="46.6045391745865345001220703125" lon="7.08934287540614604949951171875"><ele></ele><time>2016-7-29T5:24:44Z</time></trkpt>
<trkpt lat="46.60462022759020328521728515625" lon="7.08923240192234516143798828125"><ele></ele><time>2016-7-29T5:24:47Z</time></trkpt>
<trkpt lat="46.60475567914545536041259765625" lon="7.08911052905023097991943359375"><ele></ele><time>2016-7-29T5:24:50Z</time></trkpt>
<trkpt lat="46.60490554757416248321533203125" lon="7.08901606500148773193359375"><ele></ele><time>2016-7-29T5:24:53Z</time></trkpt>
<trkpt lat="46.605016104876995086669921875" lon="7.0889322459697723388671875"><ele></ele><time>2016-7-29T5:24:56Z</time></trkpt>
<trkpt lat="46.60519975237548351287841796875" lon="7.0887902565300464630126953125"><ele></ele><time>2016-7-29T5:24:59Z</time></trkpt>
<trkpt lat="46.6053626127541065216064453125" lon="7.08864055573940277099609375"><ele></ele><time>2016-7-29T5:25:2Z</time></trkpt>
<trkpt lat="46.6055171750485897064208984375" lon="7.08842824213206768035888671875"><ele></ele><time>2016-7-29T5:25:5Z</time></trkpt>
<trkpt lat="46.60558062605559825897216796875" lon="7.0883104763925075531005859375"><ele></ele><time>2016-7-29T5:25:8Z</time></trkpt>
<trkpt lat="46.6056757606565952301025390625" lon="7.088067568838596343994140625"><ele></ele><time>2016-7-29T5:25:11Z</time></trkpt>
<trkpt lat="46.6057106293737888336181640625" lon="7.08797561936080455780029296875"><ele></ele><time>2016-7-29T5:25:14Z</time></trkpt>
<trkpt lat="46.605728901922702789306640625" lon="7.08791107870638370513916015625"><ele></ele><time>2016-7-29T5:25:17Z</time></trkpt>
<trkpt lat="46.6057810373604297637939453125" lon="7.08772231824696063995361328125"><ele></ele><time>2016-7-29T5:25:20Z</time></trkpt>
<trkpt lat="46.6058175824582576751708984375" lon="7.087386958301067352294921875"><ele></ele><time>2016-7-29T5:25:23Z</time></trkpt>
<trkpt lat="46.6058809496462345123291015625" lon="7.08710767328739166259765625"><ele></ele><time>2016-7-29T5:25:26Z</time></trkpt>
<trkpt lat="46.605915986001491546630859375" lon="7.08686669357120990753173828125"><ele></ele><time>2016-7-29T5:25:29Z</time></trkpt>
<trkpt lat="46.6059775091707706451416015625" lon="7.08662764169275760650634765625"><ele></ele><time>2016-7-29T5:25:32Z</time></trkpt>
<trkpt lat="46.6060633398592472076416015625" lon="7.0864610932767391204833984375"><ele></ele><time>2016-7-29T5:25:35Z</time></trkpt>
<trkpt lat="46.60615973174571990966796875" lon="7.08630301058292388916015625"><ele></ele><time>2016-7-29T5:25:38Z</time></trkpt>
<trkpt lat="46.606243215501308441162109375" lon="7.086176611483097076416015625"><ele></ele><time>2016-7-29T5:25:41Z</time></trkpt>
<trkpt lat="46.60629694350063800811767578125" lon="7.08606974221765995025634765625"><ele></ele><time>2016-7-29T5:25:44Z</time></trkpt>
<trkpt lat="46.60632468760013580322265625" lon="7.08603839389979839324951171875"><ele></ele><time>2016-7-29T5:25:47Z</time></trkpt>
<trkpt lat="46.60643289797008037567138671875" lon="7.08590797148644924163818359375"><ele></ele><time>2016-7-29T5:25:50Z</time></trkpt>
<trkpt lat="46.60656717605888843536376953125" lon="7.08573010750114917755126953125"><ele></ele><time>2016-7-29T5:25:53Z</time></trkpt>
<trkpt lat="46.60668217577040195465087890625" lon="7.085534222424030303955078125"><ele></ele><time>2016-7-29T5:25:56Z</time></trkpt>
<trkpt lat="46.60674336366355419158935546875" lon="7.08534286357462406158447265625"><ele></ele><time>2016-7-29T5:25:59Z</time></trkpt>
<trkpt lat="46.6068056412041187286376953125" lon="7.085160054266452789306640625"><ele></ele><time>2016-7-29T5:26:2Z</time></trkpt>
<trkpt lat="46.60686188377439975738525390625" lon="7.08498227410018444061279296875"><ele></ele><time>2016-7-29T5:26:5Z</time></trkpt>
<trkpt lat="46.6068981774151325225830078125" lon="7.08478546701371669769287109375"><ele></ele><time>2016-7-29T5:26:8Z</time></trkpt>
<trkpt lat="46.6068871133029460906982421875" lon="7.0847206749022006988525390625"><ele></ele><time>2016-7-29T5:26:11Z</time></trkpt>
<trkpt lat="46.60688317380845546722412109375" lon="7.084720171988010406494140625"><ele></ele><time>2016-7-29T5:26:14Z</time></trkpt>
<trkpt lat="46.6068725287914276123046875" lon="7.08476099185645580291748046875"><ele></ele><time>2016-7-29T5:26:17Z</time></trkpt>
<trkpt lat="46.60687210969626903533935546875" lon="7.08492293022572994232177734375"><ele></ele><time>2016-7-29T5:26:20Z</time></trkpt>
<trkpt lat="46.60693413577973842620849609375" lon="7.0850764028728008270263671875"><ele></ele><time>2016-7-29T5:26:23Z</time></trkpt>
<trkpt lat="46.6070641390979290008544921875" lon="7.085165083408355712890625"><ele></ele><time>2016-7-29T5:26:26Z</time></trkpt>
<trkpt lat="46.6072183661162853240966796875" lon="7.08527010865509510040283203125"><ele></ele><time>2016-7-29T5:26:29Z</time></trkpt>
<trkpt lat="46.60723739303648471832275390625" lon="7.08528586663305759429931640625"><ele></ele><time>2016-7-29T5:26:32Z</time></trkpt>
<trkpt lat="46.60739547573029994964599609375" lon="7.08537773229181766510009765625"><ele></ele><time>2016-7-29T5:26:35Z</time></trkpt>
<trkpt lat="46.607518605887889862060546875" lon="7.0854807458817958831787109375"><ele></ele><time>2016-7-29T5:26:38Z</time></trkpt>
<trkpt lat="46.60764626227319240570068359375" lon="7.085575796663761138916015625"><ele></ele><time>2016-7-29T5:26:41Z</time></trkpt>
<trkpt lat="46.60778439603745937347412109375" lon="7.085680402815341949462890625"><ele></ele><time>2016-7-29T5:26:44Z</time></trkpt>
<trkpt lat="46.60798631608486175537109375" lon="7.0858182013034820556640625"><ele></ele><time>2016-7-29T5:26:47Z</time></trkpt>
<trkpt lat="46.608206927776336669921875" lon="7.085941918194293975830078125"><ele></ele><time>2016-7-29T5:26:50Z</time></trkpt>
<trkpt lat="46.60829016007483005523681640625" lon="7.085917107760906219482421875"><ele></ele><time>2016-7-29T5:26:53Z</time></trkpt>
<trkpt lat="46.608308516442775726318359375" lon="7.08590336143970489501953125"><ele></ele><time>2016-7-29T5:26:56Z</time></trkpt>
<trkpt lat="46.60843969322741031646728515625" lon="7.08576531149446964263916015625"><ele></ele><time>2016-7-29T5:26:59Z</time></trkpt>
<trkpt lat="46.60855938680469989776611328125" lon="7.0855768024921417236328125"><ele></ele><time>2016-7-29T5:27:2Z</time></trkpt>
<trkpt lat="46.60865996964275836944580078125" lon="7.08538527600467205047607421875"><ele></ele><time>2016-7-29T5:27:5Z</time></trkpt>
<trkpt lat="46.60879927687346935272216796875" lon="7.0851699449121952056884765625"><ele></ele><time>2016-7-29T5:27:8Z</time></trkpt>
<trkpt lat="46.60892508924007415771484375" lon="7.085115127265453338623046875"><ele></ele><time>2016-7-29T5:27:11Z</time></trkpt>
<trkpt lat="46.6089732013642787933349609375" lon="7.08508620969951152801513671875"><ele></ele><time>2016-7-29T5:27:14Z</time></trkpt>
<trkpt lat="46.60897395573556423187255859375" lon="7.0851062424480915069580078125"><ele></ele><time>2016-7-29T5:27:17Z</time></trkpt>
<trkpt lat="46.609085015952587127685546875" lon="7.08513868041336536407470703125"><ele></ele><time>2016-7-29T5:27:20Z</time></trkpt>
<trkpt lat="46.60922155715525150299072265625" lon="7.085137255489826202392578125"><ele></ele><time>2016-7-29T5:27:23Z</time></trkpt>
<trkpt lat="46.6093829087913036346435546875" lon="7.08512862212955951690673828125"><ele></ele><time>2016-7-29T5:27:26Z</time></trkpt>
<trkpt lat="46.60958633758127689361572265625" lon="7.085131891071796417236328125"><ele></ele><time>2016-7-29T5:27:29Z</time></trkpt>
<trkpt lat="46.6098419018089771270751953125" lon="7.08516265265643596649169921875"><ele></ele><time>2016-7-29T5:27:32Z</time></trkpt>
<trkpt lat="46.61006863228976726531982421875" lon="7.08517757244408130645751953125"><ele></ele><time>2016-7-29T5:27:35Z</time></trkpt>
<trkpt lat="46.61034666001796722412109375" lon="7.0852017961442470550537109375"><ele></ele><time>2016-7-29T5:27:38Z</time></trkpt>
<trkpt lat="46.6105664335191249847412109375" lon="7.08520674146711826324462890625"><ele></ele><time>2016-7-29T5:27:41Z</time></trkpt>
<trkpt lat="46.61081495694816112518310546875" lon="7.08514974452555179595947265625"><ele></ele><time>2016-7-29T5:27:44Z</time></trkpt>
<trkpt lat="46.61100036464631557464599609375" lon="7.08504362963140010833740234375"><ele></ele><time>2016-7-29T5:27:47Z</time></trkpt>
<trkpt lat="46.61115794442594051361083984375" lon="7.084929049015045166015625"><ele></ele><time>2016-7-29T5:27:50Z</time></trkpt>
<trkpt lat="46.6112825833261013031005859375" lon="7.0848209224641323089599609375"><ele></ele><time>2016-7-29T5:27:53Z</time></trkpt>
<trkpt lat="46.6114089824259281158447265625" lon="7.0847183279693126678466796875"><ele></ele><time>2016-7-29T5:27:56Z</time></trkpt>
<trkpt lat="46.61152138374745845794677734375" lon="7.08458832465112209320068359375"><ele></ele><time>2016-7-29T5:27:59Z</time></trkpt>
<trkpt lat="46.61163822747766971588134765625" lon="7.08448137156665325164794921875"><ele></ele><time>2016-7-29T5:28:2Z</time></trkpt>
<trkpt lat="46.61175322718918323516845703125" lon="7.08437182009220123291015625"><ele></ele><time>2016-7-29T5:28:5Z</time></trkpt>
<trkpt lat="46.611886918544769287109375" lon="7.08420879207551479339599609375"><ele></ele><time>2016-7-29T5:28:8Z</time></trkpt>
<trkpt lat="46.6120530478656291961669921875" lon="7.0840454287827014923095703125"><ele></ele><time>2016-7-29T5:28:11Z</time></trkpt>
<trkpt lat="46.6121858172118663787841796875" lon="7.083917520940303802490234375"><ele></ele><time>2016-7-29T5:28:14Z</time></trkpt>
<trkpt lat="46.61221657879650592803955078125" lon="7.0837534032762050628662109375"><ele></ele><time>2016-7-29T5:28:17Z</time></trkpt>
<trkpt lat="46.61211934871971607208251953125" lon="7.08355265669524669647216796875"><ele></ele><time>2016-7-29T5:28:20Z</time></trkpt>
<trkpt lat="46.61198222078382968902587890625" lon="7.0832209847867488861083984375"><ele></ele><time>2016-7-29T5:28:23Z</time></trkpt>
<trkpt lat="46.61196042783558368682861328125" lon="7.0830499939620494842529296875"><ele></ele><time>2016-7-29T5:28:26Z</time></trkpt>
<trkpt lat="46.611963696777820587158203125" lon="7.08295787684619426727294921875"><ele></ele><time>2016-7-29T5:28:29Z</time></trkpt>
<trkpt lat="46.611974425613880157470703125" lon="7.08289124071598052978515625"><ele></ele><time>2016-7-29T5:28:32Z</time></trkpt>
<trkpt lat="46.6120439954102039337158203125" lon="7.0827019773423671722412109375"><ele></ele><time>2016-7-29T5:28:35Z</time></trkpt>
<trkpt lat="46.6121429018676280975341796875" lon="7.0824377797544002532958984375"><ele></ele><time>2016-7-29T5:28:38Z</time></trkpt>
<trkpt lat="46.61221481859683990478515625" lon="7.082294784486293792724609375"><ele></ele><time>2016-7-29T5:28:41Z</time></trkpt>
<trkpt lat="46.6123303212225437164306640625" lon="7.08215204067528247833251953125"><ele></ele><time>2016-7-29T5:28:44Z</time></trkpt>
<trkpt lat="46.61240165121853351593017578125" lon="7.08218154497444629669189453125"><ele></ele><time>2016-7-29T5:28:47Z</time></trkpt>
<trkpt lat="46.61266149021685123443603515625" lon="7.0822879113256931304931640625"><ele></ele><time>2016-7-29T5:28:50Z</time></trkpt>
<trkpt lat="46.61273784935474395751953125" lon="7.08229084499180316925048828125"><ele></ele><time>2016-7-29T5:28:53Z</time></trkpt>
<trkpt lat="46.612871624529361724853515625" lon="7.0822456665337085723876953125"><ele></ele><time>2016-7-29T5:28:56Z</time></trkpt>
<trkpt lat="46.61300397478044033050537109375" lon="7.08219730295240879058837890625"><ele></ele><time>2016-7-29T5:28:59Z</time></trkpt>
<trkpt lat="46.6130649112164974212646484375" lon="7.08210409618914127349853515625"><ele></ele><time>2016-7-29T5:29:2Z</time></trkpt>
<trkpt lat="46.61308025009930133819580078125" lon="7.08190259523689746856689453125"><ele></ele><time>2016-7-29T5:29:5Z</time></trkpt>
<trkpt lat="46.61295971833169460296630859375" lon="7.081602104008197784423828125"><ele></ele><time>2016-7-29T5:29:8Z</time></trkpt>
<trkpt lat="46.61275067366659641265869140625" lon="7.081111259758472442626953125"><ele></ele><time>2016-7-29T5:29:11Z</time></trkpt>
<trkpt lat="46.61251447163522243499755859375" lon="7.080865167081356048583984375"><ele></ele><time>2016-7-29T5:29:14Z</time></trkpt>
<trkpt lat="46.612364351749420166015625" lon="7.08080272190272808074951171875"><ele></ele><time>2016-7-29T5:29:17Z</time></trkpt>
<trkpt lat="46.6122937761247158050537109375" lon="7.0807667635381221771240234375"><ele></ele><time>2016-7-29T5:29:20Z</time></trkpt>
<trkpt lat="46.61221875809133052825927734375" lon="7.0806951820850372314453125"><ele></ele><time>2016-7-29T5:29:23Z</time></trkpt>
<trkpt lat="46.612058579921722412109375" lon="7.0803815312683582305908203125"><ele></ele><time>2016-7-29T5:29:26Z</time></trkpt>
<trkpt lat="46.6120513714849948883056640625" lon="7.08027835004031658172607421875"><ele></ele><time>2016-7-29T5:29:29Z</time></trkpt>
<trkpt lat="46.612056903541088104248046875" lon="7.08019671030342578887939453125"><ele></ele><time>2016-7-29T5:29:32Z</time></trkpt>
<trkpt lat="46.61200552247464656829833984375" lon="7.08004667423665523529052734375"><ele></ele><time>2016-7-29T5:29:35Z</time></trkpt>
<trkpt lat="46.6119916923344135284423828125" lon="7.08001582883298397064208984375"><ele></ele><time>2016-7-29T5:29:38Z</time></trkpt>
<trkpt lat="46.6119947098195552825927734375" lon="7.07997542805969715118408203125"><ele></ele><time>2016-7-29T5:29:41Z</time></trkpt>
<trkpt lat="46.61201759241521358489990234375" lon="7.0798782818019390106201171875"><ele></ele><time>2016-7-29T5:29:44Z</time></trkpt>
<trkpt lat="46.61204039119184017181396484375" lon="7.079853974282741546630859375"><ele></ele><time>2016-7-29T5:29:47Z</time></trkpt>
<trkpt lat="46.6120399720966815948486328125" lon="7.0798529684543609619140625"><ele></ele><time>2016-7-29T5:29:50Z</time></trkpt>
<trkpt lat="46.61200049333274364471435546875" lon="7.07980661652982234954833984375"><ele></ele><time>2016-7-29T5:29:53Z</time></trkpt>
<trkpt lat="46.61191633902490139007568359375" lon="7.079654149711132049560546875"><ele></ele><time>2016-7-29T5:29:56Z</time></trkpt>
<trkpt lat="46.611869819462299346923828125" lon="7.07952448166906833648681640625"><ele></ele><time>2016-7-29T5:29:59Z</time></trkpt>
<trkpt lat="46.61184224300086498260498046875" lon="7.079412080347537994384765625"><ele></ele><time>2016-7-29T5:30:2Z</time></trkpt>
<trkpt lat="46.61184978671371936798095703125" lon="7.07936237566173076629638671875"><ele></ele><time>2016-7-29T5:30:5Z</time></trkpt>
<trkpt lat="46.61185984499752521514892578125" lon="7.07934980280697345733642578125"><ele></ele><time>2016-7-29T5:30:8Z</time></trkpt>
<trkpt lat="46.61190393380820751190185546875" lon="7.07925894297659397125244140625"><ele></ele><time>2016-7-29T5:30:11Z</time></trkpt>
<trkpt lat="46.61195791326463222503662109375" lon="7.07911628298461437225341796875"><ele></ele><time>2016-7-29T5:30:14Z</time></trkpt>
<trkpt lat="46.6120802052319049835205078125" lon="7.0789981819689273834228515625"><ele></ele><time>2016-7-29T5:30:17Z</time></trkpt>
<trkpt lat="46.6121777705848217010498046875" lon="7.07892802543938159942626953125"><ele></ele><time>2016-7-29T5:30:20Z</time></trkpt>
<trkpt lat="46.612307690083980560302734375" lon="7.0788593776524066925048828125"><ele></ele><time>2016-7-29T5:30:23Z</time></trkpt>
<trkpt lat="46.61242000758647918701171875" lon="7.07880564965307712554931640625"><ele></ele><time>2016-7-29T5:30:26Z</time></trkpt>
<trkpt lat="46.61254464648663997650146484375" lon="7.078742198646068572998046875"><ele></ele><time>2016-7-29T5:30:29Z</time></trkpt>
<trkpt lat="46.61266802810132503509521484375" lon="7.0785963535308837890625"><ele></ele><time>2016-7-29T5:30:32Z</time></trkpt>
<trkpt lat="46.6127168945968151092529296875" lon="7.07841572351753711700439453125"><ele></ele><time>2016-7-29T5:30:35Z</time></trkpt>
<trkpt lat="46.6127259470522403717041015625" lon="7.07822193391621112823486328125"><ele></ele><time>2016-7-29T5:30:38Z</time></trkpt>
<trkpt lat="46.61269552074372768402099609375" lon="7.07805664278566837310791015625"><ele></ele><time>2016-7-29T5:30:41Z</time></trkpt>
<trkpt lat="46.61267925985157489776611328125" lon="7.07794851623475551605224609375"><ele></ele><time>2016-7-29T5:30:44Z</time></trkpt>
<trkpt lat="46.6126756556332111358642578125" lon="7.0779030025005340576171875"><ele></ele><time>2016-7-29T5:30:47Z</time></trkpt>
<trkpt lat="46.61267691291868686676025390625" lon="7.0777177624404430389404296875"><ele></ele><time>2016-7-29T5:30:50Z</time></trkpt>
<trkpt lat="46.6127122007310390472412109375" lon="7.0775752700865268707275390625"><ele></ele><time>2016-7-29T5:30:53Z</time></trkpt>
<trkpt lat="46.61277531646192073822021484375" lon="7.077413834631443023681640625"><ele></ele><time>2016-7-29T5:30:56Z</time></trkpt>
<trkpt lat="46.61279375664889812469482421875" lon="7.07739732228219509124755859375"><ele></ele><time>2016-7-29T5:30:59Z</time></trkpt>
<trkpt lat="46.612847149372100830078125" lon="7.07729841582477092742919921875"><ele></ele><time>2016-7-29T5:31:2Z</time></trkpt>
<trkpt lat="46.61290758289396762847900390625" lon="7.07716346718370914459228515625"><ele></ele><time>2016-7-29T5:31:5Z</time></trkpt>
<trkpt lat="46.61292769946157932281494140625" lon="7.07701762206852436065673828125"><ele></ele><time>2016-7-29T5:31:8Z</time></trkpt>
<trkpt lat="46.61287405528128147125244140625" lon="7.07687797956168651580810546875"><ele></ele><time>2016-7-29T5:31:11Z</time></trkpt>
<trkpt lat="46.61279576830565929412841796875" lon="7.07675191573798656463623046875"><ele></ele><time>2016-7-29T5:31:14Z</time></trkpt>
<trkpt lat="46.6127024777233600616455078125" lon="7.076593078672885894775390625"><ele></ele><time>2016-7-29T5:31:17Z</time></trkpt>
<trkpt lat="46.61265646107494831085205078125" lon="7.0764547772705554962158203125"><ele></ele><time>2016-7-29T5:31:20Z</time></trkpt>
<trkpt lat="46.612632907927036285400390625" lon="7.07632410340011119842529296875"><ele></ele><time>2016-7-29T5:31:23Z</time></trkpt>
<trkpt lat="46.61264858208596706390380859375" lon="7.07620189525187015533447265625"><ele></ele><time>2016-7-29T5:31:26Z</time></trkpt>
<trkpt lat="46.6126870550215244293212890625" lon="7.07608111202716827392578125"><ele></ele><time>2016-7-29T5:31:29Z</time></trkpt>
<trkpt lat="46.61272452212870121002197265625" lon="7.0759999752044677734375"><ele></ele><time>2016-7-29T5:31:32Z</time></trkpt>
<trkpt lat="46.6127430461347103118896484375" lon="7.07594557665288448333740234375"><ele></ele><time>2016-7-29T5:31:35Z</time></trkpt>
<trkpt lat="46.61280130036175251007080078125" lon="7.07581247203052043914794921875"><ele></ele><time>2016-7-29T5:31:38Z</time></trkpt>
<trkpt lat="46.61280758678913116455078125" lon="7.07577676512300968170166015625"><ele></ele><time>2016-7-29T5:31:41Z</time></trkpt>
<trkpt lat="46.61283030174672603607177734375" lon="7.07568674348294734954833984375"><ele></ele><time>2016-7-29T5:31:44Z</time></trkpt>
<trkpt lat="46.612875647842884063720703125" lon="7.075542993843555450439453125"><ele></ele><time>2016-7-29T5:31:47Z</time></trkpt>
<trkpt lat="46.612940020859241485595703125" lon="7.0754134096205234527587890625"><ele></ele><time>2016-7-29T5:31:50Z</time></trkpt>
<trkpt lat="46.61298352293670177459716796875" lon="7.07529564388096332550048828125"><ele></ele><time>2016-7-29T5:31:53Z</time></trkpt>
<trkpt lat="46.6129881329834461212158203125" lon="7.07527988590300083160400390625"><ele></ele><time>2016-7-29T5:31:56Z</time></trkpt>
<trkpt lat="46.6130538471043109893798828125" lon="7.07516304217278957366943359375"><ele></ele><time>2016-7-29T5:31:59Z</time></trkpt>
<trkpt lat="46.61311193369328975677490234375" lon="7.07500881515443325042724609375"><ele></ele><time>2016-7-29T5:32:2Z</time></trkpt>
<trkpt lat="46.613146550953388214111328125" lon="7.07481519319117069244384765625"><ele></ele><time>2016-7-29T5:32:5Z</time></trkpt>
<trkpt lat="46.6132105886936187744140625" lon="7.07467085681855678558349609375"><ele></ele><time>2016-7-29T5:32:8Z</time></trkpt>
<trkpt lat="46.61321603693068027496337890625" lon="7.07464478909969329833984375"><ele></ele><time>2016-7-29T5:32:11Z</time></trkpt>
<trkpt lat="46.613239757716655731201171875" lon="7.0745587907731533050537109375"><ele></ele><time>2016-7-29T5:32:14Z</time></trkpt>
<trkpt lat="46.6132583655416965484619140625" lon="7.074515037238597869873046875"><ele></ele><time>2016-7-29T5:32:17Z</time></trkpt>
<trkpt lat="46.61330723203718662261962890625" lon="7.07443867810070514678955078125"><ele></ele><time>2016-7-29T5:32:20Z</time></trkpt>
<trkpt lat="46.6133911348879337310791015625" lon="7.07428948022425174713134765625"><ele></ele><time>2016-7-29T5:32:23Z</time></trkpt>
<trkpt lat="46.61347671411931514739990234375" lon="7.0741184055805206298828125"><ele></ele><time>2016-7-29T5:32:26Z</time></trkpt>
<trkpt lat="46.6135386563837528228759765625" lon="7.07400650717318058013916015625"><ele></ele><time>2016-7-29T5:32:29Z</time></trkpt>
<trkpt lat="46.6135577671229839324951171875" lon="7.07397599704563617706298828125"><ele></ele><time>2016-7-29T5:32:32Z</time></trkpt>
<trkpt lat="46.61358886398375034332275390625" lon="7.07391195930540561676025390625"><ele></ele><time>2016-7-29T5:32:35Z</time></trkpt>
<trkpt lat="46.61361224949359893798828125" lon="7.07385982386767864227294921875"><ele></ele><time>2016-7-29T5:32:38Z</time></trkpt>
<trkpt lat="46.61367553286254405975341796875" lon="7.07371079362928867340087890625"><ele></ele><time>2016-7-29T5:32:41Z</time></trkpt>
<trkpt lat="46.61372817121446132659912109375" lon="7.07353862933814525604248046875"><ele></ele><time>2016-7-29T5:32:44Z</time></trkpt>
<trkpt lat="46.6137921251356601715087890625" lon="7.07340703345835208892822265625"><ele></ele><time>2016-7-29T5:32:47Z</time></trkpt>
<trkpt lat="46.61386278457939624786376953125" lon="7.0732542313635349273681640625"><ele></ele><time>2016-7-29T5:32:50Z</time></trkpt>
<trkpt lat="46.61393771879374980926513671875" lon="7.07310310564935207366943359375"><ele></ele><time>2016-7-29T5:32:53Z</time></trkpt>
<trkpt lat="46.61400879733264446258544921875" lon="7.072993218898773193359375"><ele></ele><time>2016-7-29T5:32:56Z</time></trkpt>
<trkpt lat="46.6140583343803882598876953125" lon="7.07292205654084682464599609375"><ele></ele><time>2016-7-29T5:32:59Z</time></trkpt>
<trkpt lat="46.61407769657671451568603515625" lon="7.0729115791618824005126953125"><ele></ele><time>2016-7-29T5:33:2Z</time></trkpt>
<trkpt lat="46.61409881897270679473876953125" lon="7.07281376235187053680419921875"><ele></ele><time>2016-7-29T5:33:5Z</time></trkpt>
<trkpt lat="46.61412932910025119781494140625" lon="7.07284075208008289337158203125"><ele></ele><time>2016-7-29T5:33:8Z</time></trkpt>
<trkpt lat="46.6141274012625217437744140625" lon="7.0727826654911041259765625"><ele></ele><time>2016-7-29T5:33:11Z</time></trkpt>
<trkpt lat="46.6142162494361400604248046875" lon="7.0727147720754146575927734375"><ele></ele><time>2016-7-29T5:33:14Z</time></trkpt>
<trkpt lat="46.614320687949657440185546875" lon="7.0726631395518779754638671875"><ele></ele><time>2016-7-29T5:33:17Z</time></trkpt>
<trkpt lat="46.6144667007029056549072265625" lon="7.07271519117057323455810546875"><ele></ele><time>2016-7-29T5:33:20Z</time></trkpt>
<trkpt lat="46.61458698101341724395751953125" lon="7.0727979205548763275146484375"><ele></ele><time>2016-7-29T5:33:23Z</time></trkpt>
<trkpt lat="46.61474891938269138336181640625" lon="7.07291870377957820892333984375"><ele></ele><time>2016-7-29T5:33:26Z</time></trkpt>
<trkpt lat="46.61487800069153308868408203125" lon="7.072925828397274017333984375"><ele></ele><time>2016-7-29T5:33:29Z</time></trkpt>
<trkpt lat="46.61500540561974048614501953125" lon="7.072880901396274566650390625"><ele></ele><time>2016-7-29T5:33:32Z</time></trkpt>
<trkpt lat="46.61514571867883205413818359375" lon="7.07287260331213474273681640625"><ele></ele><time>2016-7-29T5:33:35Z</time></trkpt>
<trkpt lat="46.6153742931783199310302734375" lon="7.07289389334619045257568359375"><ele></ele><time>2016-7-29T5:33:38Z</time></trkpt>
<trkpt lat="46.61550027318298816680908203125" lon="7.072858773171901702880859375"><ele></ele><time>2016-7-29T5:33:41Z</time></trkpt>
<trkpt lat="46.61562390625476837158203125" lon="7.07272508181631565093994140625"><ele></ele><time>2016-7-29T5:33:44Z</time></trkpt>
<trkpt lat="46.61567620933055877685546875" lon="7.07264377735555171966552734375"><ele></ele><time>2016-7-29T5:33:47Z</time></trkpt>
<trkpt lat="46.615673191845417022705078125" lon="7.07262064330279827117919921875"><ele></ele><time>2016-7-29T5:33:50Z</time></trkpt>
<trkpt lat="46.61561761982738971710205078125" lon="7.07241050899028778076171875"><ele></ele><time>2016-7-29T5:33:53Z</time></trkpt>
<trkpt lat="46.615520976483821868896484375" lon="7.072154693305492401123046875"><ele></ele><time>2016-7-29T5:33:56Z</time></trkpt>
<trkpt lat="46.61549373529851436614990234375" lon="7.0720784179866313934326171875"><ele></ele><time>2016-7-29T5:33:59Z</time></trkpt>
<trkpt lat="46.61539667285978794097900390625" lon="7.07181413657963275909423828125"><ele></ele><time>2016-7-29T5:34:2Z</time></trkpt>
<trkpt lat="46.6153644025325775146484375" lon="7.07153250463306903839111328125"><ele></ele><time>2016-7-29T5:34:5Z</time></trkpt>
<trkpt lat="46.61535342223942279815673828125" lon="7.071383893489837646484375"><ele></ele><time>2016-7-29T5:34:8Z</time></trkpt>
<trkpt lat="46.6153528355062007904052734375" lon="7.071298062801361083984375"><ele></ele><time>2016-7-29T5:34:11Z</time></trkpt>
<trkpt lat="46.61533867008984088897705078125" lon="7.07122899591922760009765625"><ele></ele><time>2016-7-29T5:34:14Z</time></trkpt>
<trkpt lat="46.6153161227703094482421875" lon="7.0711242221295833587646484375"><ele></ele><time>2016-7-29T5:34:17Z</time></trkpt>
<trkpt lat="46.6152562759816646575927734375" lon="7.070937640964984893798828125"><ele></ele><time>2016-7-29T5:34:20Z</time></trkpt>
<trkpt lat="46.615156196057796478271484375" lon="7.07072046585381031036376953125"><ele></ele><time>2016-7-29T5:34:23Z</time></trkpt>
<trkpt lat="46.615052260458469390869140625" lon="7.07049549557268619537353515625"><ele></ele><time>2016-7-29T5:34:26Z</time></trkpt>
<trkpt lat="46.61497824825346469879150390625" lon="7.07032534293830394744873046875"><ele></ele><time>2016-7-29T5:34:29Z</time></trkpt>
<trkpt lat="46.61490415222942829132080078125" lon="7.070106156170368194580078125"><ele></ele><time>2016-7-29T5:34:32Z</time></trkpt>
<trkpt lat="46.6148318164050579071044921875" lon="7.06982594914734363555908203125"><ele></ele><time>2016-7-29T5:34:35Z</time></trkpt>
<trkpt lat="46.61476853303611278533935546875" lon="7.06959628500044345855712890625"><ele></ele><time>2016-7-29T5:34:38Z</time></trkpt>
<trkpt lat="46.61471321247518062591552734375" lon="7.06943904049694538116455078125"><ele></ele><time>2016-7-29T5:34:41Z</time></trkpt>
<trkpt lat="46.614648588001728057861328125" lon="7.06921868026256561279296875"><ele></ele><time>2016-7-29T5:34:44Z</time></trkpt>
<trkpt lat="46.6145521961152553558349609375" lon="7.0688795484602451324462890625"><ele></ele><time>2016-7-29T5:34:47Z</time></trkpt>
<trkpt lat="46.61453149281442165374755859375" lon="7.068594396114349365234375"><ele></ele><time>2016-7-29T5:34:50Z</time></trkpt>
<trkpt lat="46.61453249864280223846435546875" lon="7.06840597093105316162109375"><ele></ele><time>2016-7-29T5:34:53Z</time></trkpt>
<trkpt lat="46.6145350970327854156494140625" lon="7.068245708942413330078125"><ele></ele><time>2016-7-29T5:34:56Z</time></trkpt>
<trkpt lat="46.61454565823078155517578125" lon="7.06801436841487884521484375"><ele></ele><time>2016-7-29T5:34:59Z</time></trkpt>
<trkpt lat="46.61455697380006313323974609375" lon="7.06798084080219268798828125"><ele></ele><time>2016-7-29T5:35:2Z</time></trkpt>
<trkpt lat="46.61457088775932788848876953125" lon="7.06791621632874011993408203125"><ele></ele><time>2016-7-29T5:35:5Z</time></trkpt>
<trkpt lat="46.6146128810942173004150390625" lon="7.0678368397057056427001953125"><ele></ele><time>2016-7-29T5:35:8Z</time></trkpt>
<trkpt lat="46.6147275455296039581298828125" lon="7.06785880029201507568359375"><ele></ele><time>2016-7-29T5:35:11Z</time></trkpt>
<trkpt lat="46.6148680262267589569091796875" lon="7.0679280348122119903564453125"><ele></ele><time>2016-7-29T5:35:14Z</time></trkpt>
<trkpt lat="46.6150440461933612823486328125" lon="7.06801730208098888397216796875"><ele></ele><time>2016-7-29T5:35:17Z</time></trkpt>
<trkpt lat="46.61522652022540569305419921875" lon="7.0680592954158782958984375"><ele></ele><time>2016-7-29T5:35:20Z</time></trkpt>
<trkpt lat="46.61537052132189273834228515625" lon="7.0680762268602848052978515625"><ele></ele><time>2016-7-29T5:35:23Z</time></trkpt>
<trkpt lat="46.61557503975927829742431640625" lon="7.06810933537781238555908203125"><ele></ele><time>2016-7-29T5:35:26Z</time></trkpt>
<trkpt lat="46.6158349625766277313232421875" lon="7.0682338066399097442626953125"><ele></ele><time>2016-7-29T5:35:29Z</time></trkpt>
<trkpt lat="46.6159955598413944244384765625" lon="7.06841007806360721588134765625"><ele></ele><time>2016-7-29T5:35:32Z</time></trkpt>
<trkpt lat="46.6161809675395488739013671875" lon="7.06865700893104076385498046875"><ele></ele><time>2016-7-29T5:35:35Z</time></trkpt>
<trkpt lat="46.616413481533527374267578125" lon="7.0688906125724315643310546875"><ele></ele><time>2016-7-29T5:35:38Z</time></trkpt>
<trkpt lat="46.61660601384937763214111328125" lon="7.06898742355406284332275390625"><ele></ele><time>2016-7-29T5:35:41Z</time></trkpt>
<trkpt lat="46.616801060736179351806640625" lon="7.06906805746257305145263671875"><ele></ele><time>2016-7-29T5:35:44Z</time></trkpt>
<trkpt lat="46.6169951856136322021484375" lon="7.06922681070864200592041015625"><ele></ele><time>2016-7-29T5:35:47Z</time></trkpt>
<trkpt lat="46.617054529488086700439453125" lon="7.069423198699951171875"><ele></ele><time>2016-7-29T5:35:50Z</time></trkpt>
<trkpt lat="46.61710423417389392852783203125" lon="7.069766521453857421875"><ele></ele><time>2016-7-29T5:35:53Z</time></trkpt>
<trkpt lat="46.61712803877890110015869140625" lon="7.07006223499774932861328125"><ele></ele><time>2016-7-29T5:35:56Z</time></trkpt>
<trkpt lat="46.61717631854116916656494140625" lon="7.07038384862244129180908203125"><ele></ele><time>2016-7-29T5:35:59Z</time></trkpt>
<trkpt lat="46.6172380931675434112548828125" lon="7.0707138441503047943115234375"><ele></ele><time>2016-7-29T5:36:2Z</time></trkpt>
<trkpt lat="46.61737941205501556396484375" lon="7.0709881000220775604248046875"><ele></ele><time>2016-7-29T5:36:5Z</time></trkpt>
<trkpt lat="46.617532633244991302490234375" lon="7.07119639031589031219482421875"><ele></ele><time>2016-7-29T5:36:8Z</time></trkpt>
<trkpt lat="46.61767856217920780181884765625" lon="7.07132211886346340179443359375"><ele></ele><time>2016-7-29T5:36:11Z</time></trkpt>
<trkpt lat="46.61778283305466175079345703125" lon="7.07138565368950366973876953125"><ele></ele><time>2016-7-29T5:36:14Z</time></trkpt>
<trkpt lat="46.617898084223270416259765625" lon="7.07141716964542865753173828125"><ele></ele><time>2016-7-29T5:36:17Z</time></trkpt>
<trkpt lat="46.61791560240089893341064453125" lon="7.07141146995127201080322265625"><ele></ele><time>2016-7-29T5:36:20Z</time></trkpt>
<trkpt lat="46.61795047111809253692626953125" lon="7.0713719911873340606689453125"><ele></ele><time>2016-7-29T5:36:23Z</time></trkpt>
<trkpt lat="46.6180278360843658447265625" lon="7.071256823837757110595703125"><ele></ele><time>2016-7-29T5:36:26Z</time></trkpt>
<trkpt lat="46.61805759184062480926513671875" lon="7.07123712636530399322509765625"><ele></ele><time>2016-7-29T5:36:29Z</time></trkpt>
<trkpt lat="46.6181775368750095367431640625" lon="7.0711706578731536865234375"><ele></ele><time>2016-7-29T5:36:32Z</time></trkpt>
<trkpt lat="46.618344672024250030517578125" lon="7.0710021816194057464599609375"><ele></ele><time>2016-7-29T5:36:35Z</time></trkpt>
<trkpt lat="46.61859135143458843231201171875" lon="7.0707441866397857666015625"><ele></ele><time>2016-7-29T5:36:38Z</time></trkpt>
<trkpt lat="46.61864482797682285308837890625" lon="7.07069230265915393829345703125"><ele></ele><time>2016-7-29T5:36:41Z</time></trkpt>
<trkpt lat="46.61897859536111354827880859375" lon="7.070407904684543609619140625"><ele></ele><time>2016-7-29T5:36:44Z</time></trkpt>
<trkpt lat="46.61902201361954212188720703125" lon="7.07036742009222507476806640625"><ele></ele><time>2016-7-29T5:36:47Z</time></trkpt>
<trkpt lat="46.6192665137350559234619140625" lon="7.07016189582645893096923828125"><ele></ele><time>2016-7-29T5:36:50Z</time></trkpt>
<trkpt lat="46.6193060763180255889892578125" lon="7.070145048201084136962890625"><ele></ele><time>2016-7-29T5:36:53Z</time></trkpt>
<trkpt lat="46.61949877627193927764892578125" lon="7.0700858719646930694580078125"><ele></ele><time>2016-7-29T5:36:56Z</time></trkpt>
<trkpt lat="46.61961159668862819671630859375" lon="7.07002979703247547149658203125"><ele></ele><time>2016-7-29T5:36:59Z</time></trkpt>
<trkpt lat="46.6197524964809417724609375" lon="7.06998939625918865203857421875"><ele></ele><time>2016-7-29T5:37:2Z</time></trkpt>
<trkpt lat="46.619982160627841949462890625" lon="7.0698997937142848968505859375"><ele></ele><time>2016-7-29T5:37:5Z</time></trkpt>
<trkpt lat="46.62024107761681079864501953125" lon="7.06979627721011638641357421875"><ele></ele><time>2016-7-29T5:37:8Z</time></trkpt>
<trkpt lat="46.62047124467790126800537109375" lon="7.0697080157697200775146484375"><ele></ele><time>2016-7-29T5:37:11Z</time></trkpt>
<trkpt lat="46.62055917084217071533203125" lon="7.06968043930828571319580078125"><ele></ele><time>2016-7-29T5:37:14Z</time></trkpt>
<trkpt lat="46.62069269455969333648681640625" lon="7.06958052702248096466064453125"><ele></ele><time>2016-7-29T5:37:17Z</time></trkpt>
<trkpt lat="46.62089587189257144927978515625" lon="7.0694931037724018096923828125"><ele></ele><time>2016-7-29T5:37:20Z</time></trkpt>
<trkpt lat="46.62084893323481082916259765625" lon="7.06945898942649364471435546875"><ele></ele><time>2016-7-29T5:37:23Z</time></trkpt>
<trkpt lat="46.6208128072321414947509765625" lon="7.0694996416568756103515625"><ele></ele><time>2016-7-29T5:37:26Z</time></trkpt>
<trkpt lat="46.620760001242160797119140625" lon="7.0695323310792446136474609375"><ele></ele><time>2016-7-29T5:37:29Z</time></trkpt>
<trkpt lat="46.62055204622447490692138671875" lon="7.06963819451630115509033203125"><ele></ele><time>2016-7-29T5:37:32Z</time></trkpt>
<trkpt lat="46.62052907980978488922119140625" lon="7.069628052413463592529296875"><ele></ele><time>2016-7-29T5:37:35Z</time></trkpt>
<trkpt lat="46.6204627789556980133056640625" lon="7.0695122145116329193115234375"><ele></ele><time>2016-7-29T5:37:38Z</time></trkpt>
<trkpt lat="46.62041894160211086273193359375" lon="7.06938120536506175994873046875"><ele></ele><time>2016-7-29T5:37:41Z</time></trkpt>
<trkpt lat="46.62037217058241367340087890625" lon="7.06922178156673908233642578125"><ele></ele><time>2016-7-29T5:37:44Z</time></trkpt>
<trkpt lat="46.620342247188091278076171875" lon="7.06906034611165523529052734375"><ele></ele><time>2016-7-29T5:37:47Z</time></trkpt>
<trkpt lat="46.62037678062915802001953125" lon="7.0689471065998077392578125"><ele></ele><time>2016-7-29T5:37:50Z</time></trkpt>
<trkpt lat="46.62051047198474407196044921875" lon="7.0688580907881259918212890625"><ele></ele><time>2016-7-29T5:37:53Z</time></trkpt>
<trkpt lat="46.620566546916961669921875" lon="7.06883244216442108154296875"><ele></ele><time>2016-7-29T5:37:56Z</time></trkpt>
<trkpt lat="46.6207765974104404449462890625" lon="7.068693302571773529052734375"><ele></ele><time>2016-7-29T5:37:59Z</time></trkpt>
<trkpt lat="46.62101338617503643035888671875" lon="7.06857168115675449371337890625"><ele></ele><time>2016-7-29T5:38:2Z</time></trkpt>
<trkpt lat="46.6213054955005645751953125" lon="7.06840337254106998443603515625"><ele></ele><time>2016-7-29T5:38:5Z</time></trkpt>
<trkpt lat="46.62135335616767406463623046875" lon="7.06838459707796573638916015625"><ele></ele><time>2016-7-29T5:38:8Z</time></trkpt>
<trkpt lat="46.62152082659304141998291015625" lon="7.06834821961820125579833984375"><ele></ele><time>2016-7-29T5:38:11Z</time></trkpt>
<trkpt lat="46.62154815159738063812255859375" lon="7.06835308112204074859619140625"><ele></ele><time>2016-7-29T5:38:14Z</time></trkpt>
<trkpt lat="46.62168041802942752838134765625" lon="7.06839532591402530670166015625"><ele></ele><time>2016-7-29T5:38:17Z</time></trkpt>
<trkpt lat="46.6217227466404438018798828125" lon="7.06857101060450077056884765625"><ele></ele><time>2016-7-29T5:38:20Z</time></trkpt>
<trkpt lat="46.62180061452090740203857421875" lon="7.068660445511341094970703125"><ele></ele><time>2016-7-29T5:38:23Z</time></trkpt>
<trkpt lat="46.62186331115663051605224609375" lon="7.06866681575775146484375"><ele></ele><time>2016-7-29T5:38:26Z</time></trkpt>
<trkpt lat="46.6220167838037014007568359375" lon="7.06865700893104076385498046875"><ele></ele><time>2016-7-29T5:38:29Z</time></trkpt>
<trkpt lat="46.62231928668916225433349609375" lon="7.0686394907534122467041015625"><ele></ele><time>2016-7-29T5:38:32Z</time></trkpt>
<trkpt lat="46.62237343378365039825439453125" lon="7.068607807159423828125"><ele></ele><time>2016-7-29T5:38:35Z</time></trkpt>
<trkpt lat="46.6223782114684581756591796875" lon="7.0685850083827972412109375"><ele></ele><time>2016-7-29T5:38:38Z</time></trkpt>
<trkpt lat="46.62236857227981090545654296875" lon="7.068474702537059783935546875"><ele></ele><time>2016-7-29T5:38:41Z</time></trkpt>
<trkpt lat="46.62241165526211261749267578125" lon="7.068347632884979248046875"><ele></ele><time>2016-7-29T5:38:44Z</time></trkpt>
<trkpt lat="46.6224352084100246429443359375" lon="7.06831251271069049835205078125"><ele></ele><time>2016-7-29T5:38:47Z</time></trkpt>
<trkpt lat="46.62246278487145900726318359375" lon="7.06829709000885486602783203125"><ele></ele><time>2016-7-29T5:38:50Z</time></trkpt>
<trkpt lat="46.62253704853355884552001953125" lon="7.0682773925364017486572265625"><ele></ele><time>2016-7-29T5:38:53Z</time></trkpt>
<trkpt lat="46.62282236851751804351806640625" lon="7.0682505704462528228759765625"><ele></ele><time>2016-7-29T5:38:56Z</time></trkpt>
<trkpt lat="46.62313953973352909088134765625" lon="7.06822483800351619720458984375"><ele></ele><time>2016-7-29T5:38:59Z</time></trkpt>
<trkpt lat="46.623455621302127838134765625" lon="7.06820673309266567230224609375"><ele></ele><time>2016-7-29T5:39:2Z</time></trkpt>
<trkpt lat="46.62381864152848720550537109375" lon="7.06818468868732452392578125"><ele></ele><time>2016-7-29T5:39:5Z</time></trkpt>
<trkpt lat="46.62415961734950542449951171875" lon="7.06817203201353549957275390625"><ele></ele><time>2016-7-29T5:39:8Z</time></trkpt>
<trkpt lat="46.62446388043463230133056640625" lon="7.06814588047564029693603515625"><ele></ele><time>2016-7-29T5:39:11Z</time></trkpt>
<trkpt lat="46.62487040273845195770263671875" lon="7.068121321499347686767578125"><ele></ele><time>2016-7-29T5:39:14Z</time></trkpt>
<trkpt lat="46.62527474574744701385498046875" lon="7.06810631789267063140869140625"><ele></ele><time>2016-7-29T5:39:17Z</time></trkpt>
<trkpt lat="46.6255928389728069305419921875" lon="7.0680953375995159149169921875"><ele></ele><time>2016-7-29T5:39:20Z</time></trkpt>
<trkpt lat="46.6259227506816387176513671875" lon="7.068062983453273773193359375"><ele></ele><time>2016-7-29T5:39:23Z</time></trkpt>
<trkpt lat="46.6260156221687793731689453125" lon="7.06805166788399219512939453125"><ele></ele><time>2016-7-29T5:39:26Z</time></trkpt>
<trkpt lat="46.62623380310833454132080078125" lon="7.06799148581922054290771484375"><ele></ele><time>2016-7-29T5:39:29Z</time></trkpt>
<trkpt lat="46.62663479335606098175048828125" lon="7.06782929599285125732421875"><ele></ele><time>2016-7-29T5:39:32Z</time></trkpt>
<trkpt lat="46.62693201564252376556396484375" lon="7.067661993205547332763671875"><ele></ele><time>2016-7-29T5:39:35Z</time></trkpt>
<trkpt lat="46.62720476277172565460205078125" lon="7.0674640126526355743408203125"><ele></ele><time>2016-7-29T5:39:38Z</time></trkpt>
<trkpt lat="46.62737734615802764892578125" lon="7.0672879926860332489013671875"><ele></ele><time>2016-7-29T5:39:41Z</time></trkpt>
<trkpt lat="46.627618409693241119384765625" lon="7.06709814257919788360595703125"><ele></ele><time>2016-7-29T5:39:44Z</time></trkpt>
<trkpt lat="46.62777875550091266632080078125" lon="7.0670722424983978271484375"><ele></ele><time>2016-7-29T5:39:47Z</time></trkpt>
<trkpt lat="46.6278053261339664459228515625" lon="7.0671277306973934173583984375"><ele></ele><time>2016-7-29T5:39:50Z</time></trkpt>
<trkpt lat="46.6278474032878875732421875" lon="7.06730266101658344268798828125"><ele></ele><time>2016-7-29T5:39:53Z</time></trkpt>
<trkpt lat="46.6279890574514865875244140625" lon="7.06750349141657352447509765625"><ele></ele><time>2016-7-29T5:39:56Z</time></trkpt>
<trkpt lat="46.6281902231276035308837890625" lon="7.06775955855846405029296875"><ele></ele><time>2016-7-29T5:39:59Z</time></trkpt>
<trkpt lat="46.6284111700952053070068359375" lon="7.06803850829601287841796875"><ele></ele><time>2016-7-29T5:40:2Z</time></trkpt>
<trkpt lat="46.62850060500204563140869140625" lon="7.068270854651927947998046875"><ele></ele><time>2016-7-29T5:40:5Z</time></trkpt>
<trkpt lat="46.62860982120037078857421875" lon="7.06866036169230937957763671875"><ele></ele><time>2016-7-29T5:40:8Z</time></trkpt>
<trkpt lat="46.62865935824811458587646484375" lon="7.06898557953536510467529296875"><ele></ele><time>2016-7-29T5:40:11Z</time></trkpt>
<trkpt lat="46.62873848341405391693115234375" lon="7.069390006363391876220703125"><ele></ele><time>2016-7-29T5:40:14Z</time></trkpt>
<trkpt lat="46.628818027675151824951171875" lon="7.0696976222097873687744140625"><ele></ele><time>2016-7-29T5:40:17Z</time></trkpt>
<trkpt lat="46.6289120726287364959716796875" lon="7.07000297494232654571533203125"><ele></ele><time>2016-7-29T5:40:20Z</time></trkpt>
<trkpt lat="46.6289685666561126708984375" lon="7.070187628269195556640625"><ele></ele><time>2016-7-29T5:40:23Z</time></trkpt>
<trkpt lat="46.6290797106921672821044921875" lon="7.0705002732574939727783203125"><ele></ele><time>2016-7-29T5:40:26Z</time></trkpt>
<trkpt lat="46.62919898517429828643798828125" lon="7.07084451802074909210205078125"><ele></ele><time>2016-7-29T5:40:29Z</time></trkpt>
<trkpt lat="46.62930208258330821990966796875" lon="7.07114844582974910736083984375"><ele></ele><time>2016-7-29T5:40:32Z</time></trkpt>
<trkpt lat="46.6294082812964916229248046875" lon="7.07143845967948436737060546875"><ele></ele><time>2016-7-29T5:40:35Z</time></trkpt>
<trkpt lat="46.62950173951685428619384765625" lon="7.0716918446123600006103515625"><ele></ele><time>2016-7-29T5:40:38Z</time></trkpt>
<trkpt lat="46.62959611974656581878662109375" lon="7.07196526229381561279296875"><ele></ele><time>2016-7-29T5:40:41Z</time></trkpt>
<trkpt lat="46.62970106117427349090576171875" lon="7.07224194891750812530517578125"><ele></ele><time>2016-7-29T5:40:44Z</time></trkpt>
<trkpt lat="46.6298268735408782958984375" lon="7.07256414927542209625244140625"><ele></ele><time>2016-7-29T5:40:47Z</time></trkpt>
<trkpt lat="46.629952602088451385498046875" lon="7.07286623306572437286376953125"><ele></ele><time>2016-7-29T5:40:50Z</time></trkpt>
<trkpt lat="46.6300795041024684906005859375" lon="7.073183320462703704833984375"><ele></ele><time>2016-7-29T5:40:53Z</time></trkpt>
<trkpt lat="46.63012325763702392578125" lon="7.07348163239657878875732421875"><ele></ele><time>2016-7-29T5:40:56Z</time></trkpt>
<trkpt lat="46.63009819574654102325439453125" lon="7.07368581555783748626708984375"><ele></ele><time>2016-7-29T5:40:59Z</time></trkpt>
<trkpt lat="46.630117557942867279052734375" lon="7.07390089519321918487548828125"><ele></ele><time>2016-7-29T5:41:2Z</time></trkpt>
<trkpt lat="46.6301200725138187408447265625" lon="7.0741849578917026519775390625"><ele></ele><time>2016-7-29T5:41:5Z</time></trkpt>
<trkpt lat="46.63007958792150020599365234375" lon="7.07455568946897983551025390625"><ele></ele><time>2016-7-29T5:41:8Z</time></trkpt>
<trkpt lat="46.630083359777927398681640625" lon="7.074722908437252044677734375"><ele></ele><time>2016-7-29T5:41:11Z</time></trkpt>
<trkpt lat="46.630093418061733245849609375" lon="7.0749269239604473114013671875"><ele></ele><time>2016-7-29T5:41:14Z</time></trkpt>
<trkpt lat="46.63014899007976055145263671875" lon="7.075094394385814666748046875"><ele></ele><time>2016-7-29T5:41:17Z</time></trkpt>
<trkpt lat="46.63028812967240810394287109375" lon="7.0752615295350551605224609375"><ele></ele><time>2016-7-29T5:41:20Z</time></trkpt>
<trkpt lat="46.63043397478759288787841796875" lon="7.07535079680383205413818359375"><ele></ele><time>2016-7-29T5:41:23Z</time></trkpt>
<trkpt lat="46.6305636428296566009521484375" lon="7.07543562166392803192138671875"><ele></ele><time>2016-7-29T5:41:26Z</time></trkpt>
<trkpt lat="46.6307014413177967071533203125" lon="7.075536288321018218994140625"><ele></ele><time>2016-7-29T5:41:29Z</time></trkpt>
<trkpt lat="46.6308653913438320159912109375" lon="7.07565061748027801513671875"><ele></ele><time>2016-7-29T5:41:32Z</time></trkpt>
<trkpt lat="46.6310397349298000335693359375" lon="7.07577626220881938934326171875"><ele></ele><time>2016-7-29T5:41:35Z</time></trkpt>
<trkpt lat="46.631191782653331756591796875" lon="7.075928561389446258544921875"><ele></ele><time>2016-7-29T5:41:38Z</time></trkpt>
<trkpt lat="46.6312858276069164276123046875" lon="7.07606795243918895721435546875"><ele></ele><time>2016-7-29T5:41:41Z</time></trkpt>
<trkpt lat="46.63140845485031604766845703125" lon="7.07623877562582492828369140625"><ele></ele><time>2016-7-29T5:41:44Z</time></trkpt>
<trkpt lat="46.6315617598593235015869140625" lon="7.07643776200711727142333984375"><ele></ele><time>2016-7-29T5:41:47Z</time></trkpt>
<trkpt lat="46.63169377483427524566650390625" lon="7.07665703259408473968505859375"><ele></ele><time>2016-7-29T5:41:50Z</time></trkpt>
<trkpt lat="46.63183023221790790557861328125" lon="7.07685719244182109832763671875"><ele></ele><time>2016-7-29T5:41:53Z</time></trkpt>
<trkpt lat="46.63205377757549285888671875" lon="7.07705265842378139495849609375"><ele></ele><time>2016-7-29T5:41:56Z</time></trkpt>
<trkpt lat="46.63236147724092006683349609375" lon="7.077254243195056915283203125"><ele></ele><time>2016-7-29T5:41:59Z</time></trkpt>
<trkpt lat="46.632443703711032867431640625" lon="7.0773209631443023681640625"><ele></ele><time>2016-7-29T5:42:2Z</time></trkpt>
<trkpt lat="46.63251989521086215972900390625" lon="7.07738005556166172027587890625"><ele></ele><time>2016-7-29T5:42:5Z</time></trkpt>
<trkpt lat="46.63262919522821903228759765625" lon="7.0774699933826923370361328125"><ele></ele><time>2016-7-29T5:42:8Z</time></trkpt>
<trkpt lat="46.63270982913672924041748046875" lon="7.0775313489139080047607421875"><ele></ele><time>2016-7-29T5:42:11Z</time></trkpt>
<trkpt lat="46.63276213221251964569091796875" lon="7.0775762759149074554443359375"><ele></ele><time>2016-7-29T5:42:14Z</time></trkpt>
<trkpt lat="46.6328542493283748626708984375" lon="7.07764777354896068572998046875"><ele></ele><time>2016-7-29T5:42:17Z</time></trkpt>
<trkpt lat="46.6330306045711040496826171875" lon="7.07774282433092594146728515625"><ele></ele><time>2016-7-29T5:42:20Z</time></trkpt>
<trkpt lat="46.63324928842484951019287109375" lon="7.0778287388384342193603515625"><ele></ele><time>2016-7-29T5:42:23Z</time></trkpt>
<trkpt lat="46.63336663506925106048583984375" lon="7.07786000333726406097412109375"><ele></ele><time>2016-7-29T5:42:26Z</time></trkpt>
<trkpt lat="46.63346872664988040924072265625" lon="7.07788146100938320159912109375"><ele></ele><time>2016-7-29T5:42:29Z</time></trkpt>
<trkpt lat="46.63352035917341709136962890625" lon="7.07790023647248744964599609375"><ele></ele><time>2016-7-29T5:42:32Z</time></trkpt>
<trkpt lat="46.63362513296306133270263671875" lon="7.0779206044971942901611328125"><ele></ele><time>2016-7-29T5:42:35Z</time></trkpt>
<trkpt lat="46.6337162442505359649658203125" lon="7.07795958034694194793701171875"><ele></ele><time>2016-7-29T5:42:38Z</time></trkpt>
<trkpt lat="46.6341054998338222503662109375" lon="7.078050859272480010986328125"><ele></ele><time>2016-7-29T5:42:41Z</time></trkpt>
<trkpt lat="46.6341693699359893798828125" lon="7.0780738256871700286865234375"><ele></ele><time>2016-7-29T5:42:44Z</time></trkpt>
<trkpt lat="46.63439023308455944061279296875" lon="7.0781229436397552490234375"><ele></ele><time>2016-7-29T5:42:47Z</time></trkpt>
<trkpt lat="46.63478334434330463409423828125" lon="7.0782890729606151580810546875"><ele></ele><time>2016-7-29T5:42:50Z</time></trkpt>
<trkpt lat="46.63493924774229526519775390625" lon="7.0783668570220470428466796875"><ele></ele><time>2016-7-29T5:42:53Z</time></trkpt>
<trkpt lat="46.63502876646816730499267578125" lon="7.07844874821603298187255859375"><ele></ele><time>2016-7-29T5:42:56Z</time></trkpt>
<trkpt lat="46.63510210812091827392578125" lon="7.0785177312791347503662109375"><ele></ele><time>2016-7-29T5:42:59Z</time></trkpt>
<trkpt lat="46.6351805627346038818359375" lon="7.078550420701503753662109375"><ele></ele><time>2016-7-29T5:43:2Z</time></trkpt>
<trkpt lat="46.63532112725079059600830078125" lon="7.07866273820400238037109375"><ele></ele><time>2016-7-29T5:43:5Z</time></trkpt>
<trkpt lat="46.6354194469749927520751953125" lon="7.0787872932851314544677734375"><ele></ele><time>2016-7-29T5:43:8Z</time></trkpt>
<trkpt lat="46.63557459600269794464111328125" lon="7.07897211425006389617919921875"><ele></ele><time>2016-7-29T5:43:11Z</time></trkpt>
<trkpt lat="46.63561650551855564117431640625" lon="7.0790387503802776336669921875"><ele></ele><time>2016-7-29T5:43:14Z</time></trkpt>
<trkpt lat="46.63569177500903606414794921875" lon="7.079271264374256134033203125"><ele></ele><time>2016-7-29T5:43:17Z</time></trkpt>
<trkpt lat="46.635716669261455535888671875" lon="7.07945155911147594451904296875"><ele></ele><time>2016-7-29T5:43:20Z</time></trkpt>
<trkpt lat="46.6357510350644588470458984375" lon="7.07972279749810695648193359375"><ele></ele><time>2016-7-29T5:43:23Z</time></trkpt>
<trkpt lat="46.635817252099514007568359375" lon="7.0800794474780559539794921875"><ele></ele><time>2016-7-29T5:43:26Z</time></trkpt>
<trkpt lat="46.63588489405810832977294921875" lon="7.08024448715150356292724609375"><ele></ele><time>2016-7-29T5:43:29Z</time></trkpt>
<trkpt lat="46.6360749118030071258544921875" lon="7.08042436279356479644775390625"><ele></ele><time>2016-7-29T5:43:32Z</time></trkpt>
<trkpt lat="46.63613920100033283233642578125" lon="7.08047968335449695587158203125"><ele></ele><time>2016-7-29T5:43:35Z</time></trkpt>
<trkpt lat="46.63643223233520984649658203125" lon="7.0808078348636627197265625"><ele></ele><time>2016-7-29T5:43:38Z</time></trkpt>
<trkpt lat="46.636673547327518463134765625" lon="7.08115811459720134735107421875"><ele></ele><time>2016-7-29T5:43:41Z</time></trkpt>
<trkpt lat="46.63673649542033672332763671875" lon="7.0811922289431095123291015625"><ele></ele><time>2016-7-29T5:43:44Z</time></trkpt>
<trkpt lat="46.6369563527405261993408203125" lon="7.08118258975446224212646484375"><ele></ele><time>2016-7-29T5:43:47Z</time></trkpt>
<trkpt lat="46.6370270960032939910888671875" lon="7.08117035217583179473876953125"><ele></ele><time>2016-7-29T5:43:50Z</time></trkpt>
<trkpt lat="46.637399755418300628662109375" lon="7.081046216189861297607421875"><ele></ele><time>2016-7-29T5:43:53Z</time></trkpt>
<trkpt lat="46.63769806735217571258544921875" lon="7.08101243712007999420166015625"><ele></ele><time>2016-7-29T5:43:56Z</time></trkpt>
<trkpt lat="46.6380399651825428009033203125" lon="7.081047557294368743896484375"><ele></ele><time>2016-7-29T5:43:59Z</time></trkpt>
<trkpt lat="46.63835235871374607086181640625" lon="7.08106708712875843048095703125"><ele></ele><time>2016-7-29T5:44:2Z</time></trkpt>
<trkpt lat="46.63843986578285694122314453125" lon="7.08106658421456813812255859375"><ele></ele><time>2016-7-29T5:44:5Z</time></trkpt>
<trkpt lat="46.63860381580889225006103515625" lon="7.08107002079486846923828125"><ele></ele><time>2016-7-29T5:44:8Z</time></trkpt>
<trkpt lat="46.63866215385496616363525390625" lon="7.081024087965488433837890625"><ele></ele><time>2016-7-29T5:44:11Z</time></trkpt>
<trkpt lat="46.638885699212551116943359375" lon="7.0808381773531436920166015625"><ele></ele><time>2016-7-29T5:44:14Z</time></trkpt>
<trkpt lat="46.63912550546228885650634765625" lon="7.08064556121826171875"><ele></ele><time>2016-7-29T5:44:17Z</time></trkpt>
<trkpt lat="46.6392977535724639892578125" lon="7.08035278134047985076904296875"><ele></ele><time>2016-7-29T5:44:20Z</time></trkpt>
<trkpt lat="46.63947301916778087615966796875" lon="7.08006729371845722198486328125"><ele></ele><time>2016-7-29T5:44:23Z</time></trkpt>
<trkpt lat="46.6396878473460674285888671875" lon="7.07969228737056255340576171875"><ele></ele><time>2016-7-29T5:44:26Z</time></trkpt>
<trkpt lat="46.63990451954305171966552734375" lon="7.079277969896793365478515625"><ele></ele><time>2016-7-29T5:44:29Z</time></trkpt>
<trkpt lat="46.6401354409754276275634765625" lon="7.0787452161312103271484375"><ele></ele><time>2016-7-29T5:44:32Z</time></trkpt>
<trkpt lat="46.64033065550029277801513671875" lon="7.078275494277477264404296875"><ele></ele><time>2016-7-29T5:44:35Z</time></trkpt>
<trkpt lat="46.64055101573467254638671875" lon="7.0777462609112262725830078125"><ele></ele><time>2016-7-29T5:44:38Z</time></trkpt>
<trkpt lat="46.6406554542481899261474609375" lon="7.077511735260486602783203125"><ele></ele><time>2016-7-29T5:44:41Z</time></trkpt>
<trkpt lat="46.64069359190762042999267578125" lon="7.0774119906127452850341796875"><ele></ele><time>2016-7-29T5:44:44Z</time></trkpt>
<trkpt lat="46.640934906899929046630859375" lon="7.0768034644424915313720703125"><ele></ele><time>2016-7-29T5:44:47Z</time></trkpt>
<trkpt lat="46.64114654995501041412353515625" lon="7.07641144283115863800048828125"><ele></ele><time>2016-7-29T5:44:50Z</time></trkpt>
<trkpt lat="46.641403622925281524658203125" lon="7.07603828050196170806884765625"><ele></ele><time>2016-7-29T5:44:53Z</time></trkpt>
<trkpt lat="46.64166036061942577362060546875" lon="7.075698561966419219970703125"><ele></ele><time>2016-7-29T5:44:56Z</time></trkpt>
<trkpt lat="46.64169766008853912353515625" lon="7.07567148841917514801025390625"><ele></ele><time>2016-7-29T5:44:59Z</time></trkpt>
<trkpt lat="46.64183788932859897613525390625" lon="7.07562572322785854339599609375"><ele></ele><time>2016-7-29T5:45:2Z</time></trkpt>
<trkpt lat="46.641930006444454193115234375" lon="7.075622789561748504638671875"><ele></ele><time>2016-7-29T5:45:5Z</time></trkpt>
<trkpt lat="46.64233007468283176422119140625" lon="7.075670398771762847900390625"><ele></ele><time>2016-7-29T5:45:8Z</time></trkpt>
<trkpt lat="46.64273257367312908172607421875" lon="7.075731754302978515625"><ele></ele><time>2016-7-29T5:45:11Z</time></trkpt>
<trkpt lat="46.64310003630816936492919921875" lon="7.07581314258277416229248046875"><ele></ele><time>2016-7-29T5:45:14Z</time></trkpt>
<trkpt lat="46.6435331292450428009033203125" lon="7.075893022119998931884765625"><ele></ele><time>2016-7-29T5:45:17Z</time></trkpt>
<trkpt lat="46.643998324871063232421875" lon="7.07592680118978023529052734375"><ele></ele><time>2016-7-29T5:45:20Z</time></trkpt>
<trkpt lat="46.64434893988072872161865234375" lon="7.075943984091281890869140625"><ele></ele><time>2016-7-29T5:45:23Z</time></trkpt>
<trkpt lat="46.6447542048990726470947265625" lon="7.07587055861949920654296875"><ele></ele><time>2016-7-29T5:45:26Z</time></trkpt>
<trkpt lat="46.64511169306933879852294921875" lon="7.07577802240848541259765625"><ele></ele><time>2016-7-29T5:45:29Z</time></trkpt>
<trkpt lat="46.645181514322757720947265625" lon="7.07573418505489826202392578125"><ele></ele><time>2016-7-29T5:45:32Z</time></trkpt>
<trkpt lat="46.6453660838305950164794921875" lon="7.07561063580214977264404296875"><ele></ele><time>2016-7-29T5:45:35Z</time></trkpt>
<trkpt lat="46.64544730447232723236083984375" lon="7.07558196969330310821533203125"><ele></ele><time>2016-7-29T5:45:38Z</time></trkpt>
<trkpt lat="46.6454894654452800750732421875" lon="7.0755746774375438690185546875"><ele></ele><time>2016-7-29T5:45:41Z</time></trkpt>
<trkpt lat="46.6455521620810031890869140625" lon="7.0755694806575775146484375"><ele></ele><time>2016-7-29T5:45:44Z</time></trkpt>
<trkpt lat="46.64558325894176959991455078125" lon="7.075574509799480438232421875"><ele></ele><time>2016-7-29T5:45:47Z</time></trkpt>
<trkpt lat="46.645705886185169219970703125" lon="7.075645588338375091552734375"><ele></ele><time>2016-7-29T5:45:50Z</time></trkpt>
<trkpt lat="46.645862124860286712646484375" lon="7.0757942833006381988525390625"><ele></ele><time>2016-7-29T5:45:53Z</time></trkpt>
<trkpt lat="46.64587059058248996734619140625" lon="7.075828649103641510009765625"><ele></ele><time>2016-7-29T5:45:56Z</time></trkpt>
<trkpt lat="46.64583404548466205596923828125" lon="7.0759314112365245819091796875"><ele></ele><time>2016-7-29T5:45:59Z</time></trkpt>
<trkpt lat="46.6457258351147174835205078125" lon="7.075948677957057952880859375"><ele></ele><time>2016-7-29T5:46:2Z</time></trkpt>
<trkpt lat="46.6456839255988597869873046875" lon="7.075965106487274169921875"><ele></ele><time>2016-7-29T5:46:5Z</time></trkpt>
<trkpt lat="46.64568233303725719451904296875" lon="7.0759723149240016937255859375"><ele></ele><time>2016-7-29T5:46:8Z</time></trkpt>
<trkpt lat="46.64567713625729084014892578125" lon="7.07597793079912662506103515625"><ele></ele><time>2016-7-29T5:46:11Z</time></trkpt>
</trkseg></trk></gpx>